<?xml version="1.0" encoding="UTF-8" standalone="no" ?>
<gpx xmlns="http://www.topografix.com/GPX/1/1" xmlns:xsi="http://www.w3.org/2001/XMLSchema-instance" xsi:schemaLocation="http://www.topografix.com/GPX/1/1 http://www.topografix.com/GPX/1/1/gpx.xsd" version="1.1" creator="VisuGPX - https://www.visugpx.com">
  <metadata>
    <name>cagny</name>
    <desc><![CDATA[5 pax
Hall athlantic
Sport et santé
Latifa ]]></desc>
  </metadata>
  <trk>
    <name><![CDATA[cagny_1]]></name>
    <trkseg>
      <trkpt lat="49.8742" lon="2.33479">
        <ele>39</ele>
        <time>2023-04-06T12:08:33Z</time>
      </trkpt>
      <trkpt lat="49.87398" lon="2.33504">
        <ele>37.9</ele>
        <time>2023-04-06T12:08:34Z</time>
      </trkpt>
      <trkpt lat="49.87381" lon="2.33523">
        <ele>37.3</ele>
        <time>2023-04-06T12:08:44Z</time>
      </trkpt>
      <trkpt lat="49.87372" lon="2.3352">
        <ele>37.2</ele>
        <time>2023-04-06T12:08:45Z</time>
      </trkpt>
      <trkpt lat="49.87372" lon="2.33518">
        <ele>37.2</ele>
        <time>2023-04-06T12:08:46Z</time>
      </trkpt>
      <trkpt lat="49.8737" lon="2.33519">
        <ele>37.1</ele>
        <time>2023-04-06T12:08:47Z</time>
      </trkpt>
      <trkpt lat="49.87367" lon="2.33521">
        <ele>37.1</ele>
        <time>2023-04-06T12:08:49Z</time>
      </trkpt>
      <trkpt lat="49.87367" lon="2.33521">
        <ele>37.1</ele>
        <time>2023-04-06T12:08:50Z</time>
      </trkpt>
      <trkpt lat="49.87366" lon="2.33522">
        <ele>37.1</ele>
        <time>2023-04-06T12:08:51Z</time>
      </trkpt>
      <trkpt lat="49.87365" lon="2.33522">
        <ele>37.1</ele>
        <time>2023-04-06T12:08:52Z</time>
      </trkpt>
      <trkpt lat="49.87366" lon="2.33522">
        <ele>37.1</ele>
        <time>2023-04-06T12:08:53Z</time>
      </trkpt>
      <trkpt lat="49.87367" lon="2.33522">
        <ele>37</ele>
        <time>2023-04-06T12:08:54Z</time>
      </trkpt>
      <trkpt lat="49.8737" lon="2.33522">
        <ele>37</ele>
        <time>2023-04-06T12:08:55Z</time>
      </trkpt>
      <trkpt lat="49.87368" lon="2.33522">
        <ele>37</ele>
        <time>2023-04-06T12:08:56Z</time>
      </trkpt>
      <trkpt lat="49.87365" lon="2.33521">
        <ele>37</ele>
        <time>2023-04-06T12:08:58Z</time>
      </trkpt>
      <trkpt lat="49.87363" lon="2.33521">
        <ele>36.9</ele>
        <time>2023-04-06T12:08:59Z</time>
      </trkpt>
      <trkpt lat="49.87357" lon="2.33519">
        <ele>36.9</ele>
        <time>2023-04-06T12:09:00Z</time>
      </trkpt>
      <trkpt lat="49.87353" lon="2.33519">
        <ele>37</ele>
        <time>2023-04-06T12:09:01Z</time>
      </trkpt>
      <trkpt lat="49.8735" lon="2.33519">
        <ele>37</ele>
        <time>2023-04-06T12:09:02Z</time>
      </trkpt>
      <trkpt lat="49.87348" lon="2.33522">
        <ele>37</ele>
        <time>2023-04-06T12:09:03Z</time>
      </trkpt>
      <trkpt lat="49.87347" lon="2.33523">
        <ele>37</ele>
        <time>2023-04-06T12:09:05Z</time>
      </trkpt>
      <trkpt lat="49.87347" lon="2.33523">
        <ele>37</ele>
        <time>2023-04-06T12:09:06Z</time>
      </trkpt>
      <trkpt lat="49.87346" lon="2.33524">
        <ele>37</ele>
        <time>2023-04-06T12:09:07Z</time>
      </trkpt>
      <trkpt lat="49.87345" lon="2.33525">
        <ele>37</ele>
        <time>2023-04-06T12:09:08Z</time>
      </trkpt>
      <trkpt lat="49.87344" lon="2.33525">
        <ele>37</ele>
        <time>2023-04-06T12:09:09Z</time>
      </trkpt>
      <trkpt lat="49.87342" lon="2.33526">
        <ele>37</ele>
        <time>2023-04-06T12:09:10Z</time>
      </trkpt>
      <trkpt lat="49.87341" lon="2.33527">
        <ele>37</ele>
        <time>2023-04-06T12:09:12Z</time>
      </trkpt>
      <trkpt lat="49.8734" lon="2.33527">
        <ele>37.1</ele>
        <time>2023-04-06T12:09:13Z</time>
      </trkpt>
      <trkpt lat="49.87339" lon="2.33527">
        <ele>37.1</ele>
        <time>2023-04-06T12:09:14Z</time>
      </trkpt>
      <trkpt lat="49.87338" lon="2.33528">
        <ele>37.1</ele>
        <time>2023-04-06T12:09:15Z</time>
      </trkpt>
      <trkpt lat="49.87337" lon="2.33529">
        <ele>37.1</ele>
        <time>2023-04-06T12:09:16Z</time>
      </trkpt>
      <trkpt lat="49.87336" lon="2.33529">
        <ele>37.1</ele>
        <time>2023-04-06T12:09:17Z</time>
      </trkpt>
      <trkpt lat="49.87336" lon="2.33529">
        <ele>37.1</ele>
        <time>2023-04-06T12:09:18Z</time>
      </trkpt>
      <trkpt lat="49.87335" lon="2.3353">
        <ele>37.1</ele>
        <time>2023-04-06T12:09:19Z</time>
      </trkpt>
      <trkpt lat="49.87334" lon="2.3353">
        <ele>37.1</ele>
        <time>2023-04-06T12:09:20Z</time>
      </trkpt>
      <trkpt lat="49.87333" lon="2.33531">
        <ele>37.1</ele>
        <time>2023-04-06T12:09:21Z</time>
      </trkpt>
      <trkpt lat="49.87332" lon="2.33532">
        <ele>37.2</ele>
        <time>2023-04-06T12:09:23Z</time>
      </trkpt>
      <trkpt lat="49.8733" lon="2.33533">
        <ele>37.2</ele>
        <time>2023-04-06T12:09:24Z</time>
      </trkpt>
      <trkpt lat="49.87329" lon="2.33534">
        <ele>37.2</ele>
        <time>2023-04-06T12:09:25Z</time>
      </trkpt>
      <trkpt lat="49.87327" lon="2.33535">
        <ele>37.3</ele>
        <time>2023-04-06T12:09:26Z</time>
      </trkpt>
      <trkpt lat="49.87326" lon="2.33536">
        <ele>37.3</ele>
        <time>2023-04-06T12:09:27Z</time>
      </trkpt>
      <trkpt lat="49.87324" lon="2.33536">
        <ele>37.3</ele>
        <time>2023-04-06T12:09:28Z</time>
      </trkpt>
      <trkpt lat="49.87323" lon="2.33537">
        <ele>37.3</ele>
        <time>2023-04-06T12:09:29Z</time>
      </trkpt>
      <trkpt lat="49.87321" lon="2.33538">
        <ele>37.4</ele>
        <time>2023-04-06T12:09:30Z</time>
      </trkpt>
      <trkpt lat="49.87319" lon="2.33539">
        <ele>37.4</ele>
        <time>2023-04-06T12:09:32Z</time>
      </trkpt>
      <trkpt lat="49.87318" lon="2.33539">
        <ele>37.4</ele>
        <time>2023-04-06T12:09:33Z</time>
      </trkpt>
      <trkpt lat="49.87317" lon="2.3354">
        <ele>37.4</ele>
        <time>2023-04-06T12:09:34Z</time>
      </trkpt>
      <trkpt lat="49.87316" lon="2.33541">
        <ele>37.5</ele>
        <time>2023-04-06T12:09:35Z</time>
      </trkpt>
      <trkpt lat="49.87315" lon="2.33541">
        <ele>37.5</ele>
        <time>2023-04-06T12:09:36Z</time>
      </trkpt>
      <trkpt lat="49.87314" lon="2.33542">
        <ele>37.5</ele>
        <time>2023-04-06T12:09:37Z</time>
      </trkpt>
      <trkpt lat="49.87313" lon="2.33542">
        <ele>37.5</ele>
        <time>2023-04-06T12:09:38Z</time>
      </trkpt>
      <trkpt lat="49.8731" lon="2.33543">
        <ele>37.5</ele>
        <time>2023-04-06T12:09:39Z</time>
      </trkpt>
      <trkpt lat="49.87309" lon="2.33543">
        <ele>37.5</ele>
        <time>2023-04-06T12:09:40Z</time>
      </trkpt>
      <trkpt lat="49.87309" lon="2.33544">
        <ele>37.5</ele>
        <time>2023-04-06T12:09:42Z</time>
      </trkpt>
      <trkpt lat="49.87307" lon="2.33544">
        <ele>37.5</ele>
        <time>2023-04-06T12:09:43Z</time>
      </trkpt>
      <trkpt lat="49.87306" lon="2.33545">
        <ele>37.5</ele>
        <time>2023-04-06T12:09:44Z</time>
      </trkpt>
      <trkpt lat="49.87304" lon="2.33545">
        <ele>37.5</ele>
        <time>2023-04-06T12:09:45Z</time>
      </trkpt>
      <trkpt lat="49.87303" lon="2.33546">
        <ele>37.5</ele>
        <time>2023-04-06T12:09:46Z</time>
      </trkpt>
      <trkpt lat="49.87303" lon="2.33546">
        <ele>37.5</ele>
        <time>2023-04-06T12:09:47Z</time>
      </trkpt>
      <trkpt lat="49.87301" lon="2.33547">
        <ele>37.5</ele>
        <time>2023-04-06T12:09:48Z</time>
      </trkpt>
      <trkpt lat="49.873" lon="2.33547">
        <ele>37.5</ele>
        <time>2023-04-06T12:09:49Z</time>
      </trkpt>
      <trkpt lat="49.87297" lon="2.33548">
        <ele>37.5</ele>
        <time>2023-04-06T12:09:51Z</time>
      </trkpt>
      <trkpt lat="49.87296" lon="2.33548">
        <ele>37.5</ele>
        <time>2023-04-06T12:09:52Z</time>
      </trkpt>
      <trkpt lat="49.87295" lon="2.33548">
        <ele>37.5</ele>
        <time>2023-04-06T12:09:53Z</time>
      </trkpt>
      <trkpt lat="49.87293" lon="2.33549">
        <ele>37.4</ele>
        <time>2023-04-06T12:09:54Z</time>
      </trkpt>
      <trkpt lat="49.87291" lon="2.3355">
        <ele>37.4</ele>
        <time>2023-04-06T12:09:56Z</time>
      </trkpt>
      <trkpt lat="49.8729" lon="2.3355">
        <ele>37.4</ele>
        <time>2023-04-06T12:09:57Z</time>
      </trkpt>
      <trkpt lat="49.8729" lon="2.3355">
        <ele>37.4</ele>
        <time>2023-04-06T12:09:58Z</time>
      </trkpt>
      <trkpt lat="49.87287" lon="2.33552">
        <ele>37.4</ele>
        <time>2023-04-06T12:09:59Z</time>
      </trkpt>
      <trkpt lat="49.87286" lon="2.33552">
        <ele>37.4</ele>
        <time>2023-04-06T12:10:00Z</time>
      </trkpt>
      <trkpt lat="49.87285" lon="2.33553">
        <ele>37.4</ele>
        <time>2023-04-06T12:10:01Z</time>
      </trkpt>
      <trkpt lat="49.87283" lon="2.33553">
        <ele>37.4</ele>
        <time>2023-04-06T12:10:02Z</time>
      </trkpt>
      <trkpt lat="49.87282" lon="2.33553">
        <ele>37.4</ele>
        <time>2023-04-06T12:10:03Z</time>
      </trkpt>
      <trkpt lat="49.87281" lon="2.33554">
        <ele>37.4</ele>
        <time>2023-04-06T12:10:04Z</time>
      </trkpt>
      <trkpt lat="49.87279" lon="2.33554">
        <ele>37.3</ele>
        <time>2023-04-06T12:10:06Z</time>
      </trkpt>
      <trkpt lat="49.87278" lon="2.33555">
        <ele>37.4</ele>
        <time>2023-04-06T12:10:07Z</time>
      </trkpt>
      <trkpt lat="49.87276" lon="2.33556">
        <ele>37.4</ele>
        <time>2023-04-06T12:10:08Z</time>
      </trkpt>
      <trkpt lat="49.87275" lon="2.33556">
        <ele>37.4</ele>
        <time>2023-04-06T12:10:09Z</time>
      </trkpt>
      <trkpt lat="49.87274" lon="2.33556">
        <ele>37.4</ele>
        <time>2023-04-06T12:10:10Z</time>
      </trkpt>
      <trkpt lat="49.87272" lon="2.33557">
        <ele>37.5</ele>
        <time>2023-04-06T12:10:11Z</time>
      </trkpt>
      <trkpt lat="49.87271" lon="2.33558">
        <ele>37.5</ele>
        <time>2023-04-06T12:10:12Z</time>
      </trkpt>
      <trkpt lat="49.87269" lon="2.33559">
        <ele>37.6</ele>
        <time>2023-04-06T12:10:13Z</time>
      </trkpt>
      <trkpt lat="49.87268" lon="2.33559">
        <ele>37.6</ele>
        <time>2023-04-06T12:10:15Z</time>
      </trkpt>
      <trkpt lat="49.87267" lon="2.3356">
        <ele>37.6</ele>
        <time>2023-04-06T12:10:16Z</time>
      </trkpt>
      <trkpt lat="49.87265" lon="2.33561">
        <ele>37.6</ele>
        <time>2023-04-06T12:10:17Z</time>
      </trkpt>
      <trkpt lat="49.87264" lon="2.33561">
        <ele>37.7</ele>
        <time>2023-04-06T12:10:18Z</time>
      </trkpt>
      <trkpt lat="49.87262" lon="2.33562">
        <ele>37.7</ele>
        <time>2023-04-06T12:10:19Z</time>
      </trkpt>
      <trkpt lat="49.87261" lon="2.33562">
        <ele>37.7</ele>
        <time>2023-04-06T12:10:20Z</time>
      </trkpt>
      <trkpt lat="49.87257" lon="2.33564">
        <ele>37.6</ele>
        <time>2023-04-06T12:10:21Z</time>
      </trkpt>
      <trkpt lat="49.87256" lon="2.33564">
        <ele>37.6</ele>
        <time>2023-04-06T12:10:22Z</time>
      </trkpt>
      <trkpt lat="49.87255" lon="2.33564">
        <ele>37.6</ele>
        <time>2023-04-06T12:10:23Z</time>
      </trkpt>
      <trkpt lat="49.87253" lon="2.33565">
        <ele>37.6</ele>
        <time>2023-04-06T12:10:24Z</time>
      </trkpt>
      <trkpt lat="49.87251" lon="2.33566">
        <ele>37.5</ele>
        <time>2023-04-06T12:10:26Z</time>
      </trkpt>
      <trkpt lat="49.87249" lon="2.33567">
        <ele>37.5</ele>
        <time>2023-04-06T12:10:27Z</time>
      </trkpt>
      <trkpt lat="49.87248" lon="2.33567">
        <ele>37.4</ele>
        <time>2023-04-06T12:10:28Z</time>
      </trkpt>
      <trkpt lat="49.87247" lon="2.33568">
        <ele>37.4</ele>
        <time>2023-04-06T12:10:29Z</time>
      </trkpt>
      <trkpt lat="49.87246" lon="2.33569">
        <ele>37.4</ele>
        <time>2023-04-06T12:10:30Z</time>
      </trkpt>
      <trkpt lat="49.87245" lon="2.33569">
        <ele>37.4</ele>
        <time>2023-04-06T12:10:31Z</time>
      </trkpt>
      <trkpt lat="49.87244" lon="2.3357">
        <ele>37.3</ele>
        <time>2023-04-06T12:10:32Z</time>
      </trkpt>
      <trkpt lat="49.87243" lon="2.33571">
        <ele>37.3</ele>
        <time>2023-04-06T12:10:33Z</time>
      </trkpt>
      <trkpt lat="49.87242" lon="2.33572">
        <ele>37.3</ele>
        <time>2023-04-06T12:10:34Z</time>
      </trkpt>
      <trkpt lat="49.8724" lon="2.33573">
        <ele>37.2</ele>
        <time>2023-04-06T12:10:36Z</time>
      </trkpt>
      <trkpt lat="49.87239" lon="2.33573">
        <ele>37.2</ele>
        <time>2023-04-06T12:10:37Z</time>
      </trkpt>
      <trkpt lat="49.87238" lon="2.33574">
        <ele>37.2</ele>
        <time>2023-04-06T12:10:38Z</time>
      </trkpt>
      <trkpt lat="49.87237" lon="2.33575">
        <ele>37.2</ele>
        <time>2023-04-06T12:10:39Z</time>
      </trkpt>
      <trkpt lat="49.87236" lon="2.33576">
        <ele>37.1</ele>
        <time>2023-04-06T12:10:40Z</time>
      </trkpt>
      <trkpt lat="49.87233" lon="2.33577">
        <ele>37.1</ele>
        <time>2023-04-06T12:10:41Z</time>
      </trkpt>
      <trkpt lat="49.87233" lon="2.33578">
        <ele>37.1</ele>
        <time>2023-04-06T12:10:42Z</time>
      </trkpt>
      <trkpt lat="49.87231" lon="2.33579">
        <ele>37</ele>
        <time>2023-04-06T12:10:43Z</time>
      </trkpt>
      <trkpt lat="49.8723" lon="2.3358">
        <ele>37</ele>
        <time>2023-04-06T12:10:45Z</time>
      </trkpt>
      <trkpt lat="49.87229" lon="2.3358">
        <ele>37</ele>
        <time>2023-04-06T12:10:46Z</time>
      </trkpt>
      <trkpt lat="49.87228" lon="2.33581">
        <ele>37</ele>
        <time>2023-04-06T12:10:47Z</time>
      </trkpt>
      <trkpt lat="49.87227" lon="2.33582">
        <ele>35.8</ele>
        <time>2023-04-06T12:10:48Z</time>
      </trkpt>
      <trkpt lat="49.87227" lon="2.33583">
        <ele>35.7</ele>
        <time>2023-04-06T12:10:49Z</time>
      </trkpt>
      <trkpt lat="49.87226" lon="2.33584">
        <ele>35.7</ele>
        <time>2023-04-06T12:10:50Z</time>
      </trkpt>
      <trkpt lat="49.87225" lon="2.33585">
        <ele>35.6</ele>
        <time>2023-04-06T12:10:51Z</time>
      </trkpt>
      <trkpt lat="49.87225" lon="2.33585">
        <ele>35.6</ele>
        <time>2023-04-06T12:10:52Z</time>
      </trkpt>
      <trkpt lat="49.87224" lon="2.33586">
        <ele>35.5</ele>
        <time>2023-04-06T12:10:54Z</time>
      </trkpt>
      <trkpt lat="49.87224" lon="2.33587">
        <ele>35.5</ele>
        <time>2023-04-06T12:10:55Z</time>
      </trkpt>
      <trkpt lat="49.8723" lon="2.33593">
        <ele>35</ele>
        <time>2023-04-06T12:10:56Z</time>
      </trkpt>
      <trkpt lat="49.87234" lon="2.33596">
        <ele>34.7</ele>
        <time>2023-04-06T12:10:57Z</time>
      </trkpt>
      <trkpt lat="49.87237" lon="2.33599">
        <ele>34.3</ele>
        <time>2023-04-06T12:10:58Z</time>
      </trkpt>
      <trkpt lat="49.87239" lon="2.33602">
        <ele>34.3</ele>
        <time>2023-04-06T12:10:59Z</time>
      </trkpt>
      <trkpt lat="49.87238" lon="2.33604">
        <ele>34.3</ele>
        <time>2023-04-06T12:11:00Z</time>
      </trkpt>
      <trkpt lat="49.87237" lon="2.33606">
        <ele>34.2</ele>
        <time>2023-04-06T12:11:02Z</time>
      </trkpt>
      <trkpt lat="49.87237" lon="2.33608">
        <ele>34.2</ele>
        <time>2023-04-06T12:11:03Z</time>
      </trkpt>
      <trkpt lat="49.87236" lon="2.3361">
        <ele>34.2</ele>
        <time>2023-04-06T12:11:04Z</time>
      </trkpt>
      <trkpt lat="49.87235" lon="2.33611">
        <ele>34.2</ele>
        <time>2023-04-06T12:11:05Z</time>
      </trkpt>
      <trkpt lat="49.87233" lon="2.33612">
        <ele>34.2</ele>
        <time>2023-04-06T12:11:06Z</time>
      </trkpt>
      <trkpt lat="49.87232" lon="2.33613">
        <ele>34.2</ele>
        <time>2023-04-06T12:11:07Z</time>
      </trkpt>
      <trkpt lat="49.87231" lon="2.33614">
        <ele>34.2</ele>
        <time>2023-04-06T12:11:08Z</time>
      </trkpt>
      <trkpt lat="49.87229" lon="2.33614">
        <ele>34.2</ele>
        <time>2023-04-06T12:11:09Z</time>
      </trkpt>
      <trkpt lat="49.87225" lon="2.33614">
        <ele>34.2</ele>
        <time>2023-04-06T12:11:11Z</time>
      </trkpt>
      <trkpt lat="49.87224" lon="2.33614">
        <ele>34.2</ele>
        <time>2023-04-06T12:11:12Z</time>
      </trkpt>
      <trkpt lat="49.87222" lon="2.33614">
        <ele>34.2</ele>
        <time>2023-04-06T12:11:13Z</time>
      </trkpt>
      <trkpt lat="49.87221" lon="2.33615">
        <ele>34.2</ele>
        <time>2023-04-06T12:11:14Z</time>
      </trkpt>
      <trkpt lat="49.87217" lon="2.33616">
        <ele>34.2</ele>
        <time>2023-04-06T12:11:15Z</time>
      </trkpt>
      <trkpt lat="49.87215" lon="2.33617">
        <ele>34.2</ele>
        <time>2023-04-06T12:11:16Z</time>
      </trkpt>
      <trkpt lat="49.87213" lon="2.33619">
        <ele>34.2</ele>
        <time>2023-04-06T12:11:17Z</time>
      </trkpt>
      <trkpt lat="49.87212" lon="2.33619">
        <ele>34.2</ele>
        <time>2023-04-06T12:11:18Z</time>
      </trkpt>
      <trkpt lat="49.87211" lon="2.3362">
        <ele>34.2</ele>
        <time>2023-04-06T12:11:20Z</time>
      </trkpt>
      <trkpt lat="49.87209" lon="2.33622">
        <ele>34.2</ele>
        <time>2023-04-06T12:11:21Z</time>
      </trkpt>
      <trkpt lat="49.87206" lon="2.33621">
        <ele>34.2</ele>
        <time>2023-04-06T12:11:22Z</time>
      </trkpt>
      <trkpt lat="49.87205" lon="2.33621">
        <ele>34.2</ele>
        <time>2023-04-06T12:11:23Z</time>
      </trkpt>
      <trkpt lat="49.87203" lon="2.33621">
        <ele>34.2</ele>
        <time>2023-04-06T12:11:24Z</time>
      </trkpt>
      <trkpt lat="49.87202" lon="2.33621">
        <ele>34.2</ele>
        <time>2023-04-06T12:11:25Z</time>
      </trkpt>
      <trkpt lat="49.87199" lon="2.33618">
        <ele>34.3</ele>
        <time>2023-04-06T12:11:26Z</time>
      </trkpt>
      <trkpt lat="49.87197" lon="2.33616">
        <ele>34.3</ele>
        <time>2023-04-06T12:11:28Z</time>
      </trkpt>
      <trkpt lat="49.87197" lon="2.33616">
        <ele>34.3</ele>
        <time>2023-04-06T12:11:29Z</time>
      </trkpt>
      <trkpt lat="49.87196" lon="2.33615">
        <ele>34.4</ele>
        <time>2023-04-06T12:11:30Z</time>
      </trkpt>
      <trkpt lat="49.87195" lon="2.33614">
        <ele>34.4</ele>
        <time>2023-04-06T12:11:31Z</time>
      </trkpt>
      <trkpt lat="49.87194" lon="2.33614">
        <ele>34.4</ele>
        <time>2023-04-06T12:11:32Z</time>
      </trkpt>
      <trkpt lat="49.87193" lon="2.33613">
        <ele>34.4</ele>
        <time>2023-04-06T12:11:33Z</time>
      </trkpt>
      <trkpt lat="49.87192" lon="2.33612">
        <ele>34.5</ele>
        <time>2023-04-06T12:11:34Z</time>
      </trkpt>
      <trkpt lat="49.87192" lon="2.33611">
        <ele>34.5</ele>
        <time>2023-04-06T12:11:35Z</time>
      </trkpt>
      <trkpt lat="49.87194" lon="2.33611">
        <ele>34.5</ele>
        <time>2023-04-06T12:11:36Z</time>
      </trkpt>
      <trkpt lat="49.87194" lon="2.33611">
        <ele>34.5</ele>
        <time>2023-04-06T12:11:38Z</time>
      </trkpt>
      <trkpt lat="49.87193" lon="2.3361">
        <ele>34.6</ele>
        <time>2023-04-06T12:11:39Z</time>
      </trkpt>
      <trkpt lat="49.87192" lon="2.3361">
        <ele>34.6</ele>
        <time>2023-04-06T12:11:40Z</time>
      </trkpt>
      <trkpt lat="49.87191" lon="2.33609">
        <ele>34.6</ele>
        <time>2023-04-06T12:11:41Z</time>
      </trkpt>
      <trkpt lat="49.87189" lon="2.33609">
        <ele>34.7</ele>
        <time>2023-04-06T12:11:42Z</time>
      </trkpt>
      <trkpt lat="49.87188" lon="2.33609">
        <ele>34.7</ele>
        <time>2023-04-06T12:11:43Z</time>
      </trkpt>
      <trkpt lat="49.87186" lon="2.3361">
        <ele>34.7</ele>
        <time>2023-04-06T12:11:44Z</time>
      </trkpt>
      <trkpt lat="49.87184" lon="2.33612">
        <ele>34.8</ele>
        <time>2023-04-06T12:11:46Z</time>
      </trkpt>
      <trkpt lat="49.87182" lon="2.33613">
        <ele>34.8</ele>
        <time>2023-04-06T12:11:47Z</time>
      </trkpt>
      <trkpt lat="49.87181" lon="2.33613">
        <ele>34.8</ele>
        <time>2023-04-06T12:11:48Z</time>
      </trkpt>
      <trkpt lat="49.87179" lon="2.33613">
        <ele>34.9</ele>
        <time>2023-04-06T12:11:49Z</time>
      </trkpt>
      <trkpt lat="49.87178" lon="2.33613">
        <ele>34.9</ele>
        <time>2023-04-06T12:11:50Z</time>
      </trkpt>
      <trkpt lat="49.87177" lon="2.33613">
        <ele>34.9</ele>
        <time>2023-04-06T12:11:51Z</time>
      </trkpt>
      <trkpt lat="49.87178" lon="2.33613">
        <ele>34.9</ele>
        <time>2023-04-06T12:11:52Z</time>
      </trkpt>
      <trkpt lat="49.87177" lon="2.33612">
        <ele>35</ele>
        <time>2023-04-06T12:11:53Z</time>
      </trkpt>
      <trkpt lat="49.87176" lon="2.33611">
        <ele>35</ele>
        <time>2023-04-06T12:11:54Z</time>
      </trkpt>
      <trkpt lat="49.87175" lon="2.33611">
        <ele>35</ele>
        <time>2023-04-06T12:11:55Z</time>
      </trkpt>
      <trkpt lat="49.87174" lon="2.33608">
        <ele>35.1</ele>
        <time>2023-04-06T12:11:56Z</time>
      </trkpt>
      <trkpt lat="49.87174" lon="2.33608">
        <ele>35.1</ele>
        <time>2023-04-06T12:11:58Z</time>
      </trkpt>
      <trkpt lat="49.87173" lon="2.33607">
        <ele>35.1</ele>
        <time>2023-04-06T12:11:59Z</time>
      </trkpt>
      <trkpt lat="49.87171" lon="2.33605">
        <ele>35.2</ele>
        <time>2023-04-06T12:12:00Z</time>
      </trkpt>
      <trkpt lat="49.8717" lon="2.33604">
        <ele>35.2</ele>
        <time>2023-04-06T12:12:01Z</time>
      </trkpt>
      <trkpt lat="49.87169" lon="2.33603">
        <ele>35.2</ele>
        <time>2023-04-06T12:12:02Z</time>
      </trkpt>
      <trkpt lat="49.87167" lon="2.33602">
        <ele>35.3</ele>
        <time>2023-04-06T12:12:03Z</time>
      </trkpt>
      <trkpt lat="49.87166" lon="2.33601">
        <ele>35.3</ele>
        <time>2023-04-06T12:12:05Z</time>
      </trkpt>
      <trkpt lat="49.87165" lon="2.33601">
        <ele>35.3</ele>
        <time>2023-04-06T12:12:06Z</time>
      </trkpt>
      <trkpt lat="49.87163" lon="2.33599">
        <ele>35.4</ele>
        <time>2023-04-06T12:12:07Z</time>
      </trkpt>
      <trkpt lat="49.87163" lon="2.33598">
        <ele>35.4</ele>
        <time>2023-04-06T12:12:08Z</time>
      </trkpt>
      <trkpt lat="49.87162" lon="2.33597">
        <ele>35.4</ele>
        <time>2023-04-06T12:12:09Z</time>
      </trkpt>
      <trkpt lat="49.87161" lon="2.33596">
        <ele>35.4</ele>
        <time>2023-04-06T12:12:10Z</time>
      </trkpt>
      <trkpt lat="49.87159" lon="2.33595">
        <ele>35.4</ele>
        <time>2023-04-06T12:12:11Z</time>
      </trkpt>
      <trkpt lat="49.87158" lon="2.33593">
        <ele>35.5</ele>
        <time>2023-04-06T12:12:12Z</time>
      </trkpt>
      <trkpt lat="49.87157" lon="2.33592">
        <ele>35.5</ele>
        <time>2023-04-06T12:12:13Z</time>
      </trkpt>
      <trkpt lat="49.87155" lon="2.33591">
        <ele>35.6</ele>
        <time>2023-04-06T12:12:15Z</time>
      </trkpt>
      <trkpt lat="49.87154" lon="2.33591">
        <ele>35.6</ele>
        <time>2023-04-06T12:12:16Z</time>
      </trkpt>
      <trkpt lat="49.87151" lon="2.3359">
        <ele>35.7</ele>
        <time>2023-04-06T12:12:17Z</time>
      </trkpt>
      <trkpt lat="49.8715" lon="2.3359">
        <ele>35.7</ele>
        <time>2023-04-06T12:12:18Z</time>
      </trkpt>
      <trkpt lat="49.87148" lon="2.3359">
        <ele>35.7</ele>
        <time>2023-04-06T12:12:19Z</time>
      </trkpt>
      <trkpt lat="49.87148" lon="2.3359">
        <ele>35.7</ele>
        <time>2023-04-06T12:12:20Z</time>
      </trkpt>
      <trkpt lat="49.87147" lon="2.3359">
        <ele>35.8</ele>
        <time>2023-04-06T12:12:21Z</time>
      </trkpt>
      <trkpt lat="49.87145" lon="2.33587">
        <ele>35.8</ele>
        <time>2023-04-06T12:12:22Z</time>
      </trkpt>
      <trkpt lat="49.87144" lon="2.33587">
        <ele>35.8</ele>
        <time>2023-04-06T12:12:23Z</time>
      </trkpt>
      <trkpt lat="49.87144" lon="2.33586">
        <ele>35.8</ele>
        <time>2023-04-06T12:12:25Z</time>
      </trkpt>
      <trkpt lat="49.87143" lon="2.33585">
        <ele>35.9</ele>
        <time>2023-04-06T12:12:26Z</time>
      </trkpt>
      <trkpt lat="49.87143" lon="2.33585">
        <ele>35.9</ele>
        <time>2023-04-06T12:12:27Z</time>
      </trkpt>
      <trkpt lat="49.87142" lon="2.33584">
        <ele>35.9</ele>
        <time>2023-04-06T12:12:28Z</time>
      </trkpt>
      <trkpt lat="49.87142" lon="2.33584">
        <ele>35.9</ele>
        <time>2023-04-06T12:12:29Z</time>
      </trkpt>
      <trkpt lat="49.87141" lon="2.33583">
        <ele>35.9</ele>
        <time>2023-04-06T12:12:30Z</time>
      </trkpt>
      <trkpt lat="49.87139" lon="2.33578">
        <ele>36</ele>
        <time>2023-04-06T12:12:31Z</time>
      </trkpt>
      <trkpt lat="49.87138" lon="2.33575">
        <ele>36.1</ele>
        <time>2023-04-06T12:12:32Z</time>
      </trkpt>
      <trkpt lat="49.87137" lon="2.33572">
        <ele>36.1</ele>
        <time>2023-04-06T12:12:33Z</time>
      </trkpt>
      <trkpt lat="49.87136" lon="2.33569">
        <ele>36.1</ele>
        <time>2023-04-06T12:12:35Z</time>
      </trkpt>
      <trkpt lat="49.87134" lon="2.33563">
        <ele>36.1</ele>
        <time>2023-04-06T12:12:36Z</time>
      </trkpt>
      <trkpt lat="49.87133" lon="2.33558">
        <ele>36.1</ele>
        <time>2023-04-06T12:12:37Z</time>
      </trkpt>
      <trkpt lat="49.87133" lon="2.33558">
        <ele>36.1</ele>
        <time>2023-04-06T12:12:38Z</time>
      </trkpt>
      <trkpt lat="49.87132" lon="2.33557">
        <ele>36.1</ele>
        <time>2023-04-06T12:12:39Z</time>
      </trkpt>
      <trkpt lat="49.87131" lon="2.33555">
        <ele>36.1</ele>
        <time>2023-04-06T12:12:40Z</time>
      </trkpt>
      <trkpt lat="49.87131" lon="2.33554">
        <ele>36.1</ele>
        <time>2023-04-06T12:12:41Z</time>
      </trkpt>
      <trkpt lat="49.8713" lon="2.33552">
        <ele>36.1</ele>
        <time>2023-04-06T12:12:42Z</time>
      </trkpt>
      <trkpt lat="49.8713" lon="2.33551">
        <ele>36.1</ele>
        <time>2023-04-06T12:12:43Z</time>
      </trkpt>
      <trkpt lat="49.87128" lon="2.33548">
        <ele>36.1</ele>
        <time>2023-04-06T12:12:45Z</time>
      </trkpt>
      <trkpt lat="49.87128" lon="2.33547">
        <ele>36.1</ele>
        <time>2023-04-06T12:12:46Z</time>
      </trkpt>
      <trkpt lat="49.87127" lon="2.33546">
        <ele>36.1</ele>
        <time>2023-04-06T12:12:47Z</time>
      </trkpt>
      <trkpt lat="49.87126" lon="2.33544">
        <ele>36.1</ele>
        <time>2023-04-06T12:12:48Z</time>
      </trkpt>
      <trkpt lat="49.87125" lon="2.33543">
        <ele>36.1</ele>
        <time>2023-04-06T12:12:49Z</time>
      </trkpt>
      <trkpt lat="49.87124" lon="2.33542">
        <ele>36.1</ele>
        <time>2023-04-06T12:12:50Z</time>
      </trkpt>
      <trkpt lat="49.87123" lon="2.33542">
        <ele>36.1</ele>
        <time>2023-04-06T12:12:51Z</time>
      </trkpt>
      <trkpt lat="49.87122" lon="2.33541">
        <ele>36.1</ele>
        <time>2023-04-06T12:12:52Z</time>
      </trkpt>
      <trkpt lat="49.87122" lon="2.33541">
        <ele>36.1</ele>
        <time>2023-04-06T12:12:53Z</time>
      </trkpt>
      <trkpt lat="49.8712" lon="2.33541">
        <ele>36.1</ele>
        <time>2023-04-06T12:12:55Z</time>
      </trkpt>
      <trkpt lat="49.87119" lon="2.33541">
        <ele>36.1</ele>
        <time>2023-04-06T12:12:56Z</time>
      </trkpt>
      <trkpt lat="49.87112" lon="2.33547">
        <ele>36</ele>
        <time>2023-04-06T12:12:57Z</time>
      </trkpt>
      <trkpt lat="49.87109" lon="2.33551">
        <ele>36</ele>
        <time>2023-04-06T12:12:58Z</time>
      </trkpt>
      <trkpt lat="49.87108" lon="2.33552">
        <ele>36</ele>
        <time>2023-04-06T12:12:59Z</time>
      </trkpt>
      <trkpt lat="49.87106" lon="2.33555">
        <ele>36</ele>
        <time>2023-04-06T12:13:00Z</time>
      </trkpt>
      <trkpt lat="49.87105" lon="2.33556">
        <ele>36</ele>
        <time>2023-04-06T12:13:01Z</time>
      </trkpt>
      <trkpt lat="49.87102" lon="2.33559">
        <ele>36</ele>
        <time>2023-04-06T12:13:02Z</time>
      </trkpt>
      <trkpt lat="49.87102" lon="2.33561">
        <ele>36</ele>
        <time>2023-04-06T12:13:03Z</time>
      </trkpt>
      <trkpt lat="49.87101" lon="2.33565">
        <ele>36</ele>
        <time>2023-04-06T12:13:05Z</time>
      </trkpt>
      <trkpt lat="49.87101" lon="2.33572">
        <ele>35.8</ele>
        <time>2023-04-06T12:13:06Z</time>
      </trkpt>
      <trkpt lat="49.87101" lon="2.33576">
        <ele>35.7</ele>
        <time>2023-04-06T12:13:07Z</time>
      </trkpt>
      <trkpt lat="49.87099" lon="2.33576">
        <ele>35.7</ele>
        <time>2023-04-06T12:13:08Z</time>
      </trkpt>
      <trkpt lat="49.87098" lon="2.33578">
        <ele>35.6</ele>
        <time>2023-04-06T12:13:09Z</time>
      </trkpt>
      <trkpt lat="49.87098" lon="2.33581">
        <ele>35.5</ele>
        <time>2023-04-06T12:13:10Z</time>
      </trkpt>
      <trkpt lat="49.87097" lon="2.33584">
        <ele>35.5</ele>
        <time>2023-04-06T12:13:11Z</time>
      </trkpt>
      <trkpt lat="49.87096" lon="2.33585">
        <ele>35.4</ele>
        <time>2023-04-06T12:13:13Z</time>
      </trkpt>
      <trkpt lat="49.87095" lon="2.33587">
        <ele>35.4</ele>
        <time>2023-04-06T12:13:14Z</time>
      </trkpt>
      <trkpt lat="49.87095" lon="2.33592">
        <ele>35.3</ele>
        <time>2023-04-06T12:13:15Z</time>
      </trkpt>
      <trkpt lat="49.87094" lon="2.33593">
        <ele>35.3</ele>
        <time>2023-04-06T12:13:16Z</time>
      </trkpt>
      <trkpt lat="49.87093" lon="2.33599">
        <ele>35.1</ele>
        <time>2023-04-06T12:13:17Z</time>
      </trkpt>
      <trkpt lat="49.87092" lon="2.33601">
        <ele>35.1</ele>
        <time>2023-04-06T12:13:18Z</time>
      </trkpt>
      <trkpt lat="49.87091" lon="2.33602">
        <ele>35</ele>
        <time>2023-04-06T12:13:19Z</time>
      </trkpt>
      <trkpt lat="49.8709" lon="2.33603">
        <ele>35</ele>
        <time>2023-04-06T12:13:20Z</time>
      </trkpt>
      <trkpt lat="49.87089" lon="2.33605">
        <ele>34.9</ele>
        <time>2023-04-06T12:13:21Z</time>
      </trkpt>
      <trkpt lat="49.87086" lon="2.33608">
        <ele>34.8</ele>
        <time>2023-04-06T12:13:23Z</time>
      </trkpt>
      <trkpt lat="49.87084" lon="2.33609">
        <ele>34.8</ele>
        <time>2023-04-06T12:13:24Z</time>
      </trkpt>
      <trkpt lat="49.87083" lon="2.33611">
        <ele>34.7</ele>
        <time>2023-04-06T12:13:25Z</time>
      </trkpt>
      <trkpt lat="49.8708" lon="2.33613">
        <ele>34.6</ele>
        <time>2023-04-06T12:13:26Z</time>
      </trkpt>
      <trkpt lat="49.87079" lon="2.33615">
        <ele>34.5</ele>
        <time>2023-04-06T12:13:27Z</time>
      </trkpt>
      <trkpt lat="49.87077" lon="2.33613">
        <ele>34.5</ele>
        <time>2023-04-06T12:13:28Z</time>
      </trkpt>
      <trkpt lat="49.87077" lon="2.33613">
        <ele>34.4</ele>
        <time>2023-04-06T12:13:29Z</time>
      </trkpt>
      <trkpt lat="49.87076" lon="2.33613">
        <ele>34.4</ele>
        <time>2023-04-06T12:13:30Z</time>
      </trkpt>
      <trkpt lat="49.87075" lon="2.33611">
        <ele>34.4</ele>
        <time>2023-04-06T12:13:31Z</time>
      </trkpt>
      <trkpt lat="49.87073" lon="2.33611">
        <ele>34.3</ele>
        <time>2023-04-06T12:13:32Z</time>
      </trkpt>
      <trkpt lat="49.87071" lon="2.3361">
        <ele>34.2</ele>
        <time>2023-04-06T12:13:34Z</time>
      </trkpt>
      <trkpt lat="49.8707" lon="2.3361">
        <ele>34.2</ele>
        <time>2023-04-06T12:13:35Z</time>
      </trkpt>
      <trkpt lat="49.87069" lon="2.33609">
        <ele>34.2</ele>
        <time>2023-04-06T12:13:36Z</time>
      </trkpt>
      <trkpt lat="49.87066" lon="2.33609">
        <ele>34.1</ele>
        <time>2023-04-06T12:13:37Z</time>
      </trkpt>
      <trkpt lat="49.87064" lon="2.33609">
        <ele>34</ele>
        <time>2023-04-06T12:13:39Z</time>
      </trkpt>
      <trkpt lat="49.87063" lon="2.33609">
        <ele>34</ele>
        <time>2023-04-06T12:13:40Z</time>
      </trkpt>
      <trkpt lat="49.87062" lon="2.3361">
        <ele>33.9</ele>
        <time>2023-04-06T12:13:41Z</time>
      </trkpt>
      <trkpt lat="49.87061" lon="2.3361">
        <ele>33.9</ele>
        <time>2023-04-06T12:13:42Z</time>
      </trkpt>
      <trkpt lat="49.8706" lon="2.33609">
        <ele>33.9</ele>
        <time>2023-04-06T12:13:43Z</time>
      </trkpt>
      <trkpt lat="49.87059" lon="2.33609">
        <ele>33.8</ele>
        <time>2023-04-06T12:13:44Z</time>
      </trkpt>
      <trkpt lat="49.87058" lon="2.33608">
        <ele>33.8</ele>
        <time>2023-04-06T12:13:45Z</time>
      </trkpt>
      <trkpt lat="49.87057" lon="2.33608">
        <ele>33.8</ele>
        <time>2023-04-06T12:13:46Z</time>
      </trkpt>
      <trkpt lat="49.87055" lon="2.33609">
        <ele>33.7</ele>
        <time>2023-04-06T12:13:47Z</time>
      </trkpt>
      <trkpt lat="49.87054" lon="2.33609">
        <ele>33.7</ele>
        <time>2023-04-06T12:13:49Z</time>
      </trkpt>
      <trkpt lat="49.87053" lon="2.33609">
        <ele>33.7</ele>
        <time>2023-04-06T12:13:50Z</time>
      </trkpt>
      <trkpt lat="49.87052" lon="2.33609">
        <ele>33.7</ele>
        <time>2023-04-06T12:13:51Z</time>
      </trkpt>
      <trkpt lat="49.87051" lon="2.3361">
        <ele>33.7</ele>
        <time>2023-04-06T12:13:52Z</time>
      </trkpt>
      <trkpt lat="49.8705" lon="2.3361">
        <ele>33.6</ele>
        <time>2023-04-06T12:13:53Z</time>
      </trkpt>
      <trkpt lat="49.87048" lon="2.33611">
        <ele>33.6</ele>
        <time>2023-04-06T12:13:54Z</time>
      </trkpt>
      <trkpt lat="49.87047" lon="2.33611">
        <ele>33.6</ele>
        <time>2023-04-06T12:13:55Z</time>
      </trkpt>
      <trkpt lat="49.87046" lon="2.33611">
        <ele>33.5</ele>
        <time>2023-04-06T12:13:56Z</time>
      </trkpt>
      <trkpt lat="49.87044" lon="2.33611">
        <ele>33.5</ele>
        <time>2023-04-06T12:13:57Z</time>
      </trkpt>
      <trkpt lat="49.87043" lon="2.33611">
        <ele>33.5</ele>
        <time>2023-04-06T12:13:59Z</time>
      </trkpt>
      <trkpt lat="49.87042" lon="2.33611">
        <ele>33.4</ele>
        <time>2023-04-06T12:14:00Z</time>
      </trkpt>
      <trkpt lat="49.87041" lon="2.33612">
        <ele>33.4</ele>
        <time>2023-04-06T12:14:01Z</time>
      </trkpt>
      <trkpt lat="49.8704" lon="2.33612">
        <ele>33.4</ele>
        <time>2023-04-06T12:14:02Z</time>
      </trkpt>
      <trkpt lat="49.87038" lon="2.33611">
        <ele>33.4</ele>
        <time>2023-04-06T12:14:03Z</time>
      </trkpt>
      <trkpt lat="49.87037" lon="2.3361">
        <ele>33.3</ele>
        <time>2023-04-06T12:14:04Z</time>
      </trkpt>
      <trkpt lat="49.87035" lon="2.33612">
        <ele>33.3</ele>
        <time>2023-04-06T12:14:05Z</time>
      </trkpt>
      <trkpt lat="49.87034" lon="2.33614">
        <ele>33.2</ele>
        <time>2023-04-06T12:14:06Z</time>
      </trkpt>
      <trkpt lat="49.87033" lon="2.33616">
        <ele>33.2</ele>
        <time>2023-04-06T12:14:07Z</time>
      </trkpt>
      <trkpt lat="49.87032" lon="2.33616">
        <ele>33.2</ele>
        <time>2023-04-06T12:14:08Z</time>
      </trkpt>
      <trkpt lat="49.87031" lon="2.33617">
        <ele>33.2</ele>
        <time>2023-04-06T12:14:10Z</time>
      </trkpt>
      <trkpt lat="49.8703" lon="2.33618">
        <ele>33.1</ele>
        <time>2023-04-06T12:14:11Z</time>
      </trkpt>
      <trkpt lat="49.87028" lon="2.33619">
        <ele>33.1</ele>
        <time>2023-04-06T12:14:12Z</time>
      </trkpt>
      <trkpt lat="49.87028" lon="2.3362">
        <ele>33.1</ele>
        <time>2023-04-06T12:14:13Z</time>
      </trkpt>
      <trkpt lat="49.87027" lon="2.3362">
        <ele>33.1</ele>
        <time>2023-04-06T12:14:14Z</time>
      </trkpt>
      <trkpt lat="49.87025" lon="2.33621">
        <ele>33</ele>
        <time>2023-04-06T12:14:15Z</time>
      </trkpt>
      <trkpt lat="49.87024" lon="2.33622">
        <ele>33</ele>
        <time>2023-04-06T12:14:16Z</time>
      </trkpt>
      <trkpt lat="49.87022" lon="2.33623">
        <ele>33</ele>
        <time>2023-04-06T12:14:17Z</time>
      </trkpt>
      <trkpt lat="49.87021" lon="2.33623">
        <ele>32.9</ele>
        <time>2023-04-06T12:14:19Z</time>
      </trkpt>
      <trkpt lat="49.8702" lon="2.33623">
        <ele>32.9</ele>
        <time>2023-04-06T12:14:20Z</time>
      </trkpt>
      <trkpt lat="49.87019" lon="2.33624">
        <ele>32.9</ele>
        <time>2023-04-06T12:14:21Z</time>
      </trkpt>
      <trkpt lat="49.87018" lon="2.33624">
        <ele>32.9</ele>
        <time>2023-04-06T12:14:22Z</time>
      </trkpt>
      <trkpt lat="49.87016" lon="2.33624">
        <ele>32.8</ele>
        <time>2023-04-06T12:14:23Z</time>
      </trkpt>
      <trkpt lat="49.87016" lon="2.33624">
        <ele>32.8</ele>
        <time>2023-04-06T12:14:24Z</time>
      </trkpt>
      <trkpt lat="49.87015" lon="2.33624">
        <ele>32.8</ele>
        <time>2023-04-06T12:14:25Z</time>
      </trkpt>
      <trkpt lat="49.87013" lon="2.33624">
        <ele>32.8</ele>
        <time>2023-04-06T12:14:27Z</time>
      </trkpt>
      <trkpt lat="49.87011" lon="2.33624">
        <ele>32.7</ele>
        <time>2023-04-06T12:14:28Z</time>
      </trkpt>
      <trkpt lat="49.8701" lon="2.33625">
        <ele>32.7</ele>
        <time>2023-04-06T12:14:29Z</time>
      </trkpt>
      <trkpt lat="49.87009" lon="2.33625">
        <ele>32.7</ele>
        <time>2023-04-06T12:14:30Z</time>
      </trkpt>
      <trkpt lat="49.87006" lon="2.33626">
        <ele>32.6</ele>
        <time>2023-04-06T12:14:31Z</time>
      </trkpt>
      <trkpt lat="49.87005" lon="2.33626">
        <ele>32.6</ele>
        <time>2023-04-06T12:14:32Z</time>
      </trkpt>
      <trkpt lat="49.87005" lon="2.33627">
        <ele>32.6</ele>
        <time>2023-04-06T12:14:33Z</time>
      </trkpt>
      <trkpt lat="49.87003" lon="2.33627">
        <ele>32.5</ele>
        <time>2023-04-06T12:14:34Z</time>
      </trkpt>
      <trkpt lat="49.87002" lon="2.33627">
        <ele>32.5</ele>
        <time>2023-04-06T12:14:35Z</time>
      </trkpt>
      <trkpt lat="49.87001" lon="2.33627">
        <ele>32.5</ele>
        <time>2023-04-06T12:14:37Z</time>
      </trkpt>
      <trkpt lat="49.86998" lon="2.33628">
        <ele>32.4</ele>
        <time>2023-04-06T12:14:38Z</time>
      </trkpt>
      <trkpt lat="49.86998" lon="2.33629">
        <ele>32.4</ele>
        <time>2023-04-06T12:14:39Z</time>
      </trkpt>
      <trkpt lat="49.86997" lon="2.33629">
        <ele>32.4</ele>
        <time>2023-04-06T12:14:40Z</time>
      </trkpt>
      <trkpt lat="49.86994" lon="2.3363">
        <ele>32.3</ele>
        <time>2023-04-06T12:14:41Z</time>
      </trkpt>
      <trkpt lat="49.86993" lon="2.3363">
        <ele>32.3</ele>
        <time>2023-04-06T12:14:42Z</time>
      </trkpt>
      <trkpt lat="49.86991" lon="2.33629">
        <ele>32.3</ele>
        <time>2023-04-06T12:14:43Z</time>
      </trkpt>
      <trkpt lat="49.8699" lon="2.33628">
        <ele>32.2</ele>
        <time>2023-04-06T12:14:45Z</time>
      </trkpt>
      <trkpt lat="49.86989" lon="2.33628">
        <ele>32.2</ele>
        <time>2023-04-06T12:14:46Z</time>
      </trkpt>
      <trkpt lat="49.86988" lon="2.33628">
        <ele>32.2</ele>
        <time>2023-04-06T12:14:47Z</time>
      </trkpt>
      <trkpt lat="49.86986" lon="2.33626">
        <ele>32.1</ele>
        <time>2023-04-06T12:14:48Z</time>
      </trkpt>
      <trkpt lat="49.86984" lon="2.33627">
        <ele>32.1</ele>
        <time>2023-04-06T12:14:49Z</time>
      </trkpt>
      <trkpt lat="49.86983" lon="2.33627">
        <ele>32.1</ele>
        <time>2023-04-06T12:14:50Z</time>
      </trkpt>
      <trkpt lat="49.86982" lon="2.33627">
        <ele>32.1</ele>
        <time>2023-04-06T12:14:51Z</time>
      </trkpt>
      <trkpt lat="49.86981" lon="2.33629">
        <ele>32.1</ele>
        <time>2023-04-06T12:14:52Z</time>
      </trkpt>
      <trkpt lat="49.8698" lon="2.33629">
        <ele>32.1</ele>
        <time>2023-04-06T12:14:53Z</time>
      </trkpt>
      <trkpt lat="49.86979" lon="2.3363">
        <ele>32</ele>
        <time>2023-04-06T12:14:55Z</time>
      </trkpt>
      <trkpt lat="49.86978" lon="2.3363">
        <ele>32</ele>
        <time>2023-04-06T12:14:56Z</time>
      </trkpt>
      <trkpt lat="49.86976" lon="2.33631">
        <ele>32</ele>
        <time>2023-04-06T12:14:57Z</time>
      </trkpt>
      <trkpt lat="49.86974" lon="2.33633">
        <ele>32</ele>
        <time>2023-04-06T12:14:58Z</time>
      </trkpt>
      <trkpt lat="49.86973" lon="2.33633">
        <ele>32</ele>
        <time>2023-04-06T12:14:59Z</time>
      </trkpt>
      <trkpt lat="49.86973" lon="2.33633">
        <ele>32</ele>
        <time>2023-04-06T12:15:00Z</time>
      </trkpt>
      <trkpt lat="49.86971" lon="2.33634">
        <ele>32</ele>
        <time>2023-04-06T12:15:01Z</time>
      </trkpt>
      <trkpt lat="49.86969" lon="2.33635">
        <ele>32</ele>
        <time>2023-04-06T12:15:03Z</time>
      </trkpt>
      <trkpt lat="49.86968" lon="2.33635">
        <ele>31.9</ele>
        <time>2023-04-06T12:15:04Z</time>
      </trkpt>
      <trkpt lat="49.86967" lon="2.33636">
        <ele>31.9</ele>
        <time>2023-04-06T12:15:05Z</time>
      </trkpt>
      <trkpt lat="49.86966" lon="2.33637">
        <ele>31.9</ele>
        <time>2023-04-06T12:15:06Z</time>
      </trkpt>
      <trkpt lat="49.86965" lon="2.33638">
        <ele>31.9</ele>
        <time>2023-04-06T12:15:07Z</time>
      </trkpt>
      <trkpt lat="49.86964" lon="2.33641">
        <ele>31.9</ele>
        <time>2023-04-06T12:15:08Z</time>
      </trkpt>
      <trkpt lat="49.86962" lon="2.33643">
        <ele>31.9</ele>
        <time>2023-04-06T12:15:10Z</time>
      </trkpt>
      <trkpt lat="49.86961" lon="2.33644">
        <ele>31.9</ele>
        <time>2023-04-06T12:15:11Z</time>
      </trkpt>
      <trkpt lat="49.8696" lon="2.33645">
        <ele>31.9</ele>
        <time>2023-04-06T12:15:12Z</time>
      </trkpt>
      <trkpt lat="49.86958" lon="2.33646">
        <ele>31.8</ele>
        <time>2023-04-06T12:15:13Z</time>
      </trkpt>
      <trkpt lat="49.86958" lon="2.33646">
        <ele>31.8</ele>
        <time>2023-04-06T12:15:14Z</time>
      </trkpt>
      <trkpt lat="49.86957" lon="2.33647">
        <ele>31.8</ele>
        <time>2023-04-06T12:15:15Z</time>
      </trkpt>
      <trkpt lat="49.86956" lon="2.33649">
        <ele>31.8</ele>
        <time>2023-04-06T12:15:16Z</time>
      </trkpt>
      <trkpt lat="49.86955" lon="2.3365">
        <ele>31.8</ele>
        <time>2023-04-06T12:15:17Z</time>
      </trkpt>
      <trkpt lat="49.86952" lon="2.3365">
        <ele>31.8</ele>
        <time>2023-04-06T12:15:19Z</time>
      </trkpt>
      <trkpt lat="49.86952" lon="2.33651">
        <ele>31.8</ele>
        <time>2023-04-06T12:15:20Z</time>
      </trkpt>
      <trkpt lat="49.86951" lon="2.33652">
        <ele>31.8</ele>
        <time>2023-04-06T12:15:21Z</time>
      </trkpt>
      <trkpt lat="49.8695" lon="2.33653">
        <ele>31.9</ele>
        <time>2023-04-06T12:15:22Z</time>
      </trkpt>
      <trkpt lat="49.86948" lon="2.33653">
        <ele>31.9</ele>
        <time>2023-04-06T12:15:23Z</time>
      </trkpt>
      <trkpt lat="49.86947" lon="2.3365">
        <ele>32</ele>
        <time>2023-04-06T12:15:24Z</time>
      </trkpt>
      <trkpt lat="49.86946" lon="2.33648">
        <ele>32.1</ele>
        <time>2023-04-06T12:15:25Z</time>
      </trkpt>
      <trkpt lat="49.86946" lon="2.33646">
        <ele>32.1</ele>
        <time>2023-04-06T12:15:26Z</time>
      </trkpt>
      <trkpt lat="49.86945" lon="2.33643">
        <ele>32.2</ele>
        <time>2023-04-06T12:15:27Z</time>
      </trkpt>
      <trkpt lat="49.86945" lon="2.33638">
        <ele>32.3</ele>
        <time>2023-04-06T12:15:28Z</time>
      </trkpt>
      <trkpt lat="49.86946" lon="2.33637">
        <ele>32.3</ele>
        <time>2023-04-06T12:15:29Z</time>
      </trkpt>
      <trkpt lat="49.86945" lon="2.33632">
        <ele>32.4</ele>
        <time>2023-04-06T12:15:30Z</time>
      </trkpt>
      <trkpt lat="49.86944" lon="2.3363">
        <ele>32.5</ele>
        <time>2023-04-06T12:15:32Z</time>
      </trkpt>
      <trkpt lat="49.86944" lon="2.33628">
        <ele>32.5</ele>
        <time>2023-04-06T12:15:33Z</time>
      </trkpt>
      <trkpt lat="49.86943" lon="2.33626">
        <ele>32.6</ele>
        <time>2023-04-06T12:15:34Z</time>
      </trkpt>
      <trkpt lat="49.86942" lon="2.33625">
        <ele>32.6</ele>
        <time>2023-04-06T12:15:35Z</time>
      </trkpt>
      <trkpt lat="49.86942" lon="2.33623">
        <ele>32.7</ele>
        <time>2023-04-06T12:15:36Z</time>
      </trkpt>
      <trkpt lat="49.8694" lon="2.33618">
        <ele>32.8</ele>
        <time>2023-04-06T12:15:38Z</time>
      </trkpt>
      <trkpt lat="49.8694" lon="2.33618">
        <ele>32.8</ele>
        <time>2023-04-06T12:15:39Z</time>
      </trkpt>
      <trkpt lat="49.86939" lon="2.33616">
        <ele>32.9</ele>
        <time>2023-04-06T12:15:40Z</time>
      </trkpt>
      <trkpt lat="49.86938" lon="2.33614">
        <ele>32.9</ele>
        <time>2023-04-06T12:15:41Z</time>
      </trkpt>
      <trkpt lat="49.86938" lon="2.33612">
        <ele>33</ele>
        <time>2023-04-06T12:15:42Z</time>
      </trkpt>
      <trkpt lat="49.86937" lon="2.3361">
        <ele>33</ele>
        <time>2023-04-06T12:15:43Z</time>
      </trkpt>
      <trkpt lat="49.86936" lon="2.33609">
        <ele>33.1</ele>
        <time>2023-04-06T12:15:45Z</time>
      </trkpt>
      <trkpt lat="49.86936" lon="2.33607">
        <ele>33.1</ele>
        <time>2023-04-06T12:15:46Z</time>
      </trkpt>
      <trkpt lat="49.86935" lon="2.33606">
        <ele>33.1</ele>
        <time>2023-04-06T12:15:47Z</time>
      </trkpt>
      <trkpt lat="49.86935" lon="2.33603">
        <ele>33.2</ele>
        <time>2023-04-06T12:15:48Z</time>
      </trkpt>
      <trkpt lat="49.86934" lon="2.33602">
        <ele>33.3</ele>
        <time>2023-04-06T12:15:49Z</time>
      </trkpt>
      <trkpt lat="49.86934" lon="2.336">
        <ele>33.3</ele>
        <time>2023-04-06T12:15:50Z</time>
      </trkpt>
      <trkpt lat="49.86933" lon="2.33598">
        <ele>33.4</ele>
        <time>2023-04-06T12:15:51Z</time>
      </trkpt>
      <trkpt lat="49.86933" lon="2.33596">
        <ele>33.4</ele>
        <time>2023-04-06T12:15:52Z</time>
      </trkpt>
      <trkpt lat="49.86932" lon="2.33594">
        <ele>33.5</ele>
        <time>2023-04-06T12:15:54Z</time>
      </trkpt>
      <trkpt lat="49.86932" lon="2.33591">
        <ele>33.6</ele>
        <time>2023-04-06T12:15:55Z</time>
      </trkpt>
      <trkpt lat="49.86931" lon="2.33589">
        <ele>33.7</ele>
        <time>2023-04-06T12:15:56Z</time>
      </trkpt>
      <trkpt lat="49.86931" lon="2.33587">
        <ele>33.7</ele>
        <time>2023-04-06T12:15:57Z</time>
      </trkpt>
      <trkpt lat="49.86931" lon="2.33584">
        <ele>33.8</ele>
        <time>2023-04-06T12:15:58Z</time>
      </trkpt>
      <trkpt lat="49.8693" lon="2.33582">
        <ele>33.9</ele>
        <time>2023-04-06T12:15:59Z</time>
      </trkpt>
      <trkpt lat="49.8693" lon="2.3358">
        <ele>33.9</ele>
        <time>2023-04-06T12:16:00Z</time>
      </trkpt>
      <trkpt lat="49.86929" lon="2.33577">
        <ele>34</ele>
        <time>2023-04-06T12:16:02Z</time>
      </trkpt>
      <trkpt lat="49.86928" lon="2.33575">
        <ele>34.1</ele>
        <time>2023-04-06T12:16:03Z</time>
      </trkpt>
      <trkpt lat="49.86927" lon="2.33573">
        <ele>34.2</ele>
        <time>2023-04-06T12:16:04Z</time>
      </trkpt>
      <trkpt lat="49.86927" lon="2.3357">
        <ele>34.3</ele>
        <time>2023-04-06T12:16:05Z</time>
      </trkpt>
      <trkpt lat="49.86926" lon="2.33568">
        <ele>34.3</ele>
        <time>2023-04-06T12:16:06Z</time>
      </trkpt>
      <trkpt lat="49.86926" lon="2.33567">
        <ele>34.4</ele>
        <time>2023-04-06T12:16:07Z</time>
      </trkpt>
      <trkpt lat="49.86926" lon="2.33563">
        <ele>34.5</ele>
        <time>2023-04-06T12:16:08Z</time>
      </trkpt>
      <trkpt lat="49.86926" lon="2.33562">
        <ele>34.5</ele>
        <time>2023-04-06T12:16:09Z</time>
      </trkpt>
      <trkpt lat="49.86926" lon="2.33559">
        <ele>34.6</ele>
        <time>2023-04-06T12:16:11Z</time>
      </trkpt>
      <trkpt lat="49.86926" lon="2.33557">
        <ele>34.6</ele>
        <time>2023-04-06T12:16:12Z</time>
      </trkpt>
      <trkpt lat="49.86926" lon="2.33554">
        <ele>34.7</ele>
        <time>2023-04-06T12:16:13Z</time>
      </trkpt>
      <trkpt lat="49.86926" lon="2.33554">
        <ele>34.8</ele>
        <time>2023-04-06T12:16:14Z</time>
      </trkpt>
      <trkpt lat="49.86925" lon="2.33552">
        <ele>34.8</ele>
        <time>2023-04-06T12:16:15Z</time>
      </trkpt>
      <trkpt lat="49.86925" lon="2.3355">
        <ele>34.9</ele>
        <time>2023-04-06T12:16:16Z</time>
      </trkpt>
      <trkpt lat="49.86924" lon="2.33548">
        <ele>34.9</ele>
        <time>2023-04-06T12:16:17Z</time>
      </trkpt>
      <trkpt lat="49.86924" lon="2.33545">
        <ele>35</ele>
        <time>2023-04-06T12:16:19Z</time>
      </trkpt>
      <trkpt lat="49.86923" lon="2.33544">
        <ele>35.1</ele>
        <time>2023-04-06T12:16:20Z</time>
      </trkpt>
      <trkpt lat="49.86922" lon="2.33543">
        <ele>35.1</ele>
        <time>2023-04-06T12:16:22Z</time>
      </trkpt>
      <trkpt lat="49.86922" lon="2.33543">
        <ele>35.2</ele>
        <time>2023-04-06T12:16:23Z</time>
      </trkpt>
      <trkpt lat="49.86922" lon="2.33543">
        <ele>35.2</ele>
        <time>2023-04-06T12:16:24Z</time>
      </trkpt>
      <trkpt lat="49.86922" lon="2.33543">
        <ele>35.2</ele>
        <time>2023-04-06T12:16:25Z</time>
      </trkpt>
      <trkpt lat="49.86922" lon="2.33543">
        <ele>35.2</ele>
        <time>2023-04-06T12:16:27Z</time>
      </trkpt>
      <trkpt lat="49.86922" lon="2.33543">
        <ele>35.2</ele>
        <time>2023-04-06T12:16:28Z</time>
      </trkpt>
      <trkpt lat="49.86922" lon="2.33543">
        <ele>35.2</ele>
        <time>2023-04-06T12:16:29Z</time>
      </trkpt>
      <trkpt lat="49.86922" lon="2.33543">
        <ele>35.2</ele>
        <time>2023-04-06T12:16:31Z</time>
      </trkpt>
      <trkpt lat="49.86922" lon="2.33543">
        <ele>35.2</ele>
        <time>2023-04-06T12:16:32Z</time>
      </trkpt>
      <trkpt lat="49.86922" lon="2.33543">
        <ele>35.2</ele>
        <time>2023-04-06T12:16:33Z</time>
      </trkpt>
      <trkpt lat="49.86921" lon="2.33542">
        <ele>35.3</ele>
        <time>2023-04-06T12:16:34Z</time>
      </trkpt>
      <trkpt lat="49.86921" lon="2.33541">
        <ele>35.3</ele>
        <time>2023-04-06T12:16:35Z</time>
      </trkpt>
      <trkpt lat="49.8692" lon="2.33539">
        <ele>35.3</ele>
        <time>2023-04-06T12:16:36Z</time>
      </trkpt>
      <trkpt lat="49.86919" lon="2.33537">
        <ele>35.4</ele>
        <time>2023-04-06T12:16:37Z</time>
      </trkpt>
      <trkpt lat="49.86919" lon="2.33534">
        <ele>35.5</ele>
        <time>2023-04-06T12:16:38Z</time>
      </trkpt>
      <trkpt lat="49.8692" lon="2.33533">
        <ele>35.6</ele>
        <time>2023-04-06T12:16:40Z</time>
      </trkpt>
      <trkpt lat="49.8692" lon="2.33531">
        <ele>35.7</ele>
        <time>2023-04-06T12:16:41Z</time>
      </trkpt>
      <trkpt lat="49.86921" lon="2.33528">
        <ele>35.7</ele>
        <time>2023-04-06T12:16:42Z</time>
      </trkpt>
      <trkpt lat="49.86921" lon="2.33524">
        <ele>35.9</ele>
        <time>2023-04-06T12:16:43Z</time>
      </trkpt>
      <trkpt lat="49.86922" lon="2.33523">
        <ele>35.9</ele>
        <time>2023-04-06T12:16:44Z</time>
      </trkpt>
      <trkpt lat="49.86922" lon="2.33521">
        <ele>36</ele>
        <time>2023-04-06T12:16:45Z</time>
      </trkpt>
      <trkpt lat="49.86923" lon="2.33519">
        <ele>36.1</ele>
        <time>2023-04-06T12:16:46Z</time>
      </trkpt>
      <trkpt lat="49.86923" lon="2.33517">
        <ele>36.1</ele>
        <time>2023-04-06T12:16:47Z</time>
      </trkpt>
      <trkpt lat="49.86923" lon="2.33515">
        <ele>36.2</ele>
        <time>2023-04-06T12:16:49Z</time>
      </trkpt>
      <trkpt lat="49.86923" lon="2.33514">
        <ele>36.3</ele>
        <time>2023-04-06T12:16:50Z</time>
      </trkpt>
      <trkpt lat="49.86923" lon="2.33512">
        <ele>36.3</ele>
        <time>2023-04-06T12:16:51Z</time>
      </trkpt>
      <trkpt lat="49.86922" lon="2.3351">
        <ele>36.4</ele>
        <time>2023-04-06T12:16:52Z</time>
      </trkpt>
      <trkpt lat="49.86922" lon="2.33509">
        <ele>36.5</ele>
        <time>2023-04-06T12:16:53Z</time>
      </trkpt>
      <trkpt lat="49.86921" lon="2.33507">
        <ele>36.5</ele>
        <time>2023-04-06T12:16:54Z</time>
      </trkpt>
      <trkpt lat="49.86921" lon="2.33505">
        <ele>36.6</ele>
        <time>2023-04-06T12:16:55Z</time>
      </trkpt>
      <trkpt lat="49.8692" lon="2.33503">
        <ele>36.7</ele>
        <time>2023-04-06T12:16:57Z</time>
      </trkpt>
      <trkpt lat="49.86919" lon="2.33501">
        <ele>36.7</ele>
        <time>2023-04-06T12:16:58Z</time>
      </trkpt>
      <trkpt lat="49.86919" lon="2.33499">
        <ele>36.8</ele>
        <time>2023-04-06T12:16:59Z</time>
      </trkpt>
      <trkpt lat="49.86919" lon="2.33497">
        <ele>36.9</ele>
        <time>2023-04-06T12:17:00Z</time>
      </trkpt>
      <trkpt lat="49.86919" lon="2.33495">
        <ele>37</ele>
        <time>2023-04-06T12:17:01Z</time>
      </trkpt>
      <trkpt lat="49.86918" lon="2.33492">
        <ele>37</ele>
        <time>2023-04-06T12:17:02Z</time>
      </trkpt>
      <trkpt lat="49.86918" lon="2.3349">
        <ele>37.1</ele>
        <time>2023-04-06T12:17:03Z</time>
      </trkpt>
      <trkpt lat="49.86918" lon="2.33487">
        <ele>37.2</ele>
        <time>2023-04-06T12:17:04Z</time>
      </trkpt>
      <trkpt lat="49.86918" lon="2.33485">
        <ele>37.3</ele>
        <time>2023-04-06T12:17:05Z</time>
      </trkpt>
      <trkpt lat="49.86917" lon="2.33483">
        <ele>37.3</ele>
        <time>2023-04-06T12:17:07Z</time>
      </trkpt>
      <trkpt lat="49.86916" lon="2.33481">
        <ele>37.4</ele>
        <time>2023-04-06T12:17:08Z</time>
      </trkpt>
      <trkpt lat="49.86916" lon="2.33477">
        <ele>37.5</ele>
        <time>2023-04-06T12:17:09Z</time>
      </trkpt>
      <trkpt lat="49.86916" lon="2.33476">
        <ele>37.5</ele>
        <time>2023-04-06T12:17:10Z</time>
      </trkpt>
      <trkpt lat="49.86915" lon="2.33475">
        <ele>37.6</ele>
        <time>2023-04-06T12:17:11Z</time>
      </trkpt>
      <trkpt lat="49.86914" lon="2.33474">
        <ele>37.6</ele>
        <time>2023-04-06T12:17:12Z</time>
      </trkpt>
      <trkpt lat="49.86913" lon="2.33472">
        <ele>37.7</ele>
        <time>2023-04-06T12:17:14Z</time>
      </trkpt>
      <trkpt lat="49.86911" lon="2.33472">
        <ele>37.7</ele>
        <time>2023-04-06T12:17:15Z</time>
      </trkpt>
      <trkpt lat="49.8691" lon="2.33472">
        <ele>37.8</ele>
        <time>2023-04-06T12:17:16Z</time>
      </trkpt>
      <trkpt lat="49.86909" lon="2.33471">
        <ele>37.8</ele>
        <time>2023-04-06T12:17:18Z</time>
      </trkpt>
      <trkpt lat="49.86908" lon="2.33469">
        <ele>37.9</ele>
        <time>2023-04-06T12:17:19Z</time>
      </trkpt>
      <trkpt lat="49.86908" lon="2.33467">
        <ele>37.9</ele>
        <time>2023-04-06T12:17:20Z</time>
      </trkpt>
      <trkpt lat="49.86907" lon="2.33465">
        <ele>38</ele>
        <time>2023-04-06T12:17:21Z</time>
      </trkpt>
      <trkpt lat="49.86906" lon="2.33463">
        <ele>38</ele>
        <time>2023-04-06T12:17:22Z</time>
      </trkpt>
      <trkpt lat="49.86906" lon="2.33461">
        <ele>38.1</ele>
        <time>2023-04-06T12:17:23Z</time>
      </trkpt>
      <trkpt lat="49.86905" lon="2.33459">
        <ele>38.1</ele>
        <time>2023-04-06T12:17:24Z</time>
      </trkpt>
      <trkpt lat="49.86904" lon="2.33456">
        <ele>38.2</ele>
        <time>2023-04-06T12:17:25Z</time>
      </trkpt>
      <trkpt lat="49.86904" lon="2.33455">
        <ele>38.2</ele>
        <time>2023-04-06T12:17:27Z</time>
      </trkpt>
      <trkpt lat="49.86903" lon="2.33454">
        <ele>38.2</ele>
        <time>2023-04-06T12:17:28Z</time>
      </trkpt>
      <trkpt lat="49.86902" lon="2.33452">
        <ele>38.3</ele>
        <time>2023-04-06T12:17:29Z</time>
      </trkpt>
      <trkpt lat="49.86901" lon="2.33451">
        <ele>38.3</ele>
        <time>2023-04-06T12:17:30Z</time>
      </trkpt>
      <trkpt lat="49.86901" lon="2.3345">
        <ele>38.4</ele>
        <time>2023-04-06T12:17:31Z</time>
      </trkpt>
      <trkpt lat="49.869" lon="2.3345">
        <ele>38.4</ele>
        <time>2023-04-06T12:17:32Z</time>
      </trkpt>
      <trkpt lat="49.869" lon="2.33449">
        <ele>38.4</ele>
        <time>2023-04-06T12:17:33Z</time>
      </trkpt>
      <trkpt lat="49.86899" lon="2.33448">
        <ele>38.6</ele>
        <time>2023-04-06T12:17:35Z</time>
      </trkpt>
      <trkpt lat="49.86898" lon="2.33447">
        <ele>38.6</ele>
        <time>2023-04-06T12:17:36Z</time>
      </trkpt>
      <trkpt lat="49.86897" lon="2.33447">
        <ele>38.6</ele>
        <time>2023-04-06T12:17:37Z</time>
      </trkpt>
      <trkpt lat="49.86896" lon="2.33448">
        <ele>38.6</ele>
        <time>2023-04-06T12:17:38Z</time>
      </trkpt>
      <trkpt lat="49.86894" lon="2.33452">
        <ele>38.6</ele>
        <time>2023-04-06T12:17:39Z</time>
      </trkpt>
      <trkpt lat="49.86893" lon="2.33455">
        <ele>38.7</ele>
        <time>2023-04-06T12:17:40Z</time>
      </trkpt>
      <trkpt lat="49.86892" lon="2.33456">
        <ele>38.7</ele>
        <time>2023-04-06T12:17:41Z</time>
      </trkpt>
      <trkpt lat="49.86892" lon="2.33457">
        <ele>38.7</ele>
        <time>2023-04-06T12:17:42Z</time>
      </trkpt>
      <trkpt lat="49.86892" lon="2.33458">
        <ele>38.7</ele>
        <time>2023-04-06T12:17:43Z</time>
      </trkpt>
      <trkpt lat="49.86891" lon="2.33459">
        <ele>38.7</ele>
        <time>2023-04-06T12:17:45Z</time>
      </trkpt>
      <trkpt lat="49.8689" lon="2.3346">
        <ele>38.7</ele>
        <time>2023-04-06T12:17:46Z</time>
      </trkpt>
      <trkpt lat="49.86888" lon="2.3346">
        <ele>38.7</ele>
        <time>2023-04-06T12:17:47Z</time>
      </trkpt>
      <trkpt lat="49.86887" lon="2.3346">
        <ele>38.7</ele>
        <time>2023-04-06T12:17:48Z</time>
      </trkpt>
      <trkpt lat="49.86886" lon="2.3346">
        <ele>38.7</ele>
        <time>2023-04-06T12:17:49Z</time>
      </trkpt>
      <trkpt lat="49.86884" lon="2.33461">
        <ele>38.7</ele>
        <time>2023-04-06T12:17:50Z</time>
      </trkpt>
      <trkpt lat="49.86883" lon="2.33461">
        <ele>38.7</ele>
        <time>2023-04-06T12:17:51Z</time>
      </trkpt>
      <trkpt lat="49.86882" lon="2.33461">
        <ele>38.8</ele>
        <time>2023-04-06T12:17:52Z</time>
      </trkpt>
      <trkpt lat="49.8688" lon="2.33461">
        <ele>38.8</ele>
        <time>2023-04-06T12:17:53Z</time>
      </trkpt>
      <trkpt lat="49.86879" lon="2.33461">
        <ele>38.8</ele>
        <time>2023-04-06T12:17:54Z</time>
      </trkpt>
      <trkpt lat="49.86877" lon="2.33461">
        <ele>38.8</ele>
        <time>2023-04-06T12:17:55Z</time>
      </trkpt>
      <trkpt lat="49.86876" lon="2.33461">
        <ele>38.8</ele>
        <time>2023-04-06T12:17:57Z</time>
      </trkpt>
      <trkpt lat="49.86874" lon="2.33461">
        <ele>38.8</ele>
        <time>2023-04-06T12:17:58Z</time>
      </trkpt>
      <trkpt lat="49.86873" lon="2.33462">
        <ele>38.8</ele>
        <time>2023-04-06T12:17:59Z</time>
      </trkpt>
      <trkpt lat="49.86871" lon="2.33464">
        <ele>38.9</ele>
        <time>2023-04-06T12:18:00Z</time>
      </trkpt>
      <trkpt lat="49.8687" lon="2.33464">
        <ele>38.9</ele>
        <time>2023-04-06T12:18:01Z</time>
      </trkpt>
      <trkpt lat="49.8687" lon="2.33464">
        <ele>38.9</ele>
        <time>2023-04-06T12:18:02Z</time>
      </trkpt>
      <trkpt lat="49.86867" lon="2.33465">
        <ele>38.9</ele>
        <time>2023-04-06T12:18:03Z</time>
      </trkpt>
      <trkpt lat="49.86866" lon="2.33465">
        <ele>38.9</ele>
        <time>2023-04-06T12:18:04Z</time>
      </trkpt>
      <trkpt lat="49.86865" lon="2.33465">
        <ele>38.9</ele>
        <time>2023-04-06T12:18:06Z</time>
      </trkpt>
      <trkpt lat="49.86864" lon="2.33466">
        <ele>39</ele>
        <time>2023-04-06T12:18:07Z</time>
      </trkpt>
      <trkpt lat="49.86863" lon="2.33466">
        <ele>39</ele>
        <time>2023-04-06T12:18:08Z</time>
      </trkpt>
      <trkpt lat="49.86862" lon="2.33467">
        <ele>39</ele>
        <time>2023-04-06T12:18:09Z</time>
      </trkpt>
      <trkpt lat="49.8686" lon="2.33468">
        <ele>39</ele>
        <time>2023-04-06T12:18:10Z</time>
      </trkpt>
      <trkpt lat="49.86859" lon="2.33468">
        <ele>39</ele>
        <time>2023-04-06T12:18:11Z</time>
      </trkpt>
      <trkpt lat="49.86858" lon="2.33468">
        <ele>39</ele>
        <time>2023-04-06T12:18:12Z</time>
      </trkpt>
      <trkpt lat="49.86856" lon="2.33469">
        <ele>39.1</ele>
        <time>2023-04-06T12:18:13Z</time>
      </trkpt>
      <trkpt lat="49.86855" lon="2.3347">
        <ele>39.1</ele>
        <time>2023-04-06T12:18:15Z</time>
      </trkpt>
      <trkpt lat="49.86854" lon="2.3347">
        <ele>39.1</ele>
        <time>2023-04-06T12:18:16Z</time>
      </trkpt>
      <trkpt lat="49.86853" lon="2.3347">
        <ele>39.1</ele>
        <time>2023-04-06T12:18:17Z</time>
      </trkpt>
      <trkpt lat="49.86851" lon="2.33471">
        <ele>39.1</ele>
        <time>2023-04-06T12:18:18Z</time>
      </trkpt>
      <trkpt lat="49.86849" lon="2.33472">
        <ele>39.2</ele>
        <time>2023-04-06T12:18:19Z</time>
      </trkpt>
      <trkpt lat="49.86848" lon="2.33473">
        <ele>39.2</ele>
        <time>2023-04-06T12:18:20Z</time>
      </trkpt>
      <trkpt lat="49.86848" lon="2.33473">
        <ele>39.2</ele>
        <time>2023-04-06T12:18:21Z</time>
      </trkpt>
      <trkpt lat="49.86847" lon="2.33474">
        <ele>39.2</ele>
        <time>2023-04-06T12:18:22Z</time>
      </trkpt>
      <trkpt lat="49.86846" lon="2.33475">
        <ele>39.2</ele>
        <time>2023-04-06T12:18:24Z</time>
      </trkpt>
      <trkpt lat="49.86845" lon="2.33476">
        <ele>39.2</ele>
        <time>2023-04-06T12:18:25Z</time>
      </trkpt>
      <trkpt lat="49.86844" lon="2.33477">
        <ele>39.3</ele>
        <time>2023-04-06T12:18:26Z</time>
      </trkpt>
      <trkpt lat="49.86842" lon="2.33478">
        <ele>39.3</ele>
        <time>2023-04-06T12:18:27Z</time>
      </trkpt>
      <trkpt lat="49.86841" lon="2.33479">
        <ele>39.3</ele>
        <time>2023-04-06T12:18:28Z</time>
      </trkpt>
      <trkpt lat="49.86839" lon="2.33481">
        <ele>39.3</ele>
        <time>2023-04-06T12:18:29Z</time>
      </trkpt>
      <trkpt lat="49.86837" lon="2.33482">
        <ele>39.4</ele>
        <time>2023-04-06T12:18:30Z</time>
      </trkpt>
      <trkpt lat="49.86836" lon="2.33483">
        <ele>39.4</ele>
        <time>2023-04-06T12:18:32Z</time>
      </trkpt>
      <trkpt lat="49.86834" lon="2.33484">
        <ele>39.4</ele>
        <time>2023-04-06T12:18:33Z</time>
      </trkpt>
      <trkpt lat="49.86833" lon="2.33485">
        <ele>39.4</ele>
        <time>2023-04-06T12:18:34Z</time>
      </trkpt>
      <trkpt lat="49.86832" lon="2.33484">
        <ele>39.4</ele>
        <time>2023-04-06T12:18:35Z</time>
      </trkpt>
      <trkpt lat="49.86831" lon="2.33485">
        <ele>39.4</ele>
        <time>2023-04-06T12:18:36Z</time>
      </trkpt>
      <trkpt lat="49.8683" lon="2.33485">
        <ele>39.5</ele>
        <time>2023-04-06T12:18:38Z</time>
      </trkpt>
      <trkpt lat="49.86828" lon="2.33487">
        <ele>39.5</ele>
        <time>2023-04-06T12:18:39Z</time>
      </trkpt>
      <trkpt lat="49.86827" lon="2.33487">
        <ele>39.5</ele>
        <time>2023-04-06T12:18:40Z</time>
      </trkpt>
      <trkpt lat="49.86827" lon="2.33487">
        <ele>39.5</ele>
        <time>2023-04-06T12:18:41Z</time>
      </trkpt>
      <trkpt lat="49.86825" lon="2.33488">
        <ele>39.5</ele>
        <time>2023-04-06T12:18:42Z</time>
      </trkpt>
      <trkpt lat="49.86824" lon="2.33489">
        <ele>39.6</ele>
        <time>2023-04-06T12:18:43Z</time>
      </trkpt>
      <trkpt lat="49.86822" lon="2.3349">
        <ele>39.6</ele>
        <time>2023-04-06T12:18:44Z</time>
      </trkpt>
      <trkpt lat="49.86821" lon="2.33491">
        <ele>39.6</ele>
        <time>2023-04-06T12:18:46Z</time>
      </trkpt>
      <trkpt lat="49.8682" lon="2.33492">
        <ele>39.6</ele>
        <time>2023-04-06T12:18:47Z</time>
      </trkpt>
      <trkpt lat="49.86818" lon="2.33493">
        <ele>39.6</ele>
        <time>2023-04-06T12:18:48Z</time>
      </trkpt>
      <trkpt lat="49.86816" lon="2.33495">
        <ele>39.7</ele>
        <time>2023-04-06T12:18:49Z</time>
      </trkpt>
      <trkpt lat="49.86813" lon="2.33497">
        <ele>39.7</ele>
        <time>2023-04-06T12:18:50Z</time>
      </trkpt>
      <trkpt lat="49.86812" lon="2.33498">
        <ele>39.7</ele>
        <time>2023-04-06T12:18:52Z</time>
      </trkpt>
      <trkpt lat="49.86811" lon="2.33499">
        <ele>39.8</ele>
        <time>2023-04-06T12:18:53Z</time>
      </trkpt>
      <trkpt lat="49.8681" lon="2.335">
        <ele>39.8</ele>
        <time>2023-04-06T12:18:54Z</time>
      </trkpt>
      <trkpt lat="49.86808" lon="2.335">
        <ele>39.8</ele>
        <time>2023-04-06T12:18:55Z</time>
      </trkpt>
      <trkpt lat="49.86807" lon="2.33501">
        <ele>39.8</ele>
        <time>2023-04-06T12:18:56Z</time>
      </trkpt>
      <trkpt lat="49.86807" lon="2.33501">
        <ele>39.8</ele>
        <time>2023-04-06T12:18:57Z</time>
      </trkpt>
      <trkpt lat="49.86806" lon="2.33501">
        <ele>39.8</ele>
        <time>2023-04-06T12:18:58Z</time>
      </trkpt>
      <trkpt lat="49.86804" lon="2.33503">
        <ele>39.9</ele>
        <time>2023-04-06T12:18:59Z</time>
      </trkpt>
      <trkpt lat="49.86802" lon="2.33503">
        <ele>39.9</ele>
        <time>2023-04-06T12:19:01Z</time>
      </trkpt>
      <trkpt lat="49.868" lon="2.33505">
        <ele>39.9</ele>
        <time>2023-04-06T12:19:02Z</time>
      </trkpt>
      <trkpt lat="49.86799" lon="2.33505">
        <ele>39.9</ele>
        <time>2023-04-06T12:19:03Z</time>
      </trkpt>
      <trkpt lat="49.86798" lon="2.33506">
        <ele>40</ele>
        <time>2023-04-06T12:19:04Z</time>
      </trkpt>
      <trkpt lat="49.86796" lon="2.33506">
        <ele>40</ele>
        <time>2023-04-06T12:19:05Z</time>
      </trkpt>
      <trkpt lat="49.86795" lon="2.33507">
        <ele>40</ele>
        <time>2023-04-06T12:19:06Z</time>
      </trkpt>
      <trkpt lat="49.86793" lon="2.33508">
        <ele>40.1</ele>
        <time>2023-04-06T12:19:07Z</time>
      </trkpt>
      <trkpt lat="49.86792" lon="2.33508">
        <ele>40.1</ele>
        <time>2023-04-06T12:19:08Z</time>
      </trkpt>
      <trkpt lat="49.86791" lon="2.33509">
        <ele>40.1</ele>
        <time>2023-04-06T12:19:09Z</time>
      </trkpt>
      <trkpt lat="49.8679" lon="2.33509">
        <ele>40.1</ele>
        <time>2023-04-06T12:19:11Z</time>
      </trkpt>
      <trkpt lat="49.86789" lon="2.3351">
        <ele>40.1</ele>
        <time>2023-04-06T12:19:12Z</time>
      </trkpt>
      <trkpt lat="49.86789" lon="2.33511">
        <ele>40.1</ele>
        <time>2023-04-06T12:19:13Z</time>
      </trkpt>
      <trkpt lat="49.86788" lon="2.33512">
        <ele>40.2</ele>
        <time>2023-04-06T12:19:14Z</time>
      </trkpt>
      <trkpt lat="49.86786" lon="2.33514">
        <ele>40.2</ele>
        <time>2023-04-06T12:19:15Z</time>
      </trkpt>
      <trkpt lat="49.86784" lon="2.33515">
        <ele>40.2</ele>
        <time>2023-04-06T12:19:16Z</time>
      </trkpt>
      <trkpt lat="49.86783" lon="2.33516">
        <ele>40.2</ele>
        <time>2023-04-06T12:19:17Z</time>
      </trkpt>
      <trkpt lat="49.86782" lon="2.33517">
        <ele>40.2</ele>
        <time>2023-04-06T12:19:18Z</time>
      </trkpt>
      <trkpt lat="49.86781" lon="2.33517">
        <ele>40.3</ele>
        <time>2023-04-06T12:19:19Z</time>
      </trkpt>
      <trkpt lat="49.86782" lon="2.33515">
        <ele>40.3</ele>
        <time>2023-04-06T12:19:20Z</time>
      </trkpt>
      <trkpt lat="49.86781" lon="2.33515">
        <ele>40.3</ele>
        <time>2023-04-06T12:19:21Z</time>
      </trkpt>
      <trkpt lat="49.8678" lon="2.33516">
        <ele>40.3</ele>
        <time>2023-04-06T12:19:23Z</time>
      </trkpt>
      <trkpt lat="49.86779" lon="2.33517">
        <ele>40.3</ele>
        <time>2023-04-06T12:19:24Z</time>
      </trkpt>
      <trkpt lat="49.86777" lon="2.33518">
        <ele>40.4</ele>
        <time>2023-04-06T12:19:25Z</time>
      </trkpt>
      <trkpt lat="49.86776" lon="2.33519">
        <ele>40.4</ele>
        <time>2023-04-06T12:19:26Z</time>
      </trkpt>
      <trkpt lat="49.86775" lon="2.3352">
        <ele>40.4</ele>
        <time>2023-04-06T12:19:27Z</time>
      </trkpt>
      <trkpt lat="49.86774" lon="2.33521">
        <ele>40.4</ele>
        <time>2023-04-06T12:19:28Z</time>
      </trkpt>
      <trkpt lat="49.86772" lon="2.33522">
        <ele>40.5</ele>
        <time>2023-04-06T12:19:29Z</time>
      </trkpt>
      <trkpt lat="49.86771" lon="2.33523">
        <ele>40.5</ele>
        <time>2023-04-06T12:19:30Z</time>
      </trkpt>
      <trkpt lat="49.86769" lon="2.33524">
        <ele>40.5</ele>
        <time>2023-04-06T12:19:31Z</time>
      </trkpt>
      <trkpt lat="49.86768" lon="2.33525">
        <ele>40.5</ele>
        <time>2023-04-06T12:19:32Z</time>
      </trkpt>
      <trkpt lat="49.86766" lon="2.33526">
        <ele>40.6</ele>
        <time>2023-04-06T12:19:34Z</time>
      </trkpt>
      <trkpt lat="49.86765" lon="2.33527">
        <ele>40.6</ele>
        <time>2023-04-06T12:19:35Z</time>
      </trkpt>
      <trkpt lat="49.86763" lon="2.33528">
        <ele>40.6</ele>
        <time>2023-04-06T12:19:36Z</time>
      </trkpt>
      <trkpt lat="49.86761" lon="2.3353">
        <ele>40.6</ele>
        <time>2023-04-06T12:19:37Z</time>
      </trkpt>
      <trkpt lat="49.8676" lon="2.33531">
        <ele>40.7</ele>
        <time>2023-04-06T12:19:38Z</time>
      </trkpt>
      <trkpt lat="49.86759" lon="2.33532">
        <ele>40.7</ele>
        <time>2023-04-06T12:19:39Z</time>
      </trkpt>
      <trkpt lat="49.86758" lon="2.33533">
        <ele>40.7</ele>
        <time>2023-04-06T12:19:41Z</time>
      </trkpt>
      <trkpt lat="49.86757" lon="2.33534">
        <ele>40.7</ele>
        <time>2023-04-06T12:19:42Z</time>
      </trkpt>
      <trkpt lat="49.86754" lon="2.33534">
        <ele>40.8</ele>
        <time>2023-04-06T12:19:43Z</time>
      </trkpt>
      <trkpt lat="49.86753" lon="2.33534">
        <ele>40.8</ele>
        <time>2023-04-06T12:19:44Z</time>
      </trkpt>
      <trkpt lat="49.86752" lon="2.33535">
        <ele>40.8</ele>
        <time>2023-04-06T12:19:45Z</time>
      </trkpt>
      <trkpt lat="49.86751" lon="2.33536">
        <ele>40.8</ele>
        <time>2023-04-06T12:19:47Z</time>
      </trkpt>
      <trkpt lat="49.8675" lon="2.33536">
        <ele>40.8</ele>
        <time>2023-04-06T12:19:48Z</time>
      </trkpt>
      <trkpt lat="49.86749" lon="2.33536">
        <ele>40.8</ele>
        <time>2023-04-06T12:19:49Z</time>
      </trkpt>
      <trkpt lat="49.86748" lon="2.33537">
        <ele>40.9</ele>
        <time>2023-04-06T12:19:50Z</time>
      </trkpt>
      <trkpt lat="49.86747" lon="2.33538">
        <ele>40.9</ele>
        <time>2023-04-06T12:19:51Z</time>
      </trkpt>
      <trkpt lat="49.86746" lon="2.33539">
        <ele>40.9</ele>
        <time>2023-04-06T12:19:52Z</time>
      </trkpt>
      <trkpt lat="49.86746" lon="2.33538">
        <ele>40.9</ele>
        <time>2023-04-06T12:19:53Z</time>
      </trkpt>
      <trkpt lat="49.86745" lon="2.33538">
        <ele>40.9</ele>
        <time>2023-04-06T12:19:54Z</time>
      </trkpt>
      <trkpt lat="49.86744" lon="2.33539">
        <ele>40.9</ele>
        <time>2023-04-06T12:19:55Z</time>
      </trkpt>
      <trkpt lat="49.86743" lon="2.33539">
        <ele>40.9</ele>
        <time>2023-04-06T12:19:56Z</time>
      </trkpt>
      <trkpt lat="49.86742" lon="2.3354">
        <ele>41</ele>
        <time>2023-04-06T12:19:58Z</time>
      </trkpt>
      <trkpt lat="49.8674" lon="2.33541">
        <ele>41</ele>
        <time>2023-04-06T12:19:59Z</time>
      </trkpt>
      <trkpt lat="49.86739" lon="2.33541">
        <ele>41</ele>
        <time>2023-04-06T12:20:00Z</time>
      </trkpt>
      <trkpt lat="49.86738" lon="2.33542">
        <ele>41</ele>
        <time>2023-04-06T12:20:01Z</time>
      </trkpt>
      <trkpt lat="49.86737" lon="2.33542">
        <ele>41</ele>
        <time>2023-04-06T12:20:02Z</time>
      </trkpt>
      <trkpt lat="49.86735" lon="2.33543">
        <ele>41.1</ele>
        <time>2023-04-06T12:20:03Z</time>
      </trkpt>
      <trkpt lat="49.86733" lon="2.33544">
        <ele>41.1</ele>
        <time>2023-04-06T12:20:04Z</time>
      </trkpt>
      <trkpt lat="49.86732" lon="2.33545">
        <ele>41.1</ele>
        <time>2023-04-06T12:20:05Z</time>
      </trkpt>
      <trkpt lat="49.8673" lon="2.33546">
        <ele>41.2</ele>
        <time>2023-04-06T12:20:06Z</time>
      </trkpt>
      <trkpt lat="49.86728" lon="2.33547">
        <ele>41.2</ele>
        <time>2023-04-06T12:20:08Z</time>
      </trkpt>
      <trkpt lat="49.86725" lon="2.33548">
        <ele>41.3</ele>
        <time>2023-04-06T12:20:09Z</time>
      </trkpt>
      <trkpt lat="49.86724" lon="2.33549">
        <ele>41.3</ele>
        <time>2023-04-06T12:20:10Z</time>
      </trkpt>
      <trkpt lat="49.86722" lon="2.33549">
        <ele>41.3</ele>
        <time>2023-04-06T12:20:11Z</time>
      </trkpt>
      <trkpt lat="49.86721" lon="2.3355">
        <ele>41.3</ele>
        <time>2023-04-06T12:20:12Z</time>
      </trkpt>
      <trkpt lat="49.86719" lon="2.3355">
        <ele>41.4</ele>
        <time>2023-04-06T12:20:14Z</time>
      </trkpt>
      <trkpt lat="49.86718" lon="2.33551">
        <ele>41.4</ele>
        <time>2023-04-06T12:20:15Z</time>
      </trkpt>
      <trkpt lat="49.86716" lon="2.33552">
        <ele>41.4</ele>
        <time>2023-04-06T12:20:16Z</time>
      </trkpt>
      <trkpt lat="49.86716" lon="2.33552">
        <ele>41.4</ele>
        <time>2023-04-06T12:20:17Z</time>
      </trkpt>
      <trkpt lat="49.86715" lon="2.33552">
        <ele>41.4</ele>
        <time>2023-04-06T12:20:18Z</time>
      </trkpt>
      <trkpt lat="49.86715" lon="2.33553">
        <ele>41.5</ele>
        <time>2023-04-06T12:20:19Z</time>
      </trkpt>
      <trkpt lat="49.86714" lon="2.33553">
        <ele>41.5</ele>
        <time>2023-04-06T12:20:20Z</time>
      </trkpt>
      <trkpt lat="49.86713" lon="2.33553">
        <ele>41.5</ele>
        <time>2023-04-06T12:20:22Z</time>
      </trkpt>
      <trkpt lat="49.86712" lon="2.33554">
        <ele>41.5</ele>
        <time>2023-04-06T12:20:23Z</time>
      </trkpt>
      <trkpt lat="49.8671" lon="2.33555">
        <ele>41.6</ele>
        <time>2023-04-06T12:20:24Z</time>
      </trkpt>
      <trkpt lat="49.86709" lon="2.33556">
        <ele>41.6</ele>
        <time>2023-04-06T12:20:26Z</time>
      </trkpt>
      <trkpt lat="49.86706" lon="2.33557">
        <ele>41.6</ele>
        <time>2023-04-06T12:20:27Z</time>
      </trkpt>
      <trkpt lat="49.86705" lon="2.33558">
        <ele>41.7</ele>
        <time>2023-04-06T12:20:28Z</time>
      </trkpt>
      <trkpt lat="49.86703" lon="2.33559">
        <ele>41.7</ele>
        <time>2023-04-06T12:20:29Z</time>
      </trkpt>
      <trkpt lat="49.867" lon="2.3356">
        <ele>41.8</ele>
        <time>2023-04-06T12:20:30Z</time>
      </trkpt>
      <trkpt lat="49.86698" lon="2.3356">
        <ele>41.8</ele>
        <time>2023-04-06T12:20:31Z</time>
      </trkpt>
      <trkpt lat="49.86697" lon="2.3356">
        <ele>41.8</ele>
        <time>2023-04-06T12:20:32Z</time>
      </trkpt>
      <trkpt lat="49.86696" lon="2.33561">
        <ele>41.8</ele>
        <time>2023-04-06T12:20:33Z</time>
      </trkpt>
      <trkpt lat="49.86695" lon="2.33561">
        <ele>41.9</ele>
        <time>2023-04-06T12:20:34Z</time>
      </trkpt>
      <trkpt lat="49.86692" lon="2.33563">
        <ele>41.9</ele>
        <time>2023-04-06T12:20:36Z</time>
      </trkpt>
      <trkpt lat="49.86691" lon="2.33563">
        <ele>41.9</ele>
        <time>2023-04-06T12:20:37Z</time>
      </trkpt>
      <trkpt lat="49.8669" lon="2.33564">
        <ele>42</ele>
        <time>2023-04-06T12:20:38Z</time>
      </trkpt>
      <trkpt lat="49.86689" lon="2.33564">
        <ele>42</ele>
        <time>2023-04-06T12:20:39Z</time>
      </trkpt>
      <trkpt lat="49.86687" lon="2.33565">
        <ele>42</ele>
        <time>2023-04-06T12:20:40Z</time>
      </trkpt>
      <trkpt lat="49.86685" lon="2.33565">
        <ele>42.1</ele>
        <time>2023-04-06T12:20:41Z</time>
      </trkpt>
      <trkpt lat="49.86683" lon="2.33566">
        <ele>42.1</ele>
        <time>2023-04-06T12:20:42Z</time>
      </trkpt>
      <trkpt lat="49.86681" lon="2.33567">
        <ele>42.2</ele>
        <time>2023-04-06T12:20:44Z</time>
      </trkpt>
      <trkpt lat="49.8668" lon="2.33567">
        <ele>42.2</ele>
        <time>2023-04-06T12:20:45Z</time>
      </trkpt>
      <trkpt lat="49.86678" lon="2.33568">
        <ele>42.2</ele>
        <time>2023-04-06T12:20:46Z</time>
      </trkpt>
      <trkpt lat="49.86677" lon="2.33568">
        <ele>42.2</ele>
        <time>2023-04-06T12:20:47Z</time>
      </trkpt>
      <trkpt lat="49.86677" lon="2.33568">
        <ele>42.2</ele>
        <time>2023-04-06T12:20:48Z</time>
      </trkpt>
      <trkpt lat="49.86677" lon="2.33567">
        <ele>42.3</ele>
        <time>2023-04-06T12:20:49Z</time>
      </trkpt>
      <trkpt lat="49.86676" lon="2.33567">
        <ele>42.3</ele>
        <time>2023-04-06T12:20:50Z</time>
      </trkpt>
      <trkpt lat="49.86675" lon="2.33567">
        <ele>42.3</ele>
        <time>2023-04-06T12:20:51Z</time>
      </trkpt>
      <trkpt lat="49.86673" lon="2.33568">
        <ele>42.3</ele>
        <time>2023-04-06T12:20:53Z</time>
      </trkpt>
      <trkpt lat="49.86672" lon="2.33569">
        <ele>42.3</ele>
        <time>2023-04-06T12:20:54Z</time>
      </trkpt>
      <trkpt lat="49.8667" lon="2.3357">
        <ele>42.4</ele>
        <time>2023-04-06T12:20:55Z</time>
      </trkpt>
      <trkpt lat="49.8667" lon="2.33571">
        <ele>42.4</ele>
        <time>2023-04-06T12:20:56Z</time>
      </trkpt>
      <trkpt lat="49.86669" lon="2.33571">
        <ele>42.4</ele>
        <time>2023-04-06T12:20:57Z</time>
      </trkpt>
      <trkpt lat="49.86668" lon="2.33573">
        <ele>42.5</ele>
        <time>2023-04-06T12:20:58Z</time>
      </trkpt>
      <trkpt lat="49.86666" lon="2.33574">
        <ele>42.5</ele>
        <time>2023-04-06T12:20:59Z</time>
      </trkpt>
      <trkpt lat="49.86665" lon="2.33576">
        <ele>42.5</ele>
        <time>2023-04-06T12:21:00Z</time>
      </trkpt>
      <trkpt lat="49.86664" lon="2.33577">
        <ele>42.6</ele>
        <time>2023-04-06T12:21:01Z</time>
      </trkpt>
      <trkpt lat="49.86662" lon="2.3358">
        <ele>42.6</ele>
        <time>2023-04-06T12:21:03Z</time>
      </trkpt>
      <trkpt lat="49.86661" lon="2.33582">
        <ele>42.6</ele>
        <time>2023-04-06T12:21:04Z</time>
      </trkpt>
      <trkpt lat="49.8666" lon="2.33583">
        <ele>42.6</ele>
        <time>2023-04-06T12:21:05Z</time>
      </trkpt>
      <trkpt lat="49.86659" lon="2.33584">
        <ele>42.6</ele>
        <time>2023-04-06T12:21:06Z</time>
      </trkpt>
      <trkpt lat="49.86657" lon="2.33585">
        <ele>42.6</ele>
        <time>2023-04-06T12:21:07Z</time>
      </trkpt>
      <trkpt lat="49.86655" lon="2.33588">
        <ele>42.7</ele>
        <time>2023-04-06T12:21:09Z</time>
      </trkpt>
      <trkpt lat="49.86654" lon="2.33589">
        <ele>42.7</ele>
        <time>2023-04-06T12:21:10Z</time>
      </trkpt>
      <trkpt lat="49.86653" lon="2.33591">
        <ele>42.7</ele>
        <time>2023-04-06T12:21:11Z</time>
      </trkpt>
      <trkpt lat="49.86652" lon="2.33592">
        <ele>42.7</ele>
        <time>2023-04-06T12:21:12Z</time>
      </trkpt>
      <trkpt lat="49.8665" lon="2.33593">
        <ele>42.7</ele>
        <time>2023-04-06T12:21:14Z</time>
      </trkpt>
      <trkpt lat="49.8665" lon="2.33595">
        <ele>42.7</ele>
        <time>2023-04-06T12:21:15Z</time>
      </trkpt>
      <trkpt lat="49.86649" lon="2.33596">
        <ele>42.7</ele>
        <time>2023-04-06T12:21:16Z</time>
      </trkpt>
      <trkpt lat="49.86648" lon="2.33597">
        <ele>42.8</ele>
        <time>2023-04-06T12:21:17Z</time>
      </trkpt>
      <trkpt lat="49.86646" lon="2.33599">
        <ele>42.8</ele>
        <time>2023-04-06T12:21:18Z</time>
      </trkpt>
      <trkpt lat="49.86645" lon="2.33599">
        <ele>42.8</ele>
        <time>2023-04-06T12:21:19Z</time>
      </trkpt>
      <trkpt lat="49.86644" lon="2.33601">
        <ele>42.8</ele>
        <time>2023-04-06T12:21:20Z</time>
      </trkpt>
      <trkpt lat="49.86643" lon="2.33602">
        <ele>42.8</ele>
        <time>2023-04-06T12:21:21Z</time>
      </trkpt>
      <trkpt lat="49.86643" lon="2.33603">
        <ele>42.8</ele>
        <time>2023-04-06T12:21:22Z</time>
      </trkpt>
      <trkpt lat="49.86642" lon="2.33604">
        <ele>42.8</ele>
        <time>2023-04-06T12:21:23Z</time>
      </trkpt>
      <trkpt lat="49.8664" lon="2.33606">
        <ele>42.8</ele>
        <time>2023-04-06T12:21:24Z</time>
      </trkpt>
      <trkpt lat="49.86639" lon="2.33607">
        <ele>42.9</ele>
        <time>2023-04-06T12:21:26Z</time>
      </trkpt>
      <trkpt lat="49.86637" lon="2.33609">
        <ele>42.9</ele>
        <time>2023-04-06T12:21:27Z</time>
      </trkpt>
      <trkpt lat="49.86636" lon="2.3361">
        <ele>42.9</ele>
        <time>2023-04-06T12:21:28Z</time>
      </trkpt>
      <trkpt lat="49.86636" lon="2.3361">
        <ele>42.9</ele>
        <time>2023-04-06T12:21:29Z</time>
      </trkpt>
      <trkpt lat="49.86635" lon="2.33609">
        <ele>42.9</ele>
        <time>2023-04-06T12:21:30Z</time>
      </trkpt>
      <trkpt lat="49.86635" lon="2.33606">
        <ele>42.9</ele>
        <time>2023-04-06T12:21:31Z</time>
      </trkpt>
      <trkpt lat="49.86635" lon="2.33604">
        <ele>42.9</ele>
        <time>2023-04-06T12:21:33Z</time>
      </trkpt>
      <trkpt lat="49.86634" lon="2.336">
        <ele>42.9</ele>
        <time>2023-04-06T12:21:34Z</time>
      </trkpt>
      <trkpt lat="49.86633" lon="2.33599">
        <ele>42.9</ele>
        <time>2023-04-06T12:21:35Z</time>
      </trkpt>
      <trkpt lat="49.86632" lon="2.33597">
        <ele>42.9</ele>
        <time>2023-04-06T12:21:36Z</time>
      </trkpt>
      <trkpt lat="49.86632" lon="2.33596">
        <ele>43</ele>
        <time>2023-04-06T12:21:37Z</time>
      </trkpt>
      <trkpt lat="49.86631" lon="2.33595">
        <ele>43</ele>
        <time>2023-04-06T12:21:38Z</time>
      </trkpt>
      <trkpt lat="49.8663" lon="2.33594">
        <ele>43</ele>
        <time>2023-04-06T12:21:39Z</time>
      </trkpt>
      <trkpt lat="49.86629" lon="2.33595">
        <ele>43</ele>
        <time>2023-04-06T12:21:41Z</time>
      </trkpt>
      <trkpt lat="49.86628" lon="2.33595">
        <ele>43</ele>
        <time>2023-04-06T12:21:42Z</time>
      </trkpt>
      <trkpt lat="49.86625" lon="2.33595">
        <ele>43</ele>
        <time>2023-04-06T12:21:43Z</time>
      </trkpt>
      <trkpt lat="49.86625" lon="2.33594">
        <ele>43</ele>
        <time>2023-04-06T12:21:44Z</time>
      </trkpt>
      <trkpt lat="49.86624" lon="2.33594">
        <ele>43</ele>
        <time>2023-04-06T12:21:45Z</time>
      </trkpt>
      <trkpt lat="49.86622" lon="2.33592">
        <ele>43</ele>
        <time>2023-04-06T12:21:47Z</time>
      </trkpt>
      <trkpt lat="49.86621" lon="2.33592">
        <ele>44.2</ele>
        <time>2023-04-06T12:21:48Z</time>
      </trkpt>
      <trkpt lat="49.86621" lon="2.33591">
        <ele>44.3</ele>
        <time>2023-04-06T12:21:49Z</time>
      </trkpt>
      <trkpt lat="49.86621" lon="2.33588">
        <ele>44.4</ele>
        <time>2023-04-06T12:21:50Z</time>
      </trkpt>
      <trkpt lat="49.8662" lon="2.33587">
        <ele>44.5</ele>
        <time>2023-04-06T12:21:51Z</time>
      </trkpt>
      <trkpt lat="49.86619" lon="2.33586">
        <ele>44.6</ele>
        <time>2023-04-06T12:21:52Z</time>
      </trkpt>
      <trkpt lat="49.86619" lon="2.33584">
        <ele>44.7</ele>
        <time>2023-04-06T12:21:53Z</time>
      </trkpt>
      <trkpt lat="49.86618" lon="2.3358">
        <ele>44.9</ele>
        <time>2023-04-06T12:21:55Z</time>
      </trkpt>
      <trkpt lat="49.86618" lon="2.33579">
        <ele>45</ele>
        <time>2023-04-06T12:21:56Z</time>
      </trkpt>
      <trkpt lat="49.86618" lon="2.33577">
        <ele>45.1</ele>
        <time>2023-04-06T12:21:57Z</time>
      </trkpt>
      <trkpt lat="49.86618" lon="2.33575">
        <ele>45.2</ele>
        <time>2023-04-06T12:21:58Z</time>
      </trkpt>
      <trkpt lat="49.86618" lon="2.33571">
        <ele>45.4</ele>
        <time>2023-04-06T12:22:00Z</time>
      </trkpt>
      <trkpt lat="49.86618" lon="2.33571">
        <ele>45.4</ele>
        <time>2023-04-06T12:22:01Z</time>
      </trkpt>
      <trkpt lat="49.86618" lon="2.33571">
        <ele>45.4</ele>
        <time>2023-04-06T12:22:02Z</time>
      </trkpt>
      <trkpt lat="49.86619" lon="2.33571">
        <ele>45.4</ele>
        <time>2023-04-06T12:22:03Z</time>
      </trkpt>
      <trkpt lat="49.86619" lon="2.3357">
        <ele>45.5</ele>
        <time>2023-04-06T12:22:04Z</time>
      </trkpt>
      <trkpt lat="49.86617" lon="2.33569">
        <ele>45.6</ele>
        <time>2023-04-06T12:22:05Z</time>
      </trkpt>
      <trkpt lat="49.86617" lon="2.33567">
        <ele>45.7</ele>
        <time>2023-04-06T12:22:06Z</time>
      </trkpt>
      <trkpt lat="49.86616" lon="2.33565">
        <ele>45.8</ele>
        <time>2023-04-06T12:22:07Z</time>
      </trkpt>
      <trkpt lat="49.86616" lon="2.33563">
        <ele>45.9</ele>
        <time>2023-04-06T12:22:08Z</time>
      </trkpt>
      <trkpt lat="49.86613" lon="2.33561">
        <ele>46.2</ele>
        <time>2023-04-06T12:22:10Z</time>
      </trkpt>
      <trkpt lat="49.86612" lon="2.3356">
        <ele>46.2</ele>
        <time>2023-04-06T12:22:11Z</time>
      </trkpt>
      <trkpt lat="49.86612" lon="2.33558">
        <ele>46.3</ele>
        <time>2023-04-06T12:22:12Z</time>
      </trkpt>
      <trkpt lat="49.86612" lon="2.33556">
        <ele>46.4</ele>
        <time>2023-04-06T12:22:13Z</time>
      </trkpt>
      <trkpt lat="49.86609" lon="2.33553">
        <ele>46.6</ele>
        <time>2023-04-06T12:22:14Z</time>
      </trkpt>
      <trkpt lat="49.86607" lon="2.33552">
        <ele>46.8</ele>
        <time>2023-04-06T12:22:15Z</time>
      </trkpt>
      <trkpt lat="49.86607" lon="2.3355">
        <ele>46.8</ele>
        <time>2023-04-06T12:22:17Z</time>
      </trkpt>
      <trkpt lat="49.86606" lon="2.33548">
        <ele>46.9</ele>
        <time>2023-04-06T12:22:18Z</time>
      </trkpt>
      <trkpt lat="49.86607" lon="2.33545">
        <ele>47</ele>
        <time>2023-04-06T12:22:19Z</time>
      </trkpt>
      <trkpt lat="49.86606" lon="2.33543">
        <ele>47</ele>
        <time>2023-04-06T12:22:20Z</time>
      </trkpt>
      <trkpt lat="49.86604" lon="2.33542">
        <ele>47.1</ele>
        <time>2023-04-06T12:22:21Z</time>
      </trkpt>
      <trkpt lat="49.86604" lon="2.33539">
        <ele>47.1</ele>
        <time>2023-04-06T12:22:22Z</time>
      </trkpt>
      <trkpt lat="49.86604" lon="2.33537">
        <ele>47.2</ele>
        <time>2023-04-06T12:22:23Z</time>
      </trkpt>
      <trkpt lat="49.86604" lon="2.33534">
        <ele>47.3</ele>
        <time>2023-04-06T12:22:24Z</time>
      </trkpt>
      <trkpt lat="49.86606" lon="2.3353">
        <ele>47.4</ele>
        <time>2023-04-06T12:22:25Z</time>
      </trkpt>
      <trkpt lat="49.86606" lon="2.33528">
        <ele>47.4</ele>
        <time>2023-04-06T12:22:26Z</time>
      </trkpt>
      <trkpt lat="49.86607" lon="2.33526">
        <ele>47.5</ele>
        <time>2023-04-06T12:22:27Z</time>
      </trkpt>
      <trkpt lat="49.86607" lon="2.33524">
        <ele>47.5</ele>
        <time>2023-04-06T12:22:29Z</time>
      </trkpt>
      <trkpt lat="49.86608" lon="2.33519">
        <ele>47.6</ele>
        <time>2023-04-06T12:22:30Z</time>
      </trkpt>
      <trkpt lat="49.86608" lon="2.33518">
        <ele>47.6</ele>
        <time>2023-04-06T12:22:31Z</time>
      </trkpt>
      <trkpt lat="49.86609" lon="2.33517">
        <ele>47.7</ele>
        <time>2023-04-06T12:22:32Z</time>
      </trkpt>
      <trkpt lat="49.86609" lon="2.33516">
        <ele>47.7</ele>
        <time>2023-04-06T12:22:33Z</time>
      </trkpt>
      <trkpt lat="49.86609" lon="2.33515">
        <ele>47.7</ele>
        <time>2023-04-06T12:22:34Z</time>
      </trkpt>
      <trkpt lat="49.86609" lon="2.33513">
        <ele>47.7</ele>
        <time>2023-04-06T12:22:35Z</time>
      </trkpt>
      <trkpt lat="49.86609" lon="2.33512">
        <ele>47.8</ele>
        <time>2023-04-06T12:22:36Z</time>
      </trkpt>
      <trkpt lat="49.86608" lon="2.3351">
        <ele>47.8</ele>
        <time>2023-04-06T12:22:37Z</time>
      </trkpt>
      <trkpt lat="49.86608" lon="2.33506">
        <ele>47.9</ele>
        <time>2023-04-06T12:22:38Z</time>
      </trkpt>
      <trkpt lat="49.86608" lon="2.33505">
        <ele>47.9</ele>
        <time>2023-04-06T12:22:40Z</time>
      </trkpt>
      <trkpt lat="49.86608" lon="2.33503">
        <ele>48</ele>
        <time>2023-04-06T12:22:41Z</time>
      </trkpt>
      <trkpt lat="49.86608" lon="2.33502">
        <ele>48</ele>
        <time>2023-04-06T12:22:42Z</time>
      </trkpt>
      <trkpt lat="49.86608" lon="2.33499">
        <ele>48.1</ele>
        <time>2023-04-06T12:22:43Z</time>
      </trkpt>
      <trkpt lat="49.86608" lon="2.33494">
        <ele>48.2</ele>
        <time>2023-04-06T12:22:44Z</time>
      </trkpt>
      <trkpt lat="49.86608" lon="2.33492">
        <ele>48.3</ele>
        <time>2023-04-06T12:22:45Z</time>
      </trkpt>
      <trkpt lat="49.86608" lon="2.33491">
        <ele>48.3</ele>
        <time>2023-04-06T12:22:46Z</time>
      </trkpt>
      <trkpt lat="49.86607" lon="2.33489">
        <ele>48.3</ele>
        <time>2023-04-06T12:22:47Z</time>
      </trkpt>
      <trkpt lat="49.86607" lon="2.33488">
        <ele>48.4</ele>
        <time>2023-04-06T12:22:48Z</time>
      </trkpt>
      <trkpt lat="49.86607" lon="2.33486">
        <ele>48.4</ele>
        <time>2023-04-06T12:22:50Z</time>
      </trkpt>
      <trkpt lat="49.86607" lon="2.33485">
        <ele>48.5</ele>
        <time>2023-04-06T12:22:51Z</time>
      </trkpt>
      <trkpt lat="49.86607" lon="2.33483">
        <ele>48.5</ele>
        <time>2023-04-06T12:22:52Z</time>
      </trkpt>
      <trkpt lat="49.86606" lon="2.33482">
        <ele>48.6</ele>
        <time>2023-04-06T12:22:53Z</time>
      </trkpt>
      <trkpt lat="49.86606" lon="2.3348">
        <ele>48.6</ele>
        <time>2023-04-06T12:22:54Z</time>
      </trkpt>
      <trkpt lat="49.86606" lon="2.33478">
        <ele>48.7</ele>
        <time>2023-04-06T12:22:55Z</time>
      </trkpt>
      <trkpt lat="49.86605" lon="2.33475">
        <ele>48.7</ele>
        <time>2023-04-06T12:22:56Z</time>
      </trkpt>
      <trkpt lat="49.86605" lon="2.33473">
        <ele>48.8</ele>
        <time>2023-04-06T12:22:58Z</time>
      </trkpt>
      <trkpt lat="49.86604" lon="2.33471">
        <ele>48.9</ele>
        <time>2023-04-06T12:22:59Z</time>
      </trkpt>
      <trkpt lat="49.86603" lon="2.33469">
        <ele>49</ele>
        <time>2023-04-06T12:23:00Z</time>
      </trkpt>
      <trkpt lat="49.86603" lon="2.33466">
        <ele>49</ele>
        <time>2023-04-06T12:23:01Z</time>
      </trkpt>
      <trkpt lat="49.86602" lon="2.33464">
        <ele>49.1</ele>
        <time>2023-04-06T12:23:02Z</time>
      </trkpt>
      <trkpt lat="49.86602" lon="2.33462">
        <ele>49.2</ele>
        <time>2023-04-06T12:23:03Z</time>
      </trkpt>
      <trkpt lat="49.86602" lon="2.33459">
        <ele>49.2</ele>
        <time>2023-04-06T12:23:04Z</time>
      </trkpt>
      <trkpt lat="49.86601" lon="2.33458">
        <ele>49.3</ele>
        <time>2023-04-06T12:23:05Z</time>
      </trkpt>
      <trkpt lat="49.86601" lon="2.33456">
        <ele>49.3</ele>
        <time>2023-04-06T12:23:06Z</time>
      </trkpt>
      <trkpt lat="49.86601" lon="2.33453">
        <ele>49.4</ele>
        <time>2023-04-06T12:23:08Z</time>
      </trkpt>
      <trkpt lat="49.866" lon="2.33451">
        <ele>49.5</ele>
        <time>2023-04-06T12:23:09Z</time>
      </trkpt>
      <trkpt lat="49.866" lon="2.33449">
        <ele>49.5</ele>
        <time>2023-04-06T12:23:10Z</time>
      </trkpt>
      <trkpt lat="49.86599" lon="2.33445">
        <ele>49.7</ele>
        <time>2023-04-06T12:23:11Z</time>
      </trkpt>
      <trkpt lat="49.86599" lon="2.33444">
        <ele>49.7</ele>
        <time>2023-04-06T12:23:13Z</time>
      </trkpt>
      <trkpt lat="49.86599" lon="2.33442">
        <ele>49.8</ele>
        <time>2023-04-06T12:23:14Z</time>
      </trkpt>
      <trkpt lat="49.86598" lon="2.33441">
        <ele>49.8</ele>
        <time>2023-04-06T12:23:15Z</time>
      </trkpt>
      <trkpt lat="49.86598" lon="2.33439">
        <ele>49.8</ele>
        <time>2023-04-06T12:23:16Z</time>
      </trkpt>
      <trkpt lat="49.86598" lon="2.33437">
        <ele>49.9</ele>
        <time>2023-04-06T12:23:17Z</time>
      </trkpt>
      <trkpt lat="49.86598" lon="2.33436">
        <ele>50</ele>
        <time>2023-04-06T12:23:18Z</time>
      </trkpt>
      <trkpt lat="49.86597" lon="2.33434">
        <ele>50</ele>
        <time>2023-04-06T12:23:19Z</time>
      </trkpt>
      <trkpt lat="49.86597" lon="2.33431">
        <ele>50.1</ele>
        <time>2023-04-06T12:23:20Z</time>
      </trkpt>
      <trkpt lat="49.86596" lon="2.33429">
        <ele>50.2</ele>
        <time>2023-04-06T12:23:22Z</time>
      </trkpt>
      <trkpt lat="49.86595" lon="2.33427">
        <ele>50.2</ele>
        <time>2023-04-06T12:23:23Z</time>
      </trkpt>
      <trkpt lat="49.86595" lon="2.33425">
        <ele>50.3</ele>
        <time>2023-04-06T12:23:24Z</time>
      </trkpt>
      <trkpt lat="49.86594" lon="2.33423">
        <ele>50.4</ele>
        <time>2023-04-06T12:23:25Z</time>
      </trkpt>
      <trkpt lat="49.86594" lon="2.33421">
        <ele>50.4</ele>
        <time>2023-04-06T12:23:26Z</time>
      </trkpt>
      <trkpt lat="49.86593" lon="2.33419">
        <ele>50.5</ele>
        <time>2023-04-06T12:23:27Z</time>
      </trkpt>
      <trkpt lat="49.86593" lon="2.33418">
        <ele>50.5</ele>
        <time>2023-04-06T12:23:28Z</time>
      </trkpt>
      <trkpt lat="49.86593" lon="2.33416">
        <ele>50.6</ele>
        <time>2023-04-06T12:23:29Z</time>
      </trkpt>
      <trkpt lat="49.86592" lon="2.33413">
        <ele>50.7</ele>
        <time>2023-04-06T12:23:31Z</time>
      </trkpt>
      <trkpt lat="49.86592" lon="2.33412">
        <ele>50.7</ele>
        <time>2023-04-06T12:23:32Z</time>
      </trkpt>
      <trkpt lat="49.86592" lon="2.33411">
        <ele>50.7</ele>
        <time>2023-04-06T12:23:33Z</time>
      </trkpt>
      <trkpt lat="49.86592" lon="2.33409">
        <ele>50.8</ele>
        <time>2023-04-06T12:23:34Z</time>
      </trkpt>
      <trkpt lat="49.86591" lon="2.33407">
        <ele>50.8</ele>
        <time>2023-04-06T12:23:35Z</time>
      </trkpt>
      <trkpt lat="49.86591" lon="2.33407">
        <ele>50.9</ele>
        <time>2023-04-06T12:23:37Z</time>
      </trkpt>
      <trkpt lat="49.86591" lon="2.33405">
        <ele>50.9</ele>
        <time>2023-04-06T12:23:38Z</time>
      </trkpt>
      <trkpt lat="49.86591" lon="2.33404">
        <ele>51</ele>
        <time>2023-04-06T12:23:39Z</time>
      </trkpt>
      <trkpt lat="49.86592" lon="2.33403">
        <ele>51</ele>
        <time>2023-04-06T12:23:40Z</time>
      </trkpt>
      <trkpt lat="49.86592" lon="2.33401">
        <ele>51</ele>
        <time>2023-04-06T12:23:41Z</time>
      </trkpt>
      <trkpt lat="49.86591" lon="2.334">
        <ele>51.1</ele>
        <time>2023-04-06T12:23:42Z</time>
      </trkpt>
      <trkpt lat="49.86591" lon="2.33397">
        <ele>51.2</ele>
        <time>2023-04-06T12:23:43Z</time>
      </trkpt>
      <trkpt lat="49.86591" lon="2.33395">
        <ele>51.2</ele>
        <time>2023-04-06T12:23:44Z</time>
      </trkpt>
      <trkpt lat="49.86591" lon="2.33394">
        <ele>51.2</ele>
        <time>2023-04-06T12:23:46Z</time>
      </trkpt>
      <trkpt lat="49.86591" lon="2.33392">
        <ele>51.3</ele>
        <time>2023-04-06T12:23:47Z</time>
      </trkpt>
      <trkpt lat="49.86591" lon="2.33391">
        <ele>51.3</ele>
        <time>2023-04-06T12:23:48Z</time>
      </trkpt>
      <trkpt lat="49.8659" lon="2.33389">
        <ele>51.4</ele>
        <time>2023-04-06T12:23:49Z</time>
      </trkpt>
      <trkpt lat="49.86591" lon="2.33387">
        <ele>51.5</ele>
        <time>2023-04-06T12:23:50Z</time>
      </trkpt>
      <trkpt lat="49.86591" lon="2.33386">
        <ele>51.5</ele>
        <time>2023-04-06T12:23:51Z</time>
      </trkpt>
      <trkpt lat="49.86591" lon="2.33384">
        <ele>51.5</ele>
        <time>2023-04-06T12:23:53Z</time>
      </trkpt>
      <trkpt lat="49.86591" lon="2.33384">
        <ele>51.6</ele>
        <time>2023-04-06T12:23:54Z</time>
      </trkpt>
      <trkpt lat="49.86592" lon="2.33383">
        <ele>51.6</ele>
        <time>2023-04-06T12:23:55Z</time>
      </trkpt>
      <trkpt lat="49.86592" lon="2.33382">
        <ele>51.6</ele>
        <time>2023-04-06T12:23:57Z</time>
      </trkpt>
      <trkpt lat="49.86592" lon="2.33381">
        <ele>51.6</ele>
        <time>2023-04-06T12:23:58Z</time>
      </trkpt>
      <trkpt lat="49.86592" lon="2.3338">
        <ele>51.7</ele>
        <time>2023-04-06T12:24:00Z</time>
      </trkpt>
      <trkpt lat="49.86592" lon="2.3338">
        <ele>51.7</ele>
        <time>2023-04-06T12:24:01Z</time>
      </trkpt>
      <trkpt lat="49.86592" lon="2.3338">
        <ele>51.7</ele>
        <time>2023-04-06T12:24:02Z</time>
      </trkpt>
      <trkpt lat="49.86592" lon="2.3338">
        <ele>51.7</ele>
        <time>2023-04-06T12:24:04Z</time>
      </trkpt>
      <trkpt lat="49.86592" lon="2.3338">
        <ele>51.7</ele>
        <time>2023-04-06T12:24:05Z</time>
      </trkpt>
      <trkpt lat="49.86592" lon="2.3338">
        <ele>51.7</ele>
        <time>2023-04-06T12:24:06Z</time>
      </trkpt>
      <trkpt lat="49.86592" lon="2.3338">
        <ele>51.7</ele>
        <time>2023-04-06T12:24:08Z</time>
      </trkpt>
      <trkpt lat="49.86592" lon="2.3338">
        <ele>51.7</ele>
        <time>2023-04-06T12:24:09Z</time>
      </trkpt>
      <trkpt lat="49.86592" lon="2.33381">
        <ele>51.8</ele>
        <time>2023-04-06T12:24:11Z</time>
      </trkpt>
      <trkpt lat="49.86592" lon="2.33381">
        <ele>51.8</ele>
        <time>2023-04-06T12:24:12Z</time>
      </trkpt>
      <trkpt lat="49.86592" lon="2.33381">
        <ele>51.8</ele>
        <time>2023-04-06T12:24:13Z</time>
      </trkpt>
      <trkpt lat="49.86592" lon="2.33381">
        <ele>51.8</ele>
        <time>2023-04-06T12:24:14Z</time>
      </trkpt>
      <trkpt lat="49.86593" lon="2.33381">
        <ele>51.8</ele>
        <time>2023-04-06T12:24:15Z</time>
      </trkpt>
      <trkpt lat="49.86593" lon="2.33381">
        <ele>51.8</ele>
        <time>2023-04-06T12:24:16Z</time>
      </trkpt>
      <trkpt lat="49.86593" lon="2.33381">
        <ele>51.8</ele>
        <time>2023-04-06T12:24:17Z</time>
      </trkpt>
      <trkpt lat="49.86593" lon="2.33381">
        <ele>51.8</ele>
        <time>2023-04-06T12:24:18Z</time>
      </trkpt>
      <trkpt lat="49.86593" lon="2.33381">
        <ele>51.8</ele>
        <time>2023-04-06T12:24:19Z</time>
      </trkpt>
      <trkpt lat="49.86593" lon="2.33382">
        <ele>51.8</ele>
        <time>2023-04-06T12:24:20Z</time>
      </trkpt>
      <trkpt lat="49.86593" lon="2.33382">
        <ele>51.8</ele>
        <time>2023-04-06T12:24:21Z</time>
      </trkpt>
      <trkpt lat="49.86593" lon="2.33382">
        <ele>51.8</ele>
        <time>2023-04-06T12:24:22Z</time>
      </trkpt>
      <trkpt lat="49.86593" lon="2.33381">
        <ele>51.8</ele>
        <time>2023-04-06T12:24:23Z</time>
      </trkpt>
      <trkpt lat="49.86593" lon="2.33381">
        <ele>51.9</ele>
        <time>2023-04-06T12:24:24Z</time>
      </trkpt>
      <trkpt lat="49.86593" lon="2.33381">
        <ele>51.9</ele>
        <time>2023-04-06T12:24:25Z</time>
      </trkpt>
      <trkpt lat="49.86593" lon="2.33381">
        <ele>51.9</ele>
        <time>2023-04-06T12:24:26Z</time>
      </trkpt>
      <trkpt lat="49.86593" lon="2.33381">
        <ele>51.9</ele>
        <time>2023-04-06T12:24:27Z</time>
      </trkpt>
      <trkpt lat="49.86593" lon="2.33381">
        <ele>51.9</ele>
        <time>2023-04-06T12:24:28Z</time>
      </trkpt>
      <trkpt lat="49.86593" lon="2.33381">
        <ele>51.9</ele>
        <time>2023-04-06T12:24:29Z</time>
      </trkpt>
      <trkpt lat="49.86593" lon="2.33381">
        <ele>51.9</ele>
        <time>2023-04-06T12:24:30Z</time>
      </trkpt>
      <trkpt lat="49.86593" lon="2.33381">
        <ele>51.9</ele>
        <time>2023-04-06T12:24:31Z</time>
      </trkpt>
      <trkpt lat="49.86593" lon="2.33381">
        <ele>51.9</ele>
        <time>2023-04-06T12:24:32Z</time>
      </trkpt>
      <trkpt lat="49.86593" lon="2.33381">
        <ele>51.9</ele>
        <time>2023-04-06T12:24:33Z</time>
      </trkpt>
      <trkpt lat="49.86593" lon="2.33381">
        <ele>51.9</ele>
        <time>2023-04-06T12:24:34Z</time>
      </trkpt>
      <trkpt lat="49.86593" lon="2.33381">
        <ele>51.9</ele>
        <time>2023-04-06T12:24:35Z</time>
      </trkpt>
      <trkpt lat="49.86593" lon="2.33381">
        <ele>51.9</ele>
        <time>2023-04-06T12:24:36Z</time>
      </trkpt>
      <trkpt lat="49.86593" lon="2.33381">
        <ele>51.9</ele>
        <time>2023-04-06T12:24:37Z</time>
      </trkpt>
      <trkpt lat="49.86593" lon="2.33381">
        <ele>51.9</ele>
        <time>2023-04-06T12:24:38Z</time>
      </trkpt>
      <trkpt lat="49.86593" lon="2.33381">
        <ele>51.9</ele>
        <time>2023-04-06T12:24:39Z</time>
      </trkpt>
      <trkpt lat="49.86593" lon="2.33381">
        <ele>51.9</ele>
        <time>2023-04-06T12:24:40Z</time>
      </trkpt>
      <trkpt lat="49.86593" lon="2.33381">
        <ele>51.9</ele>
        <time>2023-04-06T12:24:41Z</time>
      </trkpt>
      <trkpt lat="49.86593" lon="2.33381">
        <ele>51.9</ele>
        <time>2023-04-06T12:24:42Z</time>
      </trkpt>
      <trkpt lat="49.86593" lon="2.33381">
        <ele>51.9</ele>
        <time>2023-04-06T12:24:43Z</time>
      </trkpt>
      <trkpt lat="49.86593" lon="2.33381">
        <ele>51.9</ele>
        <time>2023-04-06T12:24:44Z</time>
      </trkpt>
      <trkpt lat="49.86593" lon="2.33381">
        <ele>51.9</ele>
        <time>2023-04-06T12:24:45Z</time>
      </trkpt>
      <trkpt lat="49.86593" lon="2.33381">
        <ele>51.9</ele>
        <time>2023-04-06T12:24:46Z</time>
      </trkpt>
      <trkpt lat="49.86593" lon="2.33381">
        <ele>51.9</ele>
        <time>2023-04-06T12:24:47Z</time>
      </trkpt>
      <trkpt lat="49.86593" lon="2.33381">
        <ele>51.9</ele>
        <time>2023-04-06T12:24:48Z</time>
      </trkpt>
      <trkpt lat="49.86593" lon="2.33381">
        <ele>51.9</ele>
        <time>2023-04-06T12:24:49Z</time>
      </trkpt>
      <trkpt lat="49.86593" lon="2.33381">
        <ele>51.9</ele>
        <time>2023-04-06T12:24:50Z</time>
      </trkpt>
      <trkpt lat="49.86593" lon="2.33381">
        <ele>51.9</ele>
        <time>2023-04-06T12:24:51Z</time>
      </trkpt>
      <trkpt lat="49.86593" lon="2.33381">
        <ele>51.9</ele>
        <time>2023-04-06T12:24:52Z</time>
      </trkpt>
      <trkpt lat="49.86593" lon="2.33381">
        <ele>51.9</ele>
        <time>2023-04-06T12:24:53Z</time>
      </trkpt>
      <trkpt lat="49.86593" lon="2.33381">
        <ele>51.9</ele>
        <time>2023-04-06T12:24:54Z</time>
      </trkpt>
      <trkpt lat="49.86593" lon="2.33381">
        <ele>51.9</ele>
        <time>2023-04-06T12:24:55Z</time>
      </trkpt>
      <trkpt lat="49.86593" lon="2.33381">
        <ele>51.9</ele>
        <time>2023-04-06T12:24:56Z</time>
      </trkpt>
      <trkpt lat="49.86593" lon="2.33381">
        <ele>51.9</ele>
        <time>2023-04-06T12:24:57Z</time>
      </trkpt>
      <trkpt lat="49.86593" lon="2.33381">
        <ele>51.9</ele>
        <time>2023-04-06T12:24:58Z</time>
      </trkpt>
      <trkpt lat="49.86593" lon="2.33381">
        <ele>51.9</ele>
        <time>2023-04-06T12:24:59Z</time>
      </trkpt>
      <trkpt lat="49.86593" lon="2.33381">
        <ele>51.9</ele>
        <time>2023-04-06T12:25:00Z</time>
      </trkpt>
      <trkpt lat="49.86593" lon="2.33381">
        <ele>51.9</ele>
        <time>2023-04-06T12:25:01Z</time>
      </trkpt>
      <trkpt lat="49.86593" lon="2.33381">
        <ele>51.9</ele>
        <time>2023-04-06T12:25:02Z</time>
      </trkpt>
      <trkpt lat="49.86593" lon="2.33381">
        <ele>51.9</ele>
        <time>2023-04-06T12:25:03Z</time>
      </trkpt>
      <trkpt lat="49.86593" lon="2.33381">
        <ele>51.9</ele>
        <time>2023-04-06T12:25:04Z</time>
      </trkpt>
      <trkpt lat="49.86593" lon="2.33381">
        <ele>51.9</ele>
        <time>2023-04-06T12:25:05Z</time>
      </trkpt>
      <trkpt lat="49.86593" lon="2.33381">
        <ele>51.9</ele>
        <time>2023-04-06T12:25:06Z</time>
      </trkpt>
      <trkpt lat="49.86593" lon="2.33381">
        <ele>51.9</ele>
        <time>2023-04-06T12:25:07Z</time>
      </trkpt>
      <trkpt lat="49.86593" lon="2.33381">
        <ele>51.9</ele>
        <time>2023-04-06T12:25:08Z</time>
      </trkpt>
      <trkpt lat="49.86593" lon="2.33381">
        <ele>51.9</ele>
        <time>2023-04-06T12:25:09Z</time>
      </trkpt>
      <trkpt lat="49.86593" lon="2.33381">
        <ele>51.9</ele>
        <time>2023-04-06T12:25:10Z</time>
      </trkpt>
      <trkpt lat="49.86593" lon="2.33381">
        <ele>51.9</ele>
        <time>2023-04-06T12:25:11Z</time>
      </trkpt>
      <trkpt lat="49.86593" lon="2.33381">
        <ele>51.9</ele>
        <time>2023-04-06T12:25:12Z</time>
      </trkpt>
      <trkpt lat="49.86593" lon="2.33381">
        <ele>51.9</ele>
        <time>2023-04-06T12:25:13Z</time>
      </trkpt>
      <trkpt lat="49.86593" lon="2.33381">
        <ele>51.9</ele>
        <time>2023-04-06T12:25:14Z</time>
      </trkpt>
      <trkpt lat="49.86593" lon="2.33381">
        <ele>51.9</ele>
        <time>2023-04-06T12:25:15Z</time>
      </trkpt>
      <trkpt lat="49.86593" lon="2.33381">
        <ele>51.9</ele>
        <time>2023-04-06T12:25:16Z</time>
      </trkpt>
      <trkpt lat="49.86593" lon="2.33381">
        <ele>51.9</ele>
        <time>2023-04-06T12:25:17Z</time>
      </trkpt>
      <trkpt lat="49.86593" lon="2.33381">
        <ele>51.9</ele>
        <time>2023-04-06T12:25:18Z</time>
      </trkpt>
      <trkpt lat="49.86593" lon="2.33381">
        <ele>51.9</ele>
        <time>2023-04-06T12:25:19Z</time>
      </trkpt>
      <trkpt lat="49.86593" lon="2.33381">
        <ele>51.9</ele>
        <time>2023-04-06T12:25:20Z</time>
      </trkpt>
      <trkpt lat="49.86593" lon="2.33381">
        <ele>51.9</ele>
        <time>2023-04-06T12:25:21Z</time>
      </trkpt>
      <trkpt lat="49.86593" lon="2.33381">
        <ele>51.9</ele>
        <time>2023-04-06T12:25:23Z</time>
      </trkpt>
      <trkpt lat="49.86593" lon="2.33381">
        <ele>51.9</ele>
        <time>2023-04-06T12:25:24Z</time>
      </trkpt>
      <trkpt lat="49.86593" lon="2.33381">
        <ele>51.9</ele>
        <time>2023-04-06T12:25:25Z</time>
      </trkpt>
      <trkpt lat="49.86593" lon="2.33381">
        <ele>51.9</ele>
        <time>2023-04-06T12:25:26Z</time>
      </trkpt>
      <trkpt lat="49.86593" lon="2.33381">
        <ele>51.9</ele>
        <time>2023-04-06T12:25:27Z</time>
      </trkpt>
      <trkpt lat="49.86593" lon="2.33381">
        <ele>51.9</ele>
        <time>2023-04-06T12:25:28Z</time>
      </trkpt>
      <trkpt lat="49.86593" lon="2.33381">
        <ele>51.9</ele>
        <time>2023-04-06T12:25:29Z</time>
      </trkpt>
      <trkpt lat="49.86593" lon="2.33381">
        <ele>51.9</ele>
        <time>2023-04-06T12:25:30Z</time>
      </trkpt>
      <trkpt lat="49.86593" lon="2.33381">
        <ele>51.9</ele>
        <time>2023-04-06T12:25:31Z</time>
      </trkpt>
      <trkpt lat="49.86593" lon="2.33381">
        <ele>51.9</ele>
        <time>2023-04-06T12:25:32Z</time>
      </trkpt>
      <trkpt lat="49.86593" lon="2.33381">
        <ele>51.9</ele>
        <time>2023-04-06T12:25:33Z</time>
      </trkpt>
      <trkpt lat="49.86593" lon="2.33381">
        <ele>51.9</ele>
        <time>2023-04-06T12:25:34Z</time>
      </trkpt>
      <trkpt lat="49.86593" lon="2.33381">
        <ele>51.9</ele>
        <time>2023-04-06T12:25:35Z</time>
      </trkpt>
      <trkpt lat="49.86593" lon="2.33381">
        <ele>51.9</ele>
        <time>2023-04-06T12:25:36Z</time>
      </trkpt>
      <trkpt lat="49.86593" lon="2.33381">
        <ele>51.9</ele>
        <time>2023-04-06T12:25:37Z</time>
      </trkpt>
      <trkpt lat="49.86593" lon="2.33381">
        <ele>51.9</ele>
        <time>2023-04-06T12:25:38Z</time>
      </trkpt>
      <trkpt lat="49.86593" lon="2.33381">
        <ele>51.9</ele>
        <time>2023-04-06T12:25:39Z</time>
      </trkpt>
      <trkpt lat="49.86593" lon="2.33381">
        <ele>51.9</ele>
        <time>2023-04-06T12:25:40Z</time>
      </trkpt>
      <trkpt lat="49.86593" lon="2.33381">
        <ele>51.9</ele>
        <time>2023-04-06T12:25:41Z</time>
      </trkpt>
      <trkpt lat="49.86593" lon="2.33381">
        <ele>51.9</ele>
        <time>2023-04-06T12:25:42Z</time>
      </trkpt>
      <trkpt lat="49.86593" lon="2.33381">
        <ele>51.9</ele>
        <time>2023-04-06T12:25:43Z</time>
      </trkpt>
      <trkpt lat="49.86593" lon="2.33381">
        <ele>51.9</ele>
        <time>2023-04-06T12:25:44Z</time>
      </trkpt>
      <trkpt lat="49.86593" lon="2.33381">
        <ele>51.9</ele>
        <time>2023-04-06T12:25:45Z</time>
      </trkpt>
      <trkpt lat="49.86593" lon="2.33381">
        <ele>51.9</ele>
        <time>2023-04-06T12:25:46Z</time>
      </trkpt>
      <trkpt lat="49.86593" lon="2.33381">
        <ele>51.9</ele>
        <time>2023-04-06T12:25:47Z</time>
      </trkpt>
      <trkpt lat="49.86593" lon="2.33381">
        <ele>51.9</ele>
        <time>2023-04-06T12:25:48Z</time>
      </trkpt>
      <trkpt lat="49.86593" lon="2.33381">
        <ele>51.9</ele>
        <time>2023-04-06T12:25:49Z</time>
      </trkpt>
      <trkpt lat="49.86593" lon="2.33381">
        <ele>51.9</ele>
        <time>2023-04-06T12:25:50Z</time>
      </trkpt>
      <trkpt lat="49.86593" lon="2.33381">
        <ele>51.9</ele>
        <time>2023-04-06T12:25:51Z</time>
      </trkpt>
      <trkpt lat="49.86593" lon="2.33381">
        <ele>51.9</ele>
        <time>2023-04-06T12:25:52Z</time>
      </trkpt>
      <trkpt lat="49.86593" lon="2.33381">
        <ele>51.9</ele>
        <time>2023-04-06T12:25:53Z</time>
      </trkpt>
      <trkpt lat="49.86593" lon="2.3338">
        <ele>51.9</ele>
        <time>2023-04-06T12:25:54Z</time>
      </trkpt>
      <trkpt lat="49.86593" lon="2.33379">
        <ele>51.9</ele>
        <time>2023-04-06T12:25:55Z</time>
      </trkpt>
      <trkpt lat="49.86593" lon="2.33378">
        <ele>52</ele>
        <time>2023-04-06T12:25:56Z</time>
      </trkpt>
      <trkpt lat="49.86593" lon="2.33377">
        <ele>52</ele>
        <time>2023-04-06T12:25:57Z</time>
      </trkpt>
      <trkpt lat="49.86592" lon="2.33377">
        <ele>52</ele>
        <time>2023-04-06T12:25:58Z</time>
      </trkpt>
      <trkpt lat="49.86592" lon="2.33376">
        <ele>52</ele>
        <time>2023-04-06T12:25:59Z</time>
      </trkpt>
      <trkpt lat="49.86592" lon="2.33376">
        <ele>52</ele>
        <time>2023-04-06T12:26:00Z</time>
      </trkpt>
      <trkpt lat="49.86592" lon="2.33375">
        <ele>52.1</ele>
        <time>2023-04-06T12:26:02Z</time>
      </trkpt>
      <trkpt lat="49.86592" lon="2.33373">
        <ele>52.1</ele>
        <time>2023-04-06T12:26:03Z</time>
      </trkpt>
      <trkpt lat="49.86592" lon="2.33372">
        <ele>52.2</ele>
        <time>2023-04-06T12:26:04Z</time>
      </trkpt>
      <trkpt lat="49.86592" lon="2.33371">
        <ele>52.2</ele>
        <time>2023-04-06T12:26:05Z</time>
      </trkpt>
      <trkpt lat="49.86592" lon="2.33367">
        <ele>52.3</ele>
        <time>2023-04-06T12:26:06Z</time>
      </trkpt>
      <trkpt lat="49.86591" lon="2.33364">
        <ele>52.4</ele>
        <time>2023-04-06T12:26:07Z</time>
      </trkpt>
      <trkpt lat="49.86591" lon="2.33361">
        <ele>52.5</ele>
        <time>2023-04-06T12:26:09Z</time>
      </trkpt>
      <trkpt lat="49.86591" lon="2.3336">
        <ele>52.5</ele>
        <time>2023-04-06T12:26:10Z</time>
      </trkpt>
      <trkpt lat="49.86591" lon="2.33358">
        <ele>52.6</ele>
        <time>2023-04-06T12:26:11Z</time>
      </trkpt>
      <trkpt lat="49.8659" lon="2.33354">
        <ele>52.7</ele>
        <time>2023-04-06T12:26:12Z</time>
      </trkpt>
      <trkpt lat="49.86589" lon="2.33353">
        <ele>52.7</ele>
        <time>2023-04-06T12:26:13Z</time>
      </trkpt>
      <trkpt lat="49.86588" lon="2.33352">
        <ele>52.8</ele>
        <time>2023-04-06T12:26:14Z</time>
      </trkpt>
      <trkpt lat="49.86587" lon="2.3335">
        <ele>52.9</ele>
        <time>2023-04-06T12:26:16Z</time>
      </trkpt>
      <trkpt lat="49.86587" lon="2.33348">
        <ele>52.9</ele>
        <time>2023-04-06T12:26:17Z</time>
      </trkpt>
      <trkpt lat="49.86586" lon="2.33345">
        <ele>53</ele>
        <time>2023-04-06T12:26:18Z</time>
      </trkpt>
      <trkpt lat="49.86586" lon="2.33343">
        <ele>53.1</ele>
        <time>2023-04-06T12:26:19Z</time>
      </trkpt>
      <trkpt lat="49.86585" lon="2.33341">
        <ele>53.2</ele>
        <time>2023-04-06T12:26:20Z</time>
      </trkpt>
      <trkpt lat="49.86585" lon="2.33339">
        <ele>53.2</ele>
        <time>2023-04-06T12:26:22Z</time>
      </trkpt>
      <trkpt lat="49.86584" lon="2.33337">
        <ele>53.3</ele>
        <time>2023-04-06T12:26:23Z</time>
      </trkpt>
      <trkpt lat="49.86584" lon="2.33336">
        <ele>53.3</ele>
        <time>2023-04-06T12:26:24Z</time>
      </trkpt>
      <trkpt lat="49.86584" lon="2.33334">
        <ele>53.4</ele>
        <time>2023-04-06T12:26:25Z</time>
      </trkpt>
      <trkpt lat="49.86584" lon="2.33332">
        <ele>53.4</ele>
        <time>2023-04-06T12:26:26Z</time>
      </trkpt>
      <trkpt lat="49.86583" lon="2.33329">
        <ele>53.5</ele>
        <time>2023-04-06T12:26:27Z</time>
      </trkpt>
      <trkpt lat="49.86583" lon="2.33329">
        <ele>53.6</ele>
        <time>2023-04-06T12:26:28Z</time>
      </trkpt>
      <trkpt lat="49.86582" lon="2.33327">
        <ele>53.6</ele>
        <time>2023-04-06T12:26:30Z</time>
      </trkpt>
      <trkpt lat="49.86581" lon="2.33324">
        <ele>53.7</ele>
        <time>2023-04-06T12:26:31Z</time>
      </trkpt>
      <trkpt lat="49.86581" lon="2.33322">
        <ele>53.8</ele>
        <time>2023-04-06T12:26:32Z</time>
      </trkpt>
      <trkpt lat="49.86581" lon="2.33321">
        <ele>53.8</ele>
        <time>2023-04-06T12:26:33Z</time>
      </trkpt>
      <trkpt lat="49.8658" lon="2.33319">
        <ele>53.9</ele>
        <time>2023-04-06T12:26:34Z</time>
      </trkpt>
      <trkpt lat="49.8658" lon="2.33317">
        <ele>53.9</ele>
        <time>2023-04-06T12:26:35Z</time>
      </trkpt>
      <trkpt lat="49.86579" lon="2.33315">
        <ele>54</ele>
        <time>2023-04-06T12:26:37Z</time>
      </trkpt>
      <trkpt lat="49.8658" lon="2.33312">
        <ele>54.1</ele>
        <time>2023-04-06T12:26:38Z</time>
      </trkpt>
      <trkpt lat="49.8658" lon="2.33311">
        <ele>54.1</ele>
        <time>2023-04-06T12:26:39Z</time>
      </trkpt>
      <trkpt lat="49.86579" lon="2.33308">
        <ele>54.2</ele>
        <time>2023-04-06T12:26:40Z</time>
      </trkpt>
      <trkpt lat="49.86578" lon="2.33306">
        <ele>54.3</ele>
        <time>2023-04-06T12:26:41Z</time>
      </trkpt>
      <trkpt lat="49.86578" lon="2.33304">
        <ele>54.4</ele>
        <time>2023-04-06T12:26:42Z</time>
      </trkpt>
      <trkpt lat="49.86577" lon="2.33302">
        <ele>54.4</ele>
        <time>2023-04-06T12:26:43Z</time>
      </trkpt>
      <trkpt lat="49.86577" lon="2.333">
        <ele>54.5</ele>
        <time>2023-04-06T12:26:45Z</time>
      </trkpt>
      <trkpt lat="49.86577" lon="2.33299">
        <ele>54.5</ele>
        <time>2023-04-06T12:26:46Z</time>
      </trkpt>
      <trkpt lat="49.86577" lon="2.33297">
        <ele>54.6</ele>
        <time>2023-04-06T12:26:47Z</time>
      </trkpt>
      <trkpt lat="49.86575" lon="2.33294">
        <ele>54.7</ele>
        <time>2023-04-06T12:26:48Z</time>
      </trkpt>
      <trkpt lat="49.86575" lon="2.33291">
        <ele>54.8</ele>
        <time>2023-04-06T12:26:49Z</time>
      </trkpt>
      <trkpt lat="49.86575" lon="2.33289">
        <ele>54.8</ele>
        <time>2023-04-06T12:26:50Z</time>
      </trkpt>
      <trkpt lat="49.86574" lon="2.33288">
        <ele>54.8</ele>
        <time>2023-04-06T12:26:51Z</time>
      </trkpt>
      <trkpt lat="49.86572" lon="2.33285">
        <ele>55</ele>
        <time>2023-04-06T12:26:53Z</time>
      </trkpt>
      <trkpt lat="49.86572" lon="2.33284">
        <ele>55</ele>
        <time>2023-04-06T12:26:54Z</time>
      </trkpt>
      <trkpt lat="49.86571" lon="2.33283">
        <ele>55</ele>
        <time>2023-04-06T12:26:55Z</time>
      </trkpt>
      <trkpt lat="49.86571" lon="2.33281">
        <ele>55.1</ele>
        <time>2023-04-06T12:26:56Z</time>
      </trkpt>
      <trkpt lat="49.86571" lon="2.33278">
        <ele>55.2</ele>
        <time>2023-04-06T12:26:58Z</time>
      </trkpt>
      <trkpt lat="49.86571" lon="2.33275">
        <ele>55.3</ele>
        <time>2023-04-06T12:26:59Z</time>
      </trkpt>
      <trkpt lat="49.86572" lon="2.33274">
        <ele>55.3</ele>
        <time>2023-04-06T12:27:00Z</time>
      </trkpt>
      <trkpt lat="49.86572" lon="2.33272">
        <ele>55.3</ele>
        <time>2023-04-06T12:27:01Z</time>
      </trkpt>
      <trkpt lat="49.86572" lon="2.3327">
        <ele>55.4</ele>
        <time>2023-04-06T12:27:02Z</time>
      </trkpt>
      <trkpt lat="49.86573" lon="2.33268">
        <ele>55.5</ele>
        <time>2023-04-06T12:27:03Z</time>
      </trkpt>
      <trkpt lat="49.86574" lon="2.33265">
        <ele>55.6</ele>
        <time>2023-04-06T12:27:05Z</time>
      </trkpt>
      <trkpt lat="49.86574" lon="2.33263">
        <ele>55.6</ele>
        <time>2023-04-06T12:27:06Z</time>
      </trkpt>
      <trkpt lat="49.86574" lon="2.33261">
        <ele>55.7</ele>
        <time>2023-04-06T12:27:07Z</time>
      </trkpt>
      <trkpt lat="49.86574" lon="2.33258">
        <ele>55.8</ele>
        <time>2023-04-06T12:27:09Z</time>
      </trkpt>
      <trkpt lat="49.86575" lon="2.33257">
        <ele>55.8</ele>
        <time>2023-04-06T12:27:10Z</time>
      </trkpt>
      <trkpt lat="49.86575" lon="2.33256">
        <ele>55.8</ele>
        <time>2023-04-06T12:27:11Z</time>
      </trkpt>
      <trkpt lat="49.86575" lon="2.33254">
        <ele>55.9</ele>
        <time>2023-04-06T12:27:12Z</time>
      </trkpt>
      <trkpt lat="49.86576" lon="2.33253">
        <ele>55.9</ele>
        <time>2023-04-06T12:27:13Z</time>
      </trkpt>
      <trkpt lat="49.86576" lon="2.33251">
        <ele>56</ele>
        <time>2023-04-06T12:27:14Z</time>
      </trkpt>
      <trkpt lat="49.86576" lon="2.33249">
        <ele>56</ele>
        <time>2023-04-06T12:27:15Z</time>
      </trkpt>
      <trkpt lat="49.86576" lon="2.33246">
        <ele>56.1</ele>
        <time>2023-04-06T12:27:16Z</time>
      </trkpt>
      <trkpt lat="49.86576" lon="2.33244">
        <ele>56.2</ele>
        <time>2023-04-06T12:27:18Z</time>
      </trkpt>
      <trkpt lat="49.86576" lon="2.33242">
        <ele>56.2</ele>
        <time>2023-04-06T12:27:19Z</time>
      </trkpt>
      <trkpt lat="49.86576" lon="2.33238">
        <ele>56.3</ele>
        <time>2023-04-06T12:27:20Z</time>
      </trkpt>
      <trkpt lat="49.86576" lon="2.33236">
        <ele>56.3</ele>
        <time>2023-04-06T12:27:21Z</time>
      </trkpt>
      <trkpt lat="49.86576" lon="2.33235">
        <ele>56.4</ele>
        <time>2023-04-06T12:27:22Z</time>
      </trkpt>
      <trkpt lat="49.86576" lon="2.33233">
        <ele>56.4</ele>
        <time>2023-04-06T12:27:23Z</time>
      </trkpt>
      <trkpt lat="49.86576" lon="2.33232">
        <ele>56.5</ele>
        <time>2023-04-06T12:27:25Z</time>
      </trkpt>
      <trkpt lat="49.86576" lon="2.3323">
        <ele>56.5</ele>
        <time>2023-04-06T12:27:26Z</time>
      </trkpt>
      <trkpt lat="49.86576" lon="2.33227">
        <ele>56.6</ele>
        <time>2023-04-06T12:27:27Z</time>
      </trkpt>
      <trkpt lat="49.86576" lon="2.33224">
        <ele>56.6</ele>
        <time>2023-04-06T12:27:28Z</time>
      </trkpt>
      <trkpt lat="49.86576" lon="2.33222">
        <ele>56.7</ele>
        <time>2023-04-06T12:27:29Z</time>
      </trkpt>
      <trkpt lat="49.86576" lon="2.33221">
        <ele>56.7</ele>
        <time>2023-04-06T12:27:30Z</time>
      </trkpt>
      <trkpt lat="49.86577" lon="2.33218">
        <ele>56.8</ele>
        <time>2023-04-06T12:27:31Z</time>
      </trkpt>
      <trkpt lat="49.86577" lon="2.33216">
        <ele>56.8</ele>
        <time>2023-04-06T12:27:32Z</time>
      </trkpt>
      <trkpt lat="49.86578" lon="2.33214">
        <ele>56.9</ele>
        <time>2023-04-06T12:27:33Z</time>
      </trkpt>
      <trkpt lat="49.86578" lon="2.33212">
        <ele>56.9</ele>
        <time>2023-04-06T12:27:35Z</time>
      </trkpt>
      <trkpt lat="49.86579" lon="2.33209">
        <ele>57</ele>
        <time>2023-04-06T12:27:36Z</time>
      </trkpt>
      <trkpt lat="49.86579" lon="2.33207">
        <ele>57</ele>
        <time>2023-04-06T12:27:37Z</time>
      </trkpt>
      <trkpt lat="49.8658" lon="2.33205">
        <ele>57.1</ele>
        <time>2023-04-06T12:27:38Z</time>
      </trkpt>
      <trkpt lat="49.8658" lon="2.33204">
        <ele>57.1</ele>
        <time>2023-04-06T12:27:39Z</time>
      </trkpt>
      <trkpt lat="49.8658" lon="2.33202">
        <ele>57.2</ele>
        <time>2023-04-06T12:27:40Z</time>
      </trkpt>
      <trkpt lat="49.86581" lon="2.33199">
        <ele>57.2</ele>
        <time>2023-04-06T12:27:41Z</time>
      </trkpt>
      <trkpt lat="49.86581" lon="2.33198">
        <ele>57.3</ele>
        <time>2023-04-06T12:27:42Z</time>
      </trkpt>
      <trkpt lat="49.86581" lon="2.33194">
        <ele>57.4</ele>
        <time>2023-04-06T12:27:43Z</time>
      </trkpt>
      <trkpt lat="49.86582" lon="2.33193">
        <ele>57.4</ele>
        <time>2023-04-06T12:27:44Z</time>
      </trkpt>
      <trkpt lat="49.86582" lon="2.33192">
        <ele>57.5</ele>
        <time>2023-04-06T12:27:45Z</time>
      </trkpt>
      <trkpt lat="49.86582" lon="2.33189">
        <ele>57.5</ele>
        <time>2023-04-06T12:27:47Z</time>
      </trkpt>
      <trkpt lat="49.86582" lon="2.33186">
        <ele>57.6</ele>
        <time>2023-04-06T12:27:48Z</time>
      </trkpt>
      <trkpt lat="49.86582" lon="2.33183">
        <ele>57.7</ele>
        <time>2023-04-06T12:27:49Z</time>
      </trkpt>
      <trkpt lat="49.86582" lon="2.33182">
        <ele>57.8</ele>
        <time>2023-04-06T12:27:51Z</time>
      </trkpt>
      <trkpt lat="49.86582" lon="2.3318">
        <ele>57.8</ele>
        <time>2023-04-06T12:27:52Z</time>
      </trkpt>
      <trkpt lat="49.86582" lon="2.33178">
        <ele>57.9</ele>
        <time>2023-04-06T12:27:53Z</time>
      </trkpt>
      <trkpt lat="49.86582" lon="2.33176">
        <ele>58</ele>
        <time>2023-04-06T12:27:54Z</time>
      </trkpt>
      <trkpt lat="49.86581" lon="2.33173">
        <ele>58</ele>
        <time>2023-04-06T12:27:56Z</time>
      </trkpt>
      <trkpt lat="49.86581" lon="2.33171">
        <ele>58.1</ele>
        <time>2023-04-06T12:27:57Z</time>
      </trkpt>
      <trkpt lat="49.8658" lon="2.33167">
        <ele>58.2</ele>
        <time>2023-04-06T12:27:58Z</time>
      </trkpt>
      <trkpt lat="49.86579" lon="2.33166">
        <ele>58.3</ele>
        <time>2023-04-06T12:27:59Z</time>
      </trkpt>
      <trkpt lat="49.86579" lon="2.33165">
        <ele>58.3</ele>
        <time>2023-04-06T12:28:00Z</time>
      </trkpt>
      <trkpt lat="49.86577" lon="2.33164">
        <ele>58.4</ele>
        <time>2023-04-06T12:28:01Z</time>
      </trkpt>
      <trkpt lat="49.86576" lon="2.33162">
        <ele>58.5</ele>
        <time>2023-04-06T12:28:03Z</time>
      </trkpt>
      <trkpt lat="49.86576" lon="2.3316">
        <ele>58.6</ele>
        <time>2023-04-06T12:28:04Z</time>
      </trkpt>
      <trkpt lat="49.86575" lon="2.33158">
        <ele>58.6</ele>
        <time>2023-04-06T12:28:05Z</time>
      </trkpt>
      <trkpt lat="49.86575" lon="2.33156">
        <ele>58.7</ele>
        <time>2023-04-06T12:28:06Z</time>
      </trkpt>
      <trkpt lat="49.86574" lon="2.33154">
        <ele>58.8</ele>
        <time>2023-04-06T12:28:07Z</time>
      </trkpt>
      <trkpt lat="49.86574" lon="2.33152">
        <ele>58.8</ele>
        <time>2023-04-06T12:28:08Z</time>
      </trkpt>
      <trkpt lat="49.86573" lon="2.33151">
        <ele>58.9</ele>
        <time>2023-04-06T12:28:09Z</time>
      </trkpt>
      <trkpt lat="49.86573" lon="2.33149">
        <ele>59</ele>
        <time>2023-04-06T12:28:11Z</time>
      </trkpt>
      <trkpt lat="49.86572" lon="2.33147">
        <ele>59</ele>
        <time>2023-04-06T12:28:12Z</time>
      </trkpt>
      <trkpt lat="49.86571" lon="2.33145">
        <ele>59.1</ele>
        <time>2023-04-06T12:28:13Z</time>
      </trkpt>
      <trkpt lat="49.8657" lon="2.33142">
        <ele>59.2</ele>
        <time>2023-04-06T12:28:14Z</time>
      </trkpt>
      <trkpt lat="49.8657" lon="2.33141">
        <ele>59.2</ele>
        <time>2023-04-06T12:28:15Z</time>
      </trkpt>
      <trkpt lat="49.8657" lon="2.33139">
        <ele>59.3</ele>
        <time>2023-04-06T12:28:16Z</time>
      </trkpt>
      <trkpt lat="49.86569" lon="2.33138">
        <ele>59.3</ele>
        <time>2023-04-06T12:28:17Z</time>
      </trkpt>
      <trkpt lat="49.86569" lon="2.33136">
        <ele>59.4</ele>
        <time>2023-04-06T12:28:19Z</time>
      </trkpt>
      <trkpt lat="49.86569" lon="2.33134">
        <ele>59.4</ele>
        <time>2023-04-06T12:28:20Z</time>
      </trkpt>
      <trkpt lat="49.86569" lon="2.33132">
        <ele>59.5</ele>
        <time>2023-04-06T12:28:21Z</time>
      </trkpt>
      <trkpt lat="49.86568" lon="2.3313">
        <ele>59.6</ele>
        <time>2023-04-06T12:28:22Z</time>
      </trkpt>
      <trkpt lat="49.86568" lon="2.33128">
        <ele>59.6</ele>
        <time>2023-04-06T12:28:23Z</time>
      </trkpt>
      <trkpt lat="49.86568" lon="2.33125">
        <ele>59.7</ele>
        <time>2023-04-06T12:28:24Z</time>
      </trkpt>
      <trkpt lat="49.86567" lon="2.33123">
        <ele>59.8</ele>
        <time>2023-04-06T12:28:26Z</time>
      </trkpt>
      <trkpt lat="49.86566" lon="2.33121">
        <ele>59.8</ele>
        <time>2023-04-06T12:28:27Z</time>
      </trkpt>
      <trkpt lat="49.86566" lon="2.33119">
        <ele>59.9</ele>
        <time>2023-04-06T12:28:28Z</time>
      </trkpt>
      <trkpt lat="49.86565" lon="2.33117">
        <ele>59.9</ele>
        <time>2023-04-06T12:28:29Z</time>
      </trkpt>
      <trkpt lat="49.86565" lon="2.33116">
        <ele>60</ele>
        <time>2023-04-06T12:28:30Z</time>
      </trkpt>
      <trkpt lat="49.86564" lon="2.33113">
        <ele>60.1</ele>
        <time>2023-04-06T12:28:32Z</time>
      </trkpt>
      <trkpt lat="49.86564" lon="2.33112">
        <ele>60.1</ele>
        <time>2023-04-06T12:28:33Z</time>
      </trkpt>
      <trkpt lat="49.86563" lon="2.3311">
        <ele>60.2</ele>
        <time>2023-04-06T12:28:34Z</time>
      </trkpt>
      <trkpt lat="49.86563" lon="2.33108">
        <ele>60.3</ele>
        <time>2023-04-06T12:28:35Z</time>
      </trkpt>
      <trkpt lat="49.86562" lon="2.33106">
        <ele>60.3</ele>
        <time>2023-04-06T12:28:36Z</time>
      </trkpt>
      <trkpt lat="49.86561" lon="2.33103">
        <ele>60.4</ele>
        <time>2023-04-06T12:28:37Z</time>
      </trkpt>
      <trkpt lat="49.86561" lon="2.331">
        <ele>60.5</ele>
        <time>2023-04-06T12:28:39Z</time>
      </trkpt>
      <trkpt lat="49.86561" lon="2.33098">
        <ele>60.5</ele>
        <time>2023-04-06T12:28:40Z</time>
      </trkpt>
      <trkpt lat="49.8656" lon="2.33097">
        <ele>60.6</ele>
        <time>2023-04-06T12:28:41Z</time>
      </trkpt>
      <trkpt lat="49.8656" lon="2.33095">
        <ele>60.6</ele>
        <time>2023-04-06T12:28:42Z</time>
      </trkpt>
      <trkpt lat="49.8656" lon="2.33093">
        <ele>60.7</ele>
        <time>2023-04-06T12:28:43Z</time>
      </trkpt>
      <trkpt lat="49.8656" lon="2.3309">
        <ele>60.7</ele>
        <time>2023-04-06T12:28:45Z</time>
      </trkpt>
      <trkpt lat="49.86559" lon="2.33088">
        <ele>60.8</ele>
        <time>2023-04-06T12:28:46Z</time>
      </trkpt>
      <trkpt lat="49.86559" lon="2.33086">
        <ele>60.9</ele>
        <time>2023-04-06T12:28:47Z</time>
      </trkpt>
      <trkpt lat="49.86559" lon="2.33083">
        <ele>61</ele>
        <time>2023-04-06T12:28:48Z</time>
      </trkpt>
      <trkpt lat="49.86558" lon="2.33081">
        <ele>61</ele>
        <time>2023-04-06T12:28:49Z</time>
      </trkpt>
      <trkpt lat="49.86558" lon="2.3308">
        <ele>61</ele>
        <time>2023-04-06T12:28:50Z</time>
      </trkpt>
      <trkpt lat="49.86557" lon="2.33077">
        <ele>61.1</ele>
        <time>2023-04-06T12:28:51Z</time>
      </trkpt>
      <trkpt lat="49.86557" lon="2.33076">
        <ele>61.2</ele>
        <time>2023-04-06T12:28:53Z</time>
      </trkpt>
      <trkpt lat="49.86557" lon="2.33075">
        <ele>61.2</ele>
        <time>2023-04-06T12:28:54Z</time>
      </trkpt>
      <trkpt lat="49.86556" lon="2.33072">
        <ele>61.3</ele>
        <time>2023-04-06T12:28:55Z</time>
      </trkpt>
      <trkpt lat="49.86556" lon="2.3307">
        <ele>61.3</ele>
        <time>2023-04-06T12:28:56Z</time>
      </trkpt>
      <trkpt lat="49.86556" lon="2.33067">
        <ele>61.4</ele>
        <time>2023-04-06T12:28:57Z</time>
      </trkpt>
      <trkpt lat="49.86556" lon="2.33066">
        <ele>61.5</ele>
        <time>2023-04-06T12:28:58Z</time>
      </trkpt>
      <trkpt lat="49.86556" lon="2.33065">
        <ele>61.5</ele>
        <time>2023-04-06T12:28:59Z</time>
      </trkpt>
      <trkpt lat="49.86556" lon="2.33062">
        <ele>61.6</ele>
        <time>2023-04-06T12:29:00Z</time>
      </trkpt>
      <trkpt lat="49.86556" lon="2.3306">
        <ele>61.6</ele>
        <time>2023-04-06T12:29:02Z</time>
      </trkpt>
      <trkpt lat="49.86556" lon="2.33059">
        <ele>61.7</ele>
        <time>2023-04-06T12:29:03Z</time>
      </trkpt>
      <trkpt lat="49.86555" lon="2.33057">
        <ele>61.7</ele>
        <time>2023-04-06T12:29:04Z</time>
      </trkpt>
      <trkpt lat="49.86555" lon="2.33055">
        <ele>61.8</ele>
        <time>2023-04-06T12:29:05Z</time>
      </trkpt>
      <trkpt lat="49.86554" lon="2.33053">
        <ele>61.9</ele>
        <time>2023-04-06T12:29:06Z</time>
      </trkpt>
      <trkpt lat="49.86553" lon="2.33051">
        <ele>62</ele>
        <time>2023-04-06T12:29:07Z</time>
      </trkpt>
      <trkpt lat="49.86551" lon="2.33048">
        <ele>62</ele>
        <time>2023-04-06T12:29:09Z</time>
      </trkpt>
      <trkpt lat="49.86551" lon="2.33047">
        <ele>62.1</ele>
        <time>2023-04-06T12:29:10Z</time>
      </trkpt>
      <trkpt lat="49.8655" lon="2.33046">
        <ele>62.1</ele>
        <time>2023-04-06T12:29:11Z</time>
      </trkpt>
      <trkpt lat="49.86549" lon="2.33043">
        <ele>62.2</ele>
        <time>2023-04-06T12:29:12Z</time>
      </trkpt>
      <trkpt lat="49.86549" lon="2.33042">
        <ele>62.3</ele>
        <time>2023-04-06T12:29:13Z</time>
      </trkpt>
      <trkpt lat="49.86548" lon="2.33042">
        <ele>62.3</ele>
        <time>2023-04-06T12:29:14Z</time>
      </trkpt>
      <trkpt lat="49.86548" lon="2.3304">
        <ele>62.3</ele>
        <time>2023-04-06T12:29:15Z</time>
      </trkpt>
      <trkpt lat="49.86546" lon="2.33037">
        <ele>62.4</ele>
        <time>2023-04-06T12:29:16Z</time>
      </trkpt>
      <trkpt lat="49.86545" lon="2.33034">
        <ele>62.5</ele>
        <time>2023-04-06T12:29:17Z</time>
      </trkpt>
      <trkpt lat="49.86545" lon="2.33033">
        <ele>62.6</ele>
        <time>2023-04-06T12:29:19Z</time>
      </trkpt>
      <trkpt lat="49.86544" lon="2.33031">
        <ele>62.6</ele>
        <time>2023-04-06T12:29:20Z</time>
      </trkpt>
      <trkpt lat="49.86544" lon="2.3303">
        <ele>62.7</ele>
        <time>2023-04-06T12:29:21Z</time>
      </trkpt>
      <trkpt lat="49.86543" lon="2.33028">
        <ele>62.7</ele>
        <time>2023-04-06T12:29:22Z</time>
      </trkpt>
      <trkpt lat="49.86543" lon="2.33027">
        <ele>62.8</ele>
        <time>2023-04-06T12:29:23Z</time>
      </trkpt>
      <trkpt lat="49.86542" lon="2.33025">
        <ele>62.8</ele>
        <time>2023-04-06T12:29:24Z</time>
      </trkpt>
      <trkpt lat="49.86542" lon="2.33024">
        <ele>62.9</ele>
        <time>2023-04-06T12:29:25Z</time>
      </trkpt>
      <trkpt lat="49.86541" lon="2.33022">
        <ele>62.9</ele>
        <time>2023-04-06T12:29:27Z</time>
      </trkpt>
      <trkpt lat="49.8654" lon="2.3302">
        <ele>63</ele>
        <time>2023-04-06T12:29:28Z</time>
      </trkpt>
      <trkpt lat="49.86539" lon="2.33017">
        <ele>63.1</ele>
        <time>2023-04-06T12:29:29Z</time>
      </trkpt>
      <trkpt lat="49.86538" lon="2.33016">
        <ele>63.1</ele>
        <time>2023-04-06T12:29:30Z</time>
      </trkpt>
      <trkpt lat="49.86538" lon="2.33015">
        <ele>63.2</ele>
        <time>2023-04-06T12:29:31Z</time>
      </trkpt>
      <trkpt lat="49.86537" lon="2.33012">
        <ele>63.2</ele>
        <time>2023-04-06T12:29:32Z</time>
      </trkpt>
      <trkpt lat="49.86537" lon="2.33011">
        <ele>63.3</ele>
        <time>2023-04-06T12:29:34Z</time>
      </trkpt>
      <trkpt lat="49.86536" lon="2.33009">
        <ele>63.4</ele>
        <time>2023-04-06T12:29:35Z</time>
      </trkpt>
      <trkpt lat="49.86536" lon="2.33007">
        <ele>63.4</ele>
        <time>2023-04-06T12:29:36Z</time>
      </trkpt>
      <trkpt lat="49.86534" lon="2.33003">
        <ele>63.5</ele>
        <time>2023-04-06T12:29:37Z</time>
      </trkpt>
      <trkpt lat="49.86534" lon="2.33002">
        <ele>63.6</ele>
        <time>2023-04-06T12:29:38Z</time>
      </trkpt>
      <trkpt lat="49.86534" lon="2.33002">
        <ele>63.6</ele>
        <time>2023-04-06T12:29:39Z</time>
      </trkpt>
      <trkpt lat="49.86533" lon="2.33">
        <ele>63.6</ele>
        <time>2023-04-06T12:29:40Z</time>
      </trkpt>
      <trkpt lat="49.86533" lon="2.32998">
        <ele>63.7</ele>
        <time>2023-04-06T12:29:41Z</time>
      </trkpt>
      <trkpt lat="49.86532" lon="2.32996">
        <ele>63.8</ele>
        <time>2023-04-06T12:29:43Z</time>
      </trkpt>
      <trkpt lat="49.86531" lon="2.32993">
        <ele>63.9</ele>
        <time>2023-04-06T12:29:44Z</time>
      </trkpt>
      <trkpt lat="49.8653" lon="2.32992">
        <ele>63.9</ele>
        <time>2023-04-06T12:29:45Z</time>
      </trkpt>
      <trkpt lat="49.8653" lon="2.32991">
        <ele>63.9</ele>
        <time>2023-04-06T12:29:46Z</time>
      </trkpt>
      <trkpt lat="49.86529" lon="2.32989">
        <ele>64</ele>
        <time>2023-04-06T12:29:47Z</time>
      </trkpt>
      <trkpt lat="49.86529" lon="2.32987">
        <ele>64.1</ele>
        <time>2023-04-06T12:29:48Z</time>
      </trkpt>
      <trkpt lat="49.86528" lon="2.32986">
        <ele>64.1</ele>
        <time>2023-04-06T12:29:49Z</time>
      </trkpt>
      <trkpt lat="49.86527" lon="2.32984">
        <ele>64.2</ele>
        <time>2023-04-06T12:29:50Z</time>
      </trkpt>
      <trkpt lat="49.86527" lon="2.32981">
        <ele>64.2</ele>
        <time>2023-04-06T12:29:52Z</time>
      </trkpt>
      <trkpt lat="49.86526" lon="2.32979">
        <ele>64.3</ele>
        <time>2023-04-06T12:29:53Z</time>
      </trkpt>
      <trkpt lat="49.86526" lon="2.32978">
        <ele>64.3</ele>
        <time>2023-04-06T12:29:54Z</time>
      </trkpt>
      <trkpt lat="49.86525" lon="2.32976">
        <ele>64.4</ele>
        <time>2023-04-06T12:29:55Z</time>
      </trkpt>
      <trkpt lat="49.86524" lon="2.32973">
        <ele>64.5</ele>
        <time>2023-04-06T12:29:56Z</time>
      </trkpt>
      <trkpt lat="49.86524" lon="2.32972">
        <ele>64.5</ele>
        <time>2023-04-06T12:29:58Z</time>
      </trkpt>
      <trkpt lat="49.86523" lon="2.3297">
        <ele>64.6</ele>
        <time>2023-04-06T12:29:59Z</time>
      </trkpt>
      <trkpt lat="49.86523" lon="2.32969">
        <ele>64.6</ele>
        <time>2023-04-06T12:30:00Z</time>
      </trkpt>
      <trkpt lat="49.86522" lon="2.32967">
        <ele>64.7</ele>
        <time>2023-04-06T12:30:01Z</time>
      </trkpt>
      <trkpt lat="49.86521" lon="2.32964">
        <ele>64.8</ele>
        <time>2023-04-06T12:30:02Z</time>
      </trkpt>
      <trkpt lat="49.86521" lon="2.32963">
        <ele>64.8</ele>
        <time>2023-04-06T12:30:03Z</time>
      </trkpt>
      <trkpt lat="49.86521" lon="2.32962">
        <ele>64.8</ele>
        <time>2023-04-06T12:30:04Z</time>
      </trkpt>
      <trkpt lat="49.8652" lon="2.32959">
        <ele>64.9</ele>
        <time>2023-04-06T12:30:05Z</time>
      </trkpt>
      <trkpt lat="49.8652" lon="2.32958">
        <ele>65</ele>
        <time>2023-04-06T12:30:07Z</time>
      </trkpt>
      <trkpt lat="49.8652" lon="2.32956">
        <ele>65</ele>
        <time>2023-04-06T12:30:08Z</time>
      </trkpt>
      <trkpt lat="49.86519" lon="2.32953">
        <ele>65.1</ele>
        <time>2023-04-06T12:30:09Z</time>
      </trkpt>
      <trkpt lat="49.86519" lon="2.32951">
        <ele>65.2</ele>
        <time>2023-04-06T12:30:10Z</time>
      </trkpt>
      <trkpt lat="49.86519" lon="2.3295">
        <ele>65.2</ele>
        <time>2023-04-06T12:30:11Z</time>
      </trkpt>
      <trkpt lat="49.86518" lon="2.32947">
        <ele>65.3</ele>
        <time>2023-04-06T12:30:12Z</time>
      </trkpt>
      <trkpt lat="49.86518" lon="2.32946">
        <ele>65.4</ele>
        <time>2023-04-06T12:30:13Z</time>
      </trkpt>
      <trkpt lat="49.86517" lon="2.32943">
        <ele>65.4</ele>
        <time>2023-04-06T12:30:14Z</time>
      </trkpt>
      <trkpt lat="49.86517" lon="2.32942">
        <ele>65.5</ele>
        <time>2023-04-06T12:30:16Z</time>
      </trkpt>
      <trkpt lat="49.86517" lon="2.3294">
        <ele>65.5</ele>
        <time>2023-04-06T12:30:17Z</time>
      </trkpt>
      <trkpt lat="49.86516" lon="2.32939">
        <ele>65.6</ele>
        <time>2023-04-06T12:30:18Z</time>
      </trkpt>
      <trkpt lat="49.86516" lon="2.32938">
        <ele>65.6</ele>
        <time>2023-04-06T12:30:19Z</time>
      </trkpt>
      <trkpt lat="49.86515" lon="2.32936">
        <ele>65.7</ele>
        <time>2023-04-06T12:30:20Z</time>
      </trkpt>
      <trkpt lat="49.86514" lon="2.32934">
        <ele>65.8</ele>
        <time>2023-04-06T12:30:21Z</time>
      </trkpt>
      <trkpt lat="49.86513" lon="2.32932">
        <ele>65.9</ele>
        <time>2023-04-06T12:30:22Z</time>
      </trkpt>
      <trkpt lat="49.86513" lon="2.3293">
        <ele>65.9</ele>
        <time>2023-04-06T12:30:23Z</time>
      </trkpt>
      <trkpt lat="49.86512" lon="2.32929">
        <ele>66</ele>
        <time>2023-04-06T12:30:24Z</time>
      </trkpt>
      <trkpt lat="49.86512" lon="2.32927">
        <ele>66</ele>
        <time>2023-04-06T12:30:25Z</time>
      </trkpt>
      <trkpt lat="49.86511" lon="2.32923">
        <ele>66.1</ele>
        <time>2023-04-06T12:30:27Z</time>
      </trkpt>
      <trkpt lat="49.86511" lon="2.32921">
        <ele>66.2</ele>
        <time>2023-04-06T12:30:28Z</time>
      </trkpt>
      <trkpt lat="49.8651" lon="2.32918">
        <ele>66.3</ele>
        <time>2023-04-06T12:30:29Z</time>
      </trkpt>
      <trkpt lat="49.8651" lon="2.32917">
        <ele>66.4</ele>
        <time>2023-04-06T12:30:31Z</time>
      </trkpt>
      <trkpt lat="49.8651" lon="2.32915">
        <ele>66.4</ele>
        <time>2023-04-06T12:30:32Z</time>
      </trkpt>
      <trkpt lat="49.86509" lon="2.32913">
        <ele>66.5</ele>
        <time>2023-04-06T12:30:33Z</time>
      </trkpt>
      <trkpt lat="49.86508" lon="2.32911">
        <ele>66.6</ele>
        <time>2023-04-06T12:30:34Z</time>
      </trkpt>
      <trkpt lat="49.86507" lon="2.32908">
        <ele>66.7</ele>
        <time>2023-04-06T12:30:35Z</time>
      </trkpt>
      <trkpt lat="49.86507" lon="2.32906">
        <ele>66.7</ele>
        <time>2023-04-06T12:30:36Z</time>
      </trkpt>
      <trkpt lat="49.86507" lon="2.32905">
        <ele>66.8</ele>
        <time>2023-04-06T12:30:37Z</time>
      </trkpt>
      <trkpt lat="49.86506" lon="2.32903">
        <ele>66.8</ele>
        <time>2023-04-06T12:30:38Z</time>
      </trkpt>
      <trkpt lat="49.86506" lon="2.32901">
        <ele>66.9</ele>
        <time>2023-04-06T12:30:39Z</time>
      </trkpt>
      <trkpt lat="49.86506" lon="2.329">
        <ele>66.9</ele>
        <time>2023-04-06T12:30:41Z</time>
      </trkpt>
      <trkpt lat="49.86505" lon="2.32897">
        <ele>67</ele>
        <time>2023-04-06T12:30:42Z</time>
      </trkpt>
      <trkpt lat="49.86504" lon="2.32895">
        <ele>67.1</ele>
        <time>2023-04-06T12:30:43Z</time>
      </trkpt>
      <trkpt lat="49.86504" lon="2.32894">
        <ele>67.1</ele>
        <time>2023-04-06T12:30:44Z</time>
      </trkpt>
      <trkpt lat="49.86503" lon="2.32892">
        <ele>67.2</ele>
        <time>2023-04-06T12:30:45Z</time>
      </trkpt>
      <trkpt lat="49.86503" lon="2.3289">
        <ele>67.3</ele>
        <time>2023-04-06T12:30:46Z</time>
      </trkpt>
      <trkpt lat="49.86502" lon="2.32888">
        <ele>67.3</ele>
        <time>2023-04-06T12:30:47Z</time>
      </trkpt>
      <trkpt lat="49.86501" lon="2.32886">
        <ele>67.4</ele>
        <time>2023-04-06T12:30:48Z</time>
      </trkpt>
      <trkpt lat="49.86501" lon="2.32885">
        <ele>67.4</ele>
        <time>2023-04-06T12:30:50Z</time>
      </trkpt>
      <trkpt lat="49.86501" lon="2.32883">
        <ele>67.5</ele>
        <time>2023-04-06T12:30:51Z</time>
      </trkpt>
      <trkpt lat="49.865" lon="2.32881">
        <ele>67.6</ele>
        <time>2023-04-06T12:30:52Z</time>
      </trkpt>
      <trkpt lat="49.865" lon="2.32878">
        <ele>67.7</ele>
        <time>2023-04-06T12:30:53Z</time>
      </trkpt>
      <trkpt lat="49.86499" lon="2.32876">
        <ele>67.7</ele>
        <time>2023-04-06T12:30:54Z</time>
      </trkpt>
      <trkpt lat="49.86499" lon="2.32875">
        <ele>67.7</ele>
        <time>2023-04-06T12:30:55Z</time>
      </trkpt>
      <trkpt lat="49.86498" lon="2.32873">
        <ele>67.8</ele>
        <time>2023-04-06T12:30:56Z</time>
      </trkpt>
      <trkpt lat="49.86498" lon="2.32871">
        <ele>67.8</ele>
        <time>2023-04-06T12:30:57Z</time>
      </trkpt>
      <trkpt lat="49.86498" lon="2.3287">
        <ele>67.9</ele>
        <time>2023-04-06T12:30:58Z</time>
      </trkpt>
      <trkpt lat="49.86498" lon="2.32868">
        <ele>67.9</ele>
        <time>2023-04-06T12:31:00Z</time>
      </trkpt>
      <trkpt lat="49.86497" lon="2.32866">
        <ele>68</ele>
        <time>2023-04-06T12:31:01Z</time>
      </trkpt>
      <trkpt lat="49.86496" lon="2.32863">
        <ele>68.1</ele>
        <time>2023-04-06T12:31:02Z</time>
      </trkpt>
      <trkpt lat="49.86495" lon="2.32861">
        <ele>68.1</ele>
        <time>2023-04-06T12:31:03Z</time>
      </trkpt>
      <trkpt lat="49.86495" lon="2.3286">
        <ele>68.1</ele>
        <time>2023-04-06T12:31:04Z</time>
      </trkpt>
      <trkpt lat="49.86495" lon="2.32859">
        <ele>68.2</ele>
        <time>2023-04-06T12:31:05Z</time>
      </trkpt>
      <trkpt lat="49.86494" lon="2.32858">
        <ele>68.2</ele>
        <time>2023-04-06T12:31:06Z</time>
      </trkpt>
      <trkpt lat="49.86494" lon="2.32856">
        <ele>68.3</ele>
        <time>2023-04-06T12:31:08Z</time>
      </trkpt>
      <trkpt lat="49.86493" lon="2.32853">
        <ele>68.3</ele>
        <time>2023-04-06T12:31:09Z</time>
      </trkpt>
      <trkpt lat="49.86493" lon="2.32851">
        <ele>68.3</ele>
        <time>2023-04-06T12:31:10Z</time>
      </trkpt>
      <trkpt lat="49.86492" lon="2.32848">
        <ele>68.4</ele>
        <time>2023-04-06T12:31:11Z</time>
      </trkpt>
      <trkpt lat="49.86492" lon="2.32847">
        <ele>68.4</ele>
        <time>2023-04-06T12:31:12Z</time>
      </trkpt>
      <trkpt lat="49.86491" lon="2.32846">
        <ele>68.5</ele>
        <time>2023-04-06T12:31:13Z</time>
      </trkpt>
      <trkpt lat="49.8649" lon="2.32844">
        <ele>68.5</ele>
        <time>2023-04-06T12:31:14Z</time>
      </trkpt>
      <trkpt lat="49.8649" lon="2.32842">
        <ele>68.6</ele>
        <time>2023-04-06T12:31:15Z</time>
      </trkpt>
      <trkpt lat="49.86489" lon="2.3284">
        <ele>68.6</ele>
        <time>2023-04-06T12:31:17Z</time>
      </trkpt>
      <trkpt lat="49.86489" lon="2.32839">
        <ele>68.6</ele>
        <time>2023-04-06T12:31:18Z</time>
      </trkpt>
      <trkpt lat="49.86488" lon="2.32837">
        <ele>68.7</ele>
        <time>2023-04-06T12:31:19Z</time>
      </trkpt>
      <trkpt lat="49.86487" lon="2.32836">
        <ele>68.7</ele>
        <time>2023-04-06T12:31:20Z</time>
      </trkpt>
      <trkpt lat="49.86487" lon="2.32833">
        <ele>68.8</ele>
        <time>2023-04-06T12:31:21Z</time>
      </trkpt>
      <trkpt lat="49.86486" lon="2.32831">
        <ele>68.8</ele>
        <time>2023-04-06T12:31:22Z</time>
      </trkpt>
      <trkpt lat="49.86486" lon="2.3283">
        <ele>68.8</ele>
        <time>2023-04-06T12:31:23Z</time>
      </trkpt>
      <trkpt lat="49.86485" lon="2.32829">
        <ele>68.8</ele>
        <time>2023-04-06T12:31:24Z</time>
      </trkpt>
      <trkpt lat="49.86485" lon="2.32827">
        <ele>68.9</ele>
        <time>2023-04-06T12:31:25Z</time>
      </trkpt>
      <trkpt lat="49.86484" lon="2.32825">
        <ele>68.9</ele>
        <time>2023-04-06T12:31:27Z</time>
      </trkpt>
      <trkpt lat="49.86484" lon="2.32823">
        <ele>68.9</ele>
        <time>2023-04-06T12:31:28Z</time>
      </trkpt>
      <trkpt lat="49.86483" lon="2.32822">
        <ele>68.9</ele>
        <time>2023-04-06T12:31:29Z</time>
      </trkpt>
      <trkpt lat="49.86483" lon="2.3282">
        <ele>69</ele>
        <time>2023-04-06T12:31:30Z</time>
      </trkpt>
      <trkpt lat="49.86483" lon="2.32818">
        <ele>69</ele>
        <time>2023-04-06T12:31:31Z</time>
      </trkpt>
      <trkpt lat="49.86482" lon="2.32816">
        <ele>69</ele>
        <time>2023-04-06T12:31:32Z</time>
      </trkpt>
      <trkpt lat="49.86482" lon="2.32815">
        <ele>69</ele>
        <time>2023-04-06T12:31:33Z</time>
      </trkpt>
      <trkpt lat="49.86482" lon="2.32813">
        <ele>69</ele>
        <time>2023-04-06T12:31:34Z</time>
      </trkpt>
      <trkpt lat="49.86482" lon="2.32811">
        <ele>69</ele>
        <time>2023-04-06T12:31:35Z</time>
      </trkpt>
      <trkpt lat="49.86481" lon="2.32809">
        <ele>69</ele>
        <time>2023-04-06T12:31:37Z</time>
      </trkpt>
      <trkpt lat="49.8648" lon="2.32806">
        <ele>69</ele>
        <time>2023-04-06T12:31:38Z</time>
      </trkpt>
      <trkpt lat="49.8648" lon="2.32804">
        <ele>69</ele>
        <time>2023-04-06T12:31:39Z</time>
      </trkpt>
      <trkpt lat="49.8648" lon="2.32802">
        <ele>69</ele>
        <time>2023-04-06T12:31:40Z</time>
      </trkpt>
      <trkpt lat="49.86479" lon="2.32801">
        <ele>69</ele>
        <time>2023-04-06T12:31:41Z</time>
      </trkpt>
      <trkpt lat="49.86479" lon="2.32799">
        <ele>69</ele>
        <time>2023-04-06T12:31:43Z</time>
      </trkpt>
      <trkpt lat="49.86479" lon="2.32796">
        <ele>69</ele>
        <time>2023-04-06T12:31:44Z</time>
      </trkpt>
      <trkpt lat="49.86478" lon="2.32794">
        <ele>69</ele>
        <time>2023-04-06T12:31:45Z</time>
      </trkpt>
      <trkpt lat="49.86477" lon="2.32791">
        <ele>69</ele>
        <time>2023-04-06T12:31:46Z</time>
      </trkpt>
      <trkpt lat="49.86477" lon="2.32789">
        <ele>69</ele>
        <time>2023-04-06T12:31:47Z</time>
      </trkpt>
      <trkpt lat="49.86477" lon="2.32788">
        <ele>68.9</ele>
        <time>2023-04-06T12:31:48Z</time>
      </trkpt>
      <trkpt lat="49.86476" lon="2.32786">
        <ele>68.9</ele>
        <time>2023-04-06T12:31:50Z</time>
      </trkpt>
      <trkpt lat="49.86476" lon="2.32783">
        <ele>68.9</ele>
        <time>2023-04-06T12:31:51Z</time>
      </trkpt>
      <trkpt lat="49.86475" lon="2.32782">
        <ele>68.9</ele>
        <time>2023-04-06T12:31:52Z</time>
      </trkpt>
      <trkpt lat="49.86475" lon="2.3278">
        <ele>68.9</ele>
        <time>2023-04-06T12:31:53Z</time>
      </trkpt>
      <trkpt lat="49.86474" lon="2.32776">
        <ele>68.9</ele>
        <time>2023-04-06T12:31:54Z</time>
      </trkpt>
      <trkpt lat="49.86473" lon="2.32775">
        <ele>68.8</ele>
        <time>2023-04-06T12:31:55Z</time>
      </trkpt>
      <trkpt lat="49.86473" lon="2.32774">
        <ele>68.8</ele>
        <time>2023-04-06T12:31:56Z</time>
      </trkpt>
      <trkpt lat="49.86472" lon="2.32771">
        <ele>68.8</ele>
        <time>2023-04-06T12:31:57Z</time>
      </trkpt>
      <trkpt lat="49.86471" lon="2.3277">
        <ele>68.8</ele>
        <time>2023-04-06T12:31:58Z</time>
      </trkpt>
      <trkpt lat="49.86471" lon="2.32769">
        <ele>68.7</ele>
        <time>2023-04-06T12:31:59Z</time>
      </trkpt>
      <trkpt lat="49.8647" lon="2.32767">
        <ele>68.7</ele>
        <time>2023-04-06T12:32:00Z</time>
      </trkpt>
      <trkpt lat="49.8647" lon="2.32765">
        <ele>68.7</ele>
        <time>2023-04-06T12:32:01Z</time>
      </trkpt>
      <trkpt lat="49.86469" lon="2.32763">
        <ele>68.6</ele>
        <time>2023-04-06T12:32:03Z</time>
      </trkpt>
      <trkpt lat="49.86468" lon="2.32761">
        <ele>68.6</ele>
        <time>2023-04-06T12:32:04Z</time>
      </trkpt>
      <trkpt lat="49.86468" lon="2.32759">
        <ele>68.5</ele>
        <time>2023-04-06T12:32:05Z</time>
      </trkpt>
      <trkpt lat="49.86467" lon="2.32756">
        <ele>68.5</ele>
        <time>2023-04-06T12:32:06Z</time>
      </trkpt>
      <trkpt lat="49.86467" lon="2.32755">
        <ele>68.4</ele>
        <time>2023-04-06T12:32:07Z</time>
      </trkpt>
      <trkpt lat="49.86467" lon="2.32753">
        <ele>68.4</ele>
        <time>2023-04-06T12:32:08Z</time>
      </trkpt>
      <trkpt lat="49.86466" lon="2.32751">
        <ele>68.3</ele>
        <time>2023-04-06T12:32:09Z</time>
      </trkpt>
      <trkpt lat="49.86466" lon="2.32749">
        <ele>68.3</ele>
        <time>2023-04-06T12:32:11Z</time>
      </trkpt>
      <trkpt lat="49.86465" lon="2.32746">
        <ele>68.2</ele>
        <time>2023-04-06T12:32:12Z</time>
      </trkpt>
      <trkpt lat="49.86464" lon="2.32744">
        <ele>68.1</ele>
        <time>2023-04-06T12:32:13Z</time>
      </trkpt>
      <trkpt lat="49.86464" lon="2.32742">
        <ele>68.1</ele>
        <time>2023-04-06T12:32:14Z</time>
      </trkpt>
      <trkpt lat="49.86463" lon="2.3274">
        <ele>68</ele>
        <time>2023-04-06T12:32:15Z</time>
      </trkpt>
      <trkpt lat="49.86463" lon="2.32738">
        <ele>67.9</ele>
        <time>2023-04-06T12:32:16Z</time>
      </trkpt>
      <trkpt lat="49.86462" lon="2.32736">
        <ele>67.9</ele>
        <time>2023-04-06T12:32:17Z</time>
      </trkpt>
      <trkpt lat="49.86461" lon="2.32733">
        <ele>67.8</ele>
        <time>2023-04-06T12:32:18Z</time>
      </trkpt>
      <trkpt lat="49.8646" lon="2.32732">
        <ele>67.7</ele>
        <time>2023-04-06T12:32:19Z</time>
      </trkpt>
      <trkpt lat="49.8646" lon="2.32731">
        <ele>67.7</ele>
        <time>2023-04-06T12:32:20Z</time>
      </trkpt>
      <trkpt lat="49.86459" lon="2.32729">
        <ele>67.6</ele>
        <time>2023-04-06T12:32:22Z</time>
      </trkpt>
      <trkpt lat="49.86459" lon="2.32727">
        <ele>67.5</ele>
        <time>2023-04-06T12:32:23Z</time>
      </trkpt>
      <trkpt lat="49.86457" lon="2.32724">
        <ele>67.4</ele>
        <time>2023-04-06T12:32:24Z</time>
      </trkpt>
      <trkpt lat="49.86457" lon="2.32723">
        <ele>67.3</ele>
        <time>2023-04-06T12:32:25Z</time>
      </trkpt>
      <trkpt lat="49.86456" lon="2.32722">
        <ele>67.3</ele>
        <time>2023-04-06T12:32:26Z</time>
      </trkpt>
      <trkpt lat="49.86456" lon="2.3272">
        <ele>67.2</ele>
        <time>2023-04-06T12:32:27Z</time>
      </trkpt>
      <trkpt lat="49.86455" lon="2.32718">
        <ele>67.1</ele>
        <time>2023-04-06T12:32:29Z</time>
      </trkpt>
      <trkpt lat="49.86454" lon="2.32716">
        <ele>67</ele>
        <time>2023-04-06T12:32:30Z</time>
      </trkpt>
      <trkpt lat="49.86453" lon="2.32713">
        <ele>66.9</ele>
        <time>2023-04-06T12:32:31Z</time>
      </trkpt>
      <trkpt lat="49.86452" lon="2.32711">
        <ele>66.8</ele>
        <time>2023-04-06T12:32:32Z</time>
      </trkpt>
      <trkpt lat="49.86451" lon="2.3271">
        <ele>66.7</ele>
        <time>2023-04-06T12:32:33Z</time>
      </trkpt>
      <trkpt lat="49.86451" lon="2.32708">
        <ele>66.7</ele>
        <time>2023-04-06T12:32:34Z</time>
      </trkpt>
      <trkpt lat="49.8645" lon="2.32706">
        <ele>66.6</ele>
        <time>2023-04-06T12:32:36Z</time>
      </trkpt>
      <trkpt lat="49.86449" lon="2.32705">
        <ele>66.5</ele>
        <time>2023-04-06T12:32:37Z</time>
      </trkpt>
      <trkpt lat="49.86447" lon="2.32702">
        <ele>66.3</ele>
        <time>2023-04-06T12:32:38Z</time>
      </trkpt>
      <trkpt lat="49.86447" lon="2.32701">
        <ele>66.3</ele>
        <time>2023-04-06T12:32:39Z</time>
      </trkpt>
      <trkpt lat="49.86446" lon="2.327">
        <ele>66.2</ele>
        <time>2023-04-06T12:32:40Z</time>
      </trkpt>
      <trkpt lat="49.86445" lon="2.32697">
        <ele>66.1</ele>
        <time>2023-04-06T12:32:41Z</time>
      </trkpt>
      <trkpt lat="49.86444" lon="2.32696">
        <ele>66</ele>
        <time>2023-04-06T12:32:42Z</time>
      </trkpt>
      <trkpt lat="49.86444" lon="2.32695">
        <ele>66</ele>
        <time>2023-04-06T12:32:43Z</time>
      </trkpt>
      <trkpt lat="49.86443" lon="2.32693">
        <ele>65.9</ele>
        <time>2023-04-06T12:32:44Z</time>
      </trkpt>
      <trkpt lat="49.86442" lon="2.32691">
        <ele>65.8</ele>
        <time>2023-04-06T12:32:45Z</time>
      </trkpt>
      <trkpt lat="49.86441" lon="2.32689">
        <ele>65.7</ele>
        <time>2023-04-06T12:32:47Z</time>
      </trkpt>
      <trkpt lat="49.8644" lon="2.32687">
        <ele>65.6</ele>
        <time>2023-04-06T12:32:48Z</time>
      </trkpt>
      <trkpt lat="49.8644" lon="2.32684">
        <ele>65.5</ele>
        <time>2023-04-06T12:32:49Z</time>
      </trkpt>
      <trkpt lat="49.86439" lon="2.32682">
        <ele>65.4</ele>
        <time>2023-04-06T12:32:50Z</time>
      </trkpt>
      <trkpt lat="49.86438" lon="2.3268">
        <ele>65.3</ele>
        <time>2023-04-06T12:32:51Z</time>
      </trkpt>
      <trkpt lat="49.86438" lon="2.32678">
        <ele>65.3</ele>
        <time>2023-04-06T12:32:52Z</time>
      </trkpt>
      <trkpt lat="49.86437" lon="2.32676">
        <ele>65.2</ele>
        <time>2023-04-06T12:32:53Z</time>
      </trkpt>
      <trkpt lat="49.86437" lon="2.32673">
        <ele>65.1</ele>
        <time>2023-04-06T12:32:54Z</time>
      </trkpt>
      <trkpt lat="49.86437" lon="2.32672">
        <ele>65</ele>
        <time>2023-04-06T12:32:55Z</time>
      </trkpt>
      <trkpt lat="49.86436" lon="2.32669">
        <ele>64.9</ele>
        <time>2023-04-06T12:32:57Z</time>
      </trkpt>
      <trkpt lat="49.86436" lon="2.32667">
        <ele>64.8</ele>
        <time>2023-04-06T12:32:58Z</time>
      </trkpt>
      <trkpt lat="49.86436" lon="2.32665">
        <ele>64.8</ele>
        <time>2023-04-06T12:32:59Z</time>
      </trkpt>
      <trkpt lat="49.86435" lon="2.32662">
        <ele>64.7</ele>
        <time>2023-04-06T12:33:00Z</time>
      </trkpt>
      <trkpt lat="49.86435" lon="2.3266">
        <ele>64.6</ele>
        <time>2023-04-06T12:33:01Z</time>
      </trkpt>
      <trkpt lat="49.86434" lon="2.32658">
        <ele>64.5</ele>
        <time>2023-04-06T12:33:02Z</time>
      </trkpt>
      <trkpt lat="49.86433" lon="2.32657">
        <ele>64.4</ele>
        <time>2023-04-06T12:33:04Z</time>
      </trkpt>
      <trkpt lat="49.86433" lon="2.32656">
        <ele>64.4</ele>
        <time>2023-04-06T12:33:05Z</time>
      </trkpt>
      <trkpt lat="49.86432" lon="2.32656">
        <ele>64.4</ele>
        <time>2023-04-06T12:33:06Z</time>
      </trkpt>
      <trkpt lat="49.86432" lon="2.32655">
        <ele>64.3</ele>
        <time>2023-04-06T12:33:07Z</time>
      </trkpt>
      <trkpt lat="49.86432" lon="2.32655">
        <ele>64.3</ele>
        <time>2023-04-06T12:33:08Z</time>
      </trkpt>
      <trkpt lat="49.86431" lon="2.32653">
        <ele>64.3</ele>
        <time>2023-04-06T12:33:09Z</time>
      </trkpt>
      <trkpt lat="49.86431" lon="2.32652">
        <ele>64.2</ele>
        <time>2023-04-06T12:33:10Z</time>
      </trkpt>
      <trkpt lat="49.8643" lon="2.3265">
        <ele>64.2</ele>
        <time>2023-04-06T12:33:11Z</time>
      </trkpt>
      <trkpt lat="49.8643" lon="2.32649">
        <ele>64.1</ele>
        <time>2023-04-06T12:33:13Z</time>
      </trkpt>
      <trkpt lat="49.86429" lon="2.32646">
        <ele>64</ele>
        <time>2023-04-06T12:33:14Z</time>
      </trkpt>
      <trkpt lat="49.86428" lon="2.32645">
        <ele>64</ele>
        <time>2023-04-06T12:33:15Z</time>
      </trkpt>
      <trkpt lat="49.86428" lon="2.32644">
        <ele>63.9</ele>
        <time>2023-04-06T12:33:16Z</time>
      </trkpt>
      <trkpt lat="49.86427" lon="2.32642">
        <ele>63.9</ele>
        <time>2023-04-06T12:33:17Z</time>
      </trkpt>
      <trkpt lat="49.86426" lon="2.3264">
        <ele>63.8</ele>
        <time>2023-04-06T12:33:19Z</time>
      </trkpt>
      <trkpt lat="49.86425" lon="2.32635">
        <ele>63.6</ele>
        <time>2023-04-06T12:33:20Z</time>
      </trkpt>
      <trkpt lat="49.86424" lon="2.32634">
        <ele>63.6</ele>
        <time>2023-04-06T12:33:21Z</time>
      </trkpt>
      <trkpt lat="49.86422" lon="2.32629">
        <ele>63.4</ele>
        <time>2023-04-06T12:33:22Z</time>
      </trkpt>
      <trkpt lat="49.86421" lon="2.32627">
        <ele>63.3</ele>
        <time>2023-04-06T12:33:23Z</time>
      </trkpt>
      <trkpt lat="49.86421" lon="2.32625">
        <ele>63.3</ele>
        <time>2023-04-06T12:33:24Z</time>
      </trkpt>
      <trkpt lat="49.8642" lon="2.32622">
        <ele>63.2</ele>
        <time>2023-04-06T12:33:26Z</time>
      </trkpt>
      <trkpt lat="49.86419" lon="2.3262">
        <ele>63.1</ele>
        <time>2023-04-06T12:33:27Z</time>
      </trkpt>
      <trkpt lat="49.86418" lon="2.32617">
        <ele>63</ele>
        <time>2023-04-06T12:33:28Z</time>
      </trkpt>
      <trkpt lat="49.86418" lon="2.32615">
        <ele>63</ele>
        <time>2023-04-06T12:33:29Z</time>
      </trkpt>
      <trkpt lat="49.86417" lon="2.32613">
        <ele>62.9</ele>
        <time>2023-04-06T12:33:30Z</time>
      </trkpt>
      <trkpt lat="49.86417" lon="2.32611">
        <ele>62.8</ele>
        <time>2023-04-06T12:33:31Z</time>
      </trkpt>
      <trkpt lat="49.86416" lon="2.32609">
        <ele>62.8</ele>
        <time>2023-04-06T12:33:32Z</time>
      </trkpt>
      <trkpt lat="49.86416" lon="2.32607">
        <ele>62.8</ele>
        <time>2023-04-06T12:33:33Z</time>
      </trkpt>
      <trkpt lat="49.86415" lon="2.32605">
        <ele>62.7</ele>
        <time>2023-04-06T12:33:34Z</time>
      </trkpt>
      <trkpt lat="49.86415" lon="2.32603">
        <ele>62.6</ele>
        <time>2023-04-06T12:33:36Z</time>
      </trkpt>
      <trkpt lat="49.86414" lon="2.32601">
        <ele>62.6</ele>
        <time>2023-04-06T12:33:37Z</time>
      </trkpt>
      <trkpt lat="49.86414" lon="2.32599">
        <ele>62.5</ele>
        <time>2023-04-06T12:33:38Z</time>
      </trkpt>
      <trkpt lat="49.86413" lon="2.32597">
        <ele>62.5</ele>
        <time>2023-04-06T12:33:39Z</time>
      </trkpt>
      <trkpt lat="49.86412" lon="2.32594">
        <ele>62.5</ele>
        <time>2023-04-06T12:33:40Z</time>
      </trkpt>
      <trkpt lat="49.86412" lon="2.32592">
        <ele>62.4</ele>
        <time>2023-04-06T12:33:41Z</time>
      </trkpt>
      <trkpt lat="49.86411" lon="2.3259">
        <ele>62.4</ele>
        <time>2023-04-06T12:33:43Z</time>
      </trkpt>
      <trkpt lat="49.8641" lon="2.32588">
        <ele>62.3</ele>
        <time>2023-04-06T12:33:44Z</time>
      </trkpt>
      <trkpt lat="49.8641" lon="2.32585">
        <ele>62.3</ele>
        <time>2023-04-06T12:33:45Z</time>
      </trkpt>
      <trkpt lat="49.86409" lon="2.32582">
        <ele>62.2</ele>
        <time>2023-04-06T12:33:46Z</time>
      </trkpt>
      <trkpt lat="49.86409" lon="2.32581">
        <ele>62.2</ele>
        <time>2023-04-06T12:33:47Z</time>
      </trkpt>
      <trkpt lat="49.86408" lon="2.3258">
        <ele>62.2</ele>
        <time>2023-04-06T12:33:48Z</time>
      </trkpt>
      <trkpt lat="49.86408" lon="2.32577">
        <ele>62.1</ele>
        <time>2023-04-06T12:33:49Z</time>
      </trkpt>
      <trkpt lat="49.86407" lon="2.32575">
        <ele>62.1</ele>
        <time>2023-04-06T12:33:50Z</time>
      </trkpt>
      <trkpt lat="49.86406" lon="2.32571">
        <ele>62</ele>
        <time>2023-04-06T12:33:52Z</time>
      </trkpt>
      <trkpt lat="49.86406" lon="2.3257">
        <ele>62</ele>
        <time>2023-04-06T12:33:53Z</time>
      </trkpt>
      <trkpt lat="49.86405" lon="2.32568">
        <ele>62</ele>
        <time>2023-04-06T12:33:54Z</time>
      </trkpt>
      <trkpt lat="49.86405" lon="2.32566">
        <ele>62</ele>
        <time>2023-04-06T12:33:55Z</time>
      </trkpt>
      <trkpt lat="49.86405" lon="2.32564">
        <ele>61.9</ele>
        <time>2023-04-06T12:33:56Z</time>
      </trkpt>
      <trkpt lat="49.86404" lon="2.32561">
        <ele>61.9</ele>
        <time>2023-04-06T12:33:57Z</time>
      </trkpt>
      <trkpt lat="49.86404" lon="2.32559">
        <ele>61.9</ele>
        <time>2023-04-06T12:33:58Z</time>
      </trkpt>
      <trkpt lat="49.86403" lon="2.32558">
        <ele>61.8</ele>
        <time>2023-04-06T12:33:59Z</time>
      </trkpt>
      <trkpt lat="49.86403" lon="2.32555">
        <ele>61.8</ele>
        <time>2023-04-06T12:34:01Z</time>
      </trkpt>
      <trkpt lat="49.86402" lon="2.32553">
        <ele>61.8</ele>
        <time>2023-04-06T12:34:02Z</time>
      </trkpt>
      <trkpt lat="49.86401" lon="2.3255">
        <ele>61.7</ele>
        <time>2023-04-06T12:34:03Z</time>
      </trkpt>
      <trkpt lat="49.86401" lon="2.32548">
        <ele>61.7</ele>
        <time>2023-04-06T12:34:04Z</time>
      </trkpt>
      <trkpt lat="49.864" lon="2.32545">
        <ele>61.7</ele>
        <time>2023-04-06T12:34:05Z</time>
      </trkpt>
      <trkpt lat="49.864" lon="2.32543">
        <ele>61.6</ele>
        <time>2023-04-06T12:34:06Z</time>
      </trkpt>
      <trkpt lat="49.86399" lon="2.3254">
        <ele>61.6</ele>
        <time>2023-04-06T12:34:08Z</time>
      </trkpt>
      <trkpt lat="49.86399" lon="2.32537">
        <ele>61.6</ele>
        <time>2023-04-06T12:34:09Z</time>
      </trkpt>
      <trkpt lat="49.86398" lon="2.32535">
        <ele>61.5</ele>
        <time>2023-04-06T12:34:10Z</time>
      </trkpt>
      <trkpt lat="49.86398" lon="2.32532">
        <ele>61.5</ele>
        <time>2023-04-06T12:34:11Z</time>
      </trkpt>
      <trkpt lat="49.86398" lon="2.3253">
        <ele>61.5</ele>
        <time>2023-04-06T12:34:12Z</time>
      </trkpt>
      <trkpt lat="49.86397" lon="2.32529">
        <ele>61.4</ele>
        <time>2023-04-06T12:34:13Z</time>
      </trkpt>
      <trkpt lat="49.86397" lon="2.32527">
        <ele>61.4</ele>
        <time>2023-04-06T12:34:14Z</time>
      </trkpt>
      <trkpt lat="49.86397" lon="2.32525">
        <ele>61.4</ele>
        <time>2023-04-06T12:34:16Z</time>
      </trkpt>
      <trkpt lat="49.86397" lon="2.32522">
        <ele>61.4</ele>
        <time>2023-04-06T12:34:17Z</time>
      </trkpt>
      <trkpt lat="49.86397" lon="2.3252">
        <ele>61.3</ele>
        <time>2023-04-06T12:34:18Z</time>
      </trkpt>
      <trkpt lat="49.86397" lon="2.32517">
        <ele>61.3</ele>
        <time>2023-04-06T12:34:19Z</time>
      </trkpt>
      <trkpt lat="49.86397" lon="2.32516">
        <ele>61.3</ele>
        <time>2023-04-06T12:34:20Z</time>
      </trkpt>
      <trkpt lat="49.86397" lon="2.32514">
        <ele>61.2</ele>
        <time>2023-04-06T12:34:21Z</time>
      </trkpt>
      <trkpt lat="49.86397" lon="2.32512">
        <ele>61.2</ele>
        <time>2023-04-06T12:34:23Z</time>
      </trkpt>
      <trkpt lat="49.86397" lon="2.3251">
        <ele>61.2</ele>
        <time>2023-04-06T12:34:24Z</time>
      </trkpt>
      <trkpt lat="49.86397" lon="2.32507">
        <ele>61.1</ele>
        <time>2023-04-06T12:34:25Z</time>
      </trkpt>
      <trkpt lat="49.86397" lon="2.32505">
        <ele>61.1</ele>
        <time>2023-04-06T12:34:26Z</time>
      </trkpt>
      <trkpt lat="49.86397" lon="2.32503">
        <ele>61.1</ele>
        <time>2023-04-06T12:34:27Z</time>
      </trkpt>
      <trkpt lat="49.86397" lon="2.325">
        <ele>61.1</ele>
        <time>2023-04-06T12:34:28Z</time>
      </trkpt>
      <trkpt lat="49.86398" lon="2.32498">
        <ele>61</ele>
        <time>2023-04-06T12:34:29Z</time>
      </trkpt>
      <trkpt lat="49.86398" lon="2.32496">
        <ele>61</ele>
        <time>2023-04-06T12:34:30Z</time>
      </trkpt>
      <trkpt lat="49.86398" lon="2.32494">
        <ele>61</ele>
        <time>2023-04-06T12:34:31Z</time>
      </trkpt>
      <trkpt lat="49.86398" lon="2.32492">
        <ele>60.9</ele>
        <time>2023-04-06T12:34:33Z</time>
      </trkpt>
      <trkpt lat="49.86399" lon="2.32489">
        <ele>60.9</ele>
        <time>2023-04-06T12:34:34Z</time>
      </trkpt>
      <trkpt lat="49.86399" lon="2.32487">
        <ele>60.9</ele>
        <time>2023-04-06T12:34:35Z</time>
      </trkpt>
      <trkpt lat="49.86399" lon="2.32485">
        <ele>60.9</ele>
        <time>2023-04-06T12:34:36Z</time>
      </trkpt>
      <trkpt lat="49.86399" lon="2.32483">
        <ele>60.8</ele>
        <time>2023-04-06T12:34:37Z</time>
      </trkpt>
      <trkpt lat="49.86399" lon="2.32481">
        <ele>60.8</ele>
        <time>2023-04-06T12:34:38Z</time>
      </trkpt>
      <trkpt lat="49.86399" lon="2.32479">
        <ele>60.8</ele>
        <time>2023-04-06T12:34:39Z</time>
      </trkpt>
      <trkpt lat="49.86399" lon="2.32477">
        <ele>60.8</ele>
        <time>2023-04-06T12:34:41Z</time>
      </trkpt>
      <trkpt lat="49.86398" lon="2.32475">
        <ele>60.7</ele>
        <time>2023-04-06T12:34:42Z</time>
      </trkpt>
      <trkpt lat="49.86398" lon="2.32473">
        <ele>60.7</ele>
        <time>2023-04-06T12:34:43Z</time>
      </trkpt>
      <trkpt lat="49.86399" lon="2.32469">
        <ele>60.7</ele>
        <time>2023-04-06T12:34:44Z</time>
      </trkpt>
      <trkpt lat="49.86399" lon="2.32468">
        <ele>60.7</ele>
        <time>2023-04-06T12:34:45Z</time>
      </trkpt>
      <trkpt lat="49.86399" lon="2.32466">
        <ele>60.6</ele>
        <time>2023-04-06T12:34:46Z</time>
      </trkpt>
      <trkpt lat="49.86399" lon="2.32464">
        <ele>60.6</ele>
        <time>2023-04-06T12:34:47Z</time>
      </trkpt>
      <trkpt lat="49.86399" lon="2.32462">
        <ele>60.6</ele>
        <time>2023-04-06T12:34:48Z</time>
      </trkpt>
      <trkpt lat="49.86399" lon="2.3246">
        <ele>60.6</ele>
        <time>2023-04-06T12:34:49Z</time>
      </trkpt>
      <trkpt lat="49.86399" lon="2.32457">
        <ele>60.5</ele>
        <time>2023-04-06T12:34:51Z</time>
      </trkpt>
      <trkpt lat="49.86399" lon="2.32454">
        <ele>60.5</ele>
        <time>2023-04-06T12:34:52Z</time>
      </trkpt>
      <trkpt lat="49.86399" lon="2.32452">
        <ele>60.5</ele>
        <time>2023-04-06T12:34:53Z</time>
      </trkpt>
      <trkpt lat="49.86399" lon="2.3245">
        <ele>60.4</ele>
        <time>2023-04-06T12:34:54Z</time>
      </trkpt>
      <trkpt lat="49.864" lon="2.32447">
        <ele>60.4</ele>
        <time>2023-04-06T12:34:55Z</time>
      </trkpt>
      <trkpt lat="49.864" lon="2.32445">
        <ele>60.4</ele>
        <time>2023-04-06T12:34:56Z</time>
      </trkpt>
      <trkpt lat="49.864" lon="2.32444">
        <ele>60.4</ele>
        <time>2023-04-06T12:34:57Z</time>
      </trkpt>
      <trkpt lat="49.864" lon="2.32442">
        <ele>60.4</ele>
        <time>2023-04-06T12:34:58Z</time>
      </trkpt>
      <trkpt lat="49.864" lon="2.3244">
        <ele>60.4</ele>
        <time>2023-04-06T12:34:59Z</time>
      </trkpt>
      <trkpt lat="49.86401" lon="2.32438">
        <ele>60.3</ele>
        <time>2023-04-06T12:35:00Z</time>
      </trkpt>
      <trkpt lat="49.86401" lon="2.32436">
        <ele>60.3</ele>
        <time>2023-04-06T12:35:02Z</time>
      </trkpt>
      <trkpt lat="49.86401" lon="2.32434">
        <ele>60.3</ele>
        <time>2023-04-06T12:35:03Z</time>
      </trkpt>
      <trkpt lat="49.86401" lon="2.32431">
        <ele>60.3</ele>
        <time>2023-04-06T12:35:04Z</time>
      </trkpt>
      <trkpt lat="49.86401" lon="2.32429">
        <ele>60.2</ele>
        <time>2023-04-06T12:35:05Z</time>
      </trkpt>
      <trkpt lat="49.86401" lon="2.32427">
        <ele>60.2</ele>
        <time>2023-04-06T12:35:06Z</time>
      </trkpt>
      <trkpt lat="49.864" lon="2.32425">
        <ele>60.2</ele>
        <time>2023-04-06T12:35:07Z</time>
      </trkpt>
      <trkpt lat="49.86398" lon="2.32423">
        <ele>60.2</ele>
        <time>2023-04-06T12:35:09Z</time>
      </trkpt>
      <trkpt lat="49.86397" lon="2.32422">
        <ele>60.2</ele>
        <time>2023-04-06T12:35:10Z</time>
      </trkpt>
      <trkpt lat="49.86395" lon="2.32422">
        <ele>59.8</ele>
        <time>2023-04-06T12:35:11Z</time>
      </trkpt>
      <trkpt lat="49.86393" lon="2.32422">
        <ele>59.7</ele>
        <time>2023-04-06T12:35:12Z</time>
      </trkpt>
      <trkpt lat="49.86392" lon="2.32422">
        <ele>59.6</ele>
        <time>2023-04-06T12:35:13Z</time>
      </trkpt>
      <trkpt lat="49.86391" lon="2.32423">
        <ele>59.6</ele>
        <time>2023-04-06T12:35:14Z</time>
      </trkpt>
      <trkpt lat="49.8639" lon="2.32424">
        <ele>59.5</ele>
        <time>2023-04-06T12:35:16Z</time>
      </trkpt>
      <trkpt lat="49.86389" lon="2.32424">
        <ele>59.4</ele>
        <time>2023-04-06T12:35:17Z</time>
      </trkpt>
      <trkpt lat="49.86387" lon="2.32425">
        <ele>59.3</ele>
        <time>2023-04-06T12:35:18Z</time>
      </trkpt>
      <trkpt lat="49.86386" lon="2.32425">
        <ele>59.3</ele>
        <time>2023-04-06T12:35:19Z</time>
      </trkpt>
      <trkpt lat="49.86385" lon="2.32426">
        <ele>59.2</ele>
        <time>2023-04-06T12:35:20Z</time>
      </trkpt>
      <trkpt lat="49.86383" lon="2.32427">
        <ele>59.1</ele>
        <time>2023-04-06T12:35:21Z</time>
      </trkpt>
      <trkpt lat="49.86382" lon="2.32427">
        <ele>59.1</ele>
        <time>2023-04-06T12:35:22Z</time>
      </trkpt>
      <trkpt lat="49.86381" lon="2.32427">
        <ele>59</ele>
        <time>2023-04-06T12:35:23Z</time>
      </trkpt>
      <trkpt lat="49.8638" lon="2.32427">
        <ele>59</ele>
        <time>2023-04-06T12:35:24Z</time>
      </trkpt>
      <trkpt lat="49.86379" lon="2.32428">
        <ele>58.9</ele>
        <time>2023-04-06T12:35:25Z</time>
      </trkpt>
      <trkpt lat="49.86377" lon="2.32428">
        <ele>58.8</ele>
        <time>2023-04-06T12:35:27Z</time>
      </trkpt>
      <trkpt lat="49.86376" lon="2.32428">
        <ele>58.7</ele>
        <time>2023-04-06T12:35:28Z</time>
      </trkpt>
      <trkpt lat="49.86374" lon="2.32428">
        <ele>58.6</ele>
        <time>2023-04-06T12:35:29Z</time>
      </trkpt>
      <trkpt lat="49.86373" lon="2.32429">
        <ele>58.6</ele>
        <time>2023-04-06T12:35:30Z</time>
      </trkpt>
      <trkpt lat="49.86372" lon="2.32429">
        <ele>58.5</ele>
        <time>2023-04-06T12:35:31Z</time>
      </trkpt>
      <trkpt lat="49.86371" lon="2.3243">
        <ele>58.5</ele>
        <time>2023-04-06T12:35:32Z</time>
      </trkpt>
      <trkpt lat="49.86369" lon="2.3243">
        <ele>58.4</ele>
        <time>2023-04-06T12:35:33Z</time>
      </trkpt>
      <trkpt lat="49.86368" lon="2.32431">
        <ele>58.3</ele>
        <time>2023-04-06T12:35:34Z</time>
      </trkpt>
      <trkpt lat="49.86366" lon="2.32432">
        <ele>58.2</ele>
        <time>2023-04-06T12:35:35Z</time>
      </trkpt>
      <trkpt lat="49.86365" lon="2.32433">
        <ele>58.2</ele>
        <time>2023-04-06T12:35:36Z</time>
      </trkpt>
      <trkpt lat="49.86364" lon="2.32433">
        <ele>58.1</ele>
        <time>2023-04-06T12:35:37Z</time>
      </trkpt>
      <trkpt lat="49.86363" lon="2.32434">
        <ele>58</ele>
        <time>2023-04-06T12:35:39Z</time>
      </trkpt>
      <trkpt lat="49.86361" lon="2.32436">
        <ele>58</ele>
        <time>2023-04-06T12:35:40Z</time>
      </trkpt>
      <trkpt lat="49.8636" lon="2.32437">
        <ele>57.9</ele>
        <time>2023-04-06T12:35:41Z</time>
      </trkpt>
      <trkpt lat="49.86359" lon="2.32437">
        <ele>57.8</ele>
        <time>2023-04-06T12:35:42Z</time>
      </trkpt>
      <trkpt lat="49.86358" lon="2.32437">
        <ele>57.8</ele>
        <time>2023-04-06T12:35:43Z</time>
      </trkpt>
      <trkpt lat="49.86357" lon="2.32437">
        <ele>57.7</ele>
        <time>2023-04-06T12:35:44Z</time>
      </trkpt>
      <trkpt lat="49.86355" lon="2.32438">
        <ele>57.7</ele>
        <time>2023-04-06T12:35:46Z</time>
      </trkpt>
      <trkpt lat="49.86354" lon="2.32439">
        <ele>57.6</ele>
        <time>2023-04-06T12:35:47Z</time>
      </trkpt>
      <trkpt lat="49.86353" lon="2.32439">
        <ele>57.5</ele>
        <time>2023-04-06T12:35:48Z</time>
      </trkpt>
      <trkpt lat="49.86352" lon="2.3244">
        <ele>57.5</ele>
        <time>2023-04-06T12:35:49Z</time>
      </trkpt>
      <trkpt lat="49.8635" lon="2.32442">
        <ele>57.4</ele>
        <time>2023-04-06T12:35:50Z</time>
      </trkpt>
      <trkpt lat="49.86349" lon="2.32443">
        <ele>57.3</ele>
        <time>2023-04-06T12:35:51Z</time>
      </trkpt>
      <trkpt lat="49.86348" lon="2.32444">
        <ele>57.2</ele>
        <time>2023-04-06T12:35:52Z</time>
      </trkpt>
      <trkpt lat="49.86346" lon="2.32444">
        <ele>57.1</ele>
        <time>2023-04-06T12:35:54Z</time>
      </trkpt>
      <trkpt lat="49.86345" lon="2.32445">
        <ele>57.1</ele>
        <time>2023-04-06T12:35:55Z</time>
      </trkpt>
      <trkpt lat="49.86343" lon="2.32445">
        <ele>57</ele>
        <time>2023-04-06T12:35:56Z</time>
      </trkpt>
      <trkpt lat="49.86341" lon="2.32446">
        <ele>56.9</ele>
        <time>2023-04-06T12:35:57Z</time>
      </trkpt>
      <trkpt lat="49.8634" lon="2.32446">
        <ele>56.8</ele>
        <time>2023-04-06T12:35:58Z</time>
      </trkpt>
      <trkpt lat="49.86339" lon="2.32447">
        <ele>56.8</ele>
        <time>2023-04-06T12:35:59Z</time>
      </trkpt>
      <trkpt lat="49.86337" lon="2.32448">
        <ele>56.6</ele>
        <time>2023-04-06T12:36:00Z</time>
      </trkpt>
      <trkpt lat="49.86336" lon="2.32448">
        <ele>56.6</ele>
        <time>2023-04-06T12:36:02Z</time>
      </trkpt>
      <trkpt lat="49.86335" lon="2.32449">
        <ele>56.6</ele>
        <time>2023-04-06T12:36:03Z</time>
      </trkpt>
      <trkpt lat="49.86333" lon="2.3245">
        <ele>56.4</ele>
        <time>2023-04-06T12:36:04Z</time>
      </trkpt>
      <trkpt lat="49.86332" lon="2.32451">
        <ele>56.4</ele>
        <time>2023-04-06T12:36:05Z</time>
      </trkpt>
      <trkpt lat="49.86332" lon="2.32452">
        <ele>56.3</ele>
        <time>2023-04-06T12:36:06Z</time>
      </trkpt>
      <trkpt lat="49.8633" lon="2.32453">
        <ele>56.2</ele>
        <time>2023-04-06T12:36:07Z</time>
      </trkpt>
      <trkpt lat="49.86329" lon="2.32453">
        <ele>56.2</ele>
        <time>2023-04-06T12:36:08Z</time>
      </trkpt>
      <trkpt lat="49.86328" lon="2.32453">
        <ele>56.2</ele>
        <time>2023-04-06T12:36:09Z</time>
      </trkpt>
      <trkpt lat="49.86326" lon="2.32455">
        <ele>56</ele>
        <time>2023-04-06T12:36:10Z</time>
      </trkpt>
      <trkpt lat="49.86325" lon="2.32455">
        <ele>56</ele>
        <time>2023-04-06T12:36:11Z</time>
      </trkpt>
      <trkpt lat="49.86325" lon="2.32455">
        <ele>56</ele>
        <time>2023-04-06T12:36:12Z</time>
      </trkpt>
      <trkpt lat="49.86323" lon="2.32456">
        <ele>55.9</ele>
        <time>2023-04-06T12:36:13Z</time>
      </trkpt>
      <trkpt lat="49.86322" lon="2.32457">
        <ele>55.8</ele>
        <time>2023-04-06T12:36:15Z</time>
      </trkpt>
      <trkpt lat="49.86321" lon="2.32458">
        <ele>55.8</ele>
        <time>2023-04-06T12:36:16Z</time>
      </trkpt>
      <trkpt lat="49.8632" lon="2.32458">
        <ele>55.7</ele>
        <time>2023-04-06T12:36:17Z</time>
      </trkpt>
      <trkpt lat="49.86319" lon="2.32459">
        <ele>55.7</ele>
        <time>2023-04-06T12:36:18Z</time>
      </trkpt>
      <trkpt lat="49.86318" lon="2.3246">
        <ele>55.6</ele>
        <time>2023-04-06T12:36:19Z</time>
      </trkpt>
      <trkpt lat="49.86317" lon="2.3246">
        <ele>55.6</ele>
        <time>2023-04-06T12:36:20Z</time>
      </trkpt>
      <trkpt lat="49.86316" lon="2.32461">
        <ele>55.5</ele>
        <time>2023-04-06T12:36:21Z</time>
      </trkpt>
      <trkpt lat="49.86315" lon="2.32461">
        <ele>55.5</ele>
        <time>2023-04-06T12:36:22Z</time>
      </trkpt>
      <trkpt lat="49.86314" lon="2.32462">
        <ele>55.4</ele>
        <time>2023-04-06T12:36:24Z</time>
      </trkpt>
      <trkpt lat="49.86312" lon="2.32463">
        <ele>55.3</ele>
        <time>2023-04-06T12:36:25Z</time>
      </trkpt>
      <trkpt lat="49.86311" lon="2.32463">
        <ele>55.2</ele>
        <time>2023-04-06T12:36:26Z</time>
      </trkpt>
      <trkpt lat="49.8631" lon="2.32464">
        <ele>55.1</ele>
        <time>2023-04-06T12:36:27Z</time>
      </trkpt>
      <trkpt lat="49.86308" lon="2.32464">
        <ele>55.1</ele>
        <time>2023-04-06T12:36:28Z</time>
      </trkpt>
      <trkpt lat="49.86307" lon="2.32465">
        <ele>55</ele>
        <time>2023-04-06T12:36:29Z</time>
      </trkpt>
      <trkpt lat="49.86305" lon="2.32466">
        <ele>54.9</ele>
        <time>2023-04-06T12:36:30Z</time>
      </trkpt>
      <trkpt lat="49.86304" lon="2.32466">
        <ele>54.8</ele>
        <time>2023-04-06T12:36:31Z</time>
      </trkpt>
      <trkpt lat="49.86302" lon="2.32467">
        <ele>54.7</ele>
        <time>2023-04-06T12:36:33Z</time>
      </trkpt>
      <trkpt lat="49.863" lon="2.32468">
        <ele>54.6</ele>
        <time>2023-04-06T12:36:34Z</time>
      </trkpt>
      <trkpt lat="49.86299" lon="2.32469">
        <ele>54.6</ele>
        <time>2023-04-06T12:36:35Z</time>
      </trkpt>
      <trkpt lat="49.86298" lon="2.32469">
        <ele>54.5</ele>
        <time>2023-04-06T12:36:36Z</time>
      </trkpt>
      <trkpt lat="49.86297" lon="2.3247">
        <ele>54.4</ele>
        <time>2023-04-06T12:36:38Z</time>
      </trkpt>
      <trkpt lat="49.86295" lon="2.32471">
        <ele>54.4</ele>
        <time>2023-04-06T12:36:39Z</time>
      </trkpt>
      <trkpt lat="49.86294" lon="2.32471">
        <ele>54.3</ele>
        <time>2023-04-06T12:36:40Z</time>
      </trkpt>
      <trkpt lat="49.86292" lon="2.32472">
        <ele>54.2</ele>
        <time>2023-04-06T12:36:41Z</time>
      </trkpt>
      <trkpt lat="49.86291" lon="2.32472">
        <ele>54.1</ele>
        <time>2023-04-06T12:36:42Z</time>
      </trkpt>
      <trkpt lat="49.8629" lon="2.32473">
        <ele>54</ele>
        <time>2023-04-06T12:36:43Z</time>
      </trkpt>
      <trkpt lat="49.86288" lon="2.32474">
        <ele>53.9</ele>
        <time>2023-04-06T12:36:44Z</time>
      </trkpt>
      <trkpt lat="49.86287" lon="2.32475">
        <ele>53.9</ele>
        <time>2023-04-06T12:36:45Z</time>
      </trkpt>
      <trkpt lat="49.86285" lon="2.32476">
        <ele>53.8</ele>
        <time>2023-04-06T12:36:46Z</time>
      </trkpt>
      <trkpt lat="49.86284" lon="2.32476">
        <ele>53.7</ele>
        <time>2023-04-06T12:36:48Z</time>
      </trkpt>
      <trkpt lat="49.86282" lon="2.32477">
        <ele>53.6</ele>
        <time>2023-04-06T12:36:49Z</time>
      </trkpt>
      <trkpt lat="49.86281" lon="2.32478">
        <ele>53.5</ele>
        <time>2023-04-06T12:36:50Z</time>
      </trkpt>
      <trkpt lat="49.86279" lon="2.32478">
        <ele>53.4</ele>
        <time>2023-04-06T12:36:51Z</time>
      </trkpt>
      <trkpt lat="49.86277" lon="2.32479">
        <ele>53.3</ele>
        <time>2023-04-06T12:36:52Z</time>
      </trkpt>
      <trkpt lat="49.86276" lon="2.32479">
        <ele>53.2</ele>
        <time>2023-04-06T12:36:53Z</time>
      </trkpt>
      <trkpt lat="49.86275" lon="2.32479">
        <ele>53.2</ele>
        <time>2023-04-06T12:36:54Z</time>
      </trkpt>
      <trkpt lat="49.86273" lon="2.3248">
        <ele>53.1</ele>
        <time>2023-04-06T12:36:55Z</time>
      </trkpt>
      <trkpt lat="49.86272" lon="2.32481">
        <ele>53</ele>
        <time>2023-04-06T12:36:57Z</time>
      </trkpt>
      <trkpt lat="49.86271" lon="2.32481">
        <ele>52.9</ele>
        <time>2023-04-06T12:36:58Z</time>
      </trkpt>
      <trkpt lat="49.8627" lon="2.32482">
        <ele>52.8</ele>
        <time>2023-04-06T12:36:59Z</time>
      </trkpt>
      <trkpt lat="49.86268" lon="2.32482">
        <ele>52.7</ele>
        <time>2023-04-06T12:37:00Z</time>
      </trkpt>
      <trkpt lat="49.86266" lon="2.32483">
        <ele>52.6</ele>
        <time>2023-04-06T12:37:01Z</time>
      </trkpt>
      <trkpt lat="49.86265" lon="2.32483">
        <ele>52.5</ele>
        <time>2023-04-06T12:37:02Z</time>
      </trkpt>
      <trkpt lat="49.86264" lon="2.32484">
        <ele>52.5</ele>
        <time>2023-04-06T12:37:03Z</time>
      </trkpt>
      <trkpt lat="49.86263" lon="2.32485">
        <ele>52.4</ele>
        <time>2023-04-06T12:37:04Z</time>
      </trkpt>
      <trkpt lat="49.86261" lon="2.32486">
        <ele>52.3</ele>
        <time>2023-04-06T12:37:06Z</time>
      </trkpt>
      <trkpt lat="49.8626" lon="2.32486">
        <ele>52.2</ele>
        <time>2023-04-06T12:37:07Z</time>
      </trkpt>
      <trkpt lat="49.86258" lon="2.32487">
        <ele>52.1</ele>
        <time>2023-04-06T12:37:08Z</time>
      </trkpt>
      <trkpt lat="49.86257" lon="2.32487">
        <ele>52</ele>
        <time>2023-04-06T12:37:09Z</time>
      </trkpt>
      <trkpt lat="49.86256" lon="2.32488">
        <ele>52</ele>
        <time>2023-04-06T12:37:10Z</time>
      </trkpt>
      <trkpt lat="49.86254" lon="2.32488">
        <ele>51.9</ele>
        <time>2023-04-06T12:37:11Z</time>
      </trkpt>
      <trkpt lat="49.86253" lon="2.32489">
        <ele>51.8</ele>
        <time>2023-04-06T12:37:12Z</time>
      </trkpt>
      <trkpt lat="49.86252" lon="2.32489">
        <ele>51.7</ele>
        <time>2023-04-06T12:37:14Z</time>
      </trkpt>
      <trkpt lat="49.8625" lon="2.3249">
        <ele>51.6</ele>
        <time>2023-04-06T12:37:15Z</time>
      </trkpt>
      <trkpt lat="49.86248" lon="2.32491">
        <ele>51.5</ele>
        <time>2023-04-06T12:37:16Z</time>
      </trkpt>
      <trkpt lat="49.86247" lon="2.32492">
        <ele>51.4</ele>
        <time>2023-04-06T12:37:17Z</time>
      </trkpt>
      <trkpt lat="49.86246" lon="2.32492">
        <ele>51.3</ele>
        <time>2023-04-06T12:37:18Z</time>
      </trkpt>
      <trkpt lat="49.86245" lon="2.32493">
        <ele>51.2</ele>
        <time>2023-04-06T12:37:19Z</time>
      </trkpt>
      <trkpt lat="49.86243" lon="2.32494">
        <ele>51.1</ele>
        <time>2023-04-06T12:37:20Z</time>
      </trkpt>
      <trkpt lat="49.86242" lon="2.32494">
        <ele>51</ele>
        <time>2023-04-06T12:37:22Z</time>
      </trkpt>
      <trkpt lat="49.86241" lon="2.32495">
        <ele>51</ele>
        <time>2023-04-06T12:37:23Z</time>
      </trkpt>
      <trkpt lat="49.86239" lon="2.32495">
        <ele>50.9</ele>
        <time>2023-04-06T12:37:24Z</time>
      </trkpt>
      <trkpt lat="49.86238" lon="2.32495">
        <ele>50.8</ele>
        <time>2023-04-06T12:37:25Z</time>
      </trkpt>
      <trkpt lat="49.86236" lon="2.32496">
        <ele>50.7</ele>
        <time>2023-04-06T12:37:26Z</time>
      </trkpt>
      <trkpt lat="49.86235" lon="2.32496">
        <ele>50.7</ele>
        <time>2023-04-06T12:37:27Z</time>
      </trkpt>
      <trkpt lat="49.86235" lon="2.32496">
        <ele>50.6</ele>
        <time>2023-04-06T12:37:28Z</time>
      </trkpt>
      <trkpt lat="49.86233" lon="2.32497">
        <ele>50.5</ele>
        <time>2023-04-06T12:37:29Z</time>
      </trkpt>
      <trkpt lat="49.86232" lon="2.32497">
        <ele>50.4</ele>
        <time>2023-04-06T12:37:30Z</time>
      </trkpt>
      <trkpt lat="49.86231" lon="2.32497">
        <ele>50.4</ele>
        <time>2023-04-06T12:37:31Z</time>
      </trkpt>
      <trkpt lat="49.86229" lon="2.32497">
        <ele>50.3</ele>
        <time>2023-04-06T12:37:32Z</time>
      </trkpt>
      <trkpt lat="49.86228" lon="2.32498">
        <ele>50.2</ele>
        <time>2023-04-06T12:37:34Z</time>
      </trkpt>
      <trkpt lat="49.86227" lon="2.32498">
        <ele>50.2</ele>
        <time>2023-04-06T12:37:35Z</time>
      </trkpt>
      <trkpt lat="49.86226" lon="2.32498">
        <ele>50.1</ele>
        <time>2023-04-06T12:37:36Z</time>
      </trkpt>
      <trkpt lat="49.86224" lon="2.32499">
        <ele>50</ele>
        <time>2023-04-06T12:37:37Z</time>
      </trkpt>
      <trkpt lat="49.86223" lon="2.32499">
        <ele>49.9</ele>
        <time>2023-04-06T12:37:38Z</time>
      </trkpt>
      <trkpt lat="49.86221" lon="2.325">
        <ele>49.8</ele>
        <time>2023-04-06T12:37:40Z</time>
      </trkpt>
      <trkpt lat="49.86219" lon="2.32501">
        <ele>49.7</ele>
        <time>2023-04-06T12:37:41Z</time>
      </trkpt>
      <trkpt lat="49.86218" lon="2.32501">
        <ele>49.6</ele>
        <time>2023-04-06T12:37:42Z</time>
      </trkpt>
      <trkpt lat="49.86217" lon="2.32502">
        <ele>49.6</ele>
        <time>2023-04-06T12:37:43Z</time>
      </trkpt>
      <trkpt lat="49.86215" lon="2.32502">
        <ele>49.5</ele>
        <time>2023-04-06T12:37:44Z</time>
      </trkpt>
      <trkpt lat="49.86213" lon="2.32503">
        <ele>49.3</ele>
        <time>2023-04-06T12:37:45Z</time>
      </trkpt>
      <trkpt lat="49.86212" lon="2.32504">
        <ele>49.2</ele>
        <time>2023-04-06T12:37:46Z</time>
      </trkpt>
      <trkpt lat="49.86209" lon="2.32504">
        <ele>49.1</ele>
        <time>2023-04-06T12:37:48Z</time>
      </trkpt>
      <trkpt lat="49.86209" lon="2.32504">
        <ele>49.1</ele>
        <time>2023-04-06T12:37:49Z</time>
      </trkpt>
      <trkpt lat="49.86208" lon="2.32504">
        <ele>49</ele>
        <time>2023-04-06T12:37:50Z</time>
      </trkpt>
      <trkpt lat="49.86205" lon="2.32506">
        <ele>48.9</ele>
        <time>2023-04-06T12:37:51Z</time>
      </trkpt>
      <trkpt lat="49.86205" lon="2.32506">
        <ele>48.8</ele>
        <time>2023-04-06T12:37:52Z</time>
      </trkpt>
      <trkpt lat="49.86204" lon="2.32506">
        <ele>48.8</ele>
        <time>2023-04-06T12:37:53Z</time>
      </trkpt>
      <trkpt lat="49.86203" lon="2.32507">
        <ele>48.7</ele>
        <time>2023-04-06T12:37:54Z</time>
      </trkpt>
      <trkpt lat="49.86202" lon="2.32507">
        <ele>48.7</ele>
        <time>2023-04-06T12:37:55Z</time>
      </trkpt>
      <trkpt lat="49.86201" lon="2.32508">
        <ele>48.6</ele>
        <time>2023-04-06T12:37:57Z</time>
      </trkpt>
      <trkpt lat="49.862" lon="2.32509">
        <ele>48.5</ele>
        <time>2023-04-06T12:37:58Z</time>
      </trkpt>
      <trkpt lat="49.86198" lon="2.32509">
        <ele>48.5</ele>
        <time>2023-04-06T12:37:59Z</time>
      </trkpt>
      <trkpt lat="49.86197" lon="2.32509">
        <ele>48.4</ele>
        <time>2023-04-06T12:38:00Z</time>
      </trkpt>
      <trkpt lat="49.86195" lon="2.32509">
        <ele>48.2</ele>
        <time>2023-04-06T12:38:01Z</time>
      </trkpt>
      <trkpt lat="49.86194" lon="2.32509">
        <ele>48.2</ele>
        <time>2023-04-06T12:38:02Z</time>
      </trkpt>
      <trkpt lat="49.86193" lon="2.32509">
        <ele>48.2</ele>
        <time>2023-04-06T12:38:03Z</time>
      </trkpt>
      <trkpt lat="49.86191" lon="2.32509">
        <ele>48</ele>
        <time>2023-04-06T12:38:04Z</time>
      </trkpt>
      <trkpt lat="49.8619" lon="2.3251">
        <ele>48</ele>
        <time>2023-04-06T12:38:06Z</time>
      </trkpt>
      <trkpt lat="49.8619" lon="2.3251">
        <ele>47.9</ele>
        <time>2023-04-06T12:38:07Z</time>
      </trkpt>
      <trkpt lat="49.86189" lon="2.32511">
        <ele>47.9</ele>
        <time>2023-04-06T12:38:08Z</time>
      </trkpt>
      <trkpt lat="49.86187" lon="2.32511">
        <ele>47.8</ele>
        <time>2023-04-06T12:38:09Z</time>
      </trkpt>
      <trkpt lat="49.86186" lon="2.32512">
        <ele>47.7</ele>
        <time>2023-04-06T12:38:10Z</time>
      </trkpt>
      <trkpt lat="49.86185" lon="2.32512">
        <ele>47.6</ele>
        <time>2023-04-06T12:38:11Z</time>
      </trkpt>
      <trkpt lat="49.86184" lon="2.32513">
        <ele>47.6</ele>
        <time>2023-04-06T12:38:12Z</time>
      </trkpt>
      <trkpt lat="49.86182" lon="2.32513">
        <ele>47.5</ele>
        <time>2023-04-06T12:38:14Z</time>
      </trkpt>
      <trkpt lat="49.86181" lon="2.32514">
        <ele>47.4</ele>
        <time>2023-04-06T12:38:15Z</time>
      </trkpt>
      <trkpt lat="49.86179" lon="2.32514">
        <ele>47.3</ele>
        <time>2023-04-06T12:38:16Z</time>
      </trkpt>
      <trkpt lat="49.86178" lon="2.32515">
        <ele>47.2</ele>
        <time>2023-04-06T12:38:17Z</time>
      </trkpt>
      <trkpt lat="49.86176" lon="2.32515">
        <ele>47.1</ele>
        <time>2023-04-06T12:38:18Z</time>
      </trkpt>
      <trkpt lat="49.86175" lon="2.32516">
        <ele>47.1</ele>
        <time>2023-04-06T12:38:19Z</time>
      </trkpt>
      <trkpt lat="49.86174" lon="2.32516">
        <ele>47</ele>
        <time>2023-04-06T12:38:20Z</time>
      </trkpt>
      <trkpt lat="49.86172" lon="2.32516">
        <ele>46.9</ele>
        <time>2023-04-06T12:38:22Z</time>
      </trkpt>
      <trkpt lat="49.8617" lon="2.32517">
        <ele>46.8</ele>
        <time>2023-04-06T12:38:23Z</time>
      </trkpt>
      <trkpt lat="49.86169" lon="2.32517">
        <ele>46.7</ele>
        <time>2023-04-06T12:38:24Z</time>
      </trkpt>
      <trkpt lat="49.86168" lon="2.32518">
        <ele>46.7</ele>
        <time>2023-04-06T12:38:25Z</time>
      </trkpt>
      <trkpt lat="49.86167" lon="2.32518">
        <ele>46.6</ele>
        <time>2023-04-06T12:38:26Z</time>
      </trkpt>
      <trkpt lat="49.86165" lon="2.32519">
        <ele>46.5</ele>
        <time>2023-04-06T12:38:27Z</time>
      </trkpt>
      <trkpt lat="49.86163" lon="2.3252">
        <ele>46.4</ele>
        <time>2023-04-06T12:38:28Z</time>
      </trkpt>
      <trkpt lat="49.86162" lon="2.3252">
        <ele>46.3</ele>
        <time>2023-04-06T12:38:30Z</time>
      </trkpt>
      <trkpt lat="49.86162" lon="2.3252">
        <ele>46.3</ele>
        <time>2023-04-06T12:38:31Z</time>
      </trkpt>
      <trkpt lat="49.8616" lon="2.32521">
        <ele>46.2</ele>
        <time>2023-04-06T12:38:32Z</time>
      </trkpt>
      <trkpt lat="49.86159" lon="2.32522">
        <ele>46.1</ele>
        <time>2023-04-06T12:38:33Z</time>
      </trkpt>
      <trkpt lat="49.86157" lon="2.32522">
        <ele>46</ele>
        <time>2023-04-06T12:38:34Z</time>
      </trkpt>
      <trkpt lat="49.86156" lon="2.32523">
        <ele>45.9</ele>
        <time>2023-04-06T12:38:35Z</time>
      </trkpt>
      <trkpt lat="49.86155" lon="2.32523">
        <ele>45.9</ele>
        <time>2023-04-06T12:38:36Z</time>
      </trkpt>
      <trkpt lat="49.86154" lon="2.32523">
        <ele>45.8</ele>
        <time>2023-04-06T12:38:37Z</time>
      </trkpt>
      <trkpt lat="49.86153" lon="2.32523">
        <ele>45.8</ele>
        <time>2023-04-06T12:38:39Z</time>
      </trkpt>
      <trkpt lat="49.86151" lon="2.32524">
        <ele>45.7</ele>
        <time>2023-04-06T12:38:40Z</time>
      </trkpt>
      <trkpt lat="49.8615" lon="2.32525">
        <ele>45.6</ele>
        <time>2023-04-06T12:38:41Z</time>
      </trkpt>
      <trkpt lat="49.86149" lon="2.32525">
        <ele>45.5</ele>
        <time>2023-04-06T12:38:42Z</time>
      </trkpt>
      <trkpt lat="49.86148" lon="2.32525">
        <ele>45.5</ele>
        <time>2023-04-06T12:38:43Z</time>
      </trkpt>
      <trkpt lat="49.86147" lon="2.32525">
        <ele>45.4</ele>
        <time>2023-04-06T12:38:44Z</time>
      </trkpt>
      <trkpt lat="49.86146" lon="2.32526">
        <ele>45.3</ele>
        <time>2023-04-06T12:38:45Z</time>
      </trkpt>
      <trkpt lat="49.86144" lon="2.32526">
        <ele>45.2</ele>
        <time>2023-04-06T12:38:46Z</time>
      </trkpt>
      <trkpt lat="49.86142" lon="2.32526">
        <ele>45.1</ele>
        <time>2023-04-06T12:38:47Z</time>
      </trkpt>
      <trkpt lat="49.8614" lon="2.32527">
        <ele>45</ele>
        <time>2023-04-06T12:38:48Z</time>
      </trkpt>
      <trkpt lat="49.86139" lon="2.32527">
        <ele>44.9</ele>
        <time>2023-04-06T12:38:50Z</time>
      </trkpt>
      <trkpt lat="49.86138" lon="2.32527">
        <ele>44.8</ele>
        <time>2023-04-06T12:38:51Z</time>
      </trkpt>
      <trkpt lat="49.86137" lon="2.32528">
        <ele>44.8</ele>
        <time>2023-04-06T12:38:52Z</time>
      </trkpt>
      <trkpt lat="49.86136" lon="2.32528">
        <ele>44.7</ele>
        <time>2023-04-06T12:38:53Z</time>
      </trkpt>
      <trkpt lat="49.86134" lon="2.32528">
        <ele>44.5</ele>
        <time>2023-04-06T12:38:54Z</time>
      </trkpt>
      <trkpt lat="49.86133" lon="2.32529">
        <ele>44.5</ele>
        <time>2023-04-06T12:38:55Z</time>
      </trkpt>
      <trkpt lat="49.86132" lon="2.32529">
        <ele>44.4</ele>
        <time>2023-04-06T12:38:56Z</time>
      </trkpt>
      <trkpt lat="49.8613" lon="2.3253">
        <ele>44.2</ele>
        <time>2023-04-06T12:38:57Z</time>
      </trkpt>
      <trkpt lat="49.86129" lon="2.3253">
        <ele>44.2</ele>
        <time>2023-04-06T12:38:58Z</time>
      </trkpt>
      <trkpt lat="49.86128" lon="2.32531">
        <ele>44.1</ele>
        <time>2023-04-06T12:38:59Z</time>
      </trkpt>
      <trkpt lat="49.86127" lon="2.32531">
        <ele>44</ele>
        <time>2023-04-06T12:39:01Z</time>
      </trkpt>
      <trkpt lat="49.86126" lon="2.32532">
        <ele>43.9</ele>
        <time>2023-04-06T12:39:02Z</time>
      </trkpt>
      <trkpt lat="49.86125" lon="2.32533">
        <ele>43.9</ele>
        <time>2023-04-06T12:39:03Z</time>
      </trkpt>
      <trkpt lat="49.86124" lon="2.32534">
        <ele>43.8</ele>
        <time>2023-04-06T12:39:04Z</time>
      </trkpt>
      <trkpt lat="49.86122" lon="2.32535">
        <ele>43.6</ele>
        <time>2023-04-06T12:39:05Z</time>
      </trkpt>
      <trkpt lat="49.86122" lon="2.32536">
        <ele>43.6</ele>
        <time>2023-04-06T12:39:06Z</time>
      </trkpt>
      <trkpt lat="49.86121" lon="2.32536">
        <ele>43.5</ele>
        <time>2023-04-06T12:39:07Z</time>
      </trkpt>
      <trkpt lat="49.86119" lon="2.32537">
        <ele>43.4</ele>
        <time>2023-04-06T12:39:09Z</time>
      </trkpt>
      <trkpt lat="49.86118" lon="2.32537">
        <ele>43.3</ele>
        <time>2023-04-06T12:39:10Z</time>
      </trkpt>
      <trkpt lat="49.86116" lon="2.32537">
        <ele>43.2</ele>
        <time>2023-04-06T12:39:11Z</time>
      </trkpt>
      <trkpt lat="49.86114" lon="2.32538">
        <ele>43</ele>
        <time>2023-04-06T12:39:12Z</time>
      </trkpt>
      <trkpt lat="49.86113" lon="2.32538">
        <ele>43</ele>
        <time>2023-04-06T12:39:13Z</time>
      </trkpt>
      <trkpt lat="49.86112" lon="2.32539">
        <ele>42.9</ele>
        <time>2023-04-06T12:39:14Z</time>
      </trkpt>
      <trkpt lat="49.8611" lon="2.32539">
        <ele>42.8</ele>
        <time>2023-04-06T12:39:16Z</time>
      </trkpt>
      <trkpt lat="49.86109" lon="2.32539">
        <ele>42.7</ele>
        <time>2023-04-06T12:39:17Z</time>
      </trkpt>
      <trkpt lat="49.86108" lon="2.3254">
        <ele>42.6</ele>
        <time>2023-04-06T12:39:18Z</time>
      </trkpt>
      <trkpt lat="49.86106" lon="2.3254">
        <ele>42.5</ele>
        <time>2023-04-06T12:39:19Z</time>
      </trkpt>
      <trkpt lat="49.86105" lon="2.3254">
        <ele>42.4</ele>
        <time>2023-04-06T12:39:20Z</time>
      </trkpt>
      <trkpt lat="49.86105" lon="2.32541">
        <ele>42.4</ele>
        <time>2023-04-06T12:39:21Z</time>
      </trkpt>
      <trkpt lat="49.86104" lon="2.32541">
        <ele>42.3</ele>
        <time>2023-04-06T12:39:22Z</time>
      </trkpt>
      <trkpt lat="49.86103" lon="2.32541">
        <ele>42.3</ele>
        <time>2023-04-06T12:39:23Z</time>
      </trkpt>
      <trkpt lat="49.86101" lon="2.32541">
        <ele>42.2</ele>
        <time>2023-04-06T12:39:25Z</time>
      </trkpt>
      <trkpt lat="49.861" lon="2.32541">
        <ele>42.1</ele>
        <time>2023-04-06T12:39:26Z</time>
      </trkpt>
      <trkpt lat="49.86099" lon="2.32542">
        <ele>42</ele>
        <time>2023-04-06T12:39:27Z</time>
      </trkpt>
      <trkpt lat="49.86096" lon="2.32543">
        <ele>41.8</ele>
        <time>2023-04-06T12:39:28Z</time>
      </trkpt>
      <trkpt lat="49.86096" lon="2.32543">
        <ele>41.8</ele>
        <time>2023-04-06T12:39:29Z</time>
      </trkpt>
      <trkpt lat="49.86095" lon="2.32544">
        <ele>41.7</ele>
        <time>2023-04-06T12:39:30Z</time>
      </trkpt>
      <trkpt lat="49.86093" lon="2.32544">
        <ele>41.6</ele>
        <time>2023-04-06T12:39:31Z</time>
      </trkpt>
      <trkpt lat="49.86092" lon="2.32545">
        <ele>41.5</ele>
        <time>2023-04-06T12:39:32Z</time>
      </trkpt>
      <trkpt lat="49.8609" lon="2.32546">
        <ele>41.4</ele>
        <time>2023-04-06T12:39:34Z</time>
      </trkpt>
      <trkpt lat="49.86088" lon="2.32546">
        <ele>41.3</ele>
        <time>2023-04-06T12:39:35Z</time>
      </trkpt>
      <trkpt lat="49.86085" lon="2.32548">
        <ele>41.1</ele>
        <time>2023-04-06T12:39:36Z</time>
      </trkpt>
      <trkpt lat="49.86084" lon="2.32548">
        <ele>41</ele>
        <time>2023-04-06T12:39:37Z</time>
      </trkpt>
      <trkpt lat="49.86083" lon="2.3255">
        <ele>40.9</ele>
        <time>2023-04-06T12:39:38Z</time>
      </trkpt>
      <trkpt lat="49.86082" lon="2.32551">
        <ele>40.8</ele>
        <time>2023-04-06T12:39:39Z</time>
      </trkpt>
      <trkpt lat="49.86081" lon="2.32552">
        <ele>40.8</ele>
        <time>2023-04-06T12:39:40Z</time>
      </trkpt>
      <trkpt lat="49.8608" lon="2.32552">
        <ele>40.7</ele>
        <time>2023-04-06T12:39:42Z</time>
      </trkpt>
      <trkpt lat="49.86079" lon="2.32553">
        <ele>40.6</ele>
        <time>2023-04-06T12:39:43Z</time>
      </trkpt>
      <trkpt lat="49.86078" lon="2.32553">
        <ele>40.6</ele>
        <time>2023-04-06T12:39:44Z</time>
      </trkpt>
      <trkpt lat="49.86077" lon="2.32554">
        <ele>40.5</ele>
        <time>2023-04-06T12:39:45Z</time>
      </trkpt>
      <trkpt lat="49.86075" lon="2.32555">
        <ele>40.4</ele>
        <time>2023-04-06T12:39:46Z</time>
      </trkpt>
      <trkpt lat="49.86074" lon="2.32555">
        <ele>40.3</ele>
        <time>2023-04-06T12:39:47Z</time>
      </trkpt>
      <trkpt lat="49.86073" lon="2.32555">
        <ele>40.2</ele>
        <time>2023-04-06T12:39:48Z</time>
      </trkpt>
      <trkpt lat="49.86072" lon="2.32554">
        <ele>40.1</ele>
        <time>2023-04-06T12:39:50Z</time>
      </trkpt>
      <trkpt lat="49.8607" lon="2.32555">
        <ele>40</ele>
        <time>2023-04-06T12:39:51Z</time>
      </trkpt>
      <trkpt lat="49.86069" lon="2.32555">
        <ele>39.9</ele>
        <time>2023-04-06T12:39:52Z</time>
      </trkpt>
      <trkpt lat="49.86068" lon="2.32556">
        <ele>39.9</ele>
        <time>2023-04-06T12:39:53Z</time>
      </trkpt>
      <trkpt lat="49.86067" lon="2.32556">
        <ele>39.8</ele>
        <time>2023-04-06T12:39:54Z</time>
      </trkpt>
      <trkpt lat="49.86066" lon="2.32556">
        <ele>39.8</ele>
        <time>2023-04-06T12:39:55Z</time>
      </trkpt>
      <trkpt lat="49.86065" lon="2.32556">
        <ele>39.7</ele>
        <time>2023-04-06T12:39:56Z</time>
      </trkpt>
      <trkpt lat="49.86064" lon="2.32557">
        <ele>39.6</ele>
        <time>2023-04-06T12:39:58Z</time>
      </trkpt>
      <trkpt lat="49.86063" lon="2.32558">
        <ele>39.5</ele>
        <time>2023-04-06T12:39:59Z</time>
      </trkpt>
      <trkpt lat="49.86062" lon="2.32558">
        <ele>39.5</ele>
        <time>2023-04-06T12:40:00Z</time>
      </trkpt>
      <trkpt lat="49.8606" lon="2.32559">
        <ele>39.3</ele>
        <time>2023-04-06T12:40:01Z</time>
      </trkpt>
      <trkpt lat="49.86059" lon="2.3256">
        <ele>39.3</ele>
        <time>2023-04-06T12:40:02Z</time>
      </trkpt>
      <trkpt lat="49.86059" lon="2.3256">
        <ele>39.2</ele>
        <time>2023-04-06T12:40:03Z</time>
      </trkpt>
      <trkpt lat="49.86057" lon="2.3256">
        <ele>39.1</ele>
        <time>2023-04-06T12:40:05Z</time>
      </trkpt>
      <trkpt lat="49.86056" lon="2.3256">
        <ele>39</ele>
        <time>2023-04-06T12:40:06Z</time>
      </trkpt>
      <trkpt lat="49.86055" lon="2.3256">
        <ele>38.9</ele>
        <time>2023-04-06T12:40:07Z</time>
      </trkpt>
      <trkpt lat="49.86053" lon="2.32561">
        <ele>38.8</ele>
        <time>2023-04-06T12:40:08Z</time>
      </trkpt>
      <trkpt lat="49.86051" lon="2.32561">
        <ele>38.7</ele>
        <time>2023-04-06T12:40:09Z</time>
      </trkpt>
      <trkpt lat="49.8605" lon="2.32562">
        <ele>38.6</ele>
        <time>2023-04-06T12:40:10Z</time>
      </trkpt>
      <trkpt lat="49.86048" lon="2.32563">
        <ele>38.5</ele>
        <time>2023-04-06T12:40:11Z</time>
      </trkpt>
      <trkpt lat="49.86047" lon="2.32563">
        <ele>38.4</ele>
        <time>2023-04-06T12:40:12Z</time>
      </trkpt>
      <trkpt lat="49.86046" lon="2.32563">
        <ele>38.4</ele>
        <time>2023-04-06T12:40:13Z</time>
      </trkpt>
      <trkpt lat="49.86046" lon="2.32563">
        <ele>38.3</ele>
        <time>2023-04-06T12:40:14Z</time>
      </trkpt>
      <trkpt lat="49.86045" lon="2.32564">
        <ele>38.3</ele>
        <time>2023-04-06T12:40:16Z</time>
      </trkpt>
      <trkpt lat="49.86044" lon="2.32564">
        <ele>38.2</ele>
        <time>2023-04-06T12:40:17Z</time>
      </trkpt>
      <trkpt lat="49.86042" lon="2.32565">
        <ele>38.1</ele>
        <time>2023-04-06T12:40:18Z</time>
      </trkpt>
      <trkpt lat="49.86041" lon="2.32565">
        <ele>38</ele>
        <time>2023-04-06T12:40:19Z</time>
      </trkpt>
      <trkpt lat="49.86041" lon="2.32566">
        <ele>38</ele>
        <time>2023-04-06T12:40:20Z</time>
      </trkpt>
      <trkpt lat="49.8604" lon="2.32566">
        <ele>37.9</ele>
        <time>2023-04-06T12:40:21Z</time>
      </trkpt>
      <trkpt lat="49.86039" lon="2.32567">
        <ele>37.8</ele>
        <time>2023-04-06T12:40:22Z</time>
      </trkpt>
      <trkpt lat="49.86037" lon="2.32568">
        <ele>37.7</ele>
        <time>2023-04-06T12:40:23Z</time>
      </trkpt>
      <trkpt lat="49.86036" lon="2.32569">
        <ele>37.7</ele>
        <time>2023-04-06T12:40:24Z</time>
      </trkpt>
      <trkpt lat="49.86036" lon="2.3257">
        <ele>37.6</ele>
        <time>2023-04-06T12:40:25Z</time>
      </trkpt>
      <trkpt lat="49.86034" lon="2.32571">
        <ele>37.5</ele>
        <time>2023-04-06T12:40:27Z</time>
      </trkpt>
      <trkpt lat="49.86033" lon="2.32572">
        <ele>37.4</ele>
        <time>2023-04-06T12:40:28Z</time>
      </trkpt>
      <trkpt lat="49.86032" lon="2.32572">
        <ele>37.4</ele>
        <time>2023-04-06T12:40:29Z</time>
      </trkpt>
      <trkpt lat="49.8603" lon="2.32573">
        <ele>37.3</ele>
        <time>2023-04-06T12:40:30Z</time>
      </trkpt>
      <trkpt lat="49.86029" lon="2.32574">
        <ele>37.2</ele>
        <time>2023-04-06T12:40:31Z</time>
      </trkpt>
      <trkpt lat="49.86027" lon="2.32575">
        <ele>37.1</ele>
        <time>2023-04-06T12:40:32Z</time>
      </trkpt>
      <trkpt lat="49.86027" lon="2.32575">
        <ele>37</ele>
        <time>2023-04-06T12:40:33Z</time>
      </trkpt>
      <trkpt lat="49.86026" lon="2.32576">
        <ele>37</ele>
        <time>2023-04-06T12:40:34Z</time>
      </trkpt>
      <trkpt lat="49.86025" lon="2.32576">
        <ele>36.9</ele>
        <time>2023-04-06T12:40:35Z</time>
      </trkpt>
      <trkpt lat="49.86024" lon="2.32577">
        <ele>36.8</ele>
        <time>2023-04-06T12:40:36Z</time>
      </trkpt>
      <trkpt lat="49.86022" lon="2.32577">
        <ele>36.8</ele>
        <time>2023-04-06T12:40:38Z</time>
      </trkpt>
      <trkpt lat="49.86019" lon="2.32577">
        <ele>36.6</ele>
        <time>2023-04-06T12:40:39Z</time>
      </trkpt>
      <trkpt lat="49.86018" lon="2.32577">
        <ele>36.6</ele>
        <time>2023-04-06T12:40:40Z</time>
      </trkpt>
      <trkpt lat="49.86016" lon="2.32577">
        <ele>36.5</ele>
        <time>2023-04-06T12:40:41Z</time>
      </trkpt>
      <trkpt lat="49.86015" lon="2.32578">
        <ele>36.4</ele>
        <time>2023-04-06T12:40:42Z</time>
      </trkpt>
      <trkpt lat="49.86014" lon="2.32579">
        <ele>36.4</ele>
        <time>2023-04-06T12:40:43Z</time>
      </trkpt>
      <trkpt lat="49.86013" lon="2.32579">
        <ele>36.3</ele>
        <time>2023-04-06T12:40:44Z</time>
      </trkpt>
      <trkpt lat="49.86011" lon="2.3258">
        <ele>36.3</ele>
        <time>2023-04-06T12:40:45Z</time>
      </trkpt>
      <trkpt lat="49.86011" lon="2.32581">
        <ele>36.2</ele>
        <time>2023-04-06T12:40:46Z</time>
      </trkpt>
      <trkpt lat="49.8601" lon="2.32582">
        <ele>36.2</ele>
        <time>2023-04-06T12:40:47Z</time>
      </trkpt>
      <trkpt lat="49.86008" lon="2.32583">
        <ele>36.1</ele>
        <time>2023-04-06T12:40:49Z</time>
      </trkpt>
      <trkpt lat="49.86007" lon="2.32583">
        <ele>36</ele>
        <time>2023-04-06T12:40:50Z</time>
      </trkpt>
      <trkpt lat="49.86006" lon="2.32583">
        <ele>36</ele>
        <time>2023-04-06T12:40:51Z</time>
      </trkpt>
      <trkpt lat="49.86005" lon="2.32584">
        <ele>36</ele>
        <time>2023-04-06T12:40:52Z</time>
      </trkpt>
      <trkpt lat="49.86004" lon="2.32585">
        <ele>35.9</ele>
        <time>2023-04-06T12:40:53Z</time>
      </trkpt>
      <trkpt lat="49.86003" lon="2.32586">
        <ele>35.9</ele>
        <time>2023-04-06T12:40:54Z</time>
      </trkpt>
      <trkpt lat="49.86001" lon="2.32587">
        <ele>35.8</ele>
        <time>2023-04-06T12:40:55Z</time>
      </trkpt>
      <trkpt lat="49.86" lon="2.32588">
        <ele>35.7</ele>
        <time>2023-04-06T12:40:56Z</time>
      </trkpt>
      <trkpt lat="49.86" lon="2.32588">
        <ele>35.7</ele>
        <time>2023-04-06T12:40:57Z</time>
      </trkpt>
      <trkpt lat="49.85998" lon="2.32589">
        <ele>35.6</ele>
        <time>2023-04-06T12:40:59Z</time>
      </trkpt>
      <trkpt lat="49.85997" lon="2.3259">
        <ele>35.5</ele>
        <time>2023-04-06T12:41:00Z</time>
      </trkpt>
      <trkpt lat="49.85994" lon="2.32591">
        <ele>35.4</ele>
        <time>2023-04-06T12:41:01Z</time>
      </trkpt>
      <trkpt lat="49.85994" lon="2.32591">
        <ele>35.4</ele>
        <time>2023-04-06T12:41:02Z</time>
      </trkpt>
      <trkpt lat="49.85993" lon="2.32592">
        <ele>35.4</ele>
        <time>2023-04-06T12:41:03Z</time>
      </trkpt>
      <trkpt lat="49.85991" lon="2.32592">
        <ele>35.3</ele>
        <time>2023-04-06T12:41:05Z</time>
      </trkpt>
      <trkpt lat="49.8599" lon="2.32593">
        <ele>35.3</ele>
        <time>2023-04-06T12:41:06Z</time>
      </trkpt>
      <trkpt lat="49.85988" lon="2.32595">
        <ele>35.2</ele>
        <time>2023-04-06T12:41:07Z</time>
      </trkpt>
      <trkpt lat="49.85987" lon="2.32596">
        <ele>35.1</ele>
        <time>2023-04-06T12:41:08Z</time>
      </trkpt>
      <trkpt lat="49.85986" lon="2.32598">
        <ele>35.1</ele>
        <time>2023-04-06T12:41:09Z</time>
      </trkpt>
      <trkpt lat="49.85985" lon="2.32599">
        <ele>35</ele>
        <time>2023-04-06T12:41:10Z</time>
      </trkpt>
      <trkpt lat="49.85983" lon="2.32601">
        <ele>34.9</ele>
        <time>2023-04-06T12:41:11Z</time>
      </trkpt>
      <trkpt lat="49.85982" lon="2.32602">
        <ele>34.9</ele>
        <time>2023-04-06T12:41:12Z</time>
      </trkpt>
      <trkpt lat="49.85982" lon="2.32604">
        <ele>34.9</ele>
        <time>2023-04-06T12:41:13Z</time>
      </trkpt>
      <trkpt lat="49.85981" lon="2.32605">
        <ele>34.8</ele>
        <time>2023-04-06T12:41:15Z</time>
      </trkpt>
      <trkpt lat="49.8598" lon="2.32606">
        <ele>34.8</ele>
        <time>2023-04-06T12:41:16Z</time>
      </trkpt>
      <trkpt lat="49.85979" lon="2.32607">
        <ele>34.7</ele>
        <time>2023-04-06T12:41:17Z</time>
      </trkpt>
      <trkpt lat="49.85978" lon="2.32608">
        <ele>34.7</ele>
        <time>2023-04-06T12:41:18Z</time>
      </trkpt>
      <trkpt lat="49.85978" lon="2.32608">
        <ele>34.7</ele>
        <time>2023-04-06T12:41:19Z</time>
      </trkpt>
      <trkpt lat="49.85977" lon="2.32608">
        <ele>34.7</ele>
        <time>2023-04-06T12:41:20Z</time>
      </trkpt>
      <trkpt lat="49.85976" lon="2.32608">
        <ele>34.7</ele>
        <time>2023-04-06T12:41:21Z</time>
      </trkpt>
      <trkpt lat="49.85975" lon="2.32608">
        <ele>34.7</ele>
        <time>2023-04-06T12:41:22Z</time>
      </trkpt>
      <trkpt lat="49.85974" lon="2.32609">
        <ele>34.7</ele>
        <time>2023-04-06T12:41:24Z</time>
      </trkpt>
      <trkpt lat="49.85973" lon="2.32609">
        <ele>34.6</ele>
        <time>2023-04-06T12:41:25Z</time>
      </trkpt>
      <trkpt lat="49.85972" lon="2.3261">
        <ele>34.6</ele>
        <time>2023-04-06T12:41:26Z</time>
      </trkpt>
      <trkpt lat="49.85971" lon="2.3261">
        <ele>34.6</ele>
        <time>2023-04-06T12:41:27Z</time>
      </trkpt>
      <trkpt lat="49.85969" lon="2.32611">
        <ele>34.6</ele>
        <time>2023-04-06T12:41:28Z</time>
      </trkpt>
      <trkpt lat="49.85968" lon="2.32612">
        <ele>34.5</ele>
        <time>2023-04-06T12:41:30Z</time>
      </trkpt>
      <trkpt lat="49.85967" lon="2.32612">
        <ele>34.5</ele>
        <time>2023-04-06T12:41:31Z</time>
      </trkpt>
      <trkpt lat="49.85966" lon="2.32613">
        <ele>34.5</ele>
        <time>2023-04-06T12:41:32Z</time>
      </trkpt>
      <trkpt lat="49.85964" lon="2.32614">
        <ele>34.5</ele>
        <time>2023-04-06T12:41:33Z</time>
      </trkpt>
      <trkpt lat="49.85963" lon="2.32614">
        <ele>34.5</ele>
        <time>2023-04-06T12:41:34Z</time>
      </trkpt>
      <trkpt lat="49.85962" lon="2.32615">
        <ele>34.5</ele>
        <time>2023-04-06T12:41:35Z</time>
      </trkpt>
      <trkpt lat="49.85961" lon="2.32615">
        <ele>34.4</ele>
        <time>2023-04-06T12:41:36Z</time>
      </trkpt>
      <trkpt lat="49.85959" lon="2.32615">
        <ele>34.4</ele>
        <time>2023-04-06T12:41:37Z</time>
      </trkpt>
      <trkpt lat="49.85958" lon="2.32616">
        <ele>34.4</ele>
        <time>2023-04-06T12:41:39Z</time>
      </trkpt>
      <trkpt lat="49.85957" lon="2.32617">
        <ele>34.4</ele>
        <time>2023-04-06T12:41:40Z</time>
      </trkpt>
      <trkpt lat="49.85956" lon="2.32617">
        <ele>34.4</ele>
        <time>2023-04-06T12:41:41Z</time>
      </trkpt>
      <trkpt lat="49.85955" lon="2.32618">
        <ele>34.4</ele>
        <time>2023-04-06T12:41:42Z</time>
      </trkpt>
      <trkpt lat="49.85953" lon="2.32619">
        <ele>34.3</ele>
        <time>2023-04-06T12:41:43Z</time>
      </trkpt>
      <trkpt lat="49.85952" lon="2.32619">
        <ele>34.3</ele>
        <time>2023-04-06T12:41:44Z</time>
      </trkpt>
      <trkpt lat="49.85951" lon="2.3262">
        <ele>34.3</ele>
        <time>2023-04-06T12:41:45Z</time>
      </trkpt>
      <trkpt lat="49.8595" lon="2.3262">
        <ele>34.3</ele>
        <time>2023-04-06T12:41:46Z</time>
      </trkpt>
      <trkpt lat="49.85948" lon="2.32621">
        <ele>34.3</ele>
        <time>2023-04-06T12:41:48Z</time>
      </trkpt>
      <trkpt lat="49.85947" lon="2.32622">
        <ele>34.3</ele>
        <time>2023-04-06T12:41:49Z</time>
      </trkpt>
      <trkpt lat="49.85945" lon="2.32623">
        <ele>34.3</ele>
        <time>2023-04-06T12:41:50Z</time>
      </trkpt>
      <trkpt lat="49.85944" lon="2.32624">
        <ele>34.3</ele>
        <time>2023-04-06T12:41:51Z</time>
      </trkpt>
      <trkpt lat="49.85942" lon="2.32624">
        <ele>34.3</ele>
        <time>2023-04-06T12:41:52Z</time>
      </trkpt>
      <trkpt lat="49.85941" lon="2.32626">
        <ele>34.3</ele>
        <time>2023-04-06T12:41:54Z</time>
      </trkpt>
      <trkpt lat="49.85939" lon="2.32627">
        <ele>34.3</ele>
        <time>2023-04-06T12:41:55Z</time>
      </trkpt>
      <trkpt lat="49.85938" lon="2.32627">
        <ele>34.3</ele>
        <time>2023-04-06T12:41:56Z</time>
      </trkpt>
      <trkpt lat="49.85937" lon="2.32627">
        <ele>34.3</ele>
        <time>2023-04-06T12:41:57Z</time>
      </trkpt>
      <trkpt lat="49.85936" lon="2.32627">
        <ele>34.3</ele>
        <time>2023-04-06T12:41:58Z</time>
      </trkpt>
      <trkpt lat="49.85934" lon="2.32627">
        <ele>34.3</ele>
        <time>2023-04-06T12:41:59Z</time>
      </trkpt>
      <trkpt lat="49.85933" lon="2.32627">
        <ele>34.3</ele>
        <time>2023-04-06T12:42:00Z</time>
      </trkpt>
      <trkpt lat="49.85931" lon="2.32627">
        <ele>34.3</ele>
        <time>2023-04-06T12:42:02Z</time>
      </trkpt>
      <trkpt lat="49.8593" lon="2.32628">
        <ele>34.3</ele>
        <time>2023-04-06T12:42:03Z</time>
      </trkpt>
      <trkpt lat="49.85929" lon="2.32629">
        <ele>34.3</ele>
        <time>2023-04-06T12:42:04Z</time>
      </trkpt>
      <trkpt lat="49.85927" lon="2.32629">
        <ele>34.3</ele>
        <time>2023-04-06T12:42:05Z</time>
      </trkpt>
      <trkpt lat="49.85926" lon="2.3263">
        <ele>34.3</ele>
        <time>2023-04-06T12:42:06Z</time>
      </trkpt>
      <trkpt lat="49.85925" lon="2.3263">
        <ele>34.3</ele>
        <time>2023-04-06T12:42:07Z</time>
      </trkpt>
      <trkpt lat="49.85923" lon="2.32631">
        <ele>34.3</ele>
        <time>2023-04-06T12:42:08Z</time>
      </trkpt>
      <trkpt lat="49.85922" lon="2.32632">
        <ele>34.3</ele>
        <time>2023-04-06T12:42:09Z</time>
      </trkpt>
      <trkpt lat="49.85919" lon="2.32633">
        <ele>34.3</ele>
        <time>2023-04-06T12:42:10Z</time>
      </trkpt>
      <trkpt lat="49.85918" lon="2.32633">
        <ele>34.3</ele>
        <time>2023-04-06T12:42:12Z</time>
      </trkpt>
      <trkpt lat="49.85917" lon="2.32634">
        <ele>34.3</ele>
        <time>2023-04-06T12:42:13Z</time>
      </trkpt>
      <trkpt lat="49.85915" lon="2.32635">
        <ele>34.3</ele>
        <time>2023-04-06T12:42:14Z</time>
      </trkpt>
      <trkpt lat="49.85915" lon="2.32635">
        <ele>34.3</ele>
        <time>2023-04-06T12:42:15Z</time>
      </trkpt>
      <trkpt lat="49.85913" lon="2.32636">
        <ele>34.3</ele>
        <time>2023-04-06T12:42:16Z</time>
      </trkpt>
      <trkpt lat="49.85912" lon="2.32636">
        <ele>34.3</ele>
        <time>2023-04-06T12:42:17Z</time>
      </trkpt>
      <trkpt lat="49.85911" lon="2.32636">
        <ele>34.3</ele>
        <time>2023-04-06T12:42:18Z</time>
      </trkpt>
      <trkpt lat="49.85909" lon="2.32637">
        <ele>34.3</ele>
        <time>2023-04-06T12:42:19Z</time>
      </trkpt>
      <trkpt lat="49.85908" lon="2.32637">
        <ele>34.4</ele>
        <time>2023-04-06T12:42:21Z</time>
      </trkpt>
      <trkpt lat="49.85906" lon="2.32637">
        <ele>34.4</ele>
        <time>2023-04-06T12:42:22Z</time>
      </trkpt>
      <trkpt lat="49.85905" lon="2.32638">
        <ele>34.4</ele>
        <time>2023-04-06T12:42:23Z</time>
      </trkpt>
      <trkpt lat="49.85903" lon="2.32638">
        <ele>34.4</ele>
        <time>2023-04-06T12:42:24Z</time>
      </trkpt>
      <trkpt lat="49.85902" lon="2.32639">
        <ele>34.4</ele>
        <time>2023-04-06T12:42:25Z</time>
      </trkpt>
      <trkpt lat="49.85901" lon="2.32639">
        <ele>34.5</ele>
        <time>2023-04-06T12:42:26Z</time>
      </trkpt>
      <trkpt lat="49.85899" lon="2.32639">
        <ele>34.5</ele>
        <time>2023-04-06T12:42:28Z</time>
      </trkpt>
      <trkpt lat="49.85897" lon="2.3264">
        <ele>34.5</ele>
        <time>2023-04-06T12:42:29Z</time>
      </trkpt>
      <trkpt lat="49.85896" lon="2.3264">
        <ele>34.5</ele>
        <time>2023-04-06T12:42:30Z</time>
      </trkpt>
      <trkpt lat="49.85894" lon="2.3264">
        <ele>34.6</ele>
        <time>2023-04-06T12:42:31Z</time>
      </trkpt>
      <trkpt lat="49.85893" lon="2.3264">
        <ele>34.6</ele>
        <time>2023-04-06T12:42:32Z</time>
      </trkpt>
      <trkpt lat="49.85893" lon="2.3264">
        <ele>34.6</ele>
        <time>2023-04-06T12:42:33Z</time>
      </trkpt>
      <trkpt lat="49.85891" lon="2.3264">
        <ele>34.6</ele>
        <time>2023-04-06T12:42:34Z</time>
      </trkpt>
      <trkpt lat="49.85889" lon="2.3264">
        <ele>34.7</ele>
        <time>2023-04-06T12:42:36Z</time>
      </trkpt>
      <trkpt lat="49.85888" lon="2.3264">
        <ele>34.7</ele>
        <time>2023-04-06T12:42:37Z</time>
      </trkpt>
      <trkpt lat="49.85887" lon="2.3264">
        <ele>34.7</ele>
        <time>2023-04-06T12:42:38Z</time>
      </trkpt>
      <trkpt lat="49.85885" lon="2.3264">
        <ele>34.8</ele>
        <time>2023-04-06T12:42:39Z</time>
      </trkpt>
      <trkpt lat="49.85884" lon="2.3264">
        <ele>34.8</ele>
        <time>2023-04-06T12:42:40Z</time>
      </trkpt>
      <trkpt lat="49.85882" lon="2.3264">
        <ele>34.9</ele>
        <time>2023-04-06T12:42:41Z</time>
      </trkpt>
      <trkpt lat="49.85881" lon="2.3264">
        <ele>34.9</ele>
        <time>2023-04-06T12:42:42Z</time>
      </trkpt>
      <trkpt lat="49.8588" lon="2.32639">
        <ele>35</ele>
        <time>2023-04-06T12:42:44Z</time>
      </trkpt>
      <trkpt lat="49.85878" lon="2.32639">
        <ele>35.1</ele>
        <time>2023-04-06T12:42:45Z</time>
      </trkpt>
      <trkpt lat="49.85877" lon="2.32639">
        <ele>35.1</ele>
        <time>2023-04-06T12:42:46Z</time>
      </trkpt>
      <trkpt lat="49.85876" lon="2.32639">
        <ele>35.1</ele>
        <time>2023-04-06T12:42:47Z</time>
      </trkpt>
      <trkpt lat="49.85874" lon="2.32639">
        <ele>35.2</ele>
        <time>2023-04-06T12:42:48Z</time>
      </trkpt>
      <trkpt lat="49.85872" lon="2.32639">
        <ele>35.3</ele>
        <time>2023-04-06T12:42:49Z</time>
      </trkpt>
      <trkpt lat="49.85871" lon="2.32639">
        <ele>35.4</ele>
        <time>2023-04-06T12:42:50Z</time>
      </trkpt>
      <trkpt lat="49.85869" lon="2.3264">
        <ele>35.4</ele>
        <time>2023-04-06T12:42:51Z</time>
      </trkpt>
      <trkpt lat="49.85868" lon="2.3264">
        <ele>35.5</ele>
        <time>2023-04-06T12:42:52Z</time>
      </trkpt>
      <trkpt lat="49.85866" lon="2.3264">
        <ele>35.6</ele>
        <time>2023-04-06T12:42:54Z</time>
      </trkpt>
      <trkpt lat="49.85864" lon="2.3264">
        <ele>35.7</ele>
        <time>2023-04-06T12:42:55Z</time>
      </trkpt>
      <trkpt lat="49.85863" lon="2.3264">
        <ele>35.8</ele>
        <time>2023-04-06T12:42:56Z</time>
      </trkpt>
      <trkpt lat="49.85861" lon="2.3264">
        <ele>35.9</ele>
        <time>2023-04-06T12:42:57Z</time>
      </trkpt>
      <trkpt lat="49.8586" lon="2.3264">
        <ele>36</ele>
        <time>2023-04-06T12:42:58Z</time>
      </trkpt>
      <trkpt lat="49.85859" lon="2.32639">
        <ele>36.1</ele>
        <time>2023-04-06T12:42:59Z</time>
      </trkpt>
      <trkpt lat="49.85858" lon="2.32639">
        <ele>36.1</ele>
        <time>2023-04-06T12:43:00Z</time>
      </trkpt>
      <trkpt lat="49.85857" lon="2.32639">
        <ele>36.2</ele>
        <time>2023-04-06T12:43:01Z</time>
      </trkpt>
      <trkpt lat="49.85855" lon="2.32638">
        <ele>36.3</ele>
        <time>2023-04-06T12:43:03Z</time>
      </trkpt>
      <trkpt lat="49.85854" lon="2.32638">
        <ele>36.4</ele>
        <time>2023-04-06T12:43:04Z</time>
      </trkpt>
      <trkpt lat="49.85852" lon="2.32638">
        <ele>36.5</ele>
        <time>2023-04-06T12:43:05Z</time>
      </trkpt>
      <trkpt lat="49.8585" lon="2.32638">
        <ele>36.7</ele>
        <time>2023-04-06T12:43:06Z</time>
      </trkpt>
      <trkpt lat="49.85849" lon="2.32637">
        <ele>36.7</ele>
        <time>2023-04-06T12:43:07Z</time>
      </trkpt>
      <trkpt lat="49.85848" lon="2.32637">
        <ele>36.8</ele>
        <time>2023-04-06T12:43:08Z</time>
      </trkpt>
      <trkpt lat="49.85847" lon="2.32637">
        <ele>36.9</ele>
        <time>2023-04-06T12:43:09Z</time>
      </trkpt>
      <trkpt lat="49.85846" lon="2.32637">
        <ele>37</ele>
        <time>2023-04-06T12:43:10Z</time>
      </trkpt>
      <trkpt lat="49.85845" lon="2.32637">
        <ele>37.1</ele>
        <time>2023-04-06T12:43:11Z</time>
      </trkpt>
      <trkpt lat="49.85843" lon="2.32636">
        <ele>37.2</ele>
        <time>2023-04-06T12:43:13Z</time>
      </trkpt>
      <trkpt lat="49.85842" lon="2.32636">
        <ele>37.3</ele>
        <time>2023-04-06T12:43:14Z</time>
      </trkpt>
      <trkpt lat="49.85841" lon="2.32636">
        <ele>37.4</ele>
        <time>2023-04-06T12:43:15Z</time>
      </trkpt>
      <trkpt lat="49.85839" lon="2.32636">
        <ele>37.5</ele>
        <time>2023-04-06T12:43:16Z</time>
      </trkpt>
      <trkpt lat="49.85838" lon="2.32636">
        <ele>37.6</ele>
        <time>2023-04-06T12:43:17Z</time>
      </trkpt>
      <trkpt lat="49.85837" lon="2.32635">
        <ele>37.7</ele>
        <time>2023-04-06T12:43:18Z</time>
      </trkpt>
      <trkpt lat="49.85835" lon="2.32635">
        <ele>37.9</ele>
        <time>2023-04-06T12:43:19Z</time>
      </trkpt>
      <trkpt lat="49.85834" lon="2.32635">
        <ele>37.9</ele>
        <time>2023-04-06T12:43:21Z</time>
      </trkpt>
      <trkpt lat="49.85834" lon="2.32635">
        <ele>38</ele>
        <time>2023-04-06T12:43:22Z</time>
      </trkpt>
      <trkpt lat="49.85833" lon="2.32635">
        <ele>38.1</ele>
        <time>2023-04-06T12:43:23Z</time>
      </trkpt>
      <trkpt lat="49.85831" lon="2.32634">
        <ele>38.2</ele>
        <time>2023-04-06T12:43:24Z</time>
      </trkpt>
      <trkpt lat="49.8583" lon="2.32634">
        <ele>38.2</ele>
        <time>2023-04-06T12:43:25Z</time>
      </trkpt>
      <trkpt lat="49.85829" lon="2.32633">
        <ele>38.4</ele>
        <time>2023-04-06T12:43:26Z</time>
      </trkpt>
      <trkpt lat="49.85828" lon="2.32632">
        <ele>38.5</ele>
        <time>2023-04-06T12:43:27Z</time>
      </trkpt>
      <trkpt lat="49.85826" lon="2.32631">
        <ele>38.6</ele>
        <time>2023-04-06T12:43:28Z</time>
      </trkpt>
      <trkpt lat="49.85825" lon="2.3263">
        <ele>38.7</ele>
        <time>2023-04-06T12:43:30Z</time>
      </trkpt>
      <trkpt lat="49.85824" lon="2.3263">
        <ele>38.8</ele>
        <time>2023-04-06T12:43:31Z</time>
      </trkpt>
      <trkpt lat="49.85822" lon="2.32629">
        <ele>38.9</ele>
        <time>2023-04-06T12:43:32Z</time>
      </trkpt>
      <trkpt lat="49.85821" lon="2.32629">
        <ele>39</ele>
        <time>2023-04-06T12:43:33Z</time>
      </trkpt>
      <trkpt lat="49.8582" lon="2.32628">
        <ele>39.1</ele>
        <time>2023-04-06T12:43:34Z</time>
      </trkpt>
      <trkpt lat="49.85818" lon="2.32628">
        <ele>39.2</ele>
        <time>2023-04-06T12:43:35Z</time>
      </trkpt>
      <trkpt lat="49.85817" lon="2.32628">
        <ele>39.3</ele>
        <time>2023-04-06T12:43:36Z</time>
      </trkpt>
      <trkpt lat="49.85816" lon="2.32627">
        <ele>39.4</ele>
        <time>2023-04-06T12:43:37Z</time>
      </trkpt>
      <trkpt lat="49.85815" lon="2.32627">
        <ele>39.5</ele>
        <time>2023-04-06T12:43:39Z</time>
      </trkpt>
      <trkpt lat="49.85814" lon="2.32627">
        <ele>39.6</ele>
        <time>2023-04-06T12:43:40Z</time>
      </trkpt>
      <trkpt lat="49.85812" lon="2.32626">
        <ele>39.7</ele>
        <time>2023-04-06T12:43:41Z</time>
      </trkpt>
      <trkpt lat="49.85811" lon="2.32626">
        <ele>39.8</ele>
        <time>2023-04-06T12:43:42Z</time>
      </trkpt>
      <trkpt lat="49.8581" lon="2.32626">
        <ele>39.9</ele>
        <time>2023-04-06T12:43:43Z</time>
      </trkpt>
      <trkpt lat="49.85808" lon="2.32626">
        <ele>40</ele>
        <time>2023-04-06T12:43:44Z</time>
      </trkpt>
      <trkpt lat="49.85807" lon="2.32625">
        <ele>40.1</ele>
        <time>2023-04-06T12:43:45Z</time>
      </trkpt>
      <trkpt lat="49.85806" lon="2.32625">
        <ele>40.2</ele>
        <time>2023-04-06T12:43:47Z</time>
      </trkpt>
      <trkpt lat="49.85805" lon="2.32624">
        <ele>40.3</ele>
        <time>2023-04-06T12:43:48Z</time>
      </trkpt>
      <trkpt lat="49.85804" lon="2.32623">
        <ele>40.3</ele>
        <time>2023-04-06T12:43:49Z</time>
      </trkpt>
      <trkpt lat="49.85802" lon="2.32622">
        <ele>40.5</ele>
        <time>2023-04-06T12:43:50Z</time>
      </trkpt>
      <trkpt lat="49.85801" lon="2.32622">
        <ele>40.6</ele>
        <time>2023-04-06T12:43:51Z</time>
      </trkpt>
      <trkpt lat="49.858" lon="2.32621">
        <ele>40.7</ele>
        <time>2023-04-06T12:43:52Z</time>
      </trkpt>
      <trkpt lat="49.85798" lon="2.32621">
        <ele>40.8</ele>
        <time>2023-04-06T12:43:54Z</time>
      </trkpt>
      <trkpt lat="49.85796" lon="2.3262">
        <ele>40.9</ele>
        <time>2023-04-06T12:43:55Z</time>
      </trkpt>
      <trkpt lat="49.85795" lon="2.3262">
        <ele>41</ele>
        <time>2023-04-06T12:43:56Z</time>
      </trkpt>
      <trkpt lat="49.85793" lon="2.32619">
        <ele>41.2</ele>
        <time>2023-04-06T12:43:57Z</time>
      </trkpt>
      <trkpt lat="49.85792" lon="2.32619">
        <ele>41.2</ele>
        <time>2023-04-06T12:43:58Z</time>
      </trkpt>
      <trkpt lat="49.85791" lon="2.32619">
        <ele>41.3</ele>
        <time>2023-04-06T12:43:59Z</time>
      </trkpt>
      <trkpt lat="49.8579" lon="2.32619">
        <ele>41.4</ele>
        <time>2023-04-06T12:44:00Z</time>
      </trkpt>
      <trkpt lat="49.85789" lon="2.32618">
        <ele>41.5</ele>
        <time>2023-04-06T12:44:02Z</time>
      </trkpt>
      <trkpt lat="49.85788" lon="2.32618">
        <ele>41.6</ele>
        <time>2023-04-06T12:44:03Z</time>
      </trkpt>
      <trkpt lat="49.85786" lon="2.32618">
        <ele>41.7</ele>
        <time>2023-04-06T12:44:04Z</time>
      </trkpt>
      <trkpt lat="49.85785" lon="2.32617">
        <ele>41.8</ele>
        <time>2023-04-06T12:44:05Z</time>
      </trkpt>
      <trkpt lat="49.85784" lon="2.32617">
        <ele>41.8</ele>
        <time>2023-04-06T12:44:06Z</time>
      </trkpt>
      <trkpt lat="49.85782" lon="2.32617">
        <ele>42</ele>
        <time>2023-04-06T12:44:07Z</time>
      </trkpt>
      <trkpt lat="49.85781" lon="2.32617">
        <ele>42.1</ele>
        <time>2023-04-06T12:44:09Z</time>
      </trkpt>
      <trkpt lat="49.8578" lon="2.32617">
        <ele>42.1</ele>
        <time>2023-04-06T12:44:10Z</time>
      </trkpt>
      <trkpt lat="49.85779" lon="2.32617">
        <ele>42.2</ele>
        <time>2023-04-06T12:44:11Z</time>
      </trkpt>
      <trkpt lat="49.85778" lon="2.32617">
        <ele>42.3</ele>
        <time>2023-04-06T12:44:12Z</time>
      </trkpt>
      <trkpt lat="49.85777" lon="2.32617">
        <ele>42.4</ele>
        <time>2023-04-06T12:44:13Z</time>
      </trkpt>
      <trkpt lat="49.85775" lon="2.32617">
        <ele>42.5</ele>
        <time>2023-04-06T12:44:14Z</time>
      </trkpt>
      <trkpt lat="49.85774" lon="2.32617">
        <ele>42.6</ele>
        <time>2023-04-06T12:44:15Z</time>
      </trkpt>
      <trkpt lat="49.85772" lon="2.32616">
        <ele>42.7</ele>
        <time>2023-04-06T12:44:17Z</time>
      </trkpt>
      <trkpt lat="49.85771" lon="2.32616">
        <ele>42.8</ele>
        <time>2023-04-06T12:44:18Z</time>
      </trkpt>
      <trkpt lat="49.8577" lon="2.32616">
        <ele>42.9</ele>
        <time>2023-04-06T12:44:19Z</time>
      </trkpt>
      <trkpt lat="49.85768" lon="2.32616">
        <ele>43</ele>
        <time>2023-04-06T12:44:20Z</time>
      </trkpt>
      <trkpt lat="49.85767" lon="2.32616">
        <ele>43.1</ele>
        <time>2023-04-06T12:44:21Z</time>
      </trkpt>
      <trkpt lat="49.85766" lon="2.32616">
        <ele>43.1</ele>
        <time>2023-04-06T12:44:22Z</time>
      </trkpt>
      <trkpt lat="49.85765" lon="2.32616">
        <ele>43.2</ele>
        <time>2023-04-06T12:44:23Z</time>
      </trkpt>
      <trkpt lat="49.85763" lon="2.32616">
        <ele>43.4</ele>
        <time>2023-04-06T12:44:25Z</time>
      </trkpt>
      <trkpt lat="49.85762" lon="2.32616">
        <ele>43.4</ele>
        <time>2023-04-06T12:44:26Z</time>
      </trkpt>
      <trkpt lat="49.8576" lon="2.32616">
        <ele>43.6</ele>
        <time>2023-04-06T12:44:27Z</time>
      </trkpt>
      <trkpt lat="49.85759" lon="2.32617">
        <ele>43.7</ele>
        <time>2023-04-06T12:44:28Z</time>
      </trkpt>
      <trkpt lat="49.85759" lon="2.32617">
        <ele>43.7</ele>
        <time>2023-04-06T12:44:29Z</time>
      </trkpt>
      <trkpt lat="49.85758" lon="2.32618">
        <ele>43.8</ele>
        <time>2023-04-06T12:44:30Z</time>
      </trkpt>
      <trkpt lat="49.85757" lon="2.32618">
        <ele>43.9</ele>
        <time>2023-04-06T12:44:31Z</time>
      </trkpt>
      <trkpt lat="49.85755" lon="2.32618">
        <ele>44</ele>
        <time>2023-04-06T12:44:32Z</time>
      </trkpt>
      <trkpt lat="49.85754" lon="2.32618">
        <ele>44.1</ele>
        <time>2023-04-06T12:44:34Z</time>
      </trkpt>
      <trkpt lat="49.85752" lon="2.32617">
        <ele>44.2</ele>
        <time>2023-04-06T12:44:35Z</time>
      </trkpt>
      <trkpt lat="49.85752" lon="2.32617">
        <ele>44.3</ele>
        <time>2023-04-06T12:44:36Z</time>
      </trkpt>
      <trkpt lat="49.85751" lon="2.32616">
        <ele>44.4</ele>
        <time>2023-04-06T12:44:37Z</time>
      </trkpt>
      <trkpt lat="49.8575" lon="2.32616">
        <ele>44.4</ele>
        <time>2023-04-06T12:44:38Z</time>
      </trkpt>
      <trkpt lat="49.85748" lon="2.32615">
        <ele>44.5</ele>
        <time>2023-04-06T12:44:39Z</time>
      </trkpt>
      <trkpt lat="49.85748" lon="2.32615">
        <ele>44.6</ele>
        <time>2023-04-06T12:44:41Z</time>
      </trkpt>
      <trkpt lat="49.85747" lon="2.32615">
        <ele>44.7</ele>
        <time>2023-04-06T12:44:42Z</time>
      </trkpt>
      <trkpt lat="49.85744" lon="2.32614">
        <ele>44.8</ele>
        <time>2023-04-06T12:44:43Z</time>
      </trkpt>
      <trkpt lat="49.85744" lon="2.32614">
        <ele>44.9</ele>
        <time>2023-04-06T12:44:44Z</time>
      </trkpt>
      <trkpt lat="49.85743" lon="2.32614">
        <ele>45</ele>
        <time>2023-04-06T12:44:45Z</time>
      </trkpt>
      <trkpt lat="49.85742" lon="2.32614">
        <ele>45</ele>
        <time>2023-04-06T12:44:46Z</time>
      </trkpt>
      <trkpt lat="49.85741" lon="2.32614">
        <ele>45.1</ele>
        <time>2023-04-06T12:44:47Z</time>
      </trkpt>
      <trkpt lat="49.8574" lon="2.32613">
        <ele>45.2</ele>
        <time>2023-04-06T12:44:48Z</time>
      </trkpt>
      <trkpt lat="49.85738" lon="2.32613">
        <ele>45.3</ele>
        <time>2023-04-06T12:44:50Z</time>
      </trkpt>
      <trkpt lat="49.85737" lon="2.32613">
        <ele>45.3</ele>
        <time>2023-04-06T12:44:51Z</time>
      </trkpt>
      <trkpt lat="49.85736" lon="2.32612">
        <ele>45.4</ele>
        <time>2023-04-06T12:44:52Z</time>
      </trkpt>
      <trkpt lat="49.85734" lon="2.32612">
        <ele>45.6</ele>
        <time>2023-04-06T12:44:53Z</time>
      </trkpt>
      <trkpt lat="49.85733" lon="2.32612">
        <ele>45.6</ele>
        <time>2023-04-06T12:44:54Z</time>
      </trkpt>
      <trkpt lat="49.85732" lon="2.32612">
        <ele>45.7</ele>
        <time>2023-04-06T12:44:55Z</time>
      </trkpt>
      <trkpt lat="49.85731" lon="2.32611">
        <ele>45.8</ele>
        <time>2023-04-06T12:44:56Z</time>
      </trkpt>
      <trkpt lat="49.8573" lon="2.3261">
        <ele>45.9</ele>
        <time>2023-04-06T12:44:58Z</time>
      </trkpt>
      <trkpt lat="49.85729" lon="2.3261">
        <ele>46</ele>
        <time>2023-04-06T12:44:59Z</time>
      </trkpt>
      <trkpt lat="49.85727" lon="2.32609">
        <ele>46.1</ele>
        <time>2023-04-06T12:45:00Z</time>
      </trkpt>
      <trkpt lat="49.85726" lon="2.32609">
        <ele>46.1</ele>
        <time>2023-04-06T12:45:01Z</time>
      </trkpt>
      <trkpt lat="49.85725" lon="2.32609">
        <ele>46.2</ele>
        <time>2023-04-06T12:45:02Z</time>
      </trkpt>
      <trkpt lat="49.85724" lon="2.32608">
        <ele>46.3</ele>
        <time>2023-04-06T12:45:03Z</time>
      </trkpt>
      <trkpt lat="49.85722" lon="2.32608">
        <ele>46.4</ele>
        <time>2023-04-06T12:45:05Z</time>
      </trkpt>
      <trkpt lat="49.8572" lon="2.32607">
        <ele>46.6</ele>
        <time>2023-04-06T12:45:06Z</time>
      </trkpt>
      <trkpt lat="49.85719" lon="2.32607">
        <ele>46.6</ele>
        <time>2023-04-06T12:45:07Z</time>
      </trkpt>
      <trkpt lat="49.85718" lon="2.32607">
        <ele>46.7</ele>
        <time>2023-04-06T12:45:08Z</time>
      </trkpt>
      <trkpt lat="49.85717" lon="2.32607">
        <ele>46.8</ele>
        <time>2023-04-06T12:45:09Z</time>
      </trkpt>
      <trkpt lat="49.85715" lon="2.32607">
        <ele>46.9</ele>
        <time>2023-04-06T12:45:10Z</time>
      </trkpt>
      <trkpt lat="49.85714" lon="2.32606">
        <ele>47</ele>
        <time>2023-04-06T12:45:12Z</time>
      </trkpt>
      <trkpt lat="49.85712" lon="2.32606">
        <ele>47.1</ele>
        <time>2023-04-06T12:45:13Z</time>
      </trkpt>
      <trkpt lat="49.85711" lon="2.32606">
        <ele>47.2</ele>
        <time>2023-04-06T12:45:14Z</time>
      </trkpt>
      <trkpt lat="49.85709" lon="2.32606">
        <ele>47.3</ele>
        <time>2023-04-06T12:45:15Z</time>
      </trkpt>
      <trkpt lat="49.85708" lon="2.32606">
        <ele>47.4</ele>
        <time>2023-04-06T12:45:16Z</time>
      </trkpt>
      <trkpt lat="49.85707" lon="2.32606">
        <ele>47.4</ele>
        <time>2023-04-06T12:45:17Z</time>
      </trkpt>
      <trkpt lat="49.85706" lon="2.32606">
        <ele>47.5</ele>
        <time>2023-04-06T12:45:19Z</time>
      </trkpt>
      <trkpt lat="49.85704" lon="2.32606">
        <ele>47.6</ele>
        <time>2023-04-06T12:45:20Z</time>
      </trkpt>
      <trkpt lat="49.85703" lon="2.32606">
        <ele>47.7</ele>
        <time>2023-04-06T12:45:21Z</time>
      </trkpt>
      <trkpt lat="49.85701" lon="2.32606">
        <ele>47.8</ele>
        <time>2023-04-06T12:45:22Z</time>
      </trkpt>
      <trkpt lat="49.857" lon="2.32606">
        <ele>47.9</ele>
        <time>2023-04-06T12:45:23Z</time>
      </trkpt>
      <trkpt lat="49.85699" lon="2.32606">
        <ele>47.9</ele>
        <time>2023-04-06T12:45:24Z</time>
      </trkpt>
      <trkpt lat="49.85698" lon="2.32606">
        <ele>48</ele>
        <time>2023-04-06T12:45:25Z</time>
      </trkpt>
      <trkpt lat="49.85697" lon="2.32606">
        <ele>48.1</ele>
        <time>2023-04-06T12:45:26Z</time>
      </trkpt>
      <trkpt lat="49.85696" lon="2.32606">
        <ele>48.1</ele>
        <time>2023-04-06T12:45:27Z</time>
      </trkpt>
      <trkpt lat="49.85695" lon="2.32606">
        <ele>48.2</ele>
        <time>2023-04-06T12:45:29Z</time>
      </trkpt>
      <trkpt lat="49.85694" lon="2.32606">
        <ele>48.3</ele>
        <time>2023-04-06T12:45:30Z</time>
      </trkpt>
      <trkpt lat="49.85692" lon="2.32606">
        <ele>48.4</ele>
        <time>2023-04-06T12:45:31Z</time>
      </trkpt>
      <trkpt lat="49.85691" lon="2.32606">
        <ele>48.4</ele>
        <time>2023-04-06T12:45:32Z</time>
      </trkpt>
      <trkpt lat="49.8569" lon="2.32607">
        <ele>48.5</ele>
        <time>2023-04-06T12:45:33Z</time>
      </trkpt>
      <trkpt lat="49.85689" lon="2.32606">
        <ele>48.6</ele>
        <time>2023-04-06T12:45:34Z</time>
      </trkpt>
      <trkpt lat="49.85687" lon="2.32606">
        <ele>48.7</ele>
        <time>2023-04-06T12:45:35Z</time>
      </trkpt>
      <trkpt lat="49.85684" lon="2.32606">
        <ele>48.8</ele>
        <time>2023-04-06T12:45:37Z</time>
      </trkpt>
      <trkpt lat="49.85683" lon="2.32606">
        <ele>48.9</ele>
        <time>2023-04-06T12:45:38Z</time>
      </trkpt>
      <trkpt lat="49.85682" lon="2.32606">
        <ele>49</ele>
        <time>2023-04-06T12:45:39Z</time>
      </trkpt>
      <trkpt lat="49.85681" lon="2.32606">
        <ele>49</ele>
        <time>2023-04-06T12:45:40Z</time>
      </trkpt>
      <trkpt lat="49.8568" lon="2.32606">
        <ele>49.1</ele>
        <time>2023-04-06T12:45:41Z</time>
      </trkpt>
      <trkpt lat="49.85679" lon="2.32607">
        <ele>49.2</ele>
        <time>2023-04-06T12:45:42Z</time>
      </trkpt>
      <trkpt lat="49.85677" lon="2.32607">
        <ele>49.3</ele>
        <time>2023-04-06T12:45:44Z</time>
      </trkpt>
      <trkpt lat="49.85676" lon="2.32607">
        <ele>49.4</ele>
        <time>2023-04-06T12:45:45Z</time>
      </trkpt>
      <trkpt lat="49.85675" lon="2.32608">
        <ele>49.5</ele>
        <time>2023-04-06T12:45:46Z</time>
      </trkpt>
      <trkpt lat="49.85673" lon="2.32609">
        <ele>49.6</ele>
        <time>2023-04-06T12:45:47Z</time>
      </trkpt>
      <trkpt lat="49.85672" lon="2.32609">
        <ele>49.7</ele>
        <time>2023-04-06T12:45:48Z</time>
      </trkpt>
      <trkpt lat="49.85671" lon="2.32609">
        <ele>49.7</ele>
        <time>2023-04-06T12:45:49Z</time>
      </trkpt>
      <trkpt lat="49.8567" lon="2.3261">
        <ele>49.8</ele>
        <time>2023-04-06T12:45:50Z</time>
      </trkpt>
      <trkpt lat="49.85668" lon="2.3261">
        <ele>49.9</ele>
        <time>2023-04-06T12:45:51Z</time>
      </trkpt>
      <trkpt lat="49.85667" lon="2.3261">
        <ele>50</ele>
        <time>2023-04-06T12:45:53Z</time>
      </trkpt>
      <trkpt lat="49.85666" lon="2.32611">
        <ele>50.1</ele>
        <time>2023-04-06T12:45:54Z</time>
      </trkpt>
      <trkpt lat="49.85664" lon="2.32612">
        <ele>50.2</ele>
        <time>2023-04-06T12:45:55Z</time>
      </trkpt>
      <trkpt lat="49.85663" lon="2.32612">
        <ele>50.2</ele>
        <time>2023-04-06T12:45:56Z</time>
      </trkpt>
      <trkpt lat="49.85662" lon="2.32613">
        <ele>50.3</ele>
        <time>2023-04-06T12:45:57Z</time>
      </trkpt>
      <trkpt lat="49.85661" lon="2.32614">
        <ele>50.4</ele>
        <time>2023-04-06T12:45:58Z</time>
      </trkpt>
      <trkpt lat="49.8566" lon="2.32614">
        <ele>50.4</ele>
        <time>2023-04-06T12:45:59Z</time>
      </trkpt>
      <trkpt lat="49.85659" lon="2.32615">
        <ele>50.5</ele>
        <time>2023-04-06T12:46:01Z</time>
      </trkpt>
      <trkpt lat="49.85658" lon="2.32616">
        <ele>50.6</ele>
        <time>2023-04-06T12:46:02Z</time>
      </trkpt>
      <trkpt lat="49.85657" lon="2.32617">
        <ele>50.7</ele>
        <time>2023-04-06T12:46:03Z</time>
      </trkpt>
      <trkpt lat="49.85656" lon="2.32618">
        <ele>50.8</ele>
        <time>2023-04-06T12:46:04Z</time>
      </trkpt>
      <trkpt lat="49.85655" lon="2.32619">
        <ele>50.8</ele>
        <time>2023-04-06T12:46:05Z</time>
      </trkpt>
      <trkpt lat="49.85653" lon="2.3262">
        <ele>50.9</ele>
        <time>2023-04-06T12:46:06Z</time>
      </trkpt>
      <trkpt lat="49.85653" lon="2.3262">
        <ele>51</ele>
        <time>2023-04-06T12:46:07Z</time>
      </trkpt>
      <trkpt lat="49.85651" lon="2.32622">
        <ele>51.1</ele>
        <time>2023-04-06T12:46:09Z</time>
      </trkpt>
      <trkpt lat="49.85651" lon="2.32623">
        <ele>51.2</ele>
        <time>2023-04-06T12:46:10Z</time>
      </trkpt>
      <trkpt lat="49.85649" lon="2.32625">
        <ele>51.3</ele>
        <time>2023-04-06T12:46:11Z</time>
      </trkpt>
      <trkpt lat="49.85648" lon="2.32626">
        <ele>51.4</ele>
        <time>2023-04-06T12:46:12Z</time>
      </trkpt>
      <trkpt lat="49.85647" lon="2.32627">
        <ele>51.4</ele>
        <time>2023-04-06T12:46:13Z</time>
      </trkpt>
      <trkpt lat="49.85647" lon="2.32628">
        <ele>51.5</ele>
        <time>2023-04-06T12:46:14Z</time>
      </trkpt>
      <trkpt lat="49.85646" lon="2.32629">
        <ele>51.6</ele>
        <time>2023-04-06T12:46:15Z</time>
      </trkpt>
      <trkpt lat="49.85645" lon="2.3263">
        <ele>51.7</ele>
        <time>2023-04-06T12:46:16Z</time>
      </trkpt>
      <trkpt lat="49.85643" lon="2.32631">
        <ele>51.7</ele>
        <time>2023-04-06T12:46:18Z</time>
      </trkpt>
      <trkpt lat="49.85642" lon="2.32632">
        <ele>51.9</ele>
        <time>2023-04-06T12:46:19Z</time>
      </trkpt>
      <trkpt lat="49.85641" lon="2.32634">
        <ele>52</ele>
        <time>2023-04-06T12:46:20Z</time>
      </trkpt>
      <trkpt lat="49.8564" lon="2.32635">
        <ele>52</ele>
        <time>2023-04-06T12:46:21Z</time>
      </trkpt>
      <trkpt lat="49.85639" lon="2.32636">
        <ele>52.1</ele>
        <time>2023-04-06T12:46:22Z</time>
      </trkpt>
      <trkpt lat="49.85638" lon="2.32638">
        <ele>52.2</ele>
        <time>2023-04-06T12:46:23Z</time>
      </trkpt>
      <trkpt lat="49.85637" lon="2.32639">
        <ele>52.3</ele>
        <time>2023-04-06T12:46:24Z</time>
      </trkpt>
      <trkpt lat="49.85637" lon="2.3264">
        <ele>52.4</ele>
        <time>2023-04-06T12:46:26Z</time>
      </trkpt>
      <trkpt lat="49.85636" lon="2.32641">
        <ele>52.4</ele>
        <time>2023-04-06T12:46:27Z</time>
      </trkpt>
      <trkpt lat="49.85635" lon="2.32643">
        <ele>52.6</ele>
        <time>2023-04-06T12:46:28Z</time>
      </trkpt>
      <trkpt lat="49.85634" lon="2.32644">
        <ele>52.6</ele>
        <time>2023-04-06T12:46:29Z</time>
      </trkpt>
      <trkpt lat="49.85633" lon="2.32645">
        <ele>52.7</ele>
        <time>2023-04-06T12:46:30Z</time>
      </trkpt>
      <trkpt lat="49.85633" lon="2.32647">
        <ele>52.8</ele>
        <time>2023-04-06T12:46:31Z</time>
      </trkpt>
      <trkpt lat="49.85632" lon="2.32648">
        <ele>52.9</ele>
        <time>2023-04-06T12:46:32Z</time>
      </trkpt>
      <trkpt lat="49.85631" lon="2.32649">
        <ele>53</ele>
        <time>2023-04-06T12:46:33Z</time>
      </trkpt>
      <trkpt lat="49.8563" lon="2.3265">
        <ele>53</ele>
        <time>2023-04-06T12:46:35Z</time>
      </trkpt>
      <trkpt lat="49.85629" lon="2.32651">
        <ele>53.1</ele>
        <time>2023-04-06T12:46:36Z</time>
      </trkpt>
      <trkpt lat="49.85628" lon="2.32653">
        <ele>53.2</ele>
        <time>2023-04-06T12:46:37Z</time>
      </trkpt>
      <trkpt lat="49.85626" lon="2.32656">
        <ele>53.4</ele>
        <time>2023-04-06T12:46:39Z</time>
      </trkpt>
      <trkpt lat="49.85626" lon="2.32656">
        <ele>53.5</ele>
        <time>2023-04-06T12:46:40Z</time>
      </trkpt>
      <trkpt lat="49.85625" lon="2.32657">
        <ele>53.5</ele>
        <time>2023-04-06T12:46:41Z</time>
      </trkpt>
      <trkpt lat="49.85624" lon="2.32658">
        <ele>53.6</ele>
        <time>2023-04-06T12:46:42Z</time>
      </trkpt>
      <trkpt lat="49.85623" lon="2.3266">
        <ele>53.7</ele>
        <time>2023-04-06T12:46:43Z</time>
      </trkpt>
      <trkpt lat="49.85622" lon="2.32661">
        <ele>53.8</ele>
        <time>2023-04-06T12:46:44Z</time>
      </trkpt>
      <trkpt lat="49.85622" lon="2.32662">
        <ele>53.9</ele>
        <time>2023-04-06T12:46:45Z</time>
      </trkpt>
      <trkpt lat="49.85621" lon="2.32664">
        <ele>54</ele>
        <time>2023-04-06T12:46:47Z</time>
      </trkpt>
      <trkpt lat="49.8562" lon="2.32665">
        <ele>54</ele>
        <time>2023-04-06T12:46:48Z</time>
      </trkpt>
      <trkpt lat="49.85618" lon="2.32667">
        <ele>54.2</ele>
        <time>2023-04-06T12:46:49Z</time>
      </trkpt>
      <trkpt lat="49.85618" lon="2.32668">
        <ele>54.3</ele>
        <time>2023-04-06T12:46:50Z</time>
      </trkpt>
      <trkpt lat="49.85617" lon="2.32669">
        <ele>54.3</ele>
        <time>2023-04-06T12:46:51Z</time>
      </trkpt>
      <trkpt lat="49.85616" lon="2.3267">
        <ele>54.4</ele>
        <time>2023-04-06T12:46:52Z</time>
      </trkpt>
      <trkpt lat="49.85615" lon="2.32672">
        <ele>54.5</ele>
        <time>2023-04-06T12:46:53Z</time>
      </trkpt>
      <trkpt lat="49.85615" lon="2.32673">
        <ele>54.6</ele>
        <time>2023-04-06T12:46:54Z</time>
      </trkpt>
      <trkpt lat="49.85614" lon="2.32675">
        <ele>54.7</ele>
        <time>2023-04-06T12:46:56Z</time>
      </trkpt>
      <trkpt lat="49.85613" lon="2.32676">
        <ele>54.7</ele>
        <time>2023-04-06T12:46:57Z</time>
      </trkpt>
      <trkpt lat="49.85613" lon="2.32677">
        <ele>54.8</ele>
        <time>2023-04-06T12:46:58Z</time>
      </trkpt>
      <trkpt lat="49.85612" lon="2.32679">
        <ele>54.9</ele>
        <time>2023-04-06T12:46:59Z</time>
      </trkpt>
      <trkpt lat="49.85611" lon="2.3268">
        <ele>55</ele>
        <time>2023-04-06T12:47:00Z</time>
      </trkpt>
      <trkpt lat="49.8561" lon="2.32681">
        <ele>55.1</ele>
        <time>2023-04-06T12:47:01Z</time>
      </trkpt>
      <trkpt lat="49.85609" lon="2.32683">
        <ele>55.2</ele>
        <time>2023-04-06T12:47:02Z</time>
      </trkpt>
      <trkpt lat="49.85608" lon="2.32684">
        <ele>55.3</ele>
        <time>2023-04-06T12:47:04Z</time>
      </trkpt>
      <trkpt lat="49.85607" lon="2.32686">
        <ele>55.4</ele>
        <time>2023-04-06T12:47:05Z</time>
      </trkpt>
      <trkpt lat="49.85605" lon="2.32688">
        <ele>55.5</ele>
        <time>2023-04-06T12:47:07Z</time>
      </trkpt>
      <trkpt lat="49.85604" lon="2.32688">
        <ele>55.6</ele>
        <time>2023-04-06T12:47:08Z</time>
      </trkpt>
      <trkpt lat="49.85603" lon="2.32689">
        <ele>55.6</ele>
        <time>2023-04-06T12:47:09Z</time>
      </trkpt>
      <trkpt lat="49.85602" lon="2.3269">
        <ele>55.7</ele>
        <time>2023-04-06T12:47:10Z</time>
      </trkpt>
      <trkpt lat="49.85601" lon="2.32691">
        <ele>55.8</ele>
        <time>2023-04-06T12:47:11Z</time>
      </trkpt>
      <trkpt lat="49.856" lon="2.32693">
        <ele>55.9</ele>
        <time>2023-04-06T12:47:12Z</time>
      </trkpt>
      <trkpt lat="49.85599" lon="2.32695">
        <ele>56</ele>
        <time>2023-04-06T12:47:13Z</time>
      </trkpt>
      <trkpt lat="49.85598" lon="2.32696">
        <ele>56.1</ele>
        <time>2023-04-06T12:47:15Z</time>
      </trkpt>
      <trkpt lat="49.85598" lon="2.32697">
        <ele>56.1</ele>
        <time>2023-04-06T12:47:16Z</time>
      </trkpt>
      <trkpt lat="49.85597" lon="2.32699">
        <ele>56.2</ele>
        <time>2023-04-06T12:47:17Z</time>
      </trkpt>
      <trkpt lat="49.85595" lon="2.32701">
        <ele>56.3</ele>
        <time>2023-04-06T12:47:18Z</time>
      </trkpt>
      <trkpt lat="49.85595" lon="2.32702">
        <ele>56.4</ele>
        <time>2023-04-06T12:47:19Z</time>
      </trkpt>
      <trkpt lat="49.85594" lon="2.32703">
        <ele>56.4</ele>
        <time>2023-04-06T12:47:20Z</time>
      </trkpt>
      <trkpt lat="49.85594" lon="2.32704">
        <ele>56.5</ele>
        <time>2023-04-06T12:47:21Z</time>
      </trkpt>
      <trkpt lat="49.85592" lon="2.32707">
        <ele>56.6</ele>
        <time>2023-04-06T12:47:23Z</time>
      </trkpt>
      <trkpt lat="49.85592" lon="2.32708">
        <ele>56.6</ele>
        <time>2023-04-06T12:47:24Z</time>
      </trkpt>
      <trkpt lat="49.85591" lon="2.32709">
        <ele>56.7</ele>
        <time>2023-04-06T12:47:25Z</time>
      </trkpt>
      <trkpt lat="49.8559" lon="2.32712">
        <ele>56.8</ele>
        <time>2023-04-06T12:47:26Z</time>
      </trkpt>
      <trkpt lat="49.85589" lon="2.32713">
        <ele>56.8</ele>
        <time>2023-04-06T12:47:27Z</time>
      </trkpt>
      <trkpt lat="49.85589" lon="2.32714">
        <ele>56.9</ele>
        <time>2023-04-06T12:47:28Z</time>
      </trkpt>
      <trkpt lat="49.85589" lon="2.32715">
        <ele>56.9</ele>
        <time>2023-04-06T12:47:29Z</time>
      </trkpt>
      <trkpt lat="49.85588" lon="2.32717">
        <ele>57</ele>
        <time>2023-04-06T12:47:31Z</time>
      </trkpt>
      <trkpt lat="49.85587" lon="2.32719">
        <ele>57.1</ele>
        <time>2023-04-06T12:47:32Z</time>
      </trkpt>
      <trkpt lat="49.85586" lon="2.3272">
        <ele>57.1</ele>
        <time>2023-04-06T12:47:33Z</time>
      </trkpt>
      <trkpt lat="49.85585" lon="2.32721">
        <ele>57.2</ele>
        <time>2023-04-06T12:47:34Z</time>
      </trkpt>
      <trkpt lat="49.85584" lon="2.32723">
        <ele>57.2</ele>
        <time>2023-04-06T12:47:36Z</time>
      </trkpt>
      <trkpt lat="49.85583" lon="2.32726">
        <ele>57.4</ele>
        <time>2023-04-06T12:47:37Z</time>
      </trkpt>
      <trkpt lat="49.85582" lon="2.32727">
        <ele>57.4</ele>
        <time>2023-04-06T12:47:38Z</time>
      </trkpt>
      <trkpt lat="49.85582" lon="2.32728">
        <ele>57.4</ele>
        <time>2023-04-06T12:47:39Z</time>
      </trkpt>
      <trkpt lat="49.85581" lon="2.32728">
        <ele>57.5</ele>
        <time>2023-04-06T12:47:40Z</time>
      </trkpt>
      <trkpt lat="49.8558" lon="2.3273">
        <ele>57.5</ele>
        <time>2023-04-06T12:47:41Z</time>
      </trkpt>
      <trkpt lat="49.8558" lon="2.32731">
        <ele>57.6</ele>
        <time>2023-04-06T12:47:42Z</time>
      </trkpt>
      <trkpt lat="49.85579" lon="2.32733">
        <ele>57.7</ele>
        <time>2023-04-06T12:47:43Z</time>
      </trkpt>
      <trkpt lat="49.85578" lon="2.32734">
        <ele>57.7</ele>
        <time>2023-04-06T12:47:44Z</time>
      </trkpt>
      <trkpt lat="49.85577" lon="2.32736">
        <ele>57.8</ele>
        <time>2023-04-06T12:47:46Z</time>
      </trkpt>
      <trkpt lat="49.85576" lon="2.32738">
        <ele>57.9</ele>
        <time>2023-04-06T12:47:47Z</time>
      </trkpt>
      <trkpt lat="49.85575" lon="2.32739">
        <ele>57.9</ele>
        <time>2023-04-06T12:47:48Z</time>
      </trkpt>
      <trkpt lat="49.85574" lon="2.32741">
        <ele>58</ele>
        <time>2023-04-06T12:47:49Z</time>
      </trkpt>
      <trkpt lat="49.85574" lon="2.32743">
        <ele>58</ele>
        <time>2023-04-06T12:47:50Z</time>
      </trkpt>
      <trkpt lat="49.85573" lon="2.32744">
        <ele>58.1</ele>
        <time>2023-04-06T12:47:51Z</time>
      </trkpt>
      <trkpt lat="49.85572" lon="2.32746">
        <ele>58.2</ele>
        <time>2023-04-06T12:47:52Z</time>
      </trkpt>
      <trkpt lat="49.85572" lon="2.32749">
        <ele>58.2</ele>
        <time>2023-04-06T12:47:53Z</time>
      </trkpt>
      <trkpt lat="49.85571" lon="2.3275">
        <ele>58.3</ele>
        <time>2023-04-06T12:47:55Z</time>
      </trkpt>
      <trkpt lat="49.85571" lon="2.32752">
        <ele>58.3</ele>
        <time>2023-04-06T12:47:56Z</time>
      </trkpt>
      <trkpt lat="49.8557" lon="2.32754">
        <ele>58.4</ele>
        <time>2023-04-06T12:47:57Z</time>
      </trkpt>
      <trkpt lat="49.85569" lon="2.32756">
        <ele>58.5</ele>
        <time>2023-04-06T12:47:58Z</time>
      </trkpt>
      <trkpt lat="49.85569" lon="2.32758">
        <ele>58.5</ele>
        <time>2023-04-06T12:47:59Z</time>
      </trkpt>
      <trkpt lat="49.85568" lon="2.32761">
        <ele>58.6</ele>
        <time>2023-04-06T12:48:00Z</time>
      </trkpt>
      <trkpt lat="49.85568" lon="2.32762">
        <ele>58.6</ele>
        <time>2023-04-06T12:48:01Z</time>
      </trkpt>
      <trkpt lat="49.85568" lon="2.32764">
        <ele>58.7</ele>
        <time>2023-04-06T12:48:02Z</time>
      </trkpt>
      <trkpt lat="49.85567" lon="2.32766">
        <ele>58.7</ele>
        <time>2023-04-06T12:48:04Z</time>
      </trkpt>
      <trkpt lat="49.85567" lon="2.32768">
        <ele>58.8</ele>
        <time>2023-04-06T12:48:05Z</time>
      </trkpt>
      <trkpt lat="49.85566" lon="2.3277">
        <ele>58.9</ele>
        <time>2023-04-06T12:48:06Z</time>
      </trkpt>
      <trkpt lat="49.85565" lon="2.32772">
        <ele>58.9</ele>
        <time>2023-04-06T12:48:07Z</time>
      </trkpt>
      <trkpt lat="49.85565" lon="2.32773">
        <ele>59</ele>
        <time>2023-04-06T12:48:08Z</time>
      </trkpt>
      <trkpt lat="49.85564" lon="2.32775">
        <ele>59</ele>
        <time>2023-04-06T12:48:09Z</time>
      </trkpt>
      <trkpt lat="49.85564" lon="2.32777">
        <ele>59.1</ele>
        <time>2023-04-06T12:48:10Z</time>
      </trkpt>
      <trkpt lat="49.85563" lon="2.3278">
        <ele>59.2</ele>
        <time>2023-04-06T12:48:11Z</time>
      </trkpt>
      <trkpt lat="49.85562" lon="2.32782">
        <ele>59.2</ele>
        <time>2023-04-06T12:48:13Z</time>
      </trkpt>
      <trkpt lat="49.85562" lon="2.32783">
        <ele>59.3</ele>
        <time>2023-04-06T12:48:14Z</time>
      </trkpt>
      <trkpt lat="49.85561" lon="2.32784">
        <ele>59.3</ele>
        <time>2023-04-06T12:48:15Z</time>
      </trkpt>
      <trkpt lat="49.85561" lon="2.32786">
        <ele>59.3</ele>
        <time>2023-04-06T12:48:16Z</time>
      </trkpt>
      <trkpt lat="49.8556" lon="2.32787">
        <ele>59.4</ele>
        <time>2023-04-06T12:48:17Z</time>
      </trkpt>
      <trkpt lat="49.8556" lon="2.32789">
        <ele>59.4</ele>
        <time>2023-04-06T12:48:18Z</time>
      </trkpt>
      <trkpt lat="49.85559" lon="2.32791">
        <ele>59.5</ele>
        <time>2023-04-06T12:48:19Z</time>
      </trkpt>
      <trkpt lat="49.85558" lon="2.32793">
        <ele>59.5</ele>
        <time>2023-04-06T12:48:20Z</time>
      </trkpt>
      <trkpt lat="49.85558" lon="2.32794">
        <ele>59.5</ele>
        <time>2023-04-06T12:48:21Z</time>
      </trkpt>
      <trkpt lat="49.85557" lon="2.32796">
        <ele>59.6</ele>
        <time>2023-04-06T12:48:23Z</time>
      </trkpt>
      <trkpt lat="49.85557" lon="2.32799">
        <ele>59.7</ele>
        <time>2023-04-06T12:48:24Z</time>
      </trkpt>
      <trkpt lat="49.85556" lon="2.32801">
        <ele>59.7</ele>
        <time>2023-04-06T12:48:25Z</time>
      </trkpt>
      <trkpt lat="49.85556" lon="2.32802">
        <ele>59.7</ele>
        <time>2023-04-06T12:48:26Z</time>
      </trkpt>
      <trkpt lat="49.85556" lon="2.32804">
        <ele>59.7</ele>
        <time>2023-04-06T12:48:27Z</time>
      </trkpt>
      <trkpt lat="49.85555" lon="2.32805">
        <ele>59.8</ele>
        <time>2023-04-06T12:48:28Z</time>
      </trkpt>
      <trkpt lat="49.85555" lon="2.32807">
        <ele>59.8</ele>
        <time>2023-04-06T12:48:29Z</time>
      </trkpt>
      <trkpt lat="49.85555" lon="2.32809">
        <ele>59.9</ele>
        <time>2023-04-06T12:48:30Z</time>
      </trkpt>
      <trkpt lat="49.85554" lon="2.32811">
        <ele>60</ele>
        <time>2023-04-06T12:48:32Z</time>
      </trkpt>
      <trkpt lat="49.85554" lon="2.32813">
        <ele>60</ele>
        <time>2023-04-06T12:48:33Z</time>
      </trkpt>
      <trkpt lat="49.85554" lon="2.32815">
        <ele>60.1</ele>
        <time>2023-04-06T12:48:35Z</time>
      </trkpt>
      <trkpt lat="49.85554" lon="2.32815">
        <ele>60.1</ele>
        <time>2023-04-06T12:48:36Z</time>
      </trkpt>
      <trkpt lat="49.85554" lon="2.32815">
        <ele>60.1</ele>
        <time>2023-04-06T12:48:37Z</time>
      </trkpt>
      <trkpt lat="49.85554" lon="2.32815">
        <ele>60.1</ele>
        <time>2023-04-06T12:48:38Z</time>
      </trkpt>
      <trkpt lat="49.85554" lon="2.32815">
        <ele>60.1</ele>
        <time>2023-04-06T12:48:40Z</time>
      </trkpt>
      <trkpt lat="49.85554" lon="2.32815">
        <ele>60.1</ele>
        <time>2023-04-06T12:48:41Z</time>
      </trkpt>
      <trkpt lat="49.85554" lon="2.32815">
        <ele>60.1</ele>
        <time>2023-04-06T12:48:43Z</time>
      </trkpt>
      <trkpt lat="49.85554" lon="2.32815">
        <ele>60.1</ele>
        <time>2023-04-06T12:48:44Z</time>
      </trkpt>
      <trkpt lat="49.85554" lon="2.32814">
        <ele>60.1</ele>
        <time>2023-04-06T12:48:46Z</time>
      </trkpt>
      <trkpt lat="49.85554" lon="2.32815">
        <ele>60.1</ele>
        <time>2023-04-06T12:48:47Z</time>
      </trkpt>
      <trkpt lat="49.85554" lon="2.32814">
        <ele>60.1</ele>
        <time>2023-04-06T12:48:48Z</time>
      </trkpt>
      <trkpt lat="49.85554" lon="2.32814">
        <ele>60.1</ele>
        <time>2023-04-06T12:48:50Z</time>
      </trkpt>
      <trkpt lat="49.85554" lon="2.32814">
        <ele>60.1</ele>
        <time>2023-04-06T12:48:51Z</time>
      </trkpt>
      <trkpt lat="49.85554" lon="2.32814">
        <ele>60.1</ele>
        <time>2023-04-06T12:48:52Z</time>
      </trkpt>
      <trkpt lat="49.85554" lon="2.32814">
        <ele>60.1</ele>
        <time>2023-04-06T12:48:53Z</time>
      </trkpt>
      <trkpt lat="49.85554" lon="2.32814">
        <ele>60.1</ele>
        <time>2023-04-06T12:48:54Z</time>
      </trkpt>
      <trkpt lat="49.85554" lon="2.32814">
        <ele>60.1</ele>
        <time>2023-04-06T12:48:55Z</time>
      </trkpt>
      <trkpt lat="49.85554" lon="2.32814">
        <ele>60.1</ele>
        <time>2023-04-06T12:48:56Z</time>
      </trkpt>
      <trkpt lat="49.85554" lon="2.32814">
        <ele>60.1</ele>
        <time>2023-04-06T12:48:57Z</time>
      </trkpt>
      <trkpt lat="49.85554" lon="2.32814">
        <ele>60.1</ele>
        <time>2023-04-06T12:48:58Z</time>
      </trkpt>
      <trkpt lat="49.85554" lon="2.32814">
        <ele>60.1</ele>
        <time>2023-04-06T12:48:59Z</time>
      </trkpt>
      <trkpt lat="49.85554" lon="2.32814">
        <ele>60.1</ele>
        <time>2023-04-06T12:49:00Z</time>
      </trkpt>
      <trkpt lat="49.85554" lon="2.32814">
        <ele>60.1</ele>
        <time>2023-04-06T12:49:01Z</time>
      </trkpt>
      <trkpt lat="49.85554" lon="2.32814">
        <ele>60.1</ele>
        <time>2023-04-06T12:49:02Z</time>
      </trkpt>
      <trkpt lat="49.85554" lon="2.32814">
        <ele>60.1</ele>
        <time>2023-04-06T12:49:03Z</time>
      </trkpt>
      <trkpt lat="49.85554" lon="2.32814">
        <ele>60.1</ele>
        <time>2023-04-06T12:49:04Z</time>
      </trkpt>
      <trkpt lat="49.85554" lon="2.32814">
        <ele>60.1</ele>
        <time>2023-04-06T12:49:05Z</time>
      </trkpt>
      <trkpt lat="49.85554" lon="2.32814">
        <ele>60.1</ele>
        <time>2023-04-06T12:49:06Z</time>
      </trkpt>
      <trkpt lat="49.85554" lon="2.32814">
        <ele>60.1</ele>
        <time>2023-04-06T12:49:07Z</time>
      </trkpt>
      <trkpt lat="49.85554" lon="2.32814">
        <ele>60.1</ele>
        <time>2023-04-06T12:49:08Z</time>
      </trkpt>
      <trkpt lat="49.85554" lon="2.32814">
        <ele>60.1</ele>
        <time>2023-04-06T12:49:09Z</time>
      </trkpt>
      <trkpt lat="49.85554" lon="2.32814">
        <ele>60.1</ele>
        <time>2023-04-06T12:49:10Z</time>
      </trkpt>
      <trkpt lat="49.85554" lon="2.32814">
        <ele>60.1</ele>
        <time>2023-04-06T12:49:11Z</time>
      </trkpt>
      <trkpt lat="49.85554" lon="2.32814">
        <ele>60.1</ele>
        <time>2023-04-06T12:49:12Z</time>
      </trkpt>
      <trkpt lat="49.85554" lon="2.32814">
        <ele>60.1</ele>
        <time>2023-04-06T12:49:13Z</time>
      </trkpt>
      <trkpt lat="49.85554" lon="2.32814">
        <ele>60.1</ele>
        <time>2023-04-06T12:49:14Z</time>
      </trkpt>
      <trkpt lat="49.85555" lon="2.32811">
        <ele>60.2</ele>
        <time>2023-04-06T12:49:15Z</time>
      </trkpt>
      <trkpt lat="49.85555" lon="2.3281">
        <ele>60.2</ele>
        <time>2023-04-06T12:49:16Z</time>
      </trkpt>
      <trkpt lat="49.85554" lon="2.3281">
        <ele>60.2</ele>
        <time>2023-04-06T12:49:17Z</time>
      </trkpt>
      <trkpt lat="49.85554" lon="2.3281">
        <ele>60.3</ele>
        <time>2023-04-06T12:49:18Z</time>
      </trkpt>
      <trkpt lat="49.85554" lon="2.3281">
        <ele>60.3</ele>
        <time>2023-04-06T12:49:19Z</time>
      </trkpt>
      <trkpt lat="49.85554" lon="2.32811">
        <ele>60.3</ele>
        <time>2023-04-06T12:49:20Z</time>
      </trkpt>
      <trkpt lat="49.85554" lon="2.32811">
        <ele>60.3</ele>
        <time>2023-04-06T12:49:21Z</time>
      </trkpt>
      <trkpt lat="49.85554" lon="2.32811">
        <ele>60.3</ele>
        <time>2023-04-06T12:49:22Z</time>
      </trkpt>
      <trkpt lat="49.85554" lon="2.3281">
        <ele>60.3</ele>
        <time>2023-04-06T12:49:23Z</time>
      </trkpt>
      <trkpt lat="49.85554" lon="2.3281">
        <ele>60.3</ele>
        <time>2023-04-06T12:49:24Z</time>
      </trkpt>
      <trkpt lat="49.85554" lon="2.3281">
        <ele>60.3</ele>
        <time>2023-04-06T12:49:25Z</time>
      </trkpt>
      <trkpt lat="49.85554" lon="2.3281">
        <ele>60.3</ele>
        <time>2023-04-06T12:49:26Z</time>
      </trkpt>
      <trkpt lat="49.85554" lon="2.3281">
        <ele>60.3</ele>
        <time>2023-04-06T12:49:27Z</time>
      </trkpt>
      <trkpt lat="49.85554" lon="2.3281">
        <ele>60.3</ele>
        <time>2023-04-06T12:49:28Z</time>
      </trkpt>
      <trkpt lat="49.85554" lon="2.3281">
        <ele>60.3</ele>
        <time>2023-04-06T12:49:29Z</time>
      </trkpt>
      <trkpt lat="49.85554" lon="2.3281">
        <ele>60.3</ele>
        <time>2023-04-06T12:49:30Z</time>
      </trkpt>
      <trkpt lat="49.85554" lon="2.3281">
        <ele>60.3</ele>
        <time>2023-04-06T12:49:31Z</time>
      </trkpt>
      <trkpt lat="49.85554" lon="2.3281">
        <ele>60.3</ele>
        <time>2023-04-06T12:49:32Z</time>
      </trkpt>
      <trkpt lat="49.85554" lon="2.3281">
        <ele>60.3</ele>
        <time>2023-04-06T12:49:33Z</time>
      </trkpt>
      <trkpt lat="49.85554" lon="2.3281">
        <ele>60.3</ele>
        <time>2023-04-06T12:49:34Z</time>
      </trkpt>
      <trkpt lat="49.85554" lon="2.3281">
        <ele>60.3</ele>
        <time>2023-04-06T12:49:35Z</time>
      </trkpt>
      <trkpt lat="49.85554" lon="2.3281">
        <ele>60.3</ele>
        <time>2023-04-06T12:49:36Z</time>
      </trkpt>
      <trkpt lat="49.85554" lon="2.3281">
        <ele>60.3</ele>
        <time>2023-04-06T12:49:37Z</time>
      </trkpt>
      <trkpt lat="49.85554" lon="2.3281">
        <ele>60.3</ele>
        <time>2023-04-06T12:49:38Z</time>
      </trkpt>
      <trkpt lat="49.85554" lon="2.3281">
        <ele>60.3</ele>
        <time>2023-04-06T12:49:39Z</time>
      </trkpt>
      <trkpt lat="49.85554" lon="2.3281">
        <ele>60.3</ele>
        <time>2023-04-06T12:49:40Z</time>
      </trkpt>
      <trkpt lat="49.85554" lon="2.3281">
        <ele>60.3</ele>
        <time>2023-04-06T12:49:41Z</time>
      </trkpt>
      <trkpt lat="49.85554" lon="2.3281">
        <ele>60.3</ele>
        <time>2023-04-06T12:49:42Z</time>
      </trkpt>
      <trkpt lat="49.85554" lon="2.3281">
        <ele>60.3</ele>
        <time>2023-04-06T12:49:43Z</time>
      </trkpt>
      <trkpt lat="49.85554" lon="2.3281">
        <ele>60.3</ele>
        <time>2023-04-06T12:49:44Z</time>
      </trkpt>
      <trkpt lat="49.85554" lon="2.3281">
        <ele>60.3</ele>
        <time>2023-04-06T12:49:45Z</time>
      </trkpt>
      <trkpt lat="49.85554" lon="2.3281">
        <ele>60.3</ele>
        <time>2023-04-06T12:49:46Z</time>
      </trkpt>
      <trkpt lat="49.85554" lon="2.3281">
        <ele>60.3</ele>
        <time>2023-04-06T12:49:47Z</time>
      </trkpt>
      <trkpt lat="49.85555" lon="2.32809">
        <ele>60.3</ele>
        <time>2023-04-06T12:49:48Z</time>
      </trkpt>
      <trkpt lat="49.85554" lon="2.32809">
        <ele>60.3</ele>
        <time>2023-04-06T12:49:49Z</time>
      </trkpt>
      <trkpt lat="49.85554" lon="2.3281">
        <ele>60.3</ele>
        <time>2023-04-06T12:49:50Z</time>
      </trkpt>
      <trkpt lat="49.85554" lon="2.32811">
        <ele>60.4</ele>
        <time>2023-04-06T12:49:51Z</time>
      </trkpt>
      <trkpt lat="49.85554" lon="2.32812">
        <ele>60.4</ele>
        <time>2023-04-06T12:49:52Z</time>
      </trkpt>
      <trkpt lat="49.85554" lon="2.32813">
        <ele>60.4</ele>
        <time>2023-04-06T12:49:53Z</time>
      </trkpt>
      <trkpt lat="49.85554" lon="2.32814">
        <ele>60.4</ele>
        <time>2023-04-06T12:49:54Z</time>
      </trkpt>
      <trkpt lat="49.85554" lon="2.32814">
        <ele>60.4</ele>
        <time>2023-04-06T12:49:55Z</time>
      </trkpt>
      <trkpt lat="49.85555" lon="2.32815">
        <ele>60.5</ele>
        <time>2023-04-06T12:49:56Z</time>
      </trkpt>
      <trkpt lat="49.85555" lon="2.32815">
        <ele>60.5</ele>
        <time>2023-04-06T12:49:57Z</time>
      </trkpt>
      <trkpt lat="49.85557" lon="2.32818">
        <ele>60.6</ele>
        <time>2023-04-06T12:49:58Z</time>
      </trkpt>
      <trkpt lat="49.85557" lon="2.3282">
        <ele>60.6</ele>
        <time>2023-04-06T12:49:59Z</time>
      </trkpt>
      <trkpt lat="49.85558" lon="2.32821">
        <ele>60.7</ele>
        <time>2023-04-06T12:50:01Z</time>
      </trkpt>
      <trkpt lat="49.85559" lon="2.32823">
        <ele>60.8</ele>
        <time>2023-04-06T12:50:02Z</time>
      </trkpt>
      <trkpt lat="49.8556" lon="2.32825">
        <ele>60.8</ele>
        <time>2023-04-06T12:50:03Z</time>
      </trkpt>
      <trkpt lat="49.8556" lon="2.32827">
        <ele>60.9</ele>
        <time>2023-04-06T12:50:04Z</time>
      </trkpt>
      <trkpt lat="49.85561" lon="2.3283">
        <ele>61</ele>
        <time>2023-04-06T12:50:05Z</time>
      </trkpt>
      <trkpt lat="49.85563" lon="2.32833">
        <ele>61.1</ele>
        <time>2023-04-06T12:50:06Z</time>
      </trkpt>
      <trkpt lat="49.85564" lon="2.32835">
        <ele>61.2</ele>
        <time>2023-04-06T12:50:08Z</time>
      </trkpt>
      <trkpt lat="49.85564" lon="2.32837">
        <ele>61.3</ele>
        <time>2023-04-06T12:50:09Z</time>
      </trkpt>
      <trkpt lat="49.85565" lon="2.32838">
        <ele>61.3</ele>
        <time>2023-04-06T12:50:10Z</time>
      </trkpt>
      <trkpt lat="49.85566" lon="2.3284">
        <ele>61.4</ele>
        <time>2023-04-06T12:50:11Z</time>
      </trkpt>
      <trkpt lat="49.85568" lon="2.32842">
        <ele>61.5</ele>
        <time>2023-04-06T12:50:12Z</time>
      </trkpt>
      <trkpt lat="49.85569" lon="2.32843">
        <ele>61.6</ele>
        <time>2023-04-06T12:50:13Z</time>
      </trkpt>
      <trkpt lat="49.8557" lon="2.32846">
        <ele>61.7</ele>
        <time>2023-04-06T12:50:14Z</time>
      </trkpt>
      <trkpt lat="49.8557" lon="2.32849">
        <ele>61.8</ele>
        <time>2023-04-06T12:50:16Z</time>
      </trkpt>
      <trkpt lat="49.85571" lon="2.32851">
        <ele>61.9</ele>
        <time>2023-04-06T12:50:17Z</time>
      </trkpt>
      <trkpt lat="49.85571" lon="2.32852">
        <ele>61.9</ele>
        <time>2023-04-06T12:50:18Z</time>
      </trkpt>
      <trkpt lat="49.85571" lon="2.32852">
        <ele>62</ele>
        <time>2023-04-06T12:50:19Z</time>
      </trkpt>
      <trkpt lat="49.85572" lon="2.32853">
        <ele>62</ele>
        <time>2023-04-06T12:50:20Z</time>
      </trkpt>
      <trkpt lat="49.85573" lon="2.32854">
        <ele>62.1</ele>
        <time>2023-04-06T12:50:21Z</time>
      </trkpt>
      <trkpt lat="49.85573" lon="2.32855">
        <ele>62.1</ele>
        <time>2023-04-06T12:50:23Z</time>
      </trkpt>
      <trkpt lat="49.85574" lon="2.32856">
        <ele>62.2</ele>
        <time>2023-04-06T12:50:24Z</time>
      </trkpt>
      <trkpt lat="49.85575" lon="2.32858">
        <ele>62.3</ele>
        <time>2023-04-06T12:50:25Z</time>
      </trkpt>
      <trkpt lat="49.85575" lon="2.3286">
        <ele>62.3</ele>
        <time>2023-04-06T12:50:26Z</time>
      </trkpt>
      <trkpt lat="49.85576" lon="2.3286">
        <ele>62.4</ele>
        <time>2023-04-06T12:50:27Z</time>
      </trkpt>
      <trkpt lat="49.85577" lon="2.32861">
        <ele>62.4</ele>
        <time>2023-04-06T12:50:28Z</time>
      </trkpt>
      <trkpt lat="49.85577" lon="2.32862">
        <ele>62.4</ele>
        <time>2023-04-06T12:50:29Z</time>
      </trkpt>
      <trkpt lat="49.85578" lon="2.32864">
        <ele>62.5</ele>
        <time>2023-04-06T12:50:31Z</time>
      </trkpt>
      <trkpt lat="49.85578" lon="2.32866">
        <ele>62.6</ele>
        <time>2023-04-06T12:50:32Z</time>
      </trkpt>
      <trkpt lat="49.85579" lon="2.32868">
        <ele>62.7</ele>
        <time>2023-04-06T12:50:33Z</time>
      </trkpt>
      <trkpt lat="49.85579" lon="2.32869">
        <ele>62.8</ele>
        <time>2023-04-06T12:50:35Z</time>
      </trkpt>
      <trkpt lat="49.8558" lon="2.3287">
        <ele>62.8</ele>
        <time>2023-04-06T12:50:36Z</time>
      </trkpt>
      <trkpt lat="49.8558" lon="2.32871">
        <ele>62.8</ele>
        <time>2023-04-06T12:50:37Z</time>
      </trkpt>
      <trkpt lat="49.8558" lon="2.32873">
        <ele>62.9</ele>
        <time>2023-04-06T12:50:38Z</time>
      </trkpt>
      <trkpt lat="49.85581" lon="2.32874">
        <ele>63</ele>
        <time>2023-04-06T12:50:40Z</time>
      </trkpt>
      <trkpt lat="49.85581" lon="2.32876">
        <ele>63.1</ele>
        <time>2023-04-06T12:50:41Z</time>
      </trkpt>
      <trkpt lat="49.85582" lon="2.32878">
        <ele>63.2</ele>
        <time>2023-04-06T12:50:42Z</time>
      </trkpt>
      <trkpt lat="49.85582" lon="2.32878">
        <ele>63.2</ele>
        <time>2023-04-06T12:50:43Z</time>
      </trkpt>
      <trkpt lat="49.85583" lon="2.3288">
        <ele>63.3</ele>
        <time>2023-04-06T12:50:44Z</time>
      </trkpt>
      <trkpt lat="49.85585" lon="2.32882">
        <ele>63.4</ele>
        <time>2023-04-06T12:50:45Z</time>
      </trkpt>
      <trkpt lat="49.85586" lon="2.32883">
        <ele>63.5</ele>
        <time>2023-04-06T12:50:46Z</time>
      </trkpt>
      <trkpt lat="49.85586" lon="2.32884">
        <ele>63.6</ele>
        <time>2023-04-06T12:50:47Z</time>
      </trkpt>
      <trkpt lat="49.85587" lon="2.32885">
        <ele>63.7</ele>
        <time>2023-04-06T12:50:49Z</time>
      </trkpt>
      <trkpt lat="49.85589" lon="2.32887">
        <ele>63.8</ele>
        <time>2023-04-06T12:50:50Z</time>
      </trkpt>
      <trkpt lat="49.8559" lon="2.32888">
        <ele>63.9</ele>
        <time>2023-04-06T12:50:51Z</time>
      </trkpt>
      <trkpt lat="49.85591" lon="2.32889">
        <ele>64</ele>
        <time>2023-04-06T12:50:52Z</time>
      </trkpt>
      <trkpt lat="49.85591" lon="2.3289">
        <ele>64.1</ele>
        <time>2023-04-06T12:50:53Z</time>
      </trkpt>
      <trkpt lat="49.85592" lon="2.32892">
        <ele>64.2</ele>
        <time>2023-04-06T12:50:54Z</time>
      </trkpt>
      <trkpt lat="49.85593" lon="2.32893">
        <ele>64.3</ele>
        <time>2023-04-06T12:50:55Z</time>
      </trkpt>
      <trkpt lat="49.85594" lon="2.32895">
        <ele>64.4</ele>
        <time>2023-04-06T12:50:57Z</time>
      </trkpt>
      <trkpt lat="49.85595" lon="2.32896">
        <ele>64.5</ele>
        <time>2023-04-06T12:50:58Z</time>
      </trkpt>
      <trkpt lat="49.85596" lon="2.32898">
        <ele>64.6</ele>
        <time>2023-04-06T12:50:59Z</time>
      </trkpt>
      <trkpt lat="49.85597" lon="2.32898">
        <ele>64.7</ele>
        <time>2023-04-06T12:51:00Z</time>
      </trkpt>
      <trkpt lat="49.85597" lon="2.32899">
        <ele>64.8</ele>
        <time>2023-04-06T12:51:01Z</time>
      </trkpt>
      <trkpt lat="49.85598" lon="2.329">
        <ele>64.8</ele>
        <time>2023-04-06T12:51:02Z</time>
      </trkpt>
      <trkpt lat="49.85599" lon="2.32901">
        <ele>64.9</ele>
        <time>2023-04-06T12:51:03Z</time>
      </trkpt>
      <trkpt lat="49.85601" lon="2.32903">
        <ele>65.1</ele>
        <time>2023-04-06T12:51:05Z</time>
      </trkpt>
      <trkpt lat="49.85602" lon="2.32904">
        <ele>65.2</ele>
        <time>2023-04-06T12:51:06Z</time>
      </trkpt>
      <trkpt lat="49.85602" lon="2.32905">
        <ele>65.2</ele>
        <time>2023-04-06T12:51:07Z</time>
      </trkpt>
      <trkpt lat="49.85603" lon="2.32906">
        <ele>65.3</ele>
        <time>2023-04-06T12:51:08Z</time>
      </trkpt>
      <trkpt lat="49.85604" lon="2.32908">
        <ele>65.5</ele>
        <time>2023-04-06T12:51:09Z</time>
      </trkpt>
      <trkpt lat="49.85604" lon="2.32909">
        <ele>65.5</ele>
        <time>2023-04-06T12:51:10Z</time>
      </trkpt>
      <trkpt lat="49.85606" lon="2.32912">
        <ele>65.7</ele>
        <time>2023-04-06T12:51:11Z</time>
      </trkpt>
      <trkpt lat="49.85606" lon="2.32913">
        <ele>65.8</ele>
        <time>2023-04-06T12:51:13Z</time>
      </trkpt>
      <trkpt lat="49.85607" lon="2.32914">
        <ele>65.9</ele>
        <time>2023-04-06T12:51:14Z</time>
      </trkpt>
      <trkpt lat="49.85608" lon="2.32915">
        <ele>66</ele>
        <time>2023-04-06T12:51:15Z</time>
      </trkpt>
      <trkpt lat="49.85608" lon="2.32916">
        <ele>66</ele>
        <time>2023-04-06T12:51:16Z</time>
      </trkpt>
      <trkpt lat="49.85609" lon="2.32917">
        <ele>66.2</ele>
        <time>2023-04-06T12:51:17Z</time>
      </trkpt>
      <trkpt lat="49.8561" lon="2.32918">
        <ele>66.2</ele>
        <time>2023-04-06T12:51:19Z</time>
      </trkpt>
      <trkpt lat="49.85611" lon="2.32921">
        <ele>66.4</ele>
        <time>2023-04-06T12:51:20Z</time>
      </trkpt>
      <trkpt lat="49.85611" lon="2.32922">
        <ele>66.5</ele>
        <time>2023-04-06T12:51:21Z</time>
      </trkpt>
      <trkpt lat="49.85612" lon="2.32924">
        <ele>66.6</ele>
        <time>2023-04-06T12:51:22Z</time>
      </trkpt>
      <trkpt lat="49.85613" lon="2.32925">
        <ele>66.8</ele>
        <time>2023-04-06T12:51:23Z</time>
      </trkpt>
      <trkpt lat="49.85613" lon="2.32927">
        <ele>66.9</ele>
        <time>2023-04-06T12:51:24Z</time>
      </trkpt>
      <trkpt lat="49.85614" lon="2.32928">
        <ele>67</ele>
        <time>2023-04-06T12:51:25Z</time>
      </trkpt>
      <trkpt lat="49.85615" lon="2.3293">
        <ele>67.1</ele>
        <time>2023-04-06T12:51:27Z</time>
      </trkpt>
      <trkpt lat="49.85616" lon="2.32933">
        <ele>67.4</ele>
        <time>2023-04-06T12:51:28Z</time>
      </trkpt>
      <trkpt lat="49.85617" lon="2.32935">
        <ele>67.5</ele>
        <time>2023-04-06T12:51:29Z</time>
      </trkpt>
      <trkpt lat="49.85617" lon="2.32936">
        <ele>67.6</ele>
        <time>2023-04-06T12:51:30Z</time>
      </trkpt>
      <trkpt lat="49.85618" lon="2.32938">
        <ele>67.7</ele>
        <time>2023-04-06T12:51:31Z</time>
      </trkpt>
      <trkpt lat="49.85618" lon="2.32939">
        <ele>67.8</ele>
        <time>2023-04-06T12:51:32Z</time>
      </trkpt>
      <trkpt lat="49.85619" lon="2.32941">
        <ele>68</ele>
        <time>2023-04-06T12:51:33Z</time>
      </trkpt>
      <trkpt lat="49.8562" lon="2.32943">
        <ele>68.1</ele>
        <time>2023-04-06T12:51:34Z</time>
      </trkpt>
      <trkpt lat="49.85621" lon="2.32944">
        <ele>68.2</ele>
        <time>2023-04-06T12:51:36Z</time>
      </trkpt>
      <trkpt lat="49.85622" lon="2.32947">
        <ele>68.5</ele>
        <time>2023-04-06T12:51:37Z</time>
      </trkpt>
      <trkpt lat="49.85623" lon="2.32948">
        <ele>68.6</ele>
        <time>2023-04-06T12:51:38Z</time>
      </trkpt>
      <trkpt lat="49.85623" lon="2.32949">
        <ele>68.7</ele>
        <time>2023-04-06T12:51:39Z</time>
      </trkpt>
      <trkpt lat="49.85624" lon="2.3295">
        <ele>68.7</ele>
        <time>2023-04-06T12:51:40Z</time>
      </trkpt>
      <trkpt lat="49.85624" lon="2.32951">
        <ele>68.8</ele>
        <time>2023-04-06T12:51:41Z</time>
      </trkpt>
      <trkpt lat="49.85625" lon="2.32952">
        <ele>68.9</ele>
        <time>2023-04-06T12:51:43Z</time>
      </trkpt>
      <trkpt lat="49.85625" lon="2.32953">
        <ele>68.9</ele>
        <time>2023-04-06T12:51:44Z</time>
      </trkpt>
      <trkpt lat="49.85626" lon="2.32955">
        <ele>69.1</ele>
        <time>2023-04-06T12:51:45Z</time>
      </trkpt>
      <trkpt lat="49.85627" lon="2.32956">
        <ele>69.3</ele>
        <time>2023-04-06T12:51:46Z</time>
      </trkpt>
      <trkpt lat="49.85628" lon="2.32958">
        <ele>69.4</ele>
        <time>2023-04-06T12:51:47Z</time>
      </trkpt>
      <trkpt lat="49.85629" lon="2.32959">
        <ele>69.5</ele>
        <time>2023-04-06T12:51:48Z</time>
      </trkpt>
      <trkpt lat="49.8563" lon="2.32961">
        <ele>69.7</ele>
        <time>2023-04-06T12:51:50Z</time>
      </trkpt>
      <trkpt lat="49.85631" lon="2.32962">
        <ele>69.8</ele>
        <time>2023-04-06T12:51:51Z</time>
      </trkpt>
      <trkpt lat="49.85632" lon="2.32963">
        <ele>69.9</ele>
        <time>2023-04-06T12:51:52Z</time>
      </trkpt>
      <trkpt lat="49.85632" lon="2.32964">
        <ele>70</ele>
        <time>2023-04-06T12:51:53Z</time>
      </trkpt>
      <trkpt lat="49.85633" lon="2.32966">
        <ele>70.2</ele>
        <time>2023-04-06T12:51:55Z</time>
      </trkpt>
      <trkpt lat="49.85634" lon="2.32967">
        <ele>70.3</ele>
        <time>2023-04-06T12:51:56Z</time>
      </trkpt>
      <trkpt lat="49.85635" lon="2.32968">
        <ele>70.4</ele>
        <time>2023-04-06T12:51:57Z</time>
      </trkpt>
      <trkpt lat="49.85635" lon="2.32969">
        <ele>70.5</ele>
        <time>2023-04-06T12:51:58Z</time>
      </trkpt>
      <trkpt lat="49.85636" lon="2.32971">
        <ele>70.6</ele>
        <time>2023-04-06T12:51:59Z</time>
      </trkpt>
      <trkpt lat="49.85637" lon="2.32972">
        <ele>70.7</ele>
        <time>2023-04-06T12:52:00Z</time>
      </trkpt>
      <trkpt lat="49.85637" lon="2.32973">
        <ele>70.8</ele>
        <time>2023-04-06T12:52:01Z</time>
      </trkpt>
      <trkpt lat="49.85638" lon="2.32975">
        <ele>70.9</ele>
        <time>2023-04-06T12:52:03Z</time>
      </trkpt>
      <trkpt lat="49.85639" lon="2.32976">
        <ele>71</ele>
        <time>2023-04-06T12:52:04Z</time>
      </trkpt>
      <trkpt lat="49.8564" lon="2.32978">
        <ele>71.2</ele>
        <time>2023-04-06T12:52:05Z</time>
      </trkpt>
      <trkpt lat="49.85641" lon="2.32979">
        <ele>71.3</ele>
        <time>2023-04-06T12:52:06Z</time>
      </trkpt>
      <trkpt lat="49.85641" lon="2.32979">
        <ele>71.4</ele>
        <time>2023-04-06T12:52:07Z</time>
      </trkpt>
      <trkpt lat="49.85642" lon="2.32981">
        <ele>71.5</ele>
        <time>2023-04-06T12:52:08Z</time>
      </trkpt>
      <trkpt lat="49.85643" lon="2.32983">
        <ele>71.6</ele>
        <time>2023-04-06T12:52:09Z</time>
      </trkpt>
      <trkpt lat="49.85643" lon="2.32984">
        <ele>71.7</ele>
        <time>2023-04-06T12:52:11Z</time>
      </trkpt>
      <trkpt lat="49.85644" lon="2.32985">
        <ele>71.9</ele>
        <time>2023-04-06T12:52:12Z</time>
      </trkpt>
      <trkpt lat="49.85645" lon="2.32987">
        <ele>72</ele>
        <time>2023-04-06T12:52:13Z</time>
      </trkpt>
      <trkpt lat="49.85645" lon="2.32988">
        <ele>72.1</ele>
        <time>2023-04-06T12:52:14Z</time>
      </trkpt>
      <trkpt lat="49.85647" lon="2.3299">
        <ele>72.3</ele>
        <time>2023-04-06T12:52:15Z</time>
      </trkpt>
      <trkpt lat="49.85648" lon="2.32991">
        <ele>72.4</ele>
        <time>2023-04-06T12:52:16Z</time>
      </trkpt>
      <trkpt lat="49.85648" lon="2.32992">
        <ele>72.5</ele>
        <time>2023-04-06T12:52:18Z</time>
      </trkpt>
      <trkpt lat="49.85649" lon="2.32993">
        <ele>72.6</ele>
        <time>2023-04-06T12:52:19Z</time>
      </trkpt>
      <trkpt lat="49.8565" lon="2.32995">
        <ele>72.7</ele>
        <time>2023-04-06T12:52:20Z</time>
      </trkpt>
      <trkpt lat="49.8565" lon="2.32996">
        <ele>72.8</ele>
        <time>2023-04-06T12:52:21Z</time>
      </trkpt>
      <trkpt lat="49.85651" lon="2.32997">
        <ele>72.9</ele>
        <time>2023-04-06T12:52:23Z</time>
      </trkpt>
      <trkpt lat="49.85652" lon="2.32999">
        <ele>73</ele>
        <time>2023-04-06T12:52:24Z</time>
      </trkpt>
      <trkpt lat="49.85653" lon="2.33">
        <ele>73.1</ele>
        <time>2023-04-06T12:52:25Z</time>
      </trkpt>
      <trkpt lat="49.85654" lon="2.33002">
        <ele>73.2</ele>
        <time>2023-04-06T12:52:26Z</time>
      </trkpt>
      <trkpt lat="49.85654" lon="2.33003">
        <ele>73.3</ele>
        <time>2023-04-06T12:52:27Z</time>
      </trkpt>
      <trkpt lat="49.85655" lon="2.33004">
        <ele>73.4</ele>
        <time>2023-04-06T12:52:28Z</time>
      </trkpt>
      <trkpt lat="49.85656" lon="2.33005">
        <ele>73.5</ele>
        <time>2023-04-06T12:52:29Z</time>
      </trkpt>
      <trkpt lat="49.85656" lon="2.33006">
        <ele>73.6</ele>
        <time>2023-04-06T12:52:30Z</time>
      </trkpt>
      <trkpt lat="49.85658" lon="2.33008">
        <ele>73.8</ele>
        <time>2023-04-06T12:52:32Z</time>
      </trkpt>
      <trkpt lat="49.85659" lon="2.33009">
        <ele>73.9</ele>
        <time>2023-04-06T12:52:33Z</time>
      </trkpt>
      <trkpt lat="49.85659" lon="2.3301">
        <ele>74</ele>
        <time>2023-04-06T12:52:34Z</time>
      </trkpt>
      <trkpt lat="49.8566" lon="2.33012">
        <ele>74.1</ele>
        <time>2023-04-06T12:52:35Z</time>
      </trkpt>
      <trkpt lat="49.85661" lon="2.33013">
        <ele>74.1</ele>
        <time>2023-04-06T12:52:36Z</time>
      </trkpt>
      <trkpt lat="49.85661" lon="2.33014">
        <ele>74.2</ele>
        <time>2023-04-06T12:52:37Z</time>
      </trkpt>
      <trkpt lat="49.85662" lon="2.33014">
        <ele>74.2</ele>
        <time>2023-04-06T12:52:38Z</time>
      </trkpt>
      <trkpt lat="49.85663" lon="2.33017">
        <ele>74.4</ele>
        <time>2023-04-06T12:52:40Z</time>
      </trkpt>
      <trkpt lat="49.85664" lon="2.33018">
        <ele>74.5</ele>
        <time>2023-04-06T12:52:41Z</time>
      </trkpt>
      <trkpt lat="49.85664" lon="2.33019">
        <ele>74.6</ele>
        <time>2023-04-06T12:52:42Z</time>
      </trkpt>
      <trkpt lat="49.85665" lon="2.33021">
        <ele>74.7</ele>
        <time>2023-04-06T12:52:43Z</time>
      </trkpt>
      <trkpt lat="49.85666" lon="2.33023">
        <ele>74.8</ele>
        <time>2023-04-06T12:52:44Z</time>
      </trkpt>
      <trkpt lat="49.85666" lon="2.33024">
        <ele>74.8</ele>
        <time>2023-04-06T12:52:45Z</time>
      </trkpt>
      <trkpt lat="49.85667" lon="2.33025">
        <ele>74.9</ele>
        <time>2023-04-06T12:52:46Z</time>
      </trkpt>
      <trkpt lat="49.85668" lon="2.33027">
        <ele>75</ele>
        <time>2023-04-06T12:52:48Z</time>
      </trkpt>
      <trkpt lat="49.85668" lon="2.33028">
        <ele>75.1</ele>
        <time>2023-04-06T12:52:49Z</time>
      </trkpt>
      <trkpt lat="49.85669" lon="2.3303">
        <ele>75.2</ele>
        <time>2023-04-06T12:52:50Z</time>
      </trkpt>
      <trkpt lat="49.8567" lon="2.33031">
        <ele>75.3</ele>
        <time>2023-04-06T12:52:51Z</time>
      </trkpt>
      <trkpt lat="49.8567" lon="2.33032">
        <ele>75.3</ele>
        <time>2023-04-06T12:52:52Z</time>
      </trkpt>
      <trkpt lat="49.85671" lon="2.33033">
        <ele>75.4</ele>
        <time>2023-04-06T12:52:53Z</time>
      </trkpt>
      <trkpt lat="49.85672" lon="2.33035">
        <ele>75.4</ele>
        <time>2023-04-06T12:52:54Z</time>
      </trkpt>
      <trkpt lat="49.85672" lon="2.33036">
        <ele>75.5</ele>
        <time>2023-04-06T12:52:56Z</time>
      </trkpt>
      <trkpt lat="49.85673" lon="2.33037">
        <ele>75.6</ele>
        <time>2023-04-06T12:52:57Z</time>
      </trkpt>
      <trkpt lat="49.85674" lon="2.33039">
        <ele>75.6</ele>
        <time>2023-04-06T12:52:58Z</time>
      </trkpt>
      <trkpt lat="49.85675" lon="2.3304">
        <ele>75.7</ele>
        <time>2023-04-06T12:52:59Z</time>
      </trkpt>
      <trkpt lat="49.85676" lon="2.33041">
        <ele>75.7</ele>
        <time>2023-04-06T12:53:00Z</time>
      </trkpt>
      <trkpt lat="49.85676" lon="2.33042">
        <ele>75.8</ele>
        <time>2023-04-06T12:53:01Z</time>
      </trkpt>
      <trkpt lat="49.85677" lon="2.33044">
        <ele>75.9</ele>
        <time>2023-04-06T12:53:03Z</time>
      </trkpt>
      <trkpt lat="49.85678" lon="2.33045">
        <ele>75.9</ele>
        <time>2023-04-06T12:53:04Z</time>
      </trkpt>
      <trkpt lat="49.85679" lon="2.33047">
        <ele>76</ele>
        <time>2023-04-06T12:53:05Z</time>
      </trkpt>
      <trkpt lat="49.8568" lon="2.33049">
        <ele>76</ele>
        <time>2023-04-06T12:53:06Z</time>
      </trkpt>
      <trkpt lat="49.8568" lon="2.3305">
        <ele>76</ele>
        <time>2023-04-06T12:53:07Z</time>
      </trkpt>
      <trkpt lat="49.85681" lon="2.33051">
        <ele>76.1</ele>
        <time>2023-04-06T12:53:08Z</time>
      </trkpt>
      <trkpt lat="49.85682" lon="2.33054">
        <ele>76.1</ele>
        <time>2023-04-06T12:53:10Z</time>
      </trkpt>
      <trkpt lat="49.85683" lon="2.33055">
        <ele>76.2</ele>
        <time>2023-04-06T12:53:11Z</time>
      </trkpt>
      <trkpt lat="49.85684" lon="2.33057">
        <ele>76.2</ele>
        <time>2023-04-06T12:53:12Z</time>
      </trkpt>
      <trkpt lat="49.85684" lon="2.33059">
        <ele>76.2</ele>
        <time>2023-04-06T12:53:13Z</time>
      </trkpt>
      <trkpt lat="49.85685" lon="2.3306">
        <ele>76.2</ele>
        <time>2023-04-06T12:53:14Z</time>
      </trkpt>
      <trkpt lat="49.85686" lon="2.33061">
        <ele>76.2</ele>
        <time>2023-04-06T12:53:15Z</time>
      </trkpt>
      <trkpt lat="49.85686" lon="2.33063">
        <ele>76.3</ele>
        <time>2023-04-06T12:53:16Z</time>
      </trkpt>
      <trkpt lat="49.85687" lon="2.33064">
        <ele>76.3</ele>
        <time>2023-04-06T12:53:18Z</time>
      </trkpt>
      <trkpt lat="49.85688" lon="2.33066">
        <ele>76.3</ele>
        <time>2023-04-06T12:53:19Z</time>
      </trkpt>
      <trkpt lat="49.85689" lon="2.33068">
        <ele>76.3</ele>
        <time>2023-04-06T12:53:20Z</time>
      </trkpt>
      <trkpt lat="49.8569" lon="2.33069">
        <ele>76.3</ele>
        <time>2023-04-06T12:53:21Z</time>
      </trkpt>
      <trkpt lat="49.85691" lon="2.33071">
        <ele>76.3</ele>
        <time>2023-04-06T12:53:22Z</time>
      </trkpt>
      <trkpt lat="49.85692" lon="2.33073">
        <ele>76.3</ele>
        <time>2023-04-06T12:53:23Z</time>
      </trkpt>
      <trkpt lat="49.85692" lon="2.33075">
        <ele>76.3</ele>
        <time>2023-04-06T12:53:24Z</time>
      </trkpt>
      <trkpt lat="49.85693" lon="2.33077">
        <ele>76.3</ele>
        <time>2023-04-06T12:53:26Z</time>
      </trkpt>
      <trkpt lat="49.85694" lon="2.33079">
        <ele>76.3</ele>
        <time>2023-04-06T12:53:27Z</time>
      </trkpt>
      <trkpt lat="49.85695" lon="2.33082">
        <ele>76.3</ele>
        <time>2023-04-06T12:53:28Z</time>
      </trkpt>
      <trkpt lat="49.85696" lon="2.33084">
        <ele>76.3</ele>
        <time>2023-04-06T12:53:29Z</time>
      </trkpt>
      <trkpt lat="49.85697" lon="2.33087">
        <ele>76.3</ele>
        <time>2023-04-06T12:53:30Z</time>
      </trkpt>
      <trkpt lat="49.85698" lon="2.33088">
        <ele>76.3</ele>
        <time>2023-04-06T12:53:31Z</time>
      </trkpt>
      <trkpt lat="49.85699" lon="2.3309">
        <ele>76.2</ele>
        <time>2023-04-06T12:53:32Z</time>
      </trkpt>
      <trkpt lat="49.857" lon="2.33092">
        <ele>76.2</ele>
        <time>2023-04-06T12:53:33Z</time>
      </trkpt>
      <trkpt lat="49.85701" lon="2.33094">
        <ele>76.2</ele>
        <time>2023-04-06T12:53:34Z</time>
      </trkpt>
      <trkpt lat="49.85702" lon="2.33096">
        <ele>76.2</ele>
        <time>2023-04-06T12:53:36Z</time>
      </trkpt>
      <trkpt lat="49.85703" lon="2.33099">
        <ele>76.2</ele>
        <time>2023-04-06T12:53:37Z</time>
      </trkpt>
      <trkpt lat="49.85704" lon="2.33101">
        <ele>76.1</ele>
        <time>2023-04-06T12:53:38Z</time>
      </trkpt>
      <trkpt lat="49.85704" lon="2.33102">
        <ele>76.1</ele>
        <time>2023-04-06T12:53:39Z</time>
      </trkpt>
      <trkpt lat="49.85705" lon="2.33104">
        <ele>76.1</ele>
        <time>2023-04-06T12:53:40Z</time>
      </trkpt>
      <trkpt lat="49.85706" lon="2.33106">
        <ele>76.1</ele>
        <time>2023-04-06T12:53:41Z</time>
      </trkpt>
      <trkpt lat="49.85706" lon="2.33107">
        <ele>76.1</ele>
        <time>2023-04-06T12:53:42Z</time>
      </trkpt>
      <trkpt lat="49.85707" lon="2.33108">
        <ele>76</ele>
        <time>2023-04-06T12:53:43Z</time>
      </trkpt>
      <trkpt lat="49.85708" lon="2.33109">
        <ele>76</ele>
        <time>2023-04-06T12:53:44Z</time>
      </trkpt>
      <trkpt lat="49.85709" lon="2.33111">
        <ele>76</ele>
        <time>2023-04-06T12:53:45Z</time>
      </trkpt>
      <trkpt lat="49.85709" lon="2.33112">
        <ele>76</ele>
        <time>2023-04-06T12:53:47Z</time>
      </trkpt>
      <trkpt lat="49.8571" lon="2.33113">
        <ele>76</ele>
        <time>2023-04-06T12:53:48Z</time>
      </trkpt>
      <trkpt lat="49.85711" lon="2.33115">
        <ele>75.9</ele>
        <time>2023-04-06T12:53:49Z</time>
      </trkpt>
      <trkpt lat="49.85712" lon="2.33116">
        <ele>75.9</ele>
        <time>2023-04-06T12:53:50Z</time>
      </trkpt>
      <trkpt lat="49.85712" lon="2.33117">
        <ele>75.9</ele>
        <time>2023-04-06T12:53:51Z</time>
      </trkpt>
      <trkpt lat="49.85713" lon="2.33119">
        <ele>75.9</ele>
        <time>2023-04-06T12:53:52Z</time>
      </trkpt>
      <trkpt lat="49.85714" lon="2.3312">
        <ele>75.8</ele>
        <time>2023-04-06T12:53:53Z</time>
      </trkpt>
      <trkpt lat="49.85715" lon="2.33122">
        <ele>75.8</ele>
        <time>2023-04-06T12:53:54Z</time>
      </trkpt>
      <trkpt lat="49.85716" lon="2.33124">
        <ele>75.7</ele>
        <time>2023-04-06T12:53:56Z</time>
      </trkpt>
      <trkpt lat="49.85717" lon="2.33126">
        <ele>75.7</ele>
        <time>2023-04-06T12:53:57Z</time>
      </trkpt>
      <trkpt lat="49.85718" lon="2.33127">
        <ele>75.7</ele>
        <time>2023-04-06T12:53:58Z</time>
      </trkpt>
      <trkpt lat="49.85719" lon="2.33129">
        <ele>75.6</ele>
        <time>2023-04-06T12:53:59Z</time>
      </trkpt>
      <trkpt lat="49.8572" lon="2.3313">
        <ele>75.6</ele>
        <time>2023-04-06T12:54:00Z</time>
      </trkpt>
      <trkpt lat="49.8572" lon="2.33131">
        <ele>75.6</ele>
        <time>2023-04-06T12:54:01Z</time>
      </trkpt>
      <trkpt lat="49.85722" lon="2.33133">
        <ele>75.5</ele>
        <time>2023-04-06T12:54:03Z</time>
      </trkpt>
      <trkpt lat="49.85722" lon="2.33135">
        <ele>75.4</ele>
        <time>2023-04-06T12:54:04Z</time>
      </trkpt>
      <trkpt lat="49.85724" lon="2.33137">
        <ele>75.4</ele>
        <time>2023-04-06T12:54:05Z</time>
      </trkpt>
      <trkpt lat="49.85724" lon="2.33138">
        <ele>75.3</ele>
        <time>2023-04-06T12:54:06Z</time>
      </trkpt>
      <trkpt lat="49.85725" lon="2.3314">
        <ele>75.3</ele>
        <time>2023-04-06T12:54:07Z</time>
      </trkpt>
      <trkpt lat="49.85727" lon="2.33143">
        <ele>75.2</ele>
        <time>2023-04-06T12:54:08Z</time>
      </trkpt>
      <trkpt lat="49.85728" lon="2.33145">
        <ele>75.1</ele>
        <time>2023-04-06T12:54:09Z</time>
      </trkpt>
      <trkpt lat="49.85729" lon="2.33148">
        <ele>75</ele>
        <time>2023-04-06T12:54:11Z</time>
      </trkpt>
      <trkpt lat="49.8573" lon="2.33149">
        <ele>75</ele>
        <time>2023-04-06T12:54:12Z</time>
      </trkpt>
      <trkpt lat="49.85732" lon="2.33152">
        <ele>74.8</ele>
        <time>2023-04-06T12:54:13Z</time>
      </trkpt>
      <trkpt lat="49.85732" lon="2.33153">
        <ele>74.8</ele>
        <time>2023-04-06T12:54:14Z</time>
      </trkpt>
      <trkpt lat="49.85734" lon="2.33156">
        <ele>74.7</ele>
        <time>2023-04-06T12:54:15Z</time>
      </trkpt>
      <trkpt lat="49.85734" lon="2.33157">
        <ele>74.7</ele>
        <time>2023-04-06T12:54:16Z</time>
      </trkpt>
      <trkpt lat="49.85735" lon="2.33158">
        <ele>74.7</ele>
        <time>2023-04-06T12:54:17Z</time>
      </trkpt>
      <trkpt lat="49.85735" lon="2.33159">
        <ele>74.6</ele>
        <time>2023-04-06T12:54:18Z</time>
      </trkpt>
      <trkpt lat="49.85736" lon="2.3316">
        <ele>74.6</ele>
        <time>2023-04-06T12:54:19Z</time>
      </trkpt>
      <trkpt lat="49.85737" lon="2.33161">
        <ele>74.5</ele>
        <time>2023-04-06T12:54:20Z</time>
      </trkpt>
      <trkpt lat="49.85737" lon="2.33163">
        <ele>74.5</ele>
        <time>2023-04-06T12:54:21Z</time>
      </trkpt>
      <trkpt lat="49.85738" lon="2.33164">
        <ele>74.4</ele>
        <time>2023-04-06T12:54:23Z</time>
      </trkpt>
      <trkpt lat="49.85739" lon="2.33166">
        <ele>74.3</ele>
        <time>2023-04-06T12:54:24Z</time>
      </trkpt>
      <trkpt lat="49.85739" lon="2.33167">
        <ele>74.3</ele>
        <time>2023-04-06T12:54:25Z</time>
      </trkpt>
      <trkpt lat="49.8574" lon="2.33168">
        <ele>74.2</ele>
        <time>2023-04-06T12:54:26Z</time>
      </trkpt>
      <trkpt lat="49.85741" lon="2.33169">
        <ele>74.2</ele>
        <time>2023-04-06T12:54:27Z</time>
      </trkpt>
      <trkpt lat="49.85742" lon="2.33171">
        <ele>74.1</ele>
        <time>2023-04-06T12:54:28Z</time>
      </trkpt>
      <trkpt lat="49.85743" lon="2.33172">
        <ele>74</ele>
        <time>2023-04-06T12:54:29Z</time>
      </trkpt>
      <trkpt lat="49.85744" lon="2.33175">
        <ele>73.9</ele>
        <time>2023-04-06T12:54:31Z</time>
      </trkpt>
      <trkpt lat="49.85745" lon="2.33176">
        <ele>73.9</ele>
        <time>2023-04-06T12:54:32Z</time>
      </trkpt>
      <trkpt lat="49.85746" lon="2.33178">
        <ele>73.8</ele>
        <time>2023-04-06T12:54:33Z</time>
      </trkpt>
      <trkpt lat="49.85746" lon="2.33179">
        <ele>73.8</ele>
        <time>2023-04-06T12:54:34Z</time>
      </trkpt>
      <trkpt lat="49.85747" lon="2.33181">
        <ele>73.7</ele>
        <time>2023-04-06T12:54:35Z</time>
      </trkpt>
      <trkpt lat="49.85747" lon="2.33182">
        <ele>73.6</ele>
        <time>2023-04-06T12:54:36Z</time>
      </trkpt>
      <trkpt lat="49.85748" lon="2.33183">
        <ele>73.6</ele>
        <time>2023-04-06T12:54:37Z</time>
      </trkpt>
      <trkpt lat="49.85749" lon="2.33186">
        <ele>73.5</ele>
        <time>2023-04-06T12:54:38Z</time>
      </trkpt>
      <trkpt lat="49.8575" lon="2.33187">
        <ele>73.4</ele>
        <time>2023-04-06T12:54:40Z</time>
      </trkpt>
      <trkpt lat="49.85751" lon="2.33189">
        <ele>73.3</ele>
        <time>2023-04-06T12:54:41Z</time>
      </trkpt>
      <trkpt lat="49.85752" lon="2.3319">
        <ele>73.3</ele>
        <time>2023-04-06T12:54:42Z</time>
      </trkpt>
      <trkpt lat="49.85753" lon="2.33191">
        <ele>73.2</ele>
        <time>2023-04-06T12:54:43Z</time>
      </trkpt>
      <trkpt lat="49.85754" lon="2.33192">
        <ele>73.2</ele>
        <time>2023-04-06T12:54:44Z</time>
      </trkpt>
      <trkpt lat="49.85754" lon="2.33193">
        <ele>73.1</ele>
        <time>2023-04-06T12:54:45Z</time>
      </trkpt>
      <trkpt lat="49.85755" lon="2.33195">
        <ele>73.1</ele>
        <time>2023-04-06T12:54:47Z</time>
      </trkpt>
      <trkpt lat="49.85756" lon="2.33196">
        <ele>73</ele>
        <time>2023-04-06T12:54:48Z</time>
      </trkpt>
      <trkpt lat="49.85757" lon="2.33199">
        <ele>72.9</ele>
        <time>2023-04-06T12:54:49Z</time>
      </trkpt>
      <trkpt lat="49.85757" lon="2.332">
        <ele>72.9</ele>
        <time>2023-04-06T12:54:50Z</time>
      </trkpt>
      <trkpt lat="49.85758" lon="2.33201">
        <ele>72.8</ele>
        <time>2023-04-06T12:54:51Z</time>
      </trkpt>
      <trkpt lat="49.85759" lon="2.33204">
        <ele>72.7</ele>
        <time>2023-04-06T12:54:52Z</time>
      </trkpt>
      <trkpt lat="49.8576" lon="2.33205">
        <ele>72.6</ele>
        <time>2023-04-06T12:54:53Z</time>
      </trkpt>
      <trkpt lat="49.8576" lon="2.33207">
        <ele>72.6</ele>
        <time>2023-04-06T12:54:54Z</time>
      </trkpt>
      <trkpt lat="49.85761" lon="2.33208">
        <ele>72.5</ele>
        <time>2023-04-06T12:54:55Z</time>
      </trkpt>
      <trkpt lat="49.85762" lon="2.3321">
        <ele>72.4</ele>
        <time>2023-04-06T12:54:56Z</time>
      </trkpt>
      <trkpt lat="49.85763" lon="2.33212">
        <ele>72.3</ele>
        <time>2023-04-06T12:54:58Z</time>
      </trkpt>
      <trkpt lat="49.85764" lon="2.33214">
        <ele>72.2</ele>
        <time>2023-04-06T12:54:59Z</time>
      </trkpt>
      <trkpt lat="49.85765" lon="2.33216">
        <ele>72.1</ele>
        <time>2023-04-06T12:55:00Z</time>
      </trkpt>
      <trkpt lat="49.85766" lon="2.33217">
        <ele>72.1</ele>
        <time>2023-04-06T12:55:01Z</time>
      </trkpt>
      <trkpt lat="49.85767" lon="2.33218">
        <ele>72</ele>
        <time>2023-04-06T12:55:02Z</time>
      </trkpt>
      <trkpt lat="49.85767" lon="2.3322">
        <ele>71.9</ele>
        <time>2023-04-06T12:55:03Z</time>
      </trkpt>
      <trkpt lat="49.85768" lon="2.33222">
        <ele>71.8</ele>
        <time>2023-04-06T12:55:04Z</time>
      </trkpt>
      <trkpt lat="49.85769" lon="2.33224">
        <ele>71.7</ele>
        <time>2023-04-06T12:55:05Z</time>
      </trkpt>
      <trkpt lat="49.8577" lon="2.33227">
        <ele>71.6</ele>
        <time>2023-04-06T12:55:07Z</time>
      </trkpt>
      <trkpt lat="49.85771" lon="2.33229">
        <ele>71.6</ele>
        <time>2023-04-06T12:55:08Z</time>
      </trkpt>
      <trkpt lat="49.85772" lon="2.33231">
        <ele>71.5</ele>
        <time>2023-04-06T12:55:09Z</time>
      </trkpt>
      <trkpt lat="49.85774" lon="2.33233">
        <ele>71.3</ele>
        <time>2023-04-06T12:55:10Z</time>
      </trkpt>
      <trkpt lat="49.85774" lon="2.33234">
        <ele>71.3</ele>
        <time>2023-04-06T12:55:11Z</time>
      </trkpt>
      <trkpt lat="49.85775" lon="2.33235">
        <ele>71.2</ele>
        <time>2023-04-06T12:55:12Z</time>
      </trkpt>
      <trkpt lat="49.85776" lon="2.33237">
        <ele>71.2</ele>
        <time>2023-04-06T12:55:13Z</time>
      </trkpt>
      <trkpt lat="49.85777" lon="2.33239">
        <ele>71.1</ele>
        <time>2023-04-06T12:55:14Z</time>
      </trkpt>
      <trkpt lat="49.85777" lon="2.3324">
        <ele>71</ele>
        <time>2023-04-06T12:55:15Z</time>
      </trkpt>
      <trkpt lat="49.85778" lon="2.33242">
        <ele>70.9</ele>
        <time>2023-04-06T12:55:17Z</time>
      </trkpt>
      <trkpt lat="49.85779" lon="2.33243">
        <ele>70.9</ele>
        <time>2023-04-06T12:55:18Z</time>
      </trkpt>
      <trkpt lat="49.8578" lon="2.33245">
        <ele>70.8</ele>
        <time>2023-04-06T12:55:19Z</time>
      </trkpt>
      <trkpt lat="49.85781" lon="2.33246">
        <ele>70.7</ele>
        <time>2023-04-06T12:55:20Z</time>
      </trkpt>
      <trkpt lat="49.85781" lon="2.33246">
        <ele>70.7</ele>
        <time>2023-04-06T12:55:21Z</time>
      </trkpt>
      <trkpt lat="49.85782" lon="2.33247">
        <ele>70.7</ele>
        <time>2023-04-06T12:55:22Z</time>
      </trkpt>
      <trkpt lat="49.85783" lon="2.33249">
        <ele>70.6</ele>
        <time>2023-04-06T12:55:23Z</time>
      </trkpt>
      <trkpt lat="49.85783" lon="2.3325">
        <ele>70.5</ele>
        <time>2023-04-06T12:55:24Z</time>
      </trkpt>
      <trkpt lat="49.85784" lon="2.33251">
        <ele>70.5</ele>
        <time>2023-04-06T12:55:25Z</time>
      </trkpt>
      <trkpt lat="49.85785" lon="2.33252">
        <ele>70.4</ele>
        <time>2023-04-06T12:55:26Z</time>
      </trkpt>
      <trkpt lat="49.85786" lon="2.33255">
        <ele>70.3</ele>
        <time>2023-04-06T12:55:28Z</time>
      </trkpt>
      <trkpt lat="49.85787" lon="2.33256">
        <ele>70.2</ele>
        <time>2023-04-06T12:55:29Z</time>
      </trkpt>
      <trkpt lat="49.85788" lon="2.33258">
        <ele>70.1</ele>
        <time>2023-04-06T12:55:30Z</time>
      </trkpt>
      <trkpt lat="49.85789" lon="2.33261">
        <ele>70</ele>
        <time>2023-04-06T12:55:31Z</time>
      </trkpt>
      <trkpt lat="49.8579" lon="2.33262">
        <ele>70</ele>
        <time>2023-04-06T12:55:32Z</time>
      </trkpt>
      <trkpt lat="49.8579" lon="2.33263">
        <ele>69.9</ele>
        <time>2023-04-06T12:55:33Z</time>
      </trkpt>
      <trkpt lat="49.85791" lon="2.33265">
        <ele>69.8</ele>
        <time>2023-04-06T12:55:35Z</time>
      </trkpt>
      <trkpt lat="49.85792" lon="2.33267">
        <ele>69.7</ele>
        <time>2023-04-06T12:55:36Z</time>
      </trkpt>
      <trkpt lat="49.85793" lon="2.33268">
        <ele>69.6</ele>
        <time>2023-04-06T12:55:37Z</time>
      </trkpt>
      <trkpt lat="49.85794" lon="2.3327">
        <ele>69.5</ele>
        <time>2023-04-06T12:55:38Z</time>
      </trkpt>
      <trkpt lat="49.85795" lon="2.33272">
        <ele>69.4</ele>
        <time>2023-04-06T12:55:39Z</time>
      </trkpt>
      <trkpt lat="49.85796" lon="2.33275">
        <ele>69.3</ele>
        <time>2023-04-06T12:55:40Z</time>
      </trkpt>
      <trkpt lat="49.85797" lon="2.33277">
        <ele>69.2</ele>
        <time>2023-04-06T12:55:41Z</time>
      </trkpt>
      <trkpt lat="49.85798" lon="2.33279">
        <ele>69.1</ele>
        <time>2023-04-06T12:55:42Z</time>
      </trkpt>
      <trkpt lat="49.85799" lon="2.3328">
        <ele>69</ele>
        <time>2023-04-06T12:55:44Z</time>
      </trkpt>
      <trkpt lat="49.85799" lon="2.33281">
        <ele>69</ele>
        <time>2023-04-06T12:55:45Z</time>
      </trkpt>
      <trkpt lat="49.858" lon="2.33282">
        <ele>68.9</ele>
        <time>2023-04-06T12:55:46Z</time>
      </trkpt>
      <trkpt lat="49.85801" lon="2.33283">
        <ele>68.8</ele>
        <time>2023-04-06T12:55:47Z</time>
      </trkpt>
      <trkpt lat="49.85801" lon="2.33285">
        <ele>68.7</ele>
        <time>2023-04-06T12:55:48Z</time>
      </trkpt>
      <trkpt lat="49.85802" lon="2.33286">
        <ele>68.6</ele>
        <time>2023-04-06T12:55:49Z</time>
      </trkpt>
      <trkpt lat="49.85803" lon="2.33287">
        <ele>68.5</ele>
        <time>2023-04-06T12:55:50Z</time>
      </trkpt>
      <trkpt lat="49.85804" lon="2.33289">
        <ele>68.4</ele>
        <time>2023-04-06T12:55:51Z</time>
      </trkpt>
      <trkpt lat="49.85805" lon="2.3329">
        <ele>68.3</ele>
        <time>2023-04-06T12:55:53Z</time>
      </trkpt>
      <trkpt lat="49.85806" lon="2.33291">
        <ele>68.3</ele>
        <time>2023-04-06T12:55:54Z</time>
      </trkpt>
      <trkpt lat="49.85807" lon="2.33292">
        <ele>68.2</ele>
        <time>2023-04-06T12:55:55Z</time>
      </trkpt>
      <trkpt lat="49.85807" lon="2.33294">
        <ele>68.1</ele>
        <time>2023-04-06T12:55:56Z</time>
      </trkpt>
      <trkpt lat="49.85807" lon="2.33294">
        <ele>68</ele>
        <time>2023-04-06T12:55:57Z</time>
      </trkpt>
      <trkpt lat="49.85808" lon="2.33296">
        <ele>68</ele>
        <time>2023-04-06T12:55:58Z</time>
      </trkpt>
      <trkpt lat="49.85808" lon="2.33297">
        <ele>67.9</ele>
        <time>2023-04-06T12:55:59Z</time>
      </trkpt>
      <trkpt lat="49.85809" lon="2.33298">
        <ele>67.8</ele>
        <time>2023-04-06T12:56:00Z</time>
      </trkpt>
      <trkpt lat="49.8581" lon="2.333">
        <ele>67.7</ele>
        <time>2023-04-06T12:56:01Z</time>
      </trkpt>
      <trkpt lat="49.85811" lon="2.33301">
        <ele>67.6</ele>
        <time>2023-04-06T12:56:03Z</time>
      </trkpt>
      <trkpt lat="49.85812" lon="2.33303">
        <ele>67.5</ele>
        <time>2023-04-06T12:56:04Z</time>
      </trkpt>
      <trkpt lat="49.85813" lon="2.33305">
        <ele>67.4</ele>
        <time>2023-04-06T12:56:05Z</time>
      </trkpt>
      <trkpt lat="49.85814" lon="2.33307">
        <ele>67.3</ele>
        <time>2023-04-06T12:56:06Z</time>
      </trkpt>
      <trkpt lat="49.85815" lon="2.33308">
        <ele>67.2</ele>
        <time>2023-04-06T12:56:07Z</time>
      </trkpt>
      <trkpt lat="49.85815" lon="2.3331">
        <ele>67.1</ele>
        <time>2023-04-06T12:56:08Z</time>
      </trkpt>
      <trkpt lat="49.85816" lon="2.33312">
        <ele>67</ele>
        <time>2023-04-06T12:56:09Z</time>
      </trkpt>
      <trkpt lat="49.85817" lon="2.33314">
        <ele>66.9</ele>
        <time>2023-04-06T12:56:10Z</time>
      </trkpt>
      <trkpt lat="49.85818" lon="2.33316">
        <ele>66.8</ele>
        <time>2023-04-06T12:56:11Z</time>
      </trkpt>
      <trkpt lat="49.85819" lon="2.33318">
        <ele>66.6</ele>
        <time>2023-04-06T12:56:12Z</time>
      </trkpt>
      <trkpt lat="49.8582" lon="2.3332">
        <ele>66.6</ele>
        <time>2023-04-06T12:56:14Z</time>
      </trkpt>
      <trkpt lat="49.8582" lon="2.33321">
        <ele>66.5</ele>
        <time>2023-04-06T12:56:15Z</time>
      </trkpt>
      <trkpt lat="49.85821" lon="2.33324">
        <ele>66.4</ele>
        <time>2023-04-06T12:56:16Z</time>
      </trkpt>
      <trkpt lat="49.85822" lon="2.33325">
        <ele>66.3</ele>
        <time>2023-04-06T12:56:17Z</time>
      </trkpt>
      <trkpt lat="49.85822" lon="2.33327">
        <ele>66.2</ele>
        <time>2023-04-06T12:56:18Z</time>
      </trkpt>
      <trkpt lat="49.85823" lon="2.33329">
        <ele>66.1</ele>
        <time>2023-04-06T12:56:19Z</time>
      </trkpt>
      <trkpt lat="49.85824" lon="2.33331">
        <ele>66</ele>
        <time>2023-04-06T12:56:21Z</time>
      </trkpt>
      <trkpt lat="49.85825" lon="2.33333">
        <ele>65.8</ele>
        <time>2023-04-06T12:56:22Z</time>
      </trkpt>
      <trkpt lat="49.85826" lon="2.33335">
        <ele>65.8</ele>
        <time>2023-04-06T12:56:23Z</time>
      </trkpt>
      <trkpt lat="49.85827" lon="2.33336">
        <ele>65.7</ele>
        <time>2023-04-06T12:56:24Z</time>
      </trkpt>
      <trkpt lat="49.85827" lon="2.33337">
        <ele>65.6</ele>
        <time>2023-04-06T12:56:25Z</time>
      </trkpt>
      <trkpt lat="49.85829" lon="2.3334">
        <ele>65.5</ele>
        <time>2023-04-06T12:56:26Z</time>
      </trkpt>
      <trkpt lat="49.85829" lon="2.33341">
        <ele>65.4</ele>
        <time>2023-04-06T12:56:27Z</time>
      </trkpt>
      <trkpt lat="49.8583" lon="2.33341">
        <ele>65.4</ele>
        <time>2023-04-06T12:56:28Z</time>
      </trkpt>
      <trkpt lat="49.85831" lon="2.33344">
        <ele>65.2</ele>
        <time>2023-04-06T12:56:29Z</time>
      </trkpt>
      <trkpt lat="49.85832" lon="2.33345">
        <ele>65.1</ele>
        <time>2023-04-06T12:56:31Z</time>
      </trkpt>
      <trkpt lat="49.85833" lon="2.33346">
        <ele>65.1</ele>
        <time>2023-04-06T12:56:32Z</time>
      </trkpt>
      <trkpt lat="49.85834" lon="2.33347">
        <ele>65</ele>
        <time>2023-04-06T12:56:33Z</time>
      </trkpt>
      <trkpt lat="49.85835" lon="2.33349">
        <ele>64.9</ele>
        <time>2023-04-06T12:56:34Z</time>
      </trkpt>
      <trkpt lat="49.85835" lon="2.33351">
        <ele>64.8</ele>
        <time>2023-04-06T12:56:35Z</time>
      </trkpt>
      <trkpt lat="49.85837" lon="2.33353">
        <ele>64.7</ele>
        <time>2023-04-06T12:56:36Z</time>
      </trkpt>
      <trkpt lat="49.85837" lon="2.33354">
        <ele>64.6</ele>
        <time>2023-04-06T12:56:37Z</time>
      </trkpt>
      <trkpt lat="49.85838" lon="2.33355">
        <ele>64.6</ele>
        <time>2023-04-06T12:56:38Z</time>
      </trkpt>
      <trkpt lat="49.85839" lon="2.33356">
        <ele>64.5</ele>
        <time>2023-04-06T12:56:39Z</time>
      </trkpt>
      <trkpt lat="49.85839" lon="2.33358">
        <ele>64.4</ele>
        <time>2023-04-06T12:56:41Z</time>
      </trkpt>
      <trkpt lat="49.85841" lon="2.33359">
        <ele>64.3</ele>
        <time>2023-04-06T12:56:42Z</time>
      </trkpt>
      <trkpt lat="49.85842" lon="2.33362">
        <ele>64.2</ele>
        <time>2023-04-06T12:56:43Z</time>
      </trkpt>
      <trkpt lat="49.85843" lon="2.33363">
        <ele>64.1</ele>
        <time>2023-04-06T12:56:44Z</time>
      </trkpt>
      <trkpt lat="49.85843" lon="2.33364">
        <ele>64</ele>
        <time>2023-04-06T12:56:45Z</time>
      </trkpt>
      <trkpt lat="49.85844" lon="2.33365">
        <ele>64</ele>
        <time>2023-04-06T12:56:46Z</time>
      </trkpt>
      <trkpt lat="49.85844" lon="2.33367">
        <ele>63.9</ele>
        <time>2023-04-06T12:56:47Z</time>
      </trkpt>
      <trkpt lat="49.85845" lon="2.33369">
        <ele>63.8</ele>
        <time>2023-04-06T12:56:49Z</time>
      </trkpt>
      <trkpt lat="49.85846" lon="2.33372">
        <ele>63.7</ele>
        <time>2023-04-06T12:56:50Z</time>
      </trkpt>
      <trkpt lat="49.85847" lon="2.33373">
        <ele>63.6</ele>
        <time>2023-04-06T12:56:51Z</time>
      </trkpt>
      <trkpt lat="49.85847" lon="2.33374">
        <ele>63.5</ele>
        <time>2023-04-06T12:56:52Z</time>
      </trkpt>
      <trkpt lat="49.85849" lon="2.33376">
        <ele>63.4</ele>
        <time>2023-04-06T12:56:53Z</time>
      </trkpt>
      <trkpt lat="49.85849" lon="2.33377">
        <ele>63.4</ele>
        <time>2023-04-06T12:56:54Z</time>
      </trkpt>
      <trkpt lat="49.8585" lon="2.33378">
        <ele>63.3</ele>
        <time>2023-04-06T12:56:55Z</time>
      </trkpt>
      <trkpt lat="49.85852" lon="2.33382">
        <ele>63.1</ele>
        <time>2023-04-06T12:56:56Z</time>
      </trkpt>
      <trkpt lat="49.85853" lon="2.33383">
        <ele>63</ele>
        <time>2023-04-06T12:56:58Z</time>
      </trkpt>
      <trkpt lat="49.85854" lon="2.33384">
        <ele>63</ele>
        <time>2023-04-06T12:56:59Z</time>
      </trkpt>
      <trkpt lat="49.85854" lon="2.33385">
        <ele>62.9</ele>
        <time>2023-04-06T12:57:00Z</time>
      </trkpt>
      <trkpt lat="49.85855" lon="2.33387">
        <ele>62.9</ele>
        <time>2023-04-06T12:57:01Z</time>
      </trkpt>
      <trkpt lat="49.85857" lon="2.33389">
        <ele>62.7</ele>
        <time>2023-04-06T12:57:02Z</time>
      </trkpt>
      <trkpt lat="49.85857" lon="2.33389">
        <ele>62.7</ele>
        <time>2023-04-06T12:57:03Z</time>
      </trkpt>
      <trkpt lat="49.85858" lon="2.3339">
        <ele>62.6</ele>
        <time>2023-04-06T12:57:04Z</time>
      </trkpt>
      <trkpt lat="49.85859" lon="2.33391">
        <ele>62.6</ele>
        <time>2023-04-06T12:57:05Z</time>
      </trkpt>
      <trkpt lat="49.8586" lon="2.33393">
        <ele>62.5</ele>
        <time>2023-04-06T12:57:06Z</time>
      </trkpt>
      <trkpt lat="49.85862" lon="2.33396">
        <ele>62.4</ele>
        <time>2023-04-06T12:57:08Z</time>
      </trkpt>
      <trkpt lat="49.85862" lon="2.33397">
        <ele>62.3</ele>
        <time>2023-04-06T12:57:09Z</time>
      </trkpt>
      <trkpt lat="49.85863" lon="2.33398">
        <ele>62.2</ele>
        <time>2023-04-06T12:57:10Z</time>
      </trkpt>
      <trkpt lat="49.85864" lon="2.334">
        <ele>62.2</ele>
        <time>2023-04-06T12:57:11Z</time>
      </trkpt>
      <trkpt lat="49.85865" lon="2.33402">
        <ele>62.1</ele>
        <time>2023-04-06T12:57:12Z</time>
      </trkpt>
      <trkpt lat="49.85866" lon="2.33404">
        <ele>61.9</ele>
        <time>2023-04-06T12:57:13Z</time>
      </trkpt>
      <trkpt lat="49.85867" lon="2.33405">
        <ele>61.9</ele>
        <time>2023-04-06T12:57:14Z</time>
      </trkpt>
      <trkpt lat="49.85868" lon="2.33406">
        <ele>61.8</ele>
        <time>2023-04-06T12:57:15Z</time>
      </trkpt>
      <trkpt lat="49.85869" lon="2.33409">
        <ele>61.7</ele>
        <time>2023-04-06T12:57:17Z</time>
      </trkpt>
      <trkpt lat="49.85869" lon="2.3341">
        <ele>61.7</ele>
        <time>2023-04-06T12:57:18Z</time>
      </trkpt>
      <trkpt lat="49.85871" lon="2.33412">
        <ele>61.6</ele>
        <time>2023-04-06T12:57:19Z</time>
      </trkpt>
      <trkpt lat="49.85871" lon="2.33413">
        <ele>61.5</ele>
        <time>2023-04-06T12:57:20Z</time>
      </trkpt>
      <trkpt lat="49.85872" lon="2.33415">
        <ele>61.5</ele>
        <time>2023-04-06T12:57:21Z</time>
      </trkpt>
      <trkpt lat="49.85873" lon="2.33417">
        <ele>61.3</ele>
        <time>2023-04-06T12:57:22Z</time>
      </trkpt>
      <trkpt lat="49.85874" lon="2.33418">
        <ele>61.3</ele>
        <time>2023-04-06T12:57:23Z</time>
      </trkpt>
      <trkpt lat="49.85874" lon="2.33419">
        <ele>61.2</ele>
        <time>2023-04-06T12:57:24Z</time>
      </trkpt>
      <trkpt lat="49.85876" lon="2.33423">
        <ele>61.1</ele>
        <time>2023-04-06T12:57:25Z</time>
      </trkpt>
      <trkpt lat="49.85877" lon="2.33424">
        <ele>61</ele>
        <time>2023-04-06T12:57:27Z</time>
      </trkpt>
      <trkpt lat="49.85877" lon="2.33425">
        <ele>61</ele>
        <time>2023-04-06T12:57:28Z</time>
      </trkpt>
      <trkpt lat="49.85878" lon="2.33427">
        <ele>60.9</ele>
        <time>2023-04-06T12:57:29Z</time>
      </trkpt>
      <trkpt lat="49.85879" lon="2.33428">
        <ele>60.8</ele>
        <time>2023-04-06T12:57:30Z</time>
      </trkpt>
      <trkpt lat="49.8588" lon="2.33431">
        <ele>60.7</ele>
        <time>2023-04-06T12:57:31Z</time>
      </trkpt>
      <trkpt lat="49.85881" lon="2.33432">
        <ele>60.7</ele>
        <time>2023-04-06T12:57:32Z</time>
      </trkpt>
      <trkpt lat="49.85881" lon="2.33433">
        <ele>60.6</ele>
        <time>2023-04-06T12:57:33Z</time>
      </trkpt>
      <trkpt lat="49.85881" lon="2.33435">
        <ele>60.6</ele>
        <time>2023-04-06T12:57:34Z</time>
      </trkpt>
      <trkpt lat="49.85882" lon="2.33437">
        <ele>60.5</ele>
        <time>2023-04-06T12:57:36Z</time>
      </trkpt>
      <trkpt lat="49.85884" lon="2.3344">
        <ele>60.3</ele>
        <time>2023-04-06T12:57:37Z</time>
      </trkpt>
      <trkpt lat="49.85884" lon="2.33441">
        <ele>60.3</ele>
        <time>2023-04-06T12:57:38Z</time>
      </trkpt>
      <trkpt lat="49.85885" lon="2.33442">
        <ele>60.2</ele>
        <time>2023-04-06T12:57:39Z</time>
      </trkpt>
      <trkpt lat="49.85886" lon="2.33445">
        <ele>60.1</ele>
        <time>2023-04-06T12:57:40Z</time>
      </trkpt>
      <trkpt lat="49.85887" lon="2.33446">
        <ele>60.1</ele>
        <time>2023-04-06T12:57:41Z</time>
      </trkpt>
      <trkpt lat="49.85887" lon="2.33447">
        <ele>60</ele>
        <time>2023-04-06T12:57:42Z</time>
      </trkpt>
      <trkpt lat="49.85889" lon="2.33449">
        <ele>59.9</ele>
        <time>2023-04-06T12:57:43Z</time>
      </trkpt>
      <trkpt lat="49.8589" lon="2.3345">
        <ele>59.9</ele>
        <time>2023-04-06T12:57:44Z</time>
      </trkpt>
      <trkpt lat="49.8589" lon="2.33451">
        <ele>59.8</ele>
        <time>2023-04-06T12:57:45Z</time>
      </trkpt>
      <trkpt lat="49.85891" lon="2.33453">
        <ele>59.8</ele>
        <time>2023-04-06T12:57:46Z</time>
      </trkpt>
      <trkpt lat="49.85892" lon="2.33454">
        <ele>59.7</ele>
        <time>2023-04-06T12:57:47Z</time>
      </trkpt>
      <trkpt lat="49.85893" lon="2.33455">
        <ele>59.6</ele>
        <time>2023-04-06T12:57:49Z</time>
      </trkpt>
      <trkpt lat="49.85894" lon="2.33457">
        <ele>59.5</ele>
        <time>2023-04-06T12:57:50Z</time>
      </trkpt>
      <trkpt lat="49.85895" lon="2.33459">
        <ele>59.5</ele>
        <time>2023-04-06T12:57:51Z</time>
      </trkpt>
      <trkpt lat="49.85896" lon="2.3346">
        <ele>59.4</ele>
        <time>2023-04-06T12:57:52Z</time>
      </trkpt>
      <trkpt lat="49.85896" lon="2.33461">
        <ele>59.4</ele>
        <time>2023-04-06T12:57:53Z</time>
      </trkpt>
      <trkpt lat="49.85897" lon="2.33463">
        <ele>59.3</ele>
        <time>2023-04-06T12:57:54Z</time>
      </trkpt>
      <trkpt lat="49.85898" lon="2.33465">
        <ele>59.2</ele>
        <time>2023-04-06T12:57:56Z</time>
      </trkpt>
      <trkpt lat="49.85899" lon="2.33467">
        <ele>59.1</ele>
        <time>2023-04-06T12:57:57Z</time>
      </trkpt>
      <trkpt lat="49.859" lon="2.33469">
        <ele>59</ele>
        <time>2023-04-06T12:57:58Z</time>
      </trkpt>
      <trkpt lat="49.85901" lon="2.3347">
        <ele>59</ele>
        <time>2023-04-06T12:57:59Z</time>
      </trkpt>
      <trkpt lat="49.85901" lon="2.33471">
        <ele>58.9</ele>
        <time>2023-04-06T12:58:00Z</time>
      </trkpt>
      <trkpt lat="49.85902" lon="2.33472">
        <ele>58.8</ele>
        <time>2023-04-06T12:58:01Z</time>
      </trkpt>
      <trkpt lat="49.85903" lon="2.33474">
        <ele>58.8</ele>
        <time>2023-04-06T12:58:03Z</time>
      </trkpt>
      <trkpt lat="49.85905" lon="2.33476">
        <ele>58.7</ele>
        <time>2023-04-06T12:58:04Z</time>
      </trkpt>
      <trkpt lat="49.85905" lon="2.33477">
        <ele>58.6</ele>
        <time>2023-04-06T12:58:05Z</time>
      </trkpt>
      <trkpt lat="49.85907" lon="2.3348">
        <ele>58.5</ele>
        <time>2023-04-06T12:58:06Z</time>
      </trkpt>
      <trkpt lat="49.85907" lon="2.33481">
        <ele>58.4</ele>
        <time>2023-04-06T12:58:07Z</time>
      </trkpt>
      <trkpt lat="49.85908" lon="2.33482">
        <ele>58.4</ele>
        <time>2023-04-06T12:58:08Z</time>
      </trkpt>
      <trkpt lat="49.85909" lon="2.33484">
        <ele>58.3</ele>
        <time>2023-04-06T12:58:09Z</time>
      </trkpt>
      <trkpt lat="49.8591" lon="2.33485">
        <ele>58.2</ele>
        <time>2023-04-06T12:58:10Z</time>
      </trkpt>
      <trkpt lat="49.85911" lon="2.33488">
        <ele>58.1</ele>
        <time>2023-04-06T12:58:11Z</time>
      </trkpt>
      <trkpt lat="49.85912" lon="2.33489">
        <ele>58.1</ele>
        <time>2023-04-06T12:58:12Z</time>
      </trkpt>
      <trkpt lat="49.85912" lon="2.3349">
        <ele>58</ele>
        <time>2023-04-06T12:58:13Z</time>
      </trkpt>
      <trkpt lat="49.85913" lon="2.33492">
        <ele>57.9</ele>
        <time>2023-04-06T12:58:15Z</time>
      </trkpt>
      <trkpt lat="49.85914" lon="2.33494">
        <ele>57.8</ele>
        <time>2023-04-06T12:58:16Z</time>
      </trkpt>
      <trkpt lat="49.85914" lon="2.33495">
        <ele>57.8</ele>
        <time>2023-04-06T12:58:17Z</time>
      </trkpt>
      <trkpt lat="49.85915" lon="2.33496">
        <ele>57.7</ele>
        <time>2023-04-06T12:58:18Z</time>
      </trkpt>
      <trkpt lat="49.85916" lon="2.33499">
        <ele>57.6</ele>
        <time>2023-04-06T12:58:19Z</time>
      </trkpt>
      <trkpt lat="49.85918" lon="2.33501">
        <ele>57.5</ele>
        <time>2023-04-06T12:58:20Z</time>
      </trkpt>
      <trkpt lat="49.85918" lon="2.33502">
        <ele>57.4</ele>
        <time>2023-04-06T12:58:22Z</time>
      </trkpt>
      <trkpt lat="49.85919" lon="2.33503">
        <ele>57.4</ele>
        <time>2023-04-06T12:58:23Z</time>
      </trkpt>
      <trkpt lat="49.85921" lon="2.33506">
        <ele>57.3</ele>
        <time>2023-04-06T12:58:24Z</time>
      </trkpt>
      <trkpt lat="49.85921" lon="2.33507">
        <ele>57.2</ele>
        <time>2023-04-06T12:58:25Z</time>
      </trkpt>
      <trkpt lat="49.85922" lon="2.33509">
        <ele>57.1</ele>
        <time>2023-04-06T12:58:26Z</time>
      </trkpt>
      <trkpt lat="49.85923" lon="2.33512">
        <ele>57</ele>
        <time>2023-04-06T12:58:27Z</time>
      </trkpt>
      <trkpt lat="49.85924" lon="2.33515">
        <ele>56.9</ele>
        <time>2023-04-06T12:58:29Z</time>
      </trkpt>
      <trkpt lat="49.85924" lon="2.33516">
        <ele>56.8</ele>
        <time>2023-04-06T12:58:30Z</time>
      </trkpt>
      <trkpt lat="49.85924" lon="2.33517">
        <ele>56.8</ele>
        <time>2023-04-06T12:58:31Z</time>
      </trkpt>
      <trkpt lat="49.85925" lon="2.33519">
        <ele>56.7</ele>
        <time>2023-04-06T12:58:32Z</time>
      </trkpt>
      <trkpt lat="49.85926" lon="2.3352">
        <ele>56.7</ele>
        <time>2023-04-06T12:58:33Z</time>
      </trkpt>
      <trkpt lat="49.85926" lon="2.33522">
        <ele>56.6</ele>
        <time>2023-04-06T12:58:34Z</time>
      </trkpt>
      <trkpt lat="49.85927" lon="2.33525">
        <ele>56.5</ele>
        <time>2023-04-06T12:58:35Z</time>
      </trkpt>
      <trkpt lat="49.85928" lon="2.33526">
        <ele>56.4</ele>
        <time>2023-04-06T12:58:36Z</time>
      </trkpt>
      <trkpt lat="49.85928" lon="2.33527">
        <ele>56.4</ele>
        <time>2023-04-06T12:58:37Z</time>
      </trkpt>
      <trkpt lat="49.85929" lon="2.33529">
        <ele>56.3</ele>
        <time>2023-04-06T12:58:38Z</time>
      </trkpt>
      <trkpt lat="49.8593" lon="2.3353">
        <ele>56.2</ele>
        <time>2023-04-06T12:58:39Z</time>
      </trkpt>
      <trkpt lat="49.85931" lon="2.33532">
        <ele>56.1</ele>
        <time>2023-04-06T12:58:41Z</time>
      </trkpt>
      <trkpt lat="49.85932" lon="2.33534">
        <ele>56</ele>
        <time>2023-04-06T12:58:42Z</time>
      </trkpt>
      <trkpt lat="49.85933" lon="2.33535">
        <ele>56</ele>
        <time>2023-04-06T12:58:43Z</time>
      </trkpt>
      <trkpt lat="49.85934" lon="2.33536">
        <ele>55.9</ele>
        <time>2023-04-06T12:58:44Z</time>
      </trkpt>
      <trkpt lat="49.85935" lon="2.33538">
        <ele>55.8</ele>
        <time>2023-04-06T12:58:45Z</time>
      </trkpt>
      <trkpt lat="49.85935" lon="2.33539">
        <ele>55.8</ele>
        <time>2023-04-06T12:58:46Z</time>
      </trkpt>
      <trkpt lat="49.85936" lon="2.3354">
        <ele>55.7</ele>
        <time>2023-04-06T12:58:47Z</time>
      </trkpt>
      <trkpt lat="49.85937" lon="2.33543">
        <ele>55.6</ele>
        <time>2023-04-06T12:58:48Z</time>
      </trkpt>
      <trkpt lat="49.85938" lon="2.33544">
        <ele>55.6</ele>
        <time>2023-04-06T12:58:49Z</time>
      </trkpt>
      <trkpt lat="49.85939" lon="2.33545">
        <ele>55.5</ele>
        <time>2023-04-06T12:58:50Z</time>
      </trkpt>
      <trkpt lat="49.8594" lon="2.33547">
        <ele>55.4</ele>
        <time>2023-04-06T12:58:51Z</time>
      </trkpt>
      <trkpt lat="49.85941" lon="2.33548">
        <ele>55.3</ele>
        <time>2023-04-06T12:58:53Z</time>
      </trkpt>
      <trkpt lat="49.85942" lon="2.33549">
        <ele>55.3</ele>
        <time>2023-04-06T12:58:54Z</time>
      </trkpt>
      <trkpt lat="49.85943" lon="2.33551">
        <ele>55.2</ele>
        <time>2023-04-06T12:58:56Z</time>
      </trkpt>
      <trkpt lat="49.85944" lon="2.33553">
        <ele>55.1</ele>
        <time>2023-04-06T12:58:57Z</time>
      </trkpt>
      <trkpt lat="49.85946" lon="2.33555">
        <ele>55</ele>
        <time>2023-04-06T12:58:58Z</time>
      </trkpt>
      <trkpt lat="49.85946" lon="2.33556">
        <ele>55</ele>
        <time>2023-04-06T12:58:59Z</time>
      </trkpt>
      <trkpt lat="49.85947" lon="2.33557">
        <ele>54.9</ele>
        <time>2023-04-06T12:59:00Z</time>
      </trkpt>
      <trkpt lat="49.85948" lon="2.33559">
        <ele>54.8</ele>
        <time>2023-04-06T12:59:01Z</time>
      </trkpt>
      <trkpt lat="49.85949" lon="2.3356">
        <ele>54.8</ele>
        <time>2023-04-06T12:59:02Z</time>
      </trkpt>
      <trkpt lat="49.85949" lon="2.33561">
        <ele>54.7</ele>
        <time>2023-04-06T12:59:03Z</time>
      </trkpt>
      <trkpt lat="49.85951" lon="2.33565">
        <ele>54.6</ele>
        <time>2023-04-06T12:59:05Z</time>
      </trkpt>
      <trkpt lat="49.85952" lon="2.33565">
        <ele>54.5</ele>
        <time>2023-04-06T12:59:06Z</time>
      </trkpt>
      <trkpt lat="49.85953" lon="2.33567">
        <ele>54.5</ele>
        <time>2023-04-06T12:59:07Z</time>
      </trkpt>
      <trkpt lat="49.85953" lon="2.33568">
        <ele>54.4</ele>
        <time>2023-04-06T12:59:08Z</time>
      </trkpt>
      <trkpt lat="49.85954" lon="2.3357">
        <ele>54.4</ele>
        <time>2023-04-06T12:59:09Z</time>
      </trkpt>
      <trkpt lat="49.85955" lon="2.33572">
        <ele>54.3</ele>
        <time>2023-04-06T12:59:10Z</time>
      </trkpt>
      <trkpt lat="49.85956" lon="2.33574">
        <ele>54.2</ele>
        <time>2023-04-06T12:59:11Z</time>
      </trkpt>
      <trkpt lat="49.85957" lon="2.33577">
        <ele>54.1</ele>
        <time>2023-04-06T12:59:12Z</time>
      </trkpt>
      <trkpt lat="49.85957" lon="2.33578">
        <ele>54.1</ele>
        <time>2023-04-06T12:59:13Z</time>
      </trkpt>
      <trkpt lat="49.85958" lon="2.33579">
        <ele>54.1</ele>
        <time>2023-04-06T12:59:14Z</time>
      </trkpt>
      <trkpt lat="49.85958" lon="2.33581">
        <ele>54</ele>
        <time>2023-04-06T12:59:15Z</time>
      </trkpt>
      <trkpt lat="49.85959" lon="2.33582">
        <ele>53.9</ele>
        <time>2023-04-06T12:59:16Z</time>
      </trkpt>
      <trkpt lat="49.85961" lon="2.33585">
        <ele>53.8</ele>
        <time>2023-04-06T12:59:18Z</time>
      </trkpt>
      <trkpt lat="49.85961" lon="2.33586">
        <ele>53.8</ele>
        <time>2023-04-06T12:59:19Z</time>
      </trkpt>
      <trkpt lat="49.85962" lon="2.33587">
        <ele>53.8</ele>
        <time>2023-04-06T12:59:20Z</time>
      </trkpt>
      <trkpt lat="49.85963" lon="2.33589">
        <ele>53.7</ele>
        <time>2023-04-06T12:59:21Z</time>
      </trkpt>
      <trkpt lat="49.85964" lon="2.3359">
        <ele>53.6</ele>
        <time>2023-04-06T12:59:22Z</time>
      </trkpt>
      <trkpt lat="49.85964" lon="2.33591">
        <ele>53.6</ele>
        <time>2023-04-06T12:59:23Z</time>
      </trkpt>
      <trkpt lat="49.85965" lon="2.33593">
        <ele>53.5</ele>
        <time>2023-04-06T12:59:24Z</time>
      </trkpt>
      <trkpt lat="49.85966" lon="2.33595">
        <ele>53.5</ele>
        <time>2023-04-06T12:59:25Z</time>
      </trkpt>
      <trkpt lat="49.85967" lon="2.33597">
        <ele>53.4</ele>
        <time>2023-04-06T12:59:26Z</time>
      </trkpt>
      <trkpt lat="49.85968" lon="2.33599">
        <ele>53.3</ele>
        <time>2023-04-06T12:59:28Z</time>
      </trkpt>
      <trkpt lat="49.85969" lon="2.33601">
        <ele>53.2</ele>
        <time>2023-04-06T12:59:29Z</time>
      </trkpt>
      <trkpt lat="49.8597" lon="2.33603">
        <ele>53.2</ele>
        <time>2023-04-06T12:59:30Z</time>
      </trkpt>
      <trkpt lat="49.85971" lon="2.33605">
        <ele>53.1</ele>
        <time>2023-04-06T12:59:31Z</time>
      </trkpt>
      <trkpt lat="49.85972" lon="2.33606">
        <ele>53</ele>
        <time>2023-04-06T12:59:32Z</time>
      </trkpt>
      <trkpt lat="49.85972" lon="2.33608">
        <ele>53</ele>
        <time>2023-04-06T12:59:33Z</time>
      </trkpt>
      <trkpt lat="49.85973" lon="2.33611">
        <ele>52.9</ele>
        <time>2023-04-06T12:59:35Z</time>
      </trkpt>
      <trkpt lat="49.85974" lon="2.33612">
        <ele>52.8</ele>
        <time>2023-04-06T12:59:36Z</time>
      </trkpt>
      <trkpt lat="49.85975" lon="2.33613">
        <ele>52.8</ele>
        <time>2023-04-06T12:59:37Z</time>
      </trkpt>
      <trkpt lat="49.85975" lon="2.33615">
        <ele>52.7</ele>
        <time>2023-04-06T12:59:38Z</time>
      </trkpt>
      <trkpt lat="49.85977" lon="2.33617">
        <ele>52.6</ele>
        <time>2023-04-06T12:59:39Z</time>
      </trkpt>
      <trkpt lat="49.85978" lon="2.33618">
        <ele>52.6</ele>
        <time>2023-04-06T12:59:40Z</time>
      </trkpt>
      <trkpt lat="49.85978" lon="2.33619">
        <ele>52.5</ele>
        <time>2023-04-06T12:59:41Z</time>
      </trkpt>
      <trkpt lat="49.85979" lon="2.33621">
        <ele>52.4</ele>
        <time>2023-04-06T12:59:42Z</time>
      </trkpt>
      <trkpt lat="49.8598" lon="2.33623">
        <ele>52.4</ele>
        <time>2023-04-06T12:59:44Z</time>
      </trkpt>
      <trkpt lat="49.85981" lon="2.33624">
        <ele>52.3</ele>
        <time>2023-04-06T12:59:45Z</time>
      </trkpt>
      <trkpt lat="49.85982" lon="2.33626">
        <ele>52.2</ele>
        <time>2023-04-06T12:59:46Z</time>
      </trkpt>
      <trkpt lat="49.85983" lon="2.33628">
        <ele>52.1</ele>
        <time>2023-04-06T12:59:47Z</time>
      </trkpt>
      <trkpt lat="49.85983" lon="2.3363">
        <ele>52</ele>
        <time>2023-04-06T12:59:48Z</time>
      </trkpt>
      <trkpt lat="49.85984" lon="2.33632">
        <ele>51.9</ele>
        <time>2023-04-06T12:59:49Z</time>
      </trkpt>
      <trkpt lat="49.85984" lon="2.33634">
        <ele>51.8</ele>
        <time>2023-04-06T12:59:50Z</time>
      </trkpt>
      <trkpt lat="49.85984" lon="2.33637">
        <ele>51.7</ele>
        <time>2023-04-06T12:59:51Z</time>
      </trkpt>
      <trkpt lat="49.85984" lon="2.33639">
        <ele>51.7</ele>
        <time>2023-04-06T12:59:52Z</time>
      </trkpt>
      <trkpt lat="49.85983" lon="2.33641">
        <ele>51.6</ele>
        <time>2023-04-06T12:59:53Z</time>
      </trkpt>
      <trkpt lat="49.85983" lon="2.33643">
        <ele>51.5</ele>
        <time>2023-04-06T12:59:54Z</time>
      </trkpt>
      <trkpt lat="49.85983" lon="2.33644">
        <ele>51.4</ele>
        <time>2023-04-06T12:59:56Z</time>
      </trkpt>
      <trkpt lat="49.85982" lon="2.33648">
        <ele>51.3</ele>
        <time>2023-04-06T12:59:57Z</time>
      </trkpt>
      <trkpt lat="49.85981" lon="2.33649">
        <ele>51.2</ele>
        <time>2023-04-06T12:59:58Z</time>
      </trkpt>
      <trkpt lat="49.85981" lon="2.3365">
        <ele>51.2</ele>
        <time>2023-04-06T12:59:59Z</time>
      </trkpt>
      <trkpt lat="49.8598" lon="2.33653">
        <ele>51</ele>
        <time>2023-04-06T13:00:00Z</time>
      </trkpt>
      <trkpt lat="49.8598" lon="2.33654">
        <ele>51</ele>
        <time>2023-04-06T13:00:01Z</time>
      </trkpt>
      <trkpt lat="49.85979" lon="2.33655">
        <ele>50.9</ele>
        <time>2023-04-06T13:00:02Z</time>
      </trkpt>
      <trkpt lat="49.85978" lon="2.33658">
        <ele>50.8</ele>
        <time>2023-04-06T13:00:03Z</time>
      </trkpt>
      <trkpt lat="49.85978" lon="2.33659">
        <ele>50.7</ele>
        <time>2023-04-06T13:00:04Z</time>
      </trkpt>
      <trkpt lat="49.85977" lon="2.3366">
        <ele>50.6</ele>
        <time>2023-04-06T13:00:05Z</time>
      </trkpt>
      <trkpt lat="49.85977" lon="2.33662">
        <ele>50.6</ele>
        <time>2023-04-06T13:00:07Z</time>
      </trkpt>
      <trkpt lat="49.85976" lon="2.33665">
        <ele>50.5</ele>
        <time>2023-04-06T13:00:08Z</time>
      </trkpt>
      <trkpt lat="49.85975" lon="2.33668">
        <ele>50.3</ele>
        <time>2023-04-06T13:00:09Z</time>
      </trkpt>
      <trkpt lat="49.85975" lon="2.33669">
        <ele>50.3</ele>
        <time>2023-04-06T13:00:10Z</time>
      </trkpt>
      <trkpt lat="49.85974" lon="2.3367">
        <ele>50.2</ele>
        <time>2023-04-06T13:00:11Z</time>
      </trkpt>
      <trkpt lat="49.85974" lon="2.33671">
        <ele>50.2</ele>
        <time>2023-04-06T13:00:12Z</time>
      </trkpt>
      <trkpt lat="49.85973" lon="2.33673">
        <ele>50.1</ele>
        <time>2023-04-06T13:00:13Z</time>
      </trkpt>
      <trkpt lat="49.85973" lon="2.33674">
        <ele>50</ele>
        <time>2023-04-06T13:00:14Z</time>
      </trkpt>
      <trkpt lat="49.85972" lon="2.33676">
        <ele>49.9</ele>
        <time>2023-04-06T13:00:16Z</time>
      </trkpt>
      <trkpt lat="49.85972" lon="2.33678">
        <ele>49.9</ele>
        <time>2023-04-06T13:00:17Z</time>
      </trkpt>
      <trkpt lat="49.85971" lon="2.3368">
        <ele>49.8</ele>
        <time>2023-04-06T13:00:18Z</time>
      </trkpt>
      <trkpt lat="49.8597" lon="2.33682">
        <ele>49.7</ele>
        <time>2023-04-06T13:00:19Z</time>
      </trkpt>
      <trkpt lat="49.8597" lon="2.33683">
        <ele>49.6</ele>
        <time>2023-04-06T13:00:20Z</time>
      </trkpt>
      <trkpt lat="49.85969" lon="2.33686">
        <ele>49.6</ele>
        <time>2023-04-06T13:00:21Z</time>
      </trkpt>
      <trkpt lat="49.85969" lon="2.33688">
        <ele>49.5</ele>
        <time>2023-04-06T13:00:22Z</time>
      </trkpt>
      <trkpt lat="49.85968" lon="2.3369">
        <ele>49.4</ele>
        <time>2023-04-06T13:00:23Z</time>
      </trkpt>
      <trkpt lat="49.85967" lon="2.33694">
        <ele>49.2</ele>
        <time>2023-04-06T13:00:25Z</time>
      </trkpt>
      <trkpt lat="49.85967" lon="2.33695">
        <ele>49.2</ele>
        <time>2023-04-06T13:00:26Z</time>
      </trkpt>
      <trkpt lat="49.85966" lon="2.33698">
        <ele>49.1</ele>
        <time>2023-04-06T13:00:27Z</time>
      </trkpt>
      <trkpt lat="49.85965" lon="2.337">
        <ele>49</ele>
        <time>2023-04-06T13:00:28Z</time>
      </trkpt>
      <trkpt lat="49.85965" lon="2.33701">
        <ele>49</ele>
        <time>2023-04-06T13:00:29Z</time>
      </trkpt>
      <trkpt lat="49.85964" lon="2.33703">
        <ele>48.9</ele>
        <time>2023-04-06T13:00:30Z</time>
      </trkpt>
      <trkpt lat="49.85964" lon="2.33705">
        <ele>48.8</ele>
        <time>2023-04-06T13:00:31Z</time>
      </trkpt>
      <trkpt lat="49.85962" lon="2.33708">
        <ele>48.7</ele>
        <time>2023-04-06T13:00:33Z</time>
      </trkpt>
      <trkpt lat="49.85962" lon="2.33709">
        <ele>48.7</ele>
        <time>2023-04-06T13:00:34Z</time>
      </trkpt>
      <trkpt lat="49.85961" lon="2.3371">
        <ele>48.6</ele>
        <time>2023-04-06T13:00:35Z</time>
      </trkpt>
      <trkpt lat="49.85961" lon="2.33711">
        <ele>48.6</ele>
        <time>2023-04-06T13:00:36Z</time>
      </trkpt>
      <trkpt lat="49.8596" lon="2.33713">
        <ele>48.5</ele>
        <time>2023-04-06T13:00:37Z</time>
      </trkpt>
      <trkpt lat="49.85959" lon="2.33714">
        <ele>48.4</ele>
        <time>2023-04-06T13:00:38Z</time>
      </trkpt>
      <trkpt lat="49.85959" lon="2.33716">
        <ele>48.4</ele>
        <time>2023-04-06T13:00:39Z</time>
      </trkpt>
      <trkpt lat="49.85958" lon="2.33718">
        <ele>48.3</ele>
        <time>2023-04-06T13:00:40Z</time>
      </trkpt>
      <trkpt lat="49.85958" lon="2.3372">
        <ele>48.2</ele>
        <time>2023-04-06T13:00:42Z</time>
      </trkpt>
      <trkpt lat="49.85957" lon="2.33722">
        <ele>48.2</ele>
        <time>2023-04-06T13:00:43Z</time>
      </trkpt>
      <trkpt lat="49.85957" lon="2.33723">
        <ele>48.1</ele>
        <time>2023-04-06T13:00:44Z</time>
      </trkpt>
      <trkpt lat="49.85956" lon="2.33724">
        <ele>48.1</ele>
        <time>2023-04-06T13:00:45Z</time>
      </trkpt>
      <trkpt lat="49.85956" lon="2.33726">
        <ele>48</ele>
        <time>2023-04-06T13:00:46Z</time>
      </trkpt>
      <trkpt lat="49.85955" lon="2.33727">
        <ele>47.9</ele>
        <time>2023-04-06T13:00:47Z</time>
      </trkpt>
      <trkpt lat="49.85954" lon="2.33729">
        <ele>47.9</ele>
        <time>2023-04-06T13:00:48Z</time>
      </trkpt>
      <trkpt lat="49.85953" lon="2.33731">
        <ele>47.8</ele>
        <time>2023-04-06T13:00:50Z</time>
      </trkpt>
      <trkpt lat="49.85952" lon="2.33733">
        <ele>47.7</ele>
        <time>2023-04-06T13:00:51Z</time>
      </trkpt>
      <trkpt lat="49.85951" lon="2.33735">
        <ele>47.6</ele>
        <time>2023-04-06T13:00:52Z</time>
      </trkpt>
      <trkpt lat="49.85951" lon="2.33736">
        <ele>47.5</ele>
        <time>2023-04-06T13:00:53Z</time>
      </trkpt>
      <trkpt lat="49.8595" lon="2.33738">
        <ele>47.4</ele>
        <time>2023-04-06T13:00:54Z</time>
      </trkpt>
      <trkpt lat="49.85948" lon="2.33741">
        <ele>47.2</ele>
        <time>2023-04-06T13:00:55Z</time>
      </trkpt>
      <trkpt lat="49.85948" lon="2.33743">
        <ele>47.2</ele>
        <time>2023-04-06T13:00:56Z</time>
      </trkpt>
      <trkpt lat="49.85947" lon="2.33744">
        <ele>47.1</ele>
        <time>2023-04-06T13:00:57Z</time>
      </trkpt>
      <trkpt lat="49.85946" lon="2.33746">
        <ele>47</ele>
        <time>2023-04-06T13:00:59Z</time>
      </trkpt>
      <trkpt lat="49.85945" lon="2.33747">
        <ele>46.9</ele>
        <time>2023-04-06T13:01:00Z</time>
      </trkpt>
      <trkpt lat="49.85945" lon="2.33749">
        <ele>46.8</ele>
        <time>2023-04-06T13:01:01Z</time>
      </trkpt>
      <trkpt lat="49.85944" lon="2.3375">
        <ele>46.8</ele>
        <time>2023-04-06T13:01:02Z</time>
      </trkpt>
      <trkpt lat="49.85943" lon="2.33751">
        <ele>46.7</ele>
        <time>2023-04-06T13:01:03Z</time>
      </trkpt>
      <trkpt lat="49.85942" lon="2.33754">
        <ele>46.5</ele>
        <time>2023-04-06T13:01:04Z</time>
      </trkpt>
      <trkpt lat="49.85941" lon="2.33755">
        <ele>46.5</ele>
        <time>2023-04-06T13:01:05Z</time>
      </trkpt>
      <trkpt lat="49.8594" lon="2.33756">
        <ele>46.4</ele>
        <time>2023-04-06T13:01:06Z</time>
      </trkpt>
      <trkpt lat="49.85939" lon="2.33758">
        <ele>46.3</ele>
        <time>2023-04-06T13:01:07Z</time>
      </trkpt>
      <trkpt lat="49.85938" lon="2.33759">
        <ele>46.2</ele>
        <time>2023-04-06T13:01:08Z</time>
      </trkpt>
      <trkpt lat="49.85937" lon="2.33763">
        <ele>46</ele>
        <time>2023-04-06T13:01:10Z</time>
      </trkpt>
      <trkpt lat="49.85936" lon="2.33764">
        <ele>45.9</ele>
        <time>2023-04-06T13:01:11Z</time>
      </trkpt>
      <trkpt lat="49.85935" lon="2.33766">
        <ele>45.8</ele>
        <time>2023-04-06T13:01:12Z</time>
      </trkpt>
      <trkpt lat="49.85934" lon="2.33768">
        <ele>45.7</ele>
        <time>2023-04-06T13:01:13Z</time>
      </trkpt>
      <trkpt lat="49.85934" lon="2.3377">
        <ele>45.6</ele>
        <time>2023-04-06T13:01:14Z</time>
      </trkpt>
      <trkpt lat="49.85933" lon="2.33772">
        <ele>45.5</ele>
        <time>2023-04-06T13:01:15Z</time>
      </trkpt>
      <trkpt lat="49.85932" lon="2.33775">
        <ele>45.4</ele>
        <time>2023-04-06T13:01:16Z</time>
      </trkpt>
      <trkpt lat="49.85932" lon="2.33776">
        <ele>45.3</ele>
        <time>2023-04-06T13:01:17Z</time>
      </trkpt>
      <trkpt lat="49.85931" lon="2.33777">
        <ele>45.3</ele>
        <time>2023-04-06T13:01:18Z</time>
      </trkpt>
      <trkpt lat="49.85931" lon="2.33779">
        <ele>45.2</ele>
        <time>2023-04-06T13:01:19Z</time>
      </trkpt>
      <trkpt lat="49.8593" lon="2.33781">
        <ele>45.1</ele>
        <time>2023-04-06T13:01:20Z</time>
      </trkpt>
      <trkpt lat="49.85929" lon="2.33783">
        <ele>44.9</ele>
        <time>2023-04-06T13:01:22Z</time>
      </trkpt>
      <trkpt lat="49.85929" lon="2.33785">
        <ele>44.8</ele>
        <time>2023-04-06T13:01:23Z</time>
      </trkpt>
      <trkpt lat="49.85928" lon="2.33787">
        <ele>44.7</ele>
        <time>2023-04-06T13:01:24Z</time>
      </trkpt>
      <trkpt lat="49.85928" lon="2.33789">
        <ele>44.7</ele>
        <time>2023-04-06T13:01:25Z</time>
      </trkpt>
      <trkpt lat="49.85928" lon="2.33791">
        <ele>44.6</ele>
        <time>2023-04-06T13:01:26Z</time>
      </trkpt>
      <trkpt lat="49.85927" lon="2.33793">
        <ele>44.5</ele>
        <time>2023-04-06T13:01:27Z</time>
      </trkpt>
      <trkpt lat="49.85927" lon="2.33795">
        <ele>44.4</ele>
        <time>2023-04-06T13:01:28Z</time>
      </trkpt>
      <trkpt lat="49.85927" lon="2.33798">
        <ele>44.3</ele>
        <time>2023-04-06T13:01:30Z</time>
      </trkpt>
      <trkpt lat="49.85927" lon="2.338">
        <ele>44.2</ele>
        <time>2023-04-06T13:01:31Z</time>
      </trkpt>
      <trkpt lat="49.85927" lon="2.33802">
        <ele>44.1</ele>
        <time>2023-04-06T13:01:32Z</time>
      </trkpt>
      <trkpt lat="49.85926" lon="2.33804">
        <ele>44</ele>
        <time>2023-04-06T13:01:33Z</time>
      </trkpt>
      <trkpt lat="49.85926" lon="2.33807">
        <ele>43.9</ele>
        <time>2023-04-06T13:01:34Z</time>
      </trkpt>
      <trkpt lat="49.85926" lon="2.33809">
        <ele>43.8</ele>
        <time>2023-04-06T13:01:35Z</time>
      </trkpt>
      <trkpt lat="49.85926" lon="2.33811">
        <ele>43.7</ele>
        <time>2023-04-06T13:01:37Z</time>
      </trkpt>
      <trkpt lat="49.85926" lon="2.33813">
        <ele>43.6</ele>
        <time>2023-04-06T13:01:38Z</time>
      </trkpt>
      <trkpt lat="49.85926" lon="2.33816">
        <ele>43.5</ele>
        <time>2023-04-06T13:01:39Z</time>
      </trkpt>
      <trkpt lat="49.85926" lon="2.33818">
        <ele>43.4</ele>
        <time>2023-04-06T13:01:40Z</time>
      </trkpt>
      <trkpt lat="49.85926" lon="2.33821">
        <ele>43.2</ele>
        <time>2023-04-06T13:01:41Z</time>
      </trkpt>
      <trkpt lat="49.85926" lon="2.33822">
        <ele>43.2</ele>
        <time>2023-04-06T13:01:42Z</time>
      </trkpt>
      <trkpt lat="49.85926" lon="2.33824">
        <ele>43.1</ele>
        <time>2023-04-06T13:01:43Z</time>
      </trkpt>
      <trkpt lat="49.85926" lon="2.33826">
        <ele>43</ele>
        <time>2023-04-06T13:01:44Z</time>
      </trkpt>
      <trkpt lat="49.85925" lon="2.33828">
        <ele>43</ele>
        <time>2023-04-06T13:01:45Z</time>
      </trkpt>
      <trkpt lat="49.85925" lon="2.3383">
        <ele>42.9</ele>
        <time>2023-04-06T13:01:47Z</time>
      </trkpt>
      <trkpt lat="49.85925" lon="2.33832">
        <ele>42.8</ele>
        <time>2023-04-06T13:01:48Z</time>
      </trkpt>
      <trkpt lat="49.85925" lon="2.33834">
        <ele>42.7</ele>
        <time>2023-04-06T13:01:49Z</time>
      </trkpt>
      <trkpt lat="49.85925" lon="2.33836">
        <ele>42.6</ele>
        <time>2023-04-06T13:01:50Z</time>
      </trkpt>
      <trkpt lat="49.85925" lon="2.33839">
        <ele>42.5</ele>
        <time>2023-04-06T13:01:51Z</time>
      </trkpt>
      <trkpt lat="49.85925" lon="2.33841">
        <ele>42.4</ele>
        <time>2023-04-06T13:01:52Z</time>
      </trkpt>
      <trkpt lat="49.85925" lon="2.33843">
        <ele>42.3</ele>
        <time>2023-04-06T13:01:53Z</time>
      </trkpt>
      <trkpt lat="49.85925" lon="2.33845">
        <ele>42.2</ele>
        <time>2023-04-06T13:01:54Z</time>
      </trkpt>
      <trkpt lat="49.85925" lon="2.33847">
        <ele>42.1</ele>
        <time>2023-04-06T13:01:55Z</time>
      </trkpt>
      <trkpt lat="49.85926" lon="2.33849">
        <ele>42.1</ele>
        <time>2023-04-06T13:01:57Z</time>
      </trkpt>
      <trkpt lat="49.85926" lon="2.33851">
        <ele>41.9</ele>
        <time>2023-04-06T13:01:58Z</time>
      </trkpt>
      <trkpt lat="49.85926" lon="2.33854">
        <ele>41.9</ele>
        <time>2023-04-06T13:01:59Z</time>
      </trkpt>
      <trkpt lat="49.85926" lon="2.33856">
        <ele>41.8</ele>
        <time>2023-04-06T13:02:01Z</time>
      </trkpt>
      <trkpt lat="49.85925" lon="2.33858">
        <ele>41.7</ele>
        <time>2023-04-06T13:02:02Z</time>
      </trkpt>
      <trkpt lat="49.85926" lon="2.33859">
        <ele>41.7</ele>
        <time>2023-04-06T13:02:03Z</time>
      </trkpt>
      <trkpt lat="49.85926" lon="2.3386">
        <ele>41.6</ele>
        <time>2023-04-06T13:02:05Z</time>
      </trkpt>
      <trkpt lat="49.85926" lon="2.3386">
        <ele>41.6</ele>
        <time>2023-04-06T13:02:06Z</time>
      </trkpt>
      <trkpt lat="49.85926" lon="2.3386">
        <ele>41.6</ele>
        <time>2023-04-06T13:02:08Z</time>
      </trkpt>
      <trkpt lat="49.85926" lon="2.3386">
        <ele>41.6</ele>
        <time>2023-04-06T13:02:09Z</time>
      </trkpt>
      <trkpt lat="49.85926" lon="2.3386">
        <ele>41.6</ele>
        <time>2023-04-06T13:02:10Z</time>
      </trkpt>
      <trkpt lat="49.85926" lon="2.33859">
        <ele>41.6</ele>
        <time>2023-04-06T13:02:12Z</time>
      </trkpt>
      <trkpt lat="49.85926" lon="2.33859">
        <ele>41.6</ele>
        <time>2023-04-06T13:02:13Z</time>
      </trkpt>
      <trkpt lat="49.85926" lon="2.33859">
        <ele>41.5</ele>
        <time>2023-04-06T13:02:14Z</time>
      </trkpt>
      <trkpt lat="49.85926" lon="2.3386">
        <ele>41.5</ele>
        <time>2023-04-06T13:02:16Z</time>
      </trkpt>
      <trkpt lat="49.85926" lon="2.3386">
        <ele>41.5</ele>
        <time>2023-04-06T13:02:17Z</time>
      </trkpt>
      <trkpt lat="49.85927" lon="2.33861">
        <ele>41</ele>
        <time>2023-04-06T13:02:18Z</time>
      </trkpt>
      <trkpt lat="49.85927" lon="2.33862">
        <ele>40.9</ele>
        <time>2023-04-06T13:02:19Z</time>
      </trkpt>
      <trkpt lat="49.85927" lon="2.33863">
        <ele>40.9</ele>
        <time>2023-04-06T13:02:20Z</time>
      </trkpt>
      <trkpt lat="49.85928" lon="2.33865">
        <ele>40.9</ele>
        <time>2023-04-06T13:02:21Z</time>
      </trkpt>
      <trkpt lat="49.85929" lon="2.33866">
        <ele>40.8</ele>
        <time>2023-04-06T13:02:23Z</time>
      </trkpt>
      <trkpt lat="49.85929" lon="2.33868">
        <ele>40.8</ele>
        <time>2023-04-06T13:02:24Z</time>
      </trkpt>
      <trkpt lat="49.8593" lon="2.33869">
        <ele>40.7</ele>
        <time>2023-04-06T13:02:25Z</time>
      </trkpt>
      <trkpt lat="49.85931" lon="2.33871">
        <ele>40.6</ele>
        <time>2023-04-06T13:02:26Z</time>
      </trkpt>
      <trkpt lat="49.85933" lon="2.33872">
        <ele>40.6</ele>
        <time>2023-04-06T13:02:27Z</time>
      </trkpt>
      <trkpt lat="49.85934" lon="2.33873">
        <ele>40.5</ele>
        <time>2023-04-06T13:02:28Z</time>
      </trkpt>
      <trkpt lat="49.85935" lon="2.33873">
        <ele>40.5</ele>
        <time>2023-04-06T13:02:29Z</time>
      </trkpt>
      <trkpt lat="49.85936" lon="2.33874">
        <ele>40.4</ele>
        <time>2023-04-06T13:02:30Z</time>
      </trkpt>
      <trkpt lat="49.85937" lon="2.33875">
        <ele>40.4</ele>
        <time>2023-04-06T13:02:31Z</time>
      </trkpt>
      <trkpt lat="49.85938" lon="2.33876">
        <ele>40.3</ele>
        <time>2023-04-06T13:02:32Z</time>
      </trkpt>
      <trkpt lat="49.85939" lon="2.33876">
        <ele>40.3</ele>
        <time>2023-04-06T13:02:33Z</time>
      </trkpt>
      <trkpt lat="49.8594" lon="2.33877">
        <ele>40.3</ele>
        <time>2023-04-06T13:02:35Z</time>
      </trkpt>
      <trkpt lat="49.85942" lon="2.33878">
        <ele>40.2</ele>
        <time>2023-04-06T13:02:36Z</time>
      </trkpt>
      <trkpt lat="49.85943" lon="2.33879">
        <ele>40.1</ele>
        <time>2023-04-06T13:02:37Z</time>
      </trkpt>
      <trkpt lat="49.85944" lon="2.3388">
        <ele>40.1</ele>
        <time>2023-04-06T13:02:38Z</time>
      </trkpt>
      <trkpt lat="49.85946" lon="2.3388">
        <ele>40</ele>
        <time>2023-04-06T13:02:39Z</time>
      </trkpt>
      <trkpt lat="49.85948" lon="2.33881">
        <ele>40</ele>
        <time>2023-04-06T13:02:40Z</time>
      </trkpt>
      <trkpt lat="49.85949" lon="2.33882">
        <ele>39.9</ele>
        <time>2023-04-06T13:02:41Z</time>
      </trkpt>
      <trkpt lat="49.8595" lon="2.33882">
        <ele>39.9</ele>
        <time>2023-04-06T13:02:42Z</time>
      </trkpt>
      <trkpt lat="49.85951" lon="2.33883">
        <ele>39.8</ele>
        <time>2023-04-06T13:02:43Z</time>
      </trkpt>
      <trkpt lat="49.85952" lon="2.33885">
        <ele>39.8</ele>
        <time>2023-04-06T13:02:44Z</time>
      </trkpt>
      <trkpt lat="49.85953" lon="2.33887">
        <ele>39.7</ele>
        <time>2023-04-06T13:02:45Z</time>
      </trkpt>
      <trkpt lat="49.85954" lon="2.3389">
        <ele>39.7</ele>
        <time>2023-04-06T13:02:47Z</time>
      </trkpt>
      <trkpt lat="49.85954" lon="2.33892">
        <ele>39.6</ele>
        <time>2023-04-06T13:02:48Z</time>
      </trkpt>
      <trkpt lat="49.85955" lon="2.33894">
        <ele>39.6</ele>
        <time>2023-04-06T13:02:49Z</time>
      </trkpt>
      <trkpt lat="49.85956" lon="2.33896">
        <ele>39.5</ele>
        <time>2023-04-06T13:02:50Z</time>
      </trkpt>
      <trkpt lat="49.85957" lon="2.33897">
        <ele>39.5</ele>
        <time>2023-04-06T13:02:51Z</time>
      </trkpt>
      <trkpt lat="49.85958" lon="2.33898">
        <ele>39.5</ele>
        <time>2023-04-06T13:02:52Z</time>
      </trkpt>
      <trkpt lat="49.85959" lon="2.33899">
        <ele>39.4</ele>
        <time>2023-04-06T13:02:53Z</time>
      </trkpt>
      <trkpt lat="49.8596" lon="2.339">
        <ele>39.4</ele>
        <time>2023-04-06T13:02:54Z</time>
      </trkpt>
      <trkpt lat="49.85961" lon="2.339">
        <ele>39.4</ele>
        <time>2023-04-06T13:02:55Z</time>
      </trkpt>
      <trkpt lat="49.85962" lon="2.33901">
        <ele>39.3</ele>
        <time>2023-04-06T13:02:57Z</time>
      </trkpt>
      <trkpt lat="49.85964" lon="2.33902">
        <ele>39.3</ele>
        <time>2023-04-06T13:02:58Z</time>
      </trkpt>
      <trkpt lat="49.85966" lon="2.33903">
        <ele>39.2</ele>
        <time>2023-04-06T13:02:59Z</time>
      </trkpt>
      <trkpt lat="49.85967" lon="2.33904">
        <ele>39.2</ele>
        <time>2023-04-06T13:03:00Z</time>
      </trkpt>
      <trkpt lat="49.85968" lon="2.33905">
        <ele>39.1</ele>
        <time>2023-04-06T13:03:01Z</time>
      </trkpt>
      <trkpt lat="49.85969" lon="2.33905">
        <ele>39.1</ele>
        <time>2023-04-06T13:03:02Z</time>
      </trkpt>
      <trkpt lat="49.8597" lon="2.33906">
        <ele>39</ele>
        <time>2023-04-06T13:03:03Z</time>
      </trkpt>
      <trkpt lat="49.85972" lon="2.33907">
        <ele>39</ele>
        <time>2023-04-06T13:03:05Z</time>
      </trkpt>
      <trkpt lat="49.85974" lon="2.33908">
        <ele>38.9</ele>
        <time>2023-04-06T13:03:06Z</time>
      </trkpt>
      <trkpt lat="49.85975" lon="2.33908">
        <ele>38.9</ele>
        <time>2023-04-06T13:03:07Z</time>
      </trkpt>
      <trkpt lat="49.85977" lon="2.33908">
        <ele>38.8</ele>
        <time>2023-04-06T13:03:08Z</time>
      </trkpt>
      <trkpt lat="49.85978" lon="2.33909">
        <ele>38.8</ele>
        <time>2023-04-06T13:03:09Z</time>
      </trkpt>
      <trkpt lat="49.8598" lon="2.33909">
        <ele>38.7</ele>
        <time>2023-04-06T13:03:10Z</time>
      </trkpt>
      <trkpt lat="49.85981" lon="2.33909">
        <ele>38.7</ele>
        <time>2023-04-06T13:03:12Z</time>
      </trkpt>
      <trkpt lat="49.85982" lon="2.33909">
        <ele>38.7</ele>
        <time>2023-04-06T13:03:13Z</time>
      </trkpt>
      <trkpt lat="49.85982" lon="2.33909">
        <ele>38.7</ele>
        <time>2023-04-06T13:03:14Z</time>
      </trkpt>
      <trkpt lat="49.85983" lon="2.33909">
        <ele>38.6</ele>
        <time>2023-04-06T13:03:15Z</time>
      </trkpt>
      <trkpt lat="49.85984" lon="2.3391">
        <ele>38.6</ele>
        <time>2023-04-06T13:03:16Z</time>
      </trkpt>
      <trkpt lat="49.85985" lon="2.3391">
        <ele>38.6</ele>
        <time>2023-04-06T13:03:17Z</time>
      </trkpt>
      <trkpt lat="49.85986" lon="2.3391">
        <ele>38.5</ele>
        <time>2023-04-06T13:03:18Z</time>
      </trkpt>
      <trkpt lat="49.85987" lon="2.33911">
        <ele>38.5</ele>
        <time>2023-04-06T13:03:20Z</time>
      </trkpt>
      <trkpt lat="49.85988" lon="2.33912">
        <ele>38.5</ele>
        <time>2023-04-06T13:03:21Z</time>
      </trkpt>
      <trkpt lat="49.85989" lon="2.33913">
        <ele>38.4</ele>
        <time>2023-04-06T13:03:22Z</time>
      </trkpt>
      <trkpt lat="49.8599" lon="2.33915">
        <ele>38.4</ele>
        <time>2023-04-06T13:03:23Z</time>
      </trkpt>
      <trkpt lat="49.85991" lon="2.33915">
        <ele>38.4</ele>
        <time>2023-04-06T13:03:24Z</time>
      </trkpt>
      <trkpt lat="49.85992" lon="2.33915">
        <ele>38.4</ele>
        <time>2023-04-06T13:03:25Z</time>
      </trkpt>
      <trkpt lat="49.85992" lon="2.33916">
        <ele>38.3</ele>
        <time>2023-04-06T13:03:26Z</time>
      </trkpt>
      <trkpt lat="49.85993" lon="2.33916">
        <ele>38.3</ele>
        <time>2023-04-06T13:03:28Z</time>
      </trkpt>
      <trkpt lat="49.85994" lon="2.33916">
        <ele>38.3</ele>
        <time>2023-04-06T13:03:29Z</time>
      </trkpt>
      <trkpt lat="49.85994" lon="2.33914">
        <ele>38.3</ele>
        <time>2023-04-06T13:03:31Z</time>
      </trkpt>
      <trkpt lat="49.85994" lon="2.33913">
        <ele>38.2</ele>
        <time>2023-04-06T13:03:32Z</time>
      </trkpt>
      <trkpt lat="49.85994" lon="2.33911">
        <ele>38.2</ele>
        <time>2023-04-06T13:03:34Z</time>
      </trkpt>
      <trkpt lat="49.85993" lon="2.33911">
        <ele>38.2</ele>
        <time>2023-04-06T13:03:35Z</time>
      </trkpt>
      <trkpt lat="49.85993" lon="2.3391">
        <ele>38.2</ele>
        <time>2023-04-06T13:03:36Z</time>
      </trkpt>
      <trkpt lat="49.85993" lon="2.3391">
        <ele>38.2</ele>
        <time>2023-04-06T13:03:38Z</time>
      </trkpt>
      <trkpt lat="49.85993" lon="2.3391">
        <ele>38.2</ele>
        <time>2023-04-06T13:03:39Z</time>
      </trkpt>
      <trkpt lat="49.85994" lon="2.3391">
        <ele>38.1</ele>
        <time>2023-04-06T13:03:41Z</time>
      </trkpt>
      <trkpt lat="49.85994" lon="2.3391">
        <ele>38.1</ele>
        <time>2023-04-06T13:03:42Z</time>
      </trkpt>
      <trkpt lat="49.85994" lon="2.33909">
        <ele>38.1</ele>
        <time>2023-04-06T13:03:43Z</time>
      </trkpt>
      <trkpt lat="49.85994" lon="2.33909">
        <ele>38.1</ele>
        <time>2023-04-06T13:03:45Z</time>
      </trkpt>
      <trkpt lat="49.85994" lon="2.33909">
        <ele>38.1</ele>
        <time>2023-04-06T13:03:46Z</time>
      </trkpt>
      <trkpt lat="49.85995" lon="2.33909">
        <ele>38.1</ele>
        <time>2023-04-06T13:03:47Z</time>
      </trkpt>
      <trkpt lat="49.85994" lon="2.33909">
        <ele>38.1</ele>
        <time>2023-04-06T13:03:49Z</time>
      </trkpt>
      <trkpt lat="49.85995" lon="2.33909">
        <ele>38.1</ele>
        <time>2023-04-06T13:03:50Z</time>
      </trkpt>
      <trkpt lat="49.85995" lon="2.33909">
        <ele>38.1</ele>
        <time>2023-04-06T13:03:51Z</time>
      </trkpt>
      <trkpt lat="49.85995" lon="2.3391">
        <ele>38.1</ele>
        <time>2023-04-06T13:03:52Z</time>
      </trkpt>
      <trkpt lat="49.85995" lon="2.3391">
        <ele>38.1</ele>
        <time>2023-04-06T13:03:53Z</time>
      </trkpt>
      <trkpt lat="49.85996" lon="2.33911">
        <ele>38.1</ele>
        <time>2023-04-06T13:03:54Z</time>
      </trkpt>
      <trkpt lat="49.85997" lon="2.33912">
        <ele>38</ele>
        <time>2023-04-06T13:03:55Z</time>
      </trkpt>
      <trkpt lat="49.85998" lon="2.33913">
        <ele>38</ele>
        <time>2023-04-06T13:03:56Z</time>
      </trkpt>
      <trkpt lat="49.85999" lon="2.33914">
        <ele>38</ele>
        <time>2023-04-06T13:03:57Z</time>
      </trkpt>
      <trkpt lat="49.86" lon="2.33916">
        <ele>37.9</ele>
        <time>2023-04-06T13:03:58Z</time>
      </trkpt>
      <trkpt lat="49.86001" lon="2.33916">
        <ele>37.9</ele>
        <time>2023-04-06T13:03:59Z</time>
      </trkpt>
      <trkpt lat="49.86003" lon="2.33916">
        <ele>37.9</ele>
        <time>2023-04-06T13:04:01Z</time>
      </trkpt>
      <trkpt lat="49.86004" lon="2.33916">
        <ele>37.8</ele>
        <time>2023-04-06T13:04:02Z</time>
      </trkpt>
      <trkpt lat="49.86005" lon="2.33917">
        <ele>37.8</ele>
        <time>2023-04-06T13:04:03Z</time>
      </trkpt>
      <trkpt lat="49.86006" lon="2.33918">
        <ele>37.8</ele>
        <time>2023-04-06T13:04:05Z</time>
      </trkpt>
      <trkpt lat="49.86007" lon="2.33919">
        <ele>37.8</ele>
        <time>2023-04-06T13:04:06Z</time>
      </trkpt>
      <trkpt lat="49.86008" lon="2.3392">
        <ele>37.7</ele>
        <time>2023-04-06T13:04:07Z</time>
      </trkpt>
      <trkpt lat="49.86009" lon="2.33921">
        <ele>37.7</ele>
        <time>2023-04-06T13:04:08Z</time>
      </trkpt>
      <trkpt lat="49.8601" lon="2.33924">
        <ele>37.6</ele>
        <time>2023-04-06T13:04:09Z</time>
      </trkpt>
      <trkpt lat="49.86012" lon="2.33928">
        <ele>37.5</ele>
        <time>2023-04-06T13:04:10Z</time>
      </trkpt>
      <trkpt lat="49.86013" lon="2.33929">
        <ele>37.5</ele>
        <time>2023-04-06T13:04:11Z</time>
      </trkpt>
      <trkpt lat="49.86015" lon="2.33933">
        <ele>37.4</ele>
        <time>2023-04-06T13:04:13Z</time>
      </trkpt>
      <trkpt lat="49.86016" lon="2.33934">
        <ele>37.4</ele>
        <time>2023-04-06T13:04:14Z</time>
      </trkpt>
      <trkpt lat="49.86018" lon="2.33936">
        <ele>37.3</ele>
        <time>2023-04-06T13:04:15Z</time>
      </trkpt>
      <trkpt lat="49.86019" lon="2.33936">
        <ele>37.3</ele>
        <time>2023-04-06T13:04:16Z</time>
      </trkpt>
      <trkpt lat="49.86021" lon="2.33937">
        <ele>37.3</ele>
        <time>2023-04-06T13:04:17Z</time>
      </trkpt>
      <trkpt lat="49.86022" lon="2.33937">
        <ele>37.2</ele>
        <time>2023-04-06T13:04:18Z</time>
      </trkpt>
      <trkpt lat="49.86022" lon="2.33937">
        <ele>37.2</ele>
        <time>2023-04-06T13:04:19Z</time>
      </trkpt>
      <trkpt lat="49.86024" lon="2.33938">
        <ele>37.2</ele>
        <time>2023-04-06T13:04:20Z</time>
      </trkpt>
      <trkpt lat="49.86025" lon="2.33939">
        <ele>37.1</ele>
        <time>2023-04-06T13:04:22Z</time>
      </trkpt>
      <trkpt lat="49.86026" lon="2.33939">
        <ele>37.1</ele>
        <time>2023-04-06T13:04:23Z</time>
      </trkpt>
      <trkpt lat="49.86028" lon="2.3394">
        <ele>37.1</ele>
        <time>2023-04-06T13:04:24Z</time>
      </trkpt>
      <trkpt lat="49.86029" lon="2.33942">
        <ele>37</ele>
        <time>2023-04-06T13:04:25Z</time>
      </trkpt>
      <trkpt lat="49.86031" lon="2.33943">
        <ele>37</ele>
        <time>2023-04-06T13:04:26Z</time>
      </trkpt>
      <trkpt lat="49.86032" lon="2.33944">
        <ele>36.9</ele>
        <time>2023-04-06T13:04:27Z</time>
      </trkpt>
      <trkpt lat="49.86033" lon="2.33945">
        <ele>36.9</ele>
        <time>2023-04-06T13:04:28Z</time>
      </trkpt>
      <trkpt lat="49.86035" lon="2.33945">
        <ele>36.8</ele>
        <time>2023-04-06T13:04:30Z</time>
      </trkpt>
      <trkpt lat="49.86036" lon="2.33946">
        <ele>36.8</ele>
        <time>2023-04-06T13:04:31Z</time>
      </trkpt>
      <trkpt lat="49.86037" lon="2.33946">
        <ele>36.7</ele>
        <time>2023-04-06T13:04:32Z</time>
      </trkpt>
      <trkpt lat="49.86039" lon="2.33948">
        <ele>36.7</ele>
        <time>2023-04-06T13:04:33Z</time>
      </trkpt>
      <trkpt lat="49.8604" lon="2.33948">
        <ele>36.6</ele>
        <time>2023-04-06T13:04:34Z</time>
      </trkpt>
      <trkpt lat="49.86041" lon="2.33948">
        <ele>36.6</ele>
        <time>2023-04-06T13:04:35Z</time>
      </trkpt>
      <trkpt lat="49.86043" lon="2.3395">
        <ele>36.5</ele>
        <time>2023-04-06T13:04:36Z</time>
      </trkpt>
      <trkpt lat="49.86043" lon="2.33951">
        <ele>36.5</ele>
        <time>2023-04-06T13:04:37Z</time>
      </trkpt>
      <trkpt lat="49.86044" lon="2.33952">
        <ele>36.5</ele>
        <time>2023-04-06T13:04:38Z</time>
      </trkpt>
      <trkpt lat="49.86045" lon="2.33953">
        <ele>36.5</ele>
        <time>2023-04-06T13:04:39Z</time>
      </trkpt>
      <trkpt lat="49.86046" lon="2.33954">
        <ele>36.4</ele>
        <time>2023-04-06T13:04:41Z</time>
      </trkpt>
      <trkpt lat="49.86048" lon="2.33954">
        <ele>36.3</ele>
        <time>2023-04-06T13:04:42Z</time>
      </trkpt>
      <trkpt lat="49.86049" lon="2.33954">
        <ele>36.3</ele>
        <time>2023-04-06T13:04:43Z</time>
      </trkpt>
      <trkpt lat="49.86051" lon="2.33954">
        <ele>36.3</ele>
        <time>2023-04-06T13:04:44Z</time>
      </trkpt>
      <trkpt lat="49.86052" lon="2.33954">
        <ele>36.2</ele>
        <time>2023-04-06T13:04:46Z</time>
      </trkpt>
      <trkpt lat="49.86053" lon="2.33954">
        <ele>36.2</ele>
        <time>2023-04-06T13:04:47Z</time>
      </trkpt>
      <trkpt lat="49.86055" lon="2.33954">
        <ele>36.1</ele>
        <time>2023-04-06T13:04:48Z</time>
      </trkpt>
      <trkpt lat="49.86056" lon="2.33954">
        <ele>36.1</ele>
        <time>2023-04-06T13:04:49Z</time>
      </trkpt>
      <trkpt lat="49.86057" lon="2.33954">
        <ele>36</ele>
        <time>2023-04-06T13:04:50Z</time>
      </trkpt>
      <trkpt lat="49.86057" lon="2.33954">
        <ele>36</ele>
        <time>2023-04-06T13:04:51Z</time>
      </trkpt>
      <trkpt lat="49.86057" lon="2.33954">
        <ele>36</ele>
        <time>2023-04-06T13:04:52Z</time>
      </trkpt>
      <trkpt lat="49.86058" lon="2.33954">
        <ele>36</ele>
        <time>2023-04-06T13:04:53Z</time>
      </trkpt>
      <trkpt lat="49.86058" lon="2.33955">
        <ele>36</ele>
        <time>2023-04-06T13:04:54Z</time>
      </trkpt>
      <trkpt lat="49.8606" lon="2.33956">
        <ele>35.9</ele>
        <time>2023-04-06T13:04:56Z</time>
      </trkpt>
      <trkpt lat="49.86061" lon="2.33957">
        <ele>35.9</ele>
        <time>2023-04-06T13:04:57Z</time>
      </trkpt>
      <trkpt lat="49.86062" lon="2.33957">
        <ele>35.9</ele>
        <time>2023-04-06T13:04:58Z</time>
      </trkpt>
      <trkpt lat="49.86064" lon="2.33958">
        <ele>35.8</ele>
        <time>2023-04-06T13:04:59Z</time>
      </trkpt>
      <trkpt lat="49.86065" lon="2.33959">
        <ele>35.8</ele>
        <time>2023-04-06T13:05:00Z</time>
      </trkpt>
      <trkpt lat="49.86065" lon="2.33959">
        <ele>35.8</ele>
        <time>2023-04-06T13:05:01Z</time>
      </trkpt>
      <trkpt lat="49.86066" lon="2.3396">
        <ele>35.8</ele>
        <time>2023-04-06T13:05:02Z</time>
      </trkpt>
      <trkpt lat="49.86067" lon="2.33962">
        <ele>35.7</ele>
        <time>2023-04-06T13:05:04Z</time>
      </trkpt>
      <trkpt lat="49.86068" lon="2.33963">
        <ele>35.7</ele>
        <time>2023-04-06T13:05:05Z</time>
      </trkpt>
      <trkpt lat="49.86069" lon="2.33964">
        <ele>35.6</ele>
        <time>2023-04-06T13:05:06Z</time>
      </trkpt>
      <trkpt lat="49.86071" lon="2.33965">
        <ele>35.6</ele>
        <time>2023-04-06T13:05:07Z</time>
      </trkpt>
      <trkpt lat="49.86072" lon="2.33966">
        <ele>35.6</ele>
        <time>2023-04-06T13:05:08Z</time>
      </trkpt>
      <trkpt lat="49.86073" lon="2.33968">
        <ele>35.5</ele>
        <time>2023-04-06T13:05:09Z</time>
      </trkpt>
      <trkpt lat="49.86075" lon="2.33969">
        <ele>35.5</ele>
        <time>2023-04-06T13:05:10Z</time>
      </trkpt>
      <trkpt lat="49.86076" lon="2.3397">
        <ele>35.4</ele>
        <time>2023-04-06T13:05:12Z</time>
      </trkpt>
      <trkpt lat="49.86077" lon="2.33971">
        <ele>35.4</ele>
        <time>2023-04-06T13:05:13Z</time>
      </trkpt>
      <trkpt lat="49.86079" lon="2.33972">
        <ele>35.4</ele>
        <time>2023-04-06T13:05:14Z</time>
      </trkpt>
      <trkpt lat="49.8608" lon="2.33973">
        <ele>35.3</ele>
        <time>2023-04-06T13:05:15Z</time>
      </trkpt>
      <trkpt lat="49.86082" lon="2.33974">
        <ele>35.3</ele>
        <time>2023-04-06T13:05:16Z</time>
      </trkpt>
      <trkpt lat="49.86083" lon="2.33975">
        <ele>35.3</ele>
        <time>2023-04-06T13:05:17Z</time>
      </trkpt>
      <trkpt lat="49.86084" lon="2.33976">
        <ele>35.2</ele>
        <time>2023-04-06T13:05:18Z</time>
      </trkpt>
      <trkpt lat="49.86086" lon="2.33977">
        <ele>35.2</ele>
        <time>2023-04-06T13:05:19Z</time>
      </trkpt>
      <trkpt lat="49.86087" lon="2.33978">
        <ele>35.2</ele>
        <time>2023-04-06T13:05:21Z</time>
      </trkpt>
      <trkpt lat="49.86088" lon="2.33978">
        <ele>35.1</ele>
        <time>2023-04-06T13:05:22Z</time>
      </trkpt>
      <trkpt lat="49.86089" lon="2.33979">
        <ele>35.1</ele>
        <time>2023-04-06T13:05:23Z</time>
      </trkpt>
      <trkpt lat="49.8609" lon="2.3398">
        <ele>35.1</ele>
        <time>2023-04-06T13:05:24Z</time>
      </trkpt>
      <trkpt lat="49.86092" lon="2.3398">
        <ele>35.1</ele>
        <time>2023-04-06T13:05:25Z</time>
      </trkpt>
      <trkpt lat="49.86093" lon="2.33981">
        <ele>35</ele>
        <time>2023-04-06T13:05:26Z</time>
      </trkpt>
      <trkpt lat="49.86095" lon="2.33981">
        <ele>35</ele>
        <time>2023-04-06T13:05:27Z</time>
      </trkpt>
      <trkpt lat="49.86096" lon="2.33981">
        <ele>35</ele>
        <time>2023-04-06T13:05:28Z</time>
      </trkpt>
      <trkpt lat="49.86097" lon="2.33981">
        <ele>35</ele>
        <time>2023-04-06T13:05:29Z</time>
      </trkpt>
      <trkpt lat="49.86099" lon="2.33981">
        <ele>35.1</ele>
        <time>2023-04-06T13:05:31Z</time>
      </trkpt>
      <trkpt lat="49.861" lon="2.33981">
        <ele>35.1</ele>
        <time>2023-04-06T13:05:32Z</time>
      </trkpt>
      <trkpt lat="49.86101" lon="2.3398">
        <ele>35.1</ele>
        <time>2023-04-06T13:05:33Z</time>
      </trkpt>
      <trkpt lat="49.86103" lon="2.33979">
        <ele>35.1</ele>
        <time>2023-04-06T13:05:34Z</time>
      </trkpt>
      <trkpt lat="49.86104" lon="2.33977">
        <ele>35.1</ele>
        <time>2023-04-06T13:05:35Z</time>
      </trkpt>
      <trkpt lat="49.86105" lon="2.33975">
        <ele>35.2</ele>
        <time>2023-04-06T13:05:36Z</time>
      </trkpt>
      <trkpt lat="49.86106" lon="2.33973">
        <ele>35.2</ele>
        <time>2023-04-06T13:05:37Z</time>
      </trkpt>
      <trkpt lat="49.86107" lon="2.33971">
        <ele>35.3</ele>
        <time>2023-04-06T13:05:38Z</time>
      </trkpt>
      <trkpt lat="49.86108" lon="2.33969">
        <ele>35.3</ele>
        <time>2023-04-06T13:05:39Z</time>
      </trkpt>
      <trkpt lat="49.86109" lon="2.33967">
        <ele>35.4</ele>
        <time>2023-04-06T13:05:40Z</time>
      </trkpt>
      <trkpt lat="49.86111" lon="2.33964">
        <ele>35.5</ele>
        <time>2023-04-06T13:05:42Z</time>
      </trkpt>
      <trkpt lat="49.86111" lon="2.33963">
        <ele>35.5</ele>
        <time>2023-04-06T13:05:43Z</time>
      </trkpt>
      <trkpt lat="49.86112" lon="2.3396">
        <ele>35.6</ele>
        <time>2023-04-06T13:05:44Z</time>
      </trkpt>
      <trkpt lat="49.86113" lon="2.33958">
        <ele>35.6</ele>
        <time>2023-04-06T13:05:45Z</time>
      </trkpt>
      <trkpt lat="49.86115" lon="2.33956">
        <ele>35.7</ele>
        <time>2023-04-06T13:05:46Z</time>
      </trkpt>
      <trkpt lat="49.86116" lon="2.33955">
        <ele>35.8</ele>
        <time>2023-04-06T13:05:47Z</time>
      </trkpt>
      <trkpt lat="49.86118" lon="2.33951">
        <ele>35.9</ele>
        <time>2023-04-06T13:05:49Z</time>
      </trkpt>
      <trkpt lat="49.86118" lon="2.3395">
        <ele>35.9</ele>
        <time>2023-04-06T13:05:50Z</time>
      </trkpt>
      <trkpt lat="49.86119" lon="2.33948">
        <ele>36</ele>
        <time>2023-04-06T13:05:51Z</time>
      </trkpt>
      <trkpt lat="49.8612" lon="2.33947">
        <ele>36</ele>
        <time>2023-04-06T13:05:52Z</time>
      </trkpt>
      <trkpt lat="49.86121" lon="2.33945">
        <ele>36.1</ele>
        <time>2023-04-06T13:05:53Z</time>
      </trkpt>
      <trkpt lat="49.86122" lon="2.33943">
        <ele>36.1</ele>
        <time>2023-04-06T13:05:55Z</time>
      </trkpt>
      <trkpt lat="49.86123" lon="2.33941">
        <ele>36.2</ele>
        <time>2023-04-06T13:05:56Z</time>
      </trkpt>
      <trkpt lat="49.86123" lon="2.33939">
        <ele>36.2</ele>
        <time>2023-04-06T13:05:57Z</time>
      </trkpt>
      <trkpt lat="49.86124" lon="2.33938">
        <ele>36.2</ele>
        <time>2023-04-06T13:05:58Z</time>
      </trkpt>
      <trkpt lat="49.86124" lon="2.33936">
        <ele>36.3</ele>
        <time>2023-04-06T13:05:59Z</time>
      </trkpt>
      <trkpt lat="49.86124" lon="2.33935">
        <ele>36.3</ele>
        <time>2023-04-06T13:06:00Z</time>
      </trkpt>
      <trkpt lat="49.86125" lon="2.33932">
        <ele>36.4</ele>
        <time>2023-04-06T13:06:01Z</time>
      </trkpt>
      <trkpt lat="49.86126" lon="2.3393">
        <ele>36.4</ele>
        <time>2023-04-06T13:06:03Z</time>
      </trkpt>
      <trkpt lat="49.86126" lon="2.33929">
        <ele>36.4</ele>
        <time>2023-04-06T13:06:04Z</time>
      </trkpt>
      <trkpt lat="49.86127" lon="2.33926">
        <ele>36.4</ele>
        <time>2023-04-06T13:06:05Z</time>
      </trkpt>
      <trkpt lat="49.86127" lon="2.33925">
        <ele>36.5</ele>
        <time>2023-04-06T13:06:06Z</time>
      </trkpt>
      <trkpt lat="49.86127" lon="2.33924">
        <ele>36.5</ele>
        <time>2023-04-06T13:06:07Z</time>
      </trkpt>
      <trkpt lat="49.86128" lon="2.33921">
        <ele>36.5</ele>
        <time>2023-04-06T13:06:08Z</time>
      </trkpt>
      <trkpt lat="49.86128" lon="2.3392">
        <ele>36.5</ele>
        <time>2023-04-06T13:06:09Z</time>
      </trkpt>
      <trkpt lat="49.86129" lon="2.33918">
        <ele>36.6</ele>
        <time>2023-04-06T13:06:10Z</time>
      </trkpt>
      <trkpt lat="49.8613" lon="2.33915">
        <ele>36.6</ele>
        <time>2023-04-06T13:06:11Z</time>
      </trkpt>
      <trkpt lat="49.8613" lon="2.33914">
        <ele>36.6</ele>
        <time>2023-04-06T13:06:12Z</time>
      </trkpt>
      <trkpt lat="49.8613" lon="2.33912">
        <ele>36.7</ele>
        <time>2023-04-06T13:06:14Z</time>
      </trkpt>
      <trkpt lat="49.86131" lon="2.33911">
        <ele>36.7</ele>
        <time>2023-04-06T13:06:15Z</time>
      </trkpt>
      <trkpt lat="49.86131" lon="2.33909">
        <ele>36.7</ele>
        <time>2023-04-06T13:06:16Z</time>
      </trkpt>
      <trkpt lat="49.86132" lon="2.33908">
        <ele>36.7</ele>
        <time>2023-04-06T13:06:17Z</time>
      </trkpt>
      <trkpt lat="49.86132" lon="2.33905">
        <ele>36.7</ele>
        <time>2023-04-06T13:06:18Z</time>
      </trkpt>
      <trkpt lat="49.86133" lon="2.33904">
        <ele>36.8</ele>
        <time>2023-04-06T13:06:19Z</time>
      </trkpt>
      <trkpt lat="49.86133" lon="2.33902">
        <ele>36.8</ele>
        <time>2023-04-06T13:06:20Z</time>
      </trkpt>
      <trkpt lat="49.86133" lon="2.339">
        <ele>36.8</ele>
        <time>2023-04-06T13:06:21Z</time>
      </trkpt>
      <trkpt lat="49.86134" lon="2.33898">
        <ele>36.8</ele>
        <time>2023-04-06T13:06:22Z</time>
      </trkpt>
      <trkpt lat="49.86134" lon="2.33896">
        <ele>36.8</ele>
        <time>2023-04-06T13:06:23Z</time>
      </trkpt>
      <trkpt lat="49.86135" lon="2.33894">
        <ele>36.8</ele>
        <time>2023-04-06T13:06:25Z</time>
      </trkpt>
      <trkpt lat="49.86135" lon="2.33891">
        <ele>36.9</ele>
        <time>2023-04-06T13:06:26Z</time>
      </trkpt>
      <trkpt lat="49.86136" lon="2.33889">
        <ele>36.9</ele>
        <time>2023-04-06T13:06:27Z</time>
      </trkpt>
      <trkpt lat="49.86136" lon="2.33887">
        <ele>36.9</ele>
        <time>2023-04-06T13:06:28Z</time>
      </trkpt>
      <trkpt lat="49.86137" lon="2.33885">
        <ele>36.9</ele>
        <time>2023-04-06T13:06:29Z</time>
      </trkpt>
      <trkpt lat="49.86137" lon="2.33883">
        <ele>36.9</ele>
        <time>2023-04-06T13:06:30Z</time>
      </trkpt>
      <trkpt lat="49.86138" lon="2.3388">
        <ele>36.9</ele>
        <time>2023-04-06T13:06:31Z</time>
      </trkpt>
      <trkpt lat="49.86139" lon="2.33879">
        <ele>36.9</ele>
        <time>2023-04-06T13:06:32Z</time>
      </trkpt>
      <trkpt lat="49.8614" lon="2.33877">
        <ele>36.9</ele>
        <time>2023-04-06T13:06:33Z</time>
      </trkpt>
      <trkpt lat="49.86141" lon="2.33876">
        <ele>36.9</ele>
        <time>2023-04-06T13:06:35Z</time>
      </trkpt>
      <trkpt lat="49.86141" lon="2.33874">
        <ele>36.9</ele>
        <time>2023-04-06T13:06:36Z</time>
      </trkpt>
      <trkpt lat="49.86142" lon="2.33873">
        <ele>36.9</ele>
        <time>2023-04-06T13:06:37Z</time>
      </trkpt>
      <trkpt lat="49.86142" lon="2.33871">
        <ele>36.9</ele>
        <time>2023-04-06T13:06:38Z</time>
      </trkpt>
      <trkpt lat="49.86143" lon="2.3387">
        <ele>36.9</ele>
        <time>2023-04-06T13:06:39Z</time>
      </trkpt>
      <trkpt lat="49.86143" lon="2.33869">
        <ele>36.9</ele>
        <time>2023-04-06T13:06:40Z</time>
      </trkpt>
      <trkpt lat="49.86144" lon="2.33866">
        <ele>36.9</ele>
        <time>2023-04-06T13:06:41Z</time>
      </trkpt>
      <trkpt lat="49.86144" lon="2.33865">
        <ele>36.9</ele>
        <time>2023-04-06T13:06:42Z</time>
      </trkpt>
      <trkpt lat="49.86145" lon="2.33864">
        <ele>36.9</ele>
        <time>2023-04-06T13:06:43Z</time>
      </trkpt>
      <trkpt lat="49.86146" lon="2.33861">
        <ele>36.9</ele>
        <time>2023-04-06T13:06:44Z</time>
      </trkpt>
      <trkpt lat="49.86146" lon="2.3386">
        <ele>36.9</ele>
        <time>2023-04-06T13:06:46Z</time>
      </trkpt>
      <trkpt lat="49.86147" lon="2.33859">
        <ele>36.9</ele>
        <time>2023-04-06T13:06:47Z</time>
      </trkpt>
      <trkpt lat="49.86148" lon="2.33857">
        <ele>36.9</ele>
        <time>2023-04-06T13:06:48Z</time>
      </trkpt>
      <trkpt lat="49.86149" lon="2.33856">
        <ele>36.9</ele>
        <time>2023-04-06T13:06:49Z</time>
      </trkpt>
      <trkpt lat="49.8615" lon="2.33855">
        <ele>36.9</ele>
        <time>2023-04-06T13:06:50Z</time>
      </trkpt>
      <trkpt lat="49.86151" lon="2.33853">
        <ele>36.8</ele>
        <time>2023-04-06T13:06:51Z</time>
      </trkpt>
      <trkpt lat="49.86152" lon="2.33852">
        <ele>36.8</ele>
        <time>2023-04-06T13:06:52Z</time>
      </trkpt>
      <trkpt lat="49.86152" lon="2.33851">
        <ele>36.8</ele>
        <time>2023-04-06T13:06:53Z</time>
      </trkpt>
      <trkpt lat="49.86153" lon="2.3385">
        <ele>36.8</ele>
        <time>2023-04-06T13:06:54Z</time>
      </trkpt>
      <trkpt lat="49.86153" lon="2.33849">
        <ele>36.8</ele>
        <time>2023-04-06T13:06:56Z</time>
      </trkpt>
      <trkpt lat="49.86154" lon="2.33847">
        <ele>36.8</ele>
        <time>2023-04-06T13:06:57Z</time>
      </trkpt>
      <trkpt lat="49.86155" lon="2.33846">
        <ele>36.8</ele>
        <time>2023-04-06T13:06:58Z</time>
      </trkpt>
      <trkpt lat="49.86155" lon="2.33844">
        <ele>36.7</ele>
        <time>2023-04-06T13:06:59Z</time>
      </trkpt>
      <trkpt lat="49.86155" lon="2.33843">
        <ele>36.7</ele>
        <time>2023-04-06T13:07:00Z</time>
      </trkpt>
      <trkpt lat="49.86156" lon="2.33839">
        <ele>36.7</ele>
        <time>2023-04-06T13:07:01Z</time>
      </trkpt>
      <trkpt lat="49.86157" lon="2.33838">
        <ele>36.7</ele>
        <time>2023-04-06T13:07:02Z</time>
      </trkpt>
      <trkpt lat="49.86157" lon="2.33837">
        <ele>36.7</ele>
        <time>2023-04-06T13:07:03Z</time>
      </trkpt>
      <trkpt lat="49.86158" lon="2.33836">
        <ele>36.6</ele>
        <time>2023-04-06T13:07:04Z</time>
      </trkpt>
      <trkpt lat="49.86159" lon="2.33834">
        <ele>36.6</ele>
        <time>2023-04-06T13:07:05Z</time>
      </trkpt>
      <trkpt lat="49.8616" lon="2.33832">
        <ele>36.6</ele>
        <time>2023-04-06T13:07:06Z</time>
      </trkpt>
      <trkpt lat="49.86162" lon="2.33829">
        <ele>36.5</ele>
        <time>2023-04-06T13:07:08Z</time>
      </trkpt>
      <trkpt lat="49.86163" lon="2.33825">
        <ele>36.3</ele>
        <time>2023-04-06T13:07:09Z</time>
      </trkpt>
      <trkpt lat="49.86163" lon="2.33823">
        <ele>36.2</ele>
        <time>2023-04-06T13:07:10Z</time>
      </trkpt>
      <trkpt lat="49.86164" lon="2.33821">
        <ele>36</ele>
        <time>2023-04-06T13:07:11Z</time>
      </trkpt>
      <trkpt lat="49.86164" lon="2.33818">
        <ele>35.9</ele>
        <time>2023-04-06T13:07:12Z</time>
      </trkpt>
      <trkpt lat="49.86165" lon="2.33815">
        <ele>35.7</ele>
        <time>2023-04-06T13:07:13Z</time>
      </trkpt>
      <trkpt lat="49.86166" lon="2.33814">
        <ele>35.6</ele>
        <time>2023-04-06T13:07:15Z</time>
      </trkpt>
      <trkpt lat="49.86166" lon="2.33813">
        <ele>35.6</ele>
        <time>2023-04-06T13:07:16Z</time>
      </trkpt>
      <trkpt lat="49.86167" lon="2.3381">
        <ele>35.4</ele>
        <time>2023-04-06T13:07:17Z</time>
      </trkpt>
      <trkpt lat="49.86167" lon="2.33809">
        <ele>35.3</ele>
        <time>2023-04-06T13:07:18Z</time>
      </trkpt>
      <trkpt lat="49.86168" lon="2.33808">
        <ele>35.2</ele>
        <time>2023-04-06T13:07:19Z</time>
      </trkpt>
      <trkpt lat="49.86168" lon="2.33806">
        <ele>35.2</ele>
        <time>2023-04-06T13:07:20Z</time>
      </trkpt>
      <trkpt lat="49.86168" lon="2.33804">
        <ele>35</ele>
        <time>2023-04-06T13:07:22Z</time>
      </trkpt>
      <trkpt lat="49.86169" lon="2.33803">
        <ele>34.9</ele>
        <time>2023-04-06T13:07:23Z</time>
      </trkpt>
      <trkpt lat="49.8617" lon="2.33802">
        <ele>34.8</ele>
        <time>2023-04-06T13:07:24Z</time>
      </trkpt>
      <trkpt lat="49.86171" lon="2.338">
        <ele>34.7</ele>
        <time>2023-04-06T13:07:25Z</time>
      </trkpt>
      <trkpt lat="49.86171" lon="2.33799">
        <ele>34.6</ele>
        <time>2023-04-06T13:07:26Z</time>
      </trkpt>
      <trkpt lat="49.86172" lon="2.33798">
        <ele>34.5</ele>
        <time>2023-04-06T13:07:27Z</time>
      </trkpt>
      <trkpt lat="49.86172" lon="2.33796">
        <ele>34.4</ele>
        <time>2023-04-06T13:07:28Z</time>
      </trkpt>
      <trkpt lat="49.86173" lon="2.33793">
        <ele>34.2</ele>
        <time>2023-04-06T13:07:29Z</time>
      </trkpt>
      <trkpt lat="49.86174" lon="2.33792">
        <ele>34.2</ele>
        <time>2023-04-06T13:07:30Z</time>
      </trkpt>
      <trkpt lat="49.86174" lon="2.33791">
        <ele>34.1</ele>
        <time>2023-04-06T13:07:31Z</time>
      </trkpt>
      <trkpt lat="49.86175" lon="2.3379">
        <ele>34</ele>
        <time>2023-04-06T13:07:32Z</time>
      </trkpt>
      <trkpt lat="49.86176" lon="2.33788">
        <ele>33.9</ele>
        <time>2023-04-06T13:07:33Z</time>
      </trkpt>
      <trkpt lat="49.86176" lon="2.33786">
        <ele>33.8</ele>
        <time>2023-04-06T13:07:35Z</time>
      </trkpt>
      <trkpt lat="49.86177" lon="2.33785">
        <ele>33.6</ele>
        <time>2023-04-06T13:07:36Z</time>
      </trkpt>
      <trkpt lat="49.86177" lon="2.33782">
        <ele>33.5</ele>
        <time>2023-04-06T13:07:37Z</time>
      </trkpt>
      <trkpt lat="49.86177" lon="2.33781">
        <ele>33.4</ele>
        <time>2023-04-06T13:07:38Z</time>
      </trkpt>
      <trkpt lat="49.86178" lon="2.33779">
        <ele>33.3</ele>
        <time>2023-04-06T13:07:39Z</time>
      </trkpt>
      <trkpt lat="49.86178" lon="2.33777">
        <ele>33.2</ele>
        <time>2023-04-06T13:07:40Z</time>
      </trkpt>
      <trkpt lat="49.86178" lon="2.33774">
        <ele>33.1</ele>
        <time>2023-04-06T13:07:41Z</time>
      </trkpt>
      <trkpt lat="49.86178" lon="2.33772">
        <ele>33</ele>
        <time>2023-04-06T13:07:43Z</time>
      </trkpt>
      <trkpt lat="49.86178" lon="2.33771">
        <ele>32.9</ele>
        <time>2023-04-06T13:07:44Z</time>
      </trkpt>
      <trkpt lat="49.86178" lon="2.33769">
        <ele>32.8</ele>
        <time>2023-04-06T13:07:45Z</time>
      </trkpt>
      <trkpt lat="49.86179" lon="2.33767">
        <ele>32.7</ele>
        <time>2023-04-06T13:07:46Z</time>
      </trkpt>
      <trkpt lat="49.86179" lon="2.33766">
        <ele>32.6</ele>
        <time>2023-04-06T13:07:47Z</time>
      </trkpt>
      <trkpt lat="49.86179" lon="2.33764">
        <ele>32.5</ele>
        <time>2023-04-06T13:07:48Z</time>
      </trkpt>
      <trkpt lat="49.86179" lon="2.33762">
        <ele>32.5</ele>
        <time>2023-04-06T13:07:49Z</time>
      </trkpt>
      <trkpt lat="49.86179" lon="2.3376">
        <ele>32.4</ele>
        <time>2023-04-06T13:07:51Z</time>
      </trkpt>
      <trkpt lat="49.8618" lon="2.33759">
        <ele>32.3</ele>
        <time>2023-04-06T13:07:52Z</time>
      </trkpt>
      <trkpt lat="49.8618" lon="2.33757">
        <ele>32.2</ele>
        <time>2023-04-06T13:07:53Z</time>
      </trkpt>
      <trkpt lat="49.8618" lon="2.33753">
        <ele>32</ele>
        <time>2023-04-06T13:07:54Z</time>
      </trkpt>
      <trkpt lat="49.8618" lon="2.33752">
        <ele>32</ele>
        <time>2023-04-06T13:07:55Z</time>
      </trkpt>
      <trkpt lat="49.86181" lon="2.33751">
        <ele>31.9</ele>
        <time>2023-04-06T13:07:56Z</time>
      </trkpt>
      <trkpt lat="49.86181" lon="2.33747">
        <ele>31.8</ele>
        <time>2023-04-06T13:07:57Z</time>
      </trkpt>
      <trkpt lat="49.86181" lon="2.33746">
        <ele>31.7</ele>
        <time>2023-04-06T13:07:58Z</time>
      </trkpt>
      <trkpt lat="49.86181" lon="2.33745">
        <ele>31.6</ele>
        <time>2023-04-06T13:07:59Z</time>
      </trkpt>
      <trkpt lat="49.86182" lon="2.33742">
        <ele>31.5</ele>
        <time>2023-04-06T13:08:01Z</time>
      </trkpt>
      <trkpt lat="49.86182" lon="2.3374">
        <ele>31.5</ele>
        <time>2023-04-06T13:08:02Z</time>
      </trkpt>
      <trkpt lat="49.86182" lon="2.33737">
        <ele>31.3</ele>
        <time>2023-04-06T13:08:03Z</time>
      </trkpt>
      <trkpt lat="49.86182" lon="2.33736">
        <ele>31.3</ele>
        <time>2023-04-06T13:08:04Z</time>
      </trkpt>
      <trkpt lat="49.86182" lon="2.33734">
        <ele>31.2</ele>
        <time>2023-04-06T13:08:05Z</time>
      </trkpt>
      <trkpt lat="49.86181" lon="2.33731">
        <ele>31.1</ele>
        <time>2023-04-06T13:08:06Z</time>
      </trkpt>
      <trkpt lat="49.86181" lon="2.3373">
        <ele>31</ele>
        <time>2023-04-06T13:08:07Z</time>
      </trkpt>
      <trkpt lat="49.86181" lon="2.33728">
        <ele>30.9</ele>
        <time>2023-04-06T13:08:08Z</time>
      </trkpt>
      <trkpt lat="49.86181" lon="2.33725">
        <ele>30.8</ele>
        <time>2023-04-06T13:08:09Z</time>
      </trkpt>
      <trkpt lat="49.86181" lon="2.33724">
        <ele>30.8</ele>
        <time>2023-04-06T13:08:10Z</time>
      </trkpt>
      <trkpt lat="49.86181" lon="2.33722">
        <ele>30.7</ele>
        <time>2023-04-06T13:08:11Z</time>
      </trkpt>
      <trkpt lat="49.86181" lon="2.33721">
        <ele>30.7</ele>
        <time>2023-04-06T13:08:12Z</time>
      </trkpt>
      <trkpt lat="49.86181" lon="2.33719">
        <ele>30.6</ele>
        <time>2023-04-06T13:08:13Z</time>
      </trkpt>
      <trkpt lat="49.8618" lon="2.33717">
        <ele>30.5</ele>
        <time>2023-04-06T13:08:15Z</time>
      </trkpt>
      <trkpt lat="49.86179" lon="2.33714">
        <ele>30.4</ele>
        <time>2023-04-06T13:08:16Z</time>
      </trkpt>
      <trkpt lat="49.86179" lon="2.33712">
        <ele>30.3</ele>
        <time>2023-04-06T13:08:17Z</time>
      </trkpt>
      <trkpt lat="49.86179" lon="2.33711">
        <ele>30.3</ele>
        <time>2023-04-06T13:08:18Z</time>
      </trkpt>
      <trkpt lat="49.86177" lon="2.33709">
        <ele>30.2</ele>
        <time>2023-04-06T13:08:19Z</time>
      </trkpt>
      <trkpt lat="49.86177" lon="2.33707">
        <ele>30.1</ele>
        <time>2023-04-06T13:08:20Z</time>
      </trkpt>
      <trkpt lat="49.86176" lon="2.33706">
        <ele>30.1</ele>
        <time>2023-04-06T13:08:21Z</time>
      </trkpt>
      <trkpt lat="49.86175" lon="2.33703">
        <ele>30</ele>
        <time>2023-04-06T13:08:23Z</time>
      </trkpt>
      <trkpt lat="49.86175" lon="2.33702">
        <ele>29.9</ele>
        <time>2023-04-06T13:08:24Z</time>
      </trkpt>
      <trkpt lat="49.86174" lon="2.33699">
        <ele>29.8</ele>
        <time>2023-04-06T13:08:25Z</time>
      </trkpt>
      <trkpt lat="49.86173" lon="2.33697">
        <ele>29.8</ele>
        <time>2023-04-06T13:08:26Z</time>
      </trkpt>
      <trkpt lat="49.86173" lon="2.33695">
        <ele>29.7</ele>
        <time>2023-04-06T13:08:27Z</time>
      </trkpt>
      <trkpt lat="49.86173" lon="2.33693">
        <ele>29.7</ele>
        <time>2023-04-06T13:08:28Z</time>
      </trkpt>
      <trkpt lat="49.86172" lon="2.33691">
        <ele>29.6</ele>
        <time>2023-04-06T13:08:29Z</time>
      </trkpt>
      <trkpt lat="49.86172" lon="2.33689">
        <ele>29.6</ele>
        <time>2023-04-06T13:08:31Z</time>
      </trkpt>
      <trkpt lat="49.86171" lon="2.33685">
        <ele>29.5</ele>
        <time>2023-04-06T13:08:32Z</time>
      </trkpt>
      <trkpt lat="49.86171" lon="2.33683">
        <ele>29.4</ele>
        <time>2023-04-06T13:08:33Z</time>
      </trkpt>
      <trkpt lat="49.86171" lon="2.33681">
        <ele>29.4</ele>
        <time>2023-04-06T13:08:34Z</time>
      </trkpt>
      <trkpt lat="49.86171" lon="2.33678">
        <ele>29.3</ele>
        <time>2023-04-06T13:08:35Z</time>
      </trkpt>
      <trkpt lat="49.86171" lon="2.33674">
        <ele>29.3</ele>
        <time>2023-04-06T13:08:36Z</time>
      </trkpt>
      <trkpt lat="49.86171" lon="2.33672">
        <ele>29.2</ele>
        <time>2023-04-06T13:08:37Z</time>
      </trkpt>
      <trkpt lat="49.8617" lon="2.33671">
        <ele>29.2</ele>
        <time>2023-04-06T13:08:38Z</time>
      </trkpt>
      <trkpt lat="49.8617" lon="2.33669">
        <ele>29.2</ele>
        <time>2023-04-06T13:08:40Z</time>
      </trkpt>
      <trkpt lat="49.8617" lon="2.33667">
        <ele>29.1</ele>
        <time>2023-04-06T13:08:41Z</time>
      </trkpt>
      <trkpt lat="49.8617" lon="2.33665">
        <ele>29.1</ele>
        <time>2023-04-06T13:08:42Z</time>
      </trkpt>
      <trkpt lat="49.86169" lon="2.33662">
        <ele>29.1</ele>
        <time>2023-04-06T13:08:43Z</time>
      </trkpt>
      <trkpt lat="49.86169" lon="2.3366">
        <ele>29</ele>
        <time>2023-04-06T13:08:44Z</time>
      </trkpt>
      <trkpt lat="49.8617" lon="2.33659">
        <ele>29</ele>
        <time>2023-04-06T13:08:45Z</time>
      </trkpt>
      <trkpt lat="49.86173" lon="2.33658">
        <ele>29</ele>
        <time>2023-04-06T13:08:47Z</time>
      </trkpt>
      <trkpt lat="49.86173" lon="2.33657">
        <ele>28.9</ele>
        <time>2023-04-06T13:08:48Z</time>
      </trkpt>
      <trkpt lat="49.86173" lon="2.33656">
        <ele>28.9</ele>
        <time>2023-04-06T13:08:49Z</time>
      </trkpt>
      <trkpt lat="49.86174" lon="2.33656">
        <ele>28.9</ele>
        <time>2023-04-06T13:08:51Z</time>
      </trkpt>
      <trkpt lat="49.86175" lon="2.33656">
        <ele>28.9</ele>
        <time>2023-04-06T13:08:52Z</time>
      </trkpt>
      <trkpt lat="49.86175" lon="2.33656">
        <ele>28.9</ele>
        <time>2023-04-06T13:08:54Z</time>
      </trkpt>
      <trkpt lat="49.86175" lon="2.33656">
        <ele>28.9</ele>
        <time>2023-04-06T13:08:55Z</time>
      </trkpt>
      <trkpt lat="49.86175" lon="2.33656">
        <ele>28.9</ele>
        <time>2023-04-06T13:08:56Z</time>
      </trkpt>
      <trkpt lat="49.86175" lon="2.33655">
        <ele>28.9</ele>
        <time>2023-04-06T13:08:58Z</time>
      </trkpt>
      <trkpt lat="49.86175" lon="2.33655">
        <ele>28.9</ele>
        <time>2023-04-06T13:08:59Z</time>
      </trkpt>
      <trkpt lat="49.86175" lon="2.33655">
        <ele>28.9</ele>
        <time>2023-04-06T13:09:01Z</time>
      </trkpt>
      <trkpt lat="49.86175" lon="2.33655">
        <ele>28.9</ele>
        <time>2023-04-06T13:09:02Z</time>
      </trkpt>
      <trkpt lat="49.86175" lon="2.33655">
        <ele>28.9</ele>
        <time>2023-04-06T13:09:03Z</time>
      </trkpt>
      <trkpt lat="49.86174" lon="2.33655">
        <ele>28.9</ele>
        <time>2023-04-06T13:09:05Z</time>
      </trkpt>
      <trkpt lat="49.86174" lon="2.33655">
        <ele>28.9</ele>
        <time>2023-04-06T13:09:06Z</time>
      </trkpt>
      <trkpt lat="49.86174" lon="2.33655">
        <ele>28.9</ele>
        <time>2023-04-06T13:09:07Z</time>
      </trkpt>
      <trkpt lat="49.86174" lon="2.33655">
        <ele>28.9</ele>
        <time>2023-04-06T13:09:08Z</time>
      </trkpt>
      <trkpt lat="49.86174" lon="2.33655">
        <ele>28.9</ele>
        <time>2023-04-06T13:09:09Z</time>
      </trkpt>
      <trkpt lat="49.86174" lon="2.33655">
        <ele>28.9</ele>
        <time>2023-04-06T13:09:10Z</time>
      </trkpt>
      <trkpt lat="49.86174" lon="2.33655">
        <ele>28.9</ele>
        <time>2023-04-06T13:09:11Z</time>
      </trkpt>
      <trkpt lat="49.86174" lon="2.33655">
        <ele>28.9</ele>
        <time>2023-04-06T13:09:12Z</time>
      </trkpt>
      <trkpt lat="49.86174" lon="2.33655">
        <ele>28.9</ele>
        <time>2023-04-06T13:09:13Z</time>
      </trkpt>
      <trkpt lat="49.86174" lon="2.33655">
        <ele>28.9</ele>
        <time>2023-04-06T13:09:14Z</time>
      </trkpt>
      <trkpt lat="49.86174" lon="2.33655">
        <ele>28.9</ele>
        <time>2023-04-06T13:09:15Z</time>
      </trkpt>
      <trkpt lat="49.86174" lon="2.33655">
        <ele>28.9</ele>
        <time>2023-04-06T13:09:16Z</time>
      </trkpt>
      <trkpt lat="49.86174" lon="2.33655">
        <ele>28.9</ele>
        <time>2023-04-06T13:09:17Z</time>
      </trkpt>
      <trkpt lat="49.86174" lon="2.33655">
        <ele>28.9</ele>
        <time>2023-04-06T13:09:18Z</time>
      </trkpt>
      <trkpt lat="49.86174" lon="2.33655">
        <ele>28.9</ele>
        <time>2023-04-06T13:09:19Z</time>
      </trkpt>
      <trkpt lat="49.86174" lon="2.33655">
        <ele>28.9</ele>
        <time>2023-04-06T13:09:20Z</time>
      </trkpt>
      <trkpt lat="49.86173" lon="2.33656">
        <ele>28.9</ele>
        <time>2023-04-06T13:09:21Z</time>
      </trkpt>
      <trkpt lat="49.86172" lon="2.33657">
        <ele>28.8</ele>
        <time>2023-04-06T13:09:22Z</time>
      </trkpt>
      <trkpt lat="49.86173" lon="2.33656">
        <ele>28.8</ele>
        <time>2023-04-06T13:09:24Z</time>
      </trkpt>
      <trkpt lat="49.86174" lon="2.33656">
        <ele>28.8</ele>
        <time>2023-04-06T13:09:25Z</time>
      </trkpt>
      <trkpt lat="49.86174" lon="2.33657">
        <ele>28.8</ele>
        <time>2023-04-06T13:09:26Z</time>
      </trkpt>
      <trkpt lat="49.86175" lon="2.33657">
        <ele>28.8</ele>
        <time>2023-04-06T13:09:27Z</time>
      </trkpt>
      <trkpt lat="49.86175" lon="2.33658">
        <ele>28.8</ele>
        <time>2023-04-06T13:09:28Z</time>
      </trkpt>
      <trkpt lat="49.86175" lon="2.33657">
        <ele>28.8</ele>
        <time>2023-04-06T13:09:29Z</time>
      </trkpt>
      <trkpt lat="49.86175" lon="2.33656">
        <ele>28.8</ele>
        <time>2023-04-06T13:09:30Z</time>
      </trkpt>
      <trkpt lat="49.86175" lon="2.33655">
        <ele>28.8</ele>
        <time>2023-04-06T13:09:31Z</time>
      </trkpt>
      <trkpt lat="49.86174" lon="2.33653">
        <ele>28.8</ele>
        <time>2023-04-06T13:09:33Z</time>
      </trkpt>
      <trkpt lat="49.86172" lon="2.33651">
        <ele>28.7</ele>
        <time>2023-04-06T13:09:34Z</time>
      </trkpt>
      <trkpt lat="49.86172" lon="2.33649">
        <ele>28.7</ele>
        <time>2023-04-06T13:09:35Z</time>
      </trkpt>
      <trkpt lat="49.86172" lon="2.33647">
        <ele>28.7</ele>
        <time>2023-04-06T13:09:36Z</time>
      </trkpt>
      <trkpt lat="49.86172" lon="2.33645">
        <ele>28.7</ele>
        <time>2023-04-06T13:09:37Z</time>
      </trkpt>
      <trkpt lat="49.86172" lon="2.33643">
        <ele>28.7</ele>
        <time>2023-04-06T13:09:38Z</time>
      </trkpt>
      <trkpt lat="49.86171" lon="2.3364">
        <ele>28.7</ele>
        <time>2023-04-06T13:09:39Z</time>
      </trkpt>
      <trkpt lat="49.8617" lon="2.33639">
        <ele>28.7</ele>
        <time>2023-04-06T13:09:40Z</time>
      </trkpt>
      <trkpt lat="49.8617" lon="2.33637">
        <ele>28.7</ele>
        <time>2023-04-06T13:09:41Z</time>
      </trkpt>
      <trkpt lat="49.86169" lon="2.33636">
        <ele>28.7</ele>
        <time>2023-04-06T13:09:42Z</time>
      </trkpt>
      <trkpt lat="49.86166" lon="2.33636">
        <ele>28.8</ele>
        <time>2023-04-06T13:09:44Z</time>
      </trkpt>
      <trkpt lat="49.86164" lon="2.33634">
        <ele>28.8</ele>
        <time>2023-04-06T13:09:45Z</time>
      </trkpt>
      <trkpt lat="49.86163" lon="2.33633">
        <ele>28.8</ele>
        <time>2023-04-06T13:09:46Z</time>
      </trkpt>
      <trkpt lat="49.8616" lon="2.3363">
        <ele>28.9</ele>
        <time>2023-04-06T13:09:47Z</time>
      </trkpt>
      <trkpt lat="49.8616" lon="2.33629">
        <ele>28.9</ele>
        <time>2023-04-06T13:09:48Z</time>
      </trkpt>
      <trkpt lat="49.86159" lon="2.33627">
        <ele>28.9</ele>
        <time>2023-04-06T13:09:49Z</time>
      </trkpt>
      <trkpt lat="49.86158" lon="2.33626">
        <ele>29</ele>
        <time>2023-04-06T13:09:50Z</time>
      </trkpt>
      <trkpt lat="49.86157" lon="2.33624">
        <ele>29</ele>
        <time>2023-04-06T13:09:52Z</time>
      </trkpt>
      <trkpt lat="49.86156" lon="2.33622">
        <ele>29</ele>
        <time>2023-04-06T13:09:53Z</time>
      </trkpt>
      <trkpt lat="49.86156" lon="2.33621">
        <ele>29.1</ele>
        <time>2023-04-06T13:09:54Z</time>
      </trkpt>
      <trkpt lat="49.86155" lon="2.33619">
        <ele>29.1</ele>
        <time>2023-04-06T13:09:55Z</time>
      </trkpt>
      <trkpt lat="49.86155" lon="2.33617">
        <ele>29.1</ele>
        <time>2023-04-06T13:09:56Z</time>
      </trkpt>
      <trkpt lat="49.86154" lon="2.33613">
        <ele>29.2</ele>
        <time>2023-04-06T13:09:57Z</time>
      </trkpt>
      <trkpt lat="49.86153" lon="2.33612">
        <ele>29.2</ele>
        <time>2023-04-06T13:09:58Z</time>
      </trkpt>
      <trkpt lat="49.86153" lon="2.33609">
        <ele>29.3</ele>
        <time>2023-04-06T13:10:00Z</time>
      </trkpt>
      <trkpt lat="49.86152" lon="2.33607">
        <ele>29.3</ele>
        <time>2023-04-06T13:10:01Z</time>
      </trkpt>
      <trkpt lat="49.86152" lon="2.33604">
        <ele>29.4</ele>
        <time>2023-04-06T13:10:02Z</time>
      </trkpt>
      <trkpt lat="49.86152" lon="2.33602">
        <ele>29.4</ele>
        <time>2023-04-06T13:10:03Z</time>
      </trkpt>
      <trkpt lat="49.86151" lon="2.336">
        <ele>29.5</ele>
        <time>2023-04-06T13:10:04Z</time>
      </trkpt>
      <trkpt lat="49.86151" lon="2.336">
        <ele>29.5</ele>
        <time>2023-04-06T13:10:05Z</time>
      </trkpt>
      <trkpt lat="49.86152" lon="2.33599">
        <ele>29.5</ele>
        <time>2023-04-06T13:10:06Z</time>
      </trkpt>
      <trkpt lat="49.86151" lon="2.33597">
        <ele>29.5</ele>
        <time>2023-04-06T13:10:07Z</time>
      </trkpt>
      <trkpt lat="49.86151" lon="2.33594">
        <ele>29.6</ele>
        <time>2023-04-06T13:10:08Z</time>
      </trkpt>
      <trkpt lat="49.86151" lon="2.33593">
        <ele>29.6</ele>
        <time>2023-04-06T13:10:09Z</time>
      </trkpt>
      <trkpt lat="49.86152" lon="2.33592">
        <ele>29.6</ele>
        <time>2023-04-06T13:10:11Z</time>
      </trkpt>
      <trkpt lat="49.86152" lon="2.33591">
        <ele>29.6</ele>
        <time>2023-04-06T13:10:12Z</time>
      </trkpt>
      <trkpt lat="49.86151" lon="2.33587">
        <ele>29.7</ele>
        <time>2023-04-06T13:10:13Z</time>
      </trkpt>
      <trkpt lat="49.86151" lon="2.33585">
        <ele>29.7</ele>
        <time>2023-04-06T13:10:14Z</time>
      </trkpt>
      <trkpt lat="49.8615" lon="2.33581">
        <ele>29.8</ele>
        <time>2023-04-06T13:10:15Z</time>
      </trkpt>
      <trkpt lat="49.8615" lon="2.3358">
        <ele>29.8</ele>
        <time>2023-04-06T13:10:16Z</time>
      </trkpt>
      <trkpt lat="49.86149" lon="2.33576">
        <ele>29.9</ele>
        <time>2023-04-06T13:10:17Z</time>
      </trkpt>
      <trkpt lat="49.86148" lon="2.33574">
        <ele>30</ele>
        <time>2023-04-06T13:10:18Z</time>
      </trkpt>
      <trkpt lat="49.86147" lon="2.33572">
        <ele>30</ele>
        <time>2023-04-06T13:10:19Z</time>
      </trkpt>
      <trkpt lat="49.86146" lon="2.33569">
        <ele>30.1</ele>
        <time>2023-04-06T13:10:21Z</time>
      </trkpt>
      <trkpt lat="49.86145" lon="2.33567">
        <ele>30.1</ele>
        <time>2023-04-06T13:10:22Z</time>
      </trkpt>
      <trkpt lat="49.86145" lon="2.33565">
        <ele>30.1</ele>
        <time>2023-04-06T13:10:23Z</time>
      </trkpt>
      <trkpt lat="49.86145" lon="2.33564">
        <ele>30.2</ele>
        <time>2023-04-06T13:10:24Z</time>
      </trkpt>
      <trkpt lat="49.86144" lon="2.33563">
        <ele>30.2</ele>
        <time>2023-04-06T13:10:25Z</time>
      </trkpt>
      <trkpt lat="49.86143" lon="2.33561">
        <ele>30.2</ele>
        <time>2023-04-06T13:10:27Z</time>
      </trkpt>
      <trkpt lat="49.86143" lon="2.33559">
        <ele>30.2</ele>
        <time>2023-04-06T13:10:28Z</time>
      </trkpt>
      <trkpt lat="49.86142" lon="2.33557">
        <ele>30.3</ele>
        <time>2023-04-06T13:10:29Z</time>
      </trkpt>
      <trkpt lat="49.86142" lon="2.33557">
        <ele>30.3</ele>
        <time>2023-04-06T13:10:30Z</time>
      </trkpt>
      <trkpt lat="49.86142" lon="2.33556">
        <ele>30.3</ele>
        <time>2023-04-06T13:10:31Z</time>
      </trkpt>
      <trkpt lat="49.86141" lon="2.33555">
        <ele>30.3</ele>
        <time>2023-04-06T13:10:32Z</time>
      </trkpt>
      <trkpt lat="49.86141" lon="2.33554">
        <ele>30.3</ele>
        <time>2023-04-06T13:10:33Z</time>
      </trkpt>
      <trkpt lat="49.86141" lon="2.33553">
        <ele>30.3</ele>
        <time>2023-04-06T13:10:34Z</time>
      </trkpt>
      <trkpt lat="49.86141" lon="2.33552">
        <ele>30.4</ele>
        <time>2023-04-06T13:10:36Z</time>
      </trkpt>
      <trkpt lat="49.86141" lon="2.33551">
        <ele>30.4</ele>
        <time>2023-04-06T13:10:37Z</time>
      </trkpt>
      <trkpt lat="49.86142" lon="2.3355">
        <ele>30.4</ele>
        <time>2023-04-06T13:10:38Z</time>
      </trkpt>
      <trkpt lat="49.86141" lon="2.33547">
        <ele>30.4</ele>
        <time>2023-04-06T13:10:40Z</time>
      </trkpt>
      <trkpt lat="49.8614" lon="2.33546">
        <ele>30.4</ele>
        <time>2023-04-06T13:10:41Z</time>
      </trkpt>
      <trkpt lat="49.8614" lon="2.33545">
        <ele>30.5</ele>
        <time>2023-04-06T13:10:42Z</time>
      </trkpt>
      <trkpt lat="49.8614" lon="2.33543">
        <ele>30.5</ele>
        <time>2023-04-06T13:10:43Z</time>
      </trkpt>
      <trkpt lat="49.86141" lon="2.33541">
        <ele>30.5</ele>
        <time>2023-04-06T13:10:44Z</time>
      </trkpt>
      <trkpt lat="49.86141" lon="2.33538">
        <ele>30.5</ele>
        <time>2023-04-06T13:10:45Z</time>
      </trkpt>
      <trkpt lat="49.86141" lon="2.33536">
        <ele>30.5</ele>
        <time>2023-04-06T13:10:46Z</time>
      </trkpt>
      <trkpt lat="49.86142" lon="2.33534">
        <ele>30.5</ele>
        <time>2023-04-06T13:10:47Z</time>
      </trkpt>
      <trkpt lat="49.86142" lon="2.33533">
        <ele>30.6</ele>
        <time>2023-04-06T13:10:48Z</time>
      </trkpt>
      <trkpt lat="49.86142" lon="2.33532">
        <ele>30.6</ele>
        <time>2023-04-06T13:10:50Z</time>
      </trkpt>
      <trkpt lat="49.86142" lon="2.33531">
        <ele>30.6</ele>
        <time>2023-04-06T13:10:51Z</time>
      </trkpt>
      <trkpt lat="49.86142" lon="2.3353">
        <ele>30.6</ele>
        <time>2023-04-06T13:10:52Z</time>
      </trkpt>
      <trkpt lat="49.86141" lon="2.33529">
        <ele>30.6</ele>
        <time>2023-04-06T13:10:53Z</time>
      </trkpt>
      <trkpt lat="49.86141" lon="2.33528">
        <ele>30.6</ele>
        <time>2023-04-06T13:10:54Z</time>
      </trkpt>
      <trkpt lat="49.8614" lon="2.33524">
        <ele>30.6</ele>
        <time>2023-04-06T13:10:55Z</time>
      </trkpt>
      <trkpt lat="49.8614" lon="2.33521">
        <ele>30.6</ele>
        <time>2023-04-06T13:10:57Z</time>
      </trkpt>
      <trkpt lat="49.86139" lon="2.33519">
        <ele>30.6</ele>
        <time>2023-04-06T13:10:58Z</time>
      </trkpt>
      <trkpt lat="49.86139" lon="2.33517">
        <ele>30.6</ele>
        <time>2023-04-06T13:10:59Z</time>
      </trkpt>
      <trkpt lat="49.86138" lon="2.33515">
        <ele>30.6</ele>
        <time>2023-04-06T13:11:00Z</time>
      </trkpt>
      <trkpt lat="49.86137" lon="2.33512">
        <ele>30.6</ele>
        <time>2023-04-06T13:11:01Z</time>
      </trkpt>
      <trkpt lat="49.86137" lon="2.33509">
        <ele>30.7</ele>
        <time>2023-04-06T13:11:02Z</time>
      </trkpt>
      <trkpt lat="49.86136" lon="2.33508">
        <ele>30.7</ele>
        <time>2023-04-06T13:11:04Z</time>
      </trkpt>
      <trkpt lat="49.86136" lon="2.33507">
        <ele>30.7</ele>
        <time>2023-04-06T13:11:05Z</time>
      </trkpt>
      <trkpt lat="49.86135" lon="2.33504">
        <ele>30.7</ele>
        <time>2023-04-06T13:11:06Z</time>
      </trkpt>
      <trkpt lat="49.86134" lon="2.33503">
        <ele>30.7</ele>
        <time>2023-04-06T13:11:07Z</time>
      </trkpt>
      <trkpt lat="49.86134" lon="2.33501">
        <ele>30.7</ele>
        <time>2023-04-06T13:11:08Z</time>
      </trkpt>
      <trkpt lat="49.86133" lon="2.33499">
        <ele>30.7</ele>
        <time>2023-04-06T13:11:09Z</time>
      </trkpt>
      <trkpt lat="49.86132" lon="2.33498">
        <ele>30.7</ele>
        <time>2023-04-06T13:11:10Z</time>
      </trkpt>
      <trkpt lat="49.86132" lon="2.33497">
        <ele>30.7</ele>
        <time>2023-04-06T13:11:11Z</time>
      </trkpt>
      <trkpt lat="49.86131" lon="2.33495">
        <ele>30.7</ele>
        <time>2023-04-06T13:11:12Z</time>
      </trkpt>
      <trkpt lat="49.86131" lon="2.33493">
        <ele>30.7</ele>
        <time>2023-04-06T13:11:13Z</time>
      </trkpt>
      <trkpt lat="49.8613" lon="2.33491">
        <ele>30.7</ele>
        <time>2023-04-06T13:11:14Z</time>
      </trkpt>
      <trkpt lat="49.86129" lon="2.33489">
        <ele>30.7</ele>
        <time>2023-04-06T13:11:16Z</time>
      </trkpt>
      <trkpt lat="49.86129" lon="2.33487">
        <ele>30.7</ele>
        <time>2023-04-06T13:11:17Z</time>
      </trkpt>
      <trkpt lat="49.86128" lon="2.33485">
        <ele>30.7</ele>
        <time>2023-04-06T13:11:18Z</time>
      </trkpt>
      <trkpt lat="49.86128" lon="2.33484">
        <ele>30.7</ele>
        <time>2023-04-06T13:11:19Z</time>
      </trkpt>
      <trkpt lat="49.86127" lon="2.33482">
        <ele>30.7</ele>
        <time>2023-04-06T13:11:20Z</time>
      </trkpt>
      <trkpt lat="49.86127" lon="2.3348">
        <ele>30.7</ele>
        <time>2023-04-06T13:11:21Z</time>
      </trkpt>
      <trkpt lat="49.86126" lon="2.33479">
        <ele>30.8</ele>
        <time>2023-04-06T13:11:22Z</time>
      </trkpt>
      <trkpt lat="49.86126" lon="2.33475">
        <ele>30.8</ele>
        <time>2023-04-06T13:11:23Z</time>
      </trkpt>
      <trkpt lat="49.86126" lon="2.33472">
        <ele>30.8</ele>
        <time>2023-04-06T13:11:25Z</time>
      </trkpt>
      <trkpt lat="49.86125" lon="2.3347">
        <ele>30.8</ele>
        <time>2023-04-06T13:11:26Z</time>
      </trkpt>
      <trkpt lat="49.86125" lon="2.33468">
        <ele>30.8</ele>
        <time>2023-04-06T13:11:27Z</time>
      </trkpt>
      <trkpt lat="49.86124" lon="2.33463">
        <ele>30.8</ele>
        <time>2023-04-06T13:11:28Z</time>
      </trkpt>
      <trkpt lat="49.86124" lon="2.33461">
        <ele>30.8</ele>
        <time>2023-04-06T13:11:29Z</time>
      </trkpt>
      <trkpt lat="49.86124" lon="2.33455">
        <ele>30.8</ele>
        <time>2023-04-06T13:11:30Z</time>
      </trkpt>
      <trkpt lat="49.86123" lon="2.33453">
        <ele>30.9</ele>
        <time>2023-04-06T13:11:31Z</time>
      </trkpt>
      <trkpt lat="49.86123" lon="2.3345">
        <ele>30.9</ele>
        <time>2023-04-06T13:11:32Z</time>
      </trkpt>
      <trkpt lat="49.86122" lon="2.33447">
        <ele>30.9</ele>
        <time>2023-04-06T13:11:34Z</time>
      </trkpt>
      <trkpt lat="49.86122" lon="2.33445">
        <ele>30.9</ele>
        <time>2023-04-06T13:11:35Z</time>
      </trkpt>
      <trkpt lat="49.86121" lon="2.33444">
        <ele>30.9</ele>
        <time>2023-04-06T13:11:36Z</time>
      </trkpt>
      <trkpt lat="49.86121" lon="2.33443">
        <ele>30.9</ele>
        <time>2023-04-06T13:11:37Z</time>
      </trkpt>
      <trkpt lat="49.86121" lon="2.33442">
        <ele>30.9</ele>
        <time>2023-04-06T13:11:38Z</time>
      </trkpt>
      <trkpt lat="49.8612" lon="2.3344">
        <ele>30.9</ele>
        <time>2023-04-06T13:11:39Z</time>
      </trkpt>
      <trkpt lat="49.8612" lon="2.33439">
        <ele>30.9</ele>
        <time>2023-04-06T13:11:40Z</time>
      </trkpt>
      <trkpt lat="49.86119" lon="2.33437">
        <ele>30.9</ele>
        <time>2023-04-06T13:11:41Z</time>
      </trkpt>
      <trkpt lat="49.86119" lon="2.33436">
        <ele>30.9</ele>
        <time>2023-04-06T13:11:42Z</time>
      </trkpt>
      <trkpt lat="49.86118" lon="2.33434">
        <ele>30.9</ele>
        <time>2023-04-06T13:11:44Z</time>
      </trkpt>
      <trkpt lat="49.86118" lon="2.33432">
        <ele>30.9</ele>
        <time>2023-04-06T13:11:45Z</time>
      </trkpt>
      <trkpt lat="49.86117" lon="2.3343">
        <ele>30.9</ele>
        <time>2023-04-06T13:11:46Z</time>
      </trkpt>
      <trkpt lat="49.86117" lon="2.33429">
        <ele>30.9</ele>
        <time>2023-04-06T13:11:47Z</time>
      </trkpt>
      <trkpt lat="49.86116" lon="2.33428">
        <ele>30.9</ele>
        <time>2023-04-06T13:11:48Z</time>
      </trkpt>
      <trkpt lat="49.86116" lon="2.33427">
        <ele>30.9</ele>
        <time>2023-04-06T13:11:49Z</time>
      </trkpt>
      <trkpt lat="49.86116" lon="2.33425">
        <ele>30.9</ele>
        <time>2023-04-06T13:11:50Z</time>
      </trkpt>
      <trkpt lat="49.86115" lon="2.33423">
        <ele>30.9</ele>
        <time>2023-04-06T13:11:51Z</time>
      </trkpt>
      <trkpt lat="49.86115" lon="2.33421">
        <ele>30.9</ele>
        <time>2023-04-06T13:11:53Z</time>
      </trkpt>
      <trkpt lat="49.86115" lon="2.3342">
        <ele>30.9</ele>
        <time>2023-04-06T13:11:54Z</time>
      </trkpt>
      <trkpt lat="49.86115" lon="2.33418">
        <ele>30.9</ele>
        <time>2023-04-06T13:11:55Z</time>
      </trkpt>
      <trkpt lat="49.86115" lon="2.33417">
        <ele>30.9</ele>
        <time>2023-04-06T13:11:56Z</time>
      </trkpt>
      <trkpt lat="49.86114" lon="2.33416">
        <ele>30.9</ele>
        <time>2023-04-06T13:11:57Z</time>
      </trkpt>
      <trkpt lat="49.86114" lon="2.33415">
        <ele>30.9</ele>
        <time>2023-04-06T13:11:58Z</time>
      </trkpt>
      <trkpt lat="49.86114" lon="2.33415">
        <ele>30.9</ele>
        <time>2023-04-06T13:11:59Z</time>
      </trkpt>
      <trkpt lat="49.86115" lon="2.33414">
        <ele>30.9</ele>
        <time>2023-04-06T13:12:00Z</time>
      </trkpt>
      <trkpt lat="49.86115" lon="2.33414">
        <ele>30.9</ele>
        <time>2023-04-06T13:12:01Z</time>
      </trkpt>
      <trkpt lat="49.86114" lon="2.33412">
        <ele>30.9</ele>
        <time>2023-04-06T13:12:03Z</time>
      </trkpt>
      <trkpt lat="49.86114" lon="2.3341">
        <ele>30.8</ele>
        <time>2023-04-06T13:12:04Z</time>
      </trkpt>
      <trkpt lat="49.86112" lon="2.33406">
        <ele>30.8</ele>
        <time>2023-04-06T13:12:05Z</time>
      </trkpt>
      <trkpt lat="49.86112" lon="2.33404">
        <ele>30.8</ele>
        <time>2023-04-06T13:12:07Z</time>
      </trkpt>
      <trkpt lat="49.86111" lon="2.33401">
        <ele>30.8</ele>
        <time>2023-04-06T13:12:08Z</time>
      </trkpt>
      <trkpt lat="49.86111" lon="2.33399">
        <ele>30.8</ele>
        <time>2023-04-06T13:12:09Z</time>
      </trkpt>
      <trkpt lat="49.86109" lon="2.33394">
        <ele>30.8</ele>
        <time>2023-04-06T13:12:10Z</time>
      </trkpt>
      <trkpt lat="49.86108" lon="2.33392">
        <ele>30.8</ele>
        <time>2023-04-06T13:12:11Z</time>
      </trkpt>
      <trkpt lat="49.86107" lon="2.33387">
        <ele>30.7</ele>
        <time>2023-04-06T13:12:12Z</time>
      </trkpt>
      <trkpt lat="49.86106" lon="2.33385">
        <ele>30.7</ele>
        <time>2023-04-06T13:12:13Z</time>
      </trkpt>
      <trkpt lat="49.86105" lon="2.33381">
        <ele>30.7</ele>
        <time>2023-04-06T13:12:14Z</time>
      </trkpt>
      <trkpt lat="49.86104" lon="2.33378">
        <ele>30.7</ele>
        <time>2023-04-06T13:12:16Z</time>
      </trkpt>
      <trkpt lat="49.86103" lon="2.33376">
        <ele>30.7</ele>
        <time>2023-04-06T13:12:17Z</time>
      </trkpt>
      <trkpt lat="49.86102" lon="2.33373">
        <ele>30.7</ele>
        <time>2023-04-06T13:12:18Z</time>
      </trkpt>
      <trkpt lat="49.86102" lon="2.33372">
        <ele>30.7</ele>
        <time>2023-04-06T13:12:19Z</time>
      </trkpt>
      <trkpt lat="49.86101" lon="2.33371">
        <ele>30.6</ele>
        <time>2023-04-06T13:12:20Z</time>
      </trkpt>
      <trkpt lat="49.861" lon="2.33369">
        <ele>30.6</ele>
        <time>2023-04-06T13:12:21Z</time>
      </trkpt>
      <trkpt lat="49.861" lon="2.33368">
        <ele>30.6</ele>
        <time>2023-04-06T13:12:22Z</time>
      </trkpt>
      <trkpt lat="49.86099" lon="2.33366">
        <ele>30.6</ele>
        <time>2023-04-06T13:12:23Z</time>
      </trkpt>
      <trkpt lat="49.86099" lon="2.33365">
        <ele>30.6</ele>
        <time>2023-04-06T13:12:24Z</time>
      </trkpt>
      <trkpt lat="49.86099" lon="2.33363">
        <ele>30.6</ele>
        <time>2023-04-06T13:12:25Z</time>
      </trkpt>
      <trkpt lat="49.86098" lon="2.33362">
        <ele>30.6</ele>
        <time>2023-04-06T13:12:27Z</time>
      </trkpt>
      <trkpt lat="49.86098" lon="2.33359">
        <ele>30.6</ele>
        <time>2023-04-06T13:12:28Z</time>
      </trkpt>
      <trkpt lat="49.86097" lon="2.33358">
        <ele>30.6</ele>
        <time>2023-04-06T13:12:29Z</time>
      </trkpt>
      <trkpt lat="49.86096" lon="2.33355">
        <ele>30.5</ele>
        <time>2023-04-06T13:12:30Z</time>
      </trkpt>
      <trkpt lat="49.86096" lon="2.33353">
        <ele>30.5</ele>
        <time>2023-04-06T13:12:31Z</time>
      </trkpt>
      <trkpt lat="49.86096" lon="2.33352">
        <ele>30.5</ele>
        <time>2023-04-06T13:12:32Z</time>
      </trkpt>
      <trkpt lat="49.86095" lon="2.3335">
        <ele>30.5</ele>
        <time>2023-04-06T13:12:33Z</time>
      </trkpt>
      <trkpt lat="49.86095" lon="2.33348">
        <ele>30.5</ele>
        <time>2023-04-06T13:12:34Z</time>
      </trkpt>
      <trkpt lat="49.86095" lon="2.33345">
        <ele>30.5</ele>
        <time>2023-04-06T13:12:36Z</time>
      </trkpt>
      <trkpt lat="49.86094" lon="2.33341">
        <ele>30.4</ele>
        <time>2023-04-06T13:12:37Z</time>
      </trkpt>
      <trkpt lat="49.86094" lon="2.33339">
        <ele>30.4</ele>
        <time>2023-04-06T13:12:38Z</time>
      </trkpt>
      <trkpt lat="49.86093" lon="2.33334">
        <ele>30.4</ele>
        <time>2023-04-06T13:12:39Z</time>
      </trkpt>
      <trkpt lat="49.86093" lon="2.33332">
        <ele>30.4</ele>
        <time>2023-04-06T13:12:40Z</time>
      </trkpt>
      <trkpt lat="49.86093" lon="2.33331">
        <ele>30.4</ele>
        <time>2023-04-06T13:12:41Z</time>
      </trkpt>
      <trkpt lat="49.86093" lon="2.33329">
        <ele>30.4</ele>
        <time>2023-04-06T13:12:42Z</time>
      </trkpt>
      <trkpt lat="49.86093" lon="2.33328">
        <ele>30.4</ele>
        <time>2023-04-06T13:12:44Z</time>
      </trkpt>
      <trkpt lat="49.86093" lon="2.33327">
        <ele>30.3</ele>
        <time>2023-04-06T13:12:45Z</time>
      </trkpt>
      <trkpt lat="49.86093" lon="2.33326">
        <ele>30.3</ele>
        <time>2023-04-06T13:12:46Z</time>
      </trkpt>
      <trkpt lat="49.86092" lon="2.33325">
        <ele>30.3</ele>
        <time>2023-04-06T13:12:47Z</time>
      </trkpt>
      <trkpt lat="49.86092" lon="2.33323">
        <ele>30.3</ele>
        <time>2023-04-06T13:12:48Z</time>
      </trkpt>
      <trkpt lat="49.86092" lon="2.33322">
        <ele>30.3</ele>
        <time>2023-04-06T13:12:49Z</time>
      </trkpt>
      <trkpt lat="49.86092" lon="2.33323">
        <ele>30.3</ele>
        <time>2023-04-06T13:12:50Z</time>
      </trkpt>
      <trkpt lat="49.86092" lon="2.33323">
        <ele>30.3</ele>
        <time>2023-04-06T13:12:51Z</time>
      </trkpt>
      <trkpt lat="49.86092" lon="2.33322">
        <ele>30.3</ele>
        <time>2023-04-06T13:12:52Z</time>
      </trkpt>
      <trkpt lat="49.86091" lon="2.3332">
        <ele>30.3</ele>
        <time>2023-04-06T13:12:53Z</time>
      </trkpt>
      <trkpt lat="49.86091" lon="2.33318">
        <ele>30.3</ele>
        <time>2023-04-06T13:12:55Z</time>
      </trkpt>
      <trkpt lat="49.8609" lon="2.33316">
        <ele>30.3</ele>
        <time>2023-04-06T13:12:56Z</time>
      </trkpt>
      <trkpt lat="49.86089" lon="2.33313">
        <ele>30.2</ele>
        <time>2023-04-06T13:12:57Z</time>
      </trkpt>
      <trkpt lat="49.86088" lon="2.33312">
        <ele>30.2</ele>
        <time>2023-04-06T13:12:58Z</time>
      </trkpt>
      <trkpt lat="49.86088" lon="2.3331">
        <ele>30.2</ele>
        <time>2023-04-06T13:12:59Z</time>
      </trkpt>
      <trkpt lat="49.86087" lon="2.33309">
        <ele>30.2</ele>
        <time>2023-04-06T13:13:00Z</time>
      </trkpt>
      <trkpt lat="49.86086" lon="2.33307">
        <ele>30.2</ele>
        <time>2023-04-06T13:13:01Z</time>
      </trkpt>
      <trkpt lat="49.86086" lon="2.33306">
        <ele>30.2</ele>
        <time>2023-04-06T13:13:02Z</time>
      </trkpt>
      <trkpt lat="49.86086" lon="2.33305">
        <ele>30.2</ele>
        <time>2023-04-06T13:13:03Z</time>
      </trkpt>
      <trkpt lat="49.86085" lon="2.33304">
        <ele>30.2</ele>
        <time>2023-04-06T13:13:04Z</time>
      </trkpt>
      <trkpt lat="49.86084" lon="2.33302">
        <ele>30.2</ele>
        <time>2023-04-06T13:13:05Z</time>
      </trkpt>
      <trkpt lat="49.86083" lon="2.333">
        <ele>30.2</ele>
        <time>2023-04-06T13:13:06Z</time>
      </trkpt>
      <trkpt lat="49.86082" lon="2.33296">
        <ele>30.2</ele>
        <time>2023-04-06T13:13:08Z</time>
      </trkpt>
      <trkpt lat="49.86082" lon="2.33295">
        <ele>30.2</ele>
        <time>2023-04-06T13:13:09Z</time>
      </trkpt>
      <trkpt lat="49.86081" lon="2.33293">
        <ele>30.1</ele>
        <time>2023-04-06T13:13:10Z</time>
      </trkpt>
      <trkpt lat="49.8608" lon="2.33292">
        <ele>30.1</ele>
        <time>2023-04-06T13:13:11Z</time>
      </trkpt>
      <trkpt lat="49.86078" lon="2.33288">
        <ele>30.1</ele>
        <time>2023-04-06T13:13:12Z</time>
      </trkpt>
      <trkpt lat="49.86078" lon="2.33287">
        <ele>30.1</ele>
        <time>2023-04-06T13:13:13Z</time>
      </trkpt>
      <trkpt lat="49.86077" lon="2.33285">
        <ele>30.1</ele>
        <time>2023-04-06T13:13:14Z</time>
      </trkpt>
      <trkpt lat="49.86075" lon="2.33283">
        <ele>30.1</ele>
        <time>2023-04-06T13:13:15Z</time>
      </trkpt>
      <trkpt lat="49.86074" lon="2.33281">
        <ele>30.1</ele>
        <time>2023-04-06T13:13:17Z</time>
      </trkpt>
      <trkpt lat="49.86074" lon="2.3328">
        <ele>30.1</ele>
        <time>2023-04-06T13:13:18Z</time>
      </trkpt>
      <trkpt lat="49.86073" lon="2.33278">
        <ele>30.1</ele>
        <time>2023-04-06T13:13:19Z</time>
      </trkpt>
      <trkpt lat="49.86072" lon="2.33277">
        <ele>30.1</ele>
        <time>2023-04-06T13:13:20Z</time>
      </trkpt>
      <trkpt lat="49.86072" lon="2.33276">
        <ele>30</ele>
        <time>2023-04-06T13:13:21Z</time>
      </trkpt>
      <trkpt lat="49.86071" lon="2.33275">
        <ele>30</ele>
        <time>2023-04-06T13:13:22Z</time>
      </trkpt>
      <trkpt lat="49.86071" lon="2.33272">
        <ele>30</ele>
        <time>2023-04-06T13:13:23Z</time>
      </trkpt>
      <trkpt lat="49.8607" lon="2.3327">
        <ele>30</ele>
        <time>2023-04-06T13:13:24Z</time>
      </trkpt>
      <trkpt lat="49.86069" lon="2.33265">
        <ele>30</ele>
        <time>2023-04-06T13:13:26Z</time>
      </trkpt>
      <trkpt lat="49.86069" lon="2.33263">
        <ele>30</ele>
        <time>2023-04-06T13:13:27Z</time>
      </trkpt>
      <trkpt lat="49.86068" lon="2.33261">
        <ele>30</ele>
        <time>2023-04-06T13:13:28Z</time>
      </trkpt>
      <trkpt lat="49.86068" lon="2.33258">
        <ele>30</ele>
        <time>2023-04-06T13:13:29Z</time>
      </trkpt>
      <trkpt lat="49.86067" lon="2.33253">
        <ele>29.9</ele>
        <time>2023-04-06T13:13:30Z</time>
      </trkpt>
      <trkpt lat="49.86067" lon="2.33252">
        <ele>29.9</ele>
        <time>2023-04-06T13:13:31Z</time>
      </trkpt>
      <trkpt lat="49.86066" lon="2.33247">
        <ele>29.9</ele>
        <time>2023-04-06T13:13:33Z</time>
      </trkpt>
      <trkpt lat="49.86065" lon="2.33246">
        <ele>29.9</ele>
        <time>2023-04-06T13:13:34Z</time>
      </trkpt>
      <trkpt lat="49.86065" lon="2.33242">
        <ele>29.9</ele>
        <time>2023-04-06T13:13:35Z</time>
      </trkpt>
      <trkpt lat="49.86064" lon="2.3324">
        <ele>29.9</ele>
        <time>2023-04-06T13:13:36Z</time>
      </trkpt>
      <trkpt lat="49.86063" lon="2.33235">
        <ele>29.9</ele>
        <time>2023-04-06T13:13:37Z</time>
      </trkpt>
      <trkpt lat="49.86063" lon="2.33233">
        <ele>29.9</ele>
        <time>2023-04-06T13:13:38Z</time>
      </trkpt>
      <trkpt lat="49.86062" lon="2.33228">
        <ele>29.9</ele>
        <time>2023-04-06T13:13:39Z</time>
      </trkpt>
      <trkpt lat="49.86062" lon="2.33226">
        <ele>29.9</ele>
        <time>2023-04-06T13:13:40Z</time>
      </trkpt>
      <trkpt lat="49.86062" lon="2.33224">
        <ele>29.9</ele>
        <time>2023-04-06T13:13:42Z</time>
      </trkpt>
      <trkpt lat="49.86062" lon="2.33222">
        <ele>29.9</ele>
        <time>2023-04-06T13:13:43Z</time>
      </trkpt>
      <trkpt lat="49.86062" lon="2.3322">
        <ele>29.9</ele>
        <time>2023-04-06T13:13:44Z</time>
      </trkpt>
      <trkpt lat="49.86061" lon="2.33218">
        <ele>29.9</ele>
        <time>2023-04-06T13:13:45Z</time>
      </trkpt>
      <trkpt lat="49.86061" lon="2.33217">
        <ele>29.9</ele>
        <time>2023-04-06T13:13:46Z</time>
      </trkpt>
      <trkpt lat="49.86061" lon="2.33215">
        <ele>29.9</ele>
        <time>2023-04-06T13:13:47Z</time>
      </trkpt>
      <trkpt lat="49.86061" lon="2.33213">
        <ele>29.9</ele>
        <time>2023-04-06T13:13:48Z</time>
      </trkpt>
      <trkpt lat="49.8606" lon="2.33212">
        <ele>29.9</ele>
        <time>2023-04-06T13:13:49Z</time>
      </trkpt>
      <trkpt lat="49.8606" lon="2.3321">
        <ele>29.9</ele>
        <time>2023-04-06T13:13:50Z</time>
      </trkpt>
      <trkpt lat="49.86059" lon="2.33208">
        <ele>29.9</ele>
        <time>2023-04-06T13:13:51Z</time>
      </trkpt>
      <trkpt lat="49.86058" lon="2.33206">
        <ele>29.9</ele>
        <time>2023-04-06T13:13:52Z</time>
      </trkpt>
      <trkpt lat="49.86057" lon="2.33202">
        <ele>29.9</ele>
        <time>2023-04-06T13:13:54Z</time>
      </trkpt>
      <trkpt lat="49.86057" lon="2.33201">
        <ele>29.9</ele>
        <time>2023-04-06T13:13:55Z</time>
      </trkpt>
      <trkpt lat="49.86056" lon="2.332">
        <ele>29.9</ele>
        <time>2023-04-06T13:13:56Z</time>
      </trkpt>
      <trkpt lat="49.86056" lon="2.33199">
        <ele>29.9</ele>
        <time>2023-04-06T13:13:57Z</time>
      </trkpt>
      <trkpt lat="49.86055" lon="2.33198">
        <ele>29.9</ele>
        <time>2023-04-06T13:13:59Z</time>
      </trkpt>
      <trkpt lat="49.86055" lon="2.33197">
        <ele>29.9</ele>
        <time>2023-04-06T13:14:00Z</time>
      </trkpt>
      <trkpt lat="49.86054" lon="2.33196">
        <ele>29.9</ele>
        <time>2023-04-06T13:14:01Z</time>
      </trkpt>
      <trkpt lat="49.86053" lon="2.33194">
        <ele>29.8</ele>
        <time>2023-04-06T13:14:02Z</time>
      </trkpt>
      <trkpt lat="49.86053" lon="2.33193">
        <ele>29.8</ele>
        <time>2023-04-06T13:14:03Z</time>
      </trkpt>
      <trkpt lat="49.86052" lon="2.3319">
        <ele>29.8</ele>
        <time>2023-04-06T13:14:04Z</time>
      </trkpt>
      <trkpt lat="49.8605" lon="2.33187">
        <ele>29.8</ele>
        <time>2023-04-06T13:14:05Z</time>
      </trkpt>
      <trkpt lat="49.86048" lon="2.33184">
        <ele>29.8</ele>
        <time>2023-04-06T13:14:07Z</time>
      </trkpt>
      <trkpt lat="49.86046" lon="2.3318">
        <ele>29.8</ele>
        <time>2023-04-06T13:14:08Z</time>
      </trkpt>
      <trkpt lat="49.86045" lon="2.33178">
        <ele>29.8</ele>
        <time>2023-04-06T13:14:09Z</time>
      </trkpt>
      <trkpt lat="49.86044" lon="2.33175">
        <ele>29.7</ele>
        <time>2023-04-06T13:14:10Z</time>
      </trkpt>
      <trkpt lat="49.86042" lon="2.33171">
        <ele>29.7</ele>
        <time>2023-04-06T13:14:11Z</time>
      </trkpt>
      <trkpt lat="49.8604" lon="2.33166">
        <ele>29.7</ele>
        <time>2023-04-06T13:14:12Z</time>
      </trkpt>
      <trkpt lat="49.86039" lon="2.33165">
        <ele>29.7</ele>
        <time>2023-04-06T13:14:13Z</time>
      </trkpt>
      <trkpt lat="49.86038" lon="2.3316">
        <ele>29.7</ele>
        <time>2023-04-06T13:14:14Z</time>
      </trkpt>
      <trkpt lat="49.86037" lon="2.33159">
        <ele>29.7</ele>
        <time>2023-04-06T13:14:15Z</time>
      </trkpt>
      <trkpt lat="49.86036" lon="2.33155">
        <ele>29.7</ele>
        <time>2023-04-06T13:14:17Z</time>
      </trkpt>
      <trkpt lat="49.86035" lon="2.33153">
        <ele>29.7</ele>
        <time>2023-04-06T13:14:18Z</time>
      </trkpt>
      <trkpt lat="49.86035" lon="2.33151">
        <ele>29.6</ele>
        <time>2023-04-06T13:14:19Z</time>
      </trkpt>
      <trkpt lat="49.86034" lon="2.33149">
        <ele>29.6</ele>
        <time>2023-04-06T13:14:20Z</time>
      </trkpt>
      <trkpt lat="49.86034" lon="2.33147">
        <ele>29.6</ele>
        <time>2023-04-06T13:14:21Z</time>
      </trkpt>
      <trkpt lat="49.86033" lon="2.33145">
        <ele>29.6</ele>
        <time>2023-04-06T13:14:22Z</time>
      </trkpt>
      <trkpt lat="49.86031" lon="2.33141">
        <ele>29.6</ele>
        <time>2023-04-06T13:14:23Z</time>
      </trkpt>
      <trkpt lat="49.86031" lon="2.33139">
        <ele>29.5</ele>
        <time>2023-04-06T13:14:24Z</time>
      </trkpt>
      <trkpt lat="49.8603" lon="2.33136">
        <ele>29.5</ele>
        <time>2023-04-06T13:14:26Z</time>
      </trkpt>
      <trkpt lat="49.86029" lon="2.33135">
        <ele>29.5</ele>
        <time>2023-04-06T13:14:27Z</time>
      </trkpt>
      <trkpt lat="49.86029" lon="2.33133">
        <ele>29.5</ele>
        <time>2023-04-06T13:14:28Z</time>
      </trkpt>
      <trkpt lat="49.86028" lon="2.33129">
        <ele>29.5</ele>
        <time>2023-04-06T13:14:29Z</time>
      </trkpt>
      <trkpt lat="49.86028" lon="2.33128">
        <ele>29.5</ele>
        <time>2023-04-06T13:14:30Z</time>
      </trkpt>
      <trkpt lat="49.86028" lon="2.33126">
        <ele>29.5</ele>
        <time>2023-04-06T13:14:31Z</time>
      </trkpt>
      <trkpt lat="49.86027" lon="2.33123">
        <ele>29.5</ele>
        <time>2023-04-06T13:14:32Z</time>
      </trkpt>
      <trkpt lat="49.86026" lon="2.3312">
        <ele>29.4</ele>
        <time>2023-04-06T13:14:33Z</time>
      </trkpt>
      <trkpt lat="49.86026" lon="2.33118">
        <ele>29.4</ele>
        <time>2023-04-06T13:14:35Z</time>
      </trkpt>
      <trkpt lat="49.86026" lon="2.33116">
        <ele>29.4</ele>
        <time>2023-04-06T13:14:36Z</time>
      </trkpt>
      <trkpt lat="49.86025" lon="2.33115">
        <ele>29.4</ele>
        <time>2023-04-06T13:14:37Z</time>
      </trkpt>
      <trkpt lat="49.86025" lon="2.33113">
        <ele>29.4</ele>
        <time>2023-04-06T13:14:38Z</time>
      </trkpt>
      <trkpt lat="49.86024" lon="2.33111">
        <ele>29.4</ele>
        <time>2023-04-06T13:14:39Z</time>
      </trkpt>
      <trkpt lat="49.86023" lon="2.33109">
        <ele>29.4</ele>
        <time>2023-04-06T13:14:40Z</time>
      </trkpt>
      <trkpt lat="49.86023" lon="2.33107">
        <ele>29.4</ele>
        <time>2023-04-06T13:14:41Z</time>
      </trkpt>
      <trkpt lat="49.86022" lon="2.33106">
        <ele>29.4</ele>
        <time>2023-04-06T13:14:42Z</time>
      </trkpt>
      <trkpt lat="49.86021" lon="2.33104">
        <ele>29.4</ele>
        <time>2023-04-06T13:14:44Z</time>
      </trkpt>
      <trkpt lat="49.8602" lon="2.33099">
        <ele>29.3</ele>
        <time>2023-04-06T13:14:45Z</time>
      </trkpt>
      <trkpt lat="49.8602" lon="2.33098">
        <ele>29.3</ele>
        <time>2023-04-06T13:14:46Z</time>
      </trkpt>
      <trkpt lat="49.8602" lon="2.33096">
        <ele>29.3</ele>
        <time>2023-04-06T13:14:47Z</time>
      </trkpt>
      <trkpt lat="49.8602" lon="2.33093">
        <ele>29.3</ele>
        <time>2023-04-06T13:14:49Z</time>
      </trkpt>
      <trkpt lat="49.86019" lon="2.3309">
        <ele>29.3</ele>
        <time>2023-04-06T13:14:50Z</time>
      </trkpt>
      <trkpt lat="49.86018" lon="2.33088">
        <ele>29.2</ele>
        <time>2023-04-06T13:14:51Z</time>
      </trkpt>
      <trkpt lat="49.86018" lon="2.33087">
        <ele>29.2</ele>
        <time>2023-04-06T13:14:52Z</time>
      </trkpt>
      <trkpt lat="49.86017" lon="2.33084">
        <ele>29.2</ele>
        <time>2023-04-06T13:14:53Z</time>
      </trkpt>
      <trkpt lat="49.86017" lon="2.33082">
        <ele>29.2</ele>
        <time>2023-04-06T13:14:54Z</time>
      </trkpt>
      <trkpt lat="49.86016" lon="2.3308">
        <ele>29.2</ele>
        <time>2023-04-06T13:14:55Z</time>
      </trkpt>
      <trkpt lat="49.86016" lon="2.33077">
        <ele>29.1</ele>
        <time>2023-04-06T13:14:57Z</time>
      </trkpt>
      <trkpt lat="49.86016" lon="2.33075">
        <ele>29.1</ele>
        <time>2023-04-06T13:14:58Z</time>
      </trkpt>
      <trkpt lat="49.86015" lon="2.33071">
        <ele>29.1</ele>
        <time>2023-04-06T13:14:59Z</time>
      </trkpt>
      <trkpt lat="49.86015" lon="2.3307">
        <ele>29.1</ele>
        <time>2023-04-06T13:15:00Z</time>
      </trkpt>
      <trkpt lat="49.86015" lon="2.33067">
        <ele>29</ele>
        <time>2023-04-06T13:15:01Z</time>
      </trkpt>
      <trkpt lat="49.86015" lon="2.33065">
        <ele>29</ele>
        <time>2023-04-06T13:15:02Z</time>
      </trkpt>
      <trkpt lat="49.86015" lon="2.33064">
        <ele>29</ele>
        <time>2023-04-06T13:15:03Z</time>
      </trkpt>
      <trkpt lat="49.86015" lon="2.3306">
        <ele>28.9</ele>
        <time>2023-04-06T13:15:05Z</time>
      </trkpt>
      <trkpt lat="49.86015" lon="2.33058">
        <ele>28.9</ele>
        <time>2023-04-06T13:15:06Z</time>
      </trkpt>
      <trkpt lat="49.86015" lon="2.33056">
        <ele>28.9</ele>
        <time>2023-04-06T13:15:07Z</time>
      </trkpt>
      <trkpt lat="49.86016" lon="2.33054">
        <ele>28.9</ele>
        <time>2023-04-06T13:15:08Z</time>
      </trkpt>
      <trkpt lat="49.86016" lon="2.33052">
        <ele>28.8</ele>
        <time>2023-04-06T13:15:09Z</time>
      </trkpt>
      <trkpt lat="49.86016" lon="2.33048">
        <ele>28.8</ele>
        <time>2023-04-06T13:15:10Z</time>
      </trkpt>
      <trkpt lat="49.86016" lon="2.33047">
        <ele>28.8</ele>
        <time>2023-04-06T13:15:11Z</time>
      </trkpt>
      <trkpt lat="49.86016" lon="2.33046">
        <ele>28.8</ele>
        <time>2023-04-06T13:15:12Z</time>
      </trkpt>
      <trkpt lat="49.86016" lon="2.33044">
        <ele>28.7</ele>
        <time>2023-04-06T13:15:14Z</time>
      </trkpt>
      <trkpt lat="49.86016" lon="2.33041">
        <ele>28.7</ele>
        <time>2023-04-06T13:15:15Z</time>
      </trkpt>
      <trkpt lat="49.86015" lon="2.33039">
        <ele>28.7</ele>
        <time>2023-04-06T13:15:16Z</time>
      </trkpt>
      <trkpt lat="49.86015" lon="2.33036">
        <ele>28.6</ele>
        <time>2023-04-06T13:15:17Z</time>
      </trkpt>
      <trkpt lat="49.86015" lon="2.33034">
        <ele>28.6</ele>
        <time>2023-04-06T13:15:18Z</time>
      </trkpt>
      <trkpt lat="49.86015" lon="2.33033">
        <ele>28.6</ele>
        <time>2023-04-06T13:15:19Z</time>
      </trkpt>
      <trkpt lat="49.86015" lon="2.3303">
        <ele>28.6</ele>
        <time>2023-04-06T13:15:20Z</time>
      </trkpt>
      <trkpt lat="49.86015" lon="2.33028">
        <ele>28.6</ele>
        <time>2023-04-06T13:15:21Z</time>
      </trkpt>
      <trkpt lat="49.86015" lon="2.33026">
        <ele>28.5</ele>
        <time>2023-04-06T13:15:23Z</time>
      </trkpt>
      <trkpt lat="49.86015" lon="2.33024">
        <ele>28.5</ele>
        <time>2023-04-06T13:15:24Z</time>
      </trkpt>
      <trkpt lat="49.86016" lon="2.33021">
        <ele>28.5</ele>
        <time>2023-04-06T13:15:25Z</time>
      </trkpt>
      <trkpt lat="49.86016" lon="2.33019">
        <ele>28.5</ele>
        <time>2023-04-06T13:15:26Z</time>
      </trkpt>
      <trkpt lat="49.86016" lon="2.33016">
        <ele>28.4</ele>
        <time>2023-04-06T13:15:27Z</time>
      </trkpt>
      <trkpt lat="49.86016" lon="2.33015">
        <ele>28.4</ele>
        <time>2023-04-06T13:15:28Z</time>
      </trkpt>
      <trkpt lat="49.86016" lon="2.33014">
        <ele>28.4</ele>
        <time>2023-04-06T13:15:29Z</time>
      </trkpt>
      <trkpt lat="49.86016" lon="2.3301">
        <ele>28.4</ele>
        <time>2023-04-06T13:15:31Z</time>
      </trkpt>
      <trkpt lat="49.86016" lon="2.33009">
        <ele>28.4</ele>
        <time>2023-04-06T13:15:32Z</time>
      </trkpt>
      <trkpt lat="49.86016" lon="2.33008">
        <ele>28.4</ele>
        <time>2023-04-06T13:15:33Z</time>
      </trkpt>
      <trkpt lat="49.86016" lon="2.33006">
        <ele>28.4</ele>
        <time>2023-04-06T13:15:34Z</time>
      </trkpt>
      <trkpt lat="49.86016" lon="2.33003">
        <ele>28.3</ele>
        <time>2023-04-06T13:15:35Z</time>
      </trkpt>
      <trkpt lat="49.86016" lon="2.33">
        <ele>28.3</ele>
        <time>2023-04-06T13:15:36Z</time>
      </trkpt>
      <trkpt lat="49.86016" lon="2.32999">
        <ele>28.3</ele>
        <time>2023-04-06T13:15:37Z</time>
      </trkpt>
      <trkpt lat="49.86016" lon="2.32998">
        <ele>28.3</ele>
        <time>2023-04-06T13:15:38Z</time>
      </trkpt>
      <trkpt lat="49.86016" lon="2.32995">
        <ele>28.3</ele>
        <time>2023-04-06T13:15:40Z</time>
      </trkpt>
      <trkpt lat="49.86016" lon="2.32992">
        <ele>28.3</ele>
        <time>2023-04-06T13:15:41Z</time>
      </trkpt>
      <trkpt lat="49.86015" lon="2.3299">
        <ele>28.3</ele>
        <time>2023-04-06T13:15:42Z</time>
      </trkpt>
      <trkpt lat="49.86015" lon="2.32988">
        <ele>28.3</ele>
        <time>2023-04-06T13:15:43Z</time>
      </trkpt>
      <trkpt lat="49.86015" lon="2.32986">
        <ele>28.3</ele>
        <time>2023-04-06T13:15:44Z</time>
      </trkpt>
      <trkpt lat="49.86015" lon="2.32983">
        <ele>28.2</ele>
        <time>2023-04-06T13:15:45Z</time>
      </trkpt>
      <trkpt lat="49.86015" lon="2.32981">
        <ele>28.2</ele>
        <time>2023-04-06T13:15:46Z</time>
      </trkpt>
      <trkpt lat="49.86015" lon="2.3298">
        <ele>28.2</ele>
        <time>2023-04-06T13:15:47Z</time>
      </trkpt>
      <trkpt lat="49.86015" lon="2.32978">
        <ele>28.2</ele>
        <time>2023-04-06T13:15:48Z</time>
      </trkpt>
      <trkpt lat="49.86015" lon="2.32976">
        <ele>28.2</ele>
        <time>2023-04-06T13:15:49Z</time>
      </trkpt>
      <trkpt lat="49.86015" lon="2.32973">
        <ele>28.2</ele>
        <time>2023-04-06T13:15:50Z</time>
      </trkpt>
      <trkpt lat="49.86015" lon="2.32972">
        <ele>28.2</ele>
        <time>2023-04-06T13:15:51Z</time>
      </trkpt>
      <trkpt lat="49.86016" lon="2.3297">
        <ele>28.2</ele>
        <time>2023-04-06T13:15:52Z</time>
      </trkpt>
      <trkpt lat="49.86016" lon="2.32968">
        <ele>28.2</ele>
        <time>2023-04-06T13:15:53Z</time>
      </trkpt>
      <trkpt lat="49.86016" lon="2.32964">
        <ele>28.2</ele>
        <time>2023-04-06T13:15:54Z</time>
      </trkpt>
      <trkpt lat="49.86016" lon="2.32962">
        <ele>28.2</ele>
        <time>2023-04-06T13:15:56Z</time>
      </trkpt>
      <trkpt lat="49.86016" lon="2.3296">
        <ele>28.2</ele>
        <time>2023-04-06T13:15:57Z</time>
      </trkpt>
      <trkpt lat="49.86016" lon="2.32958">
        <ele>28.2</ele>
        <time>2023-04-06T13:15:58Z</time>
      </trkpt>
      <trkpt lat="49.86016" lon="2.32957">
        <ele>28.2</ele>
        <time>2023-04-06T13:15:59Z</time>
      </trkpt>
      <trkpt lat="49.86016" lon="2.32955">
        <ele>28.2</ele>
        <time>2023-04-06T13:16:00Z</time>
      </trkpt>
      <trkpt lat="49.86016" lon="2.32952">
        <ele>28.2</ele>
        <time>2023-04-06T13:16:01Z</time>
      </trkpt>
      <trkpt lat="49.86016" lon="2.32949">
        <ele>28.2</ele>
        <time>2023-04-06T13:16:02Z</time>
      </trkpt>
      <trkpt lat="49.86016" lon="2.32947">
        <ele>28.2</ele>
        <time>2023-04-06T13:16:03Z</time>
      </trkpt>
      <trkpt lat="49.86016" lon="2.32946">
        <ele>28.2</ele>
        <time>2023-04-06T13:16:04Z</time>
      </trkpt>
      <trkpt lat="49.86017" lon="2.32943">
        <ele>28.2</ele>
        <time>2023-04-06T13:16:06Z</time>
      </trkpt>
      <trkpt lat="49.86017" lon="2.32941">
        <ele>28.2</ele>
        <time>2023-04-06T13:16:07Z</time>
      </trkpt>
      <trkpt lat="49.86018" lon="2.32937">
        <ele>28.2</ele>
        <time>2023-04-06T13:16:08Z</time>
      </trkpt>
      <trkpt lat="49.86018" lon="2.32936">
        <ele>28.2</ele>
        <time>2023-04-06T13:16:09Z</time>
      </trkpt>
      <trkpt lat="49.86018" lon="2.32934">
        <ele>28.2</ele>
        <time>2023-04-06T13:16:10Z</time>
      </trkpt>
      <trkpt lat="49.86018" lon="2.32933">
        <ele>28.2</ele>
        <time>2023-04-06T13:16:11Z</time>
      </trkpt>
      <trkpt lat="49.86019" lon="2.32931">
        <ele>28.2</ele>
        <time>2023-04-06T13:16:13Z</time>
      </trkpt>
      <trkpt lat="49.86019" lon="2.32929">
        <ele>28.2</ele>
        <time>2023-04-06T13:16:14Z</time>
      </trkpt>
      <trkpt lat="49.86019" lon="2.32926">
        <ele>28.3</ele>
        <time>2023-04-06T13:16:15Z</time>
      </trkpt>
      <trkpt lat="49.86019" lon="2.32924">
        <ele>28.3</ele>
        <time>2023-04-06T13:16:16Z</time>
      </trkpt>
      <trkpt lat="49.8602" lon="2.32921">
        <ele>28.3</ele>
        <time>2023-04-06T13:16:17Z</time>
      </trkpt>
      <trkpt lat="49.8602" lon="2.3292">
        <ele>28.3</ele>
        <time>2023-04-06T13:16:18Z</time>
      </trkpt>
      <trkpt lat="49.8602" lon="2.32918">
        <ele>28.3</ele>
        <time>2023-04-06T13:16:19Z</time>
      </trkpt>
      <trkpt lat="49.86021" lon="2.32914">
        <ele>28.3</ele>
        <time>2023-04-06T13:16:20Z</time>
      </trkpt>
      <trkpt lat="49.86021" lon="2.32913">
        <ele>28.3</ele>
        <time>2023-04-06T13:16:22Z</time>
      </trkpt>
      <trkpt lat="49.86021" lon="2.32911">
        <ele>28.3</ele>
        <time>2023-04-06T13:16:23Z</time>
      </trkpt>
      <trkpt lat="49.86021" lon="2.3291">
        <ele>28.3</ele>
        <time>2023-04-06T13:16:24Z</time>
      </trkpt>
      <trkpt lat="49.86022" lon="2.32908">
        <ele>28.3</ele>
        <time>2023-04-06T13:16:25Z</time>
      </trkpt>
      <trkpt lat="49.86022" lon="2.32906">
        <ele>28.4</ele>
        <time>2023-04-06T13:16:26Z</time>
      </trkpt>
      <trkpt lat="49.86022" lon="2.32904">
        <ele>28.4</ele>
        <time>2023-04-06T13:16:27Z</time>
      </trkpt>
      <trkpt lat="49.86023" lon="2.32902">
        <ele>28.4</ele>
        <time>2023-04-06T13:16:29Z</time>
      </trkpt>
      <trkpt lat="49.86023" lon="2.329">
        <ele>28.4</ele>
        <time>2023-04-06T13:16:30Z</time>
      </trkpt>
      <trkpt lat="49.86024" lon="2.32897">
        <ele>28.4</ele>
        <time>2023-04-06T13:16:31Z</time>
      </trkpt>
      <trkpt lat="49.86024" lon="2.32895">
        <ele>28.4</ele>
        <time>2023-04-06T13:16:32Z</time>
      </trkpt>
      <trkpt lat="49.86024" lon="2.32893">
        <ele>28.4</ele>
        <time>2023-04-06T13:16:33Z</time>
      </trkpt>
      <trkpt lat="49.86025" lon="2.3289">
        <ele>28.5</ele>
        <time>2023-04-06T13:16:34Z</time>
      </trkpt>
      <trkpt lat="49.86025" lon="2.32888">
        <ele>28.5</ele>
        <time>2023-04-06T13:16:36Z</time>
      </trkpt>
      <trkpt lat="49.86025" lon="2.32887">
        <ele>28.5</ele>
        <time>2023-04-06T13:16:37Z</time>
      </trkpt>
      <trkpt lat="49.86025" lon="2.32885">
        <ele>28.5</ele>
        <time>2023-04-06T13:16:38Z</time>
      </trkpt>
      <trkpt lat="49.86025" lon="2.32883">
        <ele>28.5</ele>
        <time>2023-04-06T13:16:39Z</time>
      </trkpt>
      <trkpt lat="49.86026" lon="2.32882">
        <ele>28.6</ele>
        <time>2023-04-06T13:16:40Z</time>
      </trkpt>
      <trkpt lat="49.86026" lon="2.32879">
        <ele>28.6</ele>
        <time>2023-04-06T13:16:41Z</time>
      </trkpt>
      <trkpt lat="49.86027" lon="2.32877">
        <ele>28.6</ele>
        <time>2023-04-06T13:16:42Z</time>
      </trkpt>
      <trkpt lat="49.86027" lon="2.32876">
        <ele>28.6</ele>
        <time>2023-04-06T13:16:43Z</time>
      </trkpt>
      <trkpt lat="49.86028" lon="2.32873">
        <ele>28.7</ele>
        <time>2023-04-06T13:16:44Z</time>
      </trkpt>
      <trkpt lat="49.86028" lon="2.32872">
        <ele>28.7</ele>
        <time>2023-04-06T13:16:46Z</time>
      </trkpt>
      <trkpt lat="49.86029" lon="2.3287">
        <ele>28.7</ele>
        <time>2023-04-06T13:16:47Z</time>
      </trkpt>
      <trkpt lat="49.86029" lon="2.32869">
        <ele>28.7</ele>
        <time>2023-04-06T13:16:48Z</time>
      </trkpt>
      <trkpt lat="49.8603" lon="2.32867">
        <ele>28.8</ele>
        <time>2023-04-06T13:16:49Z</time>
      </trkpt>
      <trkpt lat="49.8603" lon="2.32866">
        <ele>28.8</ele>
        <time>2023-04-06T13:16:50Z</time>
      </trkpt>
      <trkpt lat="49.8603" lon="2.32864">
        <ele>28.8</ele>
        <time>2023-04-06T13:16:51Z</time>
      </trkpt>
      <trkpt lat="49.86031" lon="2.32862">
        <ele>28.8</ele>
        <time>2023-04-06T13:16:53Z</time>
      </trkpt>
      <trkpt lat="49.86032" lon="2.32862">
        <ele>28.9</ele>
        <time>2023-04-06T13:16:54Z</time>
      </trkpt>
      <trkpt lat="49.86033" lon="2.32862">
        <ele>28.9</ele>
        <time>2023-04-06T13:16:55Z</time>
      </trkpt>
      <trkpt lat="49.86036" lon="2.32864">
        <ele>29</ele>
        <time>2023-04-06T13:16:57Z</time>
      </trkpt>
      <trkpt lat="49.86036" lon="2.32864">
        <ele>29</ele>
        <time>2023-04-06T13:16:58Z</time>
      </trkpt>
      <trkpt lat="49.86036" lon="2.32864">
        <ele>29</ele>
        <time>2023-04-06T13:16:59Z</time>
      </trkpt>
      <trkpt lat="49.86036" lon="2.32864">
        <ele>29</ele>
        <time>2023-04-06T13:17:01Z</time>
      </trkpt>
      <trkpt lat="49.86035" lon="2.32865">
        <ele>29</ele>
        <time>2023-04-06T13:17:02Z</time>
      </trkpt>
      <trkpt lat="49.86035" lon="2.32865">
        <ele>29</ele>
        <time>2023-04-06T13:17:03Z</time>
      </trkpt>
      <trkpt lat="49.86035" lon="2.32865">
        <ele>29</ele>
        <time>2023-04-06T13:17:05Z</time>
      </trkpt>
      <trkpt lat="49.86035" lon="2.32865">
        <ele>29</ele>
        <time>2023-04-06T13:17:06Z</time>
      </trkpt>
      <trkpt lat="49.86034" lon="2.32865">
        <ele>29</ele>
        <time>2023-04-06T13:17:07Z</time>
      </trkpt>
      <trkpt lat="49.86034" lon="2.32865">
        <ele>29</ele>
        <time>2023-04-06T13:17:08Z</time>
      </trkpt>
      <trkpt lat="49.86034" lon="2.32865">
        <ele>29.1</ele>
        <time>2023-04-06T13:17:09Z</time>
      </trkpt>
      <trkpt lat="49.86033" lon="2.32866">
        <ele>29.1</ele>
        <time>2023-04-06T13:17:10Z</time>
      </trkpt>
      <trkpt lat="49.86033" lon="2.32866">
        <ele>29.1</ele>
        <time>2023-04-06T13:17:11Z</time>
      </trkpt>
      <trkpt lat="49.86033" lon="2.32866">
        <ele>29.1</ele>
        <time>2023-04-06T13:17:13Z</time>
      </trkpt>
      <trkpt lat="49.86032" lon="2.32866">
        <ele>29.1</ele>
        <time>2023-04-06T13:17:14Z</time>
      </trkpt>
      <trkpt lat="49.86032" lon="2.32866">
        <ele>29.1</ele>
        <time>2023-04-06T13:17:15Z</time>
      </trkpt>
      <trkpt lat="49.86032" lon="2.32866">
        <ele>29.1</ele>
        <time>2023-04-06T13:17:16Z</time>
      </trkpt>
      <trkpt lat="49.86031" lon="2.32866">
        <ele>29.1</ele>
        <time>2023-04-06T13:17:17Z</time>
      </trkpt>
      <trkpt lat="49.86031" lon="2.32866">
        <ele>29.1</ele>
        <time>2023-04-06T13:17:18Z</time>
      </trkpt>
      <trkpt lat="49.86031" lon="2.32867">
        <ele>29.1</ele>
        <time>2023-04-06T13:17:19Z</time>
      </trkpt>
      <trkpt lat="49.86031" lon="2.32867">
        <ele>29.1</ele>
        <time>2023-04-06T13:17:20Z</time>
      </trkpt>
      <trkpt lat="49.86031" lon="2.32867">
        <ele>29.1</ele>
        <time>2023-04-06T13:17:21Z</time>
      </trkpt>
      <trkpt lat="49.86031" lon="2.32867">
        <ele>29.1</ele>
        <time>2023-04-06T13:17:22Z</time>
      </trkpt>
      <trkpt lat="49.86031" lon="2.32867">
        <ele>29.1</ele>
        <time>2023-04-06T13:17:23Z</time>
      </trkpt>
      <trkpt lat="49.86031" lon="2.32867">
        <ele>29.1</ele>
        <time>2023-04-06T13:17:24Z</time>
      </trkpt>
      <trkpt lat="49.86031" lon="2.32867">
        <ele>29.1</ele>
        <time>2023-04-06T13:17:25Z</time>
      </trkpt>
      <trkpt lat="49.86031" lon="2.32867">
        <ele>29.1</ele>
        <time>2023-04-06T13:17:26Z</time>
      </trkpt>
      <trkpt lat="49.86031" lon="2.32867">
        <ele>29.1</ele>
        <time>2023-04-06T13:17:27Z</time>
      </trkpt>
      <trkpt lat="49.86031" lon="2.32867">
        <ele>29.1</ele>
        <time>2023-04-06T13:17:28Z</time>
      </trkpt>
      <trkpt lat="49.86031" lon="2.32867">
        <ele>29.1</ele>
        <time>2023-04-06T13:17:29Z</time>
      </trkpt>
      <trkpt lat="49.86031" lon="2.32867">
        <ele>29.1</ele>
        <time>2023-04-06T13:17:30Z</time>
      </trkpt>
      <trkpt lat="49.86031" lon="2.32867">
        <ele>29.1</ele>
        <time>2023-04-06T13:17:31Z</time>
      </trkpt>
      <trkpt lat="49.86031" lon="2.32867">
        <ele>29.1</ele>
        <time>2023-04-06T13:17:32Z</time>
      </trkpt>
      <trkpt lat="49.86031" lon="2.32867">
        <ele>29.1</ele>
        <time>2023-04-06T13:17:33Z</time>
      </trkpt>
      <trkpt lat="49.86031" lon="2.32867">
        <ele>29.1</ele>
        <time>2023-04-06T13:17:34Z</time>
      </trkpt>
      <trkpt lat="49.86031" lon="2.32867">
        <ele>29.1</ele>
        <time>2023-04-06T13:17:35Z</time>
      </trkpt>
      <trkpt lat="49.86031" lon="2.32867">
        <ele>29.1</ele>
        <time>2023-04-06T13:17:36Z</time>
      </trkpt>
      <trkpt lat="49.86031" lon="2.32867">
        <ele>29.1</ele>
        <time>2023-04-06T13:17:37Z</time>
      </trkpt>
      <trkpt lat="49.86031" lon="2.32867">
        <ele>29.1</ele>
        <time>2023-04-06T13:17:38Z</time>
      </trkpt>
      <trkpt lat="49.86031" lon="2.32867">
        <ele>29.1</ele>
        <time>2023-04-06T13:17:39Z</time>
      </trkpt>
      <trkpt lat="49.86031" lon="2.32867">
        <ele>29.1</ele>
        <time>2023-04-06T13:17:40Z</time>
      </trkpt>
      <trkpt lat="49.86031" lon="2.32867">
        <ele>29.1</ele>
        <time>2023-04-06T13:17:41Z</time>
      </trkpt>
      <trkpt lat="49.86031" lon="2.32867">
        <ele>29.1</ele>
        <time>2023-04-06T13:17:42Z</time>
      </trkpt>
      <trkpt lat="49.86031" lon="2.32867">
        <ele>29.1</ele>
        <time>2023-04-06T13:17:43Z</time>
      </trkpt>
      <trkpt lat="49.86031" lon="2.32867">
        <ele>29.1</ele>
        <time>2023-04-06T13:17:44Z</time>
      </trkpt>
      <trkpt lat="49.86031" lon="2.32867">
        <ele>29.1</ele>
        <time>2023-04-06T13:17:45Z</time>
      </trkpt>
      <trkpt lat="49.86031" lon="2.32867">
        <ele>29.1</ele>
        <time>2023-04-06T13:17:46Z</time>
      </trkpt>
      <trkpt lat="49.86031" lon="2.32867">
        <ele>29.1</ele>
        <time>2023-04-06T13:17:47Z</time>
      </trkpt>
      <trkpt lat="49.86031" lon="2.32867">
        <ele>29.1</ele>
        <time>2023-04-06T13:17:48Z</time>
      </trkpt>
      <trkpt lat="49.86031" lon="2.32867">
        <ele>29.1</ele>
        <time>2023-04-06T13:17:49Z</time>
      </trkpt>
      <trkpt lat="49.86031" lon="2.32867">
        <ele>29.1</ele>
        <time>2023-04-06T13:17:50Z</time>
      </trkpt>
      <trkpt lat="49.86031" lon="2.32867">
        <ele>29.1</ele>
        <time>2023-04-06T13:17:51Z</time>
      </trkpt>
      <trkpt lat="49.86031" lon="2.32867">
        <ele>29.1</ele>
        <time>2023-04-06T13:17:52Z</time>
      </trkpt>
      <trkpt lat="49.86031" lon="2.32867">
        <ele>29.1</ele>
        <time>2023-04-06T13:17:53Z</time>
      </trkpt>
      <trkpt lat="49.86031" lon="2.32867">
        <ele>29.1</ele>
        <time>2023-04-06T13:17:54Z</time>
      </trkpt>
      <trkpt lat="49.86031" lon="2.32867">
        <ele>29.1</ele>
        <time>2023-04-06T13:17:55Z</time>
      </trkpt>
      <trkpt lat="49.86031" lon="2.32867">
        <ele>29.1</ele>
        <time>2023-04-06T13:17:56Z</time>
      </trkpt>
      <trkpt lat="49.86031" lon="2.32867">
        <ele>29.1</ele>
        <time>2023-04-06T13:17:57Z</time>
      </trkpt>
      <trkpt lat="49.86031" lon="2.32867">
        <ele>29.1</ele>
        <time>2023-04-06T13:17:58Z</time>
      </trkpt>
      <trkpt lat="49.86031" lon="2.32867">
        <ele>29.1</ele>
        <time>2023-04-06T13:17:59Z</time>
      </trkpt>
      <trkpt lat="49.86031" lon="2.32867">
        <ele>29.1</ele>
        <time>2023-04-06T13:18:00Z</time>
      </trkpt>
      <trkpt lat="49.86031" lon="2.32867">
        <ele>29.1</ele>
        <time>2023-04-06T13:18:01Z</time>
      </trkpt>
      <trkpt lat="49.86031" lon="2.32867">
        <ele>29.1</ele>
        <time>2023-04-06T13:18:02Z</time>
      </trkpt>
      <trkpt lat="49.86031" lon="2.32867">
        <ele>29.1</ele>
        <time>2023-04-06T13:18:03Z</time>
      </trkpt>
      <trkpt lat="49.86031" lon="2.32867">
        <ele>29.1</ele>
        <time>2023-04-06T13:18:04Z</time>
      </trkpt>
      <trkpt lat="49.86031" lon="2.32867">
        <ele>29.1</ele>
        <time>2023-04-06T13:18:05Z</time>
      </trkpt>
      <trkpt lat="49.86031" lon="2.32867">
        <ele>29.1</ele>
        <time>2023-04-06T13:18:06Z</time>
      </trkpt>
      <trkpt lat="49.86031" lon="2.32867">
        <ele>29.1</ele>
        <time>2023-04-06T13:18:07Z</time>
      </trkpt>
      <trkpt lat="49.86031" lon="2.32867">
        <ele>29.1</ele>
        <time>2023-04-06T13:18:08Z</time>
      </trkpt>
      <trkpt lat="49.86031" lon="2.32867">
        <ele>29.1</ele>
        <time>2023-04-06T13:18:09Z</time>
      </trkpt>
      <trkpt lat="49.86031" lon="2.32867">
        <ele>29.1</ele>
        <time>2023-04-06T13:18:10Z</time>
      </trkpt>
      <trkpt lat="49.86031" lon="2.32867">
        <ele>29.1</ele>
        <time>2023-04-06T13:18:11Z</time>
      </trkpt>
      <trkpt lat="49.86031" lon="2.32867">
        <ele>29.1</ele>
        <time>2023-04-06T13:18:12Z</time>
      </trkpt>
      <trkpt lat="49.86031" lon="2.32867">
        <ele>29.1</ele>
        <time>2023-04-06T13:18:13Z</time>
      </trkpt>
      <trkpt lat="49.86031" lon="2.32867">
        <ele>29.1</ele>
        <time>2023-04-06T13:18:14Z</time>
      </trkpt>
      <trkpt lat="49.86031" lon="2.32867">
        <ele>29.1</ele>
        <time>2023-04-06T13:18:15Z</time>
      </trkpt>
      <trkpt lat="49.86031" lon="2.32867">
        <ele>29.1</ele>
        <time>2023-04-06T13:18:16Z</time>
      </trkpt>
      <trkpt lat="49.86031" lon="2.32867">
        <ele>29.1</ele>
        <time>2023-04-06T13:18:17Z</time>
      </trkpt>
      <trkpt lat="49.86031" lon="2.32867">
        <ele>29.1</ele>
        <time>2023-04-06T13:18:18Z</time>
      </trkpt>
      <trkpt lat="49.8603" lon="2.32867">
        <ele>29.2</ele>
        <time>2023-04-06T13:18:19Z</time>
      </trkpt>
      <trkpt lat="49.86029" lon="2.32866">
        <ele>29.2</ele>
        <time>2023-04-06T13:18:20Z</time>
      </trkpt>
      <trkpt lat="49.86028" lon="2.32865">
        <ele>29.2</ele>
        <time>2023-04-06T13:18:21Z</time>
      </trkpt>
      <trkpt lat="49.86028" lon="2.32864">
        <ele>29.3</ele>
        <time>2023-04-06T13:18:22Z</time>
      </trkpt>
      <trkpt lat="49.86028" lon="2.32862">
        <ele>29.3</ele>
        <time>2023-04-06T13:18:23Z</time>
      </trkpt>
      <trkpt lat="49.86029" lon="2.32861">
        <ele>29.3</ele>
        <time>2023-04-06T13:18:24Z</time>
      </trkpt>
      <trkpt lat="49.86029" lon="2.3286">
        <ele>29.3</ele>
        <time>2023-04-06T13:18:25Z</time>
      </trkpt>
      <trkpt lat="49.86029" lon="2.3286">
        <ele>29.3</ele>
        <time>2023-04-06T13:18:26Z</time>
      </trkpt>
      <trkpt lat="49.86029" lon="2.32859">
        <ele>29.4</ele>
        <time>2023-04-06T13:18:27Z</time>
      </trkpt>
      <trkpt lat="49.86029" lon="2.32857">
        <ele>29.4</ele>
        <time>2023-04-06T13:18:29Z</time>
      </trkpt>
      <trkpt lat="49.86029" lon="2.32854">
        <ele>29.4</ele>
        <time>2023-04-06T13:18:30Z</time>
      </trkpt>
      <trkpt lat="49.86029" lon="2.32851">
        <ele>29.5</ele>
        <time>2023-04-06T13:18:31Z</time>
      </trkpt>
      <trkpt lat="49.86029" lon="2.32848">
        <ele>29.5</ele>
        <time>2023-04-06T13:18:32Z</time>
      </trkpt>
      <trkpt lat="49.86028" lon="2.32847">
        <ele>29.5</ele>
        <time>2023-04-06T13:18:33Z</time>
      </trkpt>
      <trkpt lat="49.86028" lon="2.32843">
        <ele>29.6</ele>
        <time>2023-04-06T13:18:35Z</time>
      </trkpt>
      <trkpt lat="49.86028" lon="2.32842">
        <ele>29.6</ele>
        <time>2023-04-06T13:18:36Z</time>
      </trkpt>
      <trkpt lat="49.86027" lon="2.32841">
        <ele>29.6</ele>
        <time>2023-04-06T13:18:37Z</time>
      </trkpt>
      <trkpt lat="49.86027" lon="2.32839">
        <ele>29.6</ele>
        <time>2023-04-06T13:18:38Z</time>
      </trkpt>
      <trkpt lat="49.86026" lon="2.32837">
        <ele>29.7</ele>
        <time>2023-04-06T13:18:39Z</time>
      </trkpt>
      <trkpt lat="49.86025" lon="2.32834">
        <ele>29.7</ele>
        <time>2023-04-06T13:18:40Z</time>
      </trkpt>
      <trkpt lat="49.86024" lon="2.32833">
        <ele>29.7</ele>
        <time>2023-04-06T13:18:41Z</time>
      </trkpt>
      <trkpt lat="49.86024" lon="2.32832">
        <ele>29.7</ele>
        <time>2023-04-06T13:18:42Z</time>
      </trkpt>
      <trkpt lat="49.86023" lon="2.32829">
        <ele>29.8</ele>
        <time>2023-04-06T13:18:43Z</time>
      </trkpt>
      <trkpt lat="49.86023" lon="2.32828">
        <ele>29.8</ele>
        <time>2023-04-06T13:18:45Z</time>
      </trkpt>
      <trkpt lat="49.86022" lon="2.32827">
        <ele>29.8</ele>
        <time>2023-04-06T13:18:46Z</time>
      </trkpt>
      <trkpt lat="49.86021" lon="2.32823">
        <ele>29.8</ele>
        <time>2023-04-06T13:18:47Z</time>
      </trkpt>
      <trkpt lat="49.86021" lon="2.32821">
        <ele>29.8</ele>
        <time>2023-04-06T13:18:48Z</time>
      </trkpt>
      <trkpt lat="49.8602" lon="2.3282">
        <ele>29.9</ele>
        <time>2023-04-06T13:18:49Z</time>
      </trkpt>
      <trkpt lat="49.86019" lon="2.32814">
        <ele>29.9</ele>
        <time>2023-04-06T13:18:50Z</time>
      </trkpt>
      <trkpt lat="49.86019" lon="2.32813">
        <ele>29.9</ele>
        <time>2023-04-06T13:18:51Z</time>
      </trkpt>
      <trkpt lat="49.86018" lon="2.32809">
        <ele>30</ele>
        <time>2023-04-06T13:18:52Z</time>
      </trkpt>
      <trkpt lat="49.86017" lon="2.32807">
        <ele>30</ele>
        <time>2023-04-06T13:18:53Z</time>
      </trkpt>
      <trkpt lat="49.86017" lon="2.32805">
        <ele>30</ele>
        <time>2023-04-06T13:18:54Z</time>
      </trkpt>
      <trkpt lat="49.86016" lon="2.32803">
        <ele>30</ele>
        <time>2023-04-06T13:18:55Z</time>
      </trkpt>
      <trkpt lat="49.86016" lon="2.32801">
        <ele>30.1</ele>
        <time>2023-04-06T13:18:56Z</time>
      </trkpt>
      <trkpt lat="49.86015" lon="2.32799">
        <ele>30.1</ele>
        <time>2023-04-06T13:18:57Z</time>
      </trkpt>
      <trkpt lat="49.86014" lon="2.32797">
        <ele>30.1</ele>
        <time>2023-04-06T13:18:59Z</time>
      </trkpt>
      <trkpt lat="49.86014" lon="2.32795">
        <ele>30.2</ele>
        <time>2023-04-06T13:19:00Z</time>
      </trkpt>
      <trkpt lat="49.86013" lon="2.32793">
        <ele>30.2</ele>
        <time>2023-04-06T13:19:01Z</time>
      </trkpt>
      <trkpt lat="49.86012" lon="2.32791">
        <ele>30.2</ele>
        <time>2023-04-06T13:19:02Z</time>
      </trkpt>
      <trkpt lat="49.86012" lon="2.32789">
        <ele>30.3</ele>
        <time>2023-04-06T13:19:03Z</time>
      </trkpt>
      <trkpt lat="49.86011" lon="2.32787">
        <ele>30.3</ele>
        <time>2023-04-06T13:19:04Z</time>
      </trkpt>
      <trkpt lat="49.8601" lon="2.32785">
        <ele>30.3</ele>
        <time>2023-04-06T13:19:05Z</time>
      </trkpt>
      <trkpt lat="49.8601" lon="2.32783">
        <ele>30.3</ele>
        <time>2023-04-06T13:19:07Z</time>
      </trkpt>
      <trkpt lat="49.86009" lon="2.32781">
        <ele>30.4</ele>
        <time>2023-04-06T13:19:08Z</time>
      </trkpt>
      <trkpt lat="49.86009" lon="2.32778">
        <ele>30.4</ele>
        <time>2023-04-06T13:19:09Z</time>
      </trkpt>
      <trkpt lat="49.86008" lon="2.32775">
        <ele>30.5</ele>
        <time>2023-04-06T13:19:10Z</time>
      </trkpt>
      <trkpt lat="49.86008" lon="2.32774">
        <ele>30.5</ele>
        <time>2023-04-06T13:19:11Z</time>
      </trkpt>
      <trkpt lat="49.86008" lon="2.32772">
        <ele>30.5</ele>
        <time>2023-04-06T13:19:12Z</time>
      </trkpt>
      <trkpt lat="49.86007" lon="2.32769">
        <ele>30.6</ele>
        <time>2023-04-06T13:19:14Z</time>
      </trkpt>
      <trkpt lat="49.86007" lon="2.32768">
        <ele>30.6</ele>
        <time>2023-04-06T13:19:15Z</time>
      </trkpt>
      <trkpt lat="49.86007" lon="2.32765">
        <ele>30.7</ele>
        <time>2023-04-06T13:19:16Z</time>
      </trkpt>
      <trkpt lat="49.86006" lon="2.32764">
        <ele>30.7</ele>
        <time>2023-04-06T13:19:17Z</time>
      </trkpt>
      <trkpt lat="49.86006" lon="2.32762">
        <ele>30.7</ele>
        <time>2023-04-06T13:19:18Z</time>
      </trkpt>
      <trkpt lat="49.86006" lon="2.3276">
        <ele>30.8</ele>
        <time>2023-04-06T13:19:19Z</time>
      </trkpt>
      <trkpt lat="49.86006" lon="2.32758">
        <ele>30.8</ele>
        <time>2023-04-06T13:19:20Z</time>
      </trkpt>
      <trkpt lat="49.86006" lon="2.32756">
        <ele>30.8</ele>
        <time>2023-04-06T13:19:21Z</time>
      </trkpt>
      <trkpt lat="49.86006" lon="2.32754">
        <ele>30.9</ele>
        <time>2023-04-06T13:19:22Z</time>
      </trkpt>
      <trkpt lat="49.86005" lon="2.32751">
        <ele>30.9</ele>
        <time>2023-04-06T13:19:24Z</time>
      </trkpt>
      <trkpt lat="49.86005" lon="2.3275">
        <ele>30.9</ele>
        <time>2023-04-06T13:19:25Z</time>
      </trkpt>
      <trkpt lat="49.86005" lon="2.32748">
        <ele>31</ele>
        <time>2023-04-06T13:19:26Z</time>
      </trkpt>
      <trkpt lat="49.86005" lon="2.32746">
        <ele>31</ele>
        <time>2023-04-06T13:19:27Z</time>
      </trkpt>
      <trkpt lat="49.86005" lon="2.32745">
        <ele>31</ele>
        <time>2023-04-06T13:19:28Z</time>
      </trkpt>
      <trkpt lat="49.86005" lon="2.32742">
        <ele>31.1</ele>
        <time>2023-04-06T13:19:29Z</time>
      </trkpt>
      <trkpt lat="49.86004" lon="2.3274">
        <ele>31.1</ele>
        <time>2023-04-06T13:19:30Z</time>
      </trkpt>
      <trkpt lat="49.86004" lon="2.32739">
        <ele>31.2</ele>
        <time>2023-04-06T13:19:31Z</time>
      </trkpt>
      <trkpt lat="49.86004" lon="2.32737">
        <ele>31.2</ele>
        <time>2023-04-06T13:19:32Z</time>
      </trkpt>
      <trkpt lat="49.86004" lon="2.32734">
        <ele>31.2</ele>
        <time>2023-04-06T13:19:33Z</time>
      </trkpt>
      <trkpt lat="49.86003" lon="2.32732">
        <ele>31.3</ele>
        <time>2023-04-06T13:19:34Z</time>
      </trkpt>
      <trkpt lat="49.86003" lon="2.32729">
        <ele>31.4</ele>
        <time>2023-04-06T13:19:35Z</time>
      </trkpt>
      <trkpt lat="49.86002" lon="2.32726">
        <ele>31.4</ele>
        <time>2023-04-06T13:19:37Z</time>
      </trkpt>
      <trkpt lat="49.86002" lon="2.32721">
        <ele>31.5</ele>
        <time>2023-04-06T13:19:38Z</time>
      </trkpt>
      <trkpt lat="49.86001" lon="2.3272">
        <ele>31.5</ele>
        <time>2023-04-06T13:19:39Z</time>
      </trkpt>
      <trkpt lat="49.86001" lon="2.32715">
        <ele>31.6</ele>
        <time>2023-04-06T13:19:40Z</time>
      </trkpt>
      <trkpt lat="49.86001" lon="2.32714">
        <ele>31.7</ele>
        <time>2023-04-06T13:19:41Z</time>
      </trkpt>
      <trkpt lat="49.86" lon="2.3271">
        <ele>31.7</ele>
        <time>2023-04-06T13:19:42Z</time>
      </trkpt>
      <trkpt lat="49.86" lon="2.32707">
        <ele>31.8</ele>
        <time>2023-04-06T13:19:43Z</time>
      </trkpt>
      <trkpt lat="49.86" lon="2.32706">
        <ele>31.8</ele>
        <time>2023-04-06T13:19:44Z</time>
      </trkpt>
      <trkpt lat="49.86" lon="2.32704">
        <ele>31.9</ele>
        <time>2023-04-06T13:19:45Z</time>
      </trkpt>
      <trkpt lat="49.85999" lon="2.32703">
        <ele>31.9</ele>
        <time>2023-04-06T13:19:46Z</time>
      </trkpt>
      <trkpt lat="49.85999" lon="2.32702">
        <ele>31.9</ele>
        <time>2023-04-06T13:19:47Z</time>
      </trkpt>
      <trkpt lat="49.85999" lon="2.327">
        <ele>31.9</ele>
        <time>2023-04-06T13:19:48Z</time>
      </trkpt>
      <trkpt lat="49.85998" lon="2.32697">
        <ele>32</ele>
        <time>2023-04-06T13:19:50Z</time>
      </trkpt>
      <trkpt lat="49.85998" lon="2.32696">
        <ele>32</ele>
        <time>2023-04-06T13:19:51Z</time>
      </trkpt>
      <trkpt lat="49.85998" lon="2.32694">
        <ele>32.1</ele>
        <time>2023-04-06T13:19:52Z</time>
      </trkpt>
      <trkpt lat="49.85998" lon="2.32691">
        <ele>32.1</ele>
        <time>2023-04-06T13:19:53Z</time>
      </trkpt>
      <trkpt lat="49.85998" lon="2.3269">
        <ele>32.2</ele>
        <time>2023-04-06T13:19:54Z</time>
      </trkpt>
      <trkpt lat="49.85998" lon="2.32689">
        <ele>32.2</ele>
        <time>2023-04-06T13:19:55Z</time>
      </trkpt>
      <trkpt lat="49.85997" lon="2.32687">
        <ele>32.2</ele>
        <time>2023-04-06T13:19:56Z</time>
      </trkpt>
      <trkpt lat="49.85997" lon="2.32685">
        <ele>32.3</ele>
        <time>2023-04-06T13:19:57Z</time>
      </trkpt>
      <trkpt lat="49.85997" lon="2.32684">
        <ele>32.3</ele>
        <time>2023-04-06T13:19:58Z</time>
      </trkpt>
      <trkpt lat="49.85996" lon="2.32681">
        <ele>32.4</ele>
        <time>2023-04-06T13:19:59Z</time>
      </trkpt>
      <trkpt lat="49.85996" lon="2.32679">
        <ele>32.4</ele>
        <time>2023-04-06T13:20:01Z</time>
      </trkpt>
      <trkpt lat="49.85996" lon="2.32678">
        <ele>32.5</ele>
        <time>2023-04-06T13:20:02Z</time>
      </trkpt>
      <trkpt lat="49.85996" lon="2.32675">
        <ele>32.5</ele>
        <time>2023-04-06T13:20:03Z</time>
      </trkpt>
      <trkpt lat="49.85996" lon="2.32673">
        <ele>32.6</ele>
        <time>2023-04-06T13:20:04Z</time>
      </trkpt>
      <trkpt lat="49.85995" lon="2.3267">
        <ele>32.6</ele>
        <time>2023-04-06T13:20:05Z</time>
      </trkpt>
      <trkpt lat="49.85995" lon="2.32669">
        <ele>32.7</ele>
        <time>2023-04-06T13:20:06Z</time>
      </trkpt>
      <trkpt lat="49.85994" lon="2.32667">
        <ele>32.7</ele>
        <time>2023-04-06T13:20:08Z</time>
      </trkpt>
      <trkpt lat="49.85994" lon="2.32664">
        <ele>32.8</ele>
        <time>2023-04-06T13:20:09Z</time>
      </trkpt>
      <trkpt lat="49.85994" lon="2.32662">
        <ele>32.9</ele>
        <time>2023-04-06T13:20:10Z</time>
      </trkpt>
      <trkpt lat="49.85993" lon="2.32661">
        <ele>32.9</ele>
        <time>2023-04-06T13:20:11Z</time>
      </trkpt>
      <trkpt lat="49.85993" lon="2.32659">
        <ele>32.9</ele>
        <time>2023-04-06T13:20:12Z</time>
      </trkpt>
      <trkpt lat="49.85993" lon="2.32658">
        <ele>33</ele>
        <time>2023-04-06T13:20:13Z</time>
      </trkpt>
      <trkpt lat="49.85993" lon="2.32656">
        <ele>33</ele>
        <time>2023-04-06T13:20:14Z</time>
      </trkpt>
      <trkpt lat="49.85993" lon="2.32652">
        <ele>33.1</ele>
        <time>2023-04-06T13:20:15Z</time>
      </trkpt>
      <trkpt lat="49.85993" lon="2.32651">
        <ele>33.2</ele>
        <time>2023-04-06T13:20:16Z</time>
      </trkpt>
      <trkpt lat="49.85993" lon="2.32649">
        <ele>33.2</ele>
        <time>2023-04-06T13:20:18Z</time>
      </trkpt>
      <trkpt lat="49.85993" lon="2.32647">
        <ele>33.3</ele>
        <time>2023-04-06T13:20:19Z</time>
      </trkpt>
      <trkpt lat="49.85992" lon="2.32645">
        <ele>33.3</ele>
        <time>2023-04-06T13:20:20Z</time>
      </trkpt>
      <trkpt lat="49.85992" lon="2.32644">
        <ele>33.4</ele>
        <time>2023-04-06T13:20:21Z</time>
      </trkpt>
      <trkpt lat="49.85992" lon="2.32642">
        <ele>33.4</ele>
        <time>2023-04-06T13:20:22Z</time>
      </trkpt>
      <trkpt lat="49.85992" lon="2.32641">
        <ele>33.5</ele>
        <time>2023-04-06T13:20:23Z</time>
      </trkpt>
      <trkpt lat="49.85992" lon="2.32639">
        <ele>33.5</ele>
        <time>2023-04-06T13:20:24Z</time>
      </trkpt>
      <trkpt lat="49.85992" lon="2.32637">
        <ele>33.6</ele>
        <time>2023-04-06T13:20:25Z</time>
      </trkpt>
      <trkpt lat="49.85991" lon="2.32635">
        <ele>33.7</ele>
        <time>2023-04-06T13:20:27Z</time>
      </trkpt>
      <trkpt lat="49.85991" lon="2.32633">
        <ele>33.7</ele>
        <time>2023-04-06T13:20:28Z</time>
      </trkpt>
      <trkpt lat="49.85991" lon="2.32632">
        <ele>33.7</ele>
        <time>2023-04-06T13:20:29Z</time>
      </trkpt>
      <trkpt lat="49.85991" lon="2.32631">
        <ele>33.8</ele>
        <time>2023-04-06T13:20:30Z</time>
      </trkpt>
      <trkpt lat="49.85991" lon="2.32629">
        <ele>33.8</ele>
        <time>2023-04-06T13:20:31Z</time>
      </trkpt>
      <trkpt lat="49.85991" lon="2.32627">
        <ele>33.9</ele>
        <time>2023-04-06T13:20:32Z</time>
      </trkpt>
      <trkpt lat="49.8599" lon="2.32625">
        <ele>34</ele>
        <time>2023-04-06T13:20:33Z</time>
      </trkpt>
      <trkpt lat="49.8599" lon="2.32624">
        <ele>34</ele>
        <time>2023-04-06T13:20:34Z</time>
      </trkpt>
      <trkpt lat="49.85989" lon="2.32621">
        <ele>34.1</ele>
        <time>2023-04-06T13:20:36Z</time>
      </trkpt>
      <trkpt lat="49.85988" lon="2.32619">
        <ele>34.2</ele>
        <time>2023-04-06T13:20:37Z</time>
      </trkpt>
      <trkpt lat="49.85988" lon="2.32618">
        <ele>34.2</ele>
        <time>2023-04-06T13:20:38Z</time>
      </trkpt>
      <trkpt lat="49.85988" lon="2.32616">
        <ele>34.3</ele>
        <time>2023-04-06T13:20:39Z</time>
      </trkpt>
      <trkpt lat="49.85988" lon="2.32614">
        <ele>34.4</ele>
        <time>2023-04-06T13:20:40Z</time>
      </trkpt>
      <trkpt lat="49.85988" lon="2.32612">
        <ele>34.5</ele>
        <time>2023-04-06T13:20:41Z</time>
      </trkpt>
      <trkpt lat="49.85987" lon="2.3261">
        <ele>34.5</ele>
        <time>2023-04-06T13:20:42Z</time>
      </trkpt>
      <trkpt lat="49.85987" lon="2.32607">
        <ele>34.6</ele>
        <time>2023-04-06T13:20:44Z</time>
      </trkpt>
      <trkpt lat="49.85987" lon="2.32606">
        <ele>35</ele>
        <time>2023-04-06T13:20:45Z</time>
      </trkpt>
      <trkpt lat="49.85987" lon="2.32604">
        <ele>35</ele>
        <time>2023-04-06T13:20:46Z</time>
      </trkpt>
      <trkpt lat="49.85987" lon="2.32602">
        <ele>35</ele>
        <time>2023-04-06T13:20:47Z</time>
      </trkpt>
      <trkpt lat="49.85988" lon="2.32601">
        <ele>35.1</ele>
        <time>2023-04-06T13:20:48Z</time>
      </trkpt>
      <trkpt lat="49.85988" lon="2.32599">
        <ele>35.1</ele>
        <time>2023-04-06T13:20:49Z</time>
      </trkpt>
      <trkpt lat="49.85989" lon="2.32598">
        <ele>35.2</ele>
        <time>2023-04-06T13:20:50Z</time>
      </trkpt>
      <trkpt lat="49.8599" lon="2.32595">
        <ele>35.3</ele>
        <time>2023-04-06T13:20:52Z</time>
      </trkpt>
      <trkpt lat="49.85991" lon="2.32594">
        <ele>35.3</ele>
        <time>2023-04-06T13:20:53Z</time>
      </trkpt>
      <trkpt lat="49.85991" lon="2.32593">
        <ele>35.3</ele>
        <time>2023-04-06T13:20:54Z</time>
      </trkpt>
      <trkpt lat="49.85992" lon="2.32592">
        <ele>35.4</ele>
        <time>2023-04-06T13:20:55Z</time>
      </trkpt>
      <trkpt lat="49.85993" lon="2.32591">
        <ele>35.4</ele>
        <time>2023-04-06T13:20:56Z</time>
      </trkpt>
      <trkpt lat="49.85995" lon="2.32591">
        <ele>35.5</ele>
        <time>2023-04-06T13:20:57Z</time>
      </trkpt>
      <trkpt lat="49.85997" lon="2.3259">
        <ele>35.6</ele>
        <time>2023-04-06T13:20:59Z</time>
      </trkpt>
      <trkpt lat="49.85998" lon="2.3259">
        <ele>35.6</ele>
        <time>2023-04-06T13:21:00Z</time>
      </trkpt>
      <trkpt lat="49.86" lon="2.32589">
        <ele>35.7</ele>
        <time>2023-04-06T13:21:01Z</time>
      </trkpt>
      <trkpt lat="49.86001" lon="2.32589">
        <ele>35.8</ele>
        <time>2023-04-06T13:21:02Z</time>
      </trkpt>
      <trkpt lat="49.86001" lon="2.32589">
        <ele>35.8</ele>
        <time>2023-04-06T13:21:03Z</time>
      </trkpt>
      <trkpt lat="49.86003" lon="2.32588">
        <ele>35.9</ele>
        <time>2023-04-06T13:21:04Z</time>
      </trkpt>
      <trkpt lat="49.86004" lon="2.32587">
        <ele>35.9</ele>
        <time>2023-04-06T13:21:06Z</time>
      </trkpt>
      <trkpt lat="49.86005" lon="2.32587">
        <ele>36</ele>
        <time>2023-04-06T13:21:07Z</time>
      </trkpt>
      <trkpt lat="49.86006" lon="2.32586">
        <ele>36</ele>
        <time>2023-04-06T13:21:08Z</time>
      </trkpt>
      <trkpt lat="49.86008" lon="2.32585">
        <ele>36.1</ele>
        <time>2023-04-06T13:21:09Z</time>
      </trkpt>
      <trkpt lat="49.86009" lon="2.32585">
        <ele>36.1</ele>
        <time>2023-04-06T13:21:10Z</time>
      </trkpt>
      <trkpt lat="49.8601" lon="2.32584">
        <ele>36.2</ele>
        <time>2023-04-06T13:21:11Z</time>
      </trkpt>
      <trkpt lat="49.86011" lon="2.32584">
        <ele>36.2</ele>
        <time>2023-04-06T13:21:12Z</time>
      </trkpt>
      <trkpt lat="49.86013" lon="2.32583">
        <ele>36.3</ele>
        <time>2023-04-06T13:21:14Z</time>
      </trkpt>
      <trkpt lat="49.86014" lon="2.32582">
        <ele>36.4</ele>
        <time>2023-04-06T13:21:15Z</time>
      </trkpt>
      <trkpt lat="49.86014" lon="2.32582">
        <ele>36.4</ele>
        <time>2023-04-06T13:21:16Z</time>
      </trkpt>
      <trkpt lat="49.86017" lon="2.32581">
        <ele>36.5</ele>
        <time>2023-04-06T13:21:17Z</time>
      </trkpt>
      <trkpt lat="49.86017" lon="2.3258">
        <ele>36.5</ele>
        <time>2023-04-06T13:21:18Z</time>
      </trkpt>
      <trkpt lat="49.86018" lon="2.3258">
        <ele>36.6</ele>
        <time>2023-04-06T13:21:19Z</time>
      </trkpt>
      <trkpt lat="49.86019" lon="2.32579">
        <ele>36.6</ele>
        <time>2023-04-06T13:21:20Z</time>
      </trkpt>
      <trkpt lat="49.8602" lon="2.32579">
        <ele>36.7</ele>
        <time>2023-04-06T13:21:22Z</time>
      </trkpt>
      <trkpt lat="49.86021" lon="2.32578">
        <ele>36.7</ele>
        <time>2023-04-06T13:21:23Z</time>
      </trkpt>
      <trkpt lat="49.86023" lon="2.32577">
        <ele>36.8</ele>
        <time>2023-04-06T13:21:24Z</time>
      </trkpt>
      <trkpt lat="49.86024" lon="2.32577">
        <ele>36.8</ele>
        <time>2023-04-06T13:21:25Z</time>
      </trkpt>
      <trkpt lat="49.86025" lon="2.32576">
        <ele>36.9</ele>
        <time>2023-04-06T13:21:26Z</time>
      </trkpt>
      <trkpt lat="49.86026" lon="2.32576">
        <ele>36.9</ele>
        <time>2023-04-06T13:21:27Z</time>
      </trkpt>
      <trkpt lat="49.86028" lon="2.32575">
        <ele>37.1</ele>
        <time>2023-04-06T13:21:29Z</time>
      </trkpt>
      <trkpt lat="49.86028" lon="2.32574">
        <ele>37.1</ele>
        <time>2023-04-06T13:21:30Z</time>
      </trkpt>
      <trkpt lat="49.8603" lon="2.32573">
        <ele>37.2</ele>
        <time>2023-04-06T13:21:31Z</time>
      </trkpt>
      <trkpt lat="49.86031" lon="2.32573">
        <ele>37.3</ele>
        <time>2023-04-06T13:21:32Z</time>
      </trkpt>
      <trkpt lat="49.86032" lon="2.32572">
        <ele>37.4</ele>
        <time>2023-04-06T13:21:33Z</time>
      </trkpt>
      <trkpt lat="49.86033" lon="2.32572">
        <ele>37.4</ele>
        <time>2023-04-06T13:21:34Z</time>
      </trkpt>
      <trkpt lat="49.86034" lon="2.32571">
        <ele>37.5</ele>
        <time>2023-04-06T13:21:35Z</time>
      </trkpt>
      <trkpt lat="49.86036" lon="2.32571">
        <ele>37.6</ele>
        <time>2023-04-06T13:21:37Z</time>
      </trkpt>
      <trkpt lat="49.86036" lon="2.3257">
        <ele>37.6</ele>
        <time>2023-04-06T13:21:38Z</time>
      </trkpt>
      <trkpt lat="49.86037" lon="2.3257">
        <ele>37.7</ele>
        <time>2023-04-06T13:21:39Z</time>
      </trkpt>
      <trkpt lat="49.86038" lon="2.32569">
        <ele>37.8</ele>
        <time>2023-04-06T13:21:40Z</time>
      </trkpt>
      <trkpt lat="49.8604" lon="2.32568">
        <ele>37.9</ele>
        <time>2023-04-06T13:21:41Z</time>
      </trkpt>
      <trkpt lat="49.86041" lon="2.32566">
        <ele>38</ele>
        <time>2023-04-06T13:21:42Z</time>
      </trkpt>
      <trkpt lat="49.86042" lon="2.32565">
        <ele>38.1</ele>
        <time>2023-04-06T13:21:44Z</time>
      </trkpt>
      <trkpt lat="49.86043" lon="2.32564">
        <ele>38.1</ele>
        <time>2023-04-06T13:21:45Z</time>
      </trkpt>
      <trkpt lat="49.86044" lon="2.32564">
        <ele>38.2</ele>
        <time>2023-04-06T13:21:46Z</time>
      </trkpt>
      <trkpt lat="49.86045" lon="2.32564">
        <ele>38.2</ele>
        <time>2023-04-06T13:21:47Z</time>
      </trkpt>
      <trkpt lat="49.86046" lon="2.32563">
        <ele>38.3</ele>
        <time>2023-04-06T13:21:48Z</time>
      </trkpt>
      <trkpt lat="49.86047" lon="2.32563">
        <ele>38.4</ele>
        <time>2023-04-06T13:21:49Z</time>
      </trkpt>
      <trkpt lat="49.86049" lon="2.32563">
        <ele>38.5</ele>
        <time>2023-04-06T13:21:50Z</time>
      </trkpt>
      <trkpt lat="49.8605" lon="2.32562">
        <ele>38.6</ele>
        <time>2023-04-06T13:21:52Z</time>
      </trkpt>
      <trkpt lat="49.86052" lon="2.32561">
        <ele>38.7</ele>
        <time>2023-04-06T13:21:53Z</time>
      </trkpt>
      <trkpt lat="49.86052" lon="2.32561">
        <ele>38.8</ele>
        <time>2023-04-06T13:21:54Z</time>
      </trkpt>
      <trkpt lat="49.86053" lon="2.32561">
        <ele>38.8</ele>
        <time>2023-04-06T13:21:55Z</time>
      </trkpt>
      <trkpt lat="49.86055" lon="2.32561">
        <ele>38.9</ele>
        <time>2023-04-06T13:21:56Z</time>
      </trkpt>
      <trkpt lat="49.86055" lon="2.3256">
        <ele>39</ele>
        <time>2023-04-06T13:21:57Z</time>
      </trkpt>
      <trkpt lat="49.86056" lon="2.3256">
        <ele>39.1</ele>
        <time>2023-04-06T13:21:58Z</time>
      </trkpt>
      <trkpt lat="49.86057" lon="2.3256">
        <ele>39.1</ele>
        <time>2023-04-06T13:22:00Z</time>
      </trkpt>
      <trkpt lat="49.86058" lon="2.32559">
        <ele>39.2</ele>
        <time>2023-04-06T13:22:01Z</time>
      </trkpt>
      <trkpt lat="49.86059" lon="2.32559">
        <ele>39.2</ele>
        <time>2023-04-06T13:22:02Z</time>
      </trkpt>
      <trkpt lat="49.8606" lon="2.32559">
        <ele>39.3</ele>
        <time>2023-04-06T13:22:03Z</time>
      </trkpt>
      <trkpt lat="49.86062" lon="2.32558">
        <ele>39.4</ele>
        <time>2023-04-06T13:22:05Z</time>
      </trkpt>
      <trkpt lat="49.86063" lon="2.32558">
        <ele>39.5</ele>
        <time>2023-04-06T13:22:06Z</time>
      </trkpt>
      <trkpt lat="49.86064" lon="2.32558">
        <ele>39.6</ele>
        <time>2023-04-06T13:22:07Z</time>
      </trkpt>
      <trkpt lat="49.86065" lon="2.32558">
        <ele>39.6</ele>
        <time>2023-04-06T13:22:08Z</time>
      </trkpt>
      <trkpt lat="49.86067" lon="2.32557">
        <ele>39.8</ele>
        <time>2023-04-06T13:22:09Z</time>
      </trkpt>
      <trkpt lat="49.86067" lon="2.32557">
        <ele>39.8</ele>
        <time>2023-04-06T13:22:10Z</time>
      </trkpt>
      <trkpt lat="49.86068" lon="2.32557">
        <ele>39.9</ele>
        <time>2023-04-06T13:22:11Z</time>
      </trkpt>
      <trkpt lat="49.86069" lon="2.32556">
        <ele>39.9</ele>
        <time>2023-04-06T13:22:12Z</time>
      </trkpt>
      <trkpt lat="49.86071" lon="2.32556">
        <ele>40.1</ele>
        <time>2023-04-06T13:22:14Z</time>
      </trkpt>
      <trkpt lat="49.86072" lon="2.32555">
        <ele>40.1</ele>
        <time>2023-04-06T13:22:15Z</time>
      </trkpt>
      <trkpt lat="49.86073" lon="2.32555">
        <ele>40.2</ele>
        <time>2023-04-06T13:22:16Z</time>
      </trkpt>
      <trkpt lat="49.86074" lon="2.32554">
        <ele>40.3</ele>
        <time>2023-04-06T13:22:17Z</time>
      </trkpt>
      <trkpt lat="49.86076" lon="2.32553">
        <ele>40.4</ele>
        <time>2023-04-06T13:22:18Z</time>
      </trkpt>
      <trkpt lat="49.86076" lon="2.32552">
        <ele>40.4</ele>
        <time>2023-04-06T13:22:20Z</time>
      </trkpt>
      <trkpt lat="49.86077" lon="2.32552">
        <ele>40.5</ele>
        <time>2023-04-06T13:22:21Z</time>
      </trkpt>
      <trkpt lat="49.86079" lon="2.32551">
        <ele>40.6</ele>
        <time>2023-04-06T13:22:22Z</time>
      </trkpt>
      <trkpt lat="49.8608" lon="2.32551">
        <ele>40.7</ele>
        <time>2023-04-06T13:22:23Z</time>
      </trkpt>
      <trkpt lat="49.86081" lon="2.3255">
        <ele>40.7</ele>
        <time>2023-04-06T13:22:24Z</time>
      </trkpt>
      <trkpt lat="49.86082" lon="2.3255">
        <ele>40.8</ele>
        <time>2023-04-06T13:22:25Z</time>
      </trkpt>
      <trkpt lat="49.86083" lon="2.32549">
        <ele>40.9</ele>
        <time>2023-04-06T13:22:26Z</time>
      </trkpt>
      <trkpt lat="49.86084" lon="2.32548">
        <ele>40.9</ele>
        <time>2023-04-06T13:22:28Z</time>
      </trkpt>
      <trkpt lat="49.86084" lon="2.32548">
        <ele>41</ele>
        <time>2023-04-06T13:22:29Z</time>
      </trkpt>
      <trkpt lat="49.86085" lon="2.32547">
        <ele>41.1</ele>
        <time>2023-04-06T13:22:30Z</time>
      </trkpt>
      <trkpt lat="49.86086" lon="2.32547">
        <ele>41.1</ele>
        <time>2023-04-06T13:22:31Z</time>
      </trkpt>
      <trkpt lat="49.86086" lon="2.32546">
        <ele>41.1</ele>
        <time>2023-04-06T13:22:32Z</time>
      </trkpt>
      <trkpt lat="49.86086" lon="2.32546">
        <ele>41.2</ele>
        <time>2023-04-06T13:22:34Z</time>
      </trkpt>
      <trkpt lat="49.86087" lon="2.32545">
        <ele>41.2</ele>
        <time>2023-04-06T13:22:35Z</time>
      </trkpt>
      <trkpt lat="49.86088" lon="2.32545">
        <ele>41.3</ele>
        <time>2023-04-06T13:22:36Z</time>
      </trkpt>
      <trkpt lat="49.8609" lon="2.32544">
        <ele>41.4</ele>
        <time>2023-04-06T13:22:37Z</time>
      </trkpt>
      <trkpt lat="49.86091" lon="2.32544">
        <ele>41.5</ele>
        <time>2023-04-06T13:22:38Z</time>
      </trkpt>
      <trkpt lat="49.86092" lon="2.32543">
        <ele>41.6</ele>
        <time>2023-04-06T13:22:39Z</time>
      </trkpt>
      <trkpt lat="49.86094" lon="2.32542">
        <ele>41.7</ele>
        <time>2023-04-06T13:22:41Z</time>
      </trkpt>
      <trkpt lat="49.86095" lon="2.32541">
        <ele>41.8</ele>
        <time>2023-04-06T13:22:42Z</time>
      </trkpt>
      <trkpt lat="49.86096" lon="2.32541">
        <ele>41.8</ele>
        <time>2023-04-06T13:22:43Z</time>
      </trkpt>
      <trkpt lat="49.86096" lon="2.3254">
        <ele>41.9</ele>
        <time>2023-04-06T13:22:44Z</time>
      </trkpt>
      <trkpt lat="49.86097" lon="2.32539">
        <ele>41.9</ele>
        <time>2023-04-06T13:22:45Z</time>
      </trkpt>
      <trkpt lat="49.86098" lon="2.32539">
        <ele>42</ele>
        <time>2023-04-06T13:22:46Z</time>
      </trkpt>
      <trkpt lat="49.86098" lon="2.32538">
        <ele>42</ele>
        <time>2023-04-06T13:22:48Z</time>
      </trkpt>
      <trkpt lat="49.86099" lon="2.32538">
        <ele>42.1</ele>
        <time>2023-04-06T13:22:49Z</time>
      </trkpt>
      <trkpt lat="49.861" lon="2.32538">
        <ele>42.1</ele>
        <time>2023-04-06T13:22:50Z</time>
      </trkpt>
      <trkpt lat="49.86101" lon="2.32538">
        <ele>42.2</ele>
        <time>2023-04-06T13:22:51Z</time>
      </trkpt>
      <trkpt lat="49.86102" lon="2.32537">
        <ele>42.3</ele>
        <time>2023-04-06T13:22:52Z</time>
      </trkpt>
      <trkpt lat="49.86104" lon="2.32537">
        <ele>42.4</ele>
        <time>2023-04-06T13:22:53Z</time>
      </trkpt>
      <trkpt lat="49.86105" lon="2.32536">
        <ele>42.5</ele>
        <time>2023-04-06T13:22:55Z</time>
      </trkpt>
      <trkpt lat="49.86106" lon="2.32536">
        <ele>42.5</ele>
        <time>2023-04-06T13:22:56Z</time>
      </trkpt>
      <trkpt lat="49.86107" lon="2.32535">
        <ele>42.6</ele>
        <time>2023-04-06T13:22:57Z</time>
      </trkpt>
      <trkpt lat="49.86108" lon="2.32535">
        <ele>42.7</ele>
        <time>2023-04-06T13:22:58Z</time>
      </trkpt>
      <trkpt lat="49.86109" lon="2.32535">
        <ele>42.7</ele>
        <time>2023-04-06T13:22:59Z</time>
      </trkpt>
      <trkpt lat="49.8611" lon="2.32535">
        <ele>42.8</ele>
        <time>2023-04-06T13:23:00Z</time>
      </trkpt>
      <trkpt lat="49.86111" lon="2.32535">
        <ele>42.9</ele>
        <time>2023-04-06T13:23:01Z</time>
      </trkpt>
      <trkpt lat="49.86113" lon="2.32534">
        <ele>43</ele>
        <time>2023-04-06T13:23:03Z</time>
      </trkpt>
      <trkpt lat="49.86114" lon="2.32533">
        <ele>43.1</ele>
        <time>2023-04-06T13:23:04Z</time>
      </trkpt>
      <trkpt lat="49.86114" lon="2.32533">
        <ele>43.1</ele>
        <time>2023-04-06T13:23:05Z</time>
      </trkpt>
      <trkpt lat="49.86115" lon="2.32532">
        <ele>43.2</ele>
        <time>2023-04-06T13:23:06Z</time>
      </trkpt>
      <trkpt lat="49.86117" lon="2.32532">
        <ele>43.3</ele>
        <time>2023-04-06T13:23:07Z</time>
      </trkpt>
      <trkpt lat="49.86118" lon="2.32531">
        <ele>43.4</ele>
        <time>2023-04-06T13:23:08Z</time>
      </trkpt>
      <trkpt lat="49.86119" lon="2.32531">
        <ele>43.5</ele>
        <time>2023-04-06T13:23:09Z</time>
      </trkpt>
      <trkpt lat="49.8612" lon="2.32531">
        <ele>43.5</ele>
        <time>2023-04-06T13:23:10Z</time>
      </trkpt>
      <trkpt lat="49.86121" lon="2.32531">
        <ele>43.6</ele>
        <time>2023-04-06T13:23:11Z</time>
      </trkpt>
      <trkpt lat="49.86123" lon="2.32531">
        <ele>43.8</ele>
        <time>2023-04-06T13:23:13Z</time>
      </trkpt>
      <trkpt lat="49.86124" lon="2.32531">
        <ele>43.9</ele>
        <time>2023-04-06T13:23:14Z</time>
      </trkpt>
      <trkpt lat="49.86127" lon="2.3253">
        <ele>44</ele>
        <time>2023-04-06T13:23:15Z</time>
      </trkpt>
      <trkpt lat="49.86127" lon="2.3253">
        <ele>44.1</ele>
        <time>2023-04-06T13:23:16Z</time>
      </trkpt>
      <trkpt lat="49.86128" lon="2.3253">
        <ele>44.2</ele>
        <time>2023-04-06T13:23:17Z</time>
      </trkpt>
      <trkpt lat="49.8613" lon="2.32529">
        <ele>44.3</ele>
        <time>2023-04-06T13:23:18Z</time>
      </trkpt>
      <trkpt lat="49.86131" lon="2.32529">
        <ele>44.4</ele>
        <time>2023-04-06T13:23:20Z</time>
      </trkpt>
      <trkpt lat="49.86132" lon="2.32528">
        <ele>44.4</ele>
        <time>2023-04-06T13:23:21Z</time>
      </trkpt>
      <trkpt lat="49.86134" lon="2.32528">
        <ele>44.6</ele>
        <time>2023-04-06T13:23:22Z</time>
      </trkpt>
      <trkpt lat="49.86135" lon="2.32528">
        <ele>44.6</ele>
        <time>2023-04-06T13:23:23Z</time>
      </trkpt>
      <trkpt lat="49.86136" lon="2.32527">
        <ele>44.7</ele>
        <time>2023-04-06T13:23:24Z</time>
      </trkpt>
      <trkpt lat="49.86137" lon="2.32526">
        <ele>44.8</ele>
        <time>2023-04-06T13:23:25Z</time>
      </trkpt>
      <trkpt lat="49.86138" lon="2.32526">
        <ele>44.9</ele>
        <time>2023-04-06T13:23:26Z</time>
      </trkpt>
      <trkpt lat="49.86141" lon="2.32524">
        <ele>45.1</ele>
        <time>2023-04-06T13:23:27Z</time>
      </trkpt>
      <trkpt lat="49.86142" lon="2.32524">
        <ele>45.1</ele>
        <time>2023-04-06T13:23:29Z</time>
      </trkpt>
      <trkpt lat="49.86143" lon="2.32524">
        <ele>45.2</ele>
        <time>2023-04-06T13:23:30Z</time>
      </trkpt>
      <trkpt lat="49.86144" lon="2.32523">
        <ele>45.3</ele>
        <time>2023-04-06T13:23:31Z</time>
      </trkpt>
      <trkpt lat="49.86145" lon="2.32523">
        <ele>45.3</ele>
        <time>2023-04-06T13:23:32Z</time>
      </trkpt>
      <trkpt lat="49.86146" lon="2.32522">
        <ele>45.4</ele>
        <time>2023-04-06T13:23:33Z</time>
      </trkpt>
      <trkpt lat="49.86147" lon="2.32522">
        <ele>45.5</ele>
        <time>2023-04-06T13:23:34Z</time>
      </trkpt>
      <trkpt lat="49.86148" lon="2.32522">
        <ele>45.5</ele>
        <time>2023-04-06T13:23:35Z</time>
      </trkpt>
      <trkpt lat="49.8615" lon="2.32522">
        <ele>45.6</ele>
        <time>2023-04-06T13:23:36Z</time>
      </trkpt>
      <trkpt lat="49.86152" lon="2.32521">
        <ele>45.7</ele>
        <time>2023-04-06T13:23:38Z</time>
      </trkpt>
      <trkpt lat="49.86153" lon="2.32521">
        <ele>45.8</ele>
        <time>2023-04-06T13:23:39Z</time>
      </trkpt>
      <trkpt lat="49.86154" lon="2.32521">
        <ele>45.9</ele>
        <time>2023-04-06T13:23:40Z</time>
      </trkpt>
      <trkpt lat="49.86156" lon="2.3252">
        <ele>45.9</ele>
        <time>2023-04-06T13:23:41Z</time>
      </trkpt>
      <trkpt lat="49.86157" lon="2.3252">
        <ele>46</ele>
        <time>2023-04-06T13:23:42Z</time>
      </trkpt>
      <trkpt lat="49.86158" lon="2.32519">
        <ele>46.1</ele>
        <time>2023-04-06T13:23:43Z</time>
      </trkpt>
      <trkpt lat="49.86161" lon="2.32518">
        <ele>46.2</ele>
        <time>2023-04-06T13:23:45Z</time>
      </trkpt>
      <trkpt lat="49.86163" lon="2.32517">
        <ele>46.4</ele>
        <time>2023-04-06T13:23:47Z</time>
      </trkpt>
      <trkpt lat="49.86164" lon="2.32516">
        <ele>46.5</ele>
        <time>2023-04-06T13:23:48Z</time>
      </trkpt>
      <trkpt lat="49.86166" lon="2.32515">
        <ele>46.6</ele>
        <time>2023-04-06T13:23:49Z</time>
      </trkpt>
      <trkpt lat="49.86167" lon="2.32515">
        <ele>46.6</ele>
        <time>2023-04-06T13:23:50Z</time>
      </trkpt>
      <trkpt lat="49.86168" lon="2.32515">
        <ele>46.7</ele>
        <time>2023-04-06T13:23:51Z</time>
      </trkpt>
      <trkpt lat="49.8617" lon="2.32514">
        <ele>46.8</ele>
        <time>2023-04-06T13:23:52Z</time>
      </trkpt>
      <trkpt lat="49.86172" lon="2.32513">
        <ele>46.9</ele>
        <time>2023-04-06T13:23:54Z</time>
      </trkpt>
      <trkpt lat="49.86173" lon="2.32512">
        <ele>47</ele>
        <time>2023-04-06T13:23:55Z</time>
      </trkpt>
      <trkpt lat="49.86175" lon="2.32512">
        <ele>47.1</ele>
        <time>2023-04-06T13:23:56Z</time>
      </trkpt>
      <trkpt lat="49.86176" lon="2.32512">
        <ele>47.1</ele>
        <time>2023-04-06T13:23:57Z</time>
      </trkpt>
      <trkpt lat="49.86178" lon="2.32511">
        <ele>47.2</ele>
        <time>2023-04-06T13:23:58Z</time>
      </trkpt>
      <trkpt lat="49.86179" lon="2.32511">
        <ele>47.3</ele>
        <time>2023-04-06T13:24:00Z</time>
      </trkpt>
      <trkpt lat="49.86181" lon="2.3251">
        <ele>47.4</ele>
        <time>2023-04-06T13:24:01Z</time>
      </trkpt>
      <trkpt lat="49.86182" lon="2.3251">
        <ele>47.5</ele>
        <time>2023-04-06T13:24:02Z</time>
      </trkpt>
      <trkpt lat="49.86183" lon="2.3251">
        <ele>47.6</ele>
        <time>2023-04-06T13:24:03Z</time>
      </trkpt>
      <trkpt lat="49.86185" lon="2.3251">
        <ele>47.7</ele>
        <time>2023-04-06T13:24:04Z</time>
      </trkpt>
      <trkpt lat="49.86185" lon="2.3251">
        <ele>47.7</ele>
        <time>2023-04-06T13:24:05Z</time>
      </trkpt>
      <trkpt lat="49.86186" lon="2.32509">
        <ele>47.7</ele>
        <time>2023-04-06T13:24:06Z</time>
      </trkpt>
      <trkpt lat="49.86187" lon="2.32509">
        <ele>47.8</ele>
        <time>2023-04-06T13:24:07Z</time>
      </trkpt>
      <trkpt lat="49.86188" lon="2.32509">
        <ele>47.8</ele>
        <time>2023-04-06T13:24:09Z</time>
      </trkpt>
      <trkpt lat="49.86189" lon="2.32508">
        <ele>47.9</ele>
        <time>2023-04-06T13:24:10Z</time>
      </trkpt>
      <trkpt lat="49.8619" lon="2.32508">
        <ele>48</ele>
        <time>2023-04-06T13:24:11Z</time>
      </trkpt>
      <trkpt lat="49.86191" lon="2.32508">
        <ele>48</ele>
        <time>2023-04-06T13:24:12Z</time>
      </trkpt>
      <trkpt lat="49.86193" lon="2.32508">
        <ele>48.1</ele>
        <time>2023-04-06T13:24:13Z</time>
      </trkpt>
      <trkpt lat="49.86194" lon="2.32508">
        <ele>48.2</ele>
        <time>2023-04-06T13:24:15Z</time>
      </trkpt>
      <trkpt lat="49.86195" lon="2.32508">
        <ele>48.3</ele>
        <time>2023-04-06T13:24:16Z</time>
      </trkpt>
      <trkpt lat="49.86197" lon="2.32507">
        <ele>48.4</ele>
        <time>2023-04-06T13:24:17Z</time>
      </trkpt>
      <trkpt lat="49.86198" lon="2.32507">
        <ele>48.4</ele>
        <time>2023-04-06T13:24:18Z</time>
      </trkpt>
      <trkpt lat="49.86199" lon="2.32507">
        <ele>48.5</ele>
        <time>2023-04-06T13:24:19Z</time>
      </trkpt>
      <trkpt lat="49.86199" lon="2.32507">
        <ele>48.5</ele>
        <time>2023-04-06T13:24:20Z</time>
      </trkpt>
      <trkpt lat="49.86201" lon="2.32506">
        <ele>48.6</ele>
        <time>2023-04-06T13:24:21Z</time>
      </trkpt>
      <trkpt lat="49.86202" lon="2.32505">
        <ele>48.7</ele>
        <time>2023-04-06T13:24:22Z</time>
      </trkpt>
      <trkpt lat="49.86203" lon="2.32505">
        <ele>48.7</ele>
        <time>2023-04-06T13:24:23Z</time>
      </trkpt>
      <trkpt lat="49.86204" lon="2.32504">
        <ele>48.8</ele>
        <time>2023-04-06T13:24:25Z</time>
      </trkpt>
      <trkpt lat="49.86205" lon="2.32503">
        <ele>48.9</ele>
        <time>2023-04-06T13:24:26Z</time>
      </trkpt>
      <trkpt lat="49.86207" lon="2.32502">
        <ele>49</ele>
        <time>2023-04-06T13:24:27Z</time>
      </trkpt>
      <trkpt lat="49.86208" lon="2.32501">
        <ele>49</ele>
        <time>2023-04-06T13:24:28Z</time>
      </trkpt>
      <trkpt lat="49.86209" lon="2.32501">
        <ele>49.1</ele>
        <time>2023-04-06T13:24:29Z</time>
      </trkpt>
      <trkpt lat="49.8621" lon="2.325">
        <ele>49.2</ele>
        <time>2023-04-06T13:24:30Z</time>
      </trkpt>
      <trkpt lat="49.8621" lon="2.32499">
        <ele>49.2</ele>
        <time>2023-04-06T13:24:32Z</time>
      </trkpt>
      <trkpt lat="49.86213" lon="2.32498">
        <ele>49.4</ele>
        <time>2023-04-06T13:24:33Z</time>
      </trkpt>
      <trkpt lat="49.86214" lon="2.32497">
        <ele>49.4</ele>
        <time>2023-04-06T13:24:34Z</time>
      </trkpt>
      <trkpt lat="49.86216" lon="2.32497">
        <ele>49.6</ele>
        <time>2023-04-06T13:24:35Z</time>
      </trkpt>
      <trkpt lat="49.86217" lon="2.32496">
        <ele>49.6</ele>
        <time>2023-04-06T13:24:37Z</time>
      </trkpt>
      <trkpt lat="49.86218" lon="2.32496">
        <ele>49.7</ele>
        <time>2023-04-06T13:24:38Z</time>
      </trkpt>
      <trkpt lat="49.86219" lon="2.32495">
        <ele>49.8</ele>
        <time>2023-04-06T13:24:39Z</time>
      </trkpt>
      <trkpt lat="49.8622" lon="2.32495">
        <ele>49.8</ele>
        <time>2023-04-06T13:24:40Z</time>
      </trkpt>
      <trkpt lat="49.86221" lon="2.32495">
        <ele>49.9</ele>
        <time>2023-04-06T13:24:41Z</time>
      </trkpt>
      <trkpt lat="49.86223" lon="2.32494">
        <ele>50</ele>
        <time>2023-04-06T13:24:42Z</time>
      </trkpt>
      <trkpt lat="49.86224" lon="2.32494">
        <ele>50</ele>
        <time>2023-04-06T13:24:43Z</time>
      </trkpt>
      <trkpt lat="49.86225" lon="2.32494">
        <ele>50.1</ele>
        <time>2023-04-06T13:24:45Z</time>
      </trkpt>
      <trkpt lat="49.86226" lon="2.32493">
        <ele>50.2</ele>
        <time>2023-04-06T13:24:46Z</time>
      </trkpt>
      <trkpt lat="49.86228" lon="2.32493">
        <ele>50.3</ele>
        <time>2023-04-06T13:24:47Z</time>
      </trkpt>
      <trkpt lat="49.86229" lon="2.32492">
        <ele>50.3</ele>
        <time>2023-04-06T13:24:48Z</time>
      </trkpt>
      <trkpt lat="49.8623" lon="2.32492">
        <ele>50.4</ele>
        <time>2023-04-06T13:24:49Z</time>
      </trkpt>
      <trkpt lat="49.86231" lon="2.32492">
        <ele>50.4</ele>
        <time>2023-04-06T13:24:50Z</time>
      </trkpt>
      <trkpt lat="49.86233" lon="2.32492">
        <ele>50.6</ele>
        <time>2023-04-06T13:24:51Z</time>
      </trkpt>
      <trkpt lat="49.86234" lon="2.32492">
        <ele>50.6</ele>
        <time>2023-04-06T13:24:53Z</time>
      </trkpt>
      <trkpt lat="49.86234" lon="2.32492">
        <ele>50.7</ele>
        <time>2023-04-06T13:24:54Z</time>
      </trkpt>
      <trkpt lat="49.86237" lon="2.32491">
        <ele>50.8</ele>
        <time>2023-04-06T13:24:55Z</time>
      </trkpt>
      <trkpt lat="49.86237" lon="2.32491">
        <ele>50.8</ele>
        <time>2023-04-06T13:24:56Z</time>
      </trkpt>
      <trkpt lat="49.86238" lon="2.32491">
        <ele>50.9</ele>
        <time>2023-04-06T13:24:57Z</time>
      </trkpt>
      <trkpt lat="49.8624" lon="2.3249">
        <ele>51</ele>
        <time>2023-04-06T13:24:59Z</time>
      </trkpt>
      <trkpt lat="49.86241" lon="2.3249">
        <ele>51</ele>
        <time>2023-04-06T13:25:00Z</time>
      </trkpt>
      <trkpt lat="49.86242" lon="2.3249">
        <ele>51.1</ele>
        <time>2023-04-06T13:25:01Z</time>
      </trkpt>
      <trkpt lat="49.86244" lon="2.32489">
        <ele>51.2</ele>
        <time>2023-04-06T13:25:02Z</time>
      </trkpt>
      <trkpt lat="49.86244" lon="2.32489">
        <ele>51.2</ele>
        <time>2023-04-06T13:25:03Z</time>
      </trkpt>
      <trkpt lat="49.86245" lon="2.32488">
        <ele>51.3</ele>
        <time>2023-04-06T13:25:04Z</time>
      </trkpt>
      <trkpt lat="49.86246" lon="2.32488">
        <ele>51.4</ele>
        <time>2023-04-06T13:25:05Z</time>
      </trkpt>
      <trkpt lat="49.86247" lon="2.32487">
        <ele>51.4</ele>
        <time>2023-04-06T13:25:06Z</time>
      </trkpt>
      <trkpt lat="49.86248" lon="2.32487">
        <ele>51.5</ele>
        <time>2023-04-06T13:25:08Z</time>
      </trkpt>
      <trkpt lat="49.86249" lon="2.32486">
        <ele>51.6</ele>
        <time>2023-04-06T13:25:09Z</time>
      </trkpt>
      <trkpt lat="49.86251" lon="2.32486">
        <ele>51.7</ele>
        <time>2023-04-06T13:25:10Z</time>
      </trkpt>
      <trkpt lat="49.86252" lon="2.32486">
        <ele>51.7</ele>
        <time>2023-04-06T13:25:11Z</time>
      </trkpt>
      <trkpt lat="49.86253" lon="2.32485">
        <ele>51.8</ele>
        <time>2023-04-06T13:25:12Z</time>
      </trkpt>
      <trkpt lat="49.86254" lon="2.32484">
        <ele>51.9</ele>
        <time>2023-04-06T13:25:13Z</time>
      </trkpt>
      <trkpt lat="49.86255" lon="2.32484">
        <ele>51.9</ele>
        <time>2023-04-06T13:25:15Z</time>
      </trkpt>
      <trkpt lat="49.86257" lon="2.32484">
        <ele>52</ele>
        <time>2023-04-06T13:25:16Z</time>
      </trkpt>
      <trkpt lat="49.86258" lon="2.32483">
        <ele>52.1</ele>
        <time>2023-04-06T13:25:17Z</time>
      </trkpt>
      <trkpt lat="49.86261" lon="2.32482">
        <ele>52.3</ele>
        <time>2023-04-06T13:25:18Z</time>
      </trkpt>
      <trkpt lat="49.86262" lon="2.32482">
        <ele>52.4</ele>
        <time>2023-04-06T13:25:19Z</time>
      </trkpt>
      <trkpt lat="49.86264" lon="2.32481">
        <ele>52.5</ele>
        <time>2023-04-06T13:25:20Z</time>
      </trkpt>
      <trkpt lat="49.86266" lon="2.3248">
        <ele>52.6</ele>
        <time>2023-04-06T13:25:22Z</time>
      </trkpt>
      <trkpt lat="49.86268" lon="2.32479">
        <ele>52.8</ele>
        <time>2023-04-06T13:25:23Z</time>
      </trkpt>
      <trkpt lat="49.86269" lon="2.32478">
        <ele>52.8</ele>
        <time>2023-04-06T13:25:24Z</time>
      </trkpt>
      <trkpt lat="49.8627" lon="2.32478">
        <ele>52.9</ele>
        <time>2023-04-06T13:25:25Z</time>
      </trkpt>
      <trkpt lat="49.8627" lon="2.32477">
        <ele>52.9</ele>
        <time>2023-04-06T13:25:26Z</time>
      </trkpt>
      <trkpt lat="49.86271" lon="2.32477">
        <ele>52.9</ele>
        <time>2023-04-06T13:25:27Z</time>
      </trkpt>
      <trkpt lat="49.86271" lon="2.32476">
        <ele>53</ele>
        <time>2023-04-06T13:25:28Z</time>
      </trkpt>
      <trkpt lat="49.86272" lon="2.32476">
        <ele>53</ele>
        <time>2023-04-06T13:25:30Z</time>
      </trkpt>
      <trkpt lat="49.86274" lon="2.32475">
        <ele>53.1</ele>
        <time>2023-04-06T13:25:31Z</time>
      </trkpt>
      <trkpt lat="49.86275" lon="2.32475">
        <ele>53.2</ele>
        <time>2023-04-06T13:25:32Z</time>
      </trkpt>
      <trkpt lat="49.86277" lon="2.32474">
        <ele>53.3</ele>
        <time>2023-04-06T13:25:33Z</time>
      </trkpt>
      <trkpt lat="49.86278" lon="2.32474">
        <ele>53.4</ele>
        <time>2023-04-06T13:25:35Z</time>
      </trkpt>
      <trkpt lat="49.86279" lon="2.32473">
        <ele>53.4</ele>
        <time>2023-04-06T13:25:36Z</time>
      </trkpt>
      <trkpt lat="49.8628" lon="2.32473">
        <ele>53.5</ele>
        <time>2023-04-06T13:25:37Z</time>
      </trkpt>
      <trkpt lat="49.8628" lon="2.32472">
        <ele>53.5</ele>
        <time>2023-04-06T13:25:38Z</time>
      </trkpt>
      <trkpt lat="49.86281" lon="2.32472">
        <ele>53.6</ele>
        <time>2023-04-06T13:25:39Z</time>
      </trkpt>
      <trkpt lat="49.86282" lon="2.32471">
        <ele>53.6</ele>
        <time>2023-04-06T13:25:40Z</time>
      </trkpt>
      <trkpt lat="49.86284" lon="2.3247">
        <ele>53.8</ele>
        <time>2023-04-06T13:25:42Z</time>
      </trkpt>
      <trkpt lat="49.86285" lon="2.3247">
        <ele>53.8</ele>
        <time>2023-04-06T13:25:43Z</time>
      </trkpt>
      <trkpt lat="49.86285" lon="2.32469">
        <ele>53.9</ele>
        <time>2023-04-06T13:25:44Z</time>
      </trkpt>
      <trkpt lat="49.86287" lon="2.32469">
        <ele>53.9</ele>
        <time>2023-04-06T13:25:45Z</time>
      </trkpt>
      <trkpt lat="49.86288" lon="2.32468">
        <ele>54</ele>
        <time>2023-04-06T13:25:46Z</time>
      </trkpt>
      <trkpt lat="49.86289" lon="2.32467">
        <ele>54.1</ele>
        <time>2023-04-06T13:25:47Z</time>
      </trkpt>
      <trkpt lat="49.8629" lon="2.32467">
        <ele>54.1</ele>
        <time>2023-04-06T13:25:48Z</time>
      </trkpt>
      <trkpt lat="49.86292" lon="2.32466">
        <ele>54.2</ele>
        <time>2023-04-06T13:25:50Z</time>
      </trkpt>
      <trkpt lat="49.86293" lon="2.32465">
        <ele>54.3</ele>
        <time>2023-04-06T13:25:51Z</time>
      </trkpt>
      <trkpt lat="49.86293" lon="2.32464">
        <ele>54.3</ele>
        <time>2023-04-06T13:25:52Z</time>
      </trkpt>
      <trkpt lat="49.86294" lon="2.32464">
        <ele>54.4</ele>
        <time>2023-04-06T13:25:53Z</time>
      </trkpt>
      <trkpt lat="49.86295" lon="2.32464">
        <ele>54.4</ele>
        <time>2023-04-06T13:25:54Z</time>
      </trkpt>
      <trkpt lat="49.86296" lon="2.32464">
        <ele>54.5</ele>
        <time>2023-04-06T13:25:55Z</time>
      </trkpt>
      <trkpt lat="49.86297" lon="2.32464">
        <ele>54.5</ele>
        <time>2023-04-06T13:25:56Z</time>
      </trkpt>
      <trkpt lat="49.86298" lon="2.32464">
        <ele>54.6</ele>
        <time>2023-04-06T13:25:58Z</time>
      </trkpt>
      <trkpt lat="49.86299" lon="2.32463">
        <ele>54.6</ele>
        <time>2023-04-06T13:25:59Z</time>
      </trkpt>
      <trkpt lat="49.863" lon="2.32463">
        <ele>54.7</ele>
        <time>2023-04-06T13:26:00Z</time>
      </trkpt>
      <trkpt lat="49.863" lon="2.32462">
        <ele>54.7</ele>
        <time>2023-04-06T13:26:01Z</time>
      </trkpt>
      <trkpt lat="49.86302" lon="2.3246">
        <ele>54.8</ele>
        <time>2023-04-06T13:26:02Z</time>
      </trkpt>
      <trkpt lat="49.86303" lon="2.3246">
        <ele>54.9</ele>
        <time>2023-04-06T13:26:03Z</time>
      </trkpt>
      <trkpt lat="49.86304" lon="2.32459">
        <ele>54.9</ele>
        <time>2023-04-06T13:26:04Z</time>
      </trkpt>
      <trkpt lat="49.86305" lon="2.32459">
        <ele>55</ele>
        <time>2023-04-06T13:26:05Z</time>
      </trkpt>
      <trkpt lat="49.86305" lon="2.32458">
        <ele>55</ele>
        <time>2023-04-06T13:26:06Z</time>
      </trkpt>
      <trkpt lat="49.86307" lon="2.32457">
        <ele>55.1</ele>
        <time>2023-04-06T13:26:08Z</time>
      </trkpt>
      <trkpt lat="49.86309" lon="2.32456">
        <ele>55.2</ele>
        <time>2023-04-06T13:26:09Z</time>
      </trkpt>
      <trkpt lat="49.8631" lon="2.32455">
        <ele>55.3</ele>
        <time>2023-04-06T13:26:10Z</time>
      </trkpt>
      <trkpt lat="49.86311" lon="2.32455">
        <ele>55.3</ele>
        <time>2023-04-06T13:26:11Z</time>
      </trkpt>
      <trkpt lat="49.86313" lon="2.32454">
        <ele>55.4</ele>
        <time>2023-04-06T13:26:12Z</time>
      </trkpt>
      <trkpt lat="49.86313" lon="2.32453">
        <ele>55.5</ele>
        <time>2023-04-06T13:26:13Z</time>
      </trkpt>
      <trkpt lat="49.86315" lon="2.32453">
        <ele>55.5</ele>
        <time>2023-04-06T13:26:15Z</time>
      </trkpt>
      <trkpt lat="49.86317" lon="2.32452">
        <ele>55.6</ele>
        <time>2023-04-06T13:26:16Z</time>
      </trkpt>
      <trkpt lat="49.86317" lon="2.32451">
        <ele>55.7</ele>
        <time>2023-04-06T13:26:17Z</time>
      </trkpt>
      <trkpt lat="49.86318" lon="2.32451">
        <ele>55.7</ele>
        <time>2023-04-06T13:26:18Z</time>
      </trkpt>
      <trkpt lat="49.86319" lon="2.3245">
        <ele>55.8</ele>
        <time>2023-04-06T13:26:19Z</time>
      </trkpt>
      <trkpt lat="49.86321" lon="2.32449">
        <ele>55.9</ele>
        <time>2023-04-06T13:26:20Z</time>
      </trkpt>
      <trkpt lat="49.86321" lon="2.32449">
        <ele>55.9</ele>
        <time>2023-04-06T13:26:21Z</time>
      </trkpt>
      <trkpt lat="49.86322" lon="2.32449">
        <ele>55.9</ele>
        <time>2023-04-06T13:26:23Z</time>
      </trkpt>
      <trkpt lat="49.86324" lon="2.32448">
        <ele>56</ele>
        <time>2023-04-06T13:26:24Z</time>
      </trkpt>
      <trkpt lat="49.86326" lon="2.32448">
        <ele>56.1</ele>
        <time>2023-04-06T13:26:25Z</time>
      </trkpt>
      <trkpt lat="49.86327" lon="2.32447">
        <ele>56.2</ele>
        <time>2023-04-06T13:26:26Z</time>
      </trkpt>
      <trkpt lat="49.86328" lon="2.32447">
        <ele>56.2</ele>
        <time>2023-04-06T13:26:27Z</time>
      </trkpt>
      <trkpt lat="49.86329" lon="2.32446">
        <ele>56.3</ele>
        <time>2023-04-06T13:26:28Z</time>
      </trkpt>
      <trkpt lat="49.8633" lon="2.32446">
        <ele>56.3</ele>
        <time>2023-04-06T13:26:29Z</time>
      </trkpt>
      <trkpt lat="49.86331" lon="2.32446">
        <ele>56.4</ele>
        <time>2023-04-06T13:26:31Z</time>
      </trkpt>
      <trkpt lat="49.86332" lon="2.32445">
        <ele>56.5</ele>
        <time>2023-04-06T13:26:32Z</time>
      </trkpt>
      <trkpt lat="49.86334" lon="2.32444">
        <ele>56.5</ele>
        <time>2023-04-06T13:26:33Z</time>
      </trkpt>
      <trkpt lat="49.86335" lon="2.32444">
        <ele>56.6</ele>
        <time>2023-04-06T13:26:34Z</time>
      </trkpt>
      <trkpt lat="49.86336" lon="2.32443">
        <ele>56.7</ele>
        <time>2023-04-06T13:26:35Z</time>
      </trkpt>
      <trkpt lat="49.86339" lon="2.32442">
        <ele>56.8</ele>
        <time>2023-04-06T13:26:36Z</time>
      </trkpt>
      <trkpt lat="49.86339" lon="2.32441">
        <ele>56.8</ele>
        <time>2023-04-06T13:26:38Z</time>
      </trkpt>
      <trkpt lat="49.8634" lon="2.32441">
        <ele>56.9</ele>
        <time>2023-04-06T13:26:39Z</time>
      </trkpt>
      <trkpt lat="49.86341" lon="2.3244">
        <ele>56.9</ele>
        <time>2023-04-06T13:26:40Z</time>
      </trkpt>
      <trkpt lat="49.86342" lon="2.32439">
        <ele>57</ele>
        <time>2023-04-06T13:26:41Z</time>
      </trkpt>
      <trkpt lat="49.86344" lon="2.32438">
        <ele>57.1</ele>
        <time>2023-04-06T13:26:42Z</time>
      </trkpt>
      <trkpt lat="49.86345" lon="2.32438">
        <ele>57.1</ele>
        <time>2023-04-06T13:26:43Z</time>
      </trkpt>
      <trkpt lat="49.86346" lon="2.32438">
        <ele>57.2</ele>
        <time>2023-04-06T13:26:44Z</time>
      </trkpt>
      <trkpt lat="49.86348" lon="2.32437">
        <ele>57.3</ele>
        <time>2023-04-06T13:26:46Z</time>
      </trkpt>
      <trkpt lat="49.86349" lon="2.32437">
        <ele>57.4</ele>
        <time>2023-04-06T13:26:47Z</time>
      </trkpt>
      <trkpt lat="49.8635" lon="2.32436">
        <ele>57.4</ele>
        <time>2023-04-06T13:26:48Z</time>
      </trkpt>
      <trkpt lat="49.86351" lon="2.32435">
        <ele>57.5</ele>
        <time>2023-04-06T13:26:49Z</time>
      </trkpt>
      <trkpt lat="49.86352" lon="2.32435">
        <ele>57.5</ele>
        <time>2023-04-06T13:26:50Z</time>
      </trkpt>
      <trkpt lat="49.86353" lon="2.32434">
        <ele>57.6</ele>
        <time>2023-04-06T13:26:51Z</time>
      </trkpt>
      <trkpt lat="49.86355" lon="2.32434">
        <ele>57.7</ele>
        <time>2023-04-06T13:26:52Z</time>
      </trkpt>
      <trkpt lat="49.86356" lon="2.32433">
        <ele>57.8</ele>
        <time>2023-04-06T13:26:53Z</time>
      </trkpt>
      <trkpt lat="49.86357" lon="2.32433">
        <ele>57.8</ele>
        <time>2023-04-06T13:26:55Z</time>
      </trkpt>
      <trkpt lat="49.86358" lon="2.32433">
        <ele>57.8</ele>
        <time>2023-04-06T13:26:56Z</time>
      </trkpt>
      <trkpt lat="49.86359" lon="2.32432">
        <ele>57.9</ele>
        <time>2023-04-06T13:26:57Z</time>
      </trkpt>
      <trkpt lat="49.8636" lon="2.32432">
        <ele>57.9</ele>
        <time>2023-04-06T13:26:58Z</time>
      </trkpt>
      <trkpt lat="49.86361" lon="2.32431">
        <ele>58</ele>
        <time>2023-04-06T13:26:59Z</time>
      </trkpt>
      <trkpt lat="49.86362" lon="2.3243">
        <ele>58.1</ele>
        <time>2023-04-06T13:27:00Z</time>
      </trkpt>
      <trkpt lat="49.86363" lon="2.3243">
        <ele>58.1</ele>
        <time>2023-04-06T13:27:02Z</time>
      </trkpt>
      <trkpt lat="49.86364" lon="2.32429">
        <ele>58.2</ele>
        <time>2023-04-06T13:27:03Z</time>
      </trkpt>
      <trkpt lat="49.86365" lon="2.32429">
        <ele>58.2</ele>
        <time>2023-04-06T13:27:04Z</time>
      </trkpt>
      <trkpt lat="49.86366" lon="2.32428">
        <ele>58.3</ele>
        <time>2023-04-06T13:27:05Z</time>
      </trkpt>
      <trkpt lat="49.86368" lon="2.32427">
        <ele>58.4</ele>
        <time>2023-04-06T13:27:06Z</time>
      </trkpt>
      <trkpt lat="49.86369" lon="2.32427">
        <ele>58.4</ele>
        <time>2023-04-06T13:27:07Z</time>
      </trkpt>
      <trkpt lat="49.86369" lon="2.32426">
        <ele>58.4</ele>
        <time>2023-04-06T13:27:08Z</time>
      </trkpt>
      <trkpt lat="49.8637" lon="2.32426">
        <ele>58.5</ele>
        <time>2023-04-06T13:27:09Z</time>
      </trkpt>
      <trkpt lat="49.86371" lon="2.32426">
        <ele>58.5</ele>
        <time>2023-04-06T13:27:11Z</time>
      </trkpt>
      <trkpt lat="49.86372" lon="2.32425">
        <ele>58.6</ele>
        <time>2023-04-06T13:27:12Z</time>
      </trkpt>
      <trkpt lat="49.86375" lon="2.32424">
        <ele>58.7</ele>
        <time>2023-04-06T13:27:13Z</time>
      </trkpt>
      <trkpt lat="49.86375" lon="2.32424">
        <ele>58.7</ele>
        <time>2023-04-06T13:27:14Z</time>
      </trkpt>
      <trkpt lat="49.86376" lon="2.32424">
        <ele>58.8</ele>
        <time>2023-04-06T13:27:15Z</time>
      </trkpt>
      <trkpt lat="49.86378" lon="2.32423">
        <ele>58.9</ele>
        <time>2023-04-06T13:27:16Z</time>
      </trkpt>
      <trkpt lat="49.86379" lon="2.32423">
        <ele>58.9</ele>
        <time>2023-04-06T13:27:18Z</time>
      </trkpt>
      <trkpt lat="49.8638" lon="2.32422">
        <ele>59</ele>
        <time>2023-04-06T13:27:19Z</time>
      </trkpt>
      <trkpt lat="49.86382" lon="2.32422">
        <ele>59.1</ele>
        <time>2023-04-06T13:27:20Z</time>
      </trkpt>
      <trkpt lat="49.86383" lon="2.32421">
        <ele>59.1</ele>
        <time>2023-04-06T13:27:21Z</time>
      </trkpt>
      <trkpt lat="49.86383" lon="2.32421">
        <ele>59.2</ele>
        <time>2023-04-06T13:27:22Z</time>
      </trkpt>
      <trkpt lat="49.86385" lon="2.32421">
        <ele>59.3</ele>
        <time>2023-04-06T13:27:23Z</time>
      </trkpt>
      <trkpt lat="49.86385" lon="2.32421">
        <ele>59.3</ele>
        <time>2023-04-06T13:27:25Z</time>
      </trkpt>
      <trkpt lat="49.86387" lon="2.3242">
        <ele>59.4</ele>
        <time>2023-04-06T13:27:26Z</time>
      </trkpt>
      <trkpt lat="49.86388" lon="2.3242">
        <ele>59.4</ele>
        <time>2023-04-06T13:27:27Z</time>
      </trkpt>
      <trkpt lat="49.8639" lon="2.32419">
        <ele>59.5</ele>
        <time>2023-04-06T13:27:28Z</time>
      </trkpt>
      <trkpt lat="49.8639" lon="2.32418">
        <ele>59.6</ele>
        <time>2023-04-06T13:27:29Z</time>
      </trkpt>
      <trkpt lat="49.86391" lon="2.32418">
        <ele>59.6</ele>
        <time>2023-04-06T13:27:30Z</time>
      </trkpt>
      <trkpt lat="49.86392" lon="2.32417">
        <ele>59.7</ele>
        <time>2023-04-06T13:27:31Z</time>
      </trkpt>
      <trkpt lat="49.86394" lon="2.32416">
        <ele>59.8</ele>
        <time>2023-04-06T13:27:33Z</time>
      </trkpt>
      <trkpt lat="49.86395" lon="2.32416">
        <ele>59.8</ele>
        <time>2023-04-06T13:27:34Z</time>
      </trkpt>
      <trkpt lat="49.86396" lon="2.32415">
        <ele>59.9</ele>
        <time>2023-04-06T13:27:35Z</time>
      </trkpt>
      <trkpt lat="49.86398" lon="2.32415">
        <ele>60</ele>
        <time>2023-04-06T13:27:36Z</time>
      </trkpt>
      <trkpt lat="49.86399" lon="2.32414">
        <ele>60</ele>
        <time>2023-04-06T13:27:37Z</time>
      </trkpt>
      <trkpt lat="49.86401" lon="2.32414">
        <ele>60.1</ele>
        <time>2023-04-06T13:27:39Z</time>
      </trkpt>
      <trkpt lat="49.86402" lon="2.32413">
        <ele>60.2</ele>
        <time>2023-04-06T13:27:40Z</time>
      </trkpt>
      <trkpt lat="49.86403" lon="2.32413">
        <ele>60.2</ele>
        <time>2023-04-06T13:27:41Z</time>
      </trkpt>
      <trkpt lat="49.86405" lon="2.32412">
        <ele>60.3</ele>
        <time>2023-04-06T13:27:42Z</time>
      </trkpt>
      <trkpt lat="49.86407" lon="2.32412">
        <ele>60.4</ele>
        <time>2023-04-06T13:27:43Z</time>
      </trkpt>
      <trkpt lat="49.86408" lon="2.32412">
        <ele>60.4</ele>
        <time>2023-04-06T13:27:44Z</time>
      </trkpt>
      <trkpt lat="49.8641" lon="2.32411">
        <ele>60.5</ele>
        <time>2023-04-06T13:27:45Z</time>
      </trkpt>
      <trkpt lat="49.86411" lon="2.3241">
        <ele>60.5</ele>
        <time>2023-04-06T13:27:46Z</time>
      </trkpt>
      <trkpt lat="49.86411" lon="2.3241">
        <ele>60.5</ele>
        <time>2023-04-06T13:27:47Z</time>
      </trkpt>
      <trkpt lat="49.86413" lon="2.32409">
        <ele>60.6</ele>
        <time>2023-04-06T13:27:49Z</time>
      </trkpt>
      <trkpt lat="49.86414" lon="2.32408">
        <ele>60.6</ele>
        <time>2023-04-06T13:27:50Z</time>
      </trkpt>
      <trkpt lat="49.86415" lon="2.32407">
        <ele>60.7</ele>
        <time>2023-04-06T13:27:51Z</time>
      </trkpt>
      <trkpt lat="49.86416" lon="2.32406">
        <ele>60.7</ele>
        <time>2023-04-06T13:27:52Z</time>
      </trkpt>
      <trkpt lat="49.86417" lon="2.32405">
        <ele>60.8</ele>
        <time>2023-04-06T13:27:53Z</time>
      </trkpt>
      <trkpt lat="49.86419" lon="2.32404">
        <ele>60.8</ele>
        <time>2023-04-06T13:27:54Z</time>
      </trkpt>
      <trkpt lat="49.8642" lon="2.32403">
        <ele>60.9</ele>
        <time>2023-04-06T13:27:55Z</time>
      </trkpt>
      <trkpt lat="49.86421" lon="2.32403">
        <ele>60.9</ele>
        <time>2023-04-06T13:27:57Z</time>
      </trkpt>
      <trkpt lat="49.86423" lon="2.32402">
        <ele>61</ele>
        <time>2023-04-06T13:27:58Z</time>
      </trkpt>
      <trkpt lat="49.86426" lon="2.32399">
        <ele>61.1</ele>
        <time>2023-04-06T13:27:59Z</time>
      </trkpt>
      <trkpt lat="49.86427" lon="2.32398">
        <ele>61.1</ele>
        <time>2023-04-06T13:28:00Z</time>
      </trkpt>
      <trkpt lat="49.86427" lon="2.32398">
        <ele>61.1</ele>
        <time>2023-04-06T13:28:01Z</time>
      </trkpt>
      <trkpt lat="49.86428" lon="2.32397">
        <ele>61.2</ele>
        <time>2023-04-06T13:28:02Z</time>
      </trkpt>
      <trkpt lat="49.8643" lon="2.32396">
        <ele>61.2</ele>
        <time>2023-04-06T13:28:03Z</time>
      </trkpt>
      <trkpt lat="49.86432" lon="2.32394">
        <ele>61.3</ele>
        <time>2023-04-06T13:28:05Z</time>
      </trkpt>
      <trkpt lat="49.86433" lon="2.32394">
        <ele>61.4</ele>
        <time>2023-04-06T13:28:06Z</time>
      </trkpt>
      <trkpt lat="49.86435" lon="2.32392">
        <ele>61.5</ele>
        <time>2023-04-06T13:28:07Z</time>
      </trkpt>
      <trkpt lat="49.86436" lon="2.32391">
        <ele>61.5</ele>
        <time>2023-04-06T13:28:08Z</time>
      </trkpt>
      <trkpt lat="49.86438" lon="2.3239">
        <ele>61.6</ele>
        <time>2023-04-06T13:28:09Z</time>
      </trkpt>
      <trkpt lat="49.86439" lon="2.32389">
        <ele>61.6</ele>
        <time>2023-04-06T13:28:10Z</time>
      </trkpt>
      <trkpt lat="49.86441" lon="2.32389">
        <ele>61.7</ele>
        <time>2023-04-06T13:28:11Z</time>
      </trkpt>
      <trkpt lat="49.86442" lon="2.32388">
        <ele>61.7</ele>
        <time>2023-04-06T13:28:13Z</time>
      </trkpt>
      <trkpt lat="49.86442" lon="2.32387">
        <ele>61.8</ele>
        <time>2023-04-06T13:28:14Z</time>
      </trkpt>
      <trkpt lat="49.86443" lon="2.32386">
        <ele>61.8</ele>
        <time>2023-04-06T13:28:15Z</time>
      </trkpt>
      <trkpt lat="49.86444" lon="2.32385">
        <ele>61.9</ele>
        <time>2023-04-06T13:28:16Z</time>
      </trkpt>
      <trkpt lat="49.86445" lon="2.32384">
        <ele>61.9</ele>
        <time>2023-04-06T13:28:17Z</time>
      </trkpt>
      <trkpt lat="49.86446" lon="2.32383">
        <ele>62</ele>
        <time>2023-04-06T13:28:18Z</time>
      </trkpt>
      <trkpt lat="49.86447" lon="2.32383">
        <ele>62</ele>
        <time>2023-04-06T13:28:19Z</time>
      </trkpt>
      <trkpt lat="49.86448" lon="2.32382">
        <ele>62</ele>
        <time>2023-04-06T13:28:20Z</time>
      </trkpt>
      <trkpt lat="49.86448" lon="2.32382">
        <ele>62.1</ele>
        <time>2023-04-06T13:28:22Z</time>
      </trkpt>
      <trkpt lat="49.86449" lon="2.32381">
        <ele>62.1</ele>
        <time>2023-04-06T13:28:23Z</time>
      </trkpt>
      <trkpt lat="49.8645" lon="2.3238">
        <ele>62.1</ele>
        <time>2023-04-06T13:28:24Z</time>
      </trkpt>
      <trkpt lat="49.86452" lon="2.32378">
        <ele>62.2</ele>
        <time>2023-04-06T13:28:25Z</time>
      </trkpt>
      <trkpt lat="49.86453" lon="2.32378">
        <ele>62.3</ele>
        <time>2023-04-06T13:28:26Z</time>
      </trkpt>
      <trkpt lat="49.86454" lon="2.32377">
        <ele>62.3</ele>
        <time>2023-04-06T13:28:27Z</time>
      </trkpt>
      <trkpt lat="49.86455" lon="2.32376">
        <ele>62.4</ele>
        <time>2023-04-06T13:28:28Z</time>
      </trkpt>
      <trkpt lat="49.86456" lon="2.32375">
        <ele>62.4</ele>
        <time>2023-04-06T13:28:30Z</time>
      </trkpt>
      <trkpt lat="49.86457" lon="2.32374">
        <ele>62.4</ele>
        <time>2023-04-06T13:28:31Z</time>
      </trkpt>
      <trkpt lat="49.86458" lon="2.32373">
        <ele>62.5</ele>
        <time>2023-04-06T13:28:32Z</time>
      </trkpt>
      <trkpt lat="49.86459" lon="2.32372">
        <ele>62.6</ele>
        <time>2023-04-06T13:28:33Z</time>
      </trkpt>
      <trkpt lat="49.86461" lon="2.32371">
        <ele>62.6</ele>
        <time>2023-04-06T13:28:34Z</time>
      </trkpt>
      <trkpt lat="49.86462" lon="2.3237">
        <ele>62.7</ele>
        <time>2023-04-06T13:28:35Z</time>
      </trkpt>
      <trkpt lat="49.86463" lon="2.32369">
        <ele>62.7</ele>
        <time>2023-04-06T13:28:36Z</time>
      </trkpt>
      <trkpt lat="49.86464" lon="2.32369">
        <ele>62.8</ele>
        <time>2023-04-06T13:28:37Z</time>
      </trkpt>
      <trkpt lat="49.86465" lon="2.32368">
        <ele>62.8</ele>
        <time>2023-04-06T13:28:39Z</time>
      </trkpt>
      <trkpt lat="49.86466" lon="2.32367">
        <ele>62.9</ele>
        <time>2023-04-06T13:28:40Z</time>
      </trkpt>
      <trkpt lat="49.86467" lon="2.32367">
        <ele>62.9</ele>
        <time>2023-04-06T13:28:41Z</time>
      </trkpt>
      <trkpt lat="49.86468" lon="2.32366">
        <ele>63</ele>
        <time>2023-04-06T13:28:42Z</time>
      </trkpt>
      <trkpt lat="49.86468" lon="2.32365">
        <ele>63</ele>
        <time>2023-04-06T13:28:43Z</time>
      </trkpt>
      <trkpt lat="49.8647" lon="2.32364">
        <ele>63.1</ele>
        <time>2023-04-06T13:28:44Z</time>
      </trkpt>
      <trkpt lat="49.8647" lon="2.32364">
        <ele>63.1</ele>
        <time>2023-04-06T13:28:45Z</time>
      </trkpt>
      <trkpt lat="49.86472" lon="2.32363">
        <ele>63.2</ele>
        <time>2023-04-06T13:28:47Z</time>
      </trkpt>
      <trkpt lat="49.86473" lon="2.32363">
        <ele>63.3</ele>
        <time>2023-04-06T13:28:48Z</time>
      </trkpt>
      <trkpt lat="49.86474" lon="2.32363">
        <ele>63.3</ele>
        <time>2023-04-06T13:28:49Z</time>
      </trkpt>
      <trkpt lat="49.86475" lon="2.32362">
        <ele>63.4</ele>
        <time>2023-04-06T13:28:50Z</time>
      </trkpt>
      <trkpt lat="49.86476" lon="2.32362">
        <ele>63.4</ele>
        <time>2023-04-06T13:28:51Z</time>
      </trkpt>
      <trkpt lat="49.86478" lon="2.32361">
        <ele>63.5</ele>
        <time>2023-04-06T13:28:52Z</time>
      </trkpt>
      <trkpt lat="49.8648" lon="2.3236">
        <ele>63.6</ele>
        <time>2023-04-06T13:28:53Z</time>
      </trkpt>
      <trkpt lat="49.86481" lon="2.3236">
        <ele>63.7</ele>
        <time>2023-04-06T13:28:55Z</time>
      </trkpt>
      <trkpt lat="49.86483" lon="2.3236">
        <ele>63.7</ele>
        <time>2023-04-06T13:28:56Z</time>
      </trkpt>
      <trkpt lat="49.86484" lon="2.32359">
        <ele>63.8</ele>
        <time>2023-04-06T13:28:57Z</time>
      </trkpt>
      <trkpt lat="49.86485" lon="2.32359">
        <ele>63.8</ele>
        <time>2023-04-06T13:28:58Z</time>
      </trkpt>
      <trkpt lat="49.86487" lon="2.32358">
        <ele>63.9</ele>
        <time>2023-04-06T13:28:59Z</time>
      </trkpt>
      <trkpt lat="49.86488" lon="2.32358">
        <ele>64</ele>
        <time>2023-04-06T13:29:00Z</time>
      </trkpt>
      <trkpt lat="49.8649" lon="2.32357">
        <ele>64</ele>
        <time>2023-04-06T13:29:01Z</time>
      </trkpt>
      <trkpt lat="49.86491" lon="2.32356">
        <ele>64.1</ele>
        <time>2023-04-06T13:29:02Z</time>
      </trkpt>
      <trkpt lat="49.86492" lon="2.32356">
        <ele>64.1</ele>
        <time>2023-04-06T13:29:04Z</time>
      </trkpt>
      <trkpt lat="49.86493" lon="2.32355">
        <ele>64.2</ele>
        <time>2023-04-06T13:29:05Z</time>
      </trkpt>
      <trkpt lat="49.86494" lon="2.32355">
        <ele>64.2</ele>
        <time>2023-04-06T13:29:06Z</time>
      </trkpt>
      <trkpt lat="49.86495" lon="2.32354">
        <ele>64.3</ele>
        <time>2023-04-06T13:29:07Z</time>
      </trkpt>
      <trkpt lat="49.86496" lon="2.32354">
        <ele>64.3</ele>
        <time>2023-04-06T13:29:08Z</time>
      </trkpt>
      <trkpt lat="49.86497" lon="2.32353">
        <ele>64.4</ele>
        <time>2023-04-06T13:29:09Z</time>
      </trkpt>
      <trkpt lat="49.86498" lon="2.32353">
        <ele>64.4</ele>
        <time>2023-04-06T13:29:10Z</time>
      </trkpt>
      <trkpt lat="49.86499" lon="2.32353">
        <ele>64.5</ele>
        <time>2023-04-06T13:29:11Z</time>
      </trkpt>
      <trkpt lat="49.86501" lon="2.32352">
        <ele>64.5</ele>
        <time>2023-04-06T13:29:12Z</time>
      </trkpt>
      <trkpt lat="49.86504" lon="2.32352">
        <ele>64.6</ele>
        <time>2023-04-06T13:29:14Z</time>
      </trkpt>
      <trkpt lat="49.86505" lon="2.32351">
        <ele>64.7</ele>
        <time>2023-04-06T13:29:15Z</time>
      </trkpt>
      <trkpt lat="49.86508" lon="2.3235">
        <ele>64.8</ele>
        <time>2023-04-06T13:29:16Z</time>
      </trkpt>
      <trkpt lat="49.86509" lon="2.3235">
        <ele>64.8</ele>
        <time>2023-04-06T13:29:17Z</time>
      </trkpt>
      <trkpt lat="49.86512" lon="2.32349">
        <ele>64.9</ele>
        <time>2023-04-06T13:29:18Z</time>
      </trkpt>
      <trkpt lat="49.86513" lon="2.32349">
        <ele>65</ele>
        <time>2023-04-06T13:29:19Z</time>
      </trkpt>
      <trkpt lat="49.86516" lon="2.32348">
        <ele>65.1</ele>
        <time>2023-04-06T13:29:20Z</time>
      </trkpt>
      <trkpt lat="49.86517" lon="2.32348">
        <ele>65.1</ele>
        <time>2023-04-06T13:29:21Z</time>
      </trkpt>
      <trkpt lat="49.86518" lon="2.32347">
        <ele>65.1</ele>
        <time>2023-04-06T13:29:22Z</time>
      </trkpt>
      <trkpt lat="49.86519" lon="2.32347">
        <ele>65.2</ele>
        <time>2023-04-06T13:29:24Z</time>
      </trkpt>
      <trkpt lat="49.86521" lon="2.32346">
        <ele>65.2</ele>
        <time>2023-04-06T13:29:25Z</time>
      </trkpt>
      <trkpt lat="49.86522" lon="2.32346">
        <ele>65.3</ele>
        <time>2023-04-06T13:29:26Z</time>
      </trkpt>
      <trkpt lat="49.86522" lon="2.32346">
        <ele>65.3</ele>
        <time>2023-04-06T13:29:27Z</time>
      </trkpt>
      <trkpt lat="49.86524" lon="2.32345">
        <ele>65.3</ele>
        <time>2023-04-06T13:29:28Z</time>
      </trkpt>
      <trkpt lat="49.86524" lon="2.32345">
        <ele>65.3</ele>
        <time>2023-04-06T13:29:29Z</time>
      </trkpt>
      <trkpt lat="49.86526" lon="2.32345">
        <ele>65.4</ele>
        <time>2023-04-06T13:29:30Z</time>
      </trkpt>
      <trkpt lat="49.86527" lon="2.32344">
        <ele>65.4</ele>
        <time>2023-04-06T13:29:32Z</time>
      </trkpt>
      <trkpt lat="49.86529" lon="2.32344">
        <ele>65.5</ele>
        <time>2023-04-06T13:29:33Z</time>
      </trkpt>
      <trkpt lat="49.8653" lon="2.32343">
        <ele>65.5</ele>
        <time>2023-04-06T13:29:34Z</time>
      </trkpt>
      <trkpt lat="49.86532" lon="2.32343">
        <ele>65.6</ele>
        <time>2023-04-06T13:29:35Z</time>
      </trkpt>
      <trkpt lat="49.86533" lon="2.32342">
        <ele>65.6</ele>
        <time>2023-04-06T13:29:36Z</time>
      </trkpt>
      <trkpt lat="49.86534" lon="2.32342">
        <ele>65.7</ele>
        <time>2023-04-06T13:29:37Z</time>
      </trkpt>
      <trkpt lat="49.86535" lon="2.32341">
        <ele>65.7</ele>
        <time>2023-04-06T13:29:38Z</time>
      </trkpt>
      <trkpt lat="49.86537" lon="2.32341">
        <ele>65.8</ele>
        <time>2023-04-06T13:29:39Z</time>
      </trkpt>
      <trkpt lat="49.86539" lon="2.32341">
        <ele>65.8</ele>
        <time>2023-04-06T13:29:41Z</time>
      </trkpt>
      <trkpt lat="49.8654" lon="2.32341">
        <ele>65.8</ele>
        <time>2023-04-06T13:29:42Z</time>
      </trkpt>
      <trkpt lat="49.86541" lon="2.3234">
        <ele>65.8</ele>
        <time>2023-04-06T13:29:43Z</time>
      </trkpt>
      <trkpt lat="49.86542" lon="2.3234">
        <ele>65.9</ele>
        <time>2023-04-06T13:29:44Z</time>
      </trkpt>
      <trkpt lat="49.86543" lon="2.3234">
        <ele>65.9</ele>
        <time>2023-04-06T13:29:45Z</time>
      </trkpt>
      <trkpt lat="49.86544" lon="2.3234">
        <ele>65.9</ele>
        <time>2023-04-06T13:29:46Z</time>
      </trkpt>
      <trkpt lat="49.86545" lon="2.32339">
        <ele>66</ele>
        <time>2023-04-06T13:29:47Z</time>
      </trkpt>
      <trkpt lat="49.86546" lon="2.32338">
        <ele>66</ele>
        <time>2023-04-06T13:29:48Z</time>
      </trkpt>
      <trkpt lat="49.86547" lon="2.32338">
        <ele>66</ele>
        <time>2023-04-06T13:29:50Z</time>
      </trkpt>
      <trkpt lat="49.86548" lon="2.32337">
        <ele>66</ele>
        <time>2023-04-06T13:29:51Z</time>
      </trkpt>
      <trkpt lat="49.86548" lon="2.32337">
        <ele>66</ele>
        <time>2023-04-06T13:29:52Z</time>
      </trkpt>
      <trkpt lat="49.8655" lon="2.32336">
        <ele>66.1</ele>
        <time>2023-04-06T13:29:53Z</time>
      </trkpt>
      <trkpt lat="49.86552" lon="2.32336">
        <ele>66.1</ele>
        <time>2023-04-06T13:29:54Z</time>
      </trkpt>
      <trkpt lat="49.86552" lon="2.32336">
        <ele>66.1</ele>
        <time>2023-04-06T13:29:55Z</time>
      </trkpt>
      <trkpt lat="49.86553" lon="2.32336">
        <ele>66.2</ele>
        <time>2023-04-06T13:29:56Z</time>
      </trkpt>
      <trkpt lat="49.86554" lon="2.32336">
        <ele>66.2</ele>
        <time>2023-04-06T13:29:57Z</time>
      </trkpt>
      <trkpt lat="49.86555" lon="2.32335">
        <ele>66.2</ele>
        <time>2023-04-06T13:29:58Z</time>
      </trkpt>
      <trkpt lat="49.86557" lon="2.32335">
        <ele>66.2</ele>
        <time>2023-04-06T13:29:59Z</time>
      </trkpt>
      <trkpt lat="49.86558" lon="2.32334">
        <ele>66.2</ele>
        <time>2023-04-06T13:30:00Z</time>
      </trkpt>
      <trkpt lat="49.86558" lon="2.32334">
        <ele>66.3</ele>
        <time>2023-04-06T13:30:02Z</time>
      </trkpt>
      <trkpt lat="49.86559" lon="2.32333">
        <ele>66.3</ele>
        <time>2023-04-06T13:30:03Z</time>
      </trkpt>
      <trkpt lat="49.8656" lon="2.32333">
        <ele>66.3</ele>
        <time>2023-04-06T13:30:04Z</time>
      </trkpt>
      <trkpt lat="49.86561" lon="2.32333">
        <ele>66.3</ele>
        <time>2023-04-06T13:30:05Z</time>
      </trkpt>
      <trkpt lat="49.86562" lon="2.32333">
        <ele>66.3</ele>
        <time>2023-04-06T13:30:06Z</time>
      </trkpt>
      <trkpt lat="49.86564" lon="2.32334">
        <ele>66.4</ele>
        <time>2023-04-06T13:30:07Z</time>
      </trkpt>
      <trkpt lat="49.86565" lon="2.32334">
        <ele>66.4</ele>
        <time>2023-04-06T13:30:09Z</time>
      </trkpt>
      <trkpt lat="49.86566" lon="2.32334">
        <ele>66.4</ele>
        <time>2023-04-06T13:30:10Z</time>
      </trkpt>
      <trkpt lat="49.86567" lon="2.32334">
        <ele>66.4</ele>
        <time>2023-04-06T13:30:11Z</time>
      </trkpt>
      <trkpt lat="49.86569" lon="2.32334">
        <ele>66.4</ele>
        <time>2023-04-06T13:30:12Z</time>
      </trkpt>
      <trkpt lat="49.8657" lon="2.32334">
        <ele>66.4</ele>
        <time>2023-04-06T13:30:13Z</time>
      </trkpt>
      <trkpt lat="49.86572" lon="2.32334">
        <ele>66.5</ele>
        <time>2023-04-06T13:30:14Z</time>
      </trkpt>
      <trkpt lat="49.86573" lon="2.32334">
        <ele>66.5</ele>
        <time>2023-04-06T13:30:15Z</time>
      </trkpt>
      <trkpt lat="49.86575" lon="2.32334">
        <ele>66.5</ele>
        <time>2023-04-06T13:30:16Z</time>
      </trkpt>
      <trkpt lat="49.86576" lon="2.32334">
        <ele>66.5</ele>
        <time>2023-04-06T13:30:17Z</time>
      </trkpt>
      <trkpt lat="49.86576" lon="2.32334">
        <ele>66.5</ele>
        <time>2023-04-06T13:30:18Z</time>
      </trkpt>
      <trkpt lat="49.86578" lon="2.32333">
        <ele>66.5</ele>
        <time>2023-04-06T13:30:19Z</time>
      </trkpt>
      <trkpt lat="49.86579" lon="2.32333">
        <ele>66.5</ele>
        <time>2023-04-06T13:30:20Z</time>
      </trkpt>
      <trkpt lat="49.86581" lon="2.32332">
        <ele>66.6</ele>
        <time>2023-04-06T13:30:22Z</time>
      </trkpt>
      <trkpt lat="49.86582" lon="2.32332">
        <ele>66.6</ele>
        <time>2023-04-06T13:30:23Z</time>
      </trkpt>
      <trkpt lat="49.86583" lon="2.32331">
        <ele>66.6</ele>
        <time>2023-04-06T13:30:24Z</time>
      </trkpt>
      <trkpt lat="49.86584" lon="2.3233">
        <ele>66.6</ele>
        <time>2023-04-06T13:30:25Z</time>
      </trkpt>
      <trkpt lat="49.86586" lon="2.32329">
        <ele>66.6</ele>
        <time>2023-04-06T13:30:26Z</time>
      </trkpt>
      <trkpt lat="49.86587" lon="2.32329">
        <ele>66.6</ele>
        <time>2023-04-06T13:30:27Z</time>
      </trkpt>
      <trkpt lat="49.86588" lon="2.32328">
        <ele>66.6</ele>
        <time>2023-04-06T13:30:28Z</time>
      </trkpt>
      <trkpt lat="49.8659" lon="2.32327">
        <ele>66.6</ele>
        <time>2023-04-06T13:30:29Z</time>
      </trkpt>
      <trkpt lat="49.86591" lon="2.32326">
        <ele>66.6</ele>
        <time>2023-04-06T13:30:31Z</time>
      </trkpt>
      <trkpt lat="49.86593" lon="2.32326">
        <ele>66.7</ele>
        <time>2023-04-06T13:30:32Z</time>
      </trkpt>
      <trkpt lat="49.86594" lon="2.32326">
        <ele>66.7</ele>
        <time>2023-04-06T13:30:33Z</time>
      </trkpt>
      <trkpt lat="49.86597" lon="2.32325">
        <ele>66.7</ele>
        <time>2023-04-06T13:30:34Z</time>
      </trkpt>
      <trkpt lat="49.86597" lon="2.32325">
        <ele>66.7</ele>
        <time>2023-04-06T13:30:35Z</time>
      </trkpt>
      <trkpt lat="49.86598" lon="2.32325">
        <ele>66.7</ele>
        <time>2023-04-06T13:30:36Z</time>
      </trkpt>
      <trkpt lat="49.866" lon="2.32324">
        <ele>66.7</ele>
        <time>2023-04-06T13:30:37Z</time>
      </trkpt>
      <trkpt lat="49.866" lon="2.32323">
        <ele>66.7</ele>
        <time>2023-04-06T13:30:38Z</time>
      </trkpt>
      <trkpt lat="49.86602" lon="2.32323">
        <ele>66.7</ele>
        <time>2023-04-06T13:30:39Z</time>
      </trkpt>
      <trkpt lat="49.86603" lon="2.32322">
        <ele>66.7</ele>
        <time>2023-04-06T13:30:40Z</time>
      </trkpt>
      <trkpt lat="49.86604" lon="2.32321">
        <ele>66.6</ele>
        <time>2023-04-06T13:30:42Z</time>
      </trkpt>
      <trkpt lat="49.86606" lon="2.3232">
        <ele>66.6</ele>
        <time>2023-04-06T13:30:43Z</time>
      </trkpt>
      <trkpt lat="49.86607" lon="2.3232">
        <ele>66.6</ele>
        <time>2023-04-06T13:30:44Z</time>
      </trkpt>
      <trkpt lat="49.86608" lon="2.32319">
        <ele>66.6</ele>
        <time>2023-04-06T13:30:45Z</time>
      </trkpt>
      <trkpt lat="49.8661" lon="2.32318">
        <ele>66.6</ele>
        <time>2023-04-06T13:30:46Z</time>
      </trkpt>
      <trkpt lat="49.86611" lon="2.32318">
        <ele>66.6</ele>
        <time>2023-04-06T13:30:47Z</time>
      </trkpt>
      <trkpt lat="49.86612" lon="2.32318">
        <ele>66.6</ele>
        <time>2023-04-06T13:30:48Z</time>
      </trkpt>
      <trkpt lat="49.86614" lon="2.32317">
        <ele>66.5</ele>
        <time>2023-04-06T13:30:49Z</time>
      </trkpt>
      <trkpt lat="49.86615" lon="2.32316">
        <ele>66.5</ele>
        <time>2023-04-06T13:30:50Z</time>
      </trkpt>
      <trkpt lat="49.86616" lon="2.32316">
        <ele>66.5</ele>
        <time>2023-04-06T13:30:51Z</time>
      </trkpt>
      <trkpt lat="49.86617" lon="2.32315">
        <ele>66.5</ele>
        <time>2023-04-06T13:30:52Z</time>
      </trkpt>
      <trkpt lat="49.86619" lon="2.32314">
        <ele>66.5</ele>
        <time>2023-04-06T13:30:54Z</time>
      </trkpt>
      <trkpt lat="49.8662" lon="2.32313">
        <ele>66.5</ele>
        <time>2023-04-06T13:30:55Z</time>
      </trkpt>
      <trkpt lat="49.86621" lon="2.32312">
        <ele>66.4</ele>
        <time>2023-04-06T13:30:56Z</time>
      </trkpt>
      <trkpt lat="49.86624" lon="2.32311">
        <ele>66.4</ele>
        <time>2023-04-06T13:30:57Z</time>
      </trkpt>
      <trkpt lat="49.86625" lon="2.3231">
        <ele>66.4</ele>
        <time>2023-04-06T13:30:58Z</time>
      </trkpt>
      <trkpt lat="49.86626" lon="2.3231">
        <ele>66.4</ele>
        <time>2023-04-06T13:30:59Z</time>
      </trkpt>
      <trkpt lat="49.86627" lon="2.3231">
        <ele>66.3</ele>
        <time>2023-04-06T13:31:00Z</time>
      </trkpt>
      <trkpt lat="49.86628" lon="2.32309">
        <ele>66.3</ele>
        <time>2023-04-06T13:31:01Z</time>
      </trkpt>
      <trkpt lat="49.86629" lon="2.32309">
        <ele>66.3</ele>
        <time>2023-04-06T13:31:02Z</time>
      </trkpt>
      <trkpt lat="49.8663" lon="2.32308">
        <ele>66.3</ele>
        <time>2023-04-06T13:31:03Z</time>
      </trkpt>
      <trkpt lat="49.86631" lon="2.32307">
        <ele>66.2</ele>
        <time>2023-04-06T13:31:04Z</time>
      </trkpt>
      <trkpt lat="49.86632" lon="2.32307">
        <ele>66.2</ele>
        <time>2023-04-06T13:31:05Z</time>
      </trkpt>
      <trkpt lat="49.86634" lon="2.32306">
        <ele>66.2</ele>
        <time>2023-04-06T13:31:07Z</time>
      </trkpt>
      <trkpt lat="49.86635" lon="2.32305">
        <ele>66.2</ele>
        <time>2023-04-06T13:31:08Z</time>
      </trkpt>
      <trkpt lat="49.86635" lon="2.32305">
        <ele>66.2</ele>
        <time>2023-04-06T13:31:09Z</time>
      </trkpt>
      <trkpt lat="49.86637" lon="2.32304">
        <ele>66.1</ele>
        <time>2023-04-06T13:31:10Z</time>
      </trkpt>
      <trkpt lat="49.86638" lon="2.32303">
        <ele>66.1</ele>
        <time>2023-04-06T13:31:11Z</time>
      </trkpt>
      <trkpt lat="49.8664" lon="2.32302">
        <ele>66.1</ele>
        <time>2023-04-06T13:31:12Z</time>
      </trkpt>
      <trkpt lat="49.86641" lon="2.32301">
        <ele>66.1</ele>
        <time>2023-04-06T13:31:13Z</time>
      </trkpt>
      <trkpt lat="49.86641" lon="2.32301">
        <ele>66</ele>
        <time>2023-04-06T13:31:14Z</time>
      </trkpt>
      <trkpt lat="49.86643" lon="2.323">
        <ele>66</ele>
        <time>2023-04-06T13:31:16Z</time>
      </trkpt>
      <trkpt lat="49.86644" lon="2.32299">
        <ele>66</ele>
        <time>2023-04-06T13:31:17Z</time>
      </trkpt>
      <trkpt lat="49.86645" lon="2.32299">
        <ele>66</ele>
        <time>2023-04-06T13:31:18Z</time>
      </trkpt>
      <trkpt lat="49.86646" lon="2.32299">
        <ele>65.9</ele>
        <time>2023-04-06T13:31:19Z</time>
      </trkpt>
      <trkpt lat="49.86647" lon="2.32299">
        <ele>65.9</ele>
        <time>2023-04-06T13:31:20Z</time>
      </trkpt>
      <trkpt lat="49.86648" lon="2.32298">
        <ele>65.9</ele>
        <time>2023-04-06T13:31:22Z</time>
      </trkpt>
      <trkpt lat="49.86649" lon="2.32298">
        <ele>65.9</ele>
        <time>2023-04-06T13:31:23Z</time>
      </trkpt>
      <trkpt lat="49.8665" lon="2.32298">
        <ele>65.9</ele>
        <time>2023-04-06T13:31:24Z</time>
      </trkpt>
      <trkpt lat="49.86651" lon="2.32297">
        <ele>65.8</ele>
        <time>2023-04-06T13:31:25Z</time>
      </trkpt>
      <trkpt lat="49.86653" lon="2.32296">
        <ele>65.8</ele>
        <time>2023-04-06T13:31:26Z</time>
      </trkpt>
      <trkpt lat="49.86654" lon="2.32296">
        <ele>65.8</ele>
        <time>2023-04-06T13:31:27Z</time>
      </trkpt>
      <trkpt lat="49.86655" lon="2.32296">
        <ele>65.8</ele>
        <time>2023-04-06T13:31:28Z</time>
      </trkpt>
      <trkpt lat="49.86657" lon="2.32295">
        <ele>65.7</ele>
        <time>2023-04-06T13:31:29Z</time>
      </trkpt>
      <trkpt lat="49.86658" lon="2.32295">
        <ele>65.7</ele>
        <time>2023-04-06T13:31:30Z</time>
      </trkpt>
      <trkpt lat="49.86659" lon="2.32295">
        <ele>65.7</ele>
        <time>2023-04-06T13:31:31Z</time>
      </trkpt>
      <trkpt lat="49.8666" lon="2.32295">
        <ele>65.7</ele>
        <time>2023-04-06T13:31:32Z</time>
      </trkpt>
      <trkpt lat="49.86662" lon="2.32294">
        <ele>65.6</ele>
        <time>2023-04-06T13:31:34Z</time>
      </trkpt>
      <trkpt lat="49.86664" lon="2.32294">
        <ele>65.6</ele>
        <time>2023-04-06T13:31:35Z</time>
      </trkpt>
      <trkpt lat="49.86665" lon="2.32293">
        <ele>65.6</ele>
        <time>2023-04-06T13:31:36Z</time>
      </trkpt>
      <trkpt lat="49.86668" lon="2.32292">
        <ele>65.5</ele>
        <time>2023-04-06T13:31:37Z</time>
      </trkpt>
      <trkpt lat="49.86669" lon="2.32291">
        <ele>65.5</ele>
        <time>2023-04-06T13:31:39Z</time>
      </trkpt>
      <trkpt lat="49.8667" lon="2.32291">
        <ele>65.5</ele>
        <time>2023-04-06T13:31:40Z</time>
      </trkpt>
      <trkpt lat="49.86672" lon="2.3229">
        <ele>65.4</ele>
        <time>2023-04-06T13:31:41Z</time>
      </trkpt>
      <trkpt lat="49.86673" lon="2.3229">
        <ele>65.4</ele>
        <time>2023-04-06T13:31:42Z</time>
      </trkpt>
      <trkpt lat="49.86675" lon="2.32289">
        <ele>65.4</ele>
        <time>2023-04-06T13:31:43Z</time>
      </trkpt>
      <trkpt lat="49.86676" lon="2.32289">
        <ele>65.4</ele>
        <time>2023-04-06T13:31:44Z</time>
      </trkpt>
      <trkpt lat="49.86678" lon="2.32288">
        <ele>65.3</ele>
        <time>2023-04-06T13:31:45Z</time>
      </trkpt>
      <trkpt lat="49.86679" lon="2.32288">
        <ele>65.3</ele>
        <time>2023-04-06T13:31:46Z</time>
      </trkpt>
      <trkpt lat="49.8668" lon="2.32287">
        <ele>65.3</ele>
        <time>2023-04-06T13:31:47Z</time>
      </trkpt>
      <trkpt lat="49.86681" lon="2.32286">
        <ele>65.3</ele>
        <time>2023-04-06T13:31:49Z</time>
      </trkpt>
      <trkpt lat="49.86683" lon="2.32285">
        <ele>65.2</ele>
        <time>2023-04-06T13:31:50Z</time>
      </trkpt>
      <trkpt lat="49.86684" lon="2.32285">
        <ele>65.2</ele>
        <time>2023-04-06T13:31:51Z</time>
      </trkpt>
      <trkpt lat="49.86686" lon="2.32284">
        <ele>65.2</ele>
        <time>2023-04-06T13:31:52Z</time>
      </trkpt>
      <trkpt lat="49.86687" lon="2.32284">
        <ele>65.1</ele>
        <time>2023-04-06T13:31:53Z</time>
      </trkpt>
      <trkpt lat="49.86689" lon="2.32283">
        <ele>65.1</ele>
        <time>2023-04-06T13:31:54Z</time>
      </trkpt>
      <trkpt lat="49.8669" lon="2.32283">
        <ele>65.1</ele>
        <time>2023-04-06T13:31:55Z</time>
      </trkpt>
      <trkpt lat="49.86691" lon="2.32282">
        <ele>65</ele>
        <time>2023-04-06T13:31:56Z</time>
      </trkpt>
      <trkpt lat="49.86693" lon="2.32281">
        <ele>65</ele>
        <time>2023-04-06T13:31:58Z</time>
      </trkpt>
      <trkpt lat="49.86694" lon="2.3228">
        <ele>65</ele>
        <time>2023-04-06T13:31:59Z</time>
      </trkpt>
      <trkpt lat="49.86695" lon="2.3228">
        <ele>64.9</ele>
        <time>2023-04-06T13:32:00Z</time>
      </trkpt>
      <trkpt lat="49.86696" lon="2.3228">
        <ele>64.9</ele>
        <time>2023-04-06T13:32:01Z</time>
      </trkpt>
      <trkpt lat="49.86699" lon="2.3228">
        <ele>64.8</ele>
        <time>2023-04-06T13:32:03Z</time>
      </trkpt>
      <trkpt lat="49.867" lon="2.3228">
        <ele>64.8</ele>
        <time>2023-04-06T13:32:04Z</time>
      </trkpt>
      <trkpt lat="49.86701" lon="2.32281">
        <ele>64.7</ele>
        <time>2023-04-06T13:32:05Z</time>
      </trkpt>
      <trkpt lat="49.86702" lon="2.32283">
        <ele>64.7</ele>
        <time>2023-04-06T13:32:07Z</time>
      </trkpt>
      <trkpt lat="49.86702" lon="2.32284">
        <ele>64.8</ele>
        <time>2023-04-06T13:32:08Z</time>
      </trkpt>
      <trkpt lat="49.86702" lon="2.32285">
        <ele>64.8</ele>
        <time>2023-04-06T13:32:09Z</time>
      </trkpt>
      <trkpt lat="49.86703" lon="2.32287">
        <ele>64.8</ele>
        <time>2023-04-06T13:32:10Z</time>
      </trkpt>
      <trkpt lat="49.86703" lon="2.32288">
        <ele>64.8</ele>
        <time>2023-04-06T13:32:11Z</time>
      </trkpt>
      <trkpt lat="49.86703" lon="2.3229">
        <ele>64.8</ele>
        <time>2023-04-06T13:32:12Z</time>
      </trkpt>
      <trkpt lat="49.86703" lon="2.32293">
        <ele>64.8</ele>
        <time>2023-04-06T13:32:14Z</time>
      </trkpt>
      <trkpt lat="49.86703" lon="2.32296">
        <ele>64.8</ele>
        <time>2023-04-06T13:32:15Z</time>
      </trkpt>
      <trkpt lat="49.86703" lon="2.32298">
        <ele>64.9</ele>
        <time>2023-04-06T13:32:16Z</time>
      </trkpt>
      <trkpt lat="49.86704" lon="2.323">
        <ele>64.8</ele>
        <time>2023-04-06T13:32:17Z</time>
      </trkpt>
      <trkpt lat="49.86704" lon="2.32302">
        <ele>64.8</ele>
        <time>2023-04-06T13:32:18Z</time>
      </trkpt>
      <trkpt lat="49.86704" lon="2.32304">
        <ele>64.8</ele>
        <time>2023-04-06T13:32:19Z</time>
      </trkpt>
      <trkpt lat="49.86705" lon="2.32307">
        <ele>64.9</ele>
        <time>2023-04-06T13:32:20Z</time>
      </trkpt>
      <trkpt lat="49.86705" lon="2.32308">
        <ele>64.9</ele>
        <time>2023-04-06T13:32:21Z</time>
      </trkpt>
      <trkpt lat="49.86706" lon="2.3231">
        <ele>64.9</ele>
        <time>2023-04-06T13:32:22Z</time>
      </trkpt>
      <trkpt lat="49.86706" lon="2.32312">
        <ele>64.9</ele>
        <time>2023-04-06T13:32:24Z</time>
      </trkpt>
      <trkpt lat="49.86706" lon="2.32315">
        <ele>64.9</ele>
        <time>2023-04-06T13:32:25Z</time>
      </trkpt>
      <trkpt lat="49.86707" lon="2.32315">
        <ele>64.9</ele>
        <time>2023-04-06T13:32:26Z</time>
      </trkpt>
      <trkpt lat="49.86707" lon="2.32317">
        <ele>64.9</ele>
        <time>2023-04-06T13:32:27Z</time>
      </trkpt>
      <trkpt lat="49.86707" lon="2.32319">
        <ele>64.9</ele>
        <time>2023-04-06T13:32:28Z</time>
      </trkpt>
      <trkpt lat="49.86708" lon="2.3232">
        <ele>64.9</ele>
        <time>2023-04-06T13:32:29Z</time>
      </trkpt>
      <trkpt lat="49.86708" lon="2.32322">
        <ele>64.9</ele>
        <time>2023-04-06T13:32:30Z</time>
      </trkpt>
      <trkpt lat="49.86708" lon="2.32325">
        <ele>64.9</ele>
        <time>2023-04-06T13:32:32Z</time>
      </trkpt>
      <trkpt lat="49.86709" lon="2.32327">
        <ele>65</ele>
        <time>2023-04-06T13:32:33Z</time>
      </trkpt>
      <trkpt lat="49.86709" lon="2.32328">
        <ele>65</ele>
        <time>2023-04-06T13:32:34Z</time>
      </trkpt>
      <trkpt lat="49.86709" lon="2.32332">
        <ele>65</ele>
        <time>2023-04-06T13:32:35Z</time>
      </trkpt>
      <trkpt lat="49.86709" lon="2.32333">
        <ele>64.9</ele>
        <time>2023-04-06T13:32:36Z</time>
      </trkpt>
      <trkpt lat="49.86709" lon="2.32334">
        <ele>64.9</ele>
        <time>2023-04-06T13:32:37Z</time>
      </trkpt>
      <trkpt lat="49.8671" lon="2.32337">
        <ele>64.9</ele>
        <time>2023-04-06T13:32:38Z</time>
      </trkpt>
      <trkpt lat="49.8671" lon="2.32338">
        <ele>64.9</ele>
        <time>2023-04-06T13:32:39Z</time>
      </trkpt>
      <trkpt lat="49.86711" lon="2.3234">
        <ele>64.9</ele>
        <time>2023-04-06T13:32:40Z</time>
      </trkpt>
      <trkpt lat="49.86711" lon="2.32342">
        <ele>64.9</ele>
        <time>2023-04-06T13:32:41Z</time>
      </trkpt>
      <trkpt lat="49.86711" lon="2.32344">
        <ele>65</ele>
        <time>2023-04-06T13:32:43Z</time>
      </trkpt>
      <trkpt lat="49.86711" lon="2.32345">
        <ele>65</ele>
        <time>2023-04-06T13:32:44Z</time>
      </trkpt>
      <trkpt lat="49.86711" lon="2.32348">
        <ele>65</ele>
        <time>2023-04-06T13:32:45Z</time>
      </trkpt>
      <trkpt lat="49.86712" lon="2.3235">
        <ele>65</ele>
        <time>2023-04-06T13:32:46Z</time>
      </trkpt>
      <trkpt lat="49.86712" lon="2.32352">
        <ele>65</ele>
        <time>2023-04-06T13:32:47Z</time>
      </trkpt>
      <trkpt lat="49.86712" lon="2.32353">
        <ele>64.9</ele>
        <time>2023-04-06T13:32:48Z</time>
      </trkpt>
      <trkpt lat="49.86712" lon="2.32356">
        <ele>64.9</ele>
        <time>2023-04-06T13:32:49Z</time>
      </trkpt>
      <trkpt lat="49.86713" lon="2.32358">
        <ele>64.9</ele>
        <time>2023-04-06T13:32:50Z</time>
      </trkpt>
      <trkpt lat="49.86713" lon="2.3236">
        <ele>64.9</ele>
        <time>2023-04-06T13:32:51Z</time>
      </trkpt>
      <trkpt lat="49.86714" lon="2.32362">
        <ele>64.9</ele>
        <time>2023-04-06T13:32:52Z</time>
      </trkpt>
      <trkpt lat="49.86714" lon="2.32364">
        <ele>64.9</ele>
        <time>2023-04-06T13:32:53Z</time>
      </trkpt>
      <trkpt lat="49.86714" lon="2.32367">
        <ele>64.9</ele>
        <time>2023-04-06T13:32:55Z</time>
      </trkpt>
      <trkpt lat="49.86714" lon="2.32369">
        <ele>64.9</ele>
        <time>2023-04-06T13:32:56Z</time>
      </trkpt>
      <trkpt lat="49.86714" lon="2.32371">
        <ele>64.9</ele>
        <time>2023-04-06T13:32:57Z</time>
      </trkpt>
      <trkpt lat="49.86714" lon="2.32373">
        <ele>64.9</ele>
        <time>2023-04-06T13:32:58Z</time>
      </trkpt>
      <trkpt lat="49.86715" lon="2.32376">
        <ele>64.9</ele>
        <time>2023-04-06T13:32:59Z</time>
      </trkpt>
      <trkpt lat="49.86715" lon="2.32378">
        <ele>64.9</ele>
        <time>2023-04-06T13:33:00Z</time>
      </trkpt>
      <trkpt lat="49.86715" lon="2.32379">
        <ele>64.9</ele>
        <time>2023-04-06T13:33:01Z</time>
      </trkpt>
      <trkpt lat="49.86715" lon="2.32381">
        <ele>64.9</ele>
        <time>2023-04-06T13:33:03Z</time>
      </trkpt>
      <trkpt lat="49.86715" lon="2.32383">
        <ele>64.9</ele>
        <time>2023-04-06T13:33:04Z</time>
      </trkpt>
      <trkpt lat="49.86716" lon="2.32385">
        <ele>64.9</ele>
        <time>2023-04-06T13:33:05Z</time>
      </trkpt>
      <trkpt lat="49.86716" lon="2.32387">
        <ele>64.9</ele>
        <time>2023-04-06T13:33:06Z</time>
      </trkpt>
      <trkpt lat="49.86716" lon="2.32389">
        <ele>64.9</ele>
        <time>2023-04-06T13:33:07Z</time>
      </trkpt>
      <trkpt lat="49.86716" lon="2.32392">
        <ele>65</ele>
        <time>2023-04-06T13:33:08Z</time>
      </trkpt>
      <trkpt lat="49.86717" lon="2.32395">
        <ele>65</ele>
        <time>2023-04-06T13:33:10Z</time>
      </trkpt>
      <trkpt lat="49.86717" lon="2.32397">
        <ele>65</ele>
        <time>2023-04-06T13:33:11Z</time>
      </trkpt>
      <trkpt lat="49.86717" lon="2.32399">
        <ele>65</ele>
        <time>2023-04-06T13:33:12Z</time>
      </trkpt>
      <trkpt lat="49.86717" lon="2.32401">
        <ele>65.1</ele>
        <time>2023-04-06T13:33:13Z</time>
      </trkpt>
      <trkpt lat="49.86718" lon="2.32404">
        <ele>65</ele>
        <time>2023-04-06T13:33:14Z</time>
      </trkpt>
      <trkpt lat="49.86718" lon="2.32407">
        <ele>65</ele>
        <time>2023-04-06T13:33:15Z</time>
      </trkpt>
      <trkpt lat="49.86719" lon="2.32411">
        <ele>65.1</ele>
        <time>2023-04-06T13:33:16Z</time>
      </trkpt>
      <trkpt lat="49.86719" lon="2.32413">
        <ele>65.2</ele>
        <time>2023-04-06T13:33:17Z</time>
      </trkpt>
      <trkpt lat="49.8672" lon="2.32415">
        <ele>65.2</ele>
        <time>2023-04-06T13:33:18Z</time>
      </trkpt>
      <trkpt lat="49.8672" lon="2.32417">
        <ele>65.1</ele>
        <time>2023-04-06T13:33:19Z</time>
      </trkpt>
      <trkpt lat="49.86721" lon="2.32419">
        <ele>65.1</ele>
        <time>2023-04-06T13:33:20Z</time>
      </trkpt>
      <trkpt lat="49.86722" lon="2.32422">
        <ele>65.2</ele>
        <time>2023-04-06T13:33:22Z</time>
      </trkpt>
      <trkpt lat="49.86722" lon="2.32424">
        <ele>65.2</ele>
        <time>2023-04-06T13:33:23Z</time>
      </trkpt>
      <trkpt lat="49.86722" lon="2.32425">
        <ele>65.3</ele>
        <time>2023-04-06T13:33:24Z</time>
      </trkpt>
      <trkpt lat="49.86723" lon="2.32426">
        <ele>65.3</ele>
        <time>2023-04-06T13:33:26Z</time>
      </trkpt>
      <trkpt lat="49.86723" lon="2.32428">
        <ele>65.2</ele>
        <time>2023-04-06T13:33:27Z</time>
      </trkpt>
      <trkpt lat="49.86723" lon="2.3243">
        <ele>65.2</ele>
        <time>2023-04-06T13:33:28Z</time>
      </trkpt>
      <trkpt lat="49.86724" lon="2.32431">
        <ele>65.2</ele>
        <time>2023-04-06T13:33:29Z</time>
      </trkpt>
      <trkpt lat="49.86724" lon="2.32432">
        <ele>65.2</ele>
        <time>2023-04-06T13:33:30Z</time>
      </trkpt>
      <trkpt lat="49.86724" lon="2.32434">
        <ele>65.2</ele>
        <time>2023-04-06T13:33:31Z</time>
      </trkpt>
      <trkpt lat="49.86724" lon="2.32435">
        <ele>65.3</ele>
        <time>2023-04-06T13:33:32Z</time>
      </trkpt>
      <trkpt lat="49.86725" lon="2.32438">
        <ele>65.3</ele>
        <time>2023-04-06T13:33:33Z</time>
      </trkpt>
      <trkpt lat="49.86725" lon="2.3244">
        <ele>65.3</ele>
        <time>2023-04-06T13:33:35Z</time>
      </trkpt>
      <trkpt lat="49.86725" lon="2.32441">
        <ele>65.3</ele>
        <time>2023-04-06T13:33:36Z</time>
      </trkpt>
      <trkpt lat="49.86726" lon="2.32444">
        <ele>65.3</ele>
        <time>2023-04-06T13:33:37Z</time>
      </trkpt>
      <trkpt lat="49.86726" lon="2.32445">
        <ele>65.3</ele>
        <time>2023-04-06T13:33:38Z</time>
      </trkpt>
      <trkpt lat="49.86726" lon="2.32446">
        <ele>65.3</ele>
        <time>2023-04-06T13:33:39Z</time>
      </trkpt>
      <trkpt lat="49.86727" lon="2.32451">
        <ele>65.3</ele>
        <time>2023-04-06T13:33:40Z</time>
      </trkpt>
      <trkpt lat="49.86727" lon="2.32452">
        <ele>65.3</ele>
        <time>2023-04-06T13:33:41Z</time>
      </trkpt>
      <trkpt lat="49.86727" lon="2.32457">
        <ele>65.4</ele>
        <time>2023-04-06T13:33:42Z</time>
      </trkpt>
      <trkpt lat="49.86728" lon="2.32458">
        <ele>65.4</ele>
        <time>2023-04-06T13:33:43Z</time>
      </trkpt>
      <trkpt lat="49.86728" lon="2.32461">
        <ele>65.4</ele>
        <time>2023-04-06T13:33:44Z</time>
      </trkpt>
      <trkpt lat="49.86728" lon="2.32463">
        <ele>65.4</ele>
        <time>2023-04-06T13:33:46Z</time>
      </trkpt>
      <trkpt lat="49.86728" lon="2.32465">
        <ele>65.4</ele>
        <time>2023-04-06T13:33:47Z</time>
      </trkpt>
      <trkpt lat="49.86728" lon="2.32466">
        <ele>65.4</ele>
        <time>2023-04-06T13:33:48Z</time>
      </trkpt>
      <trkpt lat="49.86728" lon="2.32468">
        <ele>65.4</ele>
        <time>2023-04-06T13:33:49Z</time>
      </trkpt>
      <trkpt lat="49.86728" lon="2.32468">
        <ele>65.4</ele>
        <time>2023-04-06T13:33:50Z</time>
      </trkpt>
      <trkpt lat="49.86727" lon="2.3247">
        <ele>65.4</ele>
        <time>2023-04-06T13:33:51Z</time>
      </trkpt>
      <trkpt lat="49.86727" lon="2.32472">
        <ele>65.4</ele>
        <time>2023-04-06T13:33:52Z</time>
      </trkpt>
      <trkpt lat="49.86726" lon="2.32473">
        <ele>65.5</ele>
        <time>2023-04-06T13:33:53Z</time>
      </trkpt>
      <trkpt lat="49.86724" lon="2.32473">
        <ele>65.5</ele>
        <time>2023-04-06T13:33:54Z</time>
      </trkpt>
      <trkpt lat="49.86723" lon="2.32474">
        <ele>65.5</ele>
        <time>2023-04-06T13:33:56Z</time>
      </trkpt>
      <trkpt lat="49.86722" lon="2.32476">
        <ele>65.6</ele>
        <time>2023-04-06T13:33:57Z</time>
      </trkpt>
      <trkpt lat="49.86721" lon="2.32477">
        <ele>65.6</ele>
        <time>2023-04-06T13:33:58Z</time>
      </trkpt>
      <trkpt lat="49.86718" lon="2.32478">
        <ele>65.7</ele>
        <time>2023-04-06T13:33:59Z</time>
      </trkpt>
      <trkpt lat="49.86717" lon="2.32479">
        <ele>65.8</ele>
        <time>2023-04-06T13:34:00Z</time>
      </trkpt>
      <trkpt lat="49.86715" lon="2.32477">
        <ele>65.8</ele>
        <time>2023-04-06T13:34:01Z</time>
      </trkpt>
      <trkpt lat="49.86715" lon="2.32476">
        <ele>65.9</ele>
        <time>2023-04-06T13:34:02Z</time>
      </trkpt>
      <trkpt lat="49.86714" lon="2.32475">
        <ele>65.9</ele>
        <time>2023-04-06T13:34:03Z</time>
      </trkpt>
      <trkpt lat="49.86711" lon="2.32475">
        <ele>66</ele>
        <time>2023-04-06T13:34:04Z</time>
      </trkpt>
      <trkpt lat="49.8671" lon="2.32476">
        <ele>66</ele>
        <time>2023-04-06T13:34:06Z</time>
      </trkpt>
      <trkpt lat="49.86709" lon="2.32477">
        <ele>66.1</ele>
        <time>2023-04-06T13:34:07Z</time>
      </trkpt>
      <trkpt lat="49.86707" lon="2.32477">
        <ele>66.1</ele>
        <time>2023-04-06T13:34:08Z</time>
      </trkpt>
      <trkpt lat="49.86706" lon="2.32478">
        <ele>66.2</ele>
        <time>2023-04-06T13:34:09Z</time>
      </trkpt>
      <trkpt lat="49.86705" lon="2.32479">
        <ele>66.2</ele>
        <time>2023-04-06T13:34:10Z</time>
      </trkpt>
      <trkpt lat="49.86703" lon="2.3248">
        <ele>66.2</ele>
        <time>2023-04-06T13:34:11Z</time>
      </trkpt>
      <trkpt lat="49.86702" lon="2.32481">
        <ele>66.2</ele>
        <time>2023-04-06T13:34:13Z</time>
      </trkpt>
      <trkpt lat="49.86701" lon="2.32482">
        <ele>66.2</ele>
        <time>2023-04-06T13:34:14Z</time>
      </trkpt>
      <trkpt lat="49.867" lon="2.32483">
        <ele>66.3</ele>
        <time>2023-04-06T13:34:15Z</time>
      </trkpt>
      <trkpt lat="49.86699" lon="2.32484">
        <ele>66.3</ele>
        <time>2023-04-06T13:34:16Z</time>
      </trkpt>
      <trkpt lat="49.86698" lon="2.32485">
        <ele>66.3</ele>
        <time>2023-04-06T13:34:17Z</time>
      </trkpt>
      <trkpt lat="49.86698" lon="2.32485">
        <ele>66.4</ele>
        <time>2023-04-06T13:34:18Z</time>
      </trkpt>
      <trkpt lat="49.86698" lon="2.32486">
        <ele>66.4</ele>
        <time>2023-04-06T13:34:20Z</time>
      </trkpt>
      <trkpt lat="49.86697" lon="2.32486">
        <ele>66.4</ele>
        <time>2023-04-06T13:34:21Z</time>
      </trkpt>
      <trkpt lat="49.86696" lon="2.32487">
        <ele>66.4</ele>
        <time>2023-04-06T13:34:22Z</time>
      </trkpt>
      <trkpt lat="49.86695" lon="2.32488">
        <ele>66.5</ele>
        <time>2023-04-06T13:34:23Z</time>
      </trkpt>
      <trkpt lat="49.86694" lon="2.32489">
        <ele>66.5</ele>
        <time>2023-04-06T13:34:24Z</time>
      </trkpt>
      <trkpt lat="49.86693" lon="2.32489">
        <ele>66.5</ele>
        <time>2023-04-06T13:34:25Z</time>
      </trkpt>
      <trkpt lat="49.86692" lon="2.3249">
        <ele>66.5</ele>
        <time>2023-04-06T13:34:26Z</time>
      </trkpt>
      <trkpt lat="49.86691" lon="2.3249">
        <ele>66.5</ele>
        <time>2023-04-06T13:34:28Z</time>
      </trkpt>
      <trkpt lat="49.86691" lon="2.3249">
        <ele>66.5</ele>
        <time>2023-04-06T13:34:29Z</time>
      </trkpt>
      <trkpt lat="49.8669" lon="2.32491">
        <ele>66.6</ele>
        <time>2023-04-06T13:34:30Z</time>
      </trkpt>
      <trkpt lat="49.86688" lon="2.32492">
        <ele>66.6</ele>
        <time>2023-04-06T13:34:31Z</time>
      </trkpt>
      <trkpt lat="49.86687" lon="2.32492">
        <ele>66.6</ele>
        <time>2023-04-06T13:34:32Z</time>
      </trkpt>
      <trkpt lat="49.86686" lon="2.32493">
        <ele>66.7</ele>
        <time>2023-04-06T13:34:33Z</time>
      </trkpt>
      <trkpt lat="49.86684" lon="2.32494">
        <ele>66.7</ele>
        <time>2023-04-06T13:34:34Z</time>
      </trkpt>
      <trkpt lat="49.86683" lon="2.32495">
        <ele>66.7</ele>
        <time>2023-04-06T13:34:35Z</time>
      </trkpt>
      <trkpt lat="49.86681" lon="2.32499">
        <ele>66.8</ele>
        <time>2023-04-06T13:34:37Z</time>
      </trkpt>
      <trkpt lat="49.86681" lon="2.325">
        <ele>66.8</ele>
        <time>2023-04-06T13:34:38Z</time>
      </trkpt>
      <trkpt lat="49.86681" lon="2.32502">
        <ele>66.8</ele>
        <time>2023-04-06T13:34:39Z</time>
      </trkpt>
      <trkpt lat="49.86682" lon="2.32505">
        <ele>66.7</ele>
        <time>2023-04-06T13:34:40Z</time>
      </trkpt>
      <trkpt lat="49.86683" lon="2.32507">
        <ele>66.7</ele>
        <time>2023-04-06T13:34:41Z</time>
      </trkpt>
      <trkpt lat="49.86683" lon="2.32509">
        <ele>66.7</ele>
        <time>2023-04-06T13:34:42Z</time>
      </trkpt>
      <trkpt lat="49.86685" lon="2.32514">
        <ele>66.6</ele>
        <time>2023-04-06T13:34:44Z</time>
      </trkpt>
      <trkpt lat="49.86685" lon="2.32515">
        <ele>66.6</ele>
        <time>2023-04-06T13:34:45Z</time>
      </trkpt>
      <trkpt lat="49.86687" lon="2.32519">
        <ele>66.6</ele>
        <time>2023-04-06T13:34:46Z</time>
      </trkpt>
      <trkpt lat="49.86687" lon="2.3252">
        <ele>66.6</ele>
        <time>2023-04-06T13:34:47Z</time>
      </trkpt>
      <trkpt lat="49.86687" lon="2.32523">
        <ele>66.5</ele>
        <time>2023-04-06T13:34:48Z</time>
      </trkpt>
      <trkpt lat="49.86688" lon="2.32525">
        <ele>66.5</ele>
        <time>2023-04-06T13:34:49Z</time>
      </trkpt>
      <trkpt lat="49.86689" lon="2.32528">
        <ele>66.5</ele>
        <time>2023-04-06T13:34:50Z</time>
      </trkpt>
      <trkpt lat="49.86689" lon="2.32529">
        <ele>66.5</ele>
        <time>2023-04-06T13:34:51Z</time>
      </trkpt>
      <trkpt lat="49.86691" lon="2.32532">
        <ele>66.4</ele>
        <time>2023-04-06T13:34:52Z</time>
      </trkpt>
      <trkpt lat="49.86691" lon="2.32534">
        <ele>66.5</ele>
        <time>2023-04-06T13:34:54Z</time>
      </trkpt>
      <trkpt lat="49.86692" lon="2.32535">
        <ele>66.5</ele>
        <time>2023-04-06T13:34:55Z</time>
      </trkpt>
      <trkpt lat="49.86693" lon="2.32537">
        <ele>66.5</ele>
        <time>2023-04-06T13:34:56Z</time>
      </trkpt>
      <trkpt lat="49.86693" lon="2.32538">
        <ele>66.3</ele>
        <time>2023-04-06T13:34:58Z</time>
      </trkpt>
      <trkpt lat="49.86694" lon="2.32539">
        <ele>66.3</ele>
        <time>2023-04-06T13:34:59Z</time>
      </trkpt>
      <trkpt lat="49.86694" lon="2.32541">
        <ele>66.3</ele>
        <time>2023-04-06T13:35:00Z</time>
      </trkpt>
      <trkpt lat="49.86695" lon="2.32542">
        <ele>66.3</ele>
        <time>2023-04-06T13:35:01Z</time>
      </trkpt>
      <trkpt lat="49.86695" lon="2.32544">
        <ele>66.2</ele>
        <time>2023-04-06T13:35:02Z</time>
      </trkpt>
      <trkpt lat="49.86696" lon="2.32546">
        <ele>66.2</ele>
        <time>2023-04-06T13:35:03Z</time>
      </trkpt>
      <trkpt lat="49.86697" lon="2.32548">
        <ele>66.2</ele>
        <time>2023-04-06T13:35:04Z</time>
      </trkpt>
      <trkpt lat="49.86697" lon="2.3255">
        <ele>66.2</ele>
        <time>2023-04-06T13:35:05Z</time>
      </trkpt>
      <trkpt lat="49.86697" lon="2.32553">
        <ele>66.2</ele>
        <time>2023-04-06T13:35:07Z</time>
      </trkpt>
      <trkpt lat="49.86698" lon="2.32555">
        <ele>66.2</ele>
        <time>2023-04-06T13:35:08Z</time>
      </trkpt>
      <trkpt lat="49.86698" lon="2.32558">
        <ele>66.2</ele>
        <time>2023-04-06T13:35:09Z</time>
      </trkpt>
      <trkpt lat="49.86697" lon="2.3256">
        <ele>66.2</ele>
        <time>2023-04-06T13:35:10Z</time>
      </trkpt>
      <trkpt lat="49.86697" lon="2.32562">
        <ele>66.2</ele>
        <time>2023-04-06T13:35:11Z</time>
      </trkpt>
      <trkpt lat="49.86697" lon="2.32562">
        <ele>66.2</ele>
        <time>2023-04-06T13:35:12Z</time>
      </trkpt>
      <trkpt lat="49.86697" lon="2.32563">
        <ele>66.1</ele>
        <time>2023-04-06T13:35:13Z</time>
      </trkpt>
      <trkpt lat="49.86697" lon="2.32564">
        <ele>66.1</ele>
        <time>2023-04-06T13:35:14Z</time>
      </trkpt>
      <trkpt lat="49.86698" lon="2.32567">
        <ele>66.1</ele>
        <time>2023-04-06T13:35:16Z</time>
      </trkpt>
      <trkpt lat="49.86698" lon="2.32569">
        <ele>66.1</ele>
        <time>2023-04-06T13:35:17Z</time>
      </trkpt>
      <trkpt lat="49.86698" lon="2.3257">
        <ele>66.1</ele>
        <time>2023-04-06T13:35:18Z</time>
      </trkpt>
      <trkpt lat="49.86699" lon="2.32572">
        <ele>66</ele>
        <time>2023-04-06T13:35:19Z</time>
      </trkpt>
      <trkpt lat="49.86699" lon="2.32574">
        <ele>66</ele>
        <time>2023-04-06T13:35:20Z</time>
      </trkpt>
      <trkpt lat="49.867" lon="2.32576">
        <ele>66</ele>
        <time>2023-04-06T13:35:21Z</time>
      </trkpt>
      <trkpt lat="49.867" lon="2.32579">
        <ele>66</ele>
        <time>2023-04-06T13:35:22Z</time>
      </trkpt>
      <trkpt lat="49.86701" lon="2.32581">
        <ele>66</ele>
        <time>2023-04-06T13:35:23Z</time>
      </trkpt>
      <trkpt lat="49.86701" lon="2.32582">
        <ele>65.9</ele>
        <time>2023-04-06T13:35:24Z</time>
      </trkpt>
      <trkpt lat="49.86702" lon="2.32584">
        <ele>65.9</ele>
        <time>2023-04-06T13:35:25Z</time>
      </trkpt>
      <trkpt lat="49.86702" lon="2.32587">
        <ele>65.8</ele>
        <time>2023-04-06T13:35:27Z</time>
      </trkpt>
      <trkpt lat="49.86703" lon="2.32589">
        <ele>65.8</ele>
        <time>2023-04-06T13:35:28Z</time>
      </trkpt>
      <trkpt lat="49.86704" lon="2.32592">
        <ele>65.7</ele>
        <time>2023-04-06T13:35:29Z</time>
      </trkpt>
      <trkpt lat="49.86704" lon="2.32593">
        <ele>65.7</ele>
        <time>2023-04-06T13:35:30Z</time>
      </trkpt>
      <trkpt lat="49.86705" lon="2.32593">
        <ele>65.6</ele>
        <time>2023-04-06T13:35:31Z</time>
      </trkpt>
      <trkpt lat="49.86706" lon="2.32596">
        <ele>65.6</ele>
        <time>2023-04-06T13:35:32Z</time>
      </trkpt>
      <trkpt lat="49.86707" lon="2.32597">
        <ele>65.5</ele>
        <time>2023-04-06T13:35:34Z</time>
      </trkpt>
      <trkpt lat="49.86707" lon="2.32598">
        <ele>65.5</ele>
        <time>2023-04-06T13:35:35Z</time>
      </trkpt>
      <trkpt lat="49.86708" lon="2.326">
        <ele>65.5</ele>
        <time>2023-04-06T13:35:36Z</time>
      </trkpt>
      <trkpt lat="49.86708" lon="2.32603">
        <ele>65.5</ele>
        <time>2023-04-06T13:35:37Z</time>
      </trkpt>
      <trkpt lat="49.86709" lon="2.32605">
        <ele>65.3</ele>
        <time>2023-04-06T13:35:38Z</time>
      </trkpt>
      <trkpt lat="49.86711" lon="2.32606">
        <ele>65.2</ele>
        <time>2023-04-06T13:35:39Z</time>
      </trkpt>
      <trkpt lat="49.86712" lon="2.32608">
        <ele>65.2</ele>
        <time>2023-04-06T13:35:40Z</time>
      </trkpt>
      <trkpt lat="49.86713" lon="2.3261">
        <ele>65.1</ele>
        <time>2023-04-06T13:35:41Z</time>
      </trkpt>
      <trkpt lat="49.86713" lon="2.32613">
        <ele>65.1</ele>
        <time>2023-04-06T13:35:43Z</time>
      </trkpt>
      <trkpt lat="49.86713" lon="2.32615">
        <ele>65</ele>
        <time>2023-04-06T13:35:44Z</time>
      </trkpt>
      <trkpt lat="49.86714" lon="2.32617">
        <ele>65</ele>
        <time>2023-04-06T13:35:45Z</time>
      </trkpt>
      <trkpt lat="49.86713" lon="2.32618">
        <ele>65</ele>
        <time>2023-04-06T13:35:46Z</time>
      </trkpt>
      <trkpt lat="49.86713" lon="2.32619">
        <ele>64.9</ele>
        <time>2023-04-06T13:35:47Z</time>
      </trkpt>
      <trkpt lat="49.86713" lon="2.3262">
        <ele>64.9</ele>
        <time>2023-04-06T13:35:48Z</time>
      </trkpt>
      <trkpt lat="49.86713" lon="2.32622">
        <ele>64.9</ele>
        <time>2023-04-06T13:35:49Z</time>
      </trkpt>
      <trkpt lat="49.86714" lon="2.32624">
        <ele>64.8</ele>
        <time>2023-04-06T13:35:50Z</time>
      </trkpt>
      <trkpt lat="49.86715" lon="2.32627">
        <ele>64.8</ele>
        <time>2023-04-06T13:35:52Z</time>
      </trkpt>
      <trkpt lat="49.86715" lon="2.32629">
        <ele>64.6</ele>
        <time>2023-04-06T13:35:53Z</time>
      </trkpt>
      <trkpt lat="49.86716" lon="2.32631">
        <ele>64.6</ele>
        <time>2023-04-06T13:35:54Z</time>
      </trkpt>
      <trkpt lat="49.86716" lon="2.32633">
        <ele>64.5</ele>
        <time>2023-04-06T13:35:55Z</time>
      </trkpt>
      <trkpt lat="49.86717" lon="2.32635">
        <ele>64.5</ele>
        <time>2023-04-06T13:35:56Z</time>
      </trkpt>
      <trkpt lat="49.86717" lon="2.32637">
        <ele>64.4</ele>
        <time>2023-04-06T13:35:57Z</time>
      </trkpt>
      <trkpt lat="49.86717" lon="2.32639">
        <ele>64.3</ele>
        <time>2023-04-06T13:35:58Z</time>
      </trkpt>
      <trkpt lat="49.86718" lon="2.32641">
        <ele>64.1</ele>
        <time>2023-04-06T13:35:59Z</time>
      </trkpt>
      <trkpt lat="49.86718" lon="2.32643">
        <ele>64.1</ele>
        <time>2023-04-06T13:36:01Z</time>
      </trkpt>
      <trkpt lat="49.86719" lon="2.32645">
        <ele>64</ele>
        <time>2023-04-06T13:36:02Z</time>
      </trkpt>
      <trkpt lat="49.8672" lon="2.32647">
        <ele>64</ele>
        <time>2023-04-06T13:36:03Z</time>
      </trkpt>
      <trkpt lat="49.86721" lon="2.32648">
        <ele>63.9</ele>
        <time>2023-04-06T13:36:04Z</time>
      </trkpt>
      <trkpt lat="49.86722" lon="2.3265">
        <ele>63.8</ele>
        <time>2023-04-06T13:36:05Z</time>
      </trkpt>
      <trkpt lat="49.86722" lon="2.32652">
        <ele>63.8</ele>
        <time>2023-04-06T13:36:06Z</time>
      </trkpt>
      <trkpt lat="49.86723" lon="2.32654">
        <ele>63.6</ele>
        <time>2023-04-06T13:36:07Z</time>
      </trkpt>
      <trkpt lat="49.86724" lon="2.32658">
        <ele>63.5</ele>
        <time>2023-04-06T13:36:08Z</time>
      </trkpt>
      <trkpt lat="49.86724" lon="2.3266">
        <ele>63.5</ele>
        <time>2023-04-06T13:36:09Z</time>
      </trkpt>
      <trkpt lat="49.86724" lon="2.32661">
        <ele>63.3</ele>
        <time>2023-04-06T13:36:10Z</time>
      </trkpt>
      <trkpt lat="49.86724" lon="2.32663">
        <ele>63.3</ele>
        <time>2023-04-06T13:36:12Z</time>
      </trkpt>
      <trkpt lat="49.86724" lon="2.32665">
        <ele>63.3</ele>
        <time>2023-04-06T13:36:13Z</time>
      </trkpt>
      <trkpt lat="49.86724" lon="2.32669">
        <ele>63.1</ele>
        <time>2023-04-06T13:36:14Z</time>
      </trkpt>
      <trkpt lat="49.86724" lon="2.3267">
        <ele>63.1</ele>
        <time>2023-04-06T13:36:15Z</time>
      </trkpt>
      <trkpt lat="49.86724" lon="2.32671">
        <ele>63</ele>
        <time>2023-04-06T13:36:16Z</time>
      </trkpt>
      <trkpt lat="49.86724" lon="2.32674">
        <ele>63</ele>
        <time>2023-04-06T13:36:17Z</time>
      </trkpt>
      <trkpt lat="49.86725" lon="2.32677">
        <ele>62.9</ele>
        <time>2023-04-06T13:36:19Z</time>
      </trkpt>
      <trkpt lat="49.86725" lon="2.32679">
        <ele>62.7</ele>
        <time>2023-04-06T13:36:20Z</time>
      </trkpt>
      <trkpt lat="49.86725" lon="2.32681">
        <ele>62.7</ele>
        <time>2023-04-06T13:36:21Z</time>
      </trkpt>
      <trkpt lat="49.86726" lon="2.32684">
        <ele>62.6</ele>
        <time>2023-04-06T13:36:22Z</time>
      </trkpt>
      <trkpt lat="49.86726" lon="2.32686">
        <ele>62.5</ele>
        <time>2023-04-06T13:36:23Z</time>
      </trkpt>
      <trkpt lat="49.86727" lon="2.32689">
        <ele>62.4</ele>
        <time>2023-04-06T13:36:25Z</time>
      </trkpt>
      <trkpt lat="49.86727" lon="2.32691">
        <ele>62.3</ele>
        <time>2023-04-06T13:36:26Z</time>
      </trkpt>
      <trkpt lat="49.86728" lon="2.32693">
        <ele>62.1</ele>
        <time>2023-04-06T13:36:27Z</time>
      </trkpt>
      <trkpt lat="49.86728" lon="2.32694">
        <ele>62.1</ele>
        <time>2023-04-06T13:36:28Z</time>
      </trkpt>
      <trkpt lat="49.86729" lon="2.32697">
        <ele>61.9</ele>
        <time>2023-04-06T13:36:30Z</time>
      </trkpt>
      <trkpt lat="49.86729" lon="2.32698">
        <ele>61.9</ele>
        <time>2023-04-06T13:36:31Z</time>
      </trkpt>
      <trkpt lat="49.8673" lon="2.327">
        <ele>61.9</ele>
        <time>2023-04-06T13:36:32Z</time>
      </trkpt>
      <trkpt lat="49.8673" lon="2.32701">
        <ele>61.8</ele>
        <time>2023-04-06T13:36:33Z</time>
      </trkpt>
      <trkpt lat="49.86731" lon="2.32704">
        <ele>61.6</ele>
        <time>2023-04-06T13:36:34Z</time>
      </trkpt>
      <trkpt lat="49.86731" lon="2.32706">
        <ele>61.5</ele>
        <time>2023-04-06T13:36:35Z</time>
      </trkpt>
      <trkpt lat="49.86732" lon="2.32707">
        <ele>61.5</ele>
        <time>2023-04-06T13:36:36Z</time>
      </trkpt>
      <trkpt lat="49.86732" lon="2.32708">
        <ele>61.4</ele>
        <time>2023-04-06T13:36:38Z</time>
      </trkpt>
      <trkpt lat="49.86733" lon="2.32709">
        <ele>61.3</ele>
        <time>2023-04-06T13:36:39Z</time>
      </trkpt>
      <trkpt lat="49.86734" lon="2.32711">
        <ele>61.3</ele>
        <time>2023-04-06T13:36:40Z</time>
      </trkpt>
      <trkpt lat="49.86735" lon="2.32714">
        <ele>61</ele>
        <time>2023-04-06T13:36:41Z</time>
      </trkpt>
      <trkpt lat="49.86735" lon="2.32716">
        <ele>61</ele>
        <time>2023-04-06T13:36:42Z</time>
      </trkpt>
      <trkpt lat="49.86736" lon="2.32717">
        <ele>61</ele>
        <time>2023-04-06T13:36:43Z</time>
      </trkpt>
      <trkpt lat="49.86737" lon="2.32719">
        <ele>60.8</ele>
        <time>2023-04-06T13:36:44Z</time>
      </trkpt>
      <trkpt lat="49.86737" lon="2.3272">
        <ele>60.8</ele>
        <time>2023-04-06T13:36:45Z</time>
      </trkpt>
      <trkpt lat="49.86738" lon="2.32721">
        <ele>60.8</ele>
        <time>2023-04-06T13:36:46Z</time>
      </trkpt>
      <trkpt lat="49.8674" lon="2.32723">
        <ele>60.5</ele>
        <time>2023-04-06T13:36:48Z</time>
      </trkpt>
      <trkpt lat="49.8674" lon="2.32723">
        <ele>60.5</ele>
        <time>2023-04-06T13:36:49Z</time>
      </trkpt>
      <trkpt lat="49.86741" lon="2.32723">
        <ele>60.5</ele>
        <time>2023-04-06T13:36:51Z</time>
      </trkpt>
      <trkpt lat="49.86741" lon="2.32721">
        <ele>60.7</ele>
        <time>2023-04-06T13:36:52Z</time>
      </trkpt>
      <trkpt lat="49.86741" lon="2.32721">
        <ele>60.7</ele>
        <time>2023-04-06T13:36:54Z</time>
      </trkpt>
      <trkpt lat="49.86741" lon="2.32721">
        <ele>60.7</ele>
        <time>2023-04-06T13:36:55Z</time>
      </trkpt>
      <trkpt lat="49.86741" lon="2.32721">
        <ele>60.7</ele>
        <time>2023-04-06T13:36:56Z</time>
      </trkpt>
      <trkpt lat="49.86741" lon="2.32721">
        <ele>60.7</ele>
        <time>2023-04-06T13:36:57Z</time>
      </trkpt>
      <trkpt lat="49.86742" lon="2.32721">
        <ele>60.7</ele>
        <time>2023-04-06T13:36:59Z</time>
      </trkpt>
      <trkpt lat="49.86742" lon="2.32721">
        <ele>60.7</ele>
        <time>2023-04-06T13:37:00Z</time>
      </trkpt>
      <trkpt lat="49.86742" lon="2.32722">
        <ele>60.5</ele>
        <time>2023-04-06T13:37:01Z</time>
      </trkpt>
      <trkpt lat="49.86743" lon="2.32723">
        <ele>60.4</ele>
        <time>2023-04-06T13:37:02Z</time>
      </trkpt>
      <trkpt lat="49.86743" lon="2.32724">
        <ele>60.4</ele>
        <time>2023-04-06T13:37:03Z</time>
      </trkpt>
      <trkpt lat="49.86743" lon="2.32725">
        <ele>60.4</ele>
        <time>2023-04-06T13:37:04Z</time>
      </trkpt>
      <trkpt lat="49.86744" lon="2.32728">
        <ele>60.2</ele>
        <time>2023-04-06T13:37:05Z</time>
      </trkpt>
      <trkpt lat="49.86745" lon="2.32729">
        <ele>60.2</ele>
        <time>2023-04-06T13:37:07Z</time>
      </trkpt>
      <trkpt lat="49.86745" lon="2.32731">
        <ele>60.1</ele>
        <time>2023-04-06T13:37:08Z</time>
      </trkpt>
      <trkpt lat="49.86745" lon="2.32733">
        <ele>60.1</ele>
        <time>2023-04-06T13:37:09Z</time>
      </trkpt>
      <trkpt lat="49.86745" lon="2.32736">
        <ele>59.8</ele>
        <time>2023-04-06T13:37:10Z</time>
      </trkpt>
      <trkpt lat="49.86745" lon="2.32739">
        <ele>59.7</ele>
        <time>2023-04-06T13:37:11Z</time>
      </trkpt>
      <trkpt lat="49.86746" lon="2.32741">
        <ele>59.7</ele>
        <time>2023-04-06T13:37:12Z</time>
      </trkpt>
      <trkpt lat="49.86746" lon="2.32743">
        <ele>59.5</ele>
        <time>2023-04-06T13:37:13Z</time>
      </trkpt>
      <trkpt lat="49.86747" lon="2.32745">
        <ele>59.5</ele>
        <time>2023-04-06T13:37:14Z</time>
      </trkpt>
      <trkpt lat="49.86747" lon="2.32748">
        <ele>59.4</ele>
        <time>2023-04-06T13:37:15Z</time>
      </trkpt>
      <trkpt lat="49.86748" lon="2.3275">
        <ele>59.4</ele>
        <time>2023-04-06T13:37:17Z</time>
      </trkpt>
      <trkpt lat="49.86748" lon="2.32752">
        <ele>59.1</ele>
        <time>2023-04-06T13:37:18Z</time>
      </trkpt>
      <trkpt lat="49.86749" lon="2.32754">
        <ele>59.1</ele>
        <time>2023-04-06T13:37:19Z</time>
      </trkpt>
      <trkpt lat="49.86749" lon="2.32757">
        <ele>59</ele>
        <time>2023-04-06T13:37:20Z</time>
      </trkpt>
      <trkpt lat="49.8675" lon="2.32759">
        <ele>59</ele>
        <time>2023-04-06T13:37:21Z</time>
      </trkpt>
      <trkpt lat="49.8675" lon="2.3276">
        <ele>59</ele>
        <time>2023-04-06T13:37:22Z</time>
      </trkpt>
      <trkpt lat="49.86751" lon="2.32762">
        <ele>58.8</ele>
        <time>2023-04-06T13:37:23Z</time>
      </trkpt>
      <trkpt lat="49.86751" lon="2.32763">
        <ele>58.8</ele>
        <time>2023-04-06T13:37:24Z</time>
      </trkpt>
      <trkpt lat="49.86752" lon="2.32765">
        <ele>58.6</ele>
        <time>2023-04-06T13:37:26Z</time>
      </trkpt>
      <trkpt lat="49.86753" lon="2.32768">
        <ele>58.6</ele>
        <time>2023-04-06T13:37:27Z</time>
      </trkpt>
      <trkpt lat="49.86754" lon="2.32769">
        <ele>58.5</ele>
        <time>2023-04-06T13:37:28Z</time>
      </trkpt>
      <trkpt lat="49.86755" lon="2.32772">
        <ele>58.4</ele>
        <time>2023-04-06T13:37:29Z</time>
      </trkpt>
      <trkpt lat="49.86755" lon="2.32773">
        <ele>58.3</ele>
        <time>2023-04-06T13:37:30Z</time>
      </trkpt>
      <trkpt lat="49.86755" lon="2.32774">
        <ele>58.3</ele>
        <time>2023-04-06T13:37:31Z</time>
      </trkpt>
      <trkpt lat="49.86756" lon="2.32778">
        <ele>58.1</ele>
        <time>2023-04-06T13:37:32Z</time>
      </trkpt>
      <trkpt lat="49.86756" lon="2.32778">
        <ele>58.1</ele>
        <time>2023-04-06T13:37:33Z</time>
      </trkpt>
      <trkpt lat="49.86757" lon="2.3278">
        <ele>58.1</ele>
        <time>2023-04-06T13:37:34Z</time>
      </trkpt>
      <trkpt lat="49.86758" lon="2.32782">
        <ele>58</ele>
        <time>2023-04-06T13:37:36Z</time>
      </trkpt>
      <trkpt lat="49.86759" lon="2.32786">
        <ele>57.8</ele>
        <time>2023-04-06T13:37:37Z</time>
      </trkpt>
      <trkpt lat="49.86759" lon="2.32787">
        <ele>57.8</ele>
        <time>2023-04-06T13:37:38Z</time>
      </trkpt>
      <trkpt lat="49.8676" lon="2.32789">
        <ele>57.8</ele>
        <time>2023-04-06T13:37:39Z</time>
      </trkpt>
      <trkpt lat="49.8676" lon="2.32791">
        <ele>57.6</ele>
        <time>2023-04-06T13:37:40Z</time>
      </trkpt>
      <trkpt lat="49.8676" lon="2.32793">
        <ele>57.6</ele>
        <time>2023-04-06T13:37:42Z</time>
      </trkpt>
      <trkpt lat="49.8676" lon="2.32796">
        <ele>57.5</ele>
        <time>2023-04-06T13:37:43Z</time>
      </trkpt>
      <trkpt lat="49.86761" lon="2.32798">
        <ele>57.5</ele>
        <time>2023-04-06T13:37:44Z</time>
      </trkpt>
      <trkpt lat="49.86761" lon="2.32799">
        <ele>57.3</ele>
        <time>2023-04-06T13:37:45Z</time>
      </trkpt>
      <trkpt lat="49.86761" lon="2.32801">
        <ele>57.3</ele>
        <time>2023-04-06T13:37:46Z</time>
      </trkpt>
      <trkpt lat="49.86762" lon="2.32805">
        <ele>57.2</ele>
        <time>2023-04-06T13:37:47Z</time>
      </trkpt>
      <trkpt lat="49.86762" lon="2.32807">
        <ele>57.1</ele>
        <time>2023-04-06T13:37:48Z</time>
      </trkpt>
      <trkpt lat="49.86762" lon="2.32809">
        <ele>57</ele>
        <time>2023-04-06T13:37:49Z</time>
      </trkpt>
      <trkpt lat="49.86763" lon="2.32811">
        <ele>57</ele>
        <time>2023-04-06T13:37:50Z</time>
      </trkpt>
      <trkpt lat="49.86763" lon="2.32813">
        <ele>56.9</ele>
        <time>2023-04-06T13:37:51Z</time>
      </trkpt>
      <trkpt lat="49.86764" lon="2.32814">
        <ele>56.8</ele>
        <time>2023-04-06T13:37:52Z</time>
      </trkpt>
      <trkpt lat="49.86764" lon="2.32817">
        <ele>56.7</ele>
        <time>2023-04-06T13:37:54Z</time>
      </trkpt>
      <trkpt lat="49.86765" lon="2.3282">
        <ele>56.6</ele>
        <time>2023-04-06T13:37:55Z</time>
      </trkpt>
      <trkpt lat="49.86765" lon="2.32821">
        <ele>56.5</ele>
        <time>2023-04-06T13:37:56Z</time>
      </trkpt>
      <trkpt lat="49.86766" lon="2.32822">
        <ele>56.5</ele>
        <time>2023-04-06T13:37:57Z</time>
      </trkpt>
      <trkpt lat="49.86766" lon="2.32824">
        <ele>56.5</ele>
        <time>2023-04-06T13:37:59Z</time>
      </trkpt>
      <trkpt lat="49.86766" lon="2.32825">
        <ele>56.4</ele>
        <time>2023-04-06T13:38:00Z</time>
      </trkpt>
      <trkpt lat="49.86767" lon="2.32826">
        <ele>56.4</ele>
        <time>2023-04-06T13:38:01Z</time>
      </trkpt>
      <trkpt lat="49.86767" lon="2.32827">
        <ele>56.4</ele>
        <time>2023-04-06T13:38:02Z</time>
      </trkpt>
      <trkpt lat="49.86769" lon="2.32831">
        <ele>56.2</ele>
        <time>2023-04-06T13:38:03Z</time>
      </trkpt>
      <trkpt lat="49.8677" lon="2.32832">
        <ele>56.2</ele>
        <time>2023-04-06T13:38:04Z</time>
      </trkpt>
      <trkpt lat="49.86771" lon="2.32836">
        <ele>56</ele>
        <time>2023-04-06T13:38:05Z</time>
      </trkpt>
      <trkpt lat="49.86771" lon="2.32839">
        <ele>55.9</ele>
        <time>2023-04-06T13:38:07Z</time>
      </trkpt>
      <trkpt lat="49.86772" lon="2.32841">
        <ele>55.8</ele>
        <time>2023-04-06T13:38:08Z</time>
      </trkpt>
      <trkpt lat="49.86773" lon="2.32843">
        <ele>55.7</ele>
        <time>2023-04-06T13:38:09Z</time>
      </trkpt>
      <trkpt lat="49.86773" lon="2.32844">
        <ele>55.7</ele>
        <time>2023-04-06T13:38:10Z</time>
      </trkpt>
      <trkpt lat="49.86773" lon="2.32846">
        <ele>55.5</ele>
        <time>2023-04-06T13:38:11Z</time>
      </trkpt>
      <trkpt lat="49.86773" lon="2.32847">
        <ele>55.6</ele>
        <time>2023-04-06T13:38:12Z</time>
      </trkpt>
      <trkpt lat="49.86773" lon="2.32849">
        <ele>55.6</ele>
        <time>2023-04-06T13:38:14Z</time>
      </trkpt>
      <trkpt lat="49.86773" lon="2.32852">
        <ele>55.4</ele>
        <time>2023-04-06T13:38:15Z</time>
      </trkpt>
      <trkpt lat="49.86773" lon="2.32855">
        <ele>55.2</ele>
        <time>2023-04-06T13:38:16Z</time>
      </trkpt>
      <trkpt lat="49.86774" lon="2.32857">
        <ele>55.2</ele>
        <time>2023-04-06T13:38:17Z</time>
      </trkpt>
      <trkpt lat="49.86774" lon="2.3286">
        <ele>55.1</ele>
        <time>2023-04-06T13:38:18Z</time>
      </trkpt>
      <trkpt lat="49.86774" lon="2.32862">
        <ele>55.1</ele>
        <time>2023-04-06T13:38:19Z</time>
      </trkpt>
      <trkpt lat="49.86774" lon="2.32863">
        <ele>55</ele>
        <time>2023-04-06T13:38:20Z</time>
      </trkpt>
      <trkpt lat="49.86775" lon="2.32865">
        <ele>55</ele>
        <time>2023-04-06T13:38:21Z</time>
      </trkpt>
      <trkpt lat="49.86775" lon="2.32867">
        <ele>55</ele>
        <time>2023-04-06T13:38:22Z</time>
      </trkpt>
      <trkpt lat="49.86776" lon="2.32869">
        <ele>54.8</ele>
        <time>2023-04-06T13:38:24Z</time>
      </trkpt>
      <trkpt lat="49.86776" lon="2.32871">
        <ele>54.8</ele>
        <time>2023-04-06T13:38:25Z</time>
      </trkpt>
      <trkpt lat="49.86776" lon="2.32873">
        <ele>54.6</ele>
        <time>2023-04-06T13:38:26Z</time>
      </trkpt>
      <trkpt lat="49.86777" lon="2.32875">
        <ele>54.6</ele>
        <time>2023-04-06T13:38:27Z</time>
      </trkpt>
      <trkpt lat="49.86778" lon="2.32877">
        <ele>54.5</ele>
        <time>2023-04-06T13:38:28Z</time>
      </trkpt>
      <trkpt lat="49.86778" lon="2.32878">
        <ele>54.4</ele>
        <time>2023-04-06T13:38:29Z</time>
      </trkpt>
      <trkpt lat="49.8678" lon="2.32881">
        <ele>54.3</ele>
        <time>2023-04-06T13:38:30Z</time>
      </trkpt>
      <trkpt lat="49.8678" lon="2.32883">
        <ele>54.3</ele>
        <time>2023-04-06T13:38:31Z</time>
      </trkpt>
      <trkpt lat="49.86781" lon="2.32885">
        <ele>54.1</ele>
        <time>2023-04-06T13:38:32Z</time>
      </trkpt>
      <trkpt lat="49.86783" lon="2.32889">
        <ele>54</ele>
        <time>2023-04-06T13:38:34Z</time>
      </trkpt>
      <trkpt lat="49.86783" lon="2.32891">
        <ele>54</ele>
        <time>2023-04-06T13:38:35Z</time>
      </trkpt>
      <trkpt lat="49.86784" lon="2.32892">
        <ele>54</ele>
        <time>2023-04-06T13:38:36Z</time>
      </trkpt>
      <trkpt lat="49.86784" lon="2.32894">
        <ele>53.8</ele>
        <time>2023-04-06T13:38:37Z</time>
      </trkpt>
      <trkpt lat="49.86786" lon="2.32896">
        <ele>53.8</ele>
        <time>2023-04-06T13:38:38Z</time>
      </trkpt>
      <trkpt lat="49.86787" lon="2.32897">
        <ele>53.7</ele>
        <time>2023-04-06T13:38:39Z</time>
      </trkpt>
      <trkpt lat="49.86788" lon="2.32898">
        <ele>53.6</ele>
        <time>2023-04-06T13:38:40Z</time>
      </trkpt>
      <trkpt lat="49.86788" lon="2.329">
        <ele>53.6</ele>
        <time>2023-04-06T13:38:41Z</time>
      </trkpt>
      <trkpt lat="49.86789" lon="2.32902">
        <ele>53.5</ele>
        <time>2023-04-06T13:38:43Z</time>
      </trkpt>
      <trkpt lat="49.86792" lon="2.32902">
        <ele>53.4</ele>
        <time>2023-04-06T13:38:44Z</time>
      </trkpt>
      <trkpt lat="49.86793" lon="2.32903">
        <ele>53.3</ele>
        <time>2023-04-06T13:38:45Z</time>
      </trkpt>
      <trkpt lat="49.86793" lon="2.32906">
        <ele>53.3</ele>
        <time>2023-04-06T13:38:46Z</time>
      </trkpt>
      <trkpt lat="49.86793" lon="2.32908">
        <ele>53.2</ele>
        <time>2023-04-06T13:38:48Z</time>
      </trkpt>
      <trkpt lat="49.86797" lon="2.32909">
        <ele>53.1</ele>
        <time>2023-04-06T13:38:49Z</time>
      </trkpt>
      <trkpt lat="49.86798" lon="2.32908">
        <ele>53.1</ele>
        <time>2023-04-06T13:38:50Z</time>
      </trkpt>
      <trkpt lat="49.86799" lon="2.3291">
        <ele>52.9</ele>
        <time>2023-04-06T13:38:51Z</time>
      </trkpt>
      <trkpt lat="49.86799" lon="2.32912">
        <ele>52.9</ele>
        <time>2023-04-06T13:38:52Z</time>
      </trkpt>
      <trkpt lat="49.868" lon="2.32916">
        <ele>52.8</ele>
        <time>2023-04-06T13:38:53Z</time>
      </trkpt>
      <trkpt lat="49.868" lon="2.32918">
        <ele>52.8</ele>
        <time>2023-04-06T13:38:54Z</time>
      </trkpt>
      <trkpt lat="49.868" lon="2.32918">
        <ele>52.8</ele>
        <time>2023-04-06T13:38:55Z</time>
      </trkpt>
      <trkpt lat="49.868" lon="2.3292">
        <ele>52.7</ele>
        <time>2023-04-06T13:38:56Z</time>
      </trkpt>
      <trkpt lat="49.86801" lon="2.32922">
        <ele>52.6</ele>
        <time>2023-04-06T13:38:57Z</time>
      </trkpt>
      <trkpt lat="49.868" lon="2.32927">
        <ele>52.6</ele>
        <time>2023-04-06T13:38:58Z</time>
      </trkpt>
      <trkpt lat="49.86801" lon="2.32928">
        <ele>52.4</ele>
        <time>2023-04-06T13:38:59Z</time>
      </trkpt>
      <trkpt lat="49.86801" lon="2.32931">
        <ele>52.4</ele>
        <time>2023-04-06T13:39:01Z</time>
      </trkpt>
      <trkpt lat="49.86801" lon="2.32933">
        <ele>52.3</ele>
        <time>2023-04-06T13:39:02Z</time>
      </trkpt>
      <trkpt lat="49.86801" lon="2.32938">
        <ele>52.2</ele>
        <time>2023-04-06T13:39:03Z</time>
      </trkpt>
      <trkpt lat="49.86801" lon="2.3294">
        <ele>52.2</ele>
        <time>2023-04-06T13:39:04Z</time>
      </trkpt>
      <trkpt lat="49.86801" lon="2.3294">
        <ele>52.2</ele>
        <time>2023-04-06T13:39:05Z</time>
      </trkpt>
      <trkpt lat="49.86801" lon="2.32942">
        <ele>52.2</ele>
        <time>2023-04-06T13:39:06Z</time>
      </trkpt>
      <trkpt lat="49.86801" lon="2.32945">
        <ele>52.1</ele>
        <time>2023-04-06T13:39:07Z</time>
      </trkpt>
      <trkpt lat="49.86801" lon="2.32947">
        <ele>52.1</ele>
        <time>2023-04-06T13:39:08Z</time>
      </trkpt>
      <trkpt lat="49.86801" lon="2.32949">
        <ele>52</ele>
        <time>2023-04-06T13:39:09Z</time>
      </trkpt>
      <trkpt lat="49.86801" lon="2.32951">
        <ele>52</ele>
        <time>2023-04-06T13:39:10Z</time>
      </trkpt>
      <trkpt lat="49.86801" lon="2.32953">
        <ele>52</ele>
        <time>2023-04-06T13:39:11Z</time>
      </trkpt>
      <trkpt lat="49.868" lon="2.32956">
        <ele>52</ele>
        <time>2023-04-06T13:39:13Z</time>
      </trkpt>
      <trkpt lat="49.86801" lon="2.3296">
        <ele>51.9</ele>
        <time>2023-04-06T13:39:14Z</time>
      </trkpt>
      <trkpt lat="49.86802" lon="2.3296">
        <ele>51.9</ele>
        <time>2023-04-06T13:39:15Z</time>
      </trkpt>
      <trkpt lat="49.86802" lon="2.32961">
        <ele>51.9</ele>
        <time>2023-04-06T13:39:16Z</time>
      </trkpt>
      <trkpt lat="49.86802" lon="2.32963">
        <ele>51.8</ele>
        <time>2023-04-06T13:39:17Z</time>
      </trkpt>
      <trkpt lat="49.86801" lon="2.32965">
        <ele>51.8</ele>
        <time>2023-04-06T13:39:18Z</time>
      </trkpt>
      <trkpt lat="49.86802" lon="2.32969">
        <ele>51.8</ele>
        <time>2023-04-06T13:39:19Z</time>
      </trkpt>
      <trkpt lat="49.86802" lon="2.32971">
        <ele>51.7</ele>
        <time>2023-04-06T13:39:21Z</time>
      </trkpt>
      <trkpt lat="49.86802" lon="2.32973">
        <ele>51.7</ele>
        <time>2023-04-06T13:39:22Z</time>
      </trkpt>
      <trkpt lat="49.86802" lon="2.32975">
        <ele>51.7</ele>
        <time>2023-04-06T13:39:23Z</time>
      </trkpt>
      <trkpt lat="49.86803" lon="2.32976">
        <ele>51.7</ele>
        <time>2023-04-06T13:39:24Z</time>
      </trkpt>
      <trkpt lat="49.86803" lon="2.32979">
        <ele>51.5</ele>
        <time>2023-04-06T13:39:25Z</time>
      </trkpt>
      <trkpt lat="49.86804" lon="2.32981">
        <ele>51.5</ele>
        <time>2023-04-06T13:39:26Z</time>
      </trkpt>
      <trkpt lat="49.86804" lon="2.32982">
        <ele>51.5</ele>
        <time>2023-04-06T13:39:27Z</time>
      </trkpt>
      <trkpt lat="49.86805" lon="2.32986">
        <ele>51.5</ele>
        <time>2023-04-06T13:39:28Z</time>
      </trkpt>
      <trkpt lat="49.86806" lon="2.32987">
        <ele>51.4</ele>
        <time>2023-04-06T13:39:29Z</time>
      </trkpt>
      <trkpt lat="49.86807" lon="2.32988">
        <ele>51.3</ele>
        <time>2023-04-06T13:39:31Z</time>
      </trkpt>
      <trkpt lat="49.86807" lon="2.3299">
        <ele>51.3</ele>
        <time>2023-04-06T13:39:32Z</time>
      </trkpt>
      <trkpt lat="49.86808" lon="2.32992">
        <ele>51.3</ele>
        <time>2023-04-06T13:39:33Z</time>
      </trkpt>
      <trkpt lat="49.86809" lon="2.32993">
        <ele>51.2</ele>
        <time>2023-04-06T13:39:34Z</time>
      </trkpt>
      <trkpt lat="49.8681" lon="2.32996">
        <ele>51.2</ele>
        <time>2023-04-06T13:39:35Z</time>
      </trkpt>
      <trkpt lat="49.86812" lon="2.32998">
        <ele>51</ele>
        <time>2023-04-06T13:39:36Z</time>
      </trkpt>
      <trkpt lat="49.86812" lon="2.33">
        <ele>51</ele>
        <time>2023-04-06T13:39:37Z</time>
      </trkpt>
      <trkpt lat="49.86813" lon="2.33001">
        <ele>51</ele>
        <time>2023-04-06T13:39:38Z</time>
      </trkpt>
      <trkpt lat="49.86816" lon="2.33003">
        <ele>50.9</ele>
        <time>2023-04-06T13:39:40Z</time>
      </trkpt>
      <trkpt lat="49.86817" lon="2.33006">
        <ele>50.7</ele>
        <time>2023-04-06T13:39:41Z</time>
      </trkpt>
      <trkpt lat="49.86818" lon="2.33007">
        <ele>50.7</ele>
        <time>2023-04-06T13:39:42Z</time>
      </trkpt>
      <trkpt lat="49.86818" lon="2.33009">
        <ele>50.7</ele>
        <time>2023-04-06T13:39:43Z</time>
      </trkpt>
      <trkpt lat="49.86819" lon="2.33013">
        <ele>50.7</ele>
        <time>2023-04-06T13:39:44Z</time>
      </trkpt>
      <trkpt lat="49.8682" lon="2.33014">
        <ele>50.5</ele>
        <time>2023-04-06T13:39:46Z</time>
      </trkpt>
      <trkpt lat="49.8682" lon="2.33015">
        <ele>50.5</ele>
        <time>2023-04-06T13:39:47Z</time>
      </trkpt>
      <trkpt lat="49.86821" lon="2.33017">
        <ele>50.5</ele>
        <time>2023-04-06T13:39:48Z</time>
      </trkpt>
      <trkpt lat="49.86821" lon="2.33018">
        <ele>50.5</ele>
        <time>2023-04-06T13:39:49Z</time>
      </trkpt>
      <trkpt lat="49.86824" lon="2.33019">
        <ele>50.4</ele>
        <time>2023-04-06T13:39:50Z</time>
      </trkpt>
      <trkpt lat="49.86824" lon="2.3302">
        <ele>50.4</ele>
        <time>2023-04-06T13:39:51Z</time>
      </trkpt>
      <trkpt lat="49.86825" lon="2.33022">
        <ele>50.3</ele>
        <time>2023-04-06T13:39:52Z</time>
      </trkpt>
      <trkpt lat="49.86825" lon="2.33025">
        <ele>50.3</ele>
        <time>2023-04-06T13:39:54Z</time>
      </trkpt>
      <trkpt lat="49.86822" lon="2.33028">
        <ele>50.4</ele>
        <time>2023-04-06T13:39:55Z</time>
      </trkpt>
      <trkpt lat="49.8682" lon="2.33029">
        <ele>50.4</ele>
        <time>2023-04-06T13:39:56Z</time>
      </trkpt>
      <trkpt lat="49.86819" lon="2.33031">
        <ele>50.4</ele>
        <time>2023-04-06T13:39:57Z</time>
      </trkpt>
      <trkpt lat="49.8682" lon="2.33033">
        <ele>50.4</ele>
        <time>2023-04-06T13:39:58Z</time>
      </trkpt>
      <trkpt lat="49.8682" lon="2.33035">
        <ele>50.2</ele>
        <time>2023-04-06T13:39:59Z</time>
      </trkpt>
      <trkpt lat="49.86821" lon="2.33037">
        <ele>50.2</ele>
        <time>2023-04-06T13:40:00Z</time>
      </trkpt>
      <trkpt lat="49.86821" lon="2.3304">
        <ele>50.1</ele>
        <time>2023-04-06T13:40:01Z</time>
      </trkpt>
      <trkpt lat="49.86822" lon="2.33044">
        <ele>50</ele>
        <time>2023-04-06T13:40:02Z</time>
      </trkpt>
      <trkpt lat="49.86822" lon="2.33046">
        <ele>50</ele>
        <time>2023-04-06T13:40:04Z</time>
      </trkpt>
      <trkpt lat="49.86823" lon="2.33048">
        <ele>49.9</ele>
        <time>2023-04-06T13:40:05Z</time>
      </trkpt>
      <trkpt lat="49.86823" lon="2.3305">
        <ele>49.7</ele>
        <time>2023-04-06T13:40:06Z</time>
      </trkpt>
      <trkpt lat="49.86823" lon="2.33052">
        <ele>49.6</ele>
        <time>2023-04-06T13:40:07Z</time>
      </trkpt>
      <trkpt lat="49.86824" lon="2.33054">
        <ele>49.6</ele>
        <time>2023-04-06T13:40:08Z</time>
      </trkpt>
      <trkpt lat="49.86824" lon="2.33056">
        <ele>49.6</ele>
        <time>2023-04-06T13:40:09Z</time>
      </trkpt>
      <trkpt lat="49.86825" lon="2.33058">
        <ele>49.4</ele>
        <time>2023-04-06T13:40:10Z</time>
      </trkpt>
      <trkpt lat="49.86825" lon="2.3306">
        <ele>49.3</ele>
        <time>2023-04-06T13:40:11Z</time>
      </trkpt>
      <trkpt lat="49.86826" lon="2.33062">
        <ele>49.1</ele>
        <time>2023-04-06T13:40:12Z</time>
      </trkpt>
      <trkpt lat="49.86828" lon="2.33064">
        <ele>49.1</ele>
        <time>2023-04-06T13:40:13Z</time>
      </trkpt>
      <trkpt lat="49.86829" lon="2.33066">
        <ele>48.7</ele>
        <time>2023-04-06T13:40:14Z</time>
      </trkpt>
      <trkpt lat="49.86829" lon="2.33068">
        <ele>48.7</ele>
        <time>2023-04-06T13:40:15Z</time>
      </trkpt>
      <trkpt lat="49.8683" lon="2.3307">
        <ele>48.5</ele>
        <time>2023-04-06T13:40:16Z</time>
      </trkpt>
      <trkpt lat="49.86832" lon="2.33075">
        <ele>48.1</ele>
        <time>2023-04-06T13:40:18Z</time>
      </trkpt>
      <trkpt lat="49.86832" lon="2.33075">
        <ele>48.1</ele>
        <time>2023-04-06T13:40:19Z</time>
      </trkpt>
      <trkpt lat="49.86833" lon="2.33077">
        <ele>48.1</ele>
        <time>2023-04-06T13:40:20Z</time>
      </trkpt>
      <trkpt lat="49.86834" lon="2.33079">
        <ele>47.9</ele>
        <time>2023-04-06T13:40:21Z</time>
      </trkpt>
      <trkpt lat="49.86834" lon="2.33083">
        <ele>47.5</ele>
        <time>2023-04-06T13:40:22Z</time>
      </trkpt>
      <trkpt lat="49.86834" lon="2.33083">
        <ele>47.5</ele>
        <time>2023-04-06T13:40:23Z</time>
      </trkpt>
      <trkpt lat="49.86835" lon="2.33086">
        <ele>47.5</ele>
        <time>2023-04-06T13:40:25Z</time>
      </trkpt>
      <trkpt lat="49.86835" lon="2.33088">
        <ele>47.3</ele>
        <time>2023-04-06T13:40:26Z</time>
      </trkpt>
      <trkpt lat="49.86835" lon="2.3309">
        <ele>47.3</ele>
        <time>2023-04-06T13:40:27Z</time>
      </trkpt>
      <trkpt lat="49.86836" lon="2.33092">
        <ele>47</ele>
        <time>2023-04-06T13:40:28Z</time>
      </trkpt>
      <trkpt lat="49.86836" lon="2.33093">
        <ele>47</ele>
        <time>2023-04-06T13:40:29Z</time>
      </trkpt>
      <trkpt lat="49.86837" lon="2.33095">
        <ele>46.7</ele>
        <time>2023-04-06T13:40:30Z</time>
      </trkpt>
      <trkpt lat="49.86838" lon="2.33098">
        <ele>46.7</ele>
        <time>2023-04-06T13:40:31Z</time>
      </trkpt>
      <trkpt lat="49.86838" lon="2.33099">
        <ele>46.7</ele>
        <time>2023-04-06T13:40:33Z</time>
      </trkpt>
      <trkpt lat="49.86839" lon="2.331">
        <ele>46.4</ele>
        <time>2023-04-06T13:40:34Z</time>
      </trkpt>
      <trkpt lat="49.8684" lon="2.33102">
        <ele>46.3</ele>
        <time>2023-04-06T13:40:35Z</time>
      </trkpt>
      <trkpt lat="49.86841" lon="2.33104">
        <ele>46.1</ele>
        <time>2023-04-06T13:40:36Z</time>
      </trkpt>
      <trkpt lat="49.86843" lon="2.33108">
        <ele>45.8</ele>
        <time>2023-04-06T13:40:37Z</time>
      </trkpt>
      <trkpt lat="49.86843" lon="2.3311">
        <ele>45.8</ele>
        <time>2023-04-06T13:40:38Z</time>
      </trkpt>
      <trkpt lat="49.86843" lon="2.33111">
        <ele>45.8</ele>
        <time>2023-04-06T13:40:40Z</time>
      </trkpt>
      <trkpt lat="49.86843" lon="2.33113">
        <ele>45.6</ele>
        <time>2023-04-06T13:40:41Z</time>
      </trkpt>
      <trkpt lat="49.86844" lon="2.33114">
        <ele>45.6</ele>
        <time>2023-04-06T13:40:42Z</time>
      </trkpt>
      <trkpt lat="49.86844" lon="2.33117">
        <ele>45.4</ele>
        <time>2023-04-06T13:40:43Z</time>
      </trkpt>
      <trkpt lat="49.86845" lon="2.33118">
        <ele>45.3</ele>
        <time>2023-04-06T13:40:44Z</time>
      </trkpt>
      <trkpt lat="49.86845" lon="2.33119">
        <ele>45.3</ele>
        <time>2023-04-06T13:40:45Z</time>
      </trkpt>
      <trkpt lat="49.86846" lon="2.33121">
        <ele>45.1</ele>
        <time>2023-04-06T13:40:46Z</time>
      </trkpt>
      <trkpt lat="49.86846" lon="2.33123">
        <ele>45.1</ele>
        <time>2023-04-06T13:40:47Z</time>
      </trkpt>
      <trkpt lat="49.86847" lon="2.33126">
        <ele>44.9</ele>
        <time>2023-04-06T13:40:48Z</time>
      </trkpt>
      <trkpt lat="49.86847" lon="2.33127">
        <ele>44.9</ele>
        <time>2023-04-06T13:40:49Z</time>
      </trkpt>
      <trkpt lat="49.86848" lon="2.33128">
        <ele>44.9</ele>
        <time>2023-04-06T13:40:50Z</time>
      </trkpt>
      <trkpt lat="49.86848" lon="2.33131">
        <ele>44.7</ele>
        <time>2023-04-06T13:40:51Z</time>
      </trkpt>
      <trkpt lat="49.86849" lon="2.33132">
        <ele>44.7</ele>
        <time>2023-04-06T13:40:53Z</time>
      </trkpt>
      <trkpt lat="49.86849" lon="2.33133">
        <ele>44.6</ele>
        <time>2023-04-06T13:40:54Z</time>
      </trkpt>
      <trkpt lat="49.86849" lon="2.33135">
        <ele>44.6</ele>
        <time>2023-04-06T13:40:55Z</time>
      </trkpt>
      <trkpt lat="49.86849" lon="2.33137">
        <ele>44.6</ele>
        <time>2023-04-06T13:40:57Z</time>
      </trkpt>
      <trkpt lat="49.86849" lon="2.33139">
        <ele>44.4</ele>
        <time>2023-04-06T13:40:58Z</time>
      </trkpt>
      <trkpt lat="49.8685" lon="2.33141">
        <ele>44.4</ele>
        <time>2023-04-06T13:40:59Z</time>
      </trkpt>
      <trkpt lat="49.8685" lon="2.33142">
        <ele>44.3</ele>
        <time>2023-04-06T13:41:00Z</time>
      </trkpt>
      <trkpt lat="49.86851" lon="2.33143">
        <ele>44.3</ele>
        <time>2023-04-06T13:41:01Z</time>
      </trkpt>
      <trkpt lat="49.86853" lon="2.33144">
        <ele>44.3</ele>
        <time>2023-04-06T13:41:02Z</time>
      </trkpt>
      <trkpt lat="49.86854" lon="2.33145">
        <ele>44.3</ele>
        <time>2023-04-06T13:41:03Z</time>
      </trkpt>
      <trkpt lat="49.86856" lon="2.33147">
        <ele>44.2</ele>
        <time>2023-04-06T13:41:04Z</time>
      </trkpt>
      <trkpt lat="49.86858" lon="2.33148">
        <ele>44.2</ele>
        <time>2023-04-06T13:41:06Z</time>
      </trkpt>
      <trkpt lat="49.86859" lon="2.33149">
        <ele>44.2</ele>
        <time>2023-04-06T13:41:07Z</time>
      </trkpt>
      <trkpt lat="49.8686" lon="2.3315">
        <ele>44.2</ele>
        <time>2023-04-06T13:41:08Z</time>
      </trkpt>
      <trkpt lat="49.86861" lon="2.3315">
        <ele>44.2</ele>
        <time>2023-04-06T13:41:09Z</time>
      </trkpt>
      <trkpt lat="49.86862" lon="2.3315">
        <ele>44.2</ele>
        <time>2023-04-06T13:41:10Z</time>
      </trkpt>
      <trkpt lat="49.86863" lon="2.3315">
        <ele>44.2</ele>
        <time>2023-04-06T13:41:11Z</time>
      </trkpt>
      <trkpt lat="49.86864" lon="2.3315">
        <ele>44.3</ele>
        <time>2023-04-06T13:41:12Z</time>
      </trkpt>
      <trkpt lat="49.86866" lon="2.3315">
        <ele>44.3</ele>
        <time>2023-04-06T13:41:13Z</time>
      </trkpt>
      <trkpt lat="49.86867" lon="2.3315">
        <ele>44.3</ele>
        <time>2023-04-06T13:41:15Z</time>
      </trkpt>
      <trkpt lat="49.86868" lon="2.3315">
        <ele>44.3</ele>
        <time>2023-04-06T13:41:16Z</time>
      </trkpt>
      <trkpt lat="49.86871" lon="2.3315">
        <ele>44.3</ele>
        <time>2023-04-06T13:41:17Z</time>
      </trkpt>
      <trkpt lat="49.86873" lon="2.33151">
        <ele>44.3</ele>
        <time>2023-04-06T13:41:18Z</time>
      </trkpt>
      <trkpt lat="49.86875" lon="2.33152">
        <ele>44.3</ele>
        <time>2023-04-06T13:41:19Z</time>
      </trkpt>
      <trkpt lat="49.86876" lon="2.33152">
        <ele>44.3</ele>
        <time>2023-04-06T13:41:20Z</time>
      </trkpt>
      <trkpt lat="49.86877" lon="2.33152">
        <ele>44.3</ele>
        <time>2023-04-06T13:41:21Z</time>
      </trkpt>
      <trkpt lat="49.86877" lon="2.33154">
        <ele>44.2</ele>
        <time>2023-04-06T13:41:22Z</time>
      </trkpt>
      <trkpt lat="49.86877" lon="2.33156">
        <ele>44.2</ele>
        <time>2023-04-06T13:41:23Z</time>
      </trkpt>
      <trkpt lat="49.86878" lon="2.33159">
        <ele>44.1</ele>
        <time>2023-04-06T13:41:24Z</time>
      </trkpt>
      <trkpt lat="49.86878" lon="2.33161">
        <ele>44.1</ele>
        <time>2023-04-06T13:41:26Z</time>
      </trkpt>
      <trkpt lat="49.86879" lon="2.33163">
        <ele>44</ele>
        <time>2023-04-06T13:41:27Z</time>
      </trkpt>
      <trkpt lat="49.8688" lon="2.33164">
        <ele>44</ele>
        <time>2023-04-06T13:41:28Z</time>
      </trkpt>
      <trkpt lat="49.86881" lon="2.33166">
        <ele>43.9</ele>
        <time>2023-04-06T13:41:29Z</time>
      </trkpt>
      <trkpt lat="49.86882" lon="2.33168">
        <ele>43.9</ele>
        <time>2023-04-06T13:41:30Z</time>
      </trkpt>
      <trkpt lat="49.86883" lon="2.33171">
        <ele>43.8</ele>
        <time>2023-04-06T13:41:31Z</time>
      </trkpt>
      <trkpt lat="49.86883" lon="2.33173">
        <ele>43.8</ele>
        <time>2023-04-06T13:41:32Z</time>
      </trkpt>
      <trkpt lat="49.86884" lon="2.33175">
        <ele>43.7</ele>
        <time>2023-04-06T13:41:33Z</time>
      </trkpt>
      <trkpt lat="49.86884" lon="2.33177">
        <ele>43.6</ele>
        <time>2023-04-06T13:41:34Z</time>
      </trkpt>
      <trkpt lat="49.86885" lon="2.33182">
        <ele>43.5</ele>
        <time>2023-04-06T13:41:36Z</time>
      </trkpt>
      <trkpt lat="49.86886" lon="2.33183">
        <ele>43.5</ele>
        <time>2023-04-06T13:41:37Z</time>
      </trkpt>
      <trkpt lat="49.86886" lon="2.33185">
        <ele>43.4</ele>
        <time>2023-04-06T13:41:38Z</time>
      </trkpt>
      <trkpt lat="49.86887" lon="2.33188">
        <ele>43.4</ele>
        <time>2023-04-06T13:41:39Z</time>
      </trkpt>
      <trkpt lat="49.86887" lon="2.33191">
        <ele>43.3</ele>
        <time>2023-04-06T13:41:40Z</time>
      </trkpt>
      <trkpt lat="49.86887" lon="2.33193">
        <ele>43.2</ele>
        <time>2023-04-06T13:41:41Z</time>
      </trkpt>
      <trkpt lat="49.86888" lon="2.33196">
        <ele>43.2</ele>
        <time>2023-04-06T13:41:43Z</time>
      </trkpt>
      <trkpt lat="49.86888" lon="2.33198">
        <ele>43.1</ele>
        <time>2023-04-06T13:41:44Z</time>
      </trkpt>
      <trkpt lat="49.86888" lon="2.33203">
        <ele>43</ele>
        <time>2023-04-06T13:41:45Z</time>
      </trkpt>
      <trkpt lat="49.86888" lon="2.33204">
        <ele>43</ele>
        <time>2023-04-06T13:41:46Z</time>
      </trkpt>
      <trkpt lat="49.86888" lon="2.33206">
        <ele>42.9</ele>
        <time>2023-04-06T13:41:47Z</time>
      </trkpt>
      <trkpt lat="49.86889" lon="2.33208">
        <ele>42.9</ele>
        <time>2023-04-06T13:41:48Z</time>
      </trkpt>
      <trkpt lat="49.8689" lon="2.33212">
        <ele>42.8</ele>
        <time>2023-04-06T13:41:49Z</time>
      </trkpt>
      <trkpt lat="49.86891" lon="2.33213">
        <ele>42.7</ele>
        <time>2023-04-06T13:41:51Z</time>
      </trkpt>
      <trkpt lat="49.86891" lon="2.33214">
        <ele>42.7</ele>
        <time>2023-04-06T13:41:52Z</time>
      </trkpt>
      <trkpt lat="49.86891" lon="2.33216">
        <ele>42.7</ele>
        <time>2023-04-06T13:41:53Z</time>
      </trkpt>
      <trkpt lat="49.86892" lon="2.33217">
        <ele>42.6</ele>
        <time>2023-04-06T13:41:54Z</time>
      </trkpt>
      <trkpt lat="49.86893" lon="2.33221">
        <ele>42.5</ele>
        <time>2023-04-06T13:41:55Z</time>
      </trkpt>
      <trkpt lat="49.86893" lon="2.33222">
        <ele>42.5</ele>
        <time>2023-04-06T13:41:56Z</time>
      </trkpt>
      <trkpt lat="49.86893" lon="2.33223">
        <ele>42.5</ele>
        <time>2023-04-06T13:41:57Z</time>
      </trkpt>
      <trkpt lat="49.86894" lon="2.33225">
        <ele>42.4</ele>
        <time>2023-04-06T13:41:59Z</time>
      </trkpt>
      <trkpt lat="49.86894" lon="2.33228">
        <ele>42.4</ele>
        <time>2023-04-06T13:42:00Z</time>
      </trkpt>
      <trkpt lat="49.86896" lon="2.3323">
        <ele>42.3</ele>
        <time>2023-04-06T13:42:01Z</time>
      </trkpt>
      <trkpt lat="49.86897" lon="2.33231">
        <ele>42.3</ele>
        <time>2023-04-06T13:42:02Z</time>
      </trkpt>
      <trkpt lat="49.86897" lon="2.33233">
        <ele>42.2</ele>
        <time>2023-04-06T13:42:03Z</time>
      </trkpt>
      <trkpt lat="49.86898" lon="2.33236">
        <ele>42.2</ele>
        <time>2023-04-06T13:42:04Z</time>
      </trkpt>
      <trkpt lat="49.86898" lon="2.33239">
        <ele>42.1</ele>
        <time>2023-04-06T13:42:05Z</time>
      </trkpt>
      <trkpt lat="49.86899" lon="2.33241">
        <ele>42.1</ele>
        <time>2023-04-06T13:42:07Z</time>
      </trkpt>
      <trkpt lat="49.86899" lon="2.33243">
        <ele>42</ele>
        <time>2023-04-06T13:42:08Z</time>
      </trkpt>
      <trkpt lat="49.869" lon="2.33245">
        <ele>42</ele>
        <time>2023-04-06T13:42:09Z</time>
      </trkpt>
      <trkpt lat="49.869" lon="2.33249">
        <ele>41.9</ele>
        <time>2023-04-06T13:42:10Z</time>
      </trkpt>
      <trkpt lat="49.86901" lon="2.3325">
        <ele>41.9</ele>
        <time>2023-04-06T13:42:11Z</time>
      </trkpt>
      <trkpt lat="49.86901" lon="2.33253">
        <ele>41.9</ele>
        <time>2023-04-06T13:42:12Z</time>
      </trkpt>
      <trkpt lat="49.86902" lon="2.33254">
        <ele>41.8</ele>
        <time>2023-04-06T13:42:13Z</time>
      </trkpt>
      <trkpt lat="49.86902" lon="2.33255">
        <ele>41.8</ele>
        <time>2023-04-06T13:42:14Z</time>
      </trkpt>
      <trkpt lat="49.86901" lon="2.33257">
        <ele>41.8</ele>
        <time>2023-04-06T13:42:15Z</time>
      </trkpt>
      <trkpt lat="49.86902" lon="2.33258">
        <ele>41.8</ele>
        <time>2023-04-06T13:42:16Z</time>
      </trkpt>
      <trkpt lat="49.86902" lon="2.3326">
        <ele>41.7</ele>
        <time>2023-04-06T13:42:17Z</time>
      </trkpt>
      <trkpt lat="49.86903" lon="2.33263">
        <ele>41.7</ele>
        <time>2023-04-06T13:42:19Z</time>
      </trkpt>
      <trkpt lat="49.86904" lon="2.33265">
        <ele>41.6</ele>
        <time>2023-04-06T13:42:20Z</time>
      </trkpt>
      <trkpt lat="49.86904" lon="2.33266">
        <ele>41.6</ele>
        <time>2023-04-06T13:42:21Z</time>
      </trkpt>
      <trkpt lat="49.86904" lon="2.33267">
        <ele>41.6</ele>
        <time>2023-04-06T13:42:22Z</time>
      </trkpt>
      <trkpt lat="49.86905" lon="2.33269">
        <ele>41.6</ele>
        <time>2023-04-06T13:42:23Z</time>
      </trkpt>
      <trkpt lat="49.86905" lon="2.33272">
        <ele>41.5</ele>
        <time>2023-04-06T13:42:24Z</time>
      </trkpt>
      <trkpt lat="49.86905" lon="2.33273">
        <ele>41.5</ele>
        <time>2023-04-06T13:42:26Z</time>
      </trkpt>
      <trkpt lat="49.86905" lon="2.33275">
        <ele>41.4</ele>
        <time>2023-04-06T13:42:27Z</time>
      </trkpt>
      <trkpt lat="49.86906" lon="2.33277">
        <ele>41.4</ele>
        <time>2023-04-06T13:42:28Z</time>
      </trkpt>
      <trkpt lat="49.86907" lon="2.33279">
        <ele>41.4</ele>
        <time>2023-04-06T13:42:29Z</time>
      </trkpt>
      <trkpt lat="49.86907" lon="2.33281">
        <ele>41.3</ele>
        <time>2023-04-06T13:42:30Z</time>
      </trkpt>
      <trkpt lat="49.86907" lon="2.33282">
        <ele>41.3</ele>
        <time>2023-04-06T13:42:31Z</time>
      </trkpt>
      <trkpt lat="49.86907" lon="2.33283">
        <ele>41.3</ele>
        <time>2023-04-06T13:42:32Z</time>
      </trkpt>
      <trkpt lat="49.86908" lon="2.33285">
        <ele>41.2</ele>
        <time>2023-04-06T13:42:34Z</time>
      </trkpt>
      <trkpt lat="49.86908" lon="2.33289">
        <ele>41.1</ele>
        <time>2023-04-06T13:42:35Z</time>
      </trkpt>
      <trkpt lat="49.86908" lon="2.33291">
        <ele>41.1</ele>
        <time>2023-04-06T13:42:36Z</time>
      </trkpt>
      <trkpt lat="49.86909" lon="2.33292">
        <ele>41.1</ele>
        <time>2023-04-06T13:42:37Z</time>
      </trkpt>
      <trkpt lat="49.8691" lon="2.33294">
        <ele>41</ele>
        <time>2023-04-06T13:42:38Z</time>
      </trkpt>
      <trkpt lat="49.86911" lon="2.33296">
        <ele>41</ele>
        <time>2023-04-06T13:42:39Z</time>
      </trkpt>
      <trkpt lat="49.8691" lon="2.33299">
        <ele>40.9</ele>
        <time>2023-04-06T13:42:40Z</time>
      </trkpt>
      <trkpt lat="49.8691" lon="2.33302">
        <ele>40.8</ele>
        <time>2023-04-06T13:42:42Z</time>
      </trkpt>
      <trkpt lat="49.8691" lon="2.33303">
        <ele>40.8</ele>
        <time>2023-04-06T13:42:43Z</time>
      </trkpt>
      <trkpt lat="49.86911" lon="2.33304">
        <ele>40.8</ele>
        <time>2023-04-06T13:42:44Z</time>
      </trkpt>
      <trkpt lat="49.86908" lon="2.33305">
        <ele>40.7</ele>
        <time>2023-04-06T13:42:45Z</time>
      </trkpt>
      <trkpt lat="49.86908" lon="2.33305">
        <ele>40.7</ele>
        <time>2023-04-06T13:42:46Z</time>
      </trkpt>
      <trkpt lat="49.86909" lon="2.33307">
        <ele>40.7</ele>
        <time>2023-04-06T13:42:47Z</time>
      </trkpt>
      <trkpt lat="49.8691" lon="2.33309">
        <ele>40.6</ele>
        <time>2023-04-06T13:42:49Z</time>
      </trkpt>
      <trkpt lat="49.86911" lon="2.3331">
        <ele>40.6</ele>
        <time>2023-04-06T13:42:50Z</time>
      </trkpt>
      <trkpt lat="49.86912" lon="2.33308">
        <ele>40.5</ele>
        <time>2023-04-06T13:42:51Z</time>
      </trkpt>
      <trkpt lat="49.86913" lon="2.33309">
        <ele>40.5</ele>
        <time>2023-04-06T13:42:52Z</time>
      </trkpt>
      <trkpt lat="49.86913" lon="2.33309">
        <ele>40.5</ele>
        <time>2023-04-06T13:42:53Z</time>
      </trkpt>
      <trkpt lat="49.86914" lon="2.33311">
        <ele>40.4</ele>
        <time>2023-04-06T13:42:54Z</time>
      </trkpt>
      <trkpt lat="49.86914" lon="2.33313">
        <ele>40.4</ele>
        <time>2023-04-06T13:42:55Z</time>
      </trkpt>
      <trkpt lat="49.86915" lon="2.33315">
        <ele>40.3</ele>
        <time>2023-04-06T13:42:57Z</time>
      </trkpt>
      <trkpt lat="49.86915" lon="2.33318">
        <ele>40.3</ele>
        <time>2023-04-06T13:42:58Z</time>
      </trkpt>
      <trkpt lat="49.86916" lon="2.33322">
        <ele>40.2</ele>
        <time>2023-04-06T13:42:59Z</time>
      </trkpt>
      <trkpt lat="49.86917" lon="2.33323">
        <ele>40.2</ele>
        <time>2023-04-06T13:43:00Z</time>
      </trkpt>
      <trkpt lat="49.86917" lon="2.33325">
        <ele>40.1</ele>
        <time>2023-04-06T13:43:01Z</time>
      </trkpt>
      <trkpt lat="49.86918" lon="2.33327">
        <ele>40.1</ele>
        <time>2023-04-06T13:43:02Z</time>
      </trkpt>
      <trkpt lat="49.8692" lon="2.33333">
        <ele>40</ele>
        <time>2023-04-06T13:43:04Z</time>
      </trkpt>
      <trkpt lat="49.8692" lon="2.33335">
        <ele>39.9</ele>
        <time>2023-04-06T13:43:05Z</time>
      </trkpt>
      <trkpt lat="49.8692" lon="2.33336">
        <ele>39.9</ele>
        <time>2023-04-06T13:43:06Z</time>
      </trkpt>
      <trkpt lat="49.86921" lon="2.33338">
        <ele>39.9</ele>
        <time>2023-04-06T13:43:08Z</time>
      </trkpt>
      <trkpt lat="49.86921" lon="2.3334">
        <ele>39.9</ele>
        <time>2023-04-06T13:43:09Z</time>
      </trkpt>
      <trkpt lat="49.86922" lon="2.33344">
        <ele>39.8</ele>
        <time>2023-04-06T13:43:10Z</time>
      </trkpt>
      <trkpt lat="49.86922" lon="2.33347">
        <ele>39.8</ele>
        <time>2023-04-06T13:43:11Z</time>
      </trkpt>
      <trkpt lat="49.86922" lon="2.33348">
        <ele>39.7</ele>
        <time>2023-04-06T13:43:12Z</time>
      </trkpt>
      <trkpt lat="49.86922" lon="2.3335">
        <ele>39.7</ele>
        <time>2023-04-06T13:43:13Z</time>
      </trkpt>
      <trkpt lat="49.86923" lon="2.33352">
        <ele>39.7</ele>
        <time>2023-04-06T13:43:14Z</time>
      </trkpt>
      <trkpt lat="49.86923" lon="2.33354">
        <ele>39.7</ele>
        <time>2023-04-06T13:43:15Z</time>
      </trkpt>
      <trkpt lat="49.86923" lon="2.33356">
        <ele>39.6</ele>
        <time>2023-04-06T13:43:16Z</time>
      </trkpt>
      <trkpt lat="49.86923" lon="2.33357">
        <ele>39.6</ele>
        <time>2023-04-06T13:43:17Z</time>
      </trkpt>
      <trkpt lat="49.86923" lon="2.33358">
        <ele>39.6</ele>
        <time>2023-04-06T13:43:18Z</time>
      </trkpt>
      <trkpt lat="49.86923" lon="2.3336">
        <ele>39.6</ele>
        <time>2023-04-06T13:43:20Z</time>
      </trkpt>
      <trkpt lat="49.86922" lon="2.33362">
        <ele>39.5</ele>
        <time>2023-04-06T13:43:21Z</time>
      </trkpt>
      <trkpt lat="49.86923" lon="2.33365">
        <ele>39.5</ele>
        <time>2023-04-06T13:43:22Z</time>
      </trkpt>
      <trkpt lat="49.86923" lon="2.33366">
        <ele>39.5</ele>
        <time>2023-04-06T13:43:23Z</time>
      </trkpt>
      <trkpt lat="49.86924" lon="2.33367">
        <ele>39.5</ele>
        <time>2023-04-06T13:43:24Z</time>
      </trkpt>
      <trkpt lat="49.86925" lon="2.33371">
        <ele>39.4</ele>
        <time>2023-04-06T13:43:25Z</time>
      </trkpt>
      <trkpt lat="49.86925" lon="2.33371">
        <ele>39.4</ele>
        <time>2023-04-06T13:43:26Z</time>
      </trkpt>
      <trkpt lat="49.86926" lon="2.33374">
        <ele>39.4</ele>
        <time>2023-04-06T13:43:27Z</time>
      </trkpt>
      <trkpt lat="49.86926" lon="2.33376">
        <ele>39.4</ele>
        <time>2023-04-06T13:43:28Z</time>
      </trkpt>
      <trkpt lat="49.86926" lon="2.33377">
        <ele>39.3</ele>
        <time>2023-04-06T13:43:29Z</time>
      </trkpt>
      <trkpt lat="49.86926" lon="2.33378">
        <ele>39.3</ele>
        <time>2023-04-06T13:43:31Z</time>
      </trkpt>
      <trkpt lat="49.86926" lon="2.3338">
        <ele>39.3</ele>
        <time>2023-04-06T13:43:32Z</time>
      </trkpt>
      <trkpt lat="49.86926" lon="2.33382">
        <ele>39.3</ele>
        <time>2023-04-06T13:43:33Z</time>
      </trkpt>
      <trkpt lat="49.86927" lon="2.33385">
        <ele>39.2</ele>
        <time>2023-04-06T13:43:34Z</time>
      </trkpt>
      <trkpt lat="49.86928" lon="2.33386">
        <ele>39.2</ele>
        <time>2023-04-06T13:43:35Z</time>
      </trkpt>
      <trkpt lat="49.86928" lon="2.33387">
        <ele>39.2</ele>
        <time>2023-04-06T13:43:36Z</time>
      </trkpt>
      <trkpt lat="49.86929" lon="2.33391">
        <ele>39.1</ele>
        <time>2023-04-06T13:43:37Z</time>
      </trkpt>
      <trkpt lat="49.86929" lon="2.33392">
        <ele>39.1</ele>
        <time>2023-04-06T13:43:38Z</time>
      </trkpt>
      <trkpt lat="49.8693" lon="2.33393">
        <ele>39.1</ele>
        <time>2023-04-06T13:43:39Z</time>
      </trkpt>
      <trkpt lat="49.8693" lon="2.33395">
        <ele>39.1</ele>
        <time>2023-04-06T13:43:40Z</time>
      </trkpt>
      <trkpt lat="49.8693" lon="2.33396">
        <ele>39.1</ele>
        <time>2023-04-06T13:43:42Z</time>
      </trkpt>
      <trkpt lat="49.8693" lon="2.33398">
        <ele>39</ele>
        <time>2023-04-06T13:43:43Z</time>
      </trkpt>
      <trkpt lat="49.8693" lon="2.33399">
        <ele>39</ele>
        <time>2023-04-06T13:43:44Z</time>
      </trkpt>
      <trkpt lat="49.8693" lon="2.33401">
        <ele>39</ele>
        <time>2023-04-06T13:43:45Z</time>
      </trkpt>
      <trkpt lat="49.86931" lon="2.33404">
        <ele>39</ele>
        <time>2023-04-06T13:43:47Z</time>
      </trkpt>
      <trkpt lat="49.86931" lon="2.33405">
        <ele>39</ele>
        <time>2023-04-06T13:43:48Z</time>
      </trkpt>
      <trkpt lat="49.86931" lon="2.33407">
        <ele>38.9</ele>
        <time>2023-04-06T13:43:49Z</time>
      </trkpt>
      <trkpt lat="49.86931" lon="2.33408">
        <ele>38.9</ele>
        <time>2023-04-06T13:43:50Z</time>
      </trkpt>
      <trkpt lat="49.86932" lon="2.33411">
        <ele>38.9</ele>
        <time>2023-04-06T13:43:52Z</time>
      </trkpt>
      <trkpt lat="49.86932" lon="2.33413">
        <ele>38.9</ele>
        <time>2023-04-06T13:43:53Z</time>
      </trkpt>
      <trkpt lat="49.86932" lon="2.33414">
        <ele>38.9</ele>
        <time>2023-04-06T13:43:54Z</time>
      </trkpt>
      <trkpt lat="49.86932" lon="2.33416">
        <ele>38.8</ele>
        <time>2023-04-06T13:43:55Z</time>
      </trkpt>
      <trkpt lat="49.86933" lon="2.33416">
        <ele>38.8</ele>
        <time>2023-04-06T13:43:56Z</time>
      </trkpt>
      <trkpt lat="49.86934" lon="2.33419">
        <ele>38.8</ele>
        <time>2023-04-06T13:43:58Z</time>
      </trkpt>
      <trkpt lat="49.86935" lon="2.33421">
        <ele>38.8</ele>
        <time>2023-04-06T13:43:59Z</time>
      </trkpt>
      <trkpt lat="49.86935" lon="2.33423">
        <ele>38.7</ele>
        <time>2023-04-06T13:44:00Z</time>
      </trkpt>
      <trkpt lat="49.86936" lon="2.33424">
        <ele>38.7</ele>
        <time>2023-04-06T13:44:01Z</time>
      </trkpt>
      <trkpt lat="49.86936" lon="2.33425">
        <ele>38.7</ele>
        <time>2023-04-06T13:44:02Z</time>
      </trkpt>
      <trkpt lat="49.86937" lon="2.33427">
        <ele>38.7</ele>
        <time>2023-04-06T13:44:03Z</time>
      </trkpt>
      <trkpt lat="49.86937" lon="2.33428">
        <ele>38.7</ele>
        <time>2023-04-06T13:44:04Z</time>
      </trkpt>
      <trkpt lat="49.86938" lon="2.33431">
        <ele>38.7</ele>
        <time>2023-04-06T13:44:06Z</time>
      </trkpt>
      <trkpt lat="49.86938" lon="2.33429">
        <ele>38.7</ele>
        <time>2023-04-06T13:44:07Z</time>
      </trkpt>
      <trkpt lat="49.86938" lon="2.33429">
        <ele>38.7</ele>
        <time>2023-04-06T13:44:08Z</time>
      </trkpt>
      <trkpt lat="49.86938" lon="2.33428">
        <ele>38.7</ele>
        <time>2023-04-06T13:44:09Z</time>
      </trkpt>
      <trkpt lat="49.86937" lon="2.33428">
        <ele>38.7</ele>
        <time>2023-04-06T13:44:10Z</time>
      </trkpt>
      <trkpt lat="49.86935" lon="2.33428">
        <ele>38.7</ele>
        <time>2023-04-06T13:44:11Z</time>
      </trkpt>
      <trkpt lat="49.86934" lon="2.33429">
        <ele>38.7</ele>
        <time>2023-04-06T13:44:13Z</time>
      </trkpt>
      <trkpt lat="49.86933" lon="2.3343">
        <ele>38.6</ele>
        <time>2023-04-06T13:44:14Z</time>
      </trkpt>
      <trkpt lat="49.86932" lon="2.33432">
        <ele>38.6</ele>
        <time>2023-04-06T13:44:15Z</time>
      </trkpt>
      <trkpt lat="49.86929" lon="2.33429">
        <ele>38.6</ele>
        <time>2023-04-06T13:44:16Z</time>
      </trkpt>
      <trkpt lat="49.86929" lon="2.33429">
        <ele>38.6</ele>
        <time>2023-04-06T13:44:17Z</time>
      </trkpt>
      <trkpt lat="49.86927" lon="2.33428">
        <ele>38.6</ele>
        <time>2023-04-06T13:44:18Z</time>
      </trkpt>
      <trkpt lat="49.86925" lon="2.33429">
        <ele>38.6</ele>
        <time>2023-04-06T13:44:19Z</time>
      </trkpt>
      <trkpt lat="49.86922" lon="2.3343">
        <ele>38.6</ele>
        <time>2023-04-06T13:44:21Z</time>
      </trkpt>
      <trkpt lat="49.86921" lon="2.3343">
        <ele>38.6</ele>
        <time>2023-04-06T13:44:22Z</time>
      </trkpt>
      <trkpt lat="49.8692" lon="2.33431">
        <ele>38.6</ele>
        <time>2023-04-06T13:44:23Z</time>
      </trkpt>
      <trkpt lat="49.86918" lon="2.33431">
        <ele>38.6</ele>
        <time>2023-04-06T13:44:24Z</time>
      </trkpt>
      <trkpt lat="49.86917" lon="2.33432">
        <ele>38.6</ele>
        <time>2023-04-06T13:44:25Z</time>
      </trkpt>
      <trkpt lat="49.86915" lon="2.33433">
        <ele>38.6</ele>
        <time>2023-04-06T13:44:26Z</time>
      </trkpt>
      <trkpt lat="49.86914" lon="2.33433">
        <ele>38.6</ele>
        <time>2023-04-06T13:44:27Z</time>
      </trkpt>
      <trkpt lat="49.86913" lon="2.33434">
        <ele>38.6</ele>
        <time>2023-04-06T13:44:28Z</time>
      </trkpt>
      <trkpt lat="49.86911" lon="2.33434">
        <ele>38.6</ele>
        <time>2023-04-06T13:44:29Z</time>
      </trkpt>
      <trkpt lat="49.8691" lon="2.33434">
        <ele>38.6</ele>
        <time>2023-04-06T13:44:30Z</time>
      </trkpt>
      <trkpt lat="49.86909" lon="2.33434">
        <ele>38.6</ele>
        <time>2023-04-06T13:44:32Z</time>
      </trkpt>
      <trkpt lat="49.86908" lon="2.33435">
        <ele>38.6</ele>
        <time>2023-04-06T13:44:33Z</time>
      </trkpt>
      <trkpt lat="49.86907" lon="2.33435">
        <ele>38.6</ele>
        <time>2023-04-06T13:44:34Z</time>
      </trkpt>
      <trkpt lat="49.86906" lon="2.33435">
        <ele>38.6</ele>
        <time>2023-04-06T13:44:35Z</time>
      </trkpt>
      <trkpt lat="49.86904" lon="2.33436">
        <ele>38.6</ele>
        <time>2023-04-06T13:44:36Z</time>
      </trkpt>
      <trkpt lat="49.86903" lon="2.33437">
        <ele>38.6</ele>
        <time>2023-04-06T13:44:37Z</time>
      </trkpt>
      <trkpt lat="49.86902" lon="2.33437">
        <ele>38.6</ele>
        <time>2023-04-06T13:44:38Z</time>
      </trkpt>
      <trkpt lat="49.869" lon="2.33439">
        <ele>38.6</ele>
        <time>2023-04-06T13:44:39Z</time>
      </trkpt>
      <trkpt lat="49.86899" lon="2.3344">
        <ele>38.6</ele>
        <time>2023-04-06T13:44:40Z</time>
      </trkpt>
      <trkpt lat="49.86898" lon="2.33441">
        <ele>38.6</ele>
        <time>2023-04-06T13:44:41Z</time>
      </trkpt>
      <trkpt lat="49.86896" lon="2.33442">
        <ele>38.6</ele>
        <time>2023-04-06T13:44:43Z</time>
      </trkpt>
      <trkpt lat="49.86895" lon="2.33444">
        <ele>38.6</ele>
        <time>2023-04-06T13:44:44Z</time>
      </trkpt>
      <trkpt lat="49.86894" lon="2.33445">
        <ele>38.5</ele>
        <time>2023-04-06T13:44:45Z</time>
      </trkpt>
      <trkpt lat="49.86894" lon="2.33448">
        <ele>38.4</ele>
        <time>2023-04-06T13:44:46Z</time>
      </trkpt>
      <trkpt lat="49.86895" lon="2.3345">
        <ele>38.4</ele>
        <time>2023-04-06T13:44:47Z</time>
      </trkpt>
      <trkpt lat="49.86895" lon="2.33451">
        <ele>38.4</ele>
        <time>2023-04-06T13:44:48Z</time>
      </trkpt>
      <trkpt lat="49.86897" lon="2.33455">
        <ele>38.3</ele>
        <time>2023-04-06T13:44:50Z</time>
      </trkpt>
      <trkpt lat="49.86897" lon="2.33456">
        <ele>38.3</ele>
        <time>2023-04-06T13:44:51Z</time>
      </trkpt>
      <trkpt lat="49.869" lon="2.33461">
        <ele>38.1</ele>
        <time>2023-04-06T13:44:52Z</time>
      </trkpt>
      <trkpt lat="49.86901" lon="2.33462">
        <ele>38.1</ele>
        <time>2023-04-06T13:44:53Z</time>
      </trkpt>
      <trkpt lat="49.86903" lon="2.33467">
        <ele>38</ele>
        <time>2023-04-06T13:44:54Z</time>
      </trkpt>
      <trkpt lat="49.86903" lon="2.33469">
        <ele>37.9</ele>
        <time>2023-04-06T13:44:55Z</time>
      </trkpt>
      <trkpt lat="49.86905" lon="2.33471">
        <ele>37.8</ele>
        <time>2023-04-06T13:44:56Z</time>
      </trkpt>
      <trkpt lat="49.86906" lon="2.33474">
        <ele>37.7</ele>
        <time>2023-04-06T13:44:58Z</time>
      </trkpt>
      <trkpt lat="49.86906" lon="2.33476">
        <ele>37.7</ele>
        <time>2023-04-06T13:44:59Z</time>
      </trkpt>
      <trkpt lat="49.86907" lon="2.33477">
        <ele>37.6</ele>
        <time>2023-04-06T13:45:00Z</time>
      </trkpt>
      <trkpt lat="49.86908" lon="2.33479">
        <ele>37.6</ele>
        <time>2023-04-06T13:45:01Z</time>
      </trkpt>
      <trkpt lat="49.86908" lon="2.33481">
        <ele>37.5</ele>
        <time>2023-04-06T13:45:02Z</time>
      </trkpt>
      <trkpt lat="49.86909" lon="2.33482">
        <ele>37.5</ele>
        <time>2023-04-06T13:45:03Z</time>
      </trkpt>
      <trkpt lat="49.8691" lon="2.33484">
        <ele>37.4</ele>
        <time>2023-04-06T13:45:04Z</time>
      </trkpt>
      <trkpt lat="49.86911" lon="2.33486">
        <ele>37.4</ele>
        <time>2023-04-06T13:45:05Z</time>
      </trkpt>
      <trkpt lat="49.86911" lon="2.33489">
        <ele>37.3</ele>
        <time>2023-04-06T13:45:06Z</time>
      </trkpt>
      <trkpt lat="49.86911" lon="2.3349">
        <ele>37.2</ele>
        <time>2023-04-06T13:45:07Z</time>
      </trkpt>
      <trkpt lat="49.86911" lon="2.33491">
        <ele>37.2</ele>
        <time>2023-04-06T13:45:08Z</time>
      </trkpt>
      <trkpt lat="49.86912" lon="2.33494">
        <ele>37.1</ele>
        <time>2023-04-06T13:45:09Z</time>
      </trkpt>
      <trkpt lat="49.86912" lon="2.33494">
        <ele>37.1</ele>
        <time>2023-04-06T13:45:10Z</time>
      </trkpt>
      <trkpt lat="49.86912" lon="2.33495">
        <ele>37</ele>
        <time>2023-04-06T13:45:12Z</time>
      </trkpt>
      <trkpt lat="49.86913" lon="2.33496">
        <ele>37</ele>
        <time>2023-04-06T13:45:13Z</time>
      </trkpt>
      <trkpt lat="49.86913" lon="2.33497">
        <ele>37</ele>
        <time>2023-04-06T13:45:14Z</time>
      </trkpt>
      <trkpt lat="49.86913" lon="2.335">
        <ele>36.9</ele>
        <time>2023-04-06T13:45:15Z</time>
      </trkpt>
      <trkpt lat="49.86914" lon="2.33502">
        <ele>36.8</ele>
        <time>2023-04-06T13:45:16Z</time>
      </trkpt>
      <trkpt lat="49.86914" lon="2.33503">
        <ele>36.8</ele>
        <time>2023-04-06T13:45:17Z</time>
      </trkpt>
      <trkpt lat="49.86914" lon="2.33504">
        <ele>36.7</ele>
        <time>2023-04-06T13:45:18Z</time>
      </trkpt>
      <trkpt lat="49.86915" lon="2.33506">
        <ele>36.6</ele>
        <time>2023-04-06T13:45:20Z</time>
      </trkpt>
      <trkpt lat="49.86915" lon="2.33507">
        <ele>36.6</ele>
        <time>2023-04-06T13:45:21Z</time>
      </trkpt>
      <trkpt lat="49.86916" lon="2.3351">
        <ele>36.4</ele>
        <time>2023-04-06T13:45:22Z</time>
      </trkpt>
      <trkpt lat="49.86917" lon="2.33512">
        <ele>36.4</ele>
        <time>2023-04-06T13:45:23Z</time>
      </trkpt>
      <trkpt lat="49.86918" lon="2.33513">
        <ele>36.3</ele>
        <time>2023-04-06T13:45:24Z</time>
      </trkpt>
      <trkpt lat="49.86918" lon="2.33515">
        <ele>36.3</ele>
        <time>2023-04-06T13:45:25Z</time>
      </trkpt>
      <trkpt lat="49.86919" lon="2.33517">
        <ele>36.2</ele>
        <time>2023-04-06T13:45:26Z</time>
      </trkpt>
      <trkpt lat="49.8692" lon="2.33519">
        <ele>36.1</ele>
        <time>2023-04-06T13:45:27Z</time>
      </trkpt>
      <trkpt lat="49.8692" lon="2.33521">
        <ele>36</ele>
        <time>2023-04-06T13:45:28Z</time>
      </trkpt>
      <trkpt lat="49.86921" lon="2.33525">
        <ele>35.9</ele>
        <time>2023-04-06T13:45:30Z</time>
      </trkpt>
      <trkpt lat="49.86922" lon="2.33526">
        <ele>35.8</ele>
        <time>2023-04-06T13:45:31Z</time>
      </trkpt>
      <trkpt lat="49.86923" lon="2.33529">
        <ele>35.7</ele>
        <time>2023-04-06T13:45:32Z</time>
      </trkpt>
      <trkpt lat="49.86924" lon="2.3353">
        <ele>35.6</ele>
        <time>2023-04-06T13:45:33Z</time>
      </trkpt>
      <trkpt lat="49.86925" lon="2.33531">
        <ele>35.6</ele>
        <time>2023-04-06T13:45:34Z</time>
      </trkpt>
      <trkpt lat="49.86926" lon="2.33533">
        <ele>35.5</ele>
        <time>2023-04-06T13:45:35Z</time>
      </trkpt>
      <trkpt lat="49.86927" lon="2.33534">
        <ele>35.4</ele>
        <time>2023-04-06T13:45:37Z</time>
      </trkpt>
      <trkpt lat="49.86927" lon="2.33536">
        <ele>35.4</ele>
        <time>2023-04-06T13:45:38Z</time>
      </trkpt>
      <trkpt lat="49.86929" lon="2.33539">
        <ele>35.2</ele>
        <time>2023-04-06T13:45:39Z</time>
      </trkpt>
      <trkpt lat="49.86928" lon="2.33539">
        <ele>35.2</ele>
        <time>2023-04-06T13:45:40Z</time>
      </trkpt>
      <trkpt lat="49.86928" lon="2.3354">
        <ele>35.1</ele>
        <time>2023-04-06T13:45:41Z</time>
      </trkpt>
      <trkpt lat="49.86929" lon="2.33541">
        <ele>35.1</ele>
        <time>2023-04-06T13:45:42Z</time>
      </trkpt>
      <trkpt lat="49.86929" lon="2.33542">
        <ele>35</ele>
        <time>2023-04-06T13:45:43Z</time>
      </trkpt>
      <trkpt lat="49.86929" lon="2.33544">
        <ele>35</ele>
        <time>2023-04-06T13:45:44Z</time>
      </trkpt>
      <trkpt lat="49.8693" lon="2.33546">
        <ele>34.9</ele>
        <time>2023-04-06T13:45:46Z</time>
      </trkpt>
      <trkpt lat="49.86931" lon="2.33547">
        <ele>34.8</ele>
        <time>2023-04-06T13:45:47Z</time>
      </trkpt>
      <trkpt lat="49.86931" lon="2.33549">
        <ele>34.8</ele>
        <time>2023-04-06T13:45:48Z</time>
      </trkpt>
      <trkpt lat="49.86931" lon="2.33551">
        <ele>34.7</ele>
        <time>2023-04-06T13:45:49Z</time>
      </trkpt>
      <trkpt lat="49.86931" lon="2.33552">
        <ele>34.7</ele>
        <time>2023-04-06T13:45:51Z</time>
      </trkpt>
      <trkpt lat="49.86931" lon="2.33554">
        <ele>34.6</ele>
        <time>2023-04-06T13:45:52Z</time>
      </trkpt>
      <trkpt lat="49.86932" lon="2.33556">
        <ele>34.6</ele>
        <time>2023-04-06T13:45:53Z</time>
      </trkpt>
      <trkpt lat="49.86932" lon="2.33558">
        <ele>34.5</ele>
        <time>2023-04-06T13:45:54Z</time>
      </trkpt>
      <trkpt lat="49.86932" lon="2.33559">
        <ele>34.5</ele>
        <time>2023-04-06T13:45:55Z</time>
      </trkpt>
      <trkpt lat="49.86932" lon="2.33561">
        <ele>34.4</ele>
        <time>2023-04-06T13:45:56Z</time>
      </trkpt>
      <trkpt lat="49.86933" lon="2.33564">
        <ele>34.3</ele>
        <time>2023-04-06T13:45:58Z</time>
      </trkpt>
      <trkpt lat="49.86933" lon="2.33567">
        <ele>34.2</ele>
        <time>2023-04-06T13:45:59Z</time>
      </trkpt>
      <trkpt lat="49.86933" lon="2.33569">
        <ele>34.1</ele>
        <time>2023-04-06T13:46:00Z</time>
      </trkpt>
      <trkpt lat="49.86933" lon="2.33571">
        <ele>34.1</ele>
        <time>2023-04-06T13:46:02Z</time>
      </trkpt>
      <trkpt lat="49.86933" lon="2.33574">
        <ele>34</ele>
        <time>2023-04-06T13:46:03Z</time>
      </trkpt>
      <trkpt lat="49.86932" lon="2.33578">
        <ele>33.8</ele>
        <time>2023-04-06T13:46:04Z</time>
      </trkpt>
      <trkpt lat="49.86931" lon="2.33579">
        <ele>33.8</ele>
        <time>2023-04-06T13:46:05Z</time>
      </trkpt>
      <trkpt lat="49.86931" lon="2.3358">
        <ele>33.7</ele>
        <time>2023-04-06T13:46:06Z</time>
      </trkpt>
      <trkpt lat="49.86931" lon="2.33581">
        <ele>33.7</ele>
        <time>2023-04-06T13:46:07Z</time>
      </trkpt>
      <trkpt lat="49.86931" lon="2.33584">
        <ele>33.6</ele>
        <time>2023-04-06T13:46:08Z</time>
      </trkpt>
      <trkpt lat="49.86931" lon="2.33587">
        <ele>33.5</ele>
        <time>2023-04-06T13:46:09Z</time>
      </trkpt>
      <trkpt lat="49.86932" lon="2.33588">
        <ele>33.5</ele>
        <time>2023-04-06T13:46:10Z</time>
      </trkpt>
      <trkpt lat="49.86932" lon="2.3359">
        <ele>33.4</ele>
        <time>2023-04-06T13:46:11Z</time>
      </trkpt>
      <trkpt lat="49.86933" lon="2.33594">
        <ele>33.3</ele>
        <time>2023-04-06T13:46:13Z</time>
      </trkpt>
      <trkpt lat="49.86933" lon="2.33595">
        <ele>33.2</ele>
        <time>2023-04-06T13:46:14Z</time>
      </trkpt>
      <trkpt lat="49.86933" lon="2.33599">
        <ele>33.1</ele>
        <time>2023-04-06T13:46:15Z</time>
      </trkpt>
      <trkpt lat="49.86933" lon="2.336">
        <ele>33.1</ele>
        <time>2023-04-06T13:46:16Z</time>
      </trkpt>
      <trkpt lat="49.86933" lon="2.33601">
        <ele>33.1</ele>
        <time>2023-04-06T13:46:17Z</time>
      </trkpt>
      <trkpt lat="49.86934" lon="2.33604">
        <ele>33</ele>
        <time>2023-04-06T13:46:19Z</time>
      </trkpt>
      <trkpt lat="49.86934" lon="2.33606">
        <ele>32.9</ele>
        <time>2023-04-06T13:46:20Z</time>
      </trkpt>
      <trkpt lat="49.86934" lon="2.33608">
        <ele>32.9</ele>
        <time>2023-04-06T13:46:21Z</time>
      </trkpt>
      <trkpt lat="49.86935" lon="2.3361">
        <ele>32.8</ele>
        <time>2023-04-06T13:46:22Z</time>
      </trkpt>
      <trkpt lat="49.86936" lon="2.33615">
        <ele>32.7</ele>
        <time>2023-04-06T13:46:24Z</time>
      </trkpt>
      <trkpt lat="49.86936" lon="2.33617">
        <ele>32.6</ele>
        <time>2023-04-06T13:46:25Z</time>
      </trkpt>
      <trkpt lat="49.86936" lon="2.33619">
        <ele>32.6</ele>
        <time>2023-04-06T13:46:26Z</time>
      </trkpt>
      <trkpt lat="49.86937" lon="2.33622">
        <ele>32.5</ele>
        <time>2023-04-06T13:46:27Z</time>
      </trkpt>
      <trkpt lat="49.86937" lon="2.33624">
        <ele>32.5</ele>
        <time>2023-04-06T13:46:28Z</time>
      </trkpt>
      <trkpt lat="49.86938" lon="2.33626">
        <ele>32.4</ele>
        <time>2023-04-06T13:46:29Z</time>
      </trkpt>
      <trkpt lat="49.86938" lon="2.33628">
        <ele>32.4</ele>
        <time>2023-04-06T13:46:30Z</time>
      </trkpt>
      <trkpt lat="49.86939" lon="2.33629">
        <ele>32.3</ele>
        <time>2023-04-06T13:46:31Z</time>
      </trkpt>
      <trkpt lat="49.8694" lon="2.33632">
        <ele>32.2</ele>
        <time>2023-04-06T13:46:32Z</time>
      </trkpt>
      <trkpt lat="49.86941" lon="2.33634">
        <ele>32.2</ele>
        <time>2023-04-06T13:46:34Z</time>
      </trkpt>
      <trkpt lat="49.86942" lon="2.33638">
        <ele>32.1</ele>
        <time>2023-04-06T13:46:35Z</time>
      </trkpt>
      <trkpt lat="49.86942" lon="2.33639">
        <ele>32</ele>
        <time>2023-04-06T13:46:36Z</time>
      </trkpt>
      <trkpt lat="49.86942" lon="2.33641">
        <ele>32</ele>
        <time>2023-04-06T13:46:37Z</time>
      </trkpt>
      <trkpt lat="49.86942" lon="2.33642">
        <ele>32</ele>
        <time>2023-04-06T13:46:38Z</time>
      </trkpt>
      <trkpt lat="49.86942" lon="2.33643">
        <ele>31.9</ele>
        <time>2023-04-06T13:46:39Z</time>
      </trkpt>
      <trkpt lat="49.86942" lon="2.33644">
        <ele>31.9</ele>
        <time>2023-04-06T13:46:40Z</time>
      </trkpt>
      <trkpt lat="49.86942" lon="2.33645">
        <ele>31.9</ele>
        <time>2023-04-06T13:46:41Z</time>
      </trkpt>
      <trkpt lat="49.86943" lon="2.33648">
        <ele>31.8</ele>
        <time>2023-04-06T13:46:43Z</time>
      </trkpt>
      <trkpt lat="49.86943" lon="2.3365">
        <ele>31.8</ele>
        <time>2023-04-06T13:46:44Z</time>
      </trkpt>
      <trkpt lat="49.86944" lon="2.33652">
        <ele>31.8</ele>
        <time>2023-04-06T13:46:45Z</time>
      </trkpt>
      <trkpt lat="49.86944" lon="2.33654">
        <ele>31.8</ele>
        <time>2023-04-06T13:46:46Z</time>
      </trkpt>
      <trkpt lat="49.86945" lon="2.33656">
        <ele>31.8</ele>
        <time>2023-04-06T13:46:47Z</time>
      </trkpt>
      <trkpt lat="49.86947" lon="2.33657">
        <ele>31.8</ele>
        <time>2023-04-06T13:46:48Z</time>
      </trkpt>
      <trkpt lat="49.86948" lon="2.33659">
        <ele>31.8</ele>
        <time>2023-04-06T13:46:49Z</time>
      </trkpt>
      <trkpt lat="49.86949" lon="2.33661">
        <ele>31.8</ele>
        <time>2023-04-06T13:46:50Z</time>
      </trkpt>
      <trkpt lat="49.86951" lon="2.33664">
        <ele>31.8</ele>
        <time>2023-04-06T13:46:52Z</time>
      </trkpt>
      <trkpt lat="49.86952" lon="2.33664">
        <ele>31.8</ele>
        <time>2023-04-06T13:46:53Z</time>
      </trkpt>
      <trkpt lat="49.86953" lon="2.33665">
        <ele>31.8</ele>
        <time>2023-04-06T13:46:54Z</time>
      </trkpt>
      <trkpt lat="49.86954" lon="2.33665">
        <ele>31.9</ele>
        <time>2023-04-06T13:46:55Z</time>
      </trkpt>
      <trkpt lat="49.86956" lon="2.33665">
        <ele>31.9</ele>
        <time>2023-04-06T13:46:56Z</time>
      </trkpt>
      <trkpt lat="49.86958" lon="2.33661">
        <ele>31.9</ele>
        <time>2023-04-06T13:46:58Z</time>
      </trkpt>
      <trkpt lat="49.86959" lon="2.33661">
        <ele>31.9</ele>
        <time>2023-04-06T13:46:59Z</time>
      </trkpt>
      <trkpt lat="49.86961" lon="2.3366">
        <ele>31.9</ele>
        <time>2023-04-06T13:47:00Z</time>
      </trkpt>
      <trkpt lat="49.86962" lon="2.33659">
        <ele>31.9</ele>
        <time>2023-04-06T13:47:01Z</time>
      </trkpt>
      <trkpt lat="49.86964" lon="2.33659">
        <ele>31.9</ele>
        <time>2023-04-06T13:47:02Z</time>
      </trkpt>
      <trkpt lat="49.86964" lon="2.33657">
        <ele>31.9</ele>
        <time>2023-04-06T13:47:03Z</time>
      </trkpt>
      <trkpt lat="49.86966" lon="2.33656">
        <ele>31.9</ele>
        <time>2023-04-06T13:47:04Z</time>
      </trkpt>
      <trkpt lat="49.86967" lon="2.33655">
        <ele>31.9</ele>
        <time>2023-04-06T13:47:06Z</time>
      </trkpt>
      <trkpt lat="49.86968" lon="2.33654">
        <ele>32</ele>
        <time>2023-04-06T13:47:07Z</time>
      </trkpt>
      <trkpt lat="49.8697" lon="2.33654">
        <ele>32</ele>
        <time>2023-04-06T13:47:08Z</time>
      </trkpt>
      <trkpt lat="49.86972" lon="2.33653">
        <ele>32</ele>
        <time>2023-04-06T13:47:09Z</time>
      </trkpt>
      <trkpt lat="49.86973" lon="2.33653">
        <ele>32</ele>
        <time>2023-04-06T13:47:10Z</time>
      </trkpt>
      <trkpt lat="49.86974" lon="2.33653">
        <ele>32</ele>
        <time>2023-04-06T13:47:11Z</time>
      </trkpt>
      <trkpt lat="49.86977" lon="2.33651">
        <ele>32</ele>
        <time>2023-04-06T13:47:12Z</time>
      </trkpt>
      <trkpt lat="49.86977" lon="2.3365">
        <ele>32</ele>
        <time>2023-04-06T13:47:13Z</time>
      </trkpt>
      <trkpt lat="49.86978" lon="2.33647">
        <ele>32</ele>
        <time>2023-04-06T13:47:15Z</time>
      </trkpt>
      <trkpt lat="49.86979" lon="2.33645">
        <ele>32</ele>
        <time>2023-04-06T13:47:16Z</time>
      </trkpt>
      <trkpt lat="49.8698" lon="2.33643">
        <ele>32</ele>
        <time>2023-04-06T13:47:17Z</time>
      </trkpt>
      <trkpt lat="49.86983" lon="2.33641">
        <ele>32.1</ele>
        <time>2023-04-06T13:47:18Z</time>
      </trkpt>
      <trkpt lat="49.86984" lon="2.3364">
        <ele>32.1</ele>
        <time>2023-04-06T13:47:19Z</time>
      </trkpt>
      <trkpt lat="49.86986" lon="2.33638">
        <ele>32.1</ele>
        <time>2023-04-06T13:47:20Z</time>
      </trkpt>
      <trkpt lat="49.86987" lon="2.33638">
        <ele>32.1</ele>
        <time>2023-04-06T13:47:21Z</time>
      </trkpt>
      <trkpt lat="49.86987" lon="2.33637">
        <ele>32.1</ele>
        <time>2023-04-06T13:47:22Z</time>
      </trkpt>
      <trkpt lat="49.86988" lon="2.33636">
        <ele>32.2</ele>
        <time>2023-04-06T13:47:23Z</time>
      </trkpt>
      <trkpt lat="49.8699" lon="2.33634">
        <ele>32.2</ele>
        <time>2023-04-06T13:47:24Z</time>
      </trkpt>
      <trkpt lat="49.86991" lon="2.33634">
        <ele>32.2</ele>
        <time>2023-04-06T13:47:25Z</time>
      </trkpt>
      <trkpt lat="49.86992" lon="2.33633">
        <ele>32.3</ele>
        <time>2023-04-06T13:47:27Z</time>
      </trkpt>
      <trkpt lat="49.86993" lon="2.33632">
        <ele>32.3</ele>
        <time>2023-04-06T13:47:28Z</time>
      </trkpt>
      <trkpt lat="49.86994" lon="2.33631">
        <ele>32.3</ele>
        <time>2023-04-06T13:47:29Z</time>
      </trkpt>
      <trkpt lat="49.86996" lon="2.3363">
        <ele>32.3</ele>
        <time>2023-04-06T13:47:30Z</time>
      </trkpt>
      <trkpt lat="49.86997" lon="2.33629">
        <ele>32.4</ele>
        <time>2023-04-06T13:47:31Z</time>
      </trkpt>
      <trkpt lat="49.86998" lon="2.33628">
        <ele>32.4</ele>
        <time>2023-04-06T13:47:32Z</time>
      </trkpt>
      <trkpt lat="49.87" lon="2.33628">
        <ele>32.4</ele>
        <time>2023-04-06T13:47:34Z</time>
      </trkpt>
      <trkpt lat="49.87001" lon="2.33627">
        <ele>32.5</ele>
        <time>2023-04-06T13:47:35Z</time>
      </trkpt>
      <trkpt lat="49.87003" lon="2.33627">
        <ele>32.5</ele>
        <time>2023-04-06T13:47:36Z</time>
      </trkpt>
      <trkpt lat="49.87004" lon="2.33626">
        <ele>32.5</ele>
        <time>2023-04-06T13:47:37Z</time>
      </trkpt>
      <trkpt lat="49.87005" lon="2.33626">
        <ele>32.6</ele>
        <time>2023-04-06T13:47:38Z</time>
      </trkpt>
      <trkpt lat="49.87008" lon="2.33625">
        <ele>32.6</ele>
        <time>2023-04-06T13:47:39Z</time>
      </trkpt>
      <trkpt lat="49.87009" lon="2.33625">
        <ele>32.6</ele>
        <time>2023-04-06T13:47:40Z</time>
      </trkpt>
      <trkpt lat="49.87011" lon="2.33624">
        <ele>32.7</ele>
        <time>2023-04-06T13:47:42Z</time>
      </trkpt>
      <trkpt lat="49.87012" lon="2.33624">
        <ele>32.7</ele>
        <time>2023-04-06T13:47:43Z</time>
      </trkpt>
      <trkpt lat="49.87013" lon="2.33623">
        <ele>32.7</ele>
        <time>2023-04-06T13:47:44Z</time>
      </trkpt>
      <trkpt lat="49.87015" lon="2.33622">
        <ele>32.8</ele>
        <time>2023-04-06T13:47:45Z</time>
      </trkpt>
      <trkpt lat="49.87016" lon="2.33622">
        <ele>32.8</ele>
        <time>2023-04-06T13:47:46Z</time>
      </trkpt>
      <trkpt lat="49.87016" lon="2.33621">
        <ele>32.8</ele>
        <time>2023-04-06T13:47:47Z</time>
      </trkpt>
      <trkpt lat="49.87018" lon="2.33619">
        <ele>32.9</ele>
        <time>2023-04-06T13:47:48Z</time>
      </trkpt>
      <trkpt lat="49.87019" lon="2.33618">
        <ele>32.9</ele>
        <time>2023-04-06T13:47:50Z</time>
      </trkpt>
      <trkpt lat="49.8702" lon="2.33618">
        <ele>32.9</ele>
        <time>2023-04-06T13:47:51Z</time>
      </trkpt>
      <trkpt lat="49.87021" lon="2.33617">
        <ele>32.9</ele>
        <time>2023-04-06T13:47:52Z</time>
      </trkpt>
      <trkpt lat="49.87023" lon="2.33616">
        <ele>33</ele>
        <time>2023-04-06T13:47:53Z</time>
      </trkpt>
      <trkpt lat="49.87024" lon="2.33615">
        <ele>33</ele>
        <time>2023-04-06T13:47:54Z</time>
      </trkpt>
      <trkpt lat="49.87025" lon="2.33615">
        <ele>33</ele>
        <time>2023-04-06T13:47:55Z</time>
      </trkpt>
      <trkpt lat="49.87026" lon="2.33614">
        <ele>33.1</ele>
        <time>2023-04-06T13:47:57Z</time>
      </trkpt>
      <trkpt lat="49.87027" lon="2.33613">
        <ele>33.1</ele>
        <time>2023-04-06T13:47:58Z</time>
      </trkpt>
      <trkpt lat="49.87028" lon="2.33613">
        <ele>33.1</ele>
        <time>2023-04-06T13:47:59Z</time>
      </trkpt>
      <trkpt lat="49.87029" lon="2.33612">
        <ele>33.1</ele>
        <time>2023-04-06T13:48:00Z</time>
      </trkpt>
      <trkpt lat="49.87031" lon="2.33612">
        <ele>33.2</ele>
        <time>2023-04-06T13:48:01Z</time>
      </trkpt>
      <trkpt lat="49.87032" lon="2.33612">
        <ele>33.2</ele>
        <time>2023-04-06T13:48:03Z</time>
      </trkpt>
      <trkpt lat="49.87035" lon="2.33612">
        <ele>33.2</ele>
        <time>2023-04-06T13:48:04Z</time>
      </trkpt>
      <trkpt lat="49.87036" lon="2.33612">
        <ele>33.3</ele>
        <time>2023-04-06T13:48:05Z</time>
      </trkpt>
      <trkpt lat="49.87038" lon="2.33613">
        <ele>33.3</ele>
        <time>2023-04-06T13:48:06Z</time>
      </trkpt>
      <trkpt lat="49.87038" lon="2.33613">
        <ele>33.3</ele>
        <time>2023-04-06T13:48:08Z</time>
      </trkpt>
      <trkpt lat="49.87039" lon="2.33614">
        <ele>33.3</ele>
        <time>2023-04-06T13:48:09Z</time>
      </trkpt>
      <trkpt lat="49.87039" lon="2.33615">
        <ele>33.4</ele>
        <time>2023-04-06T13:48:10Z</time>
      </trkpt>
      <trkpt lat="49.8704" lon="2.33615">
        <ele>33.4</ele>
        <time>2023-04-06T13:48:11Z</time>
      </trkpt>
      <trkpt lat="49.87041" lon="2.33616">
        <ele>33.4</ele>
        <time>2023-04-06T13:48:13Z</time>
      </trkpt>
      <trkpt lat="49.87041" lon="2.33616">
        <ele>33.4</ele>
        <time>2023-04-06T13:48:14Z</time>
      </trkpt>
      <trkpt lat="49.87042" lon="2.33617">
        <ele>33.4</ele>
        <time>2023-04-06T13:48:15Z</time>
      </trkpt>
      <trkpt lat="49.87044" lon="2.33616">
        <ele>33.5</ele>
        <time>2023-04-06T13:48:16Z</time>
      </trkpt>
      <trkpt lat="49.87045" lon="2.33616">
        <ele>33.5</ele>
        <time>2023-04-06T13:48:17Z</time>
      </trkpt>
      <trkpt lat="49.87046" lon="2.33615">
        <ele>33.5</ele>
        <time>2023-04-06T13:48:18Z</time>
      </trkpt>
      <trkpt lat="49.87047" lon="2.33615">
        <ele>33.5</ele>
        <time>2023-04-06T13:48:19Z</time>
      </trkpt>
      <trkpt lat="49.87049" lon="2.33614">
        <ele>33.6</ele>
        <time>2023-04-06T13:48:20Z</time>
      </trkpt>
      <trkpt lat="49.87052" lon="2.33614">
        <ele>33.6</ele>
        <time>2023-04-06T13:48:21Z</time>
      </trkpt>
      <trkpt lat="49.87053" lon="2.33613">
        <ele>33.7</ele>
        <time>2023-04-06T13:48:23Z</time>
      </trkpt>
      <trkpt lat="49.87055" lon="2.33613">
        <ele>33.7</ele>
        <time>2023-04-06T13:48:24Z</time>
      </trkpt>
      <trkpt lat="49.87056" lon="2.33612">
        <ele>33.7</ele>
        <time>2023-04-06T13:48:25Z</time>
      </trkpt>
      <trkpt lat="49.87058" lon="2.33612">
        <ele>33.8</ele>
        <time>2023-04-06T13:48:26Z</time>
      </trkpt>
      <trkpt lat="49.87059" lon="2.33612">
        <ele>33.8</ele>
        <time>2023-04-06T13:48:27Z</time>
      </trkpt>
      <trkpt lat="49.8706" lon="2.33611">
        <ele>33.9</ele>
        <time>2023-04-06T13:48:28Z</time>
      </trkpt>
      <trkpt lat="49.87062" lon="2.33611">
        <ele>33.9</ele>
        <time>2023-04-06T13:48:29Z</time>
      </trkpt>
      <trkpt lat="49.87064" lon="2.33611">
        <ele>34</ele>
        <time>2023-04-06T13:48:30Z</time>
      </trkpt>
      <trkpt lat="49.87065" lon="2.3361">
        <ele>34</ele>
        <time>2023-04-06T13:48:31Z</time>
      </trkpt>
      <trkpt lat="49.87067" lon="2.33609">
        <ele>34.1</ele>
        <time>2023-04-06T13:48:32Z</time>
      </trkpt>
      <trkpt lat="49.87069" lon="2.33608">
        <ele>34.2</ele>
        <time>2023-04-06T13:48:34Z</time>
      </trkpt>
      <trkpt lat="49.8707" lon="2.33607">
        <ele>34.2</ele>
        <time>2023-04-06T13:48:35Z</time>
      </trkpt>
      <trkpt lat="49.87072" lon="2.33607">
        <ele>34.3</ele>
        <time>2023-04-06T13:48:36Z</time>
      </trkpt>
      <trkpt lat="49.87074" lon="2.33607">
        <ele>34.4</ele>
        <time>2023-04-06T13:48:37Z</time>
      </trkpt>
      <trkpt lat="49.87075" lon="2.33607">
        <ele>34.4</ele>
        <time>2023-04-06T13:48:38Z</time>
      </trkpt>
      <trkpt lat="49.87077" lon="2.33607">
        <ele>34.5</ele>
        <time>2023-04-06T13:48:39Z</time>
      </trkpt>
      <trkpt lat="49.87078" lon="2.33606">
        <ele>34.5</ele>
        <time>2023-04-06T13:48:40Z</time>
      </trkpt>
      <trkpt lat="49.87079" lon="2.33606">
        <ele>34.5</ele>
        <time>2023-04-06T13:48:41Z</time>
      </trkpt>
      <trkpt lat="49.8708" lon="2.33606">
        <ele>34.6</ele>
        <time>2023-04-06T13:48:43Z</time>
      </trkpt>
      <trkpt lat="49.87082" lon="2.33606">
        <ele>34.7</ele>
        <time>2023-04-06T13:48:44Z</time>
      </trkpt>
      <trkpt lat="49.87083" lon="2.33606">
        <ele>34.7</ele>
        <time>2023-04-06T13:48:45Z</time>
      </trkpt>
      <trkpt lat="49.87084" lon="2.33606">
        <ele>34.7</ele>
        <time>2023-04-06T13:48:46Z</time>
      </trkpt>
      <trkpt lat="49.87085" lon="2.33606">
        <ele>34.8</ele>
        <time>2023-04-06T13:48:47Z</time>
      </trkpt>
      <trkpt lat="49.87087" lon="2.33606">
        <ele>34.8</ele>
        <time>2023-04-06T13:48:48Z</time>
      </trkpt>
      <trkpt lat="49.87088" lon="2.33606">
        <ele>34.9</ele>
        <time>2023-04-06T13:48:49Z</time>
      </trkpt>
      <trkpt lat="49.87089" lon="2.33606">
        <ele>34.9</ele>
        <time>2023-04-06T13:48:50Z</time>
      </trkpt>
      <trkpt lat="49.8709" lon="2.33605">
        <ele>35</ele>
        <time>2023-04-06T13:48:51Z</time>
      </trkpt>
      <trkpt lat="49.87092" lon="2.33605">
        <ele>35</ele>
        <time>2023-04-06T13:48:53Z</time>
      </trkpt>
      <trkpt lat="49.87093" lon="2.33605">
        <ele>35.1</ele>
        <time>2023-04-06T13:48:54Z</time>
      </trkpt>
      <trkpt lat="49.87094" lon="2.33605">
        <ele>35.1</ele>
        <time>2023-04-06T13:48:55Z</time>
      </trkpt>
      <trkpt lat="49.87095" lon="2.33605">
        <ele>35.1</ele>
        <time>2023-04-06T13:48:56Z</time>
      </trkpt>
      <trkpt lat="49.87096" lon="2.33605">
        <ele>35.2</ele>
        <time>2023-04-06T13:48:57Z</time>
      </trkpt>
      <trkpt lat="49.87097" lon="2.33605">
        <ele>35.2</ele>
        <time>2023-04-06T13:48:58Z</time>
      </trkpt>
      <trkpt lat="49.87099" lon="2.33604">
        <ele>35.3</ele>
        <time>2023-04-06T13:49:00Z</time>
      </trkpt>
      <trkpt lat="49.871" lon="2.33604">
        <ele>35.3</ele>
        <time>2023-04-06T13:49:01Z</time>
      </trkpt>
      <trkpt lat="49.87101" lon="2.33603">
        <ele>35.4</ele>
        <time>2023-04-06T13:49:02Z</time>
      </trkpt>
      <trkpt lat="49.87102" lon="2.33603">
        <ele>35.4</ele>
        <time>2023-04-06T13:49:03Z</time>
      </trkpt>
      <trkpt lat="49.87103" lon="2.33602">
        <ele>35.5</ele>
        <time>2023-04-06T13:49:04Z</time>
      </trkpt>
      <trkpt lat="49.87105" lon="2.33602">
        <ele>35.5</ele>
        <time>2023-04-06T13:49:06Z</time>
      </trkpt>
      <trkpt lat="49.87107" lon="2.33601">
        <ele>35.6</ele>
        <time>2023-04-06T13:49:07Z</time>
      </trkpt>
      <trkpt lat="49.87108" lon="2.33601">
        <ele>35.6</ele>
        <time>2023-04-06T13:49:08Z</time>
      </trkpt>
      <trkpt lat="49.8711" lon="2.336">
        <ele>35.7</ele>
        <time>2023-04-06T13:49:09Z</time>
      </trkpt>
      <trkpt lat="49.87111" lon="2.33599">
        <ele>35.7</ele>
        <time>2023-04-06T13:49:10Z</time>
      </trkpt>
      <trkpt lat="49.87111" lon="2.33599">
        <ele>35.8</ele>
        <time>2023-04-06T13:49:11Z</time>
      </trkpt>
      <trkpt lat="49.87112" lon="2.33596">
        <ele>35.8</ele>
        <time>2023-04-06T13:49:12Z</time>
      </trkpt>
      <trkpt lat="49.87114" lon="2.33595">
        <ele>35.9</ele>
        <time>2023-04-06T13:49:13Z</time>
      </trkpt>
      <trkpt lat="49.87115" lon="2.33594">
        <ele>36</ele>
        <time>2023-04-06T13:49:15Z</time>
      </trkpt>
      <trkpt lat="49.87116" lon="2.33592">
        <ele>36</ele>
        <time>2023-04-06T13:49:16Z</time>
      </trkpt>
      <trkpt lat="49.87117" lon="2.33591">
        <ele>36</ele>
        <time>2023-04-06T13:49:17Z</time>
      </trkpt>
      <trkpt lat="49.87118" lon="2.33589">
        <ele>36</ele>
        <time>2023-04-06T13:49:18Z</time>
      </trkpt>
      <trkpt lat="49.87119" lon="2.33588">
        <ele>36</ele>
        <time>2023-04-06T13:49:19Z</time>
      </trkpt>
      <trkpt lat="49.87121" lon="2.33587">
        <ele>36.1</ele>
        <time>2023-04-06T13:49:20Z</time>
      </trkpt>
      <trkpt lat="49.87122" lon="2.33586">
        <ele>36.1</ele>
        <time>2023-04-06T13:49:21Z</time>
      </trkpt>
      <trkpt lat="49.87126" lon="2.33585">
        <ele>36.1</ele>
        <time>2023-04-06T13:49:23Z</time>
      </trkpt>
      <trkpt lat="49.87127" lon="2.33585">
        <ele>36.1</ele>
        <time>2023-04-06T13:49:24Z</time>
      </trkpt>
      <trkpt lat="49.87128" lon="2.33585">
        <ele>36.1</ele>
        <time>2023-04-06T13:49:25Z</time>
      </trkpt>
      <trkpt lat="49.87129" lon="2.33586">
        <ele>36.1</ele>
        <time>2023-04-06T13:49:26Z</time>
      </trkpt>
      <trkpt lat="49.87132" lon="2.33584">
        <ele>36.1</ele>
        <time>2023-04-06T13:49:27Z</time>
      </trkpt>
      <trkpt lat="49.87132" lon="2.33584">
        <ele>36.1</ele>
        <time>2023-04-06T13:49:28Z</time>
      </trkpt>
      <trkpt lat="49.87133" lon="2.33584">
        <ele>36.1</ele>
        <time>2023-04-06T13:49:29Z</time>
      </trkpt>
      <trkpt lat="49.87134" lon="2.33585">
        <ele>36.1</ele>
        <time>2023-04-06T13:49:30Z</time>
      </trkpt>
      <trkpt lat="49.87135" lon="2.33586">
        <ele>36.1</ele>
        <time>2023-04-06T13:49:31Z</time>
      </trkpt>
      <trkpt lat="49.87135" lon="2.33587">
        <ele>36.1</ele>
        <time>2023-04-06T13:49:33Z</time>
      </trkpt>
      <trkpt lat="49.87137" lon="2.33588">
        <ele>36</ele>
        <time>2023-04-06T13:49:34Z</time>
      </trkpt>
      <trkpt lat="49.87138" lon="2.33588">
        <ele>36</ele>
        <time>2023-04-06T13:49:35Z</time>
      </trkpt>
      <trkpt lat="49.8714" lon="2.33588">
        <ele>35.9</ele>
        <time>2023-04-06T13:49:36Z</time>
      </trkpt>
      <trkpt lat="49.87142" lon="2.33587">
        <ele>35.9</ele>
        <time>2023-04-06T13:49:37Z</time>
      </trkpt>
      <trkpt lat="49.87143" lon="2.33586">
        <ele>35.9</ele>
        <time>2023-04-06T13:49:38Z</time>
      </trkpt>
      <trkpt lat="49.87144" lon="2.33586">
        <ele>35.8</ele>
        <time>2023-04-06T13:49:39Z</time>
      </trkpt>
      <trkpt lat="49.87145" lon="2.33588">
        <ele>35.8</ele>
        <time>2023-04-06T13:49:40Z</time>
      </trkpt>
      <trkpt lat="49.87147" lon="2.3359">
        <ele>35.8</ele>
        <time>2023-04-06T13:49:41Z</time>
      </trkpt>
      <trkpt lat="49.87148" lon="2.33591">
        <ele>35.7</ele>
        <time>2023-04-06T13:49:43Z</time>
      </trkpt>
      <trkpt lat="49.87149" lon="2.33591">
        <ele>35.7</ele>
        <time>2023-04-06T13:49:44Z</time>
      </trkpt>
      <trkpt lat="49.8715" lon="2.33592">
        <ele>35.7</ele>
        <time>2023-04-06T13:49:45Z</time>
      </trkpt>
      <trkpt lat="49.87151" lon="2.33592">
        <ele>35.7</ele>
        <time>2023-04-06T13:49:46Z</time>
      </trkpt>
      <trkpt lat="49.87156" lon="2.33592">
        <ele>35.5</ele>
        <time>2023-04-06T13:49:47Z</time>
      </trkpt>
      <trkpt lat="49.87156" lon="2.33592">
        <ele>35.5</ele>
        <time>2023-04-06T13:49:48Z</time>
      </trkpt>
      <trkpt lat="49.87158" lon="2.33593">
        <ele>35.5</ele>
        <time>2023-04-06T13:49:49Z</time>
      </trkpt>
      <trkpt lat="49.87159" lon="2.33594">
        <ele>35.5</ele>
        <time>2023-04-06T13:49:50Z</time>
      </trkpt>
      <trkpt lat="49.87156" lon="2.33599">
        <ele>35.4</ele>
        <time>2023-04-06T13:49:51Z</time>
      </trkpt>
      <trkpt lat="49.87156" lon="2.33601">
        <ele>35.3</ele>
        <time>2023-04-06T13:49:53Z</time>
      </trkpt>
      <trkpt lat="49.87157" lon="2.33603">
        <ele>35.3</ele>
        <time>2023-04-06T13:49:54Z</time>
      </trkpt>
      <trkpt lat="49.87158" lon="2.33605">
        <ele>35.3</ele>
        <time>2023-04-06T13:49:55Z</time>
      </trkpt>
      <trkpt lat="49.87159" lon="2.33606">
        <ele>35.2</ele>
        <time>2023-04-06T13:49:56Z</time>
      </trkpt>
      <trkpt lat="49.8716" lon="2.33607">
        <ele>35.2</ele>
        <time>2023-04-06T13:49:57Z</time>
      </trkpt>
      <trkpt lat="49.87162" lon="2.33609">
        <ele>35.2</ele>
        <time>2023-04-06T13:49:58Z</time>
      </trkpt>
      <trkpt lat="49.87163" lon="2.3361">
        <ele>35.1</ele>
        <time>2023-04-06T13:49:59Z</time>
      </trkpt>
      <trkpt lat="49.87165" lon="2.33611">
        <ele>35.1</ele>
        <time>2023-04-06T13:50:00Z</time>
      </trkpt>
      <trkpt lat="49.87166" lon="2.33612">
        <ele>35</ele>
        <time>2023-04-06T13:50:01Z</time>
      </trkpt>
      <trkpt lat="49.87167" lon="2.33613">
        <ele>35</ele>
        <time>2023-04-06T13:50:02Z</time>
      </trkpt>
      <trkpt lat="49.8717" lon="2.33614">
        <ele>35</ele>
        <time>2023-04-06T13:50:03Z</time>
      </trkpt>
      <trkpt lat="49.87171" lon="2.33615">
        <ele>34.9</ele>
        <time>2023-04-06T13:50:05Z</time>
      </trkpt>
      <trkpt lat="49.87172" lon="2.33615">
        <ele>34.9</ele>
        <time>2023-04-06T13:50:06Z</time>
      </trkpt>
      <trkpt lat="49.87173" lon="2.33616">
        <ele>34.9</ele>
        <time>2023-04-06T13:50:07Z</time>
      </trkpt>
      <trkpt lat="49.87174" lon="2.33616">
        <ele>34.8</ele>
        <time>2023-04-06T13:50:08Z</time>
      </trkpt>
      <trkpt lat="49.87175" lon="2.33617">
        <ele>34.8</ele>
        <time>2023-04-06T13:50:09Z</time>
      </trkpt>
      <trkpt lat="49.87177" lon="2.33618">
        <ele>34.8</ele>
        <time>2023-04-06T13:50:10Z</time>
      </trkpt>
      <trkpt lat="49.87178" lon="2.33618">
        <ele>34.7</ele>
        <time>2023-04-06T13:50:11Z</time>
      </trkpt>
      <trkpt lat="49.8718" lon="2.33619">
        <ele>34.7</ele>
        <time>2023-04-06T13:50:13Z</time>
      </trkpt>
      <trkpt lat="49.87181" lon="2.3362">
        <ele>34.7</ele>
        <time>2023-04-06T13:50:14Z</time>
      </trkpt>
      <trkpt lat="49.87183" lon="2.33621">
        <ele>34.6</ele>
        <time>2023-04-06T13:50:15Z</time>
      </trkpt>
      <trkpt lat="49.87184" lon="2.33622">
        <ele>34.6</ele>
        <time>2023-04-06T13:50:16Z</time>
      </trkpt>
      <trkpt lat="49.87186" lon="2.33622">
        <ele>34.5</ele>
        <time>2023-04-06T13:50:17Z</time>
      </trkpt>
      <trkpt lat="49.87189" lon="2.33623">
        <ele>34.5</ele>
        <time>2023-04-06T13:50:18Z</time>
      </trkpt>
      <trkpt lat="49.8719" lon="2.33623">
        <ele>34.5</ele>
        <time>2023-04-06T13:50:19Z</time>
      </trkpt>
      <trkpt lat="49.87193" lon="2.33624">
        <ele>34.4</ele>
        <time>2023-04-06T13:50:21Z</time>
      </trkpt>
      <trkpt lat="49.87194" lon="2.33625">
        <ele>34.4</ele>
        <time>2023-04-06T13:50:22Z</time>
      </trkpt>
      <trkpt lat="49.87196" lon="2.33625">
        <ele>34.3</ele>
        <time>2023-04-06T13:50:23Z</time>
      </trkpt>
      <trkpt lat="49.87197" lon="2.33626">
        <ele>34.3</ele>
        <time>2023-04-06T13:50:24Z</time>
      </trkpt>
      <trkpt lat="49.87198" lon="2.33626">
        <ele>34.3</ele>
        <time>2023-04-06T13:50:25Z</time>
      </trkpt>
      <trkpt lat="49.87199" lon="2.33626">
        <ele>34.2</ele>
        <time>2023-04-06T13:50:26Z</time>
      </trkpt>
      <trkpt lat="49.87201" lon="2.33627">
        <ele>34.2</ele>
        <time>2023-04-06T13:50:28Z</time>
      </trkpt>
      <trkpt lat="49.87202" lon="2.33628">
        <ele>34.2</ele>
        <time>2023-04-06T13:50:30Z</time>
      </trkpt>
      <trkpt lat="49.87204" lon="2.33629">
        <ele>34.2</ele>
        <time>2023-04-06T13:50:31Z</time>
      </trkpt>
      <trkpt lat="49.87205" lon="2.33629">
        <ele>34.2</ele>
        <time>2023-04-06T13:50:32Z</time>
      </trkpt>
      <trkpt lat="49.87206" lon="2.33629">
        <ele>34.2</ele>
        <time>2023-04-06T13:50:33Z</time>
      </trkpt>
      <trkpt lat="49.87208" lon="2.3363">
        <ele>34.2</ele>
        <time>2023-04-06T13:50:34Z</time>
      </trkpt>
      <trkpt lat="49.87209" lon="2.3363">
        <ele>34.2</ele>
        <time>2023-04-06T13:50:35Z</time>
      </trkpt>
      <trkpt lat="49.8721" lon="2.3363">
        <ele>34.2</ele>
        <time>2023-04-06T13:50:37Z</time>
      </trkpt>
      <trkpt lat="49.87212" lon="2.33633">
        <ele>34.2</ele>
        <time>2023-04-06T13:50:38Z</time>
      </trkpt>
      <trkpt lat="49.87212" lon="2.33632">
        <ele>34.2</ele>
        <time>2023-04-06T13:50:39Z</time>
      </trkpt>
      <trkpt lat="49.87213" lon="2.33631">
        <ele>34.2</ele>
        <time>2023-04-06T13:50:40Z</time>
      </trkpt>
      <trkpt lat="49.87214" lon="2.3363">
        <ele>34.2</ele>
        <time>2023-04-06T13:50:41Z</time>
      </trkpt>
      <trkpt lat="49.87215" lon="2.33629">
        <ele>34.2</ele>
        <time>2023-04-06T13:50:42Z</time>
      </trkpt>
      <trkpt lat="49.87216" lon="2.33622">
        <ele>34.2</ele>
        <time>2023-04-06T13:50:43Z</time>
      </trkpt>
      <trkpt lat="49.87216" lon="2.33621">
        <ele>34.2</ele>
        <time>2023-04-06T13:50:44Z</time>
      </trkpt>
      <trkpt lat="49.87217" lon="2.3362">
        <ele>34.2</ele>
        <time>2023-04-06T13:50:45Z</time>
      </trkpt>
      <trkpt lat="49.87218" lon="2.33619">
        <ele>34.2</ele>
        <time>2023-04-06T13:50:47Z</time>
      </trkpt>
      <trkpt lat="49.87219" lon="2.33616">
        <ele>34.2</ele>
        <time>2023-04-06T13:50:48Z</time>
      </trkpt>
      <trkpt lat="49.87219" lon="2.33615">
        <ele>34.2</ele>
        <time>2023-04-06T13:50:49Z</time>
      </trkpt>
      <trkpt lat="49.8722" lon="2.33614">
        <ele>34.2</ele>
        <time>2023-04-06T13:50:50Z</time>
      </trkpt>
      <trkpt lat="49.87221" lon="2.33615">
        <ele>34.2</ele>
        <time>2023-04-06T13:50:51Z</time>
      </trkpt>
      <trkpt lat="49.87222" lon="2.33614">
        <ele>34.3</ele>
        <time>2023-04-06T13:50:52Z</time>
      </trkpt>
      <trkpt lat="49.87223" lon="2.33613">
        <ele>34.3</ele>
        <time>2023-04-06T13:50:53Z</time>
      </trkpt>
      <trkpt lat="49.87224" lon="2.33611">
        <ele>34.3</ele>
        <time>2023-04-06T13:50:54Z</time>
      </trkpt>
      <trkpt lat="49.87225" lon="2.33607">
        <ele>34.3</ele>
        <time>2023-04-06T13:50:56Z</time>
      </trkpt>
      <trkpt lat="49.87226" lon="2.33605">
        <ele>34.3</ele>
        <time>2023-04-06T13:50:57Z</time>
      </trkpt>
      <trkpt lat="49.87227" lon="2.33601">
        <ele>34.5</ele>
        <time>2023-04-06T13:50:58Z</time>
      </trkpt>
      <trkpt lat="49.87227" lon="2.336">
        <ele>34.6</ele>
        <time>2023-04-06T13:50:59Z</time>
      </trkpt>
      <trkpt lat="49.87228" lon="2.33598">
        <ele>34.7</ele>
        <time>2023-04-06T13:51:00Z</time>
      </trkpt>
      <trkpt lat="49.8723" lon="2.33597">
        <ele>34.7</ele>
        <time>2023-04-06T13:51:01Z</time>
      </trkpt>
      <trkpt lat="49.87231" lon="2.33597">
        <ele>37</ele>
        <time>2023-04-06T13:51:03Z</time>
      </trkpt>
      <trkpt lat="49.87232" lon="2.33597">
        <ele>37</ele>
        <time>2023-04-06T13:51:04Z</time>
      </trkpt>
      <trkpt lat="49.87234" lon="2.33596">
        <ele>37</ele>
        <time>2023-04-06T13:51:05Z</time>
      </trkpt>
      <trkpt lat="49.87234" lon="2.33595">
        <ele>37</ele>
        <time>2023-04-06T13:51:06Z</time>
      </trkpt>
      <trkpt lat="49.87233" lon="2.33592">
        <ele>37</ele>
        <time>2023-04-06T13:51:07Z</time>
      </trkpt>
      <trkpt lat="49.87233" lon="2.33591">
        <ele>37</ele>
        <time>2023-04-06T13:51:08Z</time>
      </trkpt>
      <trkpt lat="49.87232" lon="2.33589">
        <ele>37.1</ele>
        <time>2023-04-06T13:51:09Z</time>
      </trkpt>
      <trkpt lat="49.87232" lon="2.33587">
        <ele>37.1</ele>
        <time>2023-04-06T13:51:11Z</time>
      </trkpt>
      <trkpt lat="49.87232" lon="2.33585">
        <ele>37.1</ele>
        <time>2023-04-06T13:51:12Z</time>
      </trkpt>
      <trkpt lat="49.87233" lon="2.33583">
        <ele>37.1</ele>
        <time>2023-04-06T13:51:13Z</time>
      </trkpt>
      <trkpt lat="49.87233" lon="2.33581">
        <ele>37.1</ele>
        <time>2023-04-06T13:51:14Z</time>
      </trkpt>
      <trkpt lat="49.87234" lon="2.3358">
        <ele>37.2</ele>
        <time>2023-04-06T13:51:15Z</time>
      </trkpt>
      <trkpt lat="49.87235" lon="2.3358">
        <ele>37.2</ele>
        <time>2023-04-06T13:51:16Z</time>
      </trkpt>
      <trkpt lat="49.87236" lon="2.3358">
        <ele>37.2</ele>
        <time>2023-04-06T13:51:17Z</time>
      </trkpt>
      <trkpt lat="49.87237" lon="2.33579">
        <ele>37.2</ele>
        <time>2023-04-06T13:51:19Z</time>
      </trkpt>
      <trkpt lat="49.87238" lon="2.33578">
        <ele>37.2</ele>
        <time>2023-04-06T13:51:20Z</time>
      </trkpt>
      <trkpt lat="49.87239" lon="2.33577">
        <ele>37.2</ele>
        <time>2023-04-06T13:51:21Z</time>
      </trkpt>
      <trkpt lat="49.87241" lon="2.33576">
        <ele>37.3</ele>
        <time>2023-04-06T13:51:22Z</time>
      </trkpt>
      <trkpt lat="49.87242" lon="2.33576">
        <ele>37.3</ele>
        <time>2023-04-06T13:51:23Z</time>
      </trkpt>
      <trkpt lat="49.87243" lon="2.33576">
        <ele>37.3</ele>
        <time>2023-04-06T13:51:24Z</time>
      </trkpt>
      <trkpt lat="49.87245" lon="2.33575">
        <ele>37.3</ele>
        <time>2023-04-06T13:51:25Z</time>
      </trkpt>
      <trkpt lat="49.87246" lon="2.33575">
        <ele>37.3</ele>
        <time>2023-04-06T13:51:26Z</time>
      </trkpt>
      <trkpt lat="49.87248" lon="2.33574">
        <ele>37.4</ele>
        <time>2023-04-06T13:51:28Z</time>
      </trkpt>
      <trkpt lat="49.87248" lon="2.33573">
        <ele>37.4</ele>
        <time>2023-04-06T13:51:29Z</time>
      </trkpt>
      <trkpt lat="49.87249" lon="2.33573">
        <ele>37.4</ele>
        <time>2023-04-06T13:51:30Z</time>
      </trkpt>
      <trkpt lat="49.87251" lon="2.3357">
        <ele>37.4</ele>
        <time>2023-04-06T13:51:31Z</time>
      </trkpt>
      <trkpt lat="49.87251" lon="2.33568">
        <ele>37.4</ele>
        <time>2023-04-06T13:51:32Z</time>
      </trkpt>
      <trkpt lat="49.87252" lon="2.33566">
        <ele>37.5</ele>
        <time>2023-04-06T13:51:33Z</time>
      </trkpt>
      <trkpt lat="49.87252" lon="2.33565">
        <ele>37.5</ele>
        <time>2023-04-06T13:51:34Z</time>
      </trkpt>
      <trkpt lat="49.87252" lon="2.33564">
        <ele>37.5</ele>
        <time>2023-04-06T13:51:35Z</time>
      </trkpt>
      <trkpt lat="49.87254" lon="2.33563">
        <ele>37.5</ele>
        <time>2023-04-06T13:51:37Z</time>
      </trkpt>
      <trkpt lat="49.87252" lon="2.33556">
        <ele>37.6</ele>
        <time>2023-04-06T13:51:38Z</time>
      </trkpt>
      <trkpt lat="49.87254" lon="2.33554">
        <ele>37.6</ele>
        <time>2023-04-06T13:51:39Z</time>
      </trkpt>
      <trkpt lat="49.87255" lon="2.33554">
        <ele>37.6</ele>
        <time>2023-04-06T13:51:40Z</time>
      </trkpt>
      <trkpt lat="49.87256" lon="2.33553">
        <ele>37.7</ele>
        <time>2023-04-06T13:51:41Z</time>
      </trkpt>
      <trkpt lat="49.87258" lon="2.33554">
        <ele>37.7</ele>
        <time>2023-04-06T13:51:42Z</time>
      </trkpt>
      <trkpt lat="49.87258" lon="2.33552">
        <ele>37.7</ele>
        <time>2023-04-06T13:51:44Z</time>
      </trkpt>
      <trkpt lat="49.87259" lon="2.33551">
        <ele>37.7</ele>
        <time>2023-04-06T13:51:45Z</time>
      </trkpt>
      <trkpt lat="49.87262" lon="2.33552">
        <ele>37.7</ele>
        <time>2023-04-06T13:51:46Z</time>
      </trkpt>
      <trkpt lat="49.87263" lon="2.33553">
        <ele>37.7</ele>
        <time>2023-04-06T13:51:47Z</time>
      </trkpt>
      <trkpt lat="49.87266" lon="2.33556">
        <ele>37.6</ele>
        <time>2023-04-06T13:51:48Z</time>
      </trkpt>
      <trkpt lat="49.87267" lon="2.33557">
        <ele>37.6</ele>
        <time>2023-04-06T13:51:49Z</time>
      </trkpt>
      <trkpt lat="49.87268" lon="2.33558">
        <ele>37.6</ele>
        <time>2023-04-06T13:51:50Z</time>
      </trkpt>
      <trkpt lat="49.87269" lon="2.33559">
        <ele>37.5</ele>
        <time>2023-04-06T13:51:51Z</time>
      </trkpt>
      <trkpt lat="49.87272" lon="2.33561">
        <ele>37.5</ele>
        <time>2023-04-06T13:51:53Z</time>
      </trkpt>
      <trkpt lat="49.87273" lon="2.33561">
        <ele>37.5</ele>
        <time>2023-04-06T13:51:54Z</time>
      </trkpt>
      <trkpt lat="49.87274" lon="2.33561">
        <ele>37.5</ele>
        <time>2023-04-06T13:51:55Z</time>
      </trkpt>
      <trkpt lat="49.87275" lon="2.33561">
        <ele>37.4</ele>
        <time>2023-04-06T13:51:56Z</time>
      </trkpt>
      <trkpt lat="49.87278" lon="2.33561">
        <ele>37.4</ele>
        <time>2023-04-06T13:51:57Z</time>
      </trkpt>
      <trkpt lat="49.87279" lon="2.33561">
        <ele>37.4</ele>
        <time>2023-04-06T13:51:58Z</time>
      </trkpt>
      <trkpt lat="49.8728" lon="2.33561">
        <ele>37.4</ele>
        <time>2023-04-06T13:52:00Z</time>
      </trkpt>
      <trkpt lat="49.87282" lon="2.33561">
        <ele>37.3</ele>
        <time>2023-04-06T13:52:01Z</time>
      </trkpt>
      <trkpt lat="49.87285" lon="2.3356">
        <ele>37.4</ele>
        <time>2023-04-06T13:52:02Z</time>
      </trkpt>
      <trkpt lat="49.87286" lon="2.3356">
        <ele>37.4</ele>
        <time>2023-04-06T13:52:03Z</time>
      </trkpt>
      <trkpt lat="49.87287" lon="2.33559">
        <ele>37.4</ele>
        <time>2023-04-06T13:52:04Z</time>
      </trkpt>
      <trkpt lat="49.87288" lon="2.33558">
        <ele>37.4</ele>
        <time>2023-04-06T13:52:05Z</time>
      </trkpt>
      <trkpt lat="49.87289" lon="2.33558">
        <ele>37.4</ele>
        <time>2023-04-06T13:52:06Z</time>
      </trkpt>
      <trkpt lat="49.87291" lon="2.33557">
        <ele>37.4</ele>
        <time>2023-04-06T13:52:07Z</time>
      </trkpt>
      <trkpt lat="49.87292" lon="2.33556">
        <ele>37.4</ele>
        <time>2023-04-06T13:52:09Z</time>
      </trkpt>
      <trkpt lat="49.87294" lon="2.33556">
        <ele>37.5</ele>
        <time>2023-04-06T13:52:10Z</time>
      </trkpt>
      <trkpt lat="49.87295" lon="2.33555">
        <ele>37.5</ele>
        <time>2023-04-06T13:52:11Z</time>
      </trkpt>
      <trkpt lat="49.87298" lon="2.33554">
        <ele>37.5</ele>
        <time>2023-04-06T13:52:12Z</time>
      </trkpt>
      <trkpt lat="49.87299" lon="2.33554">
        <ele>37.5</ele>
        <time>2023-04-06T13:52:13Z</time>
      </trkpt>
      <trkpt lat="49.873" lon="2.33554">
        <ele>37.5</ele>
        <time>2023-04-06T13:52:14Z</time>
      </trkpt>
      <trkpt lat="49.87301" lon="2.33553">
        <ele>37.5</ele>
        <time>2023-04-06T13:52:15Z</time>
      </trkpt>
      <trkpt lat="49.87302" lon="2.33552">
        <ele>37.5</ele>
        <time>2023-04-06T13:52:16Z</time>
      </trkpt>
      <trkpt lat="49.87304" lon="2.33551">
        <ele>37.5</ele>
        <time>2023-04-06T13:52:18Z</time>
      </trkpt>
      <trkpt lat="49.87305" lon="2.33551">
        <ele>37.5</ele>
        <time>2023-04-06T13:52:19Z</time>
      </trkpt>
      <trkpt lat="49.87306" lon="2.3355">
        <ele>37.5</ele>
        <time>2023-04-06T13:52:20Z</time>
      </trkpt>
      <trkpt lat="49.87307" lon="2.3355">
        <ele>37.5</ele>
        <time>2023-04-06T13:52:21Z</time>
      </trkpt>
      <trkpt lat="49.87308" lon="2.33549">
        <ele>37.5</ele>
        <time>2023-04-06T13:52:22Z</time>
      </trkpt>
      <trkpt lat="49.87309" lon="2.33549">
        <ele>37.5</ele>
        <time>2023-04-06T13:52:23Z</time>
      </trkpt>
      <trkpt lat="49.8731" lon="2.33549">
        <ele>37.5</ele>
        <time>2023-04-06T13:52:24Z</time>
      </trkpt>
      <trkpt lat="49.87312" lon="2.33548">
        <ele>37.5</ele>
        <time>2023-04-06T13:52:26Z</time>
      </trkpt>
      <trkpt lat="49.87313" lon="2.33548">
        <ele>37.5</ele>
        <time>2023-04-06T13:52:27Z</time>
      </trkpt>
      <trkpt lat="49.87314" lon="2.33548">
        <ele>37.4</ele>
        <time>2023-04-06T13:52:28Z</time>
      </trkpt>
      <trkpt lat="49.87316" lon="2.33547">
        <ele>37.4</ele>
        <time>2023-04-06T13:52:29Z</time>
      </trkpt>
      <trkpt lat="49.87317" lon="2.33547">
        <ele>37.4</ele>
        <time>2023-04-06T13:52:30Z</time>
      </trkpt>
      <trkpt lat="49.87318" lon="2.33546">
        <ele>37.4</ele>
        <time>2023-04-06T13:52:31Z</time>
      </trkpt>
      <trkpt lat="49.8732" lon="2.33546">
        <ele>37.3</ele>
        <time>2023-04-06T13:52:32Z</time>
      </trkpt>
      <trkpt lat="49.87322" lon="2.33545">
        <ele>37.3</ele>
        <time>2023-04-06T13:52:34Z</time>
      </trkpt>
      <trkpt lat="49.87324" lon="2.33544">
        <ele>37.2</ele>
        <time>2023-04-06T13:52:35Z</time>
      </trkpt>
      <trkpt lat="49.87325" lon="2.33544">
        <ele>37.2</ele>
        <time>2023-04-06T13:52:36Z</time>
      </trkpt>
      <trkpt lat="49.87325" lon="2.33543">
        <ele>37.2</ele>
        <time>2023-04-06T13:52:37Z</time>
      </trkpt>
      <trkpt lat="49.87328" lon="2.33542">
        <ele>37.2</ele>
        <time>2023-04-06T13:52:38Z</time>
      </trkpt>
      <trkpt lat="49.87329" lon="2.33541">
        <ele>37.1</ele>
        <time>2023-04-06T13:52:39Z</time>
      </trkpt>
      <trkpt lat="49.8733" lon="2.33541">
        <ele>37.1</ele>
        <time>2023-04-06T13:52:40Z</time>
      </trkpt>
      <trkpt lat="49.87331" lon="2.3354">
        <ele>37.1</ele>
        <time>2023-04-06T13:52:41Z</time>
      </trkpt>
      <trkpt lat="49.87332" lon="2.33539">
        <ele>37.1</ele>
        <time>2023-04-06T13:52:43Z</time>
      </trkpt>
      <trkpt lat="49.87334" lon="2.33537">
        <ele>37.1</ele>
        <time>2023-04-06T13:52:44Z</time>
      </trkpt>
      <trkpt lat="49.87335" lon="2.33537">
        <ele>37</ele>
        <time>2023-04-06T13:52:45Z</time>
      </trkpt>
      <trkpt lat="49.87337" lon="2.33536">
        <ele>37</ele>
        <time>2023-04-06T13:52:46Z</time>
      </trkpt>
      <trkpt lat="49.87338" lon="2.33535">
        <ele>37</ele>
        <time>2023-04-06T13:52:47Z</time>
      </trkpt>
      <trkpt lat="49.87338" lon="2.33535">
        <ele>37</ele>
        <time>2023-04-06T13:52:48Z</time>
      </trkpt>
      <trkpt lat="49.87341" lon="2.33534">
        <ele>37</ele>
        <time>2023-04-06T13:52:49Z</time>
      </trkpt>
      <trkpt lat="49.87342" lon="2.33533">
        <ele>37</ele>
        <time>2023-04-06T13:52:51Z</time>
      </trkpt>
      <trkpt lat="49.87343" lon="2.33532">
        <ele>37</ele>
        <time>2023-04-06T13:52:52Z</time>
      </trkpt>
      <trkpt lat="49.87344" lon="2.33532">
        <ele>37</ele>
        <time>2023-04-06T13:52:53Z</time>
      </trkpt>
      <trkpt lat="49.87345" lon="2.33531">
        <ele>37</ele>
        <time>2023-04-06T13:52:54Z</time>
      </trkpt>
      <trkpt lat="49.87346" lon="2.33531">
        <ele>37</ele>
        <time>2023-04-06T13:52:55Z</time>
      </trkpt>
      <trkpt lat="49.87347" lon="2.3353">
        <ele>37</ele>
        <time>2023-04-06T13:52:56Z</time>
      </trkpt>
      <trkpt lat="49.87348" lon="2.33529">
        <ele>36.9</ele>
        <time>2023-04-06T13:52:58Z</time>
      </trkpt>
      <trkpt lat="49.87349" lon="2.33528">
        <ele>36.9</ele>
        <time>2023-04-06T13:52:59Z</time>
      </trkpt>
      <trkpt lat="49.87351" lon="2.33527">
        <ele>36.9</ele>
        <time>2023-04-06T13:53:00Z</time>
      </trkpt>
      <trkpt lat="49.87352" lon="2.33526">
        <ele>36.9</ele>
        <time>2023-04-06T13:53:01Z</time>
      </trkpt>
      <trkpt lat="49.87353" lon="2.33525">
        <ele>36.9</ele>
        <time>2023-04-06T13:53:02Z</time>
      </trkpt>
      <trkpt lat="49.87354" lon="2.33523">
        <ele>36.9</ele>
        <time>2023-04-06T13:53:03Z</time>
      </trkpt>
      <trkpt lat="49.87356" lon="2.33522">
        <ele>37</ele>
        <time>2023-04-06T13:53:05Z</time>
      </trkpt>
      <trkpt lat="49.87357" lon="2.33521">
        <ele>37</ele>
        <time>2023-04-06T13:53:06Z</time>
      </trkpt>
      <trkpt lat="49.87358" lon="2.3352">
        <ele>37</ele>
        <time>2023-04-06T13:53:07Z</time>
      </trkpt>
      <trkpt lat="49.8736" lon="2.33519">
        <ele>37</ele>
        <time>2023-04-06T13:53:08Z</time>
      </trkpt>
      <trkpt lat="49.87361" lon="2.33519">
        <ele>37</ele>
        <time>2023-04-06T13:53:09Z</time>
      </trkpt>
      <trkpt lat="49.87362" lon="2.33518">
        <ele>37</ele>
        <time>2023-04-06T13:53:10Z</time>
      </trkpt>
      <trkpt lat="49.87363" lon="2.33518">
        <ele>37.1</ele>
        <time>2023-04-06T13:53:12Z</time>
      </trkpt>
      <trkpt lat="49.87365" lon="2.33517">
        <ele>37.1</ele>
        <time>2023-04-06T13:53:13Z</time>
      </trkpt>
      <trkpt lat="49.87366" lon="2.33516">
        <ele>37.1</ele>
        <time>2023-04-06T13:53:14Z</time>
      </trkpt>
      <trkpt lat="49.87367" lon="2.33516">
        <ele>37.1</ele>
        <time>2023-04-06T13:53:15Z</time>
      </trkpt>
      <trkpt lat="49.87369" lon="2.33515">
        <ele>37.2</ele>
        <time>2023-04-06T13:53:16Z</time>
      </trkpt>
      <trkpt lat="49.8737" lon="2.33515">
        <ele>37.2</ele>
        <time>2023-04-06T13:53:17Z</time>
      </trkpt>
      <trkpt lat="49.87371" lon="2.33514">
        <ele>37.2</ele>
        <time>2023-04-06T13:53:18Z</time>
      </trkpt>
      <trkpt lat="49.87373" lon="2.33513">
        <ele>37.3</ele>
        <time>2023-04-06T13:53:19Z</time>
      </trkpt>
      <trkpt lat="49.87374" lon="2.33513">
        <ele>37.3</ele>
        <time>2023-04-06T13:53:21Z</time>
      </trkpt>
      <trkpt lat="49.87376" lon="2.33512">
        <ele>37.3</ele>
        <time>2023-04-06T13:53:22Z</time>
      </trkpt>
      <trkpt lat="49.87377" lon="2.33512">
        <ele>37.3</ele>
        <time>2023-04-06T13:53:23Z</time>
      </trkpt>
      <trkpt lat="49.87378" lon="2.3351">
        <ele>37.3</ele>
        <time>2023-04-06T13:53:24Z</time>
      </trkpt>
      <trkpt lat="49.8738" lon="2.33509">
        <ele>37.4</ele>
        <time>2023-04-06T13:53:25Z</time>
      </trkpt>
      <trkpt lat="49.87381" lon="2.33509">
        <ele>37.4</ele>
        <time>2023-04-06T13:53:26Z</time>
      </trkpt>
      <trkpt lat="49.87382" lon="2.33508">
        <ele>37.4</ele>
        <time>2023-04-06T13:53:27Z</time>
      </trkpt>
      <trkpt lat="49.87384" lon="2.33507">
        <ele>37.4</ele>
        <time>2023-04-06T13:53:28Z</time>
      </trkpt>
      <trkpt lat="49.87385" lon="2.33506">
        <ele>37.5</ele>
        <time>2023-04-06T13:53:30Z</time>
      </trkpt>
      <trkpt lat="49.87387" lon="2.33506">
        <ele>37.5</ele>
        <time>2023-04-06T13:53:31Z</time>
      </trkpt>
      <trkpt lat="49.87388" lon="2.33505">
        <ele>37.5</ele>
        <time>2023-04-06T13:53:32Z</time>
      </trkpt>
      <trkpt lat="49.8739" lon="2.33504">
        <ele>37.6</ele>
        <time>2023-04-06T13:53:33Z</time>
      </trkpt>
      <trkpt lat="49.87391" lon="2.33504">
        <ele>37.6</ele>
        <time>2023-04-06T13:53:34Z</time>
      </trkpt>
      <trkpt lat="49.87392" lon="2.33503">
        <ele>37.6</ele>
        <time>2023-04-06T13:53:35Z</time>
      </trkpt>
      <trkpt lat="49.87393" lon="2.33502">
        <ele>37.6</ele>
        <time>2023-04-06T13:53:36Z</time>
      </trkpt>
      <trkpt lat="49.87395" lon="2.33502">
        <ele>37.6</ele>
        <time>2023-04-06T13:53:37Z</time>
      </trkpt>
      <trkpt lat="49.87396" lon="2.33501">
        <ele>37.7</ele>
        <time>2023-04-06T13:53:38Z</time>
      </trkpt>
      <trkpt lat="49.87398" lon="2.335">
        <ele>37.7</ele>
        <time>2023-04-06T13:53:40Z</time>
      </trkpt>
      <trkpt lat="49.87399" lon="2.33499">
        <ele>37.7</ele>
        <time>2023-04-06T13:53:41Z</time>
      </trkpt>
      <trkpt lat="49.87401" lon="2.33498">
        <ele>37.8</ele>
        <time>2023-04-06T13:53:42Z</time>
      </trkpt>
      <trkpt lat="49.87402" lon="2.33497">
        <ele>37.8</ele>
        <time>2023-04-06T13:53:43Z</time>
      </trkpt>
      <trkpt lat="49.87403" lon="2.33496">
        <ele>37.8</ele>
        <time>2023-04-06T13:53:44Z</time>
      </trkpt>
      <trkpt lat="49.87404" lon="2.33496">
        <ele>37.8</ele>
        <time>2023-04-06T13:53:45Z</time>
      </trkpt>
      <trkpt lat="49.87406" lon="2.33495">
        <ele>37.9</ele>
        <time>2023-04-06T13:53:46Z</time>
      </trkpt>
      <trkpt lat="49.87406" lon="2.33495">
        <ele>37.9</ele>
        <time>2023-04-06T13:53:47Z</time>
      </trkpt>
      <trkpt lat="49.87407" lon="2.33495">
        <ele>37.9</ele>
        <time>2023-04-06T13:53:49Z</time>
      </trkpt>
      <trkpt lat="49.87408" lon="2.33494">
        <ele>37.9</ele>
        <time>2023-04-06T13:53:50Z</time>
      </trkpt>
      <trkpt lat="49.87409" lon="2.33493">
        <ele>38</ele>
        <time>2023-04-06T13:53:51Z</time>
      </trkpt>
      <trkpt lat="49.8741" lon="2.33492">
        <ele>38</ele>
        <time>2023-04-06T13:53:52Z</time>
      </trkpt>
      <trkpt lat="49.8741" lon="2.33492">
        <ele>38</ele>
        <time>2023-04-06T13:53:53Z</time>
      </trkpt>
      <trkpt lat="49.87411" lon="2.33492">
        <ele>38</ele>
        <time>2023-04-06T13:53:54Z</time>
      </trkpt>
      <trkpt lat="49.87412" lon="2.33492">
        <ele>38.1</ele>
        <time>2023-04-06T13:53:55Z</time>
      </trkpt>
      <trkpt lat="49.87413" lon="2.33491">
        <ele>38.1</ele>
        <time>2023-04-06T13:53:57Z</time>
      </trkpt>
      <trkpt lat="49.87414" lon="2.33491">
        <ele>38.1</ele>
        <time>2023-04-06T13:53:58Z</time>
      </trkpt>
      <trkpt lat="49.87415" lon="2.3349">
        <ele>38.1</ele>
        <time>2023-04-06T13:53:59Z</time>
      </trkpt>
      <trkpt lat="49.87415" lon="2.33491">
        <ele>38.2</ele>
        <time>2023-04-06T13:54:01Z</time>
      </trkpt>
      <trkpt lat="49.87416" lon="2.33492">
        <ele>38.2</ele>
        <time>2023-04-06T13:54:02Z</time>
      </trkpt>
      <trkpt lat="49.87415" lon="2.33493">
        <ele>38.2</ele>
        <time>2023-04-06T13:54:04Z</time>
      </trkpt>
      <trkpt lat="49.87415" lon="2.33493">
        <ele>38.2</ele>
        <time>2023-04-06T13:54:05Z</time>
      </trkpt>
      <trkpt lat="49.87415" lon="2.33493">
        <ele>38.2</ele>
        <time>2023-04-06T13:54:06Z</time>
      </trkpt>
      <trkpt lat="49.87415" lon="2.33493">
        <ele>38.2</ele>
        <time>2023-04-06T13:54:07Z</time>
      </trkpt>
      <trkpt lat="49.87415" lon="2.33493">
        <ele>38.2</ele>
        <time>2023-04-06T13:54:09Z</time>
      </trkpt>
      <trkpt lat="49.87415" lon="2.33493">
        <ele>38.2</ele>
        <time>2023-04-06T13:54:10Z</time>
      </trkpt>
      <trkpt lat="49.87415" lon="2.33493">
        <ele>38.2</ele>
        <time>2023-04-06T13:54:11Z</time>
      </trkpt>
      <trkpt lat="49.87415" lon="2.33493">
        <ele>38.2</ele>
        <time>2023-04-06T13:54:13Z</time>
      </trkpt>
      <trkpt lat="49.87415" lon="2.33493">
        <ele>38.2</ele>
        <time>2023-04-06T13:54:14Z</time>
      </trkpt>
      <trkpt lat="49.87415" lon="2.33493">
        <ele>38.2</ele>
        <time>2023-04-06T13:54:15Z</time>
      </trkpt>
      <trkpt lat="49.87415" lon="2.33493">
        <ele>38.2</ele>
        <time>2023-04-06T13:54:17Z</time>
      </trkpt>
      <trkpt lat="49.87415" lon="2.33492">
        <ele>38.2</ele>
        <time>2023-04-06T13:54:18Z</time>
      </trkpt>
      <trkpt lat="49.87414" lon="2.33492">
        <ele>38.2</ele>
        <time>2023-04-06T13:54:19Z</time>
      </trkpt>
      <trkpt lat="49.87414" lon="2.33492">
        <ele>38.2</ele>
        <time>2023-04-06T13:54:20Z</time>
      </trkpt>
      <trkpt lat="49.87414" lon="2.33492">
        <ele>38.2</ele>
        <time>2023-04-06T13:54:21Z</time>
      </trkpt>
      <trkpt lat="49.87414" lon="2.33492">
        <ele>38.2</ele>
        <time>2023-04-06T13:54:22Z</time>
      </trkpt>
      <trkpt lat="49.87414" lon="2.33492">
        <ele>38.3</ele>
        <time>2023-04-06T13:54:23Z</time>
      </trkpt>
      <trkpt lat="49.87414" lon="2.33492">
        <ele>38.3</ele>
        <time>2023-04-06T13:54:24Z</time>
      </trkpt>
      <trkpt lat="49.87414" lon="2.33492">
        <ele>38.3</ele>
        <time>2023-04-06T13:54:25Z</time>
      </trkpt>
      <trkpt lat="49.87414" lon="2.33492">
        <ele>38.3</ele>
        <time>2023-04-06T13:54:26Z</time>
      </trkpt>
      <trkpt lat="49.87414" lon="2.33492">
        <ele>38.3</ele>
        <time>2023-04-06T13:54:27Z</time>
      </trkpt>
      <trkpt lat="49.87414" lon="2.33492">
        <ele>38.3</ele>
        <time>2023-04-06T13:54:28Z</time>
      </trkpt>
      <trkpt lat="49.87414" lon="2.33492">
        <ele>38.3</ele>
        <time>2023-04-06T13:54:29Z</time>
      </trkpt>
      <trkpt lat="49.87413" lon="2.33492">
        <ele>38.3</ele>
        <time>2023-04-06T13:54:30Z</time>
      </trkpt>
      <trkpt lat="49.87413" lon="2.33492">
        <ele>38.3</ele>
        <time>2023-04-06T13:54:31Z</time>
      </trkpt>
      <trkpt lat="49.87413" lon="2.33492">
        <ele>38.3</ele>
        <time>2023-04-06T13:54:32Z</time>
      </trkpt>
      <trkpt lat="49.87413" lon="2.33492">
        <ele>38.3</ele>
        <time>2023-04-06T13:54:33Z</time>
      </trkpt>
      <trkpt lat="49.87413" lon="2.33491">
        <ele>38.3</ele>
        <time>2023-04-06T13:54:34Z</time>
      </trkpt>
      <trkpt lat="49.87413" lon="2.33491">
        <ele>38.3</ele>
        <time>2023-04-06T13:54:35Z</time>
      </trkpt>
      <trkpt lat="49.87413" lon="2.33491">
        <ele>38.3</ele>
        <time>2023-04-06T13:54:36Z</time>
      </trkpt>
      <trkpt lat="49.87413" lon="2.33491">
        <ele>38.3</ele>
        <time>2023-04-06T13:54:37Z</time>
      </trkpt>
      <trkpt lat="49.87413" lon="2.33491">
        <ele>38.3</ele>
        <time>2023-04-06T13:54:38Z</time>
      </trkpt>
      <trkpt lat="49.87413" lon="2.33491">
        <ele>38.3</ele>
        <time>2023-04-06T13:54:39Z</time>
      </trkpt>
      <trkpt lat="49.87413" lon="2.33491">
        <ele>38.3</ele>
        <time>2023-04-06T13:54:40Z</time>
      </trkpt>
      <trkpt lat="49.87412" lon="2.33491">
        <ele>38.3</ele>
        <time>2023-04-06T13:54:41Z</time>
      </trkpt>
      <trkpt lat="49.87412" lon="2.33491">
        <ele>38.3</ele>
        <time>2023-04-06T13:54:42Z</time>
      </trkpt>
      <trkpt lat="49.87412" lon="2.33491">
        <ele>38.3</ele>
        <time>2023-04-06T13:54:43Z</time>
      </trkpt>
      <trkpt lat="49.87412" lon="2.33491">
        <ele>38.3</ele>
        <time>2023-04-06T13:54:44Z</time>
      </trkpt>
      <trkpt lat="49.87412" lon="2.33491">
        <ele>38.3</ele>
        <time>2023-04-06T13:54:45Z</time>
      </trkpt>
      <trkpt lat="49.87412" lon="2.33491">
        <ele>38.3</ele>
        <time>2023-04-06T13:54:46Z</time>
      </trkpt>
      <trkpt lat="49.87412" lon="2.33491">
        <ele>38.3</ele>
        <time>2023-04-06T13:54:47Z</time>
      </trkpt>
      <trkpt lat="49.87412" lon="2.33491">
        <ele>38.3</ele>
        <time>2023-04-06T13:54:48Z</time>
      </trkpt>
      <trkpt lat="49.87411" lon="2.33489">
        <ele>38.4</ele>
        <time>2023-04-06T13:54:49Z</time>
      </trkpt>
      <trkpt lat="49.87411" lon="2.33489">
        <ele>38.4</ele>
        <time>2023-04-06T13:54:50Z</time>
      </trkpt>
      <trkpt lat="49.87411" lon="2.33489">
        <ele>38.4</ele>
        <time>2023-04-06T13:54:51Z</time>
      </trkpt>
      <trkpt lat="49.87412" lon="2.33489">
        <ele>38.4</ele>
        <time>2023-04-06T13:54:52Z</time>
      </trkpt>
      <trkpt lat="49.87412" lon="2.33489">
        <ele>38.4</ele>
        <time>2023-04-06T13:54:53Z</time>
      </trkpt>
      <trkpt lat="49.87412" lon="2.33489">
        <ele>38.4</ele>
        <time>2023-04-06T13:54:54Z</time>
      </trkpt>
      <trkpt lat="49.87412" lon="2.33489">
        <ele>38.4</ele>
        <time>2023-04-06T13:54:55Z</time>
      </trkpt>
      <trkpt lat="49.87412" lon="2.33489">
        <ele>38.4</ele>
        <time>2023-04-06T13:54:56Z</time>
      </trkpt>
      <trkpt lat="49.87412" lon="2.33489">
        <ele>38.4</ele>
        <time>2023-04-06T13:54:57Z</time>
      </trkpt>
      <trkpt lat="49.87412" lon="2.33489">
        <ele>38.4</ele>
        <time>2023-04-06T13:54:58Z</time>
      </trkpt>
      <trkpt lat="49.87412" lon="2.33489">
        <ele>38.4</ele>
        <time>2023-04-06T13:54:59Z</time>
      </trkpt>
      <trkpt lat="49.87412" lon="2.33489">
        <ele>38.4</ele>
        <time>2023-04-06T13:55:00Z</time>
      </trkpt>
      <trkpt lat="49.87412" lon="2.33489">
        <ele>38.4</ele>
        <time>2023-04-06T13:55:01Z</time>
      </trkpt>
      <trkpt lat="49.87412" lon="2.33489">
        <ele>38.4</ele>
        <time>2023-04-06T13:55:02Z</time>
      </trkpt>
      <trkpt lat="49.87412" lon="2.33489">
        <ele>38.4</ele>
        <time>2023-04-06T13:55:03Z</time>
      </trkpt>
      <trkpt lat="49.87412" lon="2.33489">
        <ele>38.4</ele>
        <time>2023-04-06T13:55:04Z</time>
      </trkpt>
      <trkpt lat="49.87412" lon="2.33489">
        <ele>38.4</ele>
        <time>2023-04-06T13:55:05Z</time>
      </trkpt>
      <trkpt lat="49.87412" lon="2.33489">
        <ele>38.4</ele>
        <time>2023-04-06T13:55:06Z</time>
      </trkpt>
      <trkpt lat="49.87412" lon="2.33489">
        <ele>38.4</ele>
        <time>2023-04-06T13:55:07Z</time>
      </trkpt>
      <trkpt lat="49.87412" lon="2.33489">
        <ele>38.4</ele>
        <time>2023-04-06T13:55:08Z</time>
      </trkpt>
      <trkpt lat="49.87412" lon="2.33489">
        <ele>38.4</ele>
        <time>2023-04-06T13:55:09Z</time>
      </trkpt>
      <trkpt lat="49.87412" lon="2.33489">
        <ele>38.4</ele>
        <time>2023-04-06T13:55:10Z</time>
      </trkpt>
      <trkpt lat="49.87412" lon="2.33489">
        <ele>38.4</ele>
        <time>2023-04-06T13:55:11Z</time>
      </trkpt>
      <trkpt lat="49.87412" lon="2.33489">
        <ele>38.4</ele>
        <time>2023-04-06T13:55:12Z</time>
      </trkpt>
      <trkpt lat="49.87412" lon="2.33489">
        <ele>38.4</ele>
        <time>2023-04-06T13:55:13Z</time>
      </trkpt>
      <trkpt lat="49.87412" lon="2.33489">
        <ele>38.4</ele>
        <time>2023-04-06T13:55:14Z</time>
      </trkpt>
      <trkpt lat="49.87412" lon="2.33489">
        <ele>38.4</ele>
        <time>2023-04-06T13:55:15Z</time>
      </trkpt>
      <trkpt lat="49.87412" lon="2.33489">
        <ele>38.4</ele>
        <time>2023-04-06T13:55:16Z</time>
      </trkpt>
      <trkpt lat="49.87412" lon="2.33489">
        <ele>38.4</ele>
        <time>2023-04-06T13:55:17Z</time>
      </trkpt>
      <trkpt lat="49.87412" lon="2.33489">
        <ele>38.4</ele>
        <time>2023-04-06T13:55:18Z</time>
      </trkpt>
      <trkpt lat="49.87412" lon="2.33489">
        <ele>38.4</ele>
        <time>2023-04-06T13:55:19Z</time>
      </trkpt>
      <trkpt lat="49.87412" lon="2.33489">
        <ele>38.4</ele>
        <time>2023-04-06T13:55:20Z</time>
      </trkpt>
      <trkpt lat="49.87412" lon="2.33489">
        <ele>38.4</ele>
        <time>2023-04-06T13:55:21Z</time>
      </trkpt>
      <trkpt lat="49.87412" lon="2.33489">
        <ele>38.4</ele>
        <time>2023-04-06T13:55:22Z</time>
      </trkpt>
      <trkpt lat="49.87412" lon="2.33489">
        <ele>38.4</ele>
        <time>2023-04-06T13:55:23Z</time>
      </trkpt>
      <trkpt lat="49.87412" lon="2.33489">
        <ele>38.4</ele>
        <time>2023-04-06T13:55:24Z</time>
      </trkpt>
      <trkpt lat="49.87412" lon="2.33489">
        <ele>38.4</ele>
        <time>2023-04-06T13:55:25Z</time>
      </trkpt>
      <trkpt lat="49.87412" lon="2.33489">
        <ele>38.4</ele>
        <time>2023-04-06T13:55:26Z</time>
      </trkpt>
      <trkpt lat="49.87411" lon="2.3349">
        <ele>38.4</ele>
        <time>2023-04-06T13:55:27Z</time>
      </trkpt>
      <trkpt lat="49.87411" lon="2.3349">
        <ele>38.5</ele>
        <time>2023-04-06T13:55:28Z</time>
      </trkpt>
      <trkpt lat="49.87411" lon="2.33491">
        <ele>38.5</ele>
        <time>2023-04-06T13:55:29Z</time>
      </trkpt>
      <trkpt lat="49.87411" lon="2.33491">
        <ele>38.5</ele>
        <time>2023-04-06T13:55:30Z</time>
      </trkpt>
      <trkpt lat="49.87411" lon="2.33491">
        <ele>38.5</ele>
        <time>2023-04-06T13:55:31Z</time>
      </trkpt>
      <trkpt lat="49.87411" lon="2.33491">
        <ele>38.5</ele>
        <time>2023-04-06T13:55:32Z</time>
      </trkpt>
      <trkpt lat="49.87411" lon="2.33491">
        <ele>38.5</ele>
        <time>2023-04-06T13:55:33Z</time>
      </trkpt>
      <trkpt lat="49.87411" lon="2.33491">
        <ele>38.5</ele>
        <time>2023-04-06T13:55:34Z</time>
      </trkpt>
      <trkpt lat="49.87411" lon="2.33491">
        <ele>38.5</ele>
        <time>2023-04-06T13:55:35Z</time>
      </trkpt>
      <trkpt lat="49.8741" lon="2.33491">
        <ele>38.5</ele>
        <time>2023-04-06T13:55:36Z</time>
      </trkpt>
      <trkpt lat="49.8741" lon="2.33491">
        <ele>38.5</ele>
        <time>2023-04-06T13:55:37Z</time>
      </trkpt>
      <trkpt lat="49.8741" lon="2.33491">
        <ele>38.5</ele>
        <time>2023-04-06T13:55:38Z</time>
      </trkpt>
      <trkpt lat="49.8741" lon="2.33491">
        <ele>38.5</ele>
        <time>2023-04-06T13:55:39Z</time>
      </trkpt>
      <trkpt lat="49.8741" lon="2.33491">
        <ele>38.5</ele>
        <time>2023-04-06T13:55:40Z</time>
      </trkpt>
      <trkpt lat="49.8741" lon="2.33491">
        <ele>38.5</ele>
        <time>2023-04-06T13:55:41Z</time>
      </trkpt>
      <trkpt lat="49.8741" lon="2.33491">
        <ele>38.5</ele>
        <time>2023-04-06T13:55:42Z</time>
      </trkpt>
      <trkpt lat="49.8741" lon="2.33491">
        <ele>38.5</ele>
        <time>2023-04-06T13:55:43Z</time>
      </trkpt>
      <trkpt lat="49.8741" lon="2.33491">
        <ele>38.5</ele>
        <time>2023-04-06T13:55:44Z</time>
      </trkpt>
      <trkpt lat="49.8741" lon="2.33491">
        <ele>38.5</ele>
        <time>2023-04-06T13:55:45Z</time>
      </trkpt>
      <trkpt lat="49.8741" lon="2.33491">
        <ele>38.5</ele>
        <time>2023-04-06T13:55:46Z</time>
      </trkpt>
      <trkpt lat="49.8741" lon="2.33491">
        <ele>38.5</ele>
        <time>2023-04-06T13:55:47Z</time>
      </trkpt>
      <trkpt lat="49.8741" lon="2.33491">
        <ele>38.5</ele>
        <time>2023-04-06T13:55:48Z</time>
      </trkpt>
      <trkpt lat="49.8741" lon="2.33491">
        <ele>38.5</ele>
        <time>2023-04-06T13:55:49Z</time>
      </trkpt>
      <trkpt lat="49.8741" lon="2.33491">
        <ele>38.5</ele>
        <time>2023-04-06T13:55:50Z</time>
      </trkpt>
      <trkpt lat="49.8741" lon="2.33491">
        <ele>38.5</ele>
        <time>2023-04-06T13:55:51Z</time>
      </trkpt>
      <trkpt lat="49.8741" lon="2.33491">
        <ele>38.5</ele>
        <time>2023-04-06T13:55:52Z</time>
      </trkpt>
      <trkpt lat="49.8741" lon="2.33491">
        <ele>38.5</ele>
        <time>2023-04-06T13:55:53Z</time>
      </trkpt>
      <trkpt lat="49.8741" lon="2.33491">
        <ele>38.5</ele>
        <time>2023-04-06T13:55:54Z</time>
      </trkpt>
      <trkpt lat="49.8741" lon="2.33491">
        <ele>38.5</ele>
        <time>2023-04-06T13:55:55Z</time>
      </trkpt>
      <trkpt lat="49.8741" lon="2.33491">
        <ele>38.5</ele>
        <time>2023-04-06T13:55:56Z</time>
      </trkpt>
      <trkpt lat="49.8741" lon="2.33491">
        <ele>38.5</ele>
        <time>2023-04-06T13:55:57Z</time>
      </trkpt>
      <trkpt lat="49.8741" lon="2.33491">
        <ele>38.5</ele>
        <time>2023-04-06T13:55:58Z</time>
      </trkpt>
      <trkpt lat="49.8741" lon="2.33491">
        <ele>38.5</ele>
        <time>2023-04-06T13:55:59Z</time>
      </trkpt>
      <trkpt lat="49.8741" lon="2.33491">
        <ele>38.5</ele>
        <time>2023-04-06T13:56:00Z</time>
      </trkpt>
      <trkpt lat="49.8741" lon="2.33491">
        <ele>38.5</ele>
        <time>2023-04-06T13:56:01Z</time>
      </trkpt>
      <trkpt lat="49.8741" lon="2.33491">
        <ele>38.5</ele>
        <time>2023-04-06T13:56:02Z</time>
      </trkpt>
      <trkpt lat="49.8741" lon="2.33491">
        <ele>38.5</ele>
        <time>2023-04-06T13:56:03Z</time>
      </trkpt>
      <trkpt lat="49.8741" lon="2.33491">
        <ele>38.5</ele>
        <time>2023-04-06T13:56:04Z</time>
      </trkpt>
      <trkpt lat="49.8741" lon="2.33491">
        <ele>38.5</ele>
        <time>2023-04-06T13:56:05Z</time>
      </trkpt>
      <trkpt lat="49.8741" lon="2.33491">
        <ele>38.5</ele>
        <time>2023-04-06T13:56:06Z</time>
      </trkpt>
      <trkpt lat="49.8741" lon="2.33491">
        <ele>38.5</ele>
        <time>2023-04-06T13:56:07Z</time>
      </trkpt>
      <trkpt lat="49.8741" lon="2.33491">
        <ele>38.5</ele>
        <time>2023-04-06T13:56:08Z</time>
      </trkpt>
      <trkpt lat="49.8741" lon="2.33491">
        <ele>38.5</ele>
        <time>2023-04-06T13:56:09Z</time>
      </trkpt>
      <trkpt lat="49.8741" lon="2.33491">
        <ele>38.5</ele>
        <time>2023-04-06T13:56:10Z</time>
      </trkpt>
      <trkpt lat="49.8741" lon="2.33491">
        <ele>38.5</ele>
        <time>2023-04-06T13:56:11Z</time>
      </trkpt>
      <trkpt lat="49.8741" lon="2.33491">
        <ele>38.5</ele>
        <time>2023-04-06T13:56:12Z</time>
      </trkpt>
      <trkpt lat="49.8741" lon="2.33491">
        <ele>38.5</ele>
        <time>2023-04-06T13:56:14Z</time>
      </trkpt>
      <trkpt lat="49.8741" lon="2.33491">
        <ele>38.5</ele>
        <time>2023-04-06T13:56:15Z</time>
      </trkpt>
    </trkseg>
  </trk>
</gpx>